<?xml version="1.0" encoding="UTF-8" standalone="no" ?>
<gpx xmlns="http://www.topografix.com/GPX/1/1" xmlns:xsi="http://www.w3.org/2001/XMLSchema-instance" xsi:schemaLocation="http://www.topografix.com/GPX/1/1 http://www.topografix.com/GPX/1/1/gpx.xsd" version="1.1" creator="VisuGPX - https://www.visugpx.com">
  <metadata>
    <name>Vers vallée de la rauze</name>
  </metadata>
  <trk>
    <name><![CDATA[Vers vallée de la rauze_1]]></name>
    <trkseg>
      <trkpt lat="44.48592" lon="1.55518">
        <ele>136.7</ele>
        <time>2021-08-09T07:17:50Z</time>
      </trkpt>
      <trkpt lat="44.48596" lon="1.55525">
        <ele>136.5</ele>
        <time>2021-08-09T07:17:52Z</time>
      </trkpt>
      <trkpt lat="44.48594" lon="1.55525">
        <ele>136.4</ele>
        <time>2021-08-09T07:17:53Z</time>
      </trkpt>
      <trkpt lat="44.48594" lon="1.55506">
        <ele>136.1</ele>
        <time>2021-08-09T07:17:55Z</time>
      </trkpt>
      <trkpt lat="44.48593" lon="1.55518">
        <ele>135.8</ele>
        <time>2021-08-09T07:17:56Z</time>
      </trkpt>
      <trkpt lat="44.48592" lon="1.55521">
        <ele>135.7</ele>
        <time>2021-08-09T07:17:57Z</time>
      </trkpt>
      <trkpt lat="44.48589" lon="1.55522">
        <ele>135.7</ele>
        <time>2021-08-09T07:17:59Z</time>
      </trkpt>
      <trkpt lat="44.48586" lon="1.55521">
        <ele>135.6</ele>
        <time>2021-08-09T07:18:00Z</time>
      </trkpt>
      <trkpt lat="44.48585" lon="1.55521">
        <ele>135.5</ele>
        <time>2021-08-09T07:18:01Z</time>
      </trkpt>
      <trkpt lat="44.48584" lon="1.5552">
        <ele>135.5</ele>
        <time>2021-08-09T07:18:02Z</time>
      </trkpt>
      <trkpt lat="44.48584" lon="1.55519">
        <ele>135.5</ele>
        <time>2021-08-09T07:18:04Z</time>
      </trkpt>
      <trkpt lat="44.48583" lon="1.55519">
        <ele>135.5</ele>
        <time>2021-08-09T07:18:06Z</time>
      </trkpt>
      <trkpt lat="44.48584" lon="1.55519">
        <ele>135.5</ele>
        <time>2021-08-09T07:18:07Z</time>
      </trkpt>
      <trkpt lat="44.48578" lon="1.55517">
        <ele>135.3</ele>
        <time>2021-08-09T07:19:33Z</time>
      </trkpt>
      <trkpt lat="44.48578" lon="1.55518">
        <ele>135.3</ele>
        <time>2021-08-09T07:19:34Z</time>
      </trkpt>
      <trkpt lat="44.48577" lon="1.55518">
        <ele>135.3</ele>
        <time>2021-08-09T07:19:35Z</time>
      </trkpt>
      <trkpt lat="44.48576" lon="1.55518">
        <ele>135.2</ele>
        <time>2021-08-09T07:19:36Z</time>
      </trkpt>
      <trkpt lat="44.48576" lon="1.55517">
        <ele>135.2</ele>
        <time>2021-08-09T07:19:37Z</time>
      </trkpt>
      <trkpt lat="44.48574" lon="1.55516">
        <ele>135.2</ele>
        <time>2021-08-09T07:19:39Z</time>
      </trkpt>
      <trkpt lat="44.48574" lon="1.55516">
        <ele>135.1</ele>
        <time>2021-08-09T07:19:41Z</time>
      </trkpt>
      <trkpt lat="44.48573" lon="1.55516">
        <ele>135.1</ele>
        <time>2021-08-09T07:19:43Z</time>
      </trkpt>
      <trkpt lat="44.48573" lon="1.55516">
        <ele>135.1</ele>
        <time>2021-08-09T07:19:44Z</time>
      </trkpt>
      <trkpt lat="44.48572" lon="1.55516">
        <ele>135.1</ele>
        <time>2021-08-09T07:19:45Z</time>
      </trkpt>
      <trkpt lat="44.48572" lon="1.55515">
        <ele>135.1</ele>
        <time>2021-08-09T07:19:46Z</time>
      </trkpt>
      <trkpt lat="44.4857" lon="1.55514">
        <ele>135</ele>
        <time>2021-08-09T07:19:47Z</time>
      </trkpt>
      <trkpt lat="44.48569" lon="1.55511">
        <ele>135</ele>
        <time>2021-08-09T07:19:49Z</time>
      </trkpt>
      <trkpt lat="44.48567" lon="1.55508">
        <ele>134.9</ele>
        <time>2021-08-09T07:19:50Z</time>
      </trkpt>
      <trkpt lat="44.48565" lon="1.55504">
        <ele>134.8</ele>
        <time>2021-08-09T07:19:51Z</time>
      </trkpt>
      <trkpt lat="44.48563" lon="1.555">
        <ele>134.7</ele>
        <time>2021-08-09T07:19:52Z</time>
      </trkpt>
      <trkpt lat="44.4856" lon="1.55495">
        <ele>134.5</ele>
        <time>2021-08-09T07:19:54Z</time>
      </trkpt>
      <trkpt lat="44.48559" lon="1.55494">
        <ele>134.5</ele>
        <time>2021-08-09T07:19:55Z</time>
      </trkpt>
      <trkpt lat="44.48556" lon="1.55492">
        <ele>133.7</ele>
        <time>2021-08-09T07:19:56Z</time>
      </trkpt>
      <trkpt lat="44.48552" lon="1.55487">
        <ele>133.2</ele>
        <time>2021-08-09T07:19:58Z</time>
      </trkpt>
      <trkpt lat="44.4855" lon="1.55486">
        <ele>132.8</ele>
        <time>2021-08-09T07:19:59Z</time>
      </trkpt>
      <trkpt lat="44.48547" lon="1.55485">
        <ele>132.5</ele>
        <time>2021-08-09T07:20:00Z</time>
      </trkpt>
      <trkpt lat="44.48544" lon="1.55482">
        <ele>132.1</ele>
        <time>2021-08-09T07:20:02Z</time>
      </trkpt>
      <trkpt lat="44.48543" lon="1.55481">
        <ele>132</ele>
        <time>2021-08-09T07:20:03Z</time>
      </trkpt>
      <trkpt lat="44.4854" lon="1.5548">
        <ele>131.7</ele>
        <time>2021-08-09T07:20:04Z</time>
      </trkpt>
      <trkpt lat="44.48539" lon="1.5548">
        <ele>131.5</ele>
        <time>2021-08-09T07:20:05Z</time>
      </trkpt>
      <trkpt lat="44.48537" lon="1.5548">
        <ele>131.4</ele>
        <time>2021-08-09T07:20:07Z</time>
      </trkpt>
      <trkpt lat="44.48536" lon="1.55479">
        <ele>131.3</ele>
        <time>2021-08-09T07:20:08Z</time>
      </trkpt>
      <trkpt lat="44.48535" lon="1.55477">
        <ele>131.2</ele>
        <time>2021-08-09T07:20:09Z</time>
      </trkpt>
      <trkpt lat="44.48536" lon="1.55475">
        <ele>131.2</ele>
        <time>2021-08-09T07:20:10Z</time>
      </trkpt>
      <trkpt lat="44.48535" lon="1.55475">
        <ele>131.1</ele>
        <time>2021-08-09T07:20:11Z</time>
      </trkpt>
      <trkpt lat="44.48534" lon="1.55476">
        <ele>131.1</ele>
        <time>2021-08-09T07:20:12Z</time>
      </trkpt>
      <trkpt lat="44.48532" lon="1.55476">
        <ele>131.1</ele>
        <time>2021-08-09T07:20:14Z</time>
      </trkpt>
      <trkpt lat="44.48532" lon="1.55475">
        <ele>131</ele>
        <time>2021-08-09T07:20:15Z</time>
      </trkpt>
      <trkpt lat="44.48532" lon="1.55474">
        <ele>131</ele>
        <time>2021-08-09T07:20:17Z</time>
      </trkpt>
      <trkpt lat="44.48532" lon="1.55475">
        <ele>131</ele>
        <time>2021-08-09T07:20:19Z</time>
      </trkpt>
      <trkpt lat="44.48532" lon="1.55475">
        <ele>131</ele>
        <time>2021-08-09T07:20:20Z</time>
      </trkpt>
      <trkpt lat="44.48533" lon="1.55475">
        <ele>131</ele>
        <time>2021-08-09T07:20:21Z</time>
      </trkpt>
      <trkpt lat="44.48533" lon="1.55476">
        <ele>131</ele>
        <time>2021-08-09T07:20:22Z</time>
      </trkpt>
      <trkpt lat="44.48533" lon="1.55476">
        <ele>131</ele>
        <time>2021-08-09T07:20:24Z</time>
      </trkpt>
      <trkpt lat="44.48533" lon="1.55476">
        <ele>131</ele>
        <time>2021-08-09T07:20:25Z</time>
      </trkpt>
      <trkpt lat="44.48533" lon="1.55476">
        <ele>130.9</ele>
        <time>2021-08-09T07:20:26Z</time>
      </trkpt>
      <trkpt lat="44.48532" lon="1.55477">
        <ele>130.9</ele>
        <time>2021-08-09T07:20:27Z</time>
      </trkpt>
      <trkpt lat="44.48531" lon="1.55477">
        <ele>130.9</ele>
        <time>2021-08-09T07:20:29Z</time>
      </trkpt>
      <trkpt lat="44.4853" lon="1.55477">
        <ele>130.8</ele>
        <time>2021-08-09T07:20:30Z</time>
      </trkpt>
      <trkpt lat="44.48527" lon="1.55476">
        <ele>130.7</ele>
        <time>2021-08-09T07:20:32Z</time>
      </trkpt>
      <trkpt lat="44.48524" lon="1.55476">
        <ele>130.6</ele>
        <time>2021-08-09T07:20:33Z</time>
      </trkpt>
      <trkpt lat="44.4852" lon="1.55476">
        <ele>130.5</ele>
        <time>2021-08-09T07:20:34Z</time>
      </trkpt>
      <trkpt lat="44.48516" lon="1.55476">
        <ele>130.3</ele>
        <time>2021-08-09T07:20:36Z</time>
      </trkpt>
      <trkpt lat="44.48512" lon="1.55475">
        <ele>130.1</ele>
        <time>2021-08-09T07:20:37Z</time>
      </trkpt>
      <trkpt lat="44.48507" lon="1.55475">
        <ele>129.9</ele>
        <time>2021-08-09T07:20:38Z</time>
      </trkpt>
      <trkpt lat="44.48502" lon="1.55472">
        <ele>129.9</ele>
        <time>2021-08-09T07:20:40Z</time>
      </trkpt>
      <trkpt lat="44.48498" lon="1.55467">
        <ele>129.9</ele>
        <time>2021-08-09T07:20:41Z</time>
      </trkpt>
      <trkpt lat="44.48495" lon="1.55463">
        <ele>129.8</ele>
        <time>2021-08-09T07:20:42Z</time>
      </trkpt>
      <trkpt lat="44.4849" lon="1.55455">
        <ele>129.7</ele>
        <time>2021-08-09T07:20:44Z</time>
      </trkpt>
      <trkpt lat="44.48487" lon="1.5545">
        <ele>129.5</ele>
        <time>2021-08-09T07:20:45Z</time>
      </trkpt>
      <trkpt lat="44.48484" lon="1.55444">
        <ele>129.3</ele>
        <time>2021-08-09T07:20:46Z</time>
      </trkpt>
      <trkpt lat="44.48481" lon="1.55438">
        <ele>129.1</ele>
        <time>2021-08-09T07:20:47Z</time>
      </trkpt>
      <trkpt lat="44.48477" lon="1.55428">
        <ele>128.7</ele>
        <time>2021-08-09T07:20:48Z</time>
      </trkpt>
      <trkpt lat="44.48473" lon="1.5542">
        <ele>128.3</ele>
        <time>2021-08-09T07:20:49Z</time>
      </trkpt>
      <trkpt lat="44.48464" lon="1.55403">
        <ele>127.4</ele>
        <time>2021-08-09T07:20:51Z</time>
      </trkpt>
      <trkpt lat="44.48458" lon="1.55395">
        <ele>126.9</ele>
        <time>2021-08-09T07:20:52Z</time>
      </trkpt>
      <trkpt lat="44.48448" lon="1.55378">
        <ele>125.9</ele>
        <time>2021-08-09T07:20:54Z</time>
      </trkpt>
      <trkpt lat="44.4844" lon="1.55362">
        <ele>124.6</ele>
        <time>2021-08-09T07:20:56Z</time>
      </trkpt>
      <trkpt lat="44.48438" lon="1.55356">
        <ele>124.4</ele>
        <time>2021-08-09T07:20:57Z</time>
      </trkpt>
      <trkpt lat="44.48436" lon="1.5535">
        <ele>124.2</ele>
        <time>2021-08-09T07:20:58Z</time>
      </trkpt>
      <trkpt lat="44.4844" lon="1.55344">
        <ele>126.3</ele>
        <time>2021-08-09T07:20:59Z</time>
      </trkpt>
      <trkpt lat="44.48442" lon="1.55337">
        <ele>126.9</ele>
        <time>2021-08-09T07:21:01Z</time>
      </trkpt>
      <trkpt lat="44.48446" lon="1.55334">
        <ele>127.2</ele>
        <time>2021-08-09T07:21:02Z</time>
      </trkpt>
      <trkpt lat="44.4845" lon="1.55334">
        <ele>127.6</ele>
        <time>2021-08-09T07:21:04Z</time>
      </trkpt>
      <trkpt lat="44.48453" lon="1.55334">
        <ele>128.2</ele>
        <time>2021-08-09T07:21:05Z</time>
      </trkpt>
      <trkpt lat="44.48454" lon="1.55335">
        <ele>128.2</ele>
        <time>2021-08-09T07:21:06Z</time>
      </trkpt>
      <trkpt lat="44.48453" lon="1.55334">
        <ele>128.2</ele>
        <time>2021-08-09T07:21:07Z</time>
      </trkpt>
      <trkpt lat="44.48453" lon="1.55333">
        <ele>128.2</ele>
        <time>2021-08-09T07:21:09Z</time>
      </trkpt>
      <trkpt lat="44.48453" lon="1.55333">
        <ele>128.2</ele>
        <time>2021-08-09T07:21:10Z</time>
      </trkpt>
      <trkpt lat="44.48453" lon="1.55333">
        <ele>128.2</ele>
        <time>2021-08-09T07:21:12Z</time>
      </trkpt>
      <trkpt lat="44.48453" lon="1.55333">
        <ele>128.2</ele>
        <time>2021-08-09T07:21:13Z</time>
      </trkpt>
      <trkpt lat="44.48453" lon="1.55333">
        <ele>128.2</ele>
        <time>2021-08-09T07:21:14Z</time>
      </trkpt>
      <trkpt lat="44.48454" lon="1.55334">
        <ele>128.2</ele>
        <time>2021-08-09T07:21:16Z</time>
      </trkpt>
      <trkpt lat="44.48453" lon="1.55322">
        <ele>128</ele>
        <time>2021-08-09T07:21:38Z</time>
      </trkpt>
      <trkpt lat="44.48453" lon="1.55321">
        <ele>127.7</ele>
        <time>2021-08-09T07:21:39Z</time>
      </trkpt>
      <trkpt lat="44.48453" lon="1.5532">
        <ele>127.7</ele>
        <time>2021-08-09T07:21:40Z</time>
      </trkpt>
      <trkpt lat="44.48452" lon="1.55317">
        <ele>127.7</ele>
        <time>2021-08-09T07:21:42Z</time>
      </trkpt>
      <trkpt lat="44.4845" lon="1.55316">
        <ele>127.7</ele>
        <time>2021-08-09T07:21:43Z</time>
      </trkpt>
      <trkpt lat="44.48449" lon="1.55316">
        <ele>127.7</ele>
        <time>2021-08-09T07:21:44Z</time>
      </trkpt>
      <trkpt lat="44.48448" lon="1.55317">
        <ele>127.7</ele>
        <time>2021-08-09T07:21:46Z</time>
      </trkpt>
      <trkpt lat="44.48446" lon="1.55319">
        <ele>127.7</ele>
        <time>2021-08-09T07:21:47Z</time>
      </trkpt>
      <trkpt lat="44.48445" lon="1.5532">
        <ele>127.7</ele>
        <time>2021-08-09T07:21:48Z</time>
      </trkpt>
      <trkpt lat="44.48442" lon="1.55321">
        <ele>127</ele>
        <time>2021-08-09T07:21:50Z</time>
      </trkpt>
      <trkpt lat="44.48443" lon="1.55322">
        <ele>126.9</ele>
        <time>2021-08-09T07:21:51Z</time>
      </trkpt>
      <trkpt lat="44.48443" lon="1.55323">
        <ele>126.9</ele>
        <time>2021-08-09T07:21:53Z</time>
      </trkpt>
      <trkpt lat="44.48442" lon="1.55325">
        <ele>126.9</ele>
        <time>2021-08-09T07:21:54Z</time>
      </trkpt>
      <trkpt lat="44.48437" lon="1.5533">
        <ele>126.8</ele>
        <time>2021-08-09T07:21:56Z</time>
      </trkpt>
      <trkpt lat="44.48434" lon="1.55331">
        <ele>126.8</ele>
        <time>2021-08-09T07:21:57Z</time>
      </trkpt>
      <trkpt lat="44.48429" lon="1.5533">
        <ele>126.7</ele>
        <time>2021-08-09T07:21:59Z</time>
      </trkpt>
      <trkpt lat="44.48426" lon="1.55329">
        <ele>126.7</ele>
        <time>2021-08-09T07:22:00Z</time>
      </trkpt>
      <trkpt lat="44.48421" lon="1.55324">
        <ele>126.7</ele>
        <time>2021-08-09T07:22:02Z</time>
      </trkpt>
      <trkpt lat="44.48415" lon="1.55319">
        <ele>126.7</ele>
        <time>2021-08-09T07:22:04Z</time>
      </trkpt>
      <trkpt lat="44.48412" lon="1.55319">
        <ele>126.7</ele>
        <time>2021-08-09T07:22:05Z</time>
      </trkpt>
      <trkpt lat="44.48411" lon="1.55318">
        <ele>126.7</ele>
        <time>2021-08-09T07:22:06Z</time>
      </trkpt>
      <trkpt lat="44.48407" lon="1.55313">
        <ele>126.7</ele>
        <time>2021-08-09T07:22:08Z</time>
      </trkpt>
      <trkpt lat="44.48403" lon="1.55308">
        <ele>126.7</ele>
        <time>2021-08-09T07:22:09Z</time>
      </trkpt>
      <trkpt lat="44.48399" lon="1.55304">
        <ele>126.7</ele>
        <time>2021-08-09T07:22:10Z</time>
      </trkpt>
      <trkpt lat="44.48393" lon="1.55298">
        <ele>126.7</ele>
        <time>2021-08-09T07:22:11Z</time>
      </trkpt>
      <trkpt lat="44.48387" lon="1.55292">
        <ele>126.7</ele>
        <time>2021-08-09T07:22:13Z</time>
      </trkpt>
      <trkpt lat="44.48382" lon="1.55285">
        <ele>126.7</ele>
        <time>2021-08-09T07:22:14Z</time>
      </trkpt>
      <trkpt lat="44.48379" lon="1.55281">
        <ele>126.7</ele>
        <time>2021-08-09T07:22:15Z</time>
      </trkpt>
      <trkpt lat="44.48374" lon="1.55275">
        <ele>126.7</ele>
        <time>2021-08-09T07:22:17Z</time>
      </trkpt>
      <trkpt lat="44.48368" lon="1.5527">
        <ele>126.6</ele>
        <time>2021-08-09T07:22:19Z</time>
      </trkpt>
      <trkpt lat="44.48364" lon="1.55265">
        <ele>126.6</ele>
        <time>2021-08-09T07:22:20Z</time>
      </trkpt>
      <trkpt lat="44.48358" lon="1.55258">
        <ele>126.5</ele>
        <time>2021-08-09T07:22:21Z</time>
      </trkpt>
      <trkpt lat="44.48355" lon="1.55253">
        <ele>126.5</ele>
        <time>2021-08-09T07:22:22Z</time>
      </trkpt>
      <trkpt lat="44.48351" lon="1.55248">
        <ele>126.5</ele>
        <time>2021-08-09T07:22:23Z</time>
      </trkpt>
      <trkpt lat="44.48347" lon="1.55244">
        <ele>126.4</ele>
        <time>2021-08-09T07:22:24Z</time>
      </trkpt>
      <trkpt lat="44.48344" lon="1.55241">
        <ele>126.4</ele>
        <time>2021-08-09T07:22:25Z</time>
      </trkpt>
      <trkpt lat="44.48342" lon="1.55238">
        <ele>126.4</ele>
        <time>2021-08-09T07:22:26Z</time>
      </trkpt>
      <trkpt lat="44.48338" lon="1.55237">
        <ele>126.4</ele>
        <time>2021-08-09T07:22:28Z</time>
      </trkpt>
      <trkpt lat="44.48335" lon="1.55235">
        <ele>126.4</ele>
        <time>2021-08-09T07:22:29Z</time>
      </trkpt>
      <trkpt lat="44.48332" lon="1.55233">
        <ele>126.4</ele>
        <time>2021-08-09T07:22:30Z</time>
      </trkpt>
      <trkpt lat="44.48329" lon="1.5523">
        <ele>126.4</ele>
        <time>2021-08-09T07:22:31Z</time>
      </trkpt>
      <trkpt lat="44.48326" lon="1.55228">
        <ele>126.5</ele>
        <time>2021-08-09T07:22:32Z</time>
      </trkpt>
      <trkpt lat="44.48321" lon="1.55223">
        <ele>126.5</ele>
        <time>2021-08-09T07:22:33Z</time>
      </trkpt>
      <trkpt lat="44.48317" lon="1.55218">
        <ele>126.6</ele>
        <time>2021-08-09T07:22:34Z</time>
      </trkpt>
      <trkpt lat="44.48313" lon="1.55212">
        <ele>126.6</ele>
        <time>2021-08-09T07:22:36Z</time>
      </trkpt>
      <trkpt lat="44.4831" lon="1.55208">
        <ele>126.7</ele>
        <time>2021-08-09T07:22:37Z</time>
      </trkpt>
      <trkpt lat="44.48308" lon="1.55204">
        <ele>126.7</ele>
        <time>2021-08-09T07:22:38Z</time>
      </trkpt>
      <trkpt lat="44.48303" lon="1.55199">
        <ele>126.8</ele>
        <time>2021-08-09T07:22:40Z</time>
      </trkpt>
      <trkpt lat="44.483" lon="1.55196">
        <ele>126.9</ele>
        <time>2021-08-09T07:22:41Z</time>
      </trkpt>
      <trkpt lat="44.48297" lon="1.55191">
        <ele>126.9</ele>
        <time>2021-08-09T07:22:42Z</time>
      </trkpt>
      <trkpt lat="44.48292" lon="1.55185">
        <ele>127</ele>
        <time>2021-08-09T07:22:44Z</time>
      </trkpt>
      <trkpt lat="44.48289" lon="1.55182">
        <ele>127</ele>
        <time>2021-08-09T07:22:45Z</time>
      </trkpt>
      <trkpt lat="44.48282" lon="1.55175">
        <ele>127.1</ele>
        <time>2021-08-09T07:22:47Z</time>
      </trkpt>
      <trkpt lat="44.48279" lon="1.55171">
        <ele>127.1</ele>
        <time>2021-08-09T07:22:48Z</time>
      </trkpt>
      <trkpt lat="44.48276" lon="1.55168">
        <ele>127.1</ele>
        <time>2021-08-09T07:22:49Z</time>
      </trkpt>
      <trkpt lat="44.48273" lon="1.55166">
        <ele>127.1</ele>
        <time>2021-08-09T07:22:50Z</time>
      </trkpt>
      <trkpt lat="44.48267" lon="1.55161">
        <ele>127.1</ele>
        <time>2021-08-09T07:22:52Z</time>
      </trkpt>
      <trkpt lat="44.48264" lon="1.55157">
        <ele>127.1</ele>
        <time>2021-08-09T07:22:53Z</time>
      </trkpt>
      <trkpt lat="44.4826" lon="1.55155">
        <ele>127.1</ele>
        <time>2021-08-09T07:22:54Z</time>
      </trkpt>
      <trkpt lat="44.48256" lon="1.55152">
        <ele>127.1</ele>
        <time>2021-08-09T07:22:55Z</time>
      </trkpt>
      <trkpt lat="44.48253" lon="1.55149">
        <ele>127.1</ele>
        <time>2021-08-09T07:22:56Z</time>
      </trkpt>
      <trkpt lat="44.48248" lon="1.55145">
        <ele>127.1</ele>
        <time>2021-08-09T07:22:57Z</time>
      </trkpt>
      <trkpt lat="44.48243" lon="1.55142">
        <ele>127.2</ele>
        <time>2021-08-09T07:22:59Z</time>
      </trkpt>
      <trkpt lat="44.48239" lon="1.5514">
        <ele>127.2</ele>
        <time>2021-08-09T07:23:00Z</time>
      </trkpt>
      <trkpt lat="44.48234" lon="1.55138">
        <ele>127.2</ele>
        <time>2021-08-09T07:23:01Z</time>
      </trkpt>
      <trkpt lat="44.48229" lon="1.55136">
        <ele>127.2</ele>
        <time>2021-08-09T07:23:02Z</time>
      </trkpt>
      <trkpt lat="44.48225" lon="1.55135">
        <ele>127.2</ele>
        <time>2021-08-09T07:23:03Z</time>
      </trkpt>
      <trkpt lat="44.48221" lon="1.55134">
        <ele>127.2</ele>
        <time>2021-08-09T07:23:05Z</time>
      </trkpt>
      <trkpt lat="44.48217" lon="1.55132">
        <ele>127.2</ele>
        <time>2021-08-09T07:23:06Z</time>
      </trkpt>
      <trkpt lat="44.48212" lon="1.5513">
        <ele>127.2</ele>
        <time>2021-08-09T07:23:07Z</time>
      </trkpt>
      <trkpt lat="44.48205" lon="1.55127">
        <ele>127.2</ele>
        <time>2021-08-09T07:23:09Z</time>
      </trkpt>
      <trkpt lat="44.48201" lon="1.55127">
        <ele>127.2</ele>
        <time>2021-08-09T07:23:10Z</time>
      </trkpt>
      <trkpt lat="44.48198" lon="1.55125">
        <ele>127.2</ele>
        <time>2021-08-09T07:23:11Z</time>
      </trkpt>
      <trkpt lat="44.48194" lon="1.55124">
        <ele>127.2</ele>
        <time>2021-08-09T07:23:12Z</time>
      </trkpt>
      <trkpt lat="44.4819" lon="1.55122">
        <ele>127.2</ele>
        <time>2021-08-09T07:23:13Z</time>
      </trkpt>
      <trkpt lat="44.48187" lon="1.5512">
        <ele>127.2</ele>
        <time>2021-08-09T07:23:14Z</time>
      </trkpt>
      <trkpt lat="44.48183" lon="1.55119">
        <ele>127.2</ele>
        <time>2021-08-09T07:23:15Z</time>
      </trkpt>
      <trkpt lat="44.48179" lon="1.55117">
        <ele>127.2</ele>
        <time>2021-08-09T07:23:16Z</time>
      </trkpt>
      <trkpt lat="44.48174" lon="1.55116">
        <ele>127.2</ele>
        <time>2021-08-09T07:23:18Z</time>
      </trkpt>
      <trkpt lat="44.4817" lon="1.55115">
        <ele>127.3</ele>
        <time>2021-08-09T07:23:19Z</time>
      </trkpt>
      <trkpt lat="44.48166" lon="1.55112">
        <ele>127.3</ele>
        <time>2021-08-09T07:23:20Z</time>
      </trkpt>
      <trkpt lat="44.4816" lon="1.5511">
        <ele>127.3</ele>
        <time>2021-08-09T07:23:21Z</time>
      </trkpt>
      <trkpt lat="44.48154" lon="1.55106">
        <ele>127.3</ele>
        <time>2021-08-09T07:23:23Z</time>
      </trkpt>
      <trkpt lat="44.48149" lon="1.55103">
        <ele>127.3</ele>
        <time>2021-08-09T07:23:24Z</time>
      </trkpt>
      <trkpt lat="44.48142" lon="1.55103">
        <ele>127.3</ele>
        <time>2021-08-09T07:23:25Z</time>
      </trkpt>
      <trkpt lat="44.48138" lon="1.55103">
        <ele>127.3</ele>
        <time>2021-08-09T07:23:26Z</time>
      </trkpt>
      <trkpt lat="44.48129" lon="1.551">
        <ele>127.3</ele>
        <time>2021-08-09T07:23:28Z</time>
      </trkpt>
      <trkpt lat="44.48125" lon="1.55104">
        <ele>127.4</ele>
        <time>2021-08-09T07:23:30Z</time>
      </trkpt>
      <trkpt lat="44.48121" lon="1.55102">
        <ele>127.4</ele>
        <time>2021-08-09T07:23:31Z</time>
      </trkpt>
      <trkpt lat="44.48115" lon="1.551">
        <ele>127.4</ele>
        <time>2021-08-09T07:23:32Z</time>
      </trkpt>
      <trkpt lat="44.48108" lon="1.55097">
        <ele>127.4</ele>
        <time>2021-08-09T07:23:34Z</time>
      </trkpt>
      <trkpt lat="44.481" lon="1.55094">
        <ele>127.4</ele>
        <time>2021-08-09T07:23:36Z</time>
      </trkpt>
      <trkpt lat="44.48095" lon="1.55092">
        <ele>127.4</ele>
        <time>2021-08-09T07:23:37Z</time>
      </trkpt>
      <trkpt lat="44.48089" lon="1.55091">
        <ele>127.4</ele>
        <time>2021-08-09T07:23:38Z</time>
      </trkpt>
      <trkpt lat="44.48083" lon="1.5509">
        <ele>127.4</ele>
        <time>2021-08-09T07:23:40Z</time>
      </trkpt>
      <trkpt lat="44.48079" lon="1.5509">
        <ele>127.5</ele>
        <time>2021-08-09T07:23:41Z</time>
      </trkpt>
      <trkpt lat="44.48075" lon="1.55089">
        <ele>127.5</ele>
        <time>2021-08-09T07:23:42Z</time>
      </trkpt>
      <trkpt lat="44.4807" lon="1.55088">
        <ele>127.5</ele>
        <time>2021-08-09T07:23:44Z</time>
      </trkpt>
      <trkpt lat="44.48066" lon="1.55087">
        <ele>127.6</ele>
        <time>2021-08-09T07:23:45Z</time>
      </trkpt>
      <trkpt lat="44.48062" lon="1.55086">
        <ele>127.6</ele>
        <time>2021-08-09T07:23:46Z</time>
      </trkpt>
      <trkpt lat="44.48058" lon="1.55085">
        <ele>127.6</ele>
        <time>2021-08-09T07:23:47Z</time>
      </trkpt>
      <trkpt lat="44.48054" lon="1.55084">
        <ele>127.7</ele>
        <time>2021-08-09T07:23:48Z</time>
      </trkpt>
      <trkpt lat="44.48046" lon="1.55084">
        <ele>127.7</ele>
        <time>2021-08-09T07:23:50Z</time>
      </trkpt>
      <trkpt lat="44.48041" lon="1.55083">
        <ele>127.7</ele>
        <time>2021-08-09T07:23:51Z</time>
      </trkpt>
      <trkpt lat="44.48036" lon="1.5508">
        <ele>127.7</ele>
        <time>2021-08-09T07:23:52Z</time>
      </trkpt>
      <trkpt lat="44.48032" lon="1.55079">
        <ele>127.7</ele>
        <time>2021-08-09T07:23:53Z</time>
      </trkpt>
      <trkpt lat="44.48027" lon="1.55077">
        <ele>127.7</ele>
        <time>2021-08-09T07:23:55Z</time>
      </trkpt>
      <trkpt lat="44.48019" lon="1.55074">
        <ele>127.7</ele>
        <time>2021-08-09T07:23:56Z</time>
      </trkpt>
      <trkpt lat="44.48013" lon="1.55073">
        <ele>127.7</ele>
        <time>2021-08-09T07:23:58Z</time>
      </trkpt>
      <trkpt lat="44.48007" lon="1.55071">
        <ele>127.8</ele>
        <time>2021-08-09T07:23:59Z</time>
      </trkpt>
      <trkpt lat="44.48003" lon="1.55069">
        <ele>127.9</ele>
        <time>2021-08-09T07:24:00Z</time>
      </trkpt>
      <trkpt lat="44.47995" lon="1.55065">
        <ele>128.1</ele>
        <time>2021-08-09T07:24:02Z</time>
      </trkpt>
      <trkpt lat="44.47992" lon="1.55062">
        <ele>128.2</ele>
        <time>2021-08-09T07:24:03Z</time>
      </trkpt>
      <trkpt lat="44.47988" lon="1.5506">
        <ele>128.4</ele>
        <time>2021-08-09T07:24:04Z</time>
      </trkpt>
      <trkpt lat="44.47985" lon="1.55058">
        <ele>128.5</ele>
        <time>2021-08-09T07:24:05Z</time>
      </trkpt>
      <trkpt lat="44.47981" lon="1.55056">
        <ele>128.6</ele>
        <time>2021-08-09T07:24:07Z</time>
      </trkpt>
      <trkpt lat="44.47977" lon="1.55054">
        <ele>128.8</ele>
        <time>2021-08-09T07:24:08Z</time>
      </trkpt>
      <trkpt lat="44.47971" lon="1.55051">
        <ele>129</ele>
        <time>2021-08-09T07:24:10Z</time>
      </trkpt>
      <trkpt lat="44.47968" lon="1.5505">
        <ele>129.1</ele>
        <time>2021-08-09T07:24:11Z</time>
      </trkpt>
      <trkpt lat="44.47964" lon="1.55049">
        <ele>129.2</ele>
        <time>2021-08-09T07:24:12Z</time>
      </trkpt>
      <trkpt lat="44.47959" lon="1.55049">
        <ele>129.3</ele>
        <time>2021-08-09T07:24:14Z</time>
      </trkpt>
      <trkpt lat="44.47954" lon="1.55048">
        <ele>129.4</ele>
        <time>2021-08-09T07:24:15Z</time>
      </trkpt>
      <trkpt lat="44.4795" lon="1.55048">
        <ele>129.4</ele>
        <time>2021-08-09T07:24:16Z</time>
      </trkpt>
      <trkpt lat="44.47944" lon="1.55048">
        <ele>129.5</ele>
        <time>2021-08-09T07:24:18Z</time>
      </trkpt>
      <trkpt lat="44.4794" lon="1.55048">
        <ele>129.5</ele>
        <time>2021-08-09T07:24:19Z</time>
      </trkpt>
      <trkpt lat="44.47935" lon="1.55048">
        <ele>129.5</ele>
        <time>2021-08-09T07:24:20Z</time>
      </trkpt>
      <trkpt lat="44.47927" lon="1.55049">
        <ele>129.6</ele>
        <time>2021-08-09T07:24:22Z</time>
      </trkpt>
      <trkpt lat="44.47923" lon="1.55048">
        <ele>129.6</ele>
        <time>2021-08-09T07:24:23Z</time>
      </trkpt>
      <trkpt lat="44.47918" lon="1.55047">
        <ele>129.7</ele>
        <time>2021-08-09T07:24:25Z</time>
      </trkpt>
      <trkpt lat="44.47913" lon="1.55046">
        <ele>129.7</ele>
        <time>2021-08-09T07:24:26Z</time>
      </trkpt>
      <trkpt lat="44.47909" lon="1.55046">
        <ele>129.7</ele>
        <time>2021-08-09T07:24:27Z</time>
      </trkpt>
      <trkpt lat="44.47905" lon="1.55047">
        <ele>129.7</ele>
        <time>2021-08-09T07:24:28Z</time>
      </trkpt>
      <trkpt lat="44.47901" lon="1.55047">
        <ele>129.8</ele>
        <time>2021-08-09T07:24:29Z</time>
      </trkpt>
      <trkpt lat="44.47895" lon="1.55045">
        <ele>129.8</ele>
        <time>2021-08-09T07:24:31Z</time>
      </trkpt>
      <trkpt lat="44.4789" lon="1.55045">
        <ele>129.8</ele>
        <time>2021-08-09T07:24:32Z</time>
      </trkpt>
      <trkpt lat="44.47883" lon="1.55044">
        <ele>129.9</ele>
        <time>2021-08-09T07:24:34Z</time>
      </trkpt>
      <trkpt lat="44.47878" lon="1.55044">
        <ele>129.9</ele>
        <time>2021-08-09T07:24:35Z</time>
      </trkpt>
      <trkpt lat="44.47873" lon="1.55044">
        <ele>130</ele>
        <time>2021-08-09T07:24:36Z</time>
      </trkpt>
      <trkpt lat="44.47867" lon="1.5504">
        <ele>130</ele>
        <time>2021-08-09T07:24:38Z</time>
      </trkpt>
      <trkpt lat="44.47863" lon="1.55036">
        <ele>130.1</ele>
        <time>2021-08-09T07:24:39Z</time>
      </trkpt>
      <trkpt lat="44.47859" lon="1.55028">
        <ele>130.2</ele>
        <time>2021-08-09T07:24:40Z</time>
      </trkpt>
      <trkpt lat="44.47857" lon="1.55022">
        <ele>130.2</ele>
        <time>2021-08-09T07:24:42Z</time>
      </trkpt>
      <trkpt lat="44.47855" lon="1.55016">
        <ele>130.3</ele>
        <time>2021-08-09T07:24:43Z</time>
      </trkpt>
      <trkpt lat="44.47854" lon="1.55009">
        <ele>130.4</ele>
        <time>2021-08-09T07:24:44Z</time>
      </trkpt>
      <trkpt lat="44.47854" lon="1.55004">
        <ele>130.5</ele>
        <time>2021-08-09T07:24:46Z</time>
      </trkpt>
      <trkpt lat="44.47854" lon="1.54998">
        <ele>130.6</ele>
        <time>2021-08-09T07:24:47Z</time>
      </trkpt>
      <trkpt lat="44.47853" lon="1.54992">
        <ele>130.8</ele>
        <time>2021-08-09T07:24:48Z</time>
      </trkpt>
      <trkpt lat="44.47852" lon="1.54986">
        <ele>130.9</ele>
        <time>2021-08-09T07:24:49Z</time>
      </trkpt>
      <trkpt lat="44.47852" lon="1.5498">
        <ele>131</ele>
        <time>2021-08-09T07:24:51Z</time>
      </trkpt>
      <trkpt lat="44.47852" lon="1.54973">
        <ele>131.1</ele>
        <time>2021-08-09T07:24:52Z</time>
      </trkpt>
      <trkpt lat="44.47852" lon="1.54968">
        <ele>131.2</ele>
        <time>2021-08-09T07:24:53Z</time>
      </trkpt>
      <trkpt lat="44.47851" lon="1.54962">
        <ele>131.3</ele>
        <time>2021-08-09T07:24:54Z</time>
      </trkpt>
      <trkpt lat="44.4785" lon="1.54956">
        <ele>131.4</ele>
        <time>2021-08-09T07:24:55Z</time>
      </trkpt>
      <trkpt lat="44.47848" lon="1.54951">
        <ele>131.4</ele>
        <time>2021-08-09T07:24:57Z</time>
      </trkpt>
      <trkpt lat="44.47845" lon="1.54946">
        <ele>131.5</ele>
        <time>2021-08-09T07:24:58Z</time>
      </trkpt>
      <trkpt lat="44.47842" lon="1.54943">
        <ele>131.5</ele>
        <time>2021-08-09T07:24:59Z</time>
      </trkpt>
      <trkpt lat="44.47837" lon="1.54939">
        <ele>131.5</ele>
        <time>2021-08-09T07:25:01Z</time>
      </trkpt>
      <trkpt lat="44.47832" lon="1.54936">
        <ele>131.6</ele>
        <time>2021-08-09T07:25:02Z</time>
      </trkpt>
      <trkpt lat="44.47828" lon="1.54932">
        <ele>131.6</ele>
        <time>2021-08-09T07:25:03Z</time>
      </trkpt>
      <trkpt lat="44.47824" lon="1.54928">
        <ele>131.7</ele>
        <time>2021-08-09T07:25:04Z</time>
      </trkpt>
      <trkpt lat="44.47819" lon="1.54924">
        <ele>131.7</ele>
        <time>2021-08-09T07:25:06Z</time>
      </trkpt>
      <trkpt lat="44.47815" lon="1.5492">
        <ele>131.8</ele>
        <time>2021-08-09T07:25:07Z</time>
      </trkpt>
      <trkpt lat="44.4781" lon="1.54917">
        <ele>131.8</ele>
        <time>2021-08-09T07:25:08Z</time>
      </trkpt>
      <trkpt lat="44.47803" lon="1.54914">
        <ele>131.9</ele>
        <time>2021-08-09T07:25:10Z</time>
      </trkpt>
      <trkpt lat="44.47797" lon="1.5491">
        <ele>132</ele>
        <time>2021-08-09T07:25:12Z</time>
      </trkpt>
      <trkpt lat="44.47793" lon="1.54907">
        <ele>132</ele>
        <time>2021-08-09T07:25:13Z</time>
      </trkpt>
      <trkpt lat="44.4779" lon="1.54905">
        <ele>132</ele>
        <time>2021-08-09T07:25:14Z</time>
      </trkpt>
      <trkpt lat="44.47785" lon="1.54902">
        <ele>132</ele>
        <time>2021-08-09T07:25:15Z</time>
      </trkpt>
      <trkpt lat="44.47781" lon="1.549">
        <ele>132.2</ele>
        <time>2021-08-09T07:25:16Z</time>
      </trkpt>
      <trkpt lat="44.47776" lon="1.54896">
        <ele>132.4</ele>
        <time>2021-08-09T07:25:18Z</time>
      </trkpt>
      <trkpt lat="44.47772" lon="1.54894">
        <ele>132.5</ele>
        <time>2021-08-09T07:25:19Z</time>
      </trkpt>
      <trkpt lat="44.47769" lon="1.54893">
        <ele>132.6</ele>
        <time>2021-08-09T07:25:20Z</time>
      </trkpt>
      <trkpt lat="44.47764" lon="1.54891">
        <ele>132.8</ele>
        <time>2021-08-09T07:25:21Z</time>
      </trkpt>
      <trkpt lat="44.47758" lon="1.54888">
        <ele>133</ele>
        <time>2021-08-09T07:25:23Z</time>
      </trkpt>
      <trkpt lat="44.47754" lon="1.54886">
        <ele>133.1</ele>
        <time>2021-08-09T07:25:24Z</time>
      </trkpt>
      <trkpt lat="44.47749" lon="1.54881">
        <ele>133.4</ele>
        <time>2021-08-09T07:25:26Z</time>
      </trkpt>
      <trkpt lat="44.47745" lon="1.54878">
        <ele>133.6</ele>
        <time>2021-08-09T07:25:27Z</time>
      </trkpt>
      <trkpt lat="44.4774" lon="1.54874">
        <ele>133.9</ele>
        <time>2021-08-09T07:25:29Z</time>
      </trkpt>
      <trkpt lat="44.47736" lon="1.54871">
        <ele>134.1</ele>
        <time>2021-08-09T07:25:30Z</time>
      </trkpt>
      <trkpt lat="44.47733" lon="1.54868">
        <ele>134.3</ele>
        <time>2021-08-09T07:25:31Z</time>
      </trkpt>
      <trkpt lat="44.4773" lon="1.54866">
        <ele>134.5</ele>
        <time>2021-08-09T07:25:32Z</time>
      </trkpt>
      <trkpt lat="44.47727" lon="1.54862">
        <ele>134.7</ele>
        <time>2021-08-09T07:25:33Z</time>
      </trkpt>
      <trkpt lat="44.47725" lon="1.54856">
        <ele>135</ele>
        <time>2021-08-09T07:25:35Z</time>
      </trkpt>
      <trkpt lat="44.47725" lon="1.54851">
        <ele>134.4</ele>
        <time>2021-08-09T07:25:36Z</time>
      </trkpt>
      <trkpt lat="44.47726" lon="1.54847">
        <ele>134</ele>
        <time>2021-08-09T07:25:37Z</time>
      </trkpt>
      <trkpt lat="44.47727" lon="1.54844">
        <ele>133.6</ele>
        <time>2021-08-09T07:25:38Z</time>
      </trkpt>
      <trkpt lat="44.47731" lon="1.54838">
        <ele>132.8</ele>
        <time>2021-08-09T07:25:40Z</time>
      </trkpt>
      <trkpt lat="44.47738" lon="1.54837">
        <ele>131.9</ele>
        <time>2021-08-09T07:25:42Z</time>
      </trkpt>
      <trkpt lat="44.47745" lon="1.54836">
        <ele>131.9</ele>
        <time>2021-08-09T07:25:44Z</time>
      </trkpt>
      <trkpt lat="44.47749" lon="1.5483">
        <ele>131.9</ele>
        <time>2021-08-09T07:25:46Z</time>
      </trkpt>
      <trkpt lat="44.47748" lon="1.54824">
        <ele>131.9</ele>
        <time>2021-08-09T07:25:47Z</time>
      </trkpt>
      <trkpt lat="44.47748" lon="1.54821">
        <ele>131.9</ele>
        <time>2021-08-09T07:25:48Z</time>
      </trkpt>
      <trkpt lat="44.47747" lon="1.54816">
        <ele>131.9</ele>
        <time>2021-08-09T07:25:50Z</time>
      </trkpt>
      <trkpt lat="44.47743" lon="1.54812">
        <ele>131.9</ele>
        <time>2021-08-09T07:25:51Z</time>
      </trkpt>
      <trkpt lat="44.47739" lon="1.54809">
        <ele>131.9</ele>
        <time>2021-08-09T07:25:52Z</time>
      </trkpt>
      <trkpt lat="44.47734" lon="1.54804">
        <ele>131.9</ele>
        <time>2021-08-09T07:25:54Z</time>
      </trkpt>
      <trkpt lat="44.4773" lon="1.54801">
        <ele>131.9</ele>
        <time>2021-08-09T07:25:55Z</time>
      </trkpt>
      <trkpt lat="44.47725" lon="1.54797">
        <ele>131.9</ele>
        <time>2021-08-09T07:25:57Z</time>
      </trkpt>
      <trkpt lat="44.47721" lon="1.54794">
        <ele>131.8</ele>
        <time>2021-08-09T07:25:58Z</time>
      </trkpt>
      <trkpt lat="44.47717" lon="1.54791">
        <ele>131.8</ele>
        <time>2021-08-09T07:25:59Z</time>
      </trkpt>
      <trkpt lat="44.47712" lon="1.54787">
        <ele>131.8</ele>
        <time>2021-08-09T07:26:01Z</time>
      </trkpt>
      <trkpt lat="44.47708" lon="1.54786">
        <ele>131.7</ele>
        <time>2021-08-09T07:26:02Z</time>
      </trkpt>
      <trkpt lat="44.47705" lon="1.54784">
        <ele>131.7</ele>
        <time>2021-08-09T07:26:03Z</time>
      </trkpt>
      <trkpt lat="44.47701" lon="1.54782">
        <ele>131.7</ele>
        <time>2021-08-09T07:26:05Z</time>
      </trkpt>
      <trkpt lat="44.47697" lon="1.54781">
        <ele>131.7</ele>
        <time>2021-08-09T07:26:06Z</time>
      </trkpt>
      <trkpt lat="44.47693" lon="1.5478">
        <ele>131.6</ele>
        <time>2021-08-09T07:26:07Z</time>
      </trkpt>
      <trkpt lat="44.47689" lon="1.54779">
        <ele>131.6</ele>
        <time>2021-08-09T07:26:09Z</time>
      </trkpt>
      <trkpt lat="44.47685" lon="1.54778">
        <ele>131.6</ele>
        <time>2021-08-09T07:26:10Z</time>
      </trkpt>
      <trkpt lat="44.47681" lon="1.54776">
        <ele>131.6</ele>
        <time>2021-08-09T07:26:11Z</time>
      </trkpt>
      <trkpt lat="44.47678" lon="1.54775">
        <ele>131.6</ele>
        <time>2021-08-09T07:26:13Z</time>
      </trkpt>
      <trkpt lat="44.47674" lon="1.54773">
        <ele>131.5</ele>
        <time>2021-08-09T07:26:14Z</time>
      </trkpt>
      <trkpt lat="44.4767" lon="1.54771">
        <ele>131.5</ele>
        <time>2021-08-09T07:26:15Z</time>
      </trkpt>
      <trkpt lat="44.47664" lon="1.54769">
        <ele>131.5</ele>
        <time>2021-08-09T07:26:17Z</time>
      </trkpt>
      <trkpt lat="44.4766" lon="1.54768">
        <ele>131.5</ele>
        <time>2021-08-09T07:26:18Z</time>
      </trkpt>
      <trkpt lat="44.47656" lon="1.54767">
        <ele>131.4</ele>
        <time>2021-08-09T07:26:19Z</time>
      </trkpt>
      <trkpt lat="44.47652" lon="1.54766">
        <ele>131.4</ele>
        <time>2021-08-09T07:26:20Z</time>
      </trkpt>
      <trkpt lat="44.47646" lon="1.54764">
        <ele>131.4</ele>
        <time>2021-08-09T07:26:22Z</time>
      </trkpt>
      <trkpt lat="44.47641" lon="1.54761">
        <ele>131.4</ele>
        <time>2021-08-09T07:26:23Z</time>
      </trkpt>
      <trkpt lat="44.47634" lon="1.5476">
        <ele>131.3</ele>
        <time>2021-08-09T07:26:25Z</time>
      </trkpt>
      <trkpt lat="44.4763" lon="1.54758">
        <ele>131.3</ele>
        <time>2021-08-09T07:26:26Z</time>
      </trkpt>
      <trkpt lat="44.47625" lon="1.54756">
        <ele>131.3</ele>
        <time>2021-08-09T07:26:27Z</time>
      </trkpt>
      <trkpt lat="44.47619" lon="1.54755">
        <ele>131.2</ele>
        <time>2021-08-09T07:26:28Z</time>
      </trkpt>
      <trkpt lat="44.47614" lon="1.54754">
        <ele>131.2</ele>
        <time>2021-08-09T07:26:30Z</time>
      </trkpt>
      <trkpt lat="44.4761" lon="1.54752">
        <ele>131.2</ele>
        <time>2021-08-09T07:26:31Z</time>
      </trkpt>
      <trkpt lat="44.47606" lon="1.54751">
        <ele>131.2</ele>
        <time>2021-08-09T07:26:32Z</time>
      </trkpt>
      <trkpt lat="44.47601" lon="1.54749">
        <ele>131.2</ele>
        <time>2021-08-09T07:26:33Z</time>
      </trkpt>
      <trkpt lat="44.47597" lon="1.54748">
        <ele>131.2</ele>
        <time>2021-08-09T07:26:34Z</time>
      </trkpt>
      <trkpt lat="44.47594" lon="1.54748">
        <ele>131.2</ele>
        <time>2021-08-09T07:26:36Z</time>
      </trkpt>
      <trkpt lat="44.47591" lon="1.54748">
        <ele>131.1</ele>
        <time>2021-08-09T07:26:37Z</time>
      </trkpt>
      <trkpt lat="44.47588" lon="1.54748">
        <ele>131.1</ele>
        <time>2021-08-09T07:26:38Z</time>
      </trkpt>
      <trkpt lat="44.47585" lon="1.54747">
        <ele>131.1</ele>
        <time>2021-08-09T07:26:39Z</time>
      </trkpt>
      <trkpt lat="44.47581" lon="1.54746">
        <ele>131.1</ele>
        <time>2021-08-09T07:26:40Z</time>
      </trkpt>
      <trkpt lat="44.47577" lon="1.54746">
        <ele>131</ele>
        <time>2021-08-09T07:26:42Z</time>
      </trkpt>
      <trkpt lat="44.47576" lon="1.54746">
        <ele>131</ele>
        <time>2021-08-09T07:26:43Z</time>
      </trkpt>
      <trkpt lat="44.47574" lon="1.54746">
        <ele>131</ele>
        <time>2021-08-09T07:26:44Z</time>
      </trkpt>
      <trkpt lat="44.47572" lon="1.54746">
        <ele>131</ele>
        <time>2021-08-09T07:26:46Z</time>
      </trkpt>
      <trkpt lat="44.47568" lon="1.54746">
        <ele>130.9</ele>
        <time>2021-08-09T07:26:47Z</time>
      </trkpt>
      <trkpt lat="44.47567" lon="1.54746">
        <ele>130.9</ele>
        <time>2021-08-09T07:26:48Z</time>
      </trkpt>
      <trkpt lat="44.47562" lon="1.54746">
        <ele>130.9</ele>
        <time>2021-08-09T07:26:50Z</time>
      </trkpt>
      <trkpt lat="44.47558" lon="1.54745">
        <ele>130.8</ele>
        <time>2021-08-09T07:26:52Z</time>
      </trkpt>
      <trkpt lat="44.47555" lon="1.54745">
        <ele>130.8</ele>
        <time>2021-08-09T07:26:53Z</time>
      </trkpt>
      <trkpt lat="44.47554" lon="1.54745">
        <ele>130.8</ele>
        <time>2021-08-09T07:26:54Z</time>
      </trkpt>
      <trkpt lat="44.4755" lon="1.54743">
        <ele>130.8</ele>
        <time>2021-08-09T07:26:56Z</time>
      </trkpt>
      <trkpt lat="44.47549" lon="1.54743">
        <ele>130.8</ele>
        <time>2021-08-09T07:26:57Z</time>
      </trkpt>
      <trkpt lat="44.47546" lon="1.54743">
        <ele>130.7</ele>
        <time>2021-08-09T07:26:59Z</time>
      </trkpt>
      <trkpt lat="44.47543" lon="1.54743">
        <ele>130.7</ele>
        <time>2021-08-09T07:27:00Z</time>
      </trkpt>
      <trkpt lat="44.47542" lon="1.54743">
        <ele>130.7</ele>
        <time>2021-08-09T07:27:01Z</time>
      </trkpt>
      <trkpt lat="44.47538" lon="1.54743">
        <ele>130.7</ele>
        <time>2021-08-09T07:27:02Z</time>
      </trkpt>
      <trkpt lat="44.47537" lon="1.54743">
        <ele>130.7</ele>
        <time>2021-08-09T07:27:03Z</time>
      </trkpt>
      <trkpt lat="44.47535" lon="1.54743">
        <ele>130.7</ele>
        <time>2021-08-09T07:27:04Z</time>
      </trkpt>
      <trkpt lat="44.47532" lon="1.54745">
        <ele>130.7</ele>
        <time>2021-08-09T07:27:06Z</time>
      </trkpt>
      <trkpt lat="44.47528" lon="1.54744">
        <ele>130.7</ele>
        <time>2021-08-09T07:27:07Z</time>
      </trkpt>
      <trkpt lat="44.47524" lon="1.54744">
        <ele>130.7</ele>
        <time>2021-08-09T07:27:09Z</time>
      </trkpt>
      <trkpt lat="44.47522" lon="1.54744">
        <ele>130.7</ele>
        <time>2021-08-09T07:27:10Z</time>
      </trkpt>
      <trkpt lat="44.4752" lon="1.54744">
        <ele>130.7</ele>
        <time>2021-08-09T07:27:11Z</time>
      </trkpt>
      <trkpt lat="44.47517" lon="1.54744">
        <ele>130.6</ele>
        <time>2021-08-09T07:27:13Z</time>
      </trkpt>
      <trkpt lat="44.47515" lon="1.54745">
        <ele>130.6</ele>
        <time>2021-08-09T07:27:14Z</time>
      </trkpt>
      <trkpt lat="44.47509" lon="1.54747">
        <ele>130.6</ele>
        <time>2021-08-09T07:27:16Z</time>
      </trkpt>
      <trkpt lat="44.47505" lon="1.54749">
        <ele>130.6</ele>
        <time>2021-08-09T07:27:18Z</time>
      </trkpt>
      <trkpt lat="44.475" lon="1.54751">
        <ele>130.5</ele>
        <time>2021-08-09T07:27:19Z</time>
      </trkpt>
      <trkpt lat="44.47497" lon="1.54752">
        <ele>130.5</ele>
        <time>2021-08-09T07:27:20Z</time>
      </trkpt>
      <trkpt lat="44.47492" lon="1.54753">
        <ele>130.5</ele>
        <time>2021-08-09T07:27:22Z</time>
      </trkpt>
      <trkpt lat="44.47489" lon="1.54754">
        <ele>130.5</ele>
        <time>2021-08-09T07:27:23Z</time>
      </trkpt>
      <trkpt lat="44.47486" lon="1.54756">
        <ele>130.4</ele>
        <time>2021-08-09T07:27:24Z</time>
      </trkpt>
      <trkpt lat="44.47483" lon="1.54757">
        <ele>130.4</ele>
        <time>2021-08-09T07:27:25Z</time>
      </trkpt>
      <trkpt lat="44.47478" lon="1.54758">
        <ele>130.4</ele>
        <time>2021-08-09T07:27:27Z</time>
      </trkpt>
      <trkpt lat="44.47475" lon="1.54759">
        <ele>130.3</ele>
        <time>2021-08-09T07:27:28Z</time>
      </trkpt>
      <trkpt lat="44.4747" lon="1.54759">
        <ele>130.3</ele>
        <time>2021-08-09T07:27:29Z</time>
      </trkpt>
      <trkpt lat="44.47463" lon="1.54761">
        <ele>130.2</ele>
        <time>2021-08-09T07:27:30Z</time>
      </trkpt>
      <trkpt lat="44.47451" lon="1.54766">
        <ele>130.1</ele>
        <time>2021-08-09T07:27:32Z</time>
      </trkpt>
      <trkpt lat="44.47437" lon="1.54772">
        <ele>130</ele>
        <time>2021-08-09T07:27:34Z</time>
      </trkpt>
      <trkpt lat="44.4743" lon="1.54775">
        <ele>129.9</ele>
        <time>2021-08-09T07:27:35Z</time>
      </trkpt>
      <trkpt lat="44.47422" lon="1.54778">
        <ele>129.8</ele>
        <time>2021-08-09T07:27:36Z</time>
      </trkpt>
      <trkpt lat="44.47406" lon="1.54782">
        <ele>129.7</ele>
        <time>2021-08-09T07:27:38Z</time>
      </trkpt>
      <trkpt lat="44.47393" lon="1.54784">
        <ele>129.6</ele>
        <time>2021-08-09T07:27:40Z</time>
      </trkpt>
      <trkpt lat="44.47382" lon="1.54787">
        <ele>129.5</ele>
        <time>2021-08-09T07:27:42Z</time>
      </trkpt>
      <trkpt lat="44.47378" lon="1.54784">
        <ele>129.4</ele>
        <time>2021-08-09T07:27:43Z</time>
      </trkpt>
      <trkpt lat="44.47372" lon="1.54785">
        <ele>129.4</ele>
        <time>2021-08-09T07:27:45Z</time>
      </trkpt>
      <trkpt lat="44.47367" lon="1.54787">
        <ele>129.3</ele>
        <time>2021-08-09T07:27:46Z</time>
      </trkpt>
      <trkpt lat="44.47363" lon="1.54788">
        <ele>129.3</ele>
        <time>2021-08-09T07:27:47Z</time>
      </trkpt>
      <trkpt lat="44.47357" lon="1.54793">
        <ele>129.2</ele>
        <time>2021-08-09T07:27:49Z</time>
      </trkpt>
      <trkpt lat="44.47353" lon="1.54794">
        <ele>129.2</ele>
        <time>2021-08-09T07:27:50Z</time>
      </trkpt>
      <trkpt lat="44.47349" lon="1.54796">
        <ele>129.2</ele>
        <time>2021-08-09T07:27:52Z</time>
      </trkpt>
      <trkpt lat="44.47345" lon="1.54798">
        <ele>129.1</ele>
        <time>2021-08-09T07:27:53Z</time>
      </trkpt>
      <trkpt lat="44.4734" lon="1.54802">
        <ele>129.1</ele>
        <time>2021-08-09T07:27:55Z</time>
      </trkpt>
      <trkpt lat="44.47337" lon="1.54804">
        <ele>129.1</ele>
        <time>2021-08-09T07:27:56Z</time>
      </trkpt>
      <trkpt lat="44.47333" lon="1.54805">
        <ele>129.1</ele>
        <time>2021-08-09T07:27:57Z</time>
      </trkpt>
      <trkpt lat="44.47332" lon="1.54805">
        <ele>129.1</ele>
        <time>2021-08-09T07:27:58Z</time>
      </trkpt>
      <trkpt lat="44.47328" lon="1.54806">
        <ele>129</ele>
        <time>2021-08-09T07:28:00Z</time>
      </trkpt>
      <trkpt lat="44.47324" lon="1.54807">
        <ele>129</ele>
        <time>2021-08-09T07:28:01Z</time>
      </trkpt>
      <trkpt lat="44.47321" lon="1.54808">
        <ele>129</ele>
        <time>2021-08-09T07:28:02Z</time>
      </trkpt>
      <trkpt lat="44.47318" lon="1.54808">
        <ele>129</ele>
        <time>2021-08-09T07:28:03Z</time>
      </trkpt>
      <trkpt lat="44.47313" lon="1.54809">
        <ele>128.9</ele>
        <time>2021-08-09T07:28:05Z</time>
      </trkpt>
      <trkpt lat="44.4731" lon="1.5481">
        <ele>128.9</ele>
        <time>2021-08-09T07:28:06Z</time>
      </trkpt>
      <trkpt lat="44.47306" lon="1.5481">
        <ele>128.9</ele>
        <time>2021-08-09T07:28:07Z</time>
      </trkpt>
      <trkpt lat="44.47305" lon="1.5481">
        <ele>128.9</ele>
        <time>2021-08-09T07:28:08Z</time>
      </trkpt>
      <trkpt lat="44.47302" lon="1.54811">
        <ele>128.9</ele>
        <time>2021-08-09T07:28:09Z</time>
      </trkpt>
      <trkpt lat="44.47298" lon="1.54813">
        <ele>128.9</ele>
        <time>2021-08-09T07:28:11Z</time>
      </trkpt>
      <trkpt lat="44.47294" lon="1.54814">
        <ele>128.8</ele>
        <time>2021-08-09T07:28:12Z</time>
      </trkpt>
      <trkpt lat="44.47287" lon="1.54815">
        <ele>128.8</ele>
        <time>2021-08-09T07:28:14Z</time>
      </trkpt>
      <trkpt lat="44.47282" lon="1.54817">
        <ele>128.8</ele>
        <time>2021-08-09T07:28:15Z</time>
      </trkpt>
      <trkpt lat="44.47277" lon="1.54818">
        <ele>128.8</ele>
        <time>2021-08-09T07:28:16Z</time>
      </trkpt>
      <trkpt lat="44.47274" lon="1.5482">
        <ele>128.8</ele>
        <time>2021-08-09T07:28:17Z</time>
      </trkpt>
      <trkpt lat="44.47273" lon="1.5482">
        <ele>128.8</ele>
        <time>2021-08-09T07:28:18Z</time>
      </trkpt>
      <trkpt lat="44.47269" lon="1.54821">
        <ele>128.8</ele>
        <time>2021-08-09T07:28:20Z</time>
      </trkpt>
      <trkpt lat="44.47266" lon="1.54822">
        <ele>128.8</ele>
        <time>2021-08-09T07:28:21Z</time>
      </trkpt>
      <trkpt lat="44.47262" lon="1.54824">
        <ele>128.8</ele>
        <time>2021-08-09T07:28:22Z</time>
      </trkpt>
      <trkpt lat="44.47259" lon="1.54826">
        <ele>128.9</ele>
        <time>2021-08-09T07:28:23Z</time>
      </trkpt>
      <trkpt lat="44.47255" lon="1.54827">
        <ele>128.9</ele>
        <time>2021-08-09T07:28:25Z</time>
      </trkpt>
      <trkpt lat="44.47252" lon="1.54827">
        <ele>128.9</ele>
        <time>2021-08-09T07:28:26Z</time>
      </trkpt>
      <trkpt lat="44.4725" lon="1.54827">
        <ele>129</ele>
        <time>2021-08-09T07:28:27Z</time>
      </trkpt>
      <trkpt lat="44.47248" lon="1.54829">
        <ele>129</ele>
        <time>2021-08-09T07:28:28Z</time>
      </trkpt>
      <trkpt lat="44.47246" lon="1.54829">
        <ele>129</ele>
        <time>2021-08-09T07:28:29Z</time>
      </trkpt>
      <trkpt lat="44.47242" lon="1.5483">
        <ele>129</ele>
        <time>2021-08-09T07:28:31Z</time>
      </trkpt>
      <trkpt lat="44.4724" lon="1.54831">
        <ele>129</ele>
        <time>2021-08-09T07:28:32Z</time>
      </trkpt>
      <trkpt lat="44.4724" lon="1.54831">
        <ele>129</ele>
        <time>2021-08-09T07:28:34Z</time>
      </trkpt>
      <trkpt lat="44.4724" lon="1.54831">
        <ele>129</ele>
        <time>2021-08-09T07:28:35Z</time>
      </trkpt>
      <trkpt lat="44.47241" lon="1.54832">
        <ele>129</ele>
        <time>2021-08-09T07:28:37Z</time>
      </trkpt>
      <trkpt lat="44.47241" lon="1.54832">
        <ele>128.9</ele>
        <time>2021-08-09T07:28:38Z</time>
      </trkpt>
      <trkpt lat="44.47241" lon="1.54832">
        <ele>128.9</ele>
        <time>2021-08-09T07:28:39Z</time>
      </trkpt>
      <trkpt lat="44.47241" lon="1.54832">
        <ele>128.9</ele>
        <time>2021-08-09T07:28:41Z</time>
      </trkpt>
      <trkpt lat="44.47239" lon="1.54833">
        <ele>128.9</ele>
        <time>2021-08-09T07:28:42Z</time>
      </trkpt>
      <trkpt lat="44.47239" lon="1.54833">
        <ele>128.9</ele>
        <time>2021-08-09T07:28:42Z</time>
      </trkpt>
      <trkpt lat="44.47237" lon="1.54834">
        <ele>128.9</ele>
        <time>2021-08-09T07:28:43Z</time>
      </trkpt>
      <trkpt lat="44.47233" lon="1.54835">
        <ele>128.9</ele>
        <time>2021-08-09T07:28:44Z</time>
      </trkpt>
      <trkpt lat="44.47229" lon="1.54836">
        <ele>128.9</ele>
        <time>2021-08-09T07:28:46Z</time>
      </trkpt>
      <trkpt lat="44.47224" lon="1.54836">
        <ele>128.9</ele>
        <time>2021-08-09T07:28:47Z</time>
      </trkpt>
      <trkpt lat="44.4722" lon="1.54836">
        <ele>128.9</ele>
        <time>2021-08-09T07:28:48Z</time>
      </trkpt>
      <trkpt lat="44.47215" lon="1.54837">
        <ele>128.9</ele>
        <time>2021-08-09T07:28:49Z</time>
      </trkpt>
      <trkpt lat="44.4721" lon="1.54838">
        <ele>128.9</ele>
        <time>2021-08-09T07:28:51Z</time>
      </trkpt>
      <trkpt lat="44.47207" lon="1.54839">
        <ele>128.8</ele>
        <time>2021-08-09T07:28:52Z</time>
      </trkpt>
      <trkpt lat="44.47202" lon="1.54841">
        <ele>128.8</ele>
        <time>2021-08-09T07:28:54Z</time>
      </trkpt>
      <trkpt lat="44.47199" lon="1.54841">
        <ele>128.8</ele>
        <time>2021-08-09T07:28:55Z</time>
      </trkpt>
      <trkpt lat="44.47195" lon="1.54842">
        <ele>128.8</ele>
        <time>2021-08-09T07:28:56Z</time>
      </trkpt>
      <trkpt lat="44.4719" lon="1.54843">
        <ele>128.8</ele>
        <time>2021-08-09T07:28:58Z</time>
      </trkpt>
      <trkpt lat="44.47185" lon="1.54844">
        <ele>128.8</ele>
        <time>2021-08-09T07:28:59Z</time>
      </trkpt>
      <trkpt lat="44.47181" lon="1.54845">
        <ele>128.8</ele>
        <time>2021-08-09T07:29:00Z</time>
      </trkpt>
      <trkpt lat="44.47174" lon="1.54847">
        <ele>128.8</ele>
        <time>2021-08-09T07:29:02Z</time>
      </trkpt>
      <trkpt lat="44.47169" lon="1.54848">
        <ele>128.7</ele>
        <time>2021-08-09T07:29:03Z</time>
      </trkpt>
      <trkpt lat="44.47164" lon="1.5485">
        <ele>128.7</ele>
        <time>2021-08-09T07:29:04Z</time>
      </trkpt>
      <trkpt lat="44.47159" lon="1.54852">
        <ele>128.7</ele>
        <time>2021-08-09T07:29:05Z</time>
      </trkpt>
      <trkpt lat="44.47154" lon="1.54852">
        <ele>128.7</ele>
        <time>2021-08-09T07:29:06Z</time>
      </trkpt>
      <trkpt lat="44.47145" lon="1.54854">
        <ele>128.7</ele>
        <time>2021-08-09T07:29:08Z</time>
      </trkpt>
      <trkpt lat="44.47139" lon="1.54854">
        <ele>128.7</ele>
        <time>2021-08-09T07:29:10Z</time>
      </trkpt>
      <trkpt lat="44.47131" lon="1.54856">
        <ele>128.7</ele>
        <time>2021-08-09T07:29:11Z</time>
      </trkpt>
      <trkpt lat="44.47126" lon="1.54857">
        <ele>128.7</ele>
        <time>2021-08-09T07:29:12Z</time>
      </trkpt>
      <trkpt lat="44.47119" lon="1.54859">
        <ele>128.7</ele>
        <time>2021-08-09T07:29:13Z</time>
      </trkpt>
      <trkpt lat="44.47113" lon="1.5486">
        <ele>128.7</ele>
        <time>2021-08-09T07:29:14Z</time>
      </trkpt>
      <trkpt lat="44.471" lon="1.54863">
        <ele>128.6</ele>
        <time>2021-08-09T07:29:16Z</time>
      </trkpt>
      <trkpt lat="44.47093" lon="1.54865">
        <ele>128.6</ele>
        <time>2021-08-09T07:29:17Z</time>
      </trkpt>
      <trkpt lat="44.47079" lon="1.54866">
        <ele>128.5</ele>
        <time>2021-08-09T07:29:19Z</time>
      </trkpt>
      <trkpt lat="44.47073" lon="1.54866">
        <ele>128.5</ele>
        <time>2021-08-09T07:29:20Z</time>
      </trkpt>
      <trkpt lat="44.47058" lon="1.54867">
        <ele>128.4</ele>
        <time>2021-08-09T07:29:22Z</time>
      </trkpt>
      <trkpt lat="44.47052" lon="1.54867">
        <ele>128.4</ele>
        <time>2021-08-09T07:29:23Z</time>
      </trkpt>
      <trkpt lat="44.47039" lon="1.54867">
        <ele>128.4</ele>
        <time>2021-08-09T07:29:25Z</time>
      </trkpt>
      <trkpt lat="44.47026" lon="1.54867">
        <ele>128.4</ele>
        <time>2021-08-09T07:29:27Z</time>
      </trkpt>
      <trkpt lat="44.4702" lon="1.54867">
        <ele>128.4</ele>
        <time>2021-08-09T07:29:28Z</time>
      </trkpt>
      <trkpt lat="44.47007" lon="1.54865">
        <ele>128.5</ele>
        <time>2021-08-09T07:29:30Z</time>
      </trkpt>
      <trkpt lat="44.46998" lon="1.5486">
        <ele>128.5</ele>
        <time>2021-08-09T07:29:32Z</time>
      </trkpt>
      <trkpt lat="44.46997" lon="1.54859">
        <ele>128.5</ele>
        <time>2021-08-09T07:29:34Z</time>
      </trkpt>
      <trkpt lat="44.46998" lon="1.54859">
        <ele>128.5</ele>
        <time>2021-08-09T07:29:35Z</time>
      </trkpt>
      <trkpt lat="44.46998" lon="1.54859">
        <ele>128.5</ele>
        <time>2021-08-09T07:29:36Z</time>
      </trkpt>
      <trkpt lat="44.46998" lon="1.54859">
        <ele>128.5</ele>
        <time>2021-08-09T07:29:38Z</time>
      </trkpt>
      <trkpt lat="44.46999" lon="1.54859">
        <ele>128.5</ele>
        <time>2021-08-09T07:29:40Z</time>
      </trkpt>
      <trkpt lat="44.46998" lon="1.54859">
        <ele>128.5</ele>
        <time>2021-08-09T07:29:41Z</time>
      </trkpt>
      <trkpt lat="44.46998" lon="1.54859">
        <ele>128.5</ele>
        <time>2021-08-09T07:29:42Z</time>
      </trkpt>
      <trkpt lat="44.46994" lon="1.54857">
        <ele>128.5</ele>
        <time>2021-08-09T07:29:56Z</time>
      </trkpt>
      <trkpt lat="44.46992" lon="1.54855">
        <ele>128.5</ele>
        <time>2021-08-09T07:29:57Z</time>
      </trkpt>
      <trkpt lat="44.46989" lon="1.54855">
        <ele>128.5</ele>
        <time>2021-08-09T07:29:59Z</time>
      </trkpt>
      <trkpt lat="44.46987" lon="1.54853">
        <ele>128.5</ele>
        <time>2021-08-09T07:30:00Z</time>
      </trkpt>
      <trkpt lat="44.46985" lon="1.54853">
        <ele>128.5</ele>
        <time>2021-08-09T07:30:01Z</time>
      </trkpt>
      <trkpt lat="44.46984" lon="1.54851">
        <ele>128.5</ele>
        <time>2021-08-09T07:30:02Z</time>
      </trkpt>
      <trkpt lat="44.46981" lon="1.5485">
        <ele>128.5</ele>
        <time>2021-08-09T07:30:04Z</time>
      </trkpt>
      <trkpt lat="44.46979" lon="1.54849">
        <ele>128.5</ele>
        <time>2021-08-09T07:30:05Z</time>
      </trkpt>
      <trkpt lat="44.46978" lon="1.54848">
        <ele>128.5</ele>
        <time>2021-08-09T07:30:06Z</time>
      </trkpt>
      <trkpt lat="44.46976" lon="1.54847">
        <ele>128.5</ele>
        <time>2021-08-09T07:30:08Z</time>
      </trkpt>
      <trkpt lat="44.46973" lon="1.54845">
        <ele>128.5</ele>
        <time>2021-08-09T07:30:10Z</time>
      </trkpt>
      <trkpt lat="44.46971" lon="1.54845">
        <ele>128.5</ele>
        <time>2021-08-09T07:30:11Z</time>
      </trkpt>
      <trkpt lat="44.46968" lon="1.54843">
        <ele>128.5</ele>
        <time>2021-08-09T07:30:13Z</time>
      </trkpt>
      <trkpt lat="44.46965" lon="1.54842">
        <ele>128.5</ele>
        <time>2021-08-09T07:30:14Z</time>
      </trkpt>
      <trkpt lat="44.46964" lon="1.54841">
        <ele>128.5</ele>
        <time>2021-08-09T07:30:15Z</time>
      </trkpt>
      <trkpt lat="44.46961" lon="1.5484">
        <ele>128.5</ele>
        <time>2021-08-09T07:30:17Z</time>
      </trkpt>
      <trkpt lat="44.4696" lon="1.54839">
        <ele>128.5</ele>
        <time>2021-08-09T07:30:18Z</time>
      </trkpt>
      <trkpt lat="44.46957" lon="1.54837">
        <ele>128.5</ele>
        <time>2021-08-09T07:30:20Z</time>
      </trkpt>
      <trkpt lat="44.46957" lon="1.54837">
        <ele>128.5</ele>
        <time>2021-08-09T07:30:21Z</time>
      </trkpt>
      <trkpt lat="44.46953" lon="1.54832">
        <ele>128.5</ele>
        <time>2021-08-09T07:30:23Z</time>
      </trkpt>
      <trkpt lat="44.46951" lon="1.5483">
        <ele>128.5</ele>
        <time>2021-08-09T07:30:25Z</time>
      </trkpt>
      <trkpt lat="44.4695" lon="1.54827">
        <ele>128.5</ele>
        <time>2021-08-09T07:30:27Z</time>
      </trkpt>
      <trkpt lat="44.46949" lon="1.54825">
        <ele>128.5</ele>
        <time>2021-08-09T07:30:28Z</time>
      </trkpt>
      <trkpt lat="44.46946" lon="1.5482">
        <ele>128.5</ele>
        <time>2021-08-09T07:30:30Z</time>
      </trkpt>
      <trkpt lat="44.46942" lon="1.54816">
        <ele>128.5</ele>
        <time>2021-08-09T07:30:31Z</time>
      </trkpt>
      <trkpt lat="44.4694" lon="1.54813">
        <ele>128.5</ele>
        <time>2021-08-09T07:30:32Z</time>
      </trkpt>
      <trkpt lat="44.46937" lon="1.54809">
        <ele>128.5</ele>
        <time>2021-08-09T07:30:34Z</time>
      </trkpt>
      <trkpt lat="44.46934" lon="1.54806">
        <ele>128.5</ele>
        <time>2021-08-09T07:30:35Z</time>
      </trkpt>
      <trkpt lat="44.46933" lon="1.54804">
        <ele>128.5</ele>
        <time>2021-08-09T07:30:36Z</time>
      </trkpt>
      <trkpt lat="44.46931" lon="1.548">
        <ele>128.5</ele>
        <time>2021-08-09T07:30:38Z</time>
      </trkpt>
      <trkpt lat="44.46928" lon="1.54798">
        <ele>128.5</ele>
        <time>2021-08-09T07:30:39Z</time>
      </trkpt>
      <trkpt lat="44.46924" lon="1.54795">
        <ele>128.5</ele>
        <time>2021-08-09T07:30:41Z</time>
      </trkpt>
      <trkpt lat="44.46923" lon="1.54795">
        <ele>128.5</ele>
        <time>2021-08-09T07:30:42Z</time>
      </trkpt>
      <trkpt lat="44.4692" lon="1.54792">
        <ele>128.5</ele>
        <time>2021-08-09T07:30:43Z</time>
      </trkpt>
      <trkpt lat="44.46918" lon="1.54788">
        <ele>128.5</ele>
        <time>2021-08-09T07:30:44Z</time>
      </trkpt>
      <trkpt lat="44.46917" lon="1.54786">
        <ele>128.5</ele>
        <time>2021-08-09T07:30:45Z</time>
      </trkpt>
      <trkpt lat="44.46915" lon="1.54784">
        <ele>128.5</ele>
        <time>2021-08-09T07:30:46Z</time>
      </trkpt>
      <trkpt lat="44.46914" lon="1.54782">
        <ele>128.5</ele>
        <time>2021-08-09T07:30:48Z</time>
      </trkpt>
      <trkpt lat="44.46911" lon="1.54779">
        <ele>128.5</ele>
        <time>2021-08-09T07:30:50Z</time>
      </trkpt>
      <trkpt lat="44.4691" lon="1.54778">
        <ele>128.5</ele>
        <time>2021-08-09T07:30:51Z</time>
      </trkpt>
      <trkpt lat="44.46907" lon="1.54775">
        <ele>128.5</ele>
        <time>2021-08-09T07:30:53Z</time>
      </trkpt>
      <trkpt lat="44.46906" lon="1.54774">
        <ele>128.5</ele>
        <time>2021-08-09T07:30:54Z</time>
      </trkpt>
      <trkpt lat="44.46905" lon="1.54773">
        <ele>128.5</ele>
        <time>2021-08-09T07:30:55Z</time>
      </trkpt>
      <trkpt lat="44.46904" lon="1.54771">
        <ele>128.8</ele>
        <time>2021-08-09T07:30:57Z</time>
      </trkpt>
      <trkpt lat="44.46901" lon="1.54766">
        <ele>130.2</ele>
        <time>2021-08-09T07:30:58Z</time>
      </trkpt>
      <trkpt lat="44.469" lon="1.54765">
        <ele>131</ele>
        <time>2021-08-09T07:30:59Z</time>
      </trkpt>
      <trkpt lat="44.46898" lon="1.54762">
        <ele>131.2</ele>
        <time>2021-08-09T07:31:01Z</time>
      </trkpt>
      <trkpt lat="44.46897" lon="1.54761">
        <ele>132.5</ele>
        <time>2021-08-09T07:31:02Z</time>
      </trkpt>
      <trkpt lat="44.46894" lon="1.54757">
        <ele>132.7</ele>
        <time>2021-08-09T07:31:04Z</time>
      </trkpt>
      <trkpt lat="44.46892" lon="1.54754">
        <ele>134</ele>
        <time>2021-08-09T07:31:06Z</time>
      </trkpt>
      <trkpt lat="44.4689" lon="1.54751">
        <ele>134.6</ele>
        <time>2021-08-09T07:31:07Z</time>
      </trkpt>
      <trkpt lat="44.46888" lon="1.54749">
        <ele>134.7</ele>
        <time>2021-08-09T07:31:08Z</time>
      </trkpt>
      <trkpt lat="44.46886" lon="1.54745">
        <ele>135.9</ele>
        <time>2021-08-09T07:31:10Z</time>
      </trkpt>
      <trkpt lat="44.46884" lon="1.5474">
        <ele>136.3</ele>
        <time>2021-08-09T07:31:11Z</time>
      </trkpt>
      <trkpt lat="44.4688" lon="1.54733">
        <ele>137</ele>
        <time>2021-08-09T07:31:12Z</time>
      </trkpt>
      <trkpt lat="44.46871" lon="1.54722">
        <ele>136.2</ele>
        <time>2021-08-09T07:31:14Z</time>
      </trkpt>
      <trkpt lat="44.46867" lon="1.54715">
        <ele>135.7</ele>
        <time>2021-08-09T07:31:15Z</time>
      </trkpt>
      <trkpt lat="44.46856" lon="1.54702">
        <ele>134.6</ele>
        <time>2021-08-09T07:31:17Z</time>
      </trkpt>
      <trkpt lat="44.4685" lon="1.54693">
        <ele>134.3</ele>
        <time>2021-08-09T07:31:18Z</time>
      </trkpt>
      <trkpt lat="44.46845" lon="1.54682">
        <ele>134</ele>
        <time>2021-08-09T07:31:19Z</time>
      </trkpt>
      <trkpt lat="44.46841" lon="1.54669">
        <ele>134.4</ele>
        <time>2021-08-09T07:31:20Z</time>
      </trkpt>
      <trkpt lat="44.46831" lon="1.54642">
        <ele>132.8</ele>
        <time>2021-08-09T07:31:22Z</time>
      </trkpt>
      <trkpt lat="44.46821" lon="1.5462">
        <ele>130.1</ele>
        <time>2021-08-09T07:31:24Z</time>
      </trkpt>
      <trkpt lat="44.46814" lon="1.54605">
        <ele>128.6</ele>
        <time>2021-08-09T07:31:26Z</time>
      </trkpt>
      <trkpt lat="44.46815" lon="1.54602">
        <ele>129.8</ele>
        <time>2021-08-09T07:31:28Z</time>
      </trkpt>
      <trkpt lat="44.46817" lon="1.54602">
        <ele>130.6</ele>
        <time>2021-08-09T07:31:30Z</time>
      </trkpt>
      <trkpt lat="44.46817" lon="1.54602">
        <ele>131.5</ele>
        <time>2021-08-09T07:31:31Z</time>
      </trkpt>
      <trkpt lat="44.46818" lon="1.54602">
        <ele>132.3</ele>
        <time>2021-08-09T07:31:32Z</time>
      </trkpt>
      <trkpt lat="44.46818" lon="1.54602">
        <ele>133.1</ele>
        <time>2021-08-09T07:31:33Z</time>
      </trkpt>
      <trkpt lat="44.46818" lon="1.54602">
        <ele>134</ele>
        <time>2021-08-09T07:31:35Z</time>
      </trkpt>
      <trkpt lat="44.46818" lon="1.54602">
        <ele>134.8</ele>
        <time>2021-08-09T07:31:37Z</time>
      </trkpt>
      <trkpt lat="44.46818" lon="1.54602">
        <ele>135.7</ele>
        <time>2021-08-09T07:31:38Z</time>
      </trkpt>
      <trkpt lat="44.4682" lon="1.54599">
        <ele>137.1</ele>
        <time>2021-08-09T07:32:24Z</time>
      </trkpt>
      <trkpt lat="44.46821" lon="1.54598">
        <ele>137.6</ele>
        <time>2021-08-09T07:32:25Z</time>
      </trkpt>
      <trkpt lat="44.46822" lon="1.54597">
        <ele>139</ele>
        <time>2021-08-09T07:32:26Z</time>
      </trkpt>
      <trkpt lat="44.46824" lon="1.54597">
        <ele>139.3</ele>
        <time>2021-08-09T07:32:28Z</time>
      </trkpt>
      <trkpt lat="44.46825" lon="1.54598">
        <ele>139.5</ele>
        <time>2021-08-09T07:32:29Z</time>
      </trkpt>
      <trkpt lat="44.46826" lon="1.54598">
        <ele>139.7</ele>
        <time>2021-08-09T07:32:30Z</time>
      </trkpt>
      <trkpt lat="44.46827" lon="1.54598">
        <ele>139.9</ele>
        <time>2021-08-09T07:32:31Z</time>
      </trkpt>
      <trkpt lat="44.4683" lon="1.54599">
        <ele>140.4</ele>
        <time>2021-08-09T07:32:33Z</time>
      </trkpt>
      <trkpt lat="44.46832" lon="1.546">
        <ele>140.8</ele>
        <time>2021-08-09T07:32:34Z</time>
      </trkpt>
      <trkpt lat="44.46836" lon="1.54601">
        <ele>141.4</ele>
        <time>2021-08-09T07:32:36Z</time>
      </trkpt>
      <trkpt lat="44.46839" lon="1.54603">
        <ele>142</ele>
        <time>2021-08-09T07:32:38Z</time>
      </trkpt>
      <trkpt lat="44.46843" lon="1.54603">
        <ele>142.7</ele>
        <time>2021-08-09T07:32:40Z</time>
      </trkpt>
      <trkpt lat="44.46845" lon="1.54604">
        <ele>143.1</ele>
        <time>2021-08-09T07:32:42Z</time>
      </trkpt>
      <trkpt lat="44.46846" lon="1.54604">
        <ele>143.2</ele>
        <time>2021-08-09T07:32:43Z</time>
      </trkpt>
      <trkpt lat="44.46847" lon="1.54604">
        <ele>143.3</ele>
        <time>2021-08-09T07:32:44Z</time>
      </trkpt>
      <trkpt lat="44.4685" lon="1.54604">
        <ele>143.8</ele>
        <time>2021-08-09T07:32:46Z</time>
      </trkpt>
      <trkpt lat="44.46851" lon="1.54605">
        <ele>143.9</ele>
        <time>2021-08-09T07:32:48Z</time>
      </trkpt>
      <trkpt lat="44.46851" lon="1.54605">
        <ele>144</ele>
        <time>2021-08-09T07:32:50Z</time>
      </trkpt>
      <trkpt lat="44.46852" lon="1.54605">
        <ele>144.1</ele>
        <time>2021-08-09T07:32:52Z</time>
      </trkpt>
      <trkpt lat="44.46852" lon="1.54605">
        <ele>144.1</ele>
        <time>2021-08-09T07:32:54Z</time>
      </trkpt>
      <trkpt lat="44.46853" lon="1.54606">
        <ele>144.3</ele>
        <time>2021-08-09T07:32:59Z</time>
      </trkpt>
      <trkpt lat="44.46856" lon="1.54608">
        <ele>144.8</ele>
        <time>2021-08-09T07:33:01Z</time>
      </trkpt>
      <trkpt lat="44.4686" lon="1.54609">
        <ele>145.4</ele>
        <time>2021-08-09T07:33:02Z</time>
      </trkpt>
      <trkpt lat="44.46866" lon="1.54612">
        <ele>146.2</ele>
        <time>2021-08-09T07:33:04Z</time>
      </trkpt>
      <trkpt lat="44.46868" lon="1.54614">
        <ele>146.7</ele>
        <time>2021-08-09T07:33:05Z</time>
      </trkpt>
      <trkpt lat="44.46871" lon="1.54616">
        <ele>147.2</ele>
        <time>2021-08-09T07:33:06Z</time>
      </trkpt>
      <trkpt lat="44.46872" lon="1.54616">
        <ele>147.4</ele>
        <time>2021-08-09T07:33:07Z</time>
      </trkpt>
      <trkpt lat="44.46875" lon="1.54617">
        <ele>147.7</ele>
        <time>2021-08-09T07:33:08Z</time>
      </trkpt>
      <trkpt lat="44.46879" lon="1.54617">
        <ele>148.3</ele>
        <time>2021-08-09T07:33:10Z</time>
      </trkpt>
      <trkpt lat="44.46881" lon="1.54617">
        <ele>148.8</ele>
        <time>2021-08-09T07:33:11Z</time>
      </trkpt>
      <trkpt lat="44.46884" lon="1.54618">
        <ele>149.2</ele>
        <time>2021-08-09T07:33:12Z</time>
      </trkpt>
      <trkpt lat="44.46887" lon="1.54618">
        <ele>149.6</ele>
        <time>2021-08-09T07:33:13Z</time>
      </trkpt>
      <trkpt lat="44.4689" lon="1.54618">
        <ele>150.1</ele>
        <time>2021-08-09T07:33:15Z</time>
      </trkpt>
      <trkpt lat="44.46893" lon="1.54619">
        <ele>150.6</ele>
        <time>2021-08-09T07:33:16Z</time>
      </trkpt>
      <trkpt lat="44.46894" lon="1.54619">
        <ele>150.7</ele>
        <time>2021-08-09T07:33:17Z</time>
      </trkpt>
      <trkpt lat="44.46897" lon="1.54619">
        <ele>151.2</ele>
        <time>2021-08-09T07:33:19Z</time>
      </trkpt>
      <trkpt lat="44.46899" lon="1.54619">
        <ele>151.5</ele>
        <time>2021-08-09T07:33:20Z</time>
      </trkpt>
      <trkpt lat="44.46901" lon="1.54619">
        <ele>151.9</ele>
        <time>2021-08-09T07:33:22Z</time>
      </trkpt>
      <trkpt lat="44.46903" lon="1.54619">
        <ele>152.2</ele>
        <time>2021-08-09T07:33:23Z</time>
      </trkpt>
      <trkpt lat="44.46904" lon="1.54619">
        <ele>152.4</ele>
        <time>2021-08-09T07:33:24Z</time>
      </trkpt>
      <trkpt lat="44.46907" lon="1.5462">
        <ele>152.8</ele>
        <time>2021-08-09T07:33:26Z</time>
      </trkpt>
      <trkpt lat="44.46908" lon="1.54619">
        <ele>153.1</ele>
        <time>2021-08-09T07:33:27Z</time>
      </trkpt>
      <trkpt lat="44.46912" lon="1.54619">
        <ele>153.6</ele>
        <time>2021-08-09T07:33:29Z</time>
      </trkpt>
      <trkpt lat="44.46915" lon="1.5462">
        <ele>154.1</ele>
        <time>2021-08-09T07:33:31Z</time>
      </trkpt>
      <trkpt lat="44.46916" lon="1.5462">
        <ele>154.2</ele>
        <time>2021-08-09T07:33:32Z</time>
      </trkpt>
      <trkpt lat="44.4692" lon="1.54619">
        <ele>155</ele>
        <time>2021-08-09T07:33:34Z</time>
      </trkpt>
      <trkpt lat="44.46922" lon="1.54618">
        <ele>155.2</ele>
        <time>2021-08-09T07:33:36Z</time>
      </trkpt>
      <trkpt lat="44.46924" lon="1.54617">
        <ele>155.4</ele>
        <time>2021-08-09T07:33:37Z</time>
      </trkpt>
      <trkpt lat="44.46927" lon="1.54618">
        <ele>155.9</ele>
        <time>2021-08-09T07:33:39Z</time>
      </trkpt>
      <trkpt lat="44.4693" lon="1.54618">
        <ele>156.4</ele>
        <time>2021-08-09T07:33:40Z</time>
      </trkpt>
      <trkpt lat="44.46933" lon="1.5462">
        <ele>156.8</ele>
        <time>2021-08-09T07:33:42Z</time>
      </trkpt>
      <trkpt lat="44.46936" lon="1.54621">
        <ele>157.2</ele>
        <time>2021-08-09T07:33:43Z</time>
      </trkpt>
      <trkpt lat="44.46937" lon="1.54621">
        <ele>157.4</ele>
        <time>2021-08-09T07:33:44Z</time>
      </trkpt>
      <trkpt lat="44.46941" lon="1.54623">
        <ele>157.9</ele>
        <time>2021-08-09T07:33:46Z</time>
      </trkpt>
      <trkpt lat="44.46943" lon="1.54625">
        <ele>158.3</ele>
        <time>2021-08-09T07:33:48Z</time>
      </trkpt>
      <trkpt lat="44.46945" lon="1.54626">
        <ele>158.6</ele>
        <time>2021-08-09T07:33:49Z</time>
      </trkpt>
      <trkpt lat="44.46947" lon="1.54626">
        <ele>158.8</ele>
        <time>2021-08-09T07:33:50Z</time>
      </trkpt>
      <trkpt lat="44.46951" lon="1.54628">
        <ele>159.3</ele>
        <time>2021-08-09T07:33:52Z</time>
      </trkpt>
      <trkpt lat="44.46955" lon="1.54629">
        <ele>159.9</ele>
        <time>2021-08-09T07:33:54Z</time>
      </trkpt>
      <trkpt lat="44.46957" lon="1.54629">
        <ele>160.2</ele>
        <time>2021-08-09T07:33:55Z</time>
      </trkpt>
      <trkpt lat="44.46958" lon="1.5463">
        <ele>160.4</ele>
        <time>2021-08-09T07:33:56Z</time>
      </trkpt>
      <trkpt lat="44.4696" lon="1.54631">
        <ele>160.7</ele>
        <time>2021-08-09T07:33:57Z</time>
      </trkpt>
      <trkpt lat="44.46962" lon="1.54631">
        <ele>161</ele>
        <time>2021-08-09T07:33:58Z</time>
      </trkpt>
      <trkpt lat="44.46964" lon="1.54631">
        <ele>161.4</ele>
        <time>2021-08-09T07:34:00Z</time>
      </trkpt>
      <trkpt lat="44.46967" lon="1.54631">
        <ele>161.7</ele>
        <time>2021-08-09T07:34:02Z</time>
      </trkpt>
      <trkpt lat="44.4697" lon="1.54632">
        <ele>162.1</ele>
        <time>2021-08-09T07:34:04Z</time>
      </trkpt>
      <trkpt lat="44.46972" lon="1.54632">
        <ele>162.4</ele>
        <time>2021-08-09T07:34:05Z</time>
      </trkpt>
      <trkpt lat="44.46974" lon="1.54632">
        <ele>162.6</ele>
        <time>2021-08-09T07:34:06Z</time>
      </trkpt>
      <trkpt lat="44.46979" lon="1.54633">
        <ele>163.2</ele>
        <time>2021-08-09T07:34:08Z</time>
      </trkpt>
      <trkpt lat="44.4698" lon="1.54633">
        <ele>163.4</ele>
        <time>2021-08-09T07:34:10Z</time>
      </trkpt>
      <trkpt lat="44.46982" lon="1.54633">
        <ele>163.6</ele>
        <time>2021-08-09T07:34:11Z</time>
      </trkpt>
      <trkpt lat="44.46984" lon="1.54633">
        <ele>163.9</ele>
        <time>2021-08-09T07:34:12Z</time>
      </trkpt>
      <trkpt lat="44.46988" lon="1.54633">
        <ele>164.3</ele>
        <time>2021-08-09T07:34:14Z</time>
      </trkpt>
      <trkpt lat="44.46991" lon="1.54633">
        <ele>164.7</ele>
        <time>2021-08-09T07:34:15Z</time>
      </trkpt>
      <trkpt lat="44.46992" lon="1.54633">
        <ele>164.8</ele>
        <time>2021-08-09T07:34:16Z</time>
      </trkpt>
      <trkpt lat="44.46996" lon="1.54633">
        <ele>165.3</ele>
        <time>2021-08-09T07:34:18Z</time>
      </trkpt>
      <trkpt lat="44.46998" lon="1.54633">
        <ele>165.5</ele>
        <time>2021-08-09T07:34:19Z</time>
      </trkpt>
      <trkpt lat="44.46999" lon="1.54633">
        <ele>165.7</ele>
        <time>2021-08-09T07:34:20Z</time>
      </trkpt>
      <trkpt lat="44.47001" lon="1.54633">
        <ele>165.9</ele>
        <time>2021-08-09T07:34:21Z</time>
      </trkpt>
      <trkpt lat="44.47004" lon="1.54632">
        <ele>166.3</ele>
        <time>2021-08-09T07:34:23Z</time>
      </trkpt>
      <trkpt lat="44.47006" lon="1.54632">
        <ele>166.5</ele>
        <time>2021-08-09T07:34:24Z</time>
      </trkpt>
      <trkpt lat="44.4701" lon="1.5463">
        <ele>167</ele>
        <time>2021-08-09T07:34:26Z</time>
      </trkpt>
      <trkpt lat="44.47014" lon="1.54629">
        <ele>167.4</ele>
        <time>2021-08-09T07:34:27Z</time>
      </trkpt>
      <trkpt lat="44.47018" lon="1.54628">
        <ele>167.9</ele>
        <time>2021-08-09T07:34:29Z</time>
      </trkpt>
      <trkpt lat="44.47022" lon="1.54627">
        <ele>168.3</ele>
        <time>2021-08-09T07:34:30Z</time>
      </trkpt>
      <trkpt lat="44.47023" lon="1.54626">
        <ele>168.4</ele>
        <time>2021-08-09T07:34:31Z</time>
      </trkpt>
      <trkpt lat="44.47026" lon="1.54626">
        <ele>168.8</ele>
        <time>2021-08-09T07:34:32Z</time>
      </trkpt>
      <trkpt lat="44.47027" lon="1.54625">
        <ele>168.9</ele>
        <time>2021-08-09T07:34:33Z</time>
      </trkpt>
      <trkpt lat="44.47031" lon="1.54625">
        <ele>169.3</ele>
        <time>2021-08-09T07:34:35Z</time>
      </trkpt>
      <trkpt lat="44.47035" lon="1.54624">
        <ele>169.8</ele>
        <time>2021-08-09T07:34:36Z</time>
      </trkpt>
      <trkpt lat="44.47036" lon="1.54624">
        <ele>169.9</ele>
        <time>2021-08-09T07:34:37Z</time>
      </trkpt>
      <trkpt lat="44.47038" lon="1.54624">
        <ele>170.1</ele>
        <time>2021-08-09T07:34:38Z</time>
      </trkpt>
      <trkpt lat="44.47043" lon="1.54622">
        <ele>170.6</ele>
        <time>2021-08-09T07:34:40Z</time>
      </trkpt>
      <trkpt lat="44.47045" lon="1.54621">
        <ele>170.8</ele>
        <time>2021-08-09T07:34:41Z</time>
      </trkpt>
      <trkpt lat="44.47049" lon="1.54622">
        <ele>171.3</ele>
        <time>2021-08-09T07:34:43Z</time>
      </trkpt>
      <trkpt lat="44.47052" lon="1.54622">
        <ele>171.5</ele>
        <time>2021-08-09T07:34:44Z</time>
      </trkpt>
      <trkpt lat="44.47055" lon="1.54621">
        <ele>171.9</ele>
        <time>2021-08-09T07:34:46Z</time>
      </trkpt>
      <trkpt lat="44.47058" lon="1.54619">
        <ele>172.1</ele>
        <time>2021-08-09T07:34:47Z</time>
      </trkpt>
      <trkpt lat="44.47062" lon="1.54618">
        <ele>172.6</ele>
        <time>2021-08-09T07:34:49Z</time>
      </trkpt>
      <trkpt lat="44.47064" lon="1.54618">
        <ele>172.8</ele>
        <time>2021-08-09T07:34:50Z</time>
      </trkpt>
      <trkpt lat="44.47068" lon="1.54616">
        <ele>173.2</ele>
        <time>2021-08-09T07:34:52Z</time>
      </trkpt>
      <trkpt lat="44.4707" lon="1.54615">
        <ele>173.3</ele>
        <time>2021-08-09T07:34:53Z</time>
      </trkpt>
      <trkpt lat="44.47073" lon="1.54614">
        <ele>173.7</ele>
        <time>2021-08-09T07:34:55Z</time>
      </trkpt>
      <trkpt lat="44.47076" lon="1.54613">
        <ele>173.9</ele>
        <time>2021-08-09T07:34:56Z</time>
      </trkpt>
      <trkpt lat="44.47079" lon="1.54611">
        <ele>174.2</ele>
        <time>2021-08-09T07:34:58Z</time>
      </trkpt>
      <trkpt lat="44.47081" lon="1.5461">
        <ele>174.4</ele>
        <time>2021-08-09T07:34:59Z</time>
      </trkpt>
      <trkpt lat="44.47084" lon="1.54609">
        <ele>174.6</ele>
        <time>2021-08-09T07:35:01Z</time>
      </trkpt>
      <trkpt lat="44.47085" lon="1.54609">
        <ele>174.8</ele>
        <time>2021-08-09T07:35:02Z</time>
      </trkpt>
      <trkpt lat="44.47088" lon="1.54608">
        <ele>175</ele>
        <time>2021-08-09T07:35:04Z</time>
      </trkpt>
      <trkpt lat="44.47092" lon="1.54607">
        <ele>175.3</ele>
        <time>2021-08-09T07:35:05Z</time>
      </trkpt>
      <trkpt lat="44.47093" lon="1.54607">
        <ele>175.5</ele>
        <time>2021-08-09T07:35:06Z</time>
      </trkpt>
      <trkpt lat="44.47097" lon="1.54606">
        <ele>175.8</ele>
        <time>2021-08-09T07:35:08Z</time>
      </trkpt>
      <trkpt lat="44.47099" lon="1.54606">
        <ele>175.9</ele>
        <time>2021-08-09T07:35:09Z</time>
      </trkpt>
      <trkpt lat="44.47101" lon="1.54605">
        <ele>176.1</ele>
        <time>2021-08-09T07:35:10Z</time>
      </trkpt>
      <trkpt lat="44.47104" lon="1.54604">
        <ele>176.4</ele>
        <time>2021-08-09T07:35:12Z</time>
      </trkpt>
      <trkpt lat="44.47107" lon="1.54604">
        <ele>176.6</ele>
        <time>2021-08-09T07:35:13Z</time>
      </trkpt>
      <trkpt lat="44.47111" lon="1.54603">
        <ele>176.9</ele>
        <time>2021-08-09T07:35:15Z</time>
      </trkpt>
      <trkpt lat="44.47114" lon="1.54603">
        <ele>177.1</ele>
        <time>2021-08-09T07:35:16Z</time>
      </trkpt>
      <trkpt lat="44.47119" lon="1.54602">
        <ele>177.6</ele>
        <time>2021-08-09T07:35:18Z</time>
      </trkpt>
      <trkpt lat="44.47123" lon="1.54602">
        <ele>177.9</ele>
        <time>2021-08-09T07:35:19Z</time>
      </trkpt>
      <trkpt lat="44.47126" lon="1.54601">
        <ele>178.1</ele>
        <time>2021-08-09T07:35:21Z</time>
      </trkpt>
      <trkpt lat="44.4713" lon="1.54601">
        <ele>178.5</ele>
        <time>2021-08-09T07:35:22Z</time>
      </trkpt>
      <trkpt lat="44.47134" lon="1.54601">
        <ele>178.9</ele>
        <time>2021-08-09T07:35:24Z</time>
      </trkpt>
      <trkpt lat="44.47138" lon="1.54601">
        <ele>179.2</ele>
        <time>2021-08-09T07:35:25Z</time>
      </trkpt>
      <trkpt lat="44.47142" lon="1.546">
        <ele>179.6</ele>
        <time>2021-08-09T07:35:26Z</time>
      </trkpt>
      <trkpt lat="44.47146" lon="1.54599">
        <ele>180</ele>
        <time>2021-08-09T07:35:28Z</time>
      </trkpt>
      <trkpt lat="44.47148" lon="1.54598">
        <ele>180.1</ele>
        <time>2021-08-09T07:35:29Z</time>
      </trkpt>
      <trkpt lat="44.47151" lon="1.54598">
        <ele>180.5</ele>
        <time>2021-08-09T07:35:30Z</time>
      </trkpt>
      <trkpt lat="44.47152" lon="1.54598">
        <ele>180.6</ele>
        <time>2021-08-09T07:35:31Z</time>
      </trkpt>
      <trkpt lat="44.47155" lon="1.54597">
        <ele>180.8</ele>
        <time>2021-08-09T07:35:32Z</time>
      </trkpt>
      <trkpt lat="44.47159" lon="1.54596">
        <ele>181.1</ele>
        <time>2021-08-09T07:35:34Z</time>
      </trkpt>
      <trkpt lat="44.47162" lon="1.54595">
        <ele>181.4</ele>
        <time>2021-08-09T07:35:35Z</time>
      </trkpt>
      <trkpt lat="44.47164" lon="1.54595">
        <ele>181.6</ele>
        <time>2021-08-09T07:35:36Z</time>
      </trkpt>
      <trkpt lat="44.47169" lon="1.54596">
        <ele>182</ele>
        <time>2021-08-09T07:35:38Z</time>
      </trkpt>
      <trkpt lat="44.47172" lon="1.54595">
        <ele>182.2</ele>
        <time>2021-08-09T07:35:39Z</time>
      </trkpt>
      <trkpt lat="44.47176" lon="1.54594">
        <ele>182.4</ele>
        <time>2021-08-09T07:35:41Z</time>
      </trkpt>
      <trkpt lat="44.47179" lon="1.54594">
        <ele>182.6</ele>
        <time>2021-08-09T07:35:42Z</time>
      </trkpt>
      <trkpt lat="44.47183" lon="1.54594">
        <ele>182.9</ele>
        <time>2021-08-09T07:35:44Z</time>
      </trkpt>
      <trkpt lat="44.47186" lon="1.54593">
        <ele>183.1</ele>
        <time>2021-08-09T07:35:45Z</time>
      </trkpt>
      <trkpt lat="44.47188" lon="1.54593">
        <ele>183.2</ele>
        <time>2021-08-09T07:35:46Z</time>
      </trkpt>
      <trkpt lat="44.47192" lon="1.54592">
        <ele>183.5</ele>
        <time>2021-08-09T07:35:47Z</time>
      </trkpt>
      <trkpt lat="44.47195" lon="1.54591">
        <ele>183.7</ele>
        <time>2021-08-09T07:35:48Z</time>
      </trkpt>
      <trkpt lat="44.472" lon="1.54589">
        <ele>184</ele>
        <time>2021-08-09T07:35:50Z</time>
      </trkpt>
      <trkpt lat="44.47203" lon="1.54588">
        <ele>184.2</ele>
        <time>2021-08-09T07:35:51Z</time>
      </trkpt>
      <trkpt lat="44.47206" lon="1.54587">
        <ele>184.5</ele>
        <time>2021-08-09T07:35:53Z</time>
      </trkpt>
      <trkpt lat="44.47207" lon="1.54587">
        <ele>184.6</ele>
        <time>2021-08-09T07:35:54Z</time>
      </trkpt>
      <trkpt lat="44.47211" lon="1.54586">
        <ele>184.8</ele>
        <time>2021-08-09T07:35:55Z</time>
      </trkpt>
      <trkpt lat="44.47212" lon="1.54585">
        <ele>184.9</ele>
        <time>2021-08-09T07:35:56Z</time>
      </trkpt>
      <trkpt lat="44.47216" lon="1.54584">
        <ele>185.3</ele>
        <time>2021-08-09T07:35:58Z</time>
      </trkpt>
      <trkpt lat="44.47221" lon="1.54583">
        <ele>185.6</ele>
        <time>2021-08-09T07:36:00Z</time>
      </trkpt>
      <trkpt lat="44.47222" lon="1.54582">
        <ele>185.8</ele>
        <time>2021-08-09T07:36:01Z</time>
      </trkpt>
      <trkpt lat="44.47224" lon="1.54581">
        <ele>185.9</ele>
        <time>2021-08-09T07:36:02Z</time>
      </trkpt>
      <trkpt lat="44.47225" lon="1.5458">
        <ele>186</ele>
        <time>2021-08-09T07:36:03Z</time>
      </trkpt>
      <trkpt lat="44.47226" lon="1.5458">
        <ele>186.1</ele>
        <time>2021-08-09T07:36:05Z</time>
      </trkpt>
      <trkpt lat="44.47227" lon="1.54579">
        <ele>186.2</ele>
        <time>2021-08-09T07:36:07Z</time>
      </trkpt>
      <trkpt lat="44.47226" lon="1.54579">
        <ele>186.2</ele>
        <time>2021-08-09T07:36:08Z</time>
      </trkpt>
      <trkpt lat="44.47226" lon="1.54579">
        <ele>186.2</ele>
        <time>2021-08-09T07:36:09Z</time>
      </trkpt>
      <trkpt lat="44.47226" lon="1.54579">
        <ele>186.2</ele>
        <time>2021-08-09T07:36:11Z</time>
      </trkpt>
      <trkpt lat="44.47226" lon="1.54578">
        <ele>186.2</ele>
        <time>2021-08-09T07:36:12Z</time>
      </trkpt>
      <trkpt lat="44.47226" lon="1.54578">
        <ele>186.2</ele>
        <time>2021-08-09T07:36:14Z</time>
      </trkpt>
      <trkpt lat="44.47226" lon="1.54572">
        <ele>186.6</ele>
        <time>2021-08-09T07:37:13Z</time>
      </trkpt>
      <trkpt lat="44.47225" lon="1.54568">
        <ele>186.5</ele>
        <time>2021-08-09T07:37:14Z</time>
      </trkpt>
      <trkpt lat="44.47224" lon="1.54563">
        <ele>186.5</ele>
        <time>2021-08-09T07:37:16Z</time>
      </trkpt>
      <trkpt lat="44.47222" lon="1.54558">
        <ele>186.3</ele>
        <time>2021-08-09T07:37:17Z</time>
      </trkpt>
      <trkpt lat="44.47222" lon="1.54557">
        <ele>186.3</ele>
        <time>2021-08-09T07:37:18Z</time>
      </trkpt>
      <trkpt lat="44.4722" lon="1.5455">
        <ele>186.3</ele>
        <time>2021-08-09T07:37:20Z</time>
      </trkpt>
      <trkpt lat="44.47219" lon="1.54542">
        <ele>186</ele>
        <time>2021-08-09T07:37:22Z</time>
      </trkpt>
      <trkpt lat="44.47218" lon="1.54538">
        <ele>186</ele>
        <time>2021-08-09T07:37:23Z</time>
      </trkpt>
      <trkpt lat="44.47217" lon="1.54537">
        <ele>185.9</ele>
        <time>2021-08-09T07:37:24Z</time>
      </trkpt>
      <trkpt lat="44.47216" lon="1.54532">
        <ele>185.6</ele>
        <time>2021-08-09T07:37:26Z</time>
      </trkpt>
      <trkpt lat="44.47216" lon="1.54529">
        <ele>185.6</ele>
        <time>2021-08-09T07:37:28Z</time>
      </trkpt>
      <trkpt lat="44.47216" lon="1.54528">
        <ele>185.5</ele>
        <time>2021-08-09T07:37:30Z</time>
      </trkpt>
      <trkpt lat="44.47216" lon="1.54528">
        <ele>185.5</ele>
        <time>2021-08-09T07:37:32Z</time>
      </trkpt>
      <trkpt lat="44.47214" lon="1.54522">
        <ele>185.5</ele>
        <time>2021-08-09T07:37:34Z</time>
      </trkpt>
      <trkpt lat="44.47213" lon="1.54518">
        <ele>185.1</ele>
        <time>2021-08-09T07:37:35Z</time>
      </trkpt>
      <trkpt lat="44.47211" lon="1.54511">
        <ele>185.2</ele>
        <time>2021-08-09T07:37:37Z</time>
      </trkpt>
      <trkpt lat="44.4721" lon="1.54506">
        <ele>184.9</ele>
        <time>2021-08-09T07:37:38Z</time>
      </trkpt>
      <trkpt lat="44.47205" lon="1.54498">
        <ele>184.8</ele>
        <time>2021-08-09T07:37:40Z</time>
      </trkpt>
      <trkpt lat="44.47198" lon="1.54488">
        <ele>184.4</ele>
        <time>2021-08-09T07:37:42Z</time>
      </trkpt>
      <trkpt lat="44.4719" lon="1.54475">
        <ele>183.8</ele>
        <time>2021-08-09T07:37:44Z</time>
      </trkpt>
      <trkpt lat="44.47181" lon="1.54461">
        <ele>183</ele>
        <time>2021-08-09T07:37:46Z</time>
      </trkpt>
      <trkpt lat="44.47177" lon="1.54456">
        <ele>183</ele>
        <time>2021-08-09T07:37:47Z</time>
      </trkpt>
      <trkpt lat="44.47172" lon="1.54452">
        <ele>182.4</ele>
        <time>2021-08-09T07:37:48Z</time>
      </trkpt>
      <trkpt lat="44.47162" lon="1.54447">
        <ele>181.3</ele>
        <time>2021-08-09T07:37:50Z</time>
      </trkpt>
      <trkpt lat="44.47156" lon="1.54446">
        <ele>180.4</ele>
        <time>2021-08-09T07:37:51Z</time>
      </trkpt>
      <trkpt lat="44.47145" lon="1.5444">
        <ele>179.3</ele>
        <time>2021-08-09T07:37:53Z</time>
      </trkpt>
      <trkpt lat="44.47134" lon="1.54432">
        <ele>178.2</ele>
        <time>2021-08-09T07:37:55Z</time>
      </trkpt>
      <trkpt lat="44.47126" lon="1.54419">
        <ele>177.3</ele>
        <time>2021-08-09T07:37:57Z</time>
      </trkpt>
      <trkpt lat="44.47118" lon="1.54405">
        <ele>176.6</ele>
        <time>2021-08-09T07:37:59Z</time>
      </trkpt>
      <trkpt lat="44.47111" lon="1.54391">
        <ele>175.9</ele>
        <time>2021-08-09T07:38:01Z</time>
      </trkpt>
      <trkpt lat="44.47109" lon="1.54386">
        <ele>175.3</ele>
        <time>2021-08-09T07:38:02Z</time>
      </trkpt>
      <trkpt lat="44.47103" lon="1.54375">
        <ele>175.3</ele>
        <time>2021-08-09T07:38:04Z</time>
      </trkpt>
      <trkpt lat="44.47098" lon="1.54361">
        <ele>174.8</ele>
        <time>2021-08-09T07:38:06Z</time>
      </trkpt>
      <trkpt lat="44.47092" lon="1.54347">
        <ele>174.6</ele>
        <time>2021-08-09T07:38:08Z</time>
      </trkpt>
      <trkpt lat="44.47085" lon="1.54338">
        <ele>173.8</ele>
        <time>2021-08-09T07:38:10Z</time>
      </trkpt>
      <trkpt lat="44.47081" lon="1.54333">
        <ele>172.5</ele>
        <time>2021-08-09T07:38:11Z</time>
      </trkpt>
      <trkpt lat="44.47076" lon="1.54331">
        <ele>171.9</ele>
        <time>2021-08-09T07:38:12Z</time>
      </trkpt>
      <trkpt lat="44.47072" lon="1.54328">
        <ele>170.3</ele>
        <time>2021-08-09T07:38:13Z</time>
      </trkpt>
      <trkpt lat="44.4707" lon="1.54326">
        <ele>170.6</ele>
        <time>2021-08-09T07:38:15Z</time>
      </trkpt>
      <trkpt lat="44.47069" lon="1.54324">
        <ele>169.8</ele>
        <time>2021-08-09T07:38:16Z</time>
      </trkpt>
      <trkpt lat="44.4707" lon="1.54323">
        <ele>170.9</ele>
        <time>2021-08-09T07:38:18Z</time>
      </trkpt>
      <trkpt lat="44.4707" lon="1.54322">
        <ele>170.8</ele>
        <time>2021-08-09T07:38:19Z</time>
      </trkpt>
      <trkpt lat="44.4707" lon="1.54322">
        <ele>170.8</ele>
        <time>2021-08-09T07:38:20Z</time>
      </trkpt>
      <trkpt lat="44.47071" lon="1.54319">
        <ele>170.8</ele>
        <time>2021-08-09T07:38:22Z</time>
      </trkpt>
      <trkpt lat="44.47071" lon="1.54317">
        <ele>171.1</ele>
        <time>2021-08-09T07:38:23Z</time>
      </trkpt>
      <trkpt lat="44.47071" lon="1.54315">
        <ele>171.1</ele>
        <time>2021-08-09T07:38:24Z</time>
      </trkpt>
      <trkpt lat="44.47071" lon="1.54313">
        <ele>171.4</ele>
        <time>2021-08-09T07:38:26Z</time>
      </trkpt>
      <trkpt lat="44.47071" lon="1.54311">
        <ele>171.4</ele>
        <time>2021-08-09T07:38:34Z</time>
      </trkpt>
      <trkpt lat="44.47072" lon="1.54309">
        <ele>171.8</ele>
        <time>2021-08-09T07:38:35Z</time>
      </trkpt>
      <trkpt lat="44.47072" lon="1.54307">
        <ele>171.8</ele>
        <time>2021-08-09T07:38:36Z</time>
      </trkpt>
      <trkpt lat="44.47073" lon="1.54302">
        <ele>173.4</ele>
        <time>2021-08-09T07:38:37Z</time>
      </trkpt>
      <trkpt lat="44.47073" lon="1.54299">
        <ele>173.4</ele>
        <time>2021-08-09T07:38:38Z</time>
      </trkpt>
      <trkpt lat="44.47075" lon="1.54294">
        <ele>173.8</ele>
        <time>2021-08-09T07:38:40Z</time>
      </trkpt>
      <trkpt lat="44.47076" lon="1.5429">
        <ele>175.1</ele>
        <time>2021-08-09T07:38:41Z</time>
      </trkpt>
      <trkpt lat="44.47076" lon="1.54287">
        <ele>175.6</ele>
        <time>2021-08-09T07:38:42Z</time>
      </trkpt>
      <trkpt lat="44.47078" lon="1.54282">
        <ele>176</ele>
        <time>2021-08-09T07:38:44Z</time>
      </trkpt>
      <trkpt lat="44.47078" lon="1.54278">
        <ele>176.5</ele>
        <time>2021-08-09T07:38:45Z</time>
      </trkpt>
      <trkpt lat="44.47079" lon="1.54274">
        <ele>176.9</ele>
        <time>2021-08-09T07:38:47Z</time>
      </trkpt>
      <trkpt lat="44.47079" lon="1.54269">
        <ele>178.5</ele>
        <time>2021-08-09T07:38:48Z</time>
      </trkpt>
      <trkpt lat="44.47079" lon="1.54268">
        <ele>179</ele>
        <time>2021-08-09T07:38:49Z</time>
      </trkpt>
      <trkpt lat="44.47079" lon="1.54265">
        <ele>178</ele>
        <time>2021-08-09T07:38:50Z</time>
      </trkpt>
      <trkpt lat="44.47079" lon="1.5426">
        <ele>179.5</ele>
        <time>2021-08-09T07:38:52Z</time>
      </trkpt>
      <trkpt lat="44.47078" lon="1.54255">
        <ele>179</ele>
        <time>2021-08-09T07:38:53Z</time>
      </trkpt>
      <trkpt lat="44.47078" lon="1.54254">
        <ele>179.5</ele>
        <time>2021-08-09T07:38:54Z</time>
      </trkpt>
      <trkpt lat="44.47077" lon="1.5425">
        <ele>180</ele>
        <time>2021-08-09T07:38:56Z</time>
      </trkpt>
      <trkpt lat="44.47076" lon="1.54248">
        <ele>180</ele>
        <time>2021-08-09T07:38:57Z</time>
      </trkpt>
      <trkpt lat="44.47077" lon="1.54243">
        <ele>180.5</ele>
        <time>2021-08-09T07:38:59Z</time>
      </trkpt>
      <trkpt lat="44.47079" lon="1.54241">
        <ele>182</ele>
        <time>2021-08-09T07:39:00Z</time>
      </trkpt>
      <trkpt lat="44.47079" lon="1.5424">
        <ele>182</ele>
        <time>2021-08-09T07:39:02Z</time>
      </trkpt>
      <trkpt lat="44.4708" lon="1.5424">
        <ele>182</ele>
        <time>2021-08-09T07:39:03Z</time>
      </trkpt>
      <trkpt lat="44.4708" lon="1.5424">
        <ele>181.9</ele>
        <time>2021-08-09T07:39:04Z</time>
      </trkpt>
      <trkpt lat="44.47081" lon="1.54242">
        <ele>181.9</ele>
        <time>2021-08-09T07:39:05Z</time>
      </trkpt>
      <trkpt lat="44.47082" lon="1.54244">
        <ele>181.4</ele>
        <time>2021-08-09T07:39:07Z</time>
      </trkpt>
      <trkpt lat="44.47082" lon="1.54243">
        <ele>181.4</ele>
        <time>2021-08-09T07:39:08Z</time>
      </trkpt>
      <trkpt lat="44.47084" lon="1.54246">
        <ele>182.5</ele>
        <time>2021-08-09T07:39:10Z</time>
      </trkpt>
      <trkpt lat="44.47085" lon="1.54247">
        <ele>181.9</ele>
        <time>2021-08-09T07:39:11Z</time>
      </trkpt>
      <trkpt lat="44.47087" lon="1.54248">
        <ele>183</ele>
        <time>2021-08-09T07:39:12Z</time>
      </trkpt>
      <trkpt lat="44.47088" lon="1.54249">
        <ele>183</ele>
        <time>2021-08-09T07:39:14Z</time>
      </trkpt>
      <trkpt lat="44.47089" lon="1.54249">
        <ele>184</ele>
        <time>2021-08-09T07:39:15Z</time>
      </trkpt>
      <trkpt lat="44.47092" lon="1.54252">
        <ele>184.5</ele>
        <time>2021-08-09T07:39:17Z</time>
      </trkpt>
      <trkpt lat="44.47095" lon="1.54254">
        <ele>185.4</ele>
        <time>2021-08-09T07:39:18Z</time>
      </trkpt>
      <trkpt lat="44.47096" lon="1.54256">
        <ele>184.8</ele>
        <time>2021-08-09T07:39:20Z</time>
      </trkpt>
      <trkpt lat="44.47097" lon="1.54257">
        <ele>184.8</ele>
        <time>2021-08-09T07:39:21Z</time>
      </trkpt>
      <trkpt lat="44.47098" lon="1.54258">
        <ele>185.7</ele>
        <time>2021-08-09T07:39:22Z</time>
      </trkpt>
      <trkpt lat="44.47099" lon="1.54259">
        <ele>185.7</ele>
        <time>2021-08-09T07:39:23Z</time>
      </trkpt>
      <trkpt lat="44.471" lon="1.54259">
        <ele>186</ele>
        <time>2021-08-09T07:39:25Z</time>
      </trkpt>
      <trkpt lat="44.471" lon="1.5426">
        <ele>185.9</ele>
        <time>2021-08-09T07:39:26Z</time>
      </trkpt>
      <trkpt lat="44.47101" lon="1.5426">
        <ele>185.9</ele>
        <time>2021-08-09T07:39:27Z</time>
      </trkpt>
      <trkpt lat="44.47101" lon="1.54261">
        <ele>185.9</ele>
        <time>2021-08-09T07:39:29Z</time>
      </trkpt>
      <trkpt lat="44.47102" lon="1.54261">
        <ele>185.9</ele>
        <time>2021-08-09T07:39:30Z</time>
      </trkpt>
      <trkpt lat="44.47104" lon="1.54264">
        <ele>186.2</ele>
        <time>2021-08-09T07:39:32Z</time>
      </trkpt>
      <trkpt lat="44.47105" lon="1.54265">
        <ele>186.1</ele>
        <time>2021-08-09T07:39:33Z</time>
      </trkpt>
      <trkpt lat="44.47106" lon="1.54266">
        <ele>186.1</ele>
        <time>2021-08-09T07:39:34Z</time>
      </trkpt>
      <trkpt lat="44.47107" lon="1.54267">
        <ele>187</ele>
        <time>2021-08-09T07:39:36Z</time>
      </trkpt>
      <trkpt lat="44.47107" lon="1.54268">
        <ele>186.4</ele>
        <time>2021-08-09T07:39:37Z</time>
      </trkpt>
      <trkpt lat="44.47108" lon="1.54269">
        <ele>186.4</ele>
        <time>2021-08-09T07:39:38Z</time>
      </trkpt>
      <trkpt lat="44.47109" lon="1.5427">
        <ele>186.4</ele>
        <time>2021-08-09T07:39:39Z</time>
      </trkpt>
      <trkpt lat="44.4711" lon="1.54272">
        <ele>187.3</ele>
        <time>2021-08-09T07:39:41Z</time>
      </trkpt>
      <trkpt lat="44.47113" lon="1.54275">
        <ele>187.7</ele>
        <time>2021-08-09T07:39:42Z</time>
      </trkpt>
      <trkpt lat="44.47113" lon="1.54276">
        <ele>187.2</ele>
        <time>2021-08-09T07:39:43Z</time>
      </trkpt>
      <trkpt lat="44.47114" lon="1.54277">
        <ele>187.1</ele>
        <time>2021-08-09T07:39:45Z</time>
      </trkpt>
      <trkpt lat="44.47115" lon="1.54278">
        <ele>187.1</ele>
        <time>2021-08-09T07:39:46Z</time>
      </trkpt>
      <trkpt lat="44.47115" lon="1.54279">
        <ele>187.1</ele>
        <time>2021-08-09T07:39:48Z</time>
      </trkpt>
      <trkpt lat="44.47116" lon="1.5428">
        <ele>188.1</ele>
        <time>2021-08-09T07:39:49Z</time>
      </trkpt>
      <trkpt lat="44.47118" lon="1.54283">
        <ele>187.6</ele>
        <time>2021-08-09T07:39:51Z</time>
      </trkpt>
      <trkpt lat="44.47121" lon="1.54286">
        <ele>188</ele>
        <time>2021-08-09T07:39:52Z</time>
      </trkpt>
      <trkpt lat="44.47123" lon="1.54288">
        <ele>188.9</ele>
        <time>2021-08-09T07:39:53Z</time>
      </trkpt>
      <trkpt lat="44.47124" lon="1.54289">
        <ele>188.9</ele>
        <time>2021-08-09T07:39:55Z</time>
      </trkpt>
      <trkpt lat="44.47124" lon="1.54289">
        <ele>188.4</ele>
        <time>2021-08-09T07:39:56Z</time>
      </trkpt>
      <trkpt lat="44.47125" lon="1.5429">
        <ele>189.2</ele>
        <time>2021-08-09T07:39:58Z</time>
      </trkpt>
      <trkpt lat="44.47126" lon="1.5429">
        <ele>189.2</ele>
        <time>2021-08-09T07:39:59Z</time>
      </trkpt>
      <trkpt lat="44.47126" lon="1.5429">
        <ele>189.2</ele>
        <time>2021-08-09T07:40:00Z</time>
      </trkpt>
      <trkpt lat="44.47127" lon="1.54291">
        <ele>189.2</ele>
        <time>2021-08-09T07:40:02Z</time>
      </trkpt>
      <trkpt lat="44.47137" lon="1.54286">
        <ele>192.3</ele>
        <time>2021-08-09T07:41:10Z</time>
      </trkpt>
      <trkpt lat="44.47137" lon="1.54283">
        <ele>193.8</ele>
        <time>2021-08-09T07:41:11Z</time>
      </trkpt>
      <trkpt lat="44.47137" lon="1.54282">
        <ele>192.8</ele>
        <time>2021-08-09T07:41:12Z</time>
      </trkpt>
      <trkpt lat="44.47137" lon="1.54281">
        <ele>192.8</ele>
        <time>2021-08-09T07:41:13Z</time>
      </trkpt>
      <trkpt lat="44.47137" lon="1.54279">
        <ele>194.3</ele>
        <time>2021-08-09T07:41:14Z</time>
      </trkpt>
      <trkpt lat="44.47137" lon="1.54274">
        <ele>193.8</ele>
        <time>2021-08-09T07:41:16Z</time>
      </trkpt>
      <trkpt lat="44.47137" lon="1.5427">
        <ele>194.3</ele>
        <time>2021-08-09T07:41:17Z</time>
      </trkpt>
      <trkpt lat="44.47136" lon="1.54265">
        <ele>194.8</ele>
        <time>2021-08-09T07:41:18Z</time>
      </trkpt>
      <trkpt lat="44.47136" lon="1.54263">
        <ele>195.4</ele>
        <time>2021-08-09T07:41:20Z</time>
      </trkpt>
      <trkpt lat="44.47136" lon="1.5426">
        <ele>195.3</ele>
        <time>2021-08-09T07:41:21Z</time>
      </trkpt>
      <trkpt lat="44.47135" lon="1.54257">
        <ele>195.9</ele>
        <time>2021-08-09T07:41:22Z</time>
      </trkpt>
      <trkpt lat="44.47136" lon="1.54253">
        <ele>196.4</ele>
        <time>2021-08-09T07:41:24Z</time>
      </trkpt>
      <trkpt lat="44.47136" lon="1.54252">
        <ele>196.4</ele>
        <time>2021-08-09T07:41:25Z</time>
      </trkpt>
      <trkpt lat="44.47136" lon="1.54248">
        <ele>196.9</ele>
        <time>2021-08-09T07:41:27Z</time>
      </trkpt>
      <trkpt lat="44.47136" lon="1.54245">
        <ele>197.4</ele>
        <time>2021-08-09T07:41:28Z</time>
      </trkpt>
      <trkpt lat="44.47135" lon="1.54244">
        <ele>197.3</ele>
        <time>2021-08-09T07:41:29Z</time>
      </trkpt>
      <trkpt lat="44.47135" lon="1.54241">
        <ele>197.8</ele>
        <time>2021-08-09T07:41:30Z</time>
      </trkpt>
      <trkpt lat="44.47134" lon="1.54238">
        <ele>198.2</ele>
        <time>2021-08-09T07:41:32Z</time>
      </trkpt>
      <trkpt lat="44.47134" lon="1.54235">
        <ele>198.2</ele>
        <time>2021-08-09T07:41:33Z</time>
      </trkpt>
      <trkpt lat="44.47133" lon="1.5423">
        <ele>197.8</ele>
        <time>2021-08-09T07:41:35Z</time>
      </trkpt>
      <trkpt lat="44.47132" lon="1.54226">
        <ele>198.2</ele>
        <time>2021-08-09T07:41:36Z</time>
      </trkpt>
      <trkpt lat="44.47132" lon="1.54225">
        <ele>198.6</ele>
        <time>2021-08-09T07:41:37Z</time>
      </trkpt>
      <trkpt lat="44.47131" lon="1.5422">
        <ele>199</ele>
        <time>2021-08-09T07:41:39Z</time>
      </trkpt>
      <trkpt lat="44.47131" lon="1.54218">
        <ele>199</ele>
        <time>2021-08-09T07:41:40Z</time>
      </trkpt>
      <trkpt lat="44.47129" lon="1.54212">
        <ele>198.7</ele>
        <time>2021-08-09T07:41:42Z</time>
      </trkpt>
      <trkpt lat="44.47128" lon="1.54209">
        <ele>199</ele>
        <time>2021-08-09T07:41:43Z</time>
      </trkpt>
      <trkpt lat="44.47127" lon="1.54205">
        <ele>198.6</ele>
        <time>2021-08-09T07:41:45Z</time>
      </trkpt>
      <trkpt lat="44.47126" lon="1.542">
        <ele>198.9</ele>
        <time>2021-08-09T07:41:47Z</time>
      </trkpt>
      <trkpt lat="44.47123" lon="1.54195">
        <ele>198.3</ele>
        <time>2021-08-09T07:41:49Z</time>
      </trkpt>
      <trkpt lat="44.47123" lon="1.54193">
        <ele>198.6</ele>
        <time>2021-08-09T07:41:50Z</time>
      </trkpt>
      <trkpt lat="44.47122" lon="1.54192">
        <ele>198.5</ele>
        <time>2021-08-09T07:41:51Z</time>
      </trkpt>
      <trkpt lat="44.47121" lon="1.54188">
        <ele>197.9</ele>
        <time>2021-08-09T07:41:52Z</time>
      </trkpt>
      <trkpt lat="44.47121" lon="1.54186">
        <ele>198.1</ele>
        <time>2021-08-09T07:41:53Z</time>
      </trkpt>
      <trkpt lat="44.47121" lon="1.54182">
        <ele>198.1</ele>
        <time>2021-08-09T07:41:55Z</time>
      </trkpt>
      <trkpt lat="44.47121" lon="1.54178">
        <ele>198.3</ele>
        <time>2021-08-09T07:41:56Z</time>
      </trkpt>
      <trkpt lat="44.4712" lon="1.54177">
        <ele>198.5</ele>
        <time>2021-08-09T07:41:57Z</time>
      </trkpt>
      <trkpt lat="44.4712" lon="1.54173">
        <ele>198.6</ele>
        <time>2021-08-09T07:41:58Z</time>
      </trkpt>
      <trkpt lat="44.47119" lon="1.5417">
        <ele>198.6</ele>
        <time>2021-08-09T07:42:00Z</time>
      </trkpt>
      <trkpt lat="44.47119" lon="1.54166">
        <ele>198.8</ele>
        <time>2021-08-09T07:42:01Z</time>
      </trkpt>
      <trkpt lat="44.47119" lon="1.54164">
        <ele>198.9</ele>
        <time>2021-08-09T07:42:02Z</time>
      </trkpt>
      <trkpt lat="44.47118" lon="1.54159">
        <ele>198.3</ele>
        <time>2021-08-09T07:42:04Z</time>
      </trkpt>
      <trkpt lat="44.47117" lon="1.54156">
        <ele>198.4</ele>
        <time>2021-08-09T07:42:05Z</time>
      </trkpt>
      <trkpt lat="44.47116" lon="1.54151">
        <ele>198.6</ele>
        <time>2021-08-09T07:42:06Z</time>
      </trkpt>
      <trkpt lat="44.47115" lon="1.54146">
        <ele>197.9</ele>
        <time>2021-08-09T07:42:08Z</time>
      </trkpt>
      <trkpt lat="44.47112" lon="1.54142">
        <ele>198</ele>
        <time>2021-08-09T07:42:09Z</time>
      </trkpt>
      <trkpt lat="44.47111" lon="1.5414">
        <ele>197.2</ele>
        <time>2021-08-09T07:42:10Z</time>
      </trkpt>
      <trkpt lat="44.4711" lon="1.54134">
        <ele>197.5</ele>
        <time>2021-08-09T07:42:12Z</time>
      </trkpt>
      <trkpt lat="44.47109" lon="1.54132">
        <ele>196.6</ele>
        <time>2021-08-09T07:42:13Z</time>
      </trkpt>
      <trkpt lat="44.47109" lon="1.5413">
        <ele>196.7</ele>
        <time>2021-08-09T07:42:14Z</time>
      </trkpt>
      <trkpt lat="44.47109" lon="1.54125">
        <ele>196.9</ele>
        <time>2021-08-09T07:42:15Z</time>
      </trkpt>
      <trkpt lat="44.47109" lon="1.5412">
        <ele>197</ele>
        <time>2021-08-09T07:42:17Z</time>
      </trkpt>
      <trkpt lat="44.47109" lon="1.54116">
        <ele>197.1</ele>
        <time>2021-08-09T07:42:18Z</time>
      </trkpt>
      <trkpt lat="44.4711" lon="1.54111">
        <ele>198.1</ele>
        <time>2021-08-09T07:42:19Z</time>
      </trkpt>
      <trkpt lat="44.4711" lon="1.54109">
        <ele>198.1</ele>
        <time>2021-08-09T07:42:20Z</time>
      </trkpt>
      <trkpt lat="44.4711" lon="1.54104">
        <ele>198.2</ele>
        <time>2021-08-09T07:42:22Z</time>
      </trkpt>
      <trkpt lat="44.47109" lon="1.54103">
        <ele>197.3</ele>
        <time>2021-08-09T07:42:23Z</time>
      </trkpt>
      <trkpt lat="44.47109" lon="1.541">
        <ele>197.3</ele>
        <time>2021-08-09T07:42:24Z</time>
      </trkpt>
      <trkpt lat="44.47109" lon="1.54097">
        <ele>197.3</ele>
        <time>2021-08-09T07:42:26Z</time>
      </trkpt>
      <trkpt lat="44.4711" lon="1.54093">
        <ele>198.2</ele>
        <time>2021-08-09T07:42:27Z</time>
      </trkpt>
      <trkpt lat="44.4711" lon="1.54087">
        <ele>198.2</ele>
        <time>2021-08-09T07:42:28Z</time>
      </trkpt>
      <trkpt lat="44.47111" lon="1.54082">
        <ele>198.1</ele>
        <time>2021-08-09T07:42:30Z</time>
      </trkpt>
      <trkpt lat="44.47111" lon="1.54077">
        <ele>198.1</ele>
        <time>2021-08-09T07:42:31Z</time>
      </trkpt>
      <trkpt lat="44.47112" lon="1.54073">
        <ele>198.1</ele>
        <time>2021-08-09T07:42:32Z</time>
      </trkpt>
      <trkpt lat="44.47112" lon="1.54068">
        <ele>198.1</ele>
        <time>2021-08-09T07:42:33Z</time>
      </trkpt>
      <trkpt lat="44.47112" lon="1.54064">
        <ele>198.9</ele>
        <time>2021-08-09T07:42:34Z</time>
      </trkpt>
      <trkpt lat="44.47113" lon="1.54059">
        <ele>198.9</ele>
        <time>2021-08-09T07:42:36Z</time>
      </trkpt>
      <trkpt lat="44.47114" lon="1.54053">
        <ele>198.9</ele>
        <time>2021-08-09T07:42:38Z</time>
      </trkpt>
      <trkpt lat="44.47115" lon="1.54047">
        <ele>199</ele>
        <time>2021-08-09T07:42:39Z</time>
      </trkpt>
      <trkpt lat="44.47115" lon="1.54045">
        <ele>198.9</ele>
        <time>2021-08-09T07:42:40Z</time>
      </trkpt>
      <trkpt lat="44.47116" lon="1.54039">
        <ele>199.7</ele>
        <time>2021-08-09T07:42:42Z</time>
      </trkpt>
      <trkpt lat="44.47116" lon="1.54035">
        <ele>199.6</ele>
        <time>2021-08-09T07:42:43Z</time>
      </trkpt>
      <trkpt lat="44.47117" lon="1.54032">
        <ele>199.6</ele>
        <time>2021-08-09T07:42:44Z</time>
      </trkpt>
      <trkpt lat="44.47119" lon="1.54028">
        <ele>200.2</ele>
        <time>2021-08-09T07:42:46Z</time>
      </trkpt>
      <trkpt lat="44.4712" lon="1.54024">
        <ele>200.1</ele>
        <time>2021-08-09T07:42:47Z</time>
      </trkpt>
      <trkpt lat="44.4712" lon="1.54023">
        <ele>200</ele>
        <time>2021-08-09T07:42:48Z</time>
      </trkpt>
      <trkpt lat="44.47121" lon="1.54019">
        <ele>199.9</ele>
        <time>2021-08-09T07:42:49Z</time>
      </trkpt>
      <trkpt lat="44.47122" lon="1.54017">
        <ele>200.4</ele>
        <time>2021-08-09T07:42:50Z</time>
      </trkpt>
      <trkpt lat="44.47123" lon="1.54013">
        <ele>200.3</ele>
        <time>2021-08-09T07:42:52Z</time>
      </trkpt>
      <trkpt lat="44.47123" lon="1.54012">
        <ele>200.3</ele>
        <time>2021-08-09T07:42:53Z</time>
      </trkpt>
      <trkpt lat="44.47124" lon="1.5401">
        <ele>200.1</ele>
        <time>2021-08-09T07:42:54Z</time>
      </trkpt>
      <trkpt lat="44.47125" lon="1.54009">
        <ele>200.5</ele>
        <time>2021-08-09T07:42:55Z</time>
      </trkpt>
      <trkpt lat="44.47128" lon="1.54003">
        <ele>200.7</ele>
        <time>2021-08-09T07:42:57Z</time>
      </trkpt>
      <trkpt lat="44.47129" lon="1.54002">
        <ele>200.5</ele>
        <time>2021-08-09T07:42:58Z</time>
      </trkpt>
      <trkpt lat="44.4713" lon="1.54">
        <ele>200.5</ele>
        <time>2021-08-09T07:43:00Z</time>
      </trkpt>
      <trkpt lat="44.47131" lon="1.53998">
        <ele>200.5</ele>
        <time>2021-08-09T07:43:01Z</time>
      </trkpt>
      <trkpt lat="44.47132" lon="1.53996">
        <ele>200.6</ele>
        <time>2021-08-09T07:43:02Z</time>
      </trkpt>
      <trkpt lat="44.47133" lon="1.53992">
        <ele>200.3</ele>
        <time>2021-08-09T07:43:04Z</time>
      </trkpt>
      <trkpt lat="44.47134" lon="1.53988">
        <ele>200.5</ele>
        <time>2021-08-09T07:43:05Z</time>
      </trkpt>
      <trkpt lat="44.47136" lon="1.53983">
        <ele>200.3</ele>
        <time>2021-08-09T07:43:06Z</time>
      </trkpt>
      <trkpt lat="44.47136" lon="1.53981">
        <ele>200.2</ele>
        <time>2021-08-09T07:43:07Z</time>
      </trkpt>
      <trkpt lat="44.47138" lon="1.53978">
        <ele>200.4</ele>
        <time>2021-08-09T07:43:08Z</time>
      </trkpt>
      <trkpt lat="44.47139" lon="1.53975">
        <ele>200.2</ele>
        <time>2021-08-09T07:43:10Z</time>
      </trkpt>
      <trkpt lat="44.4714" lon="1.53974">
        <ele>200.6</ele>
        <time>2021-08-09T07:43:11Z</time>
      </trkpt>
      <trkpt lat="44.47142" lon="1.5397">
        <ele>200.4</ele>
        <time>2021-08-09T07:43:13Z</time>
      </trkpt>
      <trkpt lat="44.47143" lon="1.5397">
        <ele>200.4</ele>
        <time>2021-08-09T07:43:14Z</time>
      </trkpt>
      <trkpt lat="44.47144" lon="1.53967">
        <ele>200.6</ele>
        <time>2021-08-09T07:43:16Z</time>
      </trkpt>
      <trkpt lat="44.47146" lon="1.53964">
        <ele>200.5</ele>
        <time>2021-08-09T07:43:17Z</time>
      </trkpt>
      <trkpt lat="44.47148" lon="1.53961">
        <ele>200.6</ele>
        <time>2021-08-09T07:43:19Z</time>
      </trkpt>
      <trkpt lat="44.4715" lon="1.53957">
        <ele>200.7</ele>
        <time>2021-08-09T07:43:20Z</time>
      </trkpt>
      <trkpt lat="44.4715" lon="1.53955">
        <ele>200.4</ele>
        <time>2021-08-09T07:43:21Z</time>
      </trkpt>
      <trkpt lat="44.47151" lon="1.53951">
        <ele>200.3</ele>
        <time>2021-08-09T07:43:23Z</time>
      </trkpt>
      <trkpt lat="44.47152" lon="1.53949">
        <ele>200</ele>
        <time>2021-08-09T07:43:24Z</time>
      </trkpt>
      <trkpt lat="44.47153" lon="1.53947">
        <ele>200.2</ele>
        <time>2021-08-09T07:43:25Z</time>
      </trkpt>
      <trkpt lat="44.47155" lon="1.53942">
        <ele>199.9</ele>
        <time>2021-08-09T07:43:27Z</time>
      </trkpt>
      <trkpt lat="44.47156" lon="1.53938">
        <ele>199.7</ele>
        <time>2021-08-09T07:43:28Z</time>
      </trkpt>
      <trkpt lat="44.47159" lon="1.53934">
        <ele>199.7</ele>
        <time>2021-08-09T07:43:29Z</time>
      </trkpt>
      <trkpt lat="44.47159" lon="1.53933">
        <ele>199.4</ele>
        <time>2021-08-09T07:43:30Z</time>
      </trkpt>
      <trkpt lat="44.47162" lon="1.53929">
        <ele>199.6</ele>
        <time>2021-08-09T07:43:31Z</time>
      </trkpt>
      <trkpt lat="44.47163" lon="1.53928">
        <ele>199.4</ele>
        <time>2021-08-09T07:43:32Z</time>
      </trkpt>
      <trkpt lat="44.47166" lon="1.53925">
        <ele>199.6</ele>
        <time>2021-08-09T07:43:34Z</time>
      </trkpt>
      <trkpt lat="44.47169" lon="1.53922">
        <ele>199.6</ele>
        <time>2021-08-09T07:43:35Z</time>
      </trkpt>
      <trkpt lat="44.47171" lon="1.53919">
        <ele>199.5</ele>
        <time>2021-08-09T07:43:37Z</time>
      </trkpt>
      <trkpt lat="44.47175" lon="1.53917">
        <ele>199.7</ele>
        <time>2021-08-09T07:43:38Z</time>
      </trkpt>
      <trkpt lat="44.47178" lon="1.53914">
        <ele>199.5</ele>
        <time>2021-08-09T07:43:39Z</time>
      </trkpt>
      <trkpt lat="44.4718" lon="1.53911">
        <ele>199.2</ele>
        <time>2021-08-09T07:43:40Z</time>
      </trkpt>
      <trkpt lat="44.47184" lon="1.53909">
        <ele>199.2</ele>
        <time>2021-08-09T07:43:42Z</time>
      </trkpt>
      <trkpt lat="44.47188" lon="1.53905">
        <ele>198.9</ele>
        <time>2021-08-09T07:43:43Z</time>
      </trkpt>
      <trkpt lat="44.47191" lon="1.53902">
        <ele>198.6</ele>
        <time>2021-08-09T07:43:44Z</time>
      </trkpt>
      <trkpt lat="44.47195" lon="1.53896">
        <ele>198.3</ele>
        <time>2021-08-09T07:43:46Z</time>
      </trkpt>
      <trkpt lat="44.47199" lon="1.53892">
        <ele>198</ele>
        <time>2021-08-09T07:43:47Z</time>
      </trkpt>
      <trkpt lat="44.47203" lon="1.5389">
        <ele>197.7</ele>
        <time>2021-08-09T07:43:48Z</time>
      </trkpt>
      <trkpt lat="44.47206" lon="1.53888">
        <ele>197.7</ele>
        <time>2021-08-09T07:43:49Z</time>
      </trkpt>
      <trkpt lat="44.4721" lon="1.53885">
        <ele>197.4</ele>
        <time>2021-08-09T07:43:50Z</time>
      </trkpt>
      <trkpt lat="44.47214" lon="1.53881">
        <ele>197.1</ele>
        <time>2021-08-09T07:43:51Z</time>
      </trkpt>
      <trkpt lat="44.47225" lon="1.53873">
        <ele>196.4</ele>
        <time>2021-08-09T07:43:53Z</time>
      </trkpt>
      <trkpt lat="44.47235" lon="1.53864">
        <ele>195.6</ele>
        <time>2021-08-09T07:43:55Z</time>
      </trkpt>
      <trkpt lat="44.47246" lon="1.53856">
        <ele>195.5</ele>
        <time>2021-08-09T07:43:57Z</time>
      </trkpt>
      <trkpt lat="44.47252" lon="1.53851">
        <ele>194.7</ele>
        <time>2021-08-09T07:43:58Z</time>
      </trkpt>
      <trkpt lat="44.47259" lon="1.53847">
        <ele>194.5</ele>
        <time>2021-08-09T07:43:59Z</time>
      </trkpt>
      <trkpt lat="44.47269" lon="1.53838">
        <ele>194</ele>
        <time>2021-08-09T07:44:01Z</time>
      </trkpt>
      <trkpt lat="44.47274" lon="1.53833">
        <ele>193.6</ele>
        <time>2021-08-09T07:44:02Z</time>
      </trkpt>
      <trkpt lat="44.47277" lon="1.53829">
        <ele>193.2</ele>
        <time>2021-08-09T07:44:03Z</time>
      </trkpt>
      <trkpt lat="44.47281" lon="1.53825">
        <ele>193.1</ele>
        <time>2021-08-09T07:44:05Z</time>
      </trkpt>
      <trkpt lat="44.47285" lon="1.5382">
        <ele>192.7</ele>
        <time>2021-08-09T07:44:06Z</time>
      </trkpt>
      <trkpt lat="44.47288" lon="1.53811">
        <ele>191.9</ele>
        <time>2021-08-09T07:44:08Z</time>
      </trkpt>
      <trkpt lat="44.4729" lon="1.53805">
        <ele>191.2</ele>
        <time>2021-08-09T07:44:09Z</time>
      </trkpt>
      <trkpt lat="44.47292" lon="1.53799">
        <ele>190.3</ele>
        <time>2021-08-09T07:44:10Z</time>
      </trkpt>
      <trkpt lat="44.47293" lon="1.53791">
        <ele>189.7</ele>
        <time>2021-08-09T07:44:11Z</time>
      </trkpt>
      <trkpt lat="44.47295" lon="1.53786">
        <ele>189.2</ele>
        <time>2021-08-09T07:44:12Z</time>
      </trkpt>
      <trkpt lat="44.47299" lon="1.53774">
        <ele>188</ele>
        <time>2021-08-09T07:44:14Z</time>
      </trkpt>
      <trkpt lat="44.47304" lon="1.53759">
        <ele>187</ele>
        <time>2021-08-09T07:44:16Z</time>
      </trkpt>
      <trkpt lat="44.47307" lon="1.53751">
        <ele>186.3</ele>
        <time>2021-08-09T07:44:17Z</time>
      </trkpt>
      <trkpt lat="44.4731" lon="1.53735">
        <ele>184.8</ele>
        <time>2021-08-09T07:44:19Z</time>
      </trkpt>
      <trkpt lat="44.47311" lon="1.53726">
        <ele>184.2</ele>
        <time>2021-08-09T07:44:20Z</time>
      </trkpt>
      <trkpt lat="44.47314" lon="1.53709">
        <ele>182.9</ele>
        <time>2021-08-09T07:44:22Z</time>
      </trkpt>
      <trkpt lat="44.47315" lon="1.53702">
        <ele>182.8</ele>
        <time>2021-08-09T07:44:23Z</time>
      </trkpt>
      <trkpt lat="44.47315" lon="1.53695">
        <ele>182.3</ele>
        <time>2021-08-09T07:44:24Z</time>
      </trkpt>
      <trkpt lat="44.47312" lon="1.53691">
        <ele>182</ele>
        <time>2021-08-09T07:44:26Z</time>
      </trkpt>
      <trkpt lat="44.47314" lon="1.53684">
        <ele>181.8</ele>
        <time>2021-08-09T07:44:27Z</time>
      </trkpt>
      <trkpt lat="44.47317" lon="1.53679">
        <ele>181.6</ele>
        <time>2021-08-09T07:44:28Z</time>
      </trkpt>
      <trkpt lat="44.47322" lon="1.5367">
        <ele>181.7</ele>
        <time>2021-08-09T07:44:30Z</time>
      </trkpt>
      <trkpt lat="44.47326" lon="1.53664">
        <ele>181.7</ele>
        <time>2021-08-09T07:44:31Z</time>
      </trkpt>
      <trkpt lat="44.4733" lon="1.53661">
        <ele>182</ele>
        <time>2021-08-09T07:44:32Z</time>
      </trkpt>
      <trkpt lat="44.47335" lon="1.5366">
        <ele>182.1</ele>
        <time>2021-08-09T07:44:33Z</time>
      </trkpt>
      <trkpt lat="44.47339" lon="1.53662">
        <ele>182.5</ele>
        <time>2021-08-09T07:44:35Z</time>
      </trkpt>
      <trkpt lat="44.47343" lon="1.53664">
        <ele>182.7</ele>
        <time>2021-08-09T07:44:36Z</time>
      </trkpt>
      <trkpt lat="44.47347" lon="1.53663">
        <ele>182.8</ele>
        <time>2021-08-09T07:44:37Z</time>
      </trkpt>
      <trkpt lat="44.4735" lon="1.5366">
        <ele>182.8</ele>
        <time>2021-08-09T07:44:39Z</time>
      </trkpt>
      <trkpt lat="44.47351" lon="1.53657">
        <ele>182.7</ele>
        <time>2021-08-09T07:44:40Z</time>
      </trkpt>
      <trkpt lat="44.47352" lon="1.53652">
        <ele>182.7</ele>
        <time>2021-08-09T07:44:41Z</time>
      </trkpt>
      <trkpt lat="44.47352" lon="1.53647">
        <ele>182.6</ele>
        <time>2021-08-09T07:44:42Z</time>
      </trkpt>
      <trkpt lat="44.47348" lon="1.53641">
        <ele>182.2</ele>
        <time>2021-08-09T07:44:44Z</time>
      </trkpt>
      <trkpt lat="44.47345" lon="1.53637">
        <ele>182.1</ele>
        <time>2021-08-09T07:44:45Z</time>
      </trkpt>
      <trkpt lat="44.47341" lon="1.53633">
        <ele>182</ele>
        <time>2021-08-09T07:44:46Z</time>
      </trkpt>
      <trkpt lat="44.47338" lon="1.53627">
        <ele>182</ele>
        <time>2021-08-09T07:44:48Z</time>
      </trkpt>
      <trkpt lat="44.47336" lon="1.53622">
        <ele>182</ele>
        <time>2021-08-09T07:44:49Z</time>
      </trkpt>
      <trkpt lat="44.47335" lon="1.53615">
        <ele>182.3</ele>
        <time>2021-08-09T07:44:50Z</time>
      </trkpt>
      <trkpt lat="44.47336" lon="1.53609">
        <ele>182.4</ele>
        <time>2021-08-09T07:44:51Z</time>
      </trkpt>
      <trkpt lat="44.47337" lon="1.53605">
        <ele>182.6</ele>
        <time>2021-08-09T07:44:53Z</time>
      </trkpt>
      <trkpt lat="44.47337" lon="1.53603">
        <ele>182.6</ele>
        <time>2021-08-09T07:44:54Z</time>
      </trkpt>
      <trkpt lat="44.47337" lon="1.53599">
        <ele>182.8</ele>
        <time>2021-08-09T07:44:56Z</time>
      </trkpt>
      <trkpt lat="44.47337" lon="1.53599">
        <ele>182.8</ele>
        <time>2021-08-09T07:44:57Z</time>
      </trkpt>
      <trkpt lat="44.47337" lon="1.53599">
        <ele>182.8</ele>
        <time>2021-08-09T07:44:58Z</time>
      </trkpt>
      <trkpt lat="44.47337" lon="1.53599">
        <ele>182.8</ele>
        <time>2021-08-09T07:45:00Z</time>
      </trkpt>
      <trkpt lat="44.47337" lon="1.53599">
        <ele>182.7</ele>
        <time>2021-08-09T07:45:01Z</time>
      </trkpt>
      <trkpt lat="44.47337" lon="1.53599">
        <ele>182.7</ele>
        <time>2021-08-09T07:45:03Z</time>
      </trkpt>
      <trkpt lat="44.47337" lon="1.53599">
        <ele>182.7</ele>
        <time>2021-08-09T07:45:04Z</time>
      </trkpt>
      <trkpt lat="44.47343" lon="1.53595">
        <ele>182.9</ele>
        <time>2021-08-09T07:45:18Z</time>
      </trkpt>
      <trkpt lat="44.47346" lon="1.53594">
        <ele>182.9</ele>
        <time>2021-08-09T07:45:19Z</time>
      </trkpt>
      <trkpt lat="44.47348" lon="1.53593">
        <ele>183.2</ele>
        <time>2021-08-09T07:45:20Z</time>
      </trkpt>
      <trkpt lat="44.4735" lon="1.53592">
        <ele>183.2</ele>
        <time>2021-08-09T07:45:22Z</time>
      </trkpt>
      <trkpt lat="44.47351" lon="1.5359">
        <ele>183.2</ele>
        <time>2021-08-09T07:45:23Z</time>
      </trkpt>
      <trkpt lat="44.47352" lon="1.53589">
        <ele>183.5</ele>
        <time>2021-08-09T07:45:24Z</time>
      </trkpt>
      <trkpt lat="44.47352" lon="1.53588">
        <ele>183.5</ele>
        <time>2021-08-09T07:45:25Z</time>
      </trkpt>
      <trkpt lat="44.47353" lon="1.53587">
        <ele>183.5</ele>
        <time>2021-08-09T07:45:26Z</time>
      </trkpt>
      <trkpt lat="44.47354" lon="1.53587">
        <ele>183.5</ele>
        <time>2021-08-09T07:45:28Z</time>
      </trkpt>
      <trkpt lat="44.47354" lon="1.53587">
        <ele>183.4</ele>
        <time>2021-08-09T07:45:30Z</time>
      </trkpt>
      <trkpt lat="44.47369" lon="1.53576">
        <ele>185.2</ele>
        <time>2021-08-09T07:45:53Z</time>
      </trkpt>
      <trkpt lat="44.47372" lon="1.53573">
        <ele>185.3</ele>
        <time>2021-08-09T07:45:55Z</time>
      </trkpt>
      <trkpt lat="44.47375" lon="1.5357">
        <ele>185.8</ele>
        <time>2021-08-09T07:45:56Z</time>
      </trkpt>
      <trkpt lat="44.47379" lon="1.53568">
        <ele>186.4</ele>
        <time>2021-08-09T07:45:58Z</time>
      </trkpt>
      <trkpt lat="44.4738" lon="1.53567">
        <ele>186.7</ele>
        <time>2021-08-09T07:45:59Z</time>
      </trkpt>
      <trkpt lat="44.47381" lon="1.53566">
        <ele>186.6</ele>
        <time>2021-08-09T07:46:00Z</time>
      </trkpt>
      <trkpt lat="44.47383" lon="1.53564">
        <ele>186.9</ele>
        <time>2021-08-09T07:46:02Z</time>
      </trkpt>
      <trkpt lat="44.47384" lon="1.53563">
        <ele>187.3</ele>
        <time>2021-08-09T07:46:03Z</time>
      </trkpt>
      <trkpt lat="44.47385" lon="1.53561">
        <ele>187.6</ele>
        <time>2021-08-09T07:46:04Z</time>
      </trkpt>
      <trkpt lat="44.47386" lon="1.5356">
        <ele>187.6</ele>
        <time>2021-08-09T07:46:05Z</time>
      </trkpt>
      <trkpt lat="44.47386" lon="1.53559">
        <ele>188.1</ele>
        <time>2021-08-09T07:46:07Z</time>
      </trkpt>
      <trkpt lat="44.47387" lon="1.53558">
        <ele>188</ele>
        <time>2021-08-09T07:46:08Z</time>
      </trkpt>
      <trkpt lat="44.47387" lon="1.53558">
        <ele>188</ele>
        <time>2021-08-09T07:46:09Z</time>
      </trkpt>
      <trkpt lat="44.47387" lon="1.53558">
        <ele>188</ele>
        <time>2021-08-09T07:46:11Z</time>
      </trkpt>
      <trkpt lat="44.47387" lon="1.53557">
        <ele>188</ele>
        <time>2021-08-09T07:46:12Z</time>
      </trkpt>
      <trkpt lat="44.47387" lon="1.53557">
        <ele>187.9</ele>
        <time>2021-08-09T07:46:13Z</time>
      </trkpt>
      <trkpt lat="44.47388" lon="1.53557">
        <ele>187.9</ele>
        <time>2021-08-09T07:46:14Z</time>
      </trkpt>
      <trkpt lat="44.47398" lon="1.53547">
        <ele>190.3</ele>
        <time>2021-08-09T07:46:30Z</time>
      </trkpt>
      <trkpt lat="44.47403" lon="1.53544">
        <ele>191.5</ele>
        <time>2021-08-09T07:46:32Z</time>
      </trkpt>
      <trkpt lat="44.47407" lon="1.53543">
        <ele>191.8</ele>
        <time>2021-08-09T07:46:34Z</time>
      </trkpt>
      <trkpt lat="44.47411" lon="1.53542">
        <ele>192.7</ele>
        <time>2021-08-09T07:46:35Z</time>
      </trkpt>
      <trkpt lat="44.47413" lon="1.53542">
        <ele>193.1</ele>
        <time>2021-08-09T07:46:36Z</time>
      </trkpt>
      <trkpt lat="44.47416" lon="1.53541">
        <ele>193.5</ele>
        <time>2021-08-09T07:46:37Z</time>
      </trkpt>
      <trkpt lat="44.47417" lon="1.53541">
        <ele>193.5</ele>
        <time>2021-08-09T07:46:39Z</time>
      </trkpt>
      <trkpt lat="44.47419" lon="1.53541">
        <ele>193.5</ele>
        <time>2021-08-09T07:46:40Z</time>
      </trkpt>
      <trkpt lat="44.47421" lon="1.5354">
        <ele>194</ele>
        <time>2021-08-09T07:46:42Z</time>
      </trkpt>
      <trkpt lat="44.47422" lon="1.5354">
        <ele>194.5</ele>
        <time>2021-08-09T07:46:43Z</time>
      </trkpt>
      <trkpt lat="44.47424" lon="1.53539">
        <ele>194.5</ele>
        <time>2021-08-09T07:46:44Z</time>
      </trkpt>
      <trkpt lat="44.47427" lon="1.53537">
        <ele>195.4</ele>
        <time>2021-08-09T07:46:46Z</time>
      </trkpt>
      <trkpt lat="44.47432" lon="1.53534">
        <ele>196.4</ele>
        <time>2021-08-09T07:46:48Z</time>
      </trkpt>
      <trkpt lat="44.47434" lon="1.53533">
        <ele>196.7</ele>
        <time>2021-08-09T07:46:49Z</time>
      </trkpt>
      <trkpt lat="44.47436" lon="1.53531">
        <ele>197.3</ele>
        <time>2021-08-09T07:46:51Z</time>
      </trkpt>
      <trkpt lat="44.47437" lon="1.53531">
        <ele>197.2</ele>
        <time>2021-08-09T07:46:52Z</time>
      </trkpt>
      <trkpt lat="44.47439" lon="1.5353">
        <ele>197.8</ele>
        <time>2021-08-09T07:46:53Z</time>
      </trkpt>
      <trkpt lat="44.4744" lon="1.53529">
        <ele>198.6</ele>
        <time>2021-08-09T07:46:55Z</time>
      </trkpt>
      <trkpt lat="44.4744" lon="1.53529">
        <ele>198.6</ele>
        <time>2021-08-09T07:46:57Z</time>
      </trkpt>
      <trkpt lat="44.47441" lon="1.53529">
        <ele>198.6</ele>
        <time>2021-08-09T07:46:59Z</time>
      </trkpt>
      <trkpt lat="44.47441" lon="1.53528">
        <ele>198.6</ele>
        <time>2021-08-09T07:47:00Z</time>
      </trkpt>
      <trkpt lat="44.47441" lon="1.53528">
        <ele>198.5</ele>
        <time>2021-08-09T07:47:02Z</time>
      </trkpt>
      <trkpt lat="44.47441" lon="1.53527">
        <ele>198.5</ele>
        <time>2021-08-09T07:47:02Z</time>
      </trkpt>
      <trkpt lat="44.47443" lon="1.53524">
        <ele>199.3</ele>
        <time>2021-08-09T07:47:04Z</time>
      </trkpt>
      <trkpt lat="44.47444" lon="1.53522">
        <ele>199.3</ele>
        <time>2021-08-09T07:47:05Z</time>
      </trkpt>
      <trkpt lat="44.47446" lon="1.5352">
        <ele>199.5</ele>
        <time>2021-08-09T07:47:07Z</time>
      </trkpt>
      <trkpt lat="44.47447" lon="1.53518">
        <ele>200</ele>
        <time>2021-08-09T07:47:08Z</time>
      </trkpt>
      <trkpt lat="44.4745" lon="1.53513">
        <ele>200.7</ele>
        <time>2021-08-09T07:47:10Z</time>
      </trkpt>
      <trkpt lat="44.47452" lon="1.53511">
        <ele>200.9</ele>
        <time>2021-08-09T07:47:11Z</time>
      </trkpt>
      <trkpt lat="44.47453" lon="1.53508">
        <ele>201.5</ele>
        <time>2021-08-09T07:47:12Z</time>
      </trkpt>
      <trkpt lat="44.47454" lon="1.53506">
        <ele>201.5</ele>
        <time>2021-08-09T07:47:14Z</time>
      </trkpt>
      <trkpt lat="44.47454" lon="1.53505">
        <ele>201.4</ele>
        <time>2021-08-09T07:47:16Z</time>
      </trkpt>
      <trkpt lat="44.47455" lon="1.53504">
        <ele>201.4</ele>
        <time>2021-08-09T07:47:17Z</time>
      </trkpt>
      <trkpt lat="44.47456" lon="1.53503">
        <ele>202</ele>
        <time>2021-08-09T07:47:18Z</time>
      </trkpt>
      <trkpt lat="44.47456" lon="1.53502">
        <ele>202</ele>
        <time>2021-08-09T07:47:20Z</time>
      </trkpt>
      <trkpt lat="44.47457" lon="1.53501">
        <ele>201.9</ele>
        <time>2021-08-09T07:47:21Z</time>
      </trkpt>
      <trkpt lat="44.47458" lon="1.535">
        <ele>202.2</ele>
        <time>2021-08-09T07:47:22Z</time>
      </trkpt>
      <trkpt lat="44.47458" lon="1.53498">
        <ele>202.1</ele>
        <time>2021-08-09T07:47:24Z</time>
      </trkpt>
      <trkpt lat="44.47459" lon="1.53497">
        <ele>202.4</ele>
        <time>2021-08-09T07:47:25Z</time>
      </trkpt>
      <trkpt lat="44.47459" lon="1.53496">
        <ele>202.4</ele>
        <time>2021-08-09T07:47:26Z</time>
      </trkpt>
      <trkpt lat="44.47459" lon="1.53489">
        <ele>202.9</ele>
        <time>2021-08-09T07:47:28Z</time>
      </trkpt>
      <trkpt lat="44.47458" lon="1.53483">
        <ele>202.8</ele>
        <time>2021-08-09T07:47:29Z</time>
      </trkpt>
      <trkpt lat="44.47457" lon="1.53477">
        <ele>203.3</ele>
        <time>2021-08-09T07:47:30Z</time>
      </trkpt>
      <trkpt lat="44.47456" lon="1.53471">
        <ele>203.5</ele>
        <time>2021-08-09T07:48:00Z</time>
      </trkpt>
      <trkpt lat="44.47455" lon="1.53465">
        <ele>203.7</ele>
        <time>2021-08-09T07:48:02Z</time>
      </trkpt>
      <trkpt lat="44.47454" lon="1.53459">
        <ele>203.9</ele>
        <time>2021-08-09T07:48:04Z</time>
      </trkpt>
      <trkpt lat="44.47453" lon="1.53453">
        <ele>204.2</ele>
        <time>2021-08-09T07:48:05Z</time>
      </trkpt>
      <trkpt lat="44.47453" lon="1.53451">
        <ele>204.4</ele>
        <time>2021-08-09T07:48:06Z</time>
      </trkpt>
      <trkpt lat="44.47452" lon="1.5345">
        <ele>204.4</ele>
        <time>2021-08-09T07:48:08Z</time>
      </trkpt>
      <trkpt lat="44.47452" lon="1.53446">
        <ele>204.4</ele>
        <time>2021-08-09T07:48:10Z</time>
      </trkpt>
      <trkpt lat="44.47451" lon="1.53442">
        <ele>204.6</ele>
        <time>2021-08-09T07:48:11Z</time>
      </trkpt>
      <trkpt lat="44.47451" lon="1.53441">
        <ele>204.6</ele>
        <time>2021-08-09T07:48:12Z</time>
      </trkpt>
      <trkpt lat="44.4745" lon="1.53437">
        <ele>204.8</ele>
        <time>2021-08-09T07:48:14Z</time>
      </trkpt>
      <trkpt lat="44.4745" lon="1.53435">
        <ele>204.8</ele>
        <time>2021-08-09T07:48:16Z</time>
      </trkpt>
      <trkpt lat="44.47449" lon="1.53435">
        <ele>205</ele>
        <time>2021-08-09T07:48:17Z</time>
      </trkpt>
      <trkpt lat="44.47449" lon="1.53433">
        <ele>204.8</ele>
        <time>2021-08-09T07:48:19Z</time>
      </trkpt>
      <trkpt lat="44.47449" lon="1.53433">
        <ele>204.8</ele>
        <time>2021-08-09T07:48:20Z</time>
      </trkpt>
      <trkpt lat="44.47446" lon="1.53428">
        <ele>204.8</ele>
        <time>2021-08-09T07:53:10Z</time>
      </trkpt>
      <trkpt lat="44.47439" lon="1.53422">
        <ele>205.2</ele>
        <time>2021-08-09T07:53:12Z</time>
      </trkpt>
      <trkpt lat="44.47435" lon="1.53422">
        <ele>205.1</ele>
        <time>2021-08-09T07:53:14Z</time>
      </trkpt>
      <trkpt lat="44.47429" lon="1.5342">
        <ele>204.9</ele>
        <time>2021-08-09T07:53:16Z</time>
      </trkpt>
      <trkpt lat="44.47428" lon="1.53421">
        <ele>204.9</ele>
        <time>2021-08-09T07:53:17Z</time>
      </trkpt>
      <trkpt lat="44.47426" lon="1.53421">
        <ele>204.8</ele>
        <time>2021-08-09T07:53:19Z</time>
      </trkpt>
      <trkpt lat="44.47423" lon="1.53421">
        <ele>204.7</ele>
        <time>2021-08-09T07:53:20Z</time>
      </trkpt>
      <trkpt lat="44.47418" lon="1.53422">
        <ele>204.4</ele>
        <time>2021-08-09T07:53:22Z</time>
      </trkpt>
      <trkpt lat="44.47413" lon="1.53422">
        <ele>204.3</ele>
        <time>2021-08-09T07:53:23Z</time>
      </trkpt>
      <trkpt lat="44.47408" lon="1.53423">
        <ele>203.5</ele>
        <time>2021-08-09T07:53:25Z</time>
      </trkpt>
      <trkpt lat="44.47404" lon="1.53423">
        <ele>203.4</ele>
        <time>2021-08-09T07:53:26Z</time>
      </trkpt>
      <trkpt lat="44.47401" lon="1.53424">
        <ele>203.2</ele>
        <time>2021-08-09T07:53:28Z</time>
      </trkpt>
      <trkpt lat="44.47399" lon="1.53423">
        <ele>203.1</ele>
        <time>2021-08-09T07:53:29Z</time>
      </trkpt>
      <trkpt lat="44.47398" lon="1.53424">
        <ele>203.1</ele>
        <time>2021-08-09T07:53:30Z</time>
      </trkpt>
      <trkpt lat="44.47397" lon="1.53424">
        <ele>203</ele>
        <time>2021-08-09T07:53:31Z</time>
      </trkpt>
      <trkpt lat="44.47395" lon="1.53423">
        <ele>202.9</ele>
        <time>2021-08-09T07:53:33Z</time>
      </trkpt>
      <trkpt lat="44.47391" lon="1.53421">
        <ele>203.3</ele>
        <time>2021-08-09T07:53:34Z</time>
      </trkpt>
      <trkpt lat="44.47388" lon="1.5342">
        <ele>203.1</ele>
        <time>2021-08-09T07:53:36Z</time>
      </trkpt>
      <trkpt lat="44.47385" lon="1.53419">
        <ele>202.9</ele>
        <time>2021-08-09T07:53:37Z</time>
      </trkpt>
      <trkpt lat="44.47381" lon="1.53418">
        <ele>202.5</ele>
        <time>2021-08-09T07:53:38Z</time>
      </trkpt>
      <trkpt lat="44.4738" lon="1.53418">
        <ele>202.5</ele>
        <time>2021-08-09T07:53:39Z</time>
      </trkpt>
      <trkpt lat="44.47376" lon="1.53418">
        <ele>202.9</ele>
        <time>2021-08-09T07:53:40Z</time>
      </trkpt>
      <trkpt lat="44.47372" lon="1.53418">
        <ele>202.6</ele>
        <time>2021-08-09T07:53:41Z</time>
      </trkpt>
      <trkpt lat="44.47369" lon="1.53418">
        <ele>202.4</ele>
        <time>2021-08-09T07:53:42Z</time>
      </trkpt>
      <trkpt lat="44.47365" lon="1.53418">
        <ele>202.1</ele>
        <time>2021-08-09T07:53:44Z</time>
      </trkpt>
      <trkpt lat="44.47362" lon="1.53417">
        <ele>201.9</ele>
        <time>2021-08-09T07:53:45Z</time>
      </trkpt>
      <trkpt lat="44.47359" lon="1.53417">
        <ele>201.6</ele>
        <time>2021-08-09T07:53:46Z</time>
      </trkpt>
      <trkpt lat="44.47355" lon="1.53417">
        <ele>201.3</ele>
        <time>2021-08-09T07:53:47Z</time>
      </trkpt>
      <trkpt lat="44.47351" lon="1.53417">
        <ele>200.8</ele>
        <time>2021-08-09T07:53:48Z</time>
      </trkpt>
      <trkpt lat="44.47345" lon="1.53418">
        <ele>200.4</ele>
        <time>2021-08-09T07:53:50Z</time>
      </trkpt>
      <trkpt lat="44.47339" lon="1.53418">
        <ele>199.5</ele>
        <time>2021-08-09T07:53:51Z</time>
      </trkpt>
      <trkpt lat="44.47334" lon="1.53419">
        <ele>198.9</ele>
        <time>2021-08-09T07:53:52Z</time>
      </trkpt>
      <trkpt lat="44.47327" lon="1.53419">
        <ele>198.3</ele>
        <time>2021-08-09T07:53:53Z</time>
      </trkpt>
      <trkpt lat="44.47321" lon="1.53418">
        <ele>197.7</ele>
        <time>2021-08-09T07:53:55Z</time>
      </trkpt>
      <trkpt lat="44.47316" lon="1.53417">
        <ele>197.5</ele>
        <time>2021-08-09T07:53:56Z</time>
      </trkpt>
      <trkpt lat="44.47312" lon="1.53416">
        <ele>197.1</ele>
        <time>2021-08-09T07:53:57Z</time>
      </trkpt>
      <trkpt lat="44.47307" lon="1.53414">
        <ele>196.2</ele>
        <time>2021-08-09T07:53:58Z</time>
      </trkpt>
      <trkpt lat="44.47304" lon="1.53412">
        <ele>196.1</ele>
        <time>2021-08-09T07:53:59Z</time>
      </trkpt>
      <trkpt lat="44.47301" lon="1.53411">
        <ele>195.5</ele>
        <time>2021-08-09T07:54:00Z</time>
      </trkpt>
      <trkpt lat="44.47297" lon="1.53409">
        <ele>195.1</ele>
        <time>2021-08-09T07:54:02Z</time>
      </trkpt>
      <trkpt lat="44.47296" lon="1.53409">
        <ele>194.6</ele>
        <time>2021-08-09T07:54:03Z</time>
      </trkpt>
      <trkpt lat="44.47293" lon="1.53406">
        <ele>194.6</ele>
        <time>2021-08-09T07:54:04Z</time>
      </trkpt>
      <trkpt lat="44.47292" lon="1.53405">
        <ele>194.1</ele>
        <time>2021-08-09T07:54:05Z</time>
      </trkpt>
      <trkpt lat="44.4729" lon="1.53403">
        <ele>194.5</ele>
        <time>2021-08-09T07:54:07Z</time>
      </trkpt>
      <trkpt lat="44.47289" lon="1.53402">
        <ele>194</ele>
        <time>2021-08-09T07:54:08Z</time>
      </trkpt>
      <trkpt lat="44.47287" lon="1.53401">
        <ele>194</ele>
        <time>2021-08-09T07:54:09Z</time>
      </trkpt>
      <trkpt lat="44.47286" lon="1.53397">
        <ele>194.4</ele>
        <time>2021-08-09T07:54:10Z</time>
      </trkpt>
      <trkpt lat="44.47285" lon="1.53393">
        <ele>194.3</ele>
        <time>2021-08-09T07:54:11Z</time>
      </trkpt>
      <trkpt lat="44.47284" lon="1.53388">
        <ele>195.2</ele>
        <time>2021-08-09T07:54:12Z</time>
      </trkpt>
      <trkpt lat="44.47283" lon="1.53386">
        <ele>194.7</ele>
        <time>2021-08-09T07:54:13Z</time>
      </trkpt>
      <trkpt lat="44.47281" lon="1.53381">
        <ele>194.5</ele>
        <time>2021-08-09T07:54:15Z</time>
      </trkpt>
      <trkpt lat="44.47277" lon="1.53375">
        <ele>194.6</ele>
        <time>2021-08-09T07:54:17Z</time>
      </trkpt>
      <trkpt lat="44.47275" lon="1.53372">
        <ele>194.5</ele>
        <time>2021-08-09T07:54:18Z</time>
      </trkpt>
      <trkpt lat="44.47273" lon="1.53367">
        <ele>194.1</ele>
        <time>2021-08-09T07:54:19Z</time>
      </trkpt>
      <trkpt lat="44.47272" lon="1.53365">
        <ele>194.3</ele>
        <time>2021-08-09T07:54:20Z</time>
      </trkpt>
      <trkpt lat="44.4727" lon="1.53359">
        <ele>193.8</ele>
        <time>2021-08-09T07:54:22Z</time>
      </trkpt>
      <trkpt lat="44.47268" lon="1.53355">
        <ele>193.4</ele>
        <time>2021-08-09T07:54:23Z</time>
      </trkpt>
      <trkpt lat="44.47265" lon="1.53348">
        <ele>193</ele>
        <time>2021-08-09T07:54:25Z</time>
      </trkpt>
      <trkpt lat="44.47262" lon="1.53343">
        <ele>192.6</ele>
        <time>2021-08-09T07:54:26Z</time>
      </trkpt>
      <trkpt lat="44.47259" lon="1.5334">
        <ele>192.2</ele>
        <time>2021-08-09T07:54:28Z</time>
      </trkpt>
      <trkpt lat="44.47255" lon="1.5334">
        <ele>191.8</ele>
        <time>2021-08-09T07:54:29Z</time>
      </trkpt>
      <trkpt lat="44.47251" lon="1.53341">
        <ele>191.3</ele>
        <time>2021-08-09T07:54:30Z</time>
      </trkpt>
      <trkpt lat="44.47246" lon="1.53342">
        <ele>190.5</ele>
        <time>2021-08-09T07:54:31Z</time>
      </trkpt>
      <trkpt lat="44.4724" lon="1.5334">
        <ele>190.1</ele>
        <time>2021-08-09T07:54:32Z</time>
      </trkpt>
      <trkpt lat="44.47235" lon="1.53336">
        <ele>189.8</ele>
        <time>2021-08-09T07:54:33Z</time>
      </trkpt>
      <trkpt lat="44.4723" lon="1.53332">
        <ele>189.5</ele>
        <time>2021-08-09T07:54:34Z</time>
      </trkpt>
      <trkpt lat="44.47226" lon="1.53326">
        <ele>189.1</ele>
        <time>2021-08-09T07:54:35Z</time>
      </trkpt>
      <trkpt lat="44.47224" lon="1.53322">
        <ele>188.7</ele>
        <time>2021-08-09T07:54:37Z</time>
      </trkpt>
      <trkpt lat="44.47225" lon="1.53317">
        <ele>188.6</ele>
        <time>2021-08-09T07:54:38Z</time>
      </trkpt>
      <trkpt lat="44.47225" lon="1.53311">
        <ele>188.4</ele>
        <time>2021-08-09T07:54:40Z</time>
      </trkpt>
      <trkpt lat="44.47226" lon="1.53304">
        <ele>188.1</ele>
        <time>2021-08-09T07:54:41Z</time>
      </trkpt>
      <trkpt lat="44.47224" lon="1.53293">
        <ele>187.7</ele>
        <time>2021-08-09T07:54:43Z</time>
      </trkpt>
      <trkpt lat="44.47224" lon="1.53287">
        <ele>187.5</ele>
        <time>2021-08-09T07:54:44Z</time>
      </trkpt>
      <trkpt lat="44.47223" lon="1.5328">
        <ele>187.1</ele>
        <time>2021-08-09T07:54:45Z</time>
      </trkpt>
      <trkpt lat="44.47223" lon="1.53274">
        <ele>186.9</ele>
        <time>2021-08-09T07:54:46Z</time>
      </trkpt>
      <trkpt lat="44.47221" lon="1.53269">
        <ele>186.4</ele>
        <time>2021-08-09T07:54:48Z</time>
      </trkpt>
      <trkpt lat="44.47219" lon="1.53264">
        <ele>185.9</ele>
        <time>2021-08-09T07:54:49Z</time>
      </trkpt>
      <trkpt lat="44.47216" lon="1.53261">
        <ele>185.4</ele>
        <time>2021-08-09T07:54:50Z</time>
      </trkpt>
      <trkpt lat="44.47205" lon="1.5325">
        <ele>184</ele>
        <time>2021-08-09T07:54:52Z</time>
      </trkpt>
      <trkpt lat="44.47195" lon="1.53239">
        <ele>181.9</ele>
        <time>2021-08-09T07:54:54Z</time>
      </trkpt>
      <trkpt lat="44.47184" lon="1.53222">
        <ele>179.7</ele>
        <time>2021-08-09T07:54:56Z</time>
      </trkpt>
      <trkpt lat="44.47174" lon="1.53207">
        <ele>177.7</ele>
        <time>2021-08-09T07:54:58Z</time>
      </trkpt>
      <trkpt lat="44.4717" lon="1.53198">
        <ele>176.1</ele>
        <time>2021-08-09T07:54:59Z</time>
      </trkpt>
      <trkpt lat="44.47166" lon="1.53189">
        <ele>175.1</ele>
        <time>2021-08-09T07:55:00Z</time>
      </trkpt>
      <trkpt lat="44.47163" lon="1.5318">
        <ele>174.1</ele>
        <time>2021-08-09T07:55:01Z</time>
      </trkpt>
      <trkpt lat="44.47159" lon="1.53172">
        <ele>173.3</ele>
        <time>2021-08-09T07:55:02Z</time>
      </trkpt>
      <trkpt lat="44.47155" lon="1.53164">
        <ele>171.8</ele>
        <time>2021-08-09T07:55:03Z</time>
      </trkpt>
      <trkpt lat="44.47151" lon="1.53157">
        <ele>171.1</ele>
        <time>2021-08-09T07:55:04Z</time>
      </trkpt>
      <trkpt lat="44.47147" lon="1.5315">
        <ele>170.3</ele>
        <time>2021-08-09T07:55:05Z</time>
      </trkpt>
      <trkpt lat="44.47143" lon="1.53144">
        <ele>168.2</ele>
        <time>2021-08-09T07:55:06Z</time>
      </trkpt>
      <trkpt lat="44.47136" lon="1.53133">
        <ele>166.6</ele>
        <time>2021-08-09T07:55:08Z</time>
      </trkpt>
      <trkpt lat="44.47131" lon="1.53122">
        <ele>165.2</ele>
        <time>2021-08-09T07:55:10Z</time>
      </trkpt>
      <trkpt lat="44.47124" lon="1.53114">
        <ele>164.3</ele>
        <time>2021-08-09T07:55:12Z</time>
      </trkpt>
      <trkpt lat="44.4712" lon="1.53111">
        <ele>163.8</ele>
        <time>2021-08-09T07:55:13Z</time>
      </trkpt>
      <trkpt lat="44.47118" lon="1.5311">
        <ele>162.9</ele>
        <time>2021-08-09T07:55:14Z</time>
      </trkpt>
      <trkpt lat="44.47112" lon="1.53109">
        <ele>160.9</ele>
        <time>2021-08-09T07:55:16Z</time>
      </trkpt>
      <trkpt lat="44.4711" lon="1.53106">
        <ele>161.4</ele>
        <time>2021-08-09T07:55:17Z</time>
      </trkpt>
      <trkpt lat="44.47107" lon="1.53104">
        <ele>161.1</ele>
        <time>2021-08-09T07:55:18Z</time>
      </trkpt>
      <trkpt lat="44.47104" lon="1.531">
        <ele>160.7</ele>
        <time>2021-08-09T07:55:19Z</time>
      </trkpt>
      <trkpt lat="44.47103" lon="1.53096">
        <ele>160.7</ele>
        <time>2021-08-09T07:55:20Z</time>
      </trkpt>
      <trkpt lat="44.47101" lon="1.53091">
        <ele>161.2</ele>
        <time>2021-08-09T07:55:21Z</time>
      </trkpt>
      <trkpt lat="44.47098" lon="1.53086">
        <ele>160.9</ele>
        <time>2021-08-09T07:55:23Z</time>
      </trkpt>
      <trkpt lat="44.47096" lon="1.53081">
        <ele>160.7</ele>
        <time>2021-08-09T07:55:24Z</time>
      </trkpt>
      <trkpt lat="44.4709" lon="1.5308">
        <ele>158.5</ele>
        <time>2021-08-09T07:55:26Z</time>
      </trkpt>
      <trkpt lat="44.47087" lon="1.53079">
        <ele>158</ele>
        <time>2021-08-09T07:55:27Z</time>
      </trkpt>
      <trkpt lat="44.47085" lon="1.53079">
        <ele>158</ele>
        <time>2021-08-09T07:55:28Z</time>
      </trkpt>
      <trkpt lat="44.47085" lon="1.53079">
        <ele>156</ele>
        <time>2021-08-09T07:55:29Z</time>
      </trkpt>
      <trkpt lat="44.47084" lon="1.53079">
        <ele>155.9</ele>
        <time>2021-08-09T07:55:30Z</time>
      </trkpt>
      <trkpt lat="44.47084" lon="1.53079">
        <ele>155.9</ele>
        <time>2021-08-09T07:55:32Z</time>
      </trkpt>
      <trkpt lat="44.47084" lon="1.53079">
        <ele>155.9</ele>
        <time>2021-08-09T07:55:33Z</time>
      </trkpt>
      <trkpt lat="44.47083" lon="1.5308">
        <ele>155.9</ele>
        <time>2021-08-09T07:55:35Z</time>
      </trkpt>
      <trkpt lat="44.47083" lon="1.5308">
        <ele>155.8</ele>
        <time>2021-08-09T07:55:36Z</time>
      </trkpt>
      <trkpt lat="44.4708" lon="1.53081">
        <ele>154.6</ele>
        <time>2021-08-09T07:55:38Z</time>
      </trkpt>
      <trkpt lat="44.47075" lon="1.53081">
        <ele>152.3</ele>
        <time>2021-08-09T07:55:39Z</time>
      </trkpt>
      <trkpt lat="44.4707" lon="1.5308">
        <ele>151.4</ele>
        <time>2021-08-09T07:55:41Z</time>
      </trkpt>
      <trkpt lat="44.47065" lon="1.53081">
        <ele>150.2</ele>
        <time>2021-08-09T07:55:43Z</time>
      </trkpt>
      <trkpt lat="44.47061" lon="1.53082">
        <ele>149.6</ele>
        <time>2021-08-09T07:55:44Z</time>
      </trkpt>
      <trkpt lat="44.47056" lon="1.53081">
        <ele>147.8</ele>
        <time>2021-08-09T07:55:46Z</time>
      </trkpt>
      <trkpt lat="44.47053" lon="1.53081">
        <ele>146.5</ele>
        <time>2021-08-09T07:55:47Z</time>
      </trkpt>
      <trkpt lat="44.47048" lon="1.53084">
        <ele>143.7</ele>
        <time>2021-08-09T07:55:49Z</time>
      </trkpt>
      <trkpt lat="44.47046" lon="1.53088">
        <ele>140.8</ele>
        <time>2021-08-09T07:55:50Z</time>
      </trkpt>
      <trkpt lat="44.47044" lon="1.53088">
        <ele>138.5</ele>
        <time>2021-08-09T07:55:51Z</time>
      </trkpt>
      <trkpt lat="44.47041" lon="1.53086">
        <ele>136.5</ele>
        <time>2021-08-09T07:55:53Z</time>
      </trkpt>
      <trkpt lat="44.4704" lon="1.5308">
        <ele>137.4</ele>
        <time>2021-08-09T07:55:54Z</time>
      </trkpt>
      <trkpt lat="44.4704" lon="1.53077">
        <ele>138.2</ele>
        <time>2021-08-09T07:55:55Z</time>
      </trkpt>
      <trkpt lat="44.47039" lon="1.53073">
        <ele>139.1</ele>
        <time>2021-08-09T07:55:56Z</time>
      </trkpt>
      <trkpt lat="44.4704" lon="1.53064">
        <ele>140.8</ele>
        <time>2021-08-09T07:55:58Z</time>
      </trkpt>
      <trkpt lat="44.4704" lon="1.53056">
        <ele>142.7</ele>
        <time>2021-08-09T07:56:00Z</time>
      </trkpt>
      <trkpt lat="44.47042" lon="1.53051">
        <ele>145.3</ele>
        <time>2021-08-09T07:56:02Z</time>
      </trkpt>
      <trkpt lat="44.47045" lon="1.53052">
        <ele>146.7</ele>
        <time>2021-08-09T07:56:03Z</time>
      </trkpt>
      <trkpt lat="44.47048" lon="1.53052">
        <ele>148.2</ele>
        <time>2021-08-09T07:56:04Z</time>
      </trkpt>
      <trkpt lat="44.47051" lon="1.53051">
        <ele>149.6</ele>
        <time>2021-08-09T07:56:05Z</time>
      </trkpt>
      <trkpt lat="44.47054" lon="1.53049">
        <ele>149.9</ele>
        <time>2021-08-09T07:56:06Z</time>
      </trkpt>
      <trkpt lat="44.47059" lon="1.53046">
        <ele>152.7</ele>
        <time>2021-08-09T07:56:08Z</time>
      </trkpt>
      <trkpt lat="44.47064" lon="1.53042">
        <ele>155.8</ele>
        <time>2021-08-09T07:56:10Z</time>
      </trkpt>
      <trkpt lat="44.47069" lon="1.53038">
        <ele>157.7</ele>
        <time>2021-08-09T07:56:11Z</time>
      </trkpt>
      <trkpt lat="44.47074" lon="1.53035">
        <ele>160.7</ele>
        <time>2021-08-09T07:56:12Z</time>
      </trkpt>
      <trkpt lat="44.47077" lon="1.53032">
        <ele>162.6</ele>
        <time>2021-08-09T07:56:14Z</time>
      </trkpt>
      <trkpt lat="44.47077" lon="1.53025">
        <ele>163.2</ele>
        <time>2021-08-09T07:56:15Z</time>
      </trkpt>
      <trkpt lat="44.47078" lon="1.53021">
        <ele>163.8</ele>
        <time>2021-08-09T07:56:17Z</time>
      </trkpt>
      <trkpt lat="44.47077" lon="1.53016">
        <ele>164.4</ele>
        <time>2021-08-09T07:56:18Z</time>
      </trkpt>
      <trkpt lat="44.47075" lon="1.53012">
        <ele>163.8</ele>
        <time>2021-08-09T07:56:19Z</time>
      </trkpt>
      <trkpt lat="44.47072" lon="1.53008">
        <ele>163.2</ele>
        <time>2021-08-09T07:56:20Z</time>
      </trkpt>
      <trkpt lat="44.47069" lon="1.53003">
        <ele>162.8</ele>
        <time>2021-08-09T07:56:22Z</time>
      </trkpt>
      <trkpt lat="44.47069" lon="1.52997">
        <ele>164</ele>
        <time>2021-08-09T07:56:23Z</time>
      </trkpt>
      <trkpt lat="44.47066" lon="1.52992">
        <ele>163.5</ele>
        <time>2021-08-09T07:56:24Z</time>
      </trkpt>
      <trkpt lat="44.47062" lon="1.52987">
        <ele>163</ele>
        <time>2021-08-09T07:56:26Z</time>
      </trkpt>
      <trkpt lat="44.47059" lon="1.52984">
        <ele>162.6</ele>
        <time>2021-08-09T07:56:27Z</time>
      </trkpt>
      <trkpt lat="44.47055" lon="1.52982">
        <ele>162.3</ele>
        <time>2021-08-09T07:56:28Z</time>
      </trkpt>
      <trkpt lat="44.47053" lon="1.52978">
        <ele>162</ele>
        <time>2021-08-09T07:56:30Z</time>
      </trkpt>
      <trkpt lat="44.47052" lon="1.52974">
        <ele>161.8</ele>
        <time>2021-08-09T07:56:31Z</time>
      </trkpt>
      <trkpt lat="44.4705" lon="1.52972">
        <ele>161.6</ele>
        <time>2021-08-09T07:56:32Z</time>
      </trkpt>
      <trkpt lat="44.47049" lon="1.52969">
        <ele>161.5</ele>
        <time>2021-08-09T07:56:34Z</time>
      </trkpt>
      <trkpt lat="44.47046" lon="1.52968">
        <ele>161.3</ele>
        <time>2021-08-09T07:56:35Z</time>
      </trkpt>
      <trkpt lat="44.47045" lon="1.52968">
        <ele>161.2</ele>
        <time>2021-08-09T07:56:36Z</time>
      </trkpt>
      <trkpt lat="44.47044" lon="1.52968">
        <ele>161.2</ele>
        <time>2021-08-09T07:56:38Z</time>
      </trkpt>
      <trkpt lat="44.47044" lon="1.52969">
        <ele>161.1</ele>
        <time>2021-08-09T07:56:40Z</time>
      </trkpt>
      <trkpt lat="44.47044" lon="1.52969">
        <ele>161.1</ele>
        <time>2021-08-09T07:56:41Z</time>
      </trkpt>
      <trkpt lat="44.47044" lon="1.52969">
        <ele>161.1</ele>
        <time>2021-08-09T07:56:43Z</time>
      </trkpt>
      <trkpt lat="44.47044" lon="1.52969">
        <ele>161.1</ele>
        <time>2021-08-09T07:56:44Z</time>
      </trkpt>
      <trkpt lat="44.47044" lon="1.52969">
        <ele>161.1</ele>
        <time>2021-08-09T07:56:46Z</time>
      </trkpt>
      <trkpt lat="44.47041" lon="1.52966">
        <ele>160.9</ele>
        <time>2021-08-09T07:57:19Z</time>
      </trkpt>
      <trkpt lat="44.47039" lon="1.52963">
        <ele>160.7</ele>
        <time>2021-08-09T07:57:20Z</time>
      </trkpt>
      <trkpt lat="44.47037" lon="1.52959">
        <ele>160.5</ele>
        <time>2021-08-09T07:57:21Z</time>
      </trkpt>
      <trkpt lat="44.47033" lon="1.52952">
        <ele>160</ele>
        <time>2021-08-09T07:57:23Z</time>
      </trkpt>
      <trkpt lat="44.47031" lon="1.52946">
        <ele>159.6</ele>
        <time>2021-08-09T07:57:24Z</time>
      </trkpt>
      <trkpt lat="44.47028" lon="1.52939">
        <ele>159.1</ele>
        <time>2021-08-09T07:57:25Z</time>
      </trkpt>
      <trkpt lat="44.47025" lon="1.52932">
        <ele>158.5</ele>
        <time>2021-08-09T07:57:27Z</time>
      </trkpt>
      <trkpt lat="44.47022" lon="1.52923">
        <ele>157.8</ele>
        <time>2021-08-09T07:57:29Z</time>
      </trkpt>
      <trkpt lat="44.47021" lon="1.52919">
        <ele>157.5</ele>
        <time>2021-08-09T07:57:30Z</time>
      </trkpt>
      <trkpt lat="44.47018" lon="1.52913">
        <ele>157</ele>
        <time>2021-08-09T07:57:31Z</time>
      </trkpt>
      <trkpt lat="44.47015" lon="1.52908">
        <ele>156.6</ele>
        <time>2021-08-09T07:57:33Z</time>
      </trkpt>
      <trkpt lat="44.47013" lon="1.52903">
        <ele>156.1</ele>
        <time>2021-08-09T07:57:34Z</time>
      </trkpt>
      <trkpt lat="44.47011" lon="1.52899">
        <ele>155.7</ele>
        <time>2021-08-09T07:57:35Z</time>
      </trkpt>
      <trkpt lat="44.47009" lon="1.52895">
        <ele>155.3</ele>
        <time>2021-08-09T07:57:36Z</time>
      </trkpt>
      <trkpt lat="44.47005" lon="1.52889">
        <ele>154.5</ele>
        <time>2021-08-09T07:57:38Z</time>
      </trkpt>
      <trkpt lat="44.47002" lon="1.52883">
        <ele>153.9</ele>
        <time>2021-08-09T07:57:39Z</time>
      </trkpt>
      <trkpt lat="44.46999" lon="1.52878">
        <ele>153.5</ele>
        <time>2021-08-09T07:57:40Z</time>
      </trkpt>
      <trkpt lat="44.46995" lon="1.52868">
        <ele>152.6</ele>
        <time>2021-08-09T07:57:42Z</time>
      </trkpt>
      <trkpt lat="44.4699" lon="1.52859">
        <ele>151.6</ele>
        <time>2021-08-09T07:57:43Z</time>
      </trkpt>
      <trkpt lat="44.46987" lon="1.52853">
        <ele>150.7</ele>
        <time>2021-08-09T07:57:44Z</time>
      </trkpt>
      <trkpt lat="44.46978" lon="1.52842">
        <ele>148.8</ele>
        <time>2021-08-09T07:57:46Z</time>
      </trkpt>
      <trkpt lat="44.46967" lon="1.52836">
        <ele>147</ele>
        <time>2021-08-09T07:57:48Z</time>
      </trkpt>
      <trkpt lat="44.46954" lon="1.52828">
        <ele>145.3</ele>
        <time>2021-08-09T07:57:50Z</time>
      </trkpt>
      <trkpt lat="44.46944" lon="1.52818">
        <ele>143.9</ele>
        <time>2021-08-09T07:57:52Z</time>
      </trkpt>
      <trkpt lat="44.46936" lon="1.52805">
        <ele>142.6</ele>
        <time>2021-08-09T07:57:54Z</time>
      </trkpt>
      <trkpt lat="44.46933" lon="1.528">
        <ele>142.1</ele>
        <time>2021-08-09T07:57:55Z</time>
      </trkpt>
      <trkpt lat="44.46931" lon="1.52795">
        <ele>141.8</ele>
        <time>2021-08-09T07:57:57Z</time>
      </trkpt>
      <trkpt lat="44.46931" lon="1.52793">
        <ele>141.7</ele>
        <time>2021-08-09T07:57:58Z</time>
      </trkpt>
      <trkpt lat="44.46927" lon="1.52787">
        <ele>141.3</ele>
        <time>2021-08-09T07:58:00Z</time>
      </trkpt>
      <trkpt lat="44.46923" lon="1.52786">
        <ele>141.2</ele>
        <time>2021-08-09T07:58:01Z</time>
      </trkpt>
      <trkpt lat="44.46918" lon="1.52783">
        <ele>141</ele>
        <time>2021-08-09T07:58:02Z</time>
      </trkpt>
      <trkpt lat="44.46913" lon="1.52783">
        <ele>140.8</ele>
        <time>2021-08-09T07:58:03Z</time>
      </trkpt>
      <trkpt lat="44.46902" lon="1.52777">
        <ele>139.6</ele>
        <time>2021-08-09T07:58:05Z</time>
      </trkpt>
      <trkpt lat="44.46897" lon="1.52771">
        <ele>138.7</ele>
        <time>2021-08-09T07:58:06Z</time>
      </trkpt>
      <trkpt lat="44.46888" lon="1.52758">
        <ele>136.5</ele>
        <time>2021-08-09T07:58:08Z</time>
      </trkpt>
      <trkpt lat="44.46878" lon="1.52748">
        <ele>134.7</ele>
        <time>2021-08-09T07:58:10Z</time>
      </trkpt>
      <trkpt lat="44.46865" lon="1.52744">
        <ele>133.2</ele>
        <time>2021-08-09T07:58:12Z</time>
      </trkpt>
      <trkpt lat="44.46859" lon="1.52745">
        <ele>132.6</ele>
        <time>2021-08-09T07:58:13Z</time>
      </trkpt>
      <trkpt lat="44.46855" lon="1.52745">
        <ele>132.2</ele>
        <time>2021-08-09T07:58:14Z</time>
      </trkpt>
      <trkpt lat="44.46854" lon="1.52743">
        <ele>131.9</ele>
        <time>2021-08-09T07:58:16Z</time>
      </trkpt>
      <trkpt lat="44.46853" lon="1.52741">
        <ele>131.8</ele>
        <time>2021-08-09T07:58:18Z</time>
      </trkpt>
      <trkpt lat="44.46853" lon="1.52739">
        <ele>131.6</ele>
        <time>2021-08-09T07:58:20Z</time>
      </trkpt>
      <trkpt lat="44.46853" lon="1.52737">
        <ele>131.5</ele>
        <time>2021-08-09T07:58:21Z</time>
      </trkpt>
      <trkpt lat="44.46853" lon="1.52735">
        <ele>131.4</ele>
        <time>2021-08-09T07:58:23Z</time>
      </trkpt>
      <trkpt lat="44.46853" lon="1.52733">
        <ele>131.2</ele>
        <time>2021-08-09T07:58:24Z</time>
      </trkpt>
      <trkpt lat="44.46853" lon="1.52731">
        <ele>131.1</ele>
        <time>2021-08-09T07:58:34Z</time>
      </trkpt>
      <trkpt lat="44.46852" lon="1.5273">
        <ele>131</ele>
        <time>2021-08-09T07:58:36Z</time>
      </trkpt>
      <trkpt lat="44.46852" lon="1.52728">
        <ele>130.9</ele>
        <time>2021-08-09T07:58:37Z</time>
      </trkpt>
      <trkpt lat="44.46852" lon="1.52723">
        <ele>130.7</ele>
        <time>2021-08-09T07:58:38Z</time>
      </trkpt>
      <trkpt lat="44.46852" lon="1.52721">
        <ele>130.7</ele>
        <time>2021-08-09T07:58:39Z</time>
      </trkpt>
      <trkpt lat="44.46849" lon="1.52719">
        <ele>130.7</ele>
        <time>2021-08-09T07:58:40Z</time>
      </trkpt>
      <trkpt lat="44.46845" lon="1.52717">
        <ele>130.7</ele>
        <time>2021-08-09T07:58:41Z</time>
      </trkpt>
      <trkpt lat="44.46835" lon="1.52712">
        <ele>131.1</ele>
        <time>2021-08-09T07:58:43Z</time>
      </trkpt>
      <trkpt lat="44.4683" lon="1.5271">
        <ele>133.3</ele>
        <time>2021-08-09T07:58:44Z</time>
      </trkpt>
      <trkpt lat="44.46827" lon="1.52707">
        <ele>136.4</ele>
        <time>2021-08-09T07:58:45Z</time>
      </trkpt>
      <trkpt lat="44.46826" lon="1.52703">
        <ele>136.4</ele>
        <time>2021-08-09T07:58:46Z</time>
      </trkpt>
      <trkpt lat="44.46829" lon="1.527">
        <ele>136.5</ele>
        <time>2021-08-09T07:58:48Z</time>
      </trkpt>
      <trkpt lat="44.46832" lon="1.52695">
        <ele>136.6</ele>
        <time>2021-08-09T07:58:49Z</time>
      </trkpt>
      <trkpt lat="44.46837" lon="1.52688">
        <ele>136.7</ele>
        <time>2021-08-09T07:58:50Z</time>
      </trkpt>
      <trkpt lat="44.46844" lon="1.52675">
        <ele>136.9</ele>
        <time>2021-08-09T07:58:52Z</time>
      </trkpt>
      <trkpt lat="44.46849" lon="1.52669">
        <ele>137</ele>
        <time>2021-08-09T07:58:53Z</time>
      </trkpt>
      <trkpt lat="44.46855" lon="1.52663">
        <ele>137.1</ele>
        <time>2021-08-09T07:58:54Z</time>
      </trkpt>
      <trkpt lat="44.46865" lon="1.52648">
        <ele>137.3</ele>
        <time>2021-08-09T07:58:56Z</time>
      </trkpt>
      <trkpt lat="44.46877" lon="1.52634">
        <ele>137.7</ele>
        <time>2021-08-09T07:58:58Z</time>
      </trkpt>
      <trkpt lat="44.46882" lon="1.52627">
        <ele>137.9</ele>
        <time>2021-08-09T07:58:59Z</time>
      </trkpt>
      <trkpt lat="44.46892" lon="1.52613">
        <ele>138.2</ele>
        <time>2021-08-09T07:59:01Z</time>
      </trkpt>
      <trkpt lat="44.46894" lon="1.52607">
        <ele>138.2</ele>
        <time>2021-08-09T07:59:02Z</time>
      </trkpt>
      <trkpt lat="44.46889" lon="1.526">
        <ele>138</ele>
        <time>2021-08-09T07:59:04Z</time>
      </trkpt>
      <trkpt lat="44.46883" lon="1.52596">
        <ele>137.8</ele>
        <time>2021-08-09T07:59:05Z</time>
      </trkpt>
      <trkpt lat="44.46865" lon="1.52589">
        <ele>136.9</ele>
        <time>2021-08-09T07:59:07Z</time>
      </trkpt>
      <trkpt lat="44.46858" lon="1.52587">
        <ele>136.4</ele>
        <time>2021-08-09T07:59:08Z</time>
      </trkpt>
      <trkpt lat="44.46845" lon="1.52585">
        <ele>135.5</ele>
        <time>2021-08-09T07:59:10Z</time>
      </trkpt>
      <trkpt lat="44.46831" lon="1.5259">
        <ele>134.7</ele>
        <time>2021-08-09T07:59:12Z</time>
      </trkpt>
      <trkpt lat="44.4682" lon="1.52594">
        <ele>134.2</ele>
        <time>2021-08-09T07:59:14Z</time>
      </trkpt>
      <trkpt lat="44.46809" lon="1.52599">
        <ele>132.9</ele>
        <time>2021-08-09T07:59:16Z</time>
      </trkpt>
      <trkpt lat="44.46803" lon="1.526">
        <ele>132.3</ele>
        <time>2021-08-09T07:59:18Z</time>
      </trkpt>
      <trkpt lat="44.46801" lon="1.52599">
        <ele>132.1</ele>
        <time>2021-08-09T07:59:19Z</time>
      </trkpt>
      <trkpt lat="44.46801" lon="1.52596">
        <ele>132</ele>
        <time>2021-08-09T07:59:20Z</time>
      </trkpt>
      <trkpt lat="44.46804" lon="1.52589">
        <ele>131.7</ele>
        <time>2021-08-09T07:59:22Z</time>
      </trkpt>
      <trkpt lat="44.46806" lon="1.52586">
        <ele>131.6</ele>
        <time>2021-08-09T07:59:23Z</time>
      </trkpt>
      <trkpt lat="44.46808" lon="1.52584">
        <ele>131.5</ele>
        <time>2021-08-09T07:59:25Z</time>
      </trkpt>
      <trkpt lat="44.46809" lon="1.52584">
        <ele>131.5</ele>
        <time>2021-08-09T07:59:26Z</time>
      </trkpt>
      <trkpt lat="44.46811" lon="1.52583">
        <ele>131.5</ele>
        <time>2021-08-09T07:59:28Z</time>
      </trkpt>
      <trkpt lat="44.46812" lon="1.52583">
        <ele>131.5</ele>
        <time>2021-08-09T07:59:30Z</time>
      </trkpt>
      <trkpt lat="44.46813" lon="1.52583">
        <ele>131.5</ele>
        <time>2021-08-09T07:59:32Z</time>
      </trkpt>
      <trkpt lat="44.46814" lon="1.52583">
        <ele>131.5</ele>
        <time>2021-08-09T07:59:34Z</time>
      </trkpt>
      <trkpt lat="44.46815" lon="1.52583">
        <ele>131.5</ele>
        <time>2021-08-09T08:00:01Z</time>
      </trkpt>
      <trkpt lat="44.46816" lon="1.52582">
        <ele>131.5</ele>
        <time>2021-08-09T08:00:02Z</time>
      </trkpt>
      <trkpt lat="44.46818" lon="1.52582">
        <ele>131.5</ele>
        <time>2021-08-09T08:00:03Z</time>
      </trkpt>
      <trkpt lat="44.46822" lon="1.52579">
        <ele>131.6</ele>
        <time>2021-08-09T08:00:05Z</time>
      </trkpt>
      <trkpt lat="44.46824" lon="1.52578">
        <ele>131.7</ele>
        <time>2021-08-09T08:00:06Z</time>
      </trkpt>
      <trkpt lat="44.46825" lon="1.52577">
        <ele>131.7</ele>
        <time>2021-08-09T08:00:07Z</time>
      </trkpt>
      <trkpt lat="44.4683" lon="1.52574">
        <ele>131.9</ele>
        <time>2021-08-09T08:00:09Z</time>
      </trkpt>
      <trkpt lat="44.46831" lon="1.52572">
        <ele>131.9</ele>
        <time>2021-08-09T08:00:10Z</time>
      </trkpt>
      <trkpt lat="44.46833" lon="1.52571">
        <ele>132</ele>
        <time>2021-08-09T08:00:11Z</time>
      </trkpt>
      <trkpt lat="44.46836" lon="1.5257">
        <ele>132.1</ele>
        <time>2021-08-09T08:00:13Z</time>
      </trkpt>
      <trkpt lat="44.4684" lon="1.52569">
        <ele>132.2</ele>
        <time>2021-08-09T08:00:14Z</time>
      </trkpt>
      <trkpt lat="44.46841" lon="1.52569">
        <ele>132.2</ele>
        <time>2021-08-09T08:00:15Z</time>
      </trkpt>
      <trkpt lat="44.46843" lon="1.52569">
        <ele>132.2</ele>
        <time>2021-08-09T08:00:16Z</time>
      </trkpt>
      <trkpt lat="44.46847" lon="1.5257">
        <ele>132.3</ele>
        <time>2021-08-09T08:00:18Z</time>
      </trkpt>
      <trkpt lat="44.46851" lon="1.52569">
        <ele>132.3</ele>
        <time>2021-08-09T08:00:19Z</time>
      </trkpt>
      <trkpt lat="44.46853" lon="1.52569">
        <ele>132.3</ele>
        <time>2021-08-09T08:00:20Z</time>
      </trkpt>
      <trkpt lat="44.46856" lon="1.52569">
        <ele>132.2</ele>
        <time>2021-08-09T08:00:21Z</time>
      </trkpt>
      <trkpt lat="44.46859" lon="1.52568">
        <ele>132.2</ele>
        <time>2021-08-09T08:00:22Z</time>
      </trkpt>
      <trkpt lat="44.4686" lon="1.52568">
        <ele>132.2</ele>
        <time>2021-08-09T08:00:23Z</time>
      </trkpt>
      <trkpt lat="44.46863" lon="1.52568">
        <ele>132.2</ele>
        <time>2021-08-09T08:00:24Z</time>
      </trkpt>
      <trkpt lat="44.46865" lon="1.52568">
        <ele>132.2</ele>
        <time>2021-08-09T08:00:25Z</time>
      </trkpt>
      <trkpt lat="44.46869" lon="1.52568">
        <ele>132.1</ele>
        <time>2021-08-09T08:00:27Z</time>
      </trkpt>
      <trkpt lat="44.46872" lon="1.52569">
        <ele>132.1</ele>
        <time>2021-08-09T08:00:28Z</time>
      </trkpt>
      <trkpt lat="44.46878" lon="1.52571">
        <ele>132</ele>
        <time>2021-08-09T08:00:30Z</time>
      </trkpt>
      <trkpt lat="44.46882" lon="1.52572">
        <ele>132</ele>
        <time>2021-08-09T08:00:31Z</time>
      </trkpt>
      <trkpt lat="44.46885" lon="1.52575">
        <ele>132</ele>
        <time>2021-08-09T08:00:32Z</time>
      </trkpt>
      <trkpt lat="44.4689" lon="1.52577">
        <ele>132</ele>
        <time>2021-08-09T08:00:34Z</time>
      </trkpt>
      <trkpt lat="44.46894" lon="1.52576">
        <ele>132</ele>
        <time>2021-08-09T08:00:36Z</time>
      </trkpt>
      <trkpt lat="44.46898" lon="1.52576">
        <ele>132.1</ele>
        <time>2021-08-09T08:00:37Z</time>
      </trkpt>
      <trkpt lat="44.46899" lon="1.52576">
        <ele>132.1</ele>
        <time>2021-08-09T08:00:38Z</time>
      </trkpt>
      <trkpt lat="44.46904" lon="1.52576">
        <ele>132.1</ele>
        <time>2021-08-09T08:00:39Z</time>
      </trkpt>
      <trkpt lat="44.46907" lon="1.52575">
        <ele>132.2</ele>
        <time>2021-08-09T08:00:40Z</time>
      </trkpt>
      <trkpt lat="44.4691" lon="1.52575">
        <ele>132.2</ele>
        <time>2021-08-09T08:00:41Z</time>
      </trkpt>
      <trkpt lat="44.46913" lon="1.52575">
        <ele>132.3</ele>
        <time>2021-08-09T08:00:43Z</time>
      </trkpt>
      <trkpt lat="44.46918" lon="1.52575">
        <ele>132.4</ele>
        <time>2021-08-09T08:00:45Z</time>
      </trkpt>
      <trkpt lat="44.46922" lon="1.52575">
        <ele>132.4</ele>
        <time>2021-08-09T08:00:46Z</time>
      </trkpt>
      <trkpt lat="44.46926" lon="1.52574">
        <ele>132.5</ele>
        <time>2021-08-09T08:00:48Z</time>
      </trkpt>
      <trkpt lat="44.46928" lon="1.52573">
        <ele>132.5</ele>
        <time>2021-08-09T08:00:49Z</time>
      </trkpt>
      <trkpt lat="44.46933" lon="1.52572">
        <ele>132.6</ele>
        <time>2021-08-09T08:00:50Z</time>
      </trkpt>
      <trkpt lat="44.46937" lon="1.52572">
        <ele>132.6</ele>
        <time>2021-08-09T08:00:52Z</time>
      </trkpt>
      <trkpt lat="44.4694" lon="1.52572">
        <ele>132.6</ele>
        <time>2021-08-09T08:00:53Z</time>
      </trkpt>
      <trkpt lat="44.46945" lon="1.5257">
        <ele>132.7</ele>
        <time>2021-08-09T08:00:55Z</time>
      </trkpt>
      <trkpt lat="44.46948" lon="1.5257">
        <ele>132.7</ele>
        <time>2021-08-09T08:00:56Z</time>
      </trkpt>
      <trkpt lat="44.46952" lon="1.5257">
        <ele>132.7</ele>
        <time>2021-08-09T08:00:57Z</time>
      </trkpt>
      <trkpt lat="44.46956" lon="1.52569">
        <ele>132.7</ele>
        <time>2021-08-09T08:00:58Z</time>
      </trkpt>
      <trkpt lat="44.46959" lon="1.52568">
        <ele>132.7</ele>
        <time>2021-08-09T08:01:00Z</time>
      </trkpt>
      <trkpt lat="44.46963" lon="1.52567">
        <ele>132.7</ele>
        <time>2021-08-09T08:01:01Z</time>
      </trkpt>
      <trkpt lat="44.46966" lon="1.52566">
        <ele>132.7</ele>
        <time>2021-08-09T08:01:02Z</time>
      </trkpt>
      <trkpt lat="44.4697" lon="1.52564">
        <ele>132.7</ele>
        <time>2021-08-09T08:01:03Z</time>
      </trkpt>
      <trkpt lat="44.46974" lon="1.52561">
        <ele>132.7</ele>
        <time>2021-08-09T08:01:05Z</time>
      </trkpt>
      <trkpt lat="44.46978" lon="1.52559">
        <ele>132.7</ele>
        <time>2021-08-09T08:01:06Z</time>
      </trkpt>
      <trkpt lat="44.46982" lon="1.52558">
        <ele>132.6</ele>
        <time>2021-08-09T08:01:07Z</time>
      </trkpt>
      <trkpt lat="44.46985" lon="1.52556">
        <ele>132.6</ele>
        <time>2021-08-09T08:01:08Z</time>
      </trkpt>
      <trkpt lat="44.46989" lon="1.52555">
        <ele>132.6</ele>
        <time>2021-08-09T08:01:10Z</time>
      </trkpt>
      <trkpt lat="44.46993" lon="1.52553">
        <ele>132.6</ele>
        <time>2021-08-09T08:01:12Z</time>
      </trkpt>
      <trkpt lat="44.46996" lon="1.52552">
        <ele>132.6</ele>
        <time>2021-08-09T08:01:13Z</time>
      </trkpt>
      <trkpt lat="44.46999" lon="1.52551">
        <ele>132.6</ele>
        <time>2021-08-09T08:01:14Z</time>
      </trkpt>
      <trkpt lat="44.47003" lon="1.5255">
        <ele>132.6</ele>
        <time>2021-08-09T08:01:15Z</time>
      </trkpt>
      <trkpt lat="44.47006" lon="1.52549">
        <ele>132.6</ele>
        <time>2021-08-09T08:01:16Z</time>
      </trkpt>
      <trkpt lat="44.4701" lon="1.52548">
        <ele>132.6</ele>
        <time>2021-08-09T08:01:17Z</time>
      </trkpt>
      <trkpt lat="44.47014" lon="1.52546">
        <ele>132.7</ele>
        <time>2021-08-09T08:01:18Z</time>
      </trkpt>
      <trkpt lat="44.47017" lon="1.52545">
        <ele>132.7</ele>
        <time>2021-08-09T08:01:19Z</time>
      </trkpt>
      <trkpt lat="44.47021" lon="1.52544">
        <ele>132.7</ele>
        <time>2021-08-09T08:01:20Z</time>
      </trkpt>
      <trkpt lat="44.47028" lon="1.52542">
        <ele>132.8</ele>
        <time>2021-08-09T08:01:22Z</time>
      </trkpt>
      <trkpt lat="44.47032" lon="1.52541">
        <ele>132.9</ele>
        <time>2021-08-09T08:01:23Z</time>
      </trkpt>
      <trkpt lat="44.47036" lon="1.5254">
        <ele>132.9</ele>
        <time>2021-08-09T08:01:24Z</time>
      </trkpt>
      <trkpt lat="44.47042" lon="1.52537">
        <ele>133</ele>
        <time>2021-08-09T08:01:25Z</time>
      </trkpt>
      <trkpt lat="44.47048" lon="1.52534">
        <ele>133</ele>
        <time>2021-08-09T08:01:27Z</time>
      </trkpt>
      <trkpt lat="44.47051" lon="1.52533">
        <ele>133</ele>
        <time>2021-08-09T08:01:28Z</time>
      </trkpt>
      <trkpt lat="44.47057" lon="1.52529">
        <ele>133</ele>
        <time>2021-08-09T08:01:29Z</time>
      </trkpt>
      <trkpt lat="44.47063" lon="1.52525">
        <ele>133</ele>
        <time>2021-08-09T08:01:31Z</time>
      </trkpt>
      <trkpt lat="44.47066" lon="1.52523">
        <ele>133.1</ele>
        <time>2021-08-09T08:01:32Z</time>
      </trkpt>
      <trkpt lat="44.47072" lon="1.52518">
        <ele>133.1</ele>
        <time>2021-08-09T08:01:34Z</time>
      </trkpt>
      <trkpt lat="44.47075" lon="1.52515">
        <ele>133.1</ele>
        <time>2021-08-09T08:01:35Z</time>
      </trkpt>
      <trkpt lat="44.47082" lon="1.5251">
        <ele>133.2</ele>
        <time>2021-08-09T08:01:37Z</time>
      </trkpt>
      <trkpt lat="44.47087" lon="1.52506">
        <ele>133.2</ele>
        <time>2021-08-09T08:01:39Z</time>
      </trkpt>
      <trkpt lat="44.47091" lon="1.52504">
        <ele>133.2</ele>
        <time>2021-08-09T08:01:40Z</time>
      </trkpt>
      <trkpt lat="44.47098" lon="1.52499">
        <ele>133.3</ele>
        <time>2021-08-09T08:01:42Z</time>
      </trkpt>
      <trkpt lat="44.47102" lon="1.52496">
        <ele>133.3</ele>
        <time>2021-08-09T08:01:44Z</time>
      </trkpt>
      <trkpt lat="44.47107" lon="1.52493">
        <ele>133.3</ele>
        <time>2021-08-09T08:01:45Z</time>
      </trkpt>
      <trkpt lat="44.4711" lon="1.5249">
        <ele>133.3</ele>
        <time>2021-08-09T08:01:46Z</time>
      </trkpt>
      <trkpt lat="44.47116" lon="1.52486">
        <ele>133.4</ele>
        <time>2021-08-09T08:01:48Z</time>
      </trkpt>
      <trkpt lat="44.47124" lon="1.52481">
        <ele>133.4</ele>
        <time>2021-08-09T08:01:50Z</time>
      </trkpt>
      <trkpt lat="44.47128" lon="1.52478">
        <ele>133.5</ele>
        <time>2021-08-09T08:01:51Z</time>
      </trkpt>
      <trkpt lat="44.47131" lon="1.52476">
        <ele>133.5</ele>
        <time>2021-08-09T08:01:52Z</time>
      </trkpt>
      <trkpt lat="44.47134" lon="1.52475">
        <ele>133.5</ele>
        <time>2021-08-09T08:01:53Z</time>
      </trkpt>
      <trkpt lat="44.47137" lon="1.52473">
        <ele>133.5</ele>
        <time>2021-08-09T08:01:54Z</time>
      </trkpt>
      <trkpt lat="44.4714" lon="1.52471">
        <ele>133.6</ele>
        <time>2021-08-09T08:01:55Z</time>
      </trkpt>
      <trkpt lat="44.47142" lon="1.52469">
        <ele>133.6</ele>
        <time>2021-08-09T08:01:56Z</time>
      </trkpt>
      <trkpt lat="44.47146" lon="1.52466">
        <ele>133.6</ele>
        <time>2021-08-09T08:01:58Z</time>
      </trkpt>
      <trkpt lat="44.4715" lon="1.52463">
        <ele>133.6</ele>
        <time>2021-08-09T08:01:59Z</time>
      </trkpt>
      <trkpt lat="44.47154" lon="1.52461">
        <ele>133.6</ele>
        <time>2021-08-09T08:02:00Z</time>
      </trkpt>
      <trkpt lat="44.47157" lon="1.52459">
        <ele>133.6</ele>
        <time>2021-08-09T08:02:01Z</time>
      </trkpt>
      <trkpt lat="44.4716" lon="1.52456">
        <ele>133.6</ele>
        <time>2021-08-09T08:02:02Z</time>
      </trkpt>
      <trkpt lat="44.47164" lon="1.52453">
        <ele>133.6</ele>
        <time>2021-08-09T08:02:03Z</time>
      </trkpt>
      <trkpt lat="44.47168" lon="1.5245">
        <ele>133.6</ele>
        <time>2021-08-09T08:02:05Z</time>
      </trkpt>
      <trkpt lat="44.47171" lon="1.52446">
        <ele>133.6</ele>
        <time>2021-08-09T08:02:06Z</time>
      </trkpt>
      <trkpt lat="44.47174" lon="1.52441">
        <ele>133.6</ele>
        <time>2021-08-09T08:02:07Z</time>
      </trkpt>
      <trkpt lat="44.47177" lon="1.52439">
        <ele>133.6</ele>
        <time>2021-08-09T08:02:08Z</time>
      </trkpt>
      <trkpt lat="44.47181" lon="1.52436">
        <ele>133.6</ele>
        <time>2021-08-09T08:02:10Z</time>
      </trkpt>
      <trkpt lat="44.47184" lon="1.52435">
        <ele>133.6</ele>
        <time>2021-08-09T08:02:11Z</time>
      </trkpt>
      <trkpt lat="44.47187" lon="1.52433">
        <ele>133.6</ele>
        <time>2021-08-09T08:02:12Z</time>
      </trkpt>
      <trkpt lat="44.47192" lon="1.5243">
        <ele>133.6</ele>
        <time>2021-08-09T08:02:13Z</time>
      </trkpt>
      <trkpt lat="44.47195" lon="1.52428">
        <ele>133.6</ele>
        <time>2021-08-09T08:02:14Z</time>
      </trkpt>
      <trkpt lat="44.47199" lon="1.52425">
        <ele>133.6</ele>
        <time>2021-08-09T08:02:15Z</time>
      </trkpt>
      <trkpt lat="44.47202" lon="1.52421">
        <ele>133.6</ele>
        <time>2021-08-09T08:02:16Z</time>
      </trkpt>
      <trkpt lat="44.47206" lon="1.52418">
        <ele>133.6</ele>
        <time>2021-08-09T08:02:18Z</time>
      </trkpt>
      <trkpt lat="44.4721" lon="1.52415">
        <ele>133.7</ele>
        <time>2021-08-09T08:02:19Z</time>
      </trkpt>
      <trkpt lat="44.47213" lon="1.52413">
        <ele>133.7</ele>
        <time>2021-08-09T08:02:20Z</time>
      </trkpt>
      <trkpt lat="44.47218" lon="1.52409">
        <ele>133.8</ele>
        <time>2021-08-09T08:02:22Z</time>
      </trkpt>
      <trkpt lat="44.47222" lon="1.52406">
        <ele>133.8</ele>
        <time>2021-08-09T08:02:23Z</time>
      </trkpt>
      <trkpt lat="44.47225" lon="1.52402">
        <ele>133.8</ele>
        <time>2021-08-09T08:02:24Z</time>
      </trkpt>
      <trkpt lat="44.47229" lon="1.52399">
        <ele>133.9</ele>
        <time>2021-08-09T08:02:26Z</time>
      </trkpt>
      <trkpt lat="44.47233" lon="1.52395">
        <ele>134</ele>
        <time>2021-08-09T08:02:27Z</time>
      </trkpt>
      <trkpt lat="44.47236" lon="1.52391">
        <ele>134</ele>
        <time>2021-08-09T08:02:28Z</time>
      </trkpt>
      <trkpt lat="44.47239" lon="1.52388">
        <ele>134</ele>
        <time>2021-08-09T08:02:29Z</time>
      </trkpt>
      <trkpt lat="44.47244" lon="1.52384">
        <ele>134.1</ele>
        <time>2021-08-09T08:02:31Z</time>
      </trkpt>
      <trkpt lat="44.47246" lon="1.52381">
        <ele>134.1</ele>
        <time>2021-08-09T08:02:32Z</time>
      </trkpt>
      <trkpt lat="44.47252" lon="1.52376">
        <ele>134.1</ele>
        <time>2021-08-09T08:02:34Z</time>
      </trkpt>
      <trkpt lat="44.47256" lon="1.52372">
        <ele>134.1</ele>
        <time>2021-08-09T08:02:35Z</time>
      </trkpt>
      <trkpt lat="44.47258" lon="1.52369">
        <ele>134.1</ele>
        <time>2021-08-09T08:02:37Z</time>
      </trkpt>
      <trkpt lat="44.47261" lon="1.52366">
        <ele>134.2</ele>
        <time>2021-08-09T08:02:38Z</time>
      </trkpt>
      <trkpt lat="44.47265" lon="1.52362">
        <ele>134.2</ele>
        <time>2021-08-09T08:02:39Z</time>
      </trkpt>
      <trkpt lat="44.47269" lon="1.52357">
        <ele>134.2</ele>
        <time>2021-08-09T08:02:41Z</time>
      </trkpt>
      <trkpt lat="44.47273" lon="1.52354">
        <ele>134.2</ele>
        <time>2021-08-09T08:02:42Z</time>
      </trkpt>
      <trkpt lat="44.47276" lon="1.52352">
        <ele>134.2</ele>
        <time>2021-08-09T08:02:43Z</time>
      </trkpt>
      <trkpt lat="44.47279" lon="1.5235">
        <ele>134.2</ele>
        <time>2021-08-09T08:02:44Z</time>
      </trkpt>
      <trkpt lat="44.47284" lon="1.52347">
        <ele>134.2</ele>
        <time>2021-08-09T08:02:46Z</time>
      </trkpt>
      <trkpt lat="44.47287" lon="1.52344">
        <ele>134.2</ele>
        <time>2021-08-09T08:02:47Z</time>
      </trkpt>
      <trkpt lat="44.4729" lon="1.52342">
        <ele>134.3</ele>
        <time>2021-08-09T08:02:48Z</time>
      </trkpt>
      <trkpt lat="44.47295" lon="1.52339">
        <ele>134.3</ele>
        <time>2021-08-09T08:02:50Z</time>
      </trkpt>
      <trkpt lat="44.47298" lon="1.52337">
        <ele>134.4</ele>
        <time>2021-08-09T08:02:51Z</time>
      </trkpt>
      <trkpt lat="44.47301" lon="1.52336">
        <ele>134.5</ele>
        <time>2021-08-09T08:02:52Z</time>
      </trkpt>
      <trkpt lat="44.47306" lon="1.52333">
        <ele>134.6</ele>
        <time>2021-08-09T08:02:54Z</time>
      </trkpt>
      <trkpt lat="44.4731" lon="1.52332">
        <ele>134.6</ele>
        <time>2021-08-09T08:02:55Z</time>
      </trkpt>
      <trkpt lat="44.47313" lon="1.52329">
        <ele>134.7</ele>
        <time>2021-08-09T08:02:56Z</time>
      </trkpt>
      <trkpt lat="44.47318" lon="1.52327">
        <ele>134.8</ele>
        <time>2021-08-09T08:02:57Z</time>
      </trkpt>
      <trkpt lat="44.47323" lon="1.52325">
        <ele>134.8</ele>
        <time>2021-08-09T08:02:59Z</time>
      </trkpt>
      <trkpt lat="44.47328" lon="1.52322">
        <ele>134.9</ele>
        <time>2021-08-09T08:03:01Z</time>
      </trkpt>
      <trkpt lat="44.47332" lon="1.5232">
        <ele>134.9</ele>
        <time>2021-08-09T08:03:02Z</time>
      </trkpt>
      <trkpt lat="44.47337" lon="1.52317">
        <ele>135</ele>
        <time>2021-08-09T08:03:04Z</time>
      </trkpt>
      <trkpt lat="44.4734" lon="1.52315">
        <ele>135</ele>
        <time>2021-08-09T08:03:05Z</time>
      </trkpt>
      <trkpt lat="44.47344" lon="1.5231">
        <ele>135.1</ele>
        <time>2021-08-09T08:03:07Z</time>
      </trkpt>
      <trkpt lat="44.47347" lon="1.52307">
        <ele>135.1</ele>
        <time>2021-08-09T08:03:08Z</time>
      </trkpt>
      <trkpt lat="44.4735" lon="1.52304">
        <ele>135.1</ele>
        <time>2021-08-09T08:03:09Z</time>
      </trkpt>
      <trkpt lat="44.47355" lon="1.523">
        <ele>135.2</ele>
        <time>2021-08-09T08:03:11Z</time>
      </trkpt>
      <trkpt lat="44.47358" lon="1.52298">
        <ele>135.3</ele>
        <time>2021-08-09T08:03:12Z</time>
      </trkpt>
      <trkpt lat="44.47362" lon="1.52295">
        <ele>135.3</ele>
        <time>2021-08-09T08:03:13Z</time>
      </trkpt>
      <trkpt lat="44.47366" lon="1.52291">
        <ele>135.4</ele>
        <time>2021-08-09T08:03:15Z</time>
      </trkpt>
      <trkpt lat="44.47369" lon="1.52288">
        <ele>135.4</ele>
        <time>2021-08-09T08:03:16Z</time>
      </trkpt>
      <trkpt lat="44.47371" lon="1.52285">
        <ele>135.4</ele>
        <time>2021-08-09T08:03:17Z</time>
      </trkpt>
      <trkpt lat="44.47374" lon="1.52282">
        <ele>135.4</ele>
        <time>2021-08-09T08:03:18Z</time>
      </trkpt>
      <trkpt lat="44.47379" lon="1.52276">
        <ele>135.4</ele>
        <time>2021-08-09T08:03:20Z</time>
      </trkpt>
      <trkpt lat="44.47381" lon="1.52273">
        <ele>135.4</ele>
        <time>2021-08-09T08:03:21Z</time>
      </trkpt>
      <trkpt lat="44.47385" lon="1.52269">
        <ele>135.4</ele>
        <time>2021-08-09T08:03:23Z</time>
      </trkpt>
      <trkpt lat="44.47389" lon="1.52266">
        <ele>135.5</ele>
        <time>2021-08-09T08:03:24Z</time>
      </trkpt>
      <trkpt lat="44.47392" lon="1.52263">
        <ele>135.5</ele>
        <time>2021-08-09T08:03:25Z</time>
      </trkpt>
      <trkpt lat="44.47396" lon="1.52261">
        <ele>135.6</ele>
        <time>2021-08-09T08:03:26Z</time>
      </trkpt>
      <trkpt lat="44.474" lon="1.52258">
        <ele>135.6</ele>
        <time>2021-08-09T08:03:28Z</time>
      </trkpt>
      <trkpt lat="44.47403" lon="1.52257">
        <ele>135.7</ele>
        <time>2021-08-09T08:03:29Z</time>
      </trkpt>
      <trkpt lat="44.47408" lon="1.52255">
        <ele>135.8</ele>
        <time>2021-08-09T08:03:31Z</time>
      </trkpt>
      <trkpt lat="44.47411" lon="1.52254">
        <ele>135.8</ele>
        <time>2021-08-09T08:03:32Z</time>
      </trkpt>
      <trkpt lat="44.47415" lon="1.52253">
        <ele>135.8</ele>
        <time>2021-08-09T08:03:33Z</time>
      </trkpt>
      <trkpt lat="44.47416" lon="1.52253">
        <ele>135.9</ele>
        <time>2021-08-09T08:03:34Z</time>
      </trkpt>
      <trkpt lat="44.47419" lon="1.52251">
        <ele>135.9</ele>
        <time>2021-08-09T08:03:35Z</time>
      </trkpt>
      <trkpt lat="44.47423" lon="1.52248">
        <ele>135.9</ele>
        <time>2021-08-09T08:03:36Z</time>
      </trkpt>
      <trkpt lat="44.47428" lon="1.52246">
        <ele>136</ele>
        <time>2021-08-09T08:03:38Z</time>
      </trkpt>
      <trkpt lat="44.47432" lon="1.52244">
        <ele>136</ele>
        <time>2021-08-09T08:03:39Z</time>
      </trkpt>
      <trkpt lat="44.47438" lon="1.52241">
        <ele>136.1</ele>
        <time>2021-08-09T08:03:41Z</time>
      </trkpt>
      <trkpt lat="44.47443" lon="1.52239">
        <ele>136.1</ele>
        <time>2021-08-09T08:03:42Z</time>
      </trkpt>
      <trkpt lat="44.47449" lon="1.52238">
        <ele>136.1</ele>
        <time>2021-08-09T08:03:43Z</time>
      </trkpt>
      <trkpt lat="44.47456" lon="1.52237">
        <ele>136.2</ele>
        <time>2021-08-09T08:03:45Z</time>
      </trkpt>
      <trkpt lat="44.47461" lon="1.52236">
        <ele>136.2</ele>
        <time>2021-08-09T08:03:46Z</time>
      </trkpt>
      <trkpt lat="44.47465" lon="1.52235">
        <ele>136.3</ele>
        <time>2021-08-09T08:03:47Z</time>
      </trkpt>
      <trkpt lat="44.47469" lon="1.52233">
        <ele>136.4</ele>
        <time>2021-08-09T08:03:48Z</time>
      </trkpt>
      <trkpt lat="44.47475" lon="1.52231">
        <ele>136.4</ele>
        <time>2021-08-09T08:03:50Z</time>
      </trkpt>
      <trkpt lat="44.4748" lon="1.52228">
        <ele>136.5</ele>
        <time>2021-08-09T08:03:51Z</time>
      </trkpt>
      <trkpt lat="44.47485" lon="1.52225">
        <ele>136.5</ele>
        <time>2021-08-09T08:03:53Z</time>
      </trkpt>
      <trkpt lat="44.4749" lon="1.52223">
        <ele>136.6</ele>
        <time>2021-08-09T08:03:54Z</time>
      </trkpt>
      <trkpt lat="44.47493" lon="1.52221">
        <ele>136.6</ele>
        <time>2021-08-09T08:03:55Z</time>
      </trkpt>
      <trkpt lat="44.47497" lon="1.52219">
        <ele>136.7</ele>
        <time>2021-08-09T08:03:56Z</time>
      </trkpt>
      <trkpt lat="44.47502" lon="1.52217">
        <ele>136.7</ele>
        <time>2021-08-09T08:03:58Z</time>
      </trkpt>
      <trkpt lat="44.47507" lon="1.52214">
        <ele>136.8</ele>
        <time>2021-08-09T08:03:59Z</time>
      </trkpt>
      <trkpt lat="44.4751" lon="1.52211">
        <ele>136.8</ele>
        <time>2021-08-09T08:04:00Z</time>
      </trkpt>
      <trkpt lat="44.47514" lon="1.52207">
        <ele>136.9</ele>
        <time>2021-08-09T08:04:02Z</time>
      </trkpt>
      <trkpt lat="44.47519" lon="1.52204">
        <ele>136.9</ele>
        <time>2021-08-09T08:04:03Z</time>
      </trkpt>
      <trkpt lat="44.47522" lon="1.52202">
        <ele>137</ele>
        <time>2021-08-09T08:04:04Z</time>
      </trkpt>
      <trkpt lat="44.47525" lon="1.522">
        <ele>137</ele>
        <time>2021-08-09T08:04:05Z</time>
      </trkpt>
      <trkpt lat="44.47528" lon="1.52197">
        <ele>137</ele>
        <time>2021-08-09T08:04:06Z</time>
      </trkpt>
      <trkpt lat="44.47532" lon="1.52195">
        <ele>137.1</ele>
        <time>2021-08-09T08:04:07Z</time>
      </trkpt>
      <trkpt lat="44.47536" lon="1.52192">
        <ele>137.1</ele>
        <time>2021-08-09T08:04:08Z</time>
      </trkpt>
      <trkpt lat="44.4754" lon="1.5219">
        <ele>137.1</ele>
        <time>2021-08-09T08:04:10Z</time>
      </trkpt>
      <trkpt lat="44.47543" lon="1.52186">
        <ele>137.1</ele>
        <time>2021-08-09T08:04:11Z</time>
      </trkpt>
      <trkpt lat="44.47548" lon="1.52183">
        <ele>137.1</ele>
        <time>2021-08-09T08:04:13Z</time>
      </trkpt>
      <trkpt lat="44.47551" lon="1.52181">
        <ele>137.1</ele>
        <time>2021-08-09T08:04:14Z</time>
      </trkpt>
      <trkpt lat="44.47555" lon="1.5218">
        <ele>137.1</ele>
        <time>2021-08-09T08:04:15Z</time>
      </trkpt>
      <trkpt lat="44.47558" lon="1.52178">
        <ele>137.2</ele>
        <time>2021-08-09T08:04:16Z</time>
      </trkpt>
      <trkpt lat="44.4756" lon="1.52176">
        <ele>137.2</ele>
        <time>2021-08-09T08:04:17Z</time>
      </trkpt>
      <trkpt lat="44.47566" lon="1.52172">
        <ele>137.2</ele>
        <time>2021-08-09T08:04:19Z</time>
      </trkpt>
      <trkpt lat="44.47569" lon="1.52169">
        <ele>137.1</ele>
        <time>2021-08-09T08:04:20Z</time>
      </trkpt>
      <trkpt lat="44.47571" lon="1.52166">
        <ele>136.9</ele>
        <time>2021-08-09T08:04:21Z</time>
      </trkpt>
      <trkpt lat="44.47573" lon="1.52162">
        <ele>136.7</ele>
        <time>2021-08-09T08:04:23Z</time>
      </trkpt>
      <trkpt lat="44.47573" lon="1.52161">
        <ele>136.7</ele>
        <time>2021-08-09T08:04:25Z</time>
      </trkpt>
      <trkpt lat="44.47574" lon="1.5216">
        <ele>136.6</ele>
        <time>2021-08-09T08:04:26Z</time>
      </trkpt>
      <trkpt lat="44.47574" lon="1.52159">
        <ele>136.6</ele>
        <time>2021-08-09T08:04:28Z</time>
      </trkpt>
      <trkpt lat="44.47574" lon="1.52158">
        <ele>136.5</ele>
        <time>2021-08-09T08:04:29Z</time>
      </trkpt>
      <trkpt lat="44.47574" lon="1.52157">
        <ele>136.5</ele>
        <time>2021-08-09T08:04:31Z</time>
      </trkpt>
      <trkpt lat="44.47574" lon="1.52156">
        <ele>136.4</ele>
        <time>2021-08-09T08:04:32Z</time>
      </trkpt>
      <trkpt lat="44.47574" lon="1.52154">
        <ele>136.4</ele>
        <time>2021-08-09T08:04:34Z</time>
      </trkpt>
      <trkpt lat="44.47575" lon="1.52153">
        <ele>136.3</ele>
        <time>2021-08-09T08:05:18Z</time>
      </trkpt>
      <trkpt lat="44.47575" lon="1.52152">
        <ele>136.3</ele>
        <time>2021-08-09T08:05:20Z</time>
      </trkpt>
      <trkpt lat="44.47575" lon="1.52151">
        <ele>136.2</ele>
        <time>2021-08-09T08:05:21Z</time>
      </trkpt>
      <trkpt lat="44.47577" lon="1.52147">
        <ele>136.1</ele>
        <time>2021-08-09T08:05:23Z</time>
      </trkpt>
      <trkpt lat="44.47578" lon="1.52146">
        <ele>136</ele>
        <time>2021-08-09T08:05:24Z</time>
      </trkpt>
      <trkpt lat="44.47578" lon="1.52141">
        <ele>135.9</ele>
        <time>2021-08-09T08:05:25Z</time>
      </trkpt>
      <trkpt lat="44.47579" lon="1.52139">
        <ele>135.8</ele>
        <time>2021-08-09T08:05:26Z</time>
      </trkpt>
      <trkpt lat="44.4758" lon="1.52135">
        <ele>135.7</ele>
        <time>2021-08-09T08:05:28Z</time>
      </trkpt>
      <trkpt lat="44.47581" lon="1.52133">
        <ele>135.6</ele>
        <time>2021-08-09T08:05:29Z</time>
      </trkpt>
      <trkpt lat="44.47582" lon="1.52127">
        <ele>135.5</ele>
        <time>2021-08-09T08:05:31Z</time>
      </trkpt>
      <trkpt lat="44.47584" lon="1.52123">
        <ele>135.4</ele>
        <time>2021-08-09T08:05:33Z</time>
      </trkpt>
      <trkpt lat="44.47586" lon="1.52116">
        <ele>135.3</ele>
        <time>2021-08-09T08:05:35Z</time>
      </trkpt>
      <trkpt lat="44.47587" lon="1.52114">
        <ele>135.3</ele>
        <time>2021-08-09T08:05:36Z</time>
      </trkpt>
      <trkpt lat="44.47588" lon="1.52111">
        <ele>135.4</ele>
        <time>2021-08-09T08:05:37Z</time>
      </trkpt>
      <trkpt lat="44.4759" lon="1.52107">
        <ele>135.5</ele>
        <time>2021-08-09T08:05:39Z</time>
      </trkpt>
      <trkpt lat="44.47593" lon="1.52103">
        <ele>135.9</ele>
        <time>2021-08-09T08:05:40Z</time>
      </trkpt>
      <trkpt lat="44.47596" lon="1.52097">
        <ele>136.5</ele>
        <time>2021-08-09T08:05:41Z</time>
      </trkpt>
      <trkpt lat="44.47599" lon="1.52093">
        <ele>137</ele>
        <time>2021-08-09T08:05:42Z</time>
      </trkpt>
      <trkpt lat="44.47606" lon="1.52087">
        <ele>136.9</ele>
        <time>2021-08-09T08:05:44Z</time>
      </trkpt>
      <trkpt lat="44.47611" lon="1.52084">
        <ele>136.8</ele>
        <time>2021-08-09T08:05:45Z</time>
      </trkpt>
      <trkpt lat="44.47615" lon="1.52082">
        <ele>136.7</ele>
        <time>2021-08-09T08:05:46Z</time>
      </trkpt>
      <trkpt lat="44.47619" lon="1.5208">
        <ele>136.7</ele>
        <time>2021-08-09T08:05:47Z</time>
      </trkpt>
      <trkpt lat="44.47625" lon="1.52078">
        <ele>136.6</ele>
        <time>2021-08-09T08:05:48Z</time>
      </trkpt>
      <trkpt lat="44.47629" lon="1.52077">
        <ele>136.6</ele>
        <time>2021-08-09T08:05:50Z</time>
      </trkpt>
      <trkpt lat="44.47633" lon="1.52075">
        <ele>136.6</ele>
        <time>2021-08-09T08:05:51Z</time>
      </trkpt>
      <trkpt lat="44.47637" lon="1.52074">
        <ele>136.7</ele>
        <time>2021-08-09T08:05:52Z</time>
      </trkpt>
      <trkpt lat="44.47641" lon="1.52073">
        <ele>136.7</ele>
        <time>2021-08-09T08:05:53Z</time>
      </trkpt>
      <trkpt lat="44.47645" lon="1.52072">
        <ele>136.7</ele>
        <time>2021-08-09T08:05:55Z</time>
      </trkpt>
      <trkpt lat="44.47649" lon="1.52071">
        <ele>136.8</ele>
        <time>2021-08-09T08:05:56Z</time>
      </trkpt>
      <trkpt lat="44.47653" lon="1.5207">
        <ele>136.8</ele>
        <time>2021-08-09T08:05:57Z</time>
      </trkpt>
      <trkpt lat="44.47656" lon="1.52069">
        <ele>136.8</ele>
        <time>2021-08-09T08:05:58Z</time>
      </trkpt>
      <trkpt lat="44.47658" lon="1.52068">
        <ele>136.9</ele>
        <time>2021-08-09T08:06:00Z</time>
      </trkpt>
      <trkpt lat="44.47662" lon="1.52067">
        <ele>136.9</ele>
        <time>2021-08-09T08:06:01Z</time>
      </trkpt>
      <trkpt lat="44.47665" lon="1.52067">
        <ele>136.9</ele>
        <time>2021-08-09T08:06:02Z</time>
      </trkpt>
      <trkpt lat="44.47669" lon="1.52067">
        <ele>136.9</ele>
        <time>2021-08-09T08:06:03Z</time>
      </trkpt>
      <trkpt lat="44.47675" lon="1.52066">
        <ele>136.9</ele>
        <time>2021-08-09T08:06:05Z</time>
      </trkpt>
      <trkpt lat="44.47678" lon="1.52066">
        <ele>136.9</ele>
        <time>2021-08-09T08:06:06Z</time>
      </trkpt>
      <trkpt lat="44.47684" lon="1.52068">
        <ele>137</ele>
        <time>2021-08-09T08:06:07Z</time>
      </trkpt>
      <trkpt lat="44.47688" lon="1.52069">
        <ele>137</ele>
        <time>2021-08-09T08:06:09Z</time>
      </trkpt>
      <trkpt lat="44.47693" lon="1.52071">
        <ele>137.1</ele>
        <time>2021-08-09T08:06:10Z</time>
      </trkpt>
      <trkpt lat="44.47698" lon="1.52073">
        <ele>137.2</ele>
        <time>2021-08-09T08:06:11Z</time>
      </trkpt>
      <trkpt lat="44.47704" lon="1.52076">
        <ele>137.3</ele>
        <time>2021-08-09T08:06:13Z</time>
      </trkpt>
      <trkpt lat="44.47708" lon="1.52077">
        <ele>137.3</ele>
        <time>2021-08-09T08:06:14Z</time>
      </trkpt>
      <trkpt lat="44.47711" lon="1.52079">
        <ele>137.3</ele>
        <time>2021-08-09T08:06:15Z</time>
      </trkpt>
      <trkpt lat="44.47714" lon="1.52081">
        <ele>137.3</ele>
        <time>2021-08-09T08:06:16Z</time>
      </trkpt>
      <trkpt lat="44.47719" lon="1.52084">
        <ele>137.4</ele>
        <time>2021-08-09T08:06:18Z</time>
      </trkpt>
      <trkpt lat="44.47724" lon="1.52086">
        <ele>137.5</ele>
        <time>2021-08-09T08:06:19Z</time>
      </trkpt>
      <trkpt lat="44.4773" lon="1.52089">
        <ele>137.5</ele>
        <time>2021-08-09T08:06:21Z</time>
      </trkpt>
      <trkpt lat="44.47733" lon="1.52092">
        <ele>137.6</ele>
        <time>2021-08-09T08:06:22Z</time>
      </trkpt>
      <trkpt lat="44.47736" lon="1.52094">
        <ele>137.6</ele>
        <time>2021-08-09T08:06:23Z</time>
      </trkpt>
      <trkpt lat="44.47741" lon="1.52096">
        <ele>137.8</ele>
        <time>2021-08-09T08:06:24Z</time>
      </trkpt>
      <trkpt lat="44.47745" lon="1.52097">
        <ele>137.9</ele>
        <time>2021-08-09T08:06:25Z</time>
      </trkpt>
      <trkpt lat="44.47748" lon="1.52099">
        <ele>138</ele>
        <time>2021-08-09T08:06:27Z</time>
      </trkpt>
      <trkpt lat="44.47752" lon="1.52101">
        <ele>138.1</ele>
        <time>2021-08-09T08:06:28Z</time>
      </trkpt>
      <trkpt lat="44.47756" lon="1.52102">
        <ele>138.2</ele>
        <time>2021-08-09T08:06:29Z</time>
      </trkpt>
      <trkpt lat="44.47759" lon="1.52102">
        <ele>138.3</ele>
        <time>2021-08-09T08:06:31Z</time>
      </trkpt>
      <trkpt lat="44.47763" lon="1.52102">
        <ele>138.4</ele>
        <time>2021-08-09T08:06:32Z</time>
      </trkpt>
      <trkpt lat="44.47767" lon="1.52104">
        <ele>138.5</ele>
        <time>2021-08-09T08:06:34Z</time>
      </trkpt>
      <trkpt lat="44.47769" lon="1.52103">
        <ele>138.6</ele>
        <time>2021-08-09T08:06:35Z</time>
      </trkpt>
      <trkpt lat="44.47769" lon="1.52102">
        <ele>138.6</ele>
        <time>2021-08-09T08:06:37Z</time>
      </trkpt>
      <trkpt lat="44.4777" lon="1.52102">
        <ele>138.6</ele>
        <time>2021-08-09T08:06:38Z</time>
      </trkpt>
      <trkpt lat="44.47771" lon="1.52102">
        <ele>138.7</ele>
        <time>2021-08-09T08:06:40Z</time>
      </trkpt>
      <trkpt lat="44.47771" lon="1.52102">
        <ele>138.7</ele>
        <time>2021-08-09T08:06:42Z</time>
      </trkpt>
      <trkpt lat="44.47772" lon="1.52102">
        <ele>138.7</ele>
        <time>2021-08-09T08:06:43Z</time>
      </trkpt>
      <trkpt lat="44.47773" lon="1.52102">
        <ele>138.7</ele>
        <time>2021-08-09T08:06:44Z</time>
      </trkpt>
      <trkpt lat="44.47773" lon="1.52101">
        <ele>138.7</ele>
        <time>2021-08-09T08:07:59Z</time>
      </trkpt>
      <trkpt lat="44.47774" lon="1.52101">
        <ele>138.7</ele>
        <time>2021-08-09T08:08:00Z</time>
      </trkpt>
      <trkpt lat="44.47777" lon="1.52102">
        <ele>138.8</ele>
        <time>2021-08-09T08:08:02Z</time>
      </trkpt>
      <trkpt lat="44.47781" lon="1.52103">
        <ele>138.9</ele>
        <time>2021-08-09T08:08:04Z</time>
      </trkpt>
      <trkpt lat="44.47785" lon="1.52105">
        <ele>139</ele>
        <time>2021-08-09T08:08:06Z</time>
      </trkpt>
      <trkpt lat="44.47789" lon="1.52108">
        <ele>139.1</ele>
        <time>2021-08-09T08:08:08Z</time>
      </trkpt>
      <trkpt lat="44.47791" lon="1.52109">
        <ele>139.2</ele>
        <time>2021-08-09T08:08:09Z</time>
      </trkpt>
      <trkpt lat="44.47796" lon="1.52111">
        <ele>139.3</ele>
        <time>2021-08-09T08:08:11Z</time>
      </trkpt>
      <trkpt lat="44.47801" lon="1.52113">
        <ele>139.4</ele>
        <time>2021-08-09T08:08:13Z</time>
      </trkpt>
      <trkpt lat="44.47804" lon="1.52114">
        <ele>139.4</ele>
        <time>2021-08-09T08:08:14Z</time>
      </trkpt>
      <trkpt lat="44.47812" lon="1.52115">
        <ele>139.6</ele>
        <time>2021-08-09T08:08:16Z</time>
      </trkpt>
      <trkpt lat="44.47819" lon="1.52118">
        <ele>139.7</ele>
        <time>2021-08-09T08:08:18Z</time>
      </trkpt>
      <trkpt lat="44.47822" lon="1.52118">
        <ele>139.8</ele>
        <time>2021-08-09T08:08:19Z</time>
      </trkpt>
      <trkpt lat="44.47824" lon="1.52119">
        <ele>139.8</ele>
        <time>2021-08-09T08:08:20Z</time>
      </trkpt>
      <trkpt lat="44.47829" lon="1.52119">
        <ele>139.9</ele>
        <time>2021-08-09T08:08:22Z</time>
      </trkpt>
      <trkpt lat="44.47833" lon="1.5212">
        <ele>140.1</ele>
        <time>2021-08-09T08:08:24Z</time>
      </trkpt>
      <trkpt lat="44.47837" lon="1.52122">
        <ele>140.2</ele>
        <time>2021-08-09T08:08:25Z</time>
      </trkpt>
      <trkpt lat="44.47838" lon="1.52123">
        <ele>140.2</ele>
        <time>2021-08-09T08:08:26Z</time>
      </trkpt>
      <trkpt lat="44.47842" lon="1.52125">
        <ele>140.3</ele>
        <time>2021-08-09T08:08:28Z</time>
      </trkpt>
      <trkpt lat="44.47845" lon="1.52127">
        <ele>140.4</ele>
        <time>2021-08-09T08:08:29Z</time>
      </trkpt>
      <trkpt lat="44.4785" lon="1.52129">
        <ele>140.5</ele>
        <time>2021-08-09T08:08:31Z</time>
      </trkpt>
      <trkpt lat="44.47853" lon="1.52129">
        <ele>140.6</ele>
        <time>2021-08-09T08:08:32Z</time>
      </trkpt>
      <trkpt lat="44.47857" lon="1.52128">
        <ele>140.6</ele>
        <time>2021-08-09T08:08:34Z</time>
      </trkpt>
      <trkpt lat="44.4786" lon="1.52127">
        <ele>140.7</ele>
        <time>2021-08-09T08:08:35Z</time>
      </trkpt>
      <trkpt lat="44.47863" lon="1.52125">
        <ele>140.8</ele>
        <time>2021-08-09T08:08:36Z</time>
      </trkpt>
      <trkpt lat="44.47865" lon="1.52122">
        <ele>140.9</ele>
        <time>2021-08-09T08:08:37Z</time>
      </trkpt>
      <trkpt lat="44.47867" lon="1.52119">
        <ele>141</ele>
        <time>2021-08-09T08:08:38Z</time>
      </trkpt>
      <trkpt lat="44.47868" lon="1.52115">
        <ele>141.1</ele>
        <time>2021-08-09T08:08:40Z</time>
      </trkpt>
      <trkpt lat="44.47869" lon="1.52112">
        <ele>141.2</ele>
        <time>2021-08-09T08:08:41Z</time>
      </trkpt>
      <trkpt lat="44.47871" lon="1.52107">
        <ele>141.4</ele>
        <time>2021-08-09T08:08:42Z</time>
      </trkpt>
      <trkpt lat="44.47872" lon="1.52103">
        <ele>141.5</ele>
        <time>2021-08-09T08:08:43Z</time>
      </trkpt>
      <trkpt lat="44.47874" lon="1.521">
        <ele>141.6</ele>
        <time>2021-08-09T08:08:44Z</time>
      </trkpt>
      <trkpt lat="44.47877" lon="1.52096">
        <ele>141.8</ele>
        <time>2021-08-09T08:08:46Z</time>
      </trkpt>
      <trkpt lat="44.47879" lon="1.52095">
        <ele>141.9</ele>
        <time>2021-08-09T08:08:47Z</time>
      </trkpt>
      <trkpt lat="44.4788" lon="1.52094">
        <ele>141.9</ele>
        <time>2021-08-09T08:08:48Z</time>
      </trkpt>
      <trkpt lat="44.47883" lon="1.52092">
        <ele>142.1</ele>
        <time>2021-08-09T08:08:49Z</time>
      </trkpt>
      <trkpt lat="44.47884" lon="1.52091">
        <ele>142.1</ele>
        <time>2021-08-09T08:08:50Z</time>
      </trkpt>
      <trkpt lat="44.47887" lon="1.5209">
        <ele>142.3</ele>
        <time>2021-08-09T08:08:51Z</time>
      </trkpt>
      <trkpt lat="44.47891" lon="1.52088">
        <ele>142.5</ele>
        <time>2021-08-09T08:08:53Z</time>
      </trkpt>
      <trkpt lat="44.47894" lon="1.52086">
        <ele>142.6</ele>
        <time>2021-08-09T08:08:54Z</time>
      </trkpt>
      <trkpt lat="44.47895" lon="1.52085">
        <ele>142.7</ele>
        <time>2021-08-09T08:08:55Z</time>
      </trkpt>
      <trkpt lat="44.47899" lon="1.52084">
        <ele>142.9</ele>
        <time>2021-08-09T08:08:57Z</time>
      </trkpt>
      <trkpt lat="44.47902" lon="1.52083">
        <ele>143</ele>
        <time>2021-08-09T08:08:58Z</time>
      </trkpt>
      <trkpt lat="44.47905" lon="1.52083">
        <ele>143.1</ele>
        <time>2021-08-09T08:09:00Z</time>
      </trkpt>
      <trkpt lat="44.47909" lon="1.52081">
        <ele>143.3</ele>
        <time>2021-08-09T08:09:01Z</time>
      </trkpt>
      <trkpt lat="44.47913" lon="1.5208">
        <ele>143.4</ele>
        <time>2021-08-09T08:09:02Z</time>
      </trkpt>
      <trkpt lat="44.47915" lon="1.5208">
        <ele>143.5</ele>
        <time>2021-08-09T08:09:03Z</time>
      </trkpt>
      <trkpt lat="44.47919" lon="1.5208">
        <ele>143.6</ele>
        <time>2021-08-09T08:09:04Z</time>
      </trkpt>
      <trkpt lat="44.47924" lon="1.52079">
        <ele>143.7</ele>
        <time>2021-08-09T08:09:06Z</time>
      </trkpt>
      <trkpt lat="44.47927" lon="1.52078">
        <ele>143.8</ele>
        <time>2021-08-09T08:09:07Z</time>
      </trkpt>
      <trkpt lat="44.47929" lon="1.52077">
        <ele>143.8</ele>
        <time>2021-08-09T08:09:08Z</time>
      </trkpt>
      <trkpt lat="44.47934" lon="1.52076">
        <ele>143.9</ele>
        <time>2021-08-09T08:09:10Z</time>
      </trkpt>
      <trkpt lat="44.47936" lon="1.52076">
        <ele>143.9</ele>
        <time>2021-08-09T08:09:11Z</time>
      </trkpt>
      <trkpt lat="44.4794" lon="1.52077">
        <ele>144</ele>
        <time>2021-08-09T08:09:12Z</time>
      </trkpt>
      <trkpt lat="44.47942" lon="1.52077">
        <ele>144</ele>
        <time>2021-08-09T08:09:13Z</time>
      </trkpt>
      <trkpt lat="44.47944" lon="1.52077">
        <ele>144</ele>
        <time>2021-08-09T08:09:14Z</time>
      </trkpt>
      <trkpt lat="44.47948" lon="1.52077">
        <ele>144.1</ele>
        <time>2021-08-09T08:09:16Z</time>
      </trkpt>
      <trkpt lat="44.47952" lon="1.52077">
        <ele>144.1</ele>
        <time>2021-08-09T08:09:17Z</time>
      </trkpt>
      <trkpt lat="44.47954" lon="1.52078">
        <ele>144.1</ele>
        <time>2021-08-09T08:09:18Z</time>
      </trkpt>
      <trkpt lat="44.47957" lon="1.52078">
        <ele>144.1</ele>
        <time>2021-08-09T08:09:19Z</time>
      </trkpt>
      <trkpt lat="44.47961" lon="1.52078">
        <ele>144.1</ele>
        <time>2021-08-09T08:09:20Z</time>
      </trkpt>
      <trkpt lat="44.47967" lon="1.52079">
        <ele>144.1</ele>
        <time>2021-08-09T08:09:22Z</time>
      </trkpt>
      <trkpt lat="44.47973" lon="1.5208">
        <ele>144</ele>
        <time>2021-08-09T08:09:24Z</time>
      </trkpt>
      <trkpt lat="44.47977" lon="1.52079">
        <ele>144</ele>
        <time>2021-08-09T08:09:25Z</time>
      </trkpt>
      <trkpt lat="44.47981" lon="1.52078">
        <ele>144</ele>
        <time>2021-08-09T08:09:26Z</time>
      </trkpt>
      <trkpt lat="44.47985" lon="1.52079">
        <ele>143.9</ele>
        <time>2021-08-09T08:09:27Z</time>
      </trkpt>
      <trkpt lat="44.47991" lon="1.5208">
        <ele>143.9</ele>
        <time>2021-08-09T08:09:29Z</time>
      </trkpt>
      <trkpt lat="44.47994" lon="1.52082">
        <ele>143.9</ele>
        <time>2021-08-09T08:09:30Z</time>
      </trkpt>
      <trkpt lat="44.47999" lon="1.52083">
        <ele>143.9</ele>
        <time>2021-08-09T08:09:31Z</time>
      </trkpt>
      <trkpt lat="44.48003" lon="1.52084">
        <ele>143.9</ele>
        <time>2021-08-09T08:09:32Z</time>
      </trkpt>
      <trkpt lat="44.48007" lon="1.52085">
        <ele>143.9</ele>
        <time>2021-08-09T08:09:33Z</time>
      </trkpt>
      <trkpt lat="44.48012" lon="1.52087">
        <ele>143.9</ele>
        <time>2021-08-09T08:09:35Z</time>
      </trkpt>
      <trkpt lat="44.48018" lon="1.52087">
        <ele>143.9</ele>
        <time>2021-08-09T08:09:37Z</time>
      </trkpt>
      <trkpt lat="44.48023" lon="1.52087">
        <ele>143.9</ele>
        <time>2021-08-09T08:09:38Z</time>
      </trkpt>
      <trkpt lat="44.48027" lon="1.52085">
        <ele>144</ele>
        <time>2021-08-09T08:09:39Z</time>
      </trkpt>
      <trkpt lat="44.48031" lon="1.52084">
        <ele>144</ele>
        <time>2021-08-09T08:09:41Z</time>
      </trkpt>
      <trkpt lat="44.48035" lon="1.52081">
        <ele>144</ele>
        <time>2021-08-09T08:09:42Z</time>
      </trkpt>
      <trkpt lat="44.4804" lon="1.52077">
        <ele>144.1</ele>
        <time>2021-08-09T08:09:44Z</time>
      </trkpt>
      <trkpt lat="44.48044" lon="1.52074">
        <ele>144.1</ele>
        <time>2021-08-09T08:09:45Z</time>
      </trkpt>
      <trkpt lat="44.48048" lon="1.5207">
        <ele>144.1</ele>
        <time>2021-08-09T08:09:46Z</time>
      </trkpt>
      <trkpt lat="44.48051" lon="1.52067">
        <ele>144.1</ele>
        <time>2021-08-09T08:09:47Z</time>
      </trkpt>
      <trkpt lat="44.48056" lon="1.52062">
        <ele>144.1</ele>
        <time>2021-08-09T08:09:48Z</time>
      </trkpt>
      <trkpt lat="44.48059" lon="1.5206">
        <ele>144.1</ele>
        <time>2021-08-09T08:09:50Z</time>
      </trkpt>
      <trkpt lat="44.48063" lon="1.52057">
        <ele>144.1</ele>
        <time>2021-08-09T08:09:51Z</time>
      </trkpt>
      <trkpt lat="44.48065" lon="1.52055">
        <ele>144.1</ele>
        <time>2021-08-09T08:09:52Z</time>
      </trkpt>
      <trkpt lat="44.48069" lon="1.52051">
        <ele>144.1</ele>
        <time>2021-08-09T08:09:54Z</time>
      </trkpt>
      <trkpt lat="44.48072" lon="1.52048">
        <ele>144.1</ele>
        <time>2021-08-09T08:09:55Z</time>
      </trkpt>
      <trkpt lat="44.48075" lon="1.52045">
        <ele>144.1</ele>
        <time>2021-08-09T08:09:56Z</time>
      </trkpt>
      <trkpt lat="44.48078" lon="1.52043">
        <ele>144.1</ele>
        <time>2021-08-09T08:09:57Z</time>
      </trkpt>
      <trkpt lat="44.48082" lon="1.52041">
        <ele>144.1</ele>
        <time>2021-08-09T08:09:59Z</time>
      </trkpt>
      <trkpt lat="44.48086" lon="1.52039">
        <ele>144.1</ele>
        <time>2021-08-09T08:10:00Z</time>
      </trkpt>
      <trkpt lat="44.48089" lon="1.52036">
        <ele>144.1</ele>
        <time>2021-08-09T08:10:01Z</time>
      </trkpt>
      <trkpt lat="44.48092" lon="1.52033">
        <ele>144.2</ele>
        <time>2021-08-09T08:10:03Z</time>
      </trkpt>
      <trkpt lat="44.48094" lon="1.52032">
        <ele>144.2</ele>
        <time>2021-08-09T08:10:04Z</time>
      </trkpt>
      <trkpt lat="44.48095" lon="1.52031">
        <ele>144.2</ele>
        <time>2021-08-09T08:10:05Z</time>
      </trkpt>
      <trkpt lat="44.48097" lon="1.52029">
        <ele>144.2</ele>
        <time>2021-08-09T08:10:06Z</time>
      </trkpt>
      <trkpt lat="44.48098" lon="1.52028">
        <ele>144.2</ele>
        <time>2021-08-09T08:10:07Z</time>
      </trkpt>
      <trkpt lat="44.48099" lon="1.52027">
        <ele>144.3</ele>
        <time>2021-08-09T08:10:08Z</time>
      </trkpt>
      <trkpt lat="44.48101" lon="1.52025">
        <ele>144.3</ele>
        <time>2021-08-09T08:10:10Z</time>
      </trkpt>
      <trkpt lat="44.48103" lon="1.52021">
        <ele>144.3</ele>
        <time>2021-08-09T08:10:11Z</time>
      </trkpt>
      <trkpt lat="44.48104" lon="1.52019">
        <ele>144.3</ele>
        <time>2021-08-09T08:10:12Z</time>
      </trkpt>
      <trkpt lat="44.48106" lon="1.52014">
        <ele>144.3</ele>
        <time>2021-08-09T08:10:14Z</time>
      </trkpt>
      <trkpt lat="44.48108" lon="1.5201">
        <ele>144.3</ele>
        <time>2021-08-09T08:10:15Z</time>
      </trkpt>
      <trkpt lat="44.4811" lon="1.52005">
        <ele>144.3</ele>
        <time>2021-08-09T08:10:17Z</time>
      </trkpt>
      <trkpt lat="44.48111" lon="1.52002">
        <ele>144.3</ele>
        <time>2021-08-09T08:10:18Z</time>
      </trkpt>
      <trkpt lat="44.48113" lon="1.51998">
        <ele>144.3</ele>
        <time>2021-08-09T08:10:19Z</time>
      </trkpt>
      <trkpt lat="44.48115" lon="1.51994">
        <ele>144.3</ele>
        <time>2021-08-09T08:10:20Z</time>
      </trkpt>
      <trkpt lat="44.48116" lon="1.51992">
        <ele>144.3</ele>
        <time>2021-08-09T08:10:21Z</time>
      </trkpt>
      <trkpt lat="44.48118" lon="1.51989">
        <ele>144.3</ele>
        <time>2021-08-09T08:10:23Z</time>
      </trkpt>
      <trkpt lat="44.48121" lon="1.51985">
        <ele>144.3</ele>
        <time>2021-08-09T08:10:25Z</time>
      </trkpt>
      <trkpt lat="44.48123" lon="1.51981">
        <ele>144.4</ele>
        <time>2021-08-09T08:10:27Z</time>
      </trkpt>
      <trkpt lat="44.48124" lon="1.51979">
        <ele>144.5</ele>
        <time>2021-08-09T08:10:28Z</time>
      </trkpt>
      <trkpt lat="44.48126" lon="1.51979">
        <ele>144.5</ele>
        <time>2021-08-09T08:10:29Z</time>
      </trkpt>
      <trkpt lat="44.4813" lon="1.51981">
        <ele>144.5</ele>
        <time>2021-08-09T08:10:31Z</time>
      </trkpt>
      <trkpt lat="44.48133" lon="1.5198">
        <ele>144.4</ele>
        <time>2021-08-09T08:10:32Z</time>
      </trkpt>
      <trkpt lat="44.48137" lon="1.51979">
        <ele>144.4</ele>
        <time>2021-08-09T08:10:33Z</time>
      </trkpt>
      <trkpt lat="44.48141" lon="1.5198">
        <ele>144.5</ele>
        <time>2021-08-09T08:10:34Z</time>
      </trkpt>
      <trkpt lat="44.48144" lon="1.51982">
        <ele>144.7</ele>
        <time>2021-08-09T08:10:36Z</time>
      </trkpt>
      <trkpt lat="44.48147" lon="1.51986">
        <ele>145.1</ele>
        <time>2021-08-09T08:10:37Z</time>
      </trkpt>
      <trkpt lat="44.48149" lon="1.51988">
        <ele>145.3</ele>
        <time>2021-08-09T08:10:38Z</time>
      </trkpt>
      <trkpt lat="44.48155" lon="1.51988">
        <ele>145.5</ele>
        <time>2021-08-09T08:10:40Z</time>
      </trkpt>
      <trkpt lat="44.48158" lon="1.51984">
        <ele>145.3</ele>
        <time>2021-08-09T08:10:41Z</time>
      </trkpt>
      <trkpt lat="44.48162" lon="1.51981">
        <ele>145.2</ele>
        <time>2021-08-09T08:10:43Z</time>
      </trkpt>
      <trkpt lat="44.48165" lon="1.51976">
        <ele>145.2</ele>
        <time>2021-08-09T08:10:44Z</time>
      </trkpt>
      <trkpt lat="44.48169" lon="1.51973">
        <ele>145.3</ele>
        <time>2021-08-09T08:10:45Z</time>
      </trkpt>
      <trkpt lat="44.48175" lon="1.51969">
        <ele>145.4</ele>
        <time>2021-08-09T08:10:47Z</time>
      </trkpt>
      <trkpt lat="44.4818" lon="1.51965">
        <ele>145.6</ele>
        <time>2021-08-09T08:10:48Z</time>
      </trkpt>
      <trkpt lat="44.48188" lon="1.51962">
        <ele>145.9</ele>
        <time>2021-08-09T08:10:50Z</time>
      </trkpt>
      <trkpt lat="44.48192" lon="1.51962">
        <ele>146.1</ele>
        <time>2021-08-09T08:10:51Z</time>
      </trkpt>
      <trkpt lat="44.48197" lon="1.51962">
        <ele>146.3</ele>
        <time>2021-08-09T08:10:52Z</time>
      </trkpt>
      <trkpt lat="44.482" lon="1.51961">
        <ele>146.6</ele>
        <time>2021-08-09T08:10:53Z</time>
      </trkpt>
      <trkpt lat="44.48204" lon="1.5196">
        <ele>146.8</ele>
        <time>2021-08-09T08:10:55Z</time>
      </trkpt>
      <trkpt lat="44.48207" lon="1.51959">
        <ele>147.1</ele>
        <time>2021-08-09T08:10:56Z</time>
      </trkpt>
      <trkpt lat="44.48209" lon="1.51958">
        <ele>147.3</ele>
        <time>2021-08-09T08:10:57Z</time>
      </trkpt>
      <trkpt lat="44.48212" lon="1.51956">
        <ele>147.5</ele>
        <time>2021-08-09T08:10:58Z</time>
      </trkpt>
      <trkpt lat="44.48212" lon="1.51955">
        <ele>147.7</ele>
        <time>2021-08-09T08:10:59Z</time>
      </trkpt>
      <trkpt lat="44.48215" lon="1.51952">
        <ele>148</ele>
        <time>2021-08-09T08:11:01Z</time>
      </trkpt>
      <trkpt lat="44.48218" lon="1.5195">
        <ele>148.3</ele>
        <time>2021-08-09T08:11:02Z</time>
      </trkpt>
      <trkpt lat="44.48221" lon="1.51948">
        <ele>148.6</ele>
        <time>2021-08-09T08:11:03Z</time>
      </trkpt>
      <trkpt lat="44.48224" lon="1.51946">
        <ele>148.9</ele>
        <time>2021-08-09T08:11:04Z</time>
      </trkpt>
      <trkpt lat="44.48227" lon="1.51943">
        <ele>149.2</ele>
        <time>2021-08-09T08:11:05Z</time>
      </trkpt>
      <trkpt lat="44.48232" lon="1.51941">
        <ele>149.7</ele>
        <time>2021-08-09T08:11:07Z</time>
      </trkpt>
      <trkpt lat="44.48233" lon="1.5194">
        <ele>149.8</ele>
        <time>2021-08-09T08:11:08Z</time>
      </trkpt>
      <trkpt lat="44.48235" lon="1.51939">
        <ele>149.8</ele>
        <time>2021-08-09T08:11:09Z</time>
      </trkpt>
      <trkpt lat="44.4824" lon="1.51938">
        <ele>150</ele>
        <time>2021-08-09T08:11:11Z</time>
      </trkpt>
      <trkpt lat="44.48243" lon="1.51937">
        <ele>150.1</ele>
        <time>2021-08-09T08:11:12Z</time>
      </trkpt>
      <trkpt lat="44.48246" lon="1.51936">
        <ele>150.2</ele>
        <time>2021-08-09T08:11:13Z</time>
      </trkpt>
      <trkpt lat="44.48249" lon="1.51935">
        <ele>150.2</ele>
        <time>2021-08-09T08:11:14Z</time>
      </trkpt>
      <trkpt lat="44.48253" lon="1.51933">
        <ele>150.2</ele>
        <time>2021-08-09T08:11:16Z</time>
      </trkpt>
      <trkpt lat="44.48256" lon="1.51931">
        <ele>150.2</ele>
        <time>2021-08-09T08:11:17Z</time>
      </trkpt>
      <trkpt lat="44.4826" lon="1.51928">
        <ele>150</ele>
        <time>2021-08-09T08:11:18Z</time>
      </trkpt>
      <trkpt lat="44.48266" lon="1.51923">
        <ele>149.8</ele>
        <time>2021-08-09T08:11:20Z</time>
      </trkpt>
      <trkpt lat="44.4827" lon="1.51919">
        <ele>149.7</ele>
        <time>2021-08-09T08:11:21Z</time>
      </trkpt>
      <trkpt lat="44.48277" lon="1.51914">
        <ele>149.5</ele>
        <time>2021-08-09T08:11:22Z</time>
      </trkpt>
      <trkpt lat="44.48282" lon="1.51911">
        <ele>149.3</ele>
        <time>2021-08-09T08:11:23Z</time>
      </trkpt>
      <trkpt lat="44.48291" lon="1.51903">
        <ele>149.2</ele>
        <time>2021-08-09T08:11:25Z</time>
      </trkpt>
      <trkpt lat="44.48296" lon="1.51898">
        <ele>149.3</ele>
        <time>2021-08-09T08:11:26Z</time>
      </trkpt>
      <trkpt lat="44.483" lon="1.51893">
        <ele>149.3</ele>
        <time>2021-08-09T08:11:28Z</time>
      </trkpt>
      <trkpt lat="44.48302" lon="1.51888">
        <ele>149.4</ele>
        <time>2021-08-09T08:11:29Z</time>
      </trkpt>
      <trkpt lat="44.48304" lon="1.51886">
        <ele>149.4</ele>
        <time>2021-08-09T08:11:30Z</time>
      </trkpt>
      <trkpt lat="44.48312" lon="1.51879">
        <ele>149.7</ele>
        <time>2021-08-09T08:11:32Z</time>
      </trkpt>
      <trkpt lat="44.48317" lon="1.51874">
        <ele>149.9</ele>
        <time>2021-08-09T08:11:33Z</time>
      </trkpt>
      <trkpt lat="44.4832" lon="1.51871">
        <ele>150</ele>
        <time>2021-08-09T08:11:34Z</time>
      </trkpt>
      <trkpt lat="44.48325" lon="1.51866">
        <ele>150.2</ele>
        <time>2021-08-09T08:11:35Z</time>
      </trkpt>
      <trkpt lat="44.48328" lon="1.51862">
        <ele>150.4</ele>
        <time>2021-08-09T08:11:37Z</time>
      </trkpt>
      <trkpt lat="44.48332" lon="1.51857">
        <ele>150.5</ele>
        <time>2021-08-09T08:11:38Z</time>
      </trkpt>
      <trkpt lat="44.48334" lon="1.51854">
        <ele>150.6</ele>
        <time>2021-08-09T08:11:39Z</time>
      </trkpt>
      <trkpt lat="44.48338" lon="1.5185">
        <ele>150.7</ele>
        <time>2021-08-09T08:11:41Z</time>
      </trkpt>
      <trkpt lat="44.48341" lon="1.51846">
        <ele>150.8</ele>
        <time>2021-08-09T08:11:42Z</time>
      </trkpt>
      <trkpt lat="44.48344" lon="1.51842">
        <ele>150.8</ele>
        <time>2021-08-09T08:11:43Z</time>
      </trkpt>
      <trkpt lat="44.48346" lon="1.51838">
        <ele>150.9</ele>
        <time>2021-08-09T08:11:44Z</time>
      </trkpt>
      <trkpt lat="44.4835" lon="1.5183">
        <ele>150.9</ele>
        <time>2021-08-09T08:11:46Z</time>
      </trkpt>
      <trkpt lat="44.48356" lon="1.51822">
        <ele>150.8</ele>
        <time>2021-08-09T08:11:48Z</time>
      </trkpt>
      <trkpt lat="44.48359" lon="1.51815">
        <ele>150.8</ele>
        <time>2021-08-09T08:11:49Z</time>
      </trkpt>
      <trkpt lat="44.48362" lon="1.51808">
        <ele>150.7</ele>
        <time>2021-08-09T08:11:50Z</time>
      </trkpt>
      <trkpt lat="44.48365" lon="1.518">
        <ele>150.7</ele>
        <time>2021-08-09T08:11:51Z</time>
      </trkpt>
      <trkpt lat="44.48369" lon="1.51788">
        <ele>150.6</ele>
        <time>2021-08-09T08:11:53Z</time>
      </trkpt>
      <trkpt lat="44.48373" lon="1.5178">
        <ele>150.5</ele>
        <time>2021-08-09T08:11:55Z</time>
      </trkpt>
      <trkpt lat="44.48377" lon="1.51774">
        <ele>150.5</ele>
        <time>2021-08-09T08:11:56Z</time>
      </trkpt>
      <trkpt lat="44.48379" lon="1.51767">
        <ele>150.5</ele>
        <time>2021-08-09T08:11:57Z</time>
      </trkpt>
      <trkpt lat="44.48383" lon="1.5176">
        <ele>150.4</ele>
        <time>2021-08-09T08:11:59Z</time>
      </trkpt>
      <trkpt lat="44.48385" lon="1.51754">
        <ele>150.4</ele>
        <time>2021-08-09T08:12:00Z</time>
      </trkpt>
      <trkpt lat="44.48389" lon="1.51747">
        <ele>150.3</ele>
        <time>2021-08-09T08:12:02Z</time>
      </trkpt>
      <trkpt lat="44.48391" lon="1.51742">
        <ele>150.3</ele>
        <time>2021-08-09T08:12:03Z</time>
      </trkpt>
      <trkpt lat="44.48394" lon="1.51734">
        <ele>150.2</ele>
        <time>2021-08-09T08:12:05Z</time>
      </trkpt>
      <trkpt lat="44.48397" lon="1.51726">
        <ele>150.2</ele>
        <time>2021-08-09T08:12:06Z</time>
      </trkpt>
      <trkpt lat="44.48399" lon="1.5172">
        <ele>150.2</ele>
        <time>2021-08-09T08:12:07Z</time>
      </trkpt>
      <trkpt lat="44.48401" lon="1.51714">
        <ele>150.2</ele>
        <time>2021-08-09T08:12:08Z</time>
      </trkpt>
      <trkpt lat="44.48402" lon="1.51708">
        <ele>150.2</ele>
        <time>2021-08-09T08:12:09Z</time>
      </trkpt>
      <trkpt lat="44.48405" lon="1.51701">
        <ele>150.3</ele>
        <time>2021-08-09T08:12:11Z</time>
      </trkpt>
      <trkpt lat="44.48407" lon="1.51696">
        <ele>150.4</ele>
        <time>2021-08-09T08:12:12Z</time>
      </trkpt>
      <trkpt lat="44.48408" lon="1.51691">
        <ele>150.5</ele>
        <time>2021-08-09T08:12:13Z</time>
      </trkpt>
      <trkpt lat="44.4841" lon="1.51686">
        <ele>150.6</ele>
        <time>2021-08-09T08:12:14Z</time>
      </trkpt>
      <trkpt lat="44.48412" lon="1.51681">
        <ele>150.7</ele>
        <time>2021-08-09T08:12:16Z</time>
      </trkpt>
      <trkpt lat="44.48414" lon="1.51675">
        <ele>150.8</ele>
        <time>2021-08-09T08:12:17Z</time>
      </trkpt>
      <trkpt lat="44.48416" lon="1.51667">
        <ele>150.9</ele>
        <time>2021-08-09T08:12:18Z</time>
      </trkpt>
      <trkpt lat="44.48419" lon="1.5166">
        <ele>151.1</ele>
        <time>2021-08-09T08:12:20Z</time>
      </trkpt>
      <trkpt lat="44.48421" lon="1.51654">
        <ele>151.1</ele>
        <time>2021-08-09T08:12:21Z</time>
      </trkpt>
      <trkpt lat="44.48422" lon="1.51648">
        <ele>151.2</ele>
        <time>2021-08-09T08:12:22Z</time>
      </trkpt>
      <trkpt lat="44.48423" lon="1.51637">
        <ele>151.4</ele>
        <time>2021-08-09T08:12:24Z</time>
      </trkpt>
      <trkpt lat="44.48421" lon="1.51629">
        <ele>151.5</ele>
        <time>2021-08-09T08:12:25Z</time>
      </trkpt>
      <trkpt lat="44.48418" lon="1.51623">
        <ele>151.6</ele>
        <time>2021-08-09T08:12:26Z</time>
      </trkpt>
      <trkpt lat="44.48413" lon="1.51618">
        <ele>151.7</ele>
        <time>2021-08-09T08:12:28Z</time>
      </trkpt>
      <trkpt lat="44.48407" lon="1.51612">
        <ele>151.7</ele>
        <time>2021-08-09T08:12:29Z</time>
      </trkpt>
      <trkpt lat="44.48402" lon="1.51604">
        <ele>151.8</ele>
        <time>2021-08-09T08:12:31Z</time>
      </trkpt>
      <trkpt lat="44.484" lon="1.51594">
        <ele>151.8</ele>
        <time>2021-08-09T08:12:32Z</time>
      </trkpt>
      <trkpt lat="44.48399" lon="1.51579">
        <ele>151.8</ele>
        <time>2021-08-09T08:12:34Z</time>
      </trkpt>
      <trkpt lat="44.484" lon="1.51572">
        <ele>151.8</ele>
        <time>2021-08-09T08:12:35Z</time>
      </trkpt>
      <trkpt lat="44.48402" lon="1.51566">
        <ele>151.9</ele>
        <time>2021-08-09T08:12:36Z</time>
      </trkpt>
      <trkpt lat="44.48406" lon="1.51565">
        <ele>151.9</ele>
        <time>2021-08-09T08:12:37Z</time>
      </trkpt>
      <trkpt lat="44.48408" lon="1.51564">
        <ele>151.9</ele>
        <time>2021-08-09T08:12:38Z</time>
      </trkpt>
      <trkpt lat="44.48414" lon="1.51563">
        <ele>151.9</ele>
        <time>2021-08-09T08:12:39Z</time>
      </trkpt>
      <trkpt lat="44.48421" lon="1.51562">
        <ele>151.9</ele>
        <time>2021-08-09T08:12:41Z</time>
      </trkpt>
      <trkpt lat="44.48426" lon="1.51562">
        <ele>152</ele>
        <time>2021-08-09T08:12:42Z</time>
      </trkpt>
      <trkpt lat="44.48433" lon="1.51562">
        <ele>152.1</ele>
        <time>2021-08-09T08:12:44Z</time>
      </trkpt>
      <trkpt lat="44.4844" lon="1.51561">
        <ele>152.2</ele>
        <time>2021-08-09T08:12:45Z</time>
      </trkpt>
      <trkpt lat="44.48446" lon="1.51558">
        <ele>152.4</ele>
        <time>2021-08-09T08:12:46Z</time>
      </trkpt>
      <trkpt lat="44.48452" lon="1.51555">
        <ele>152.5</ele>
        <time>2021-08-09T08:12:48Z</time>
      </trkpt>
      <trkpt lat="44.48455" lon="1.51552">
        <ele>152.6</ele>
        <time>2021-08-09T08:12:49Z</time>
      </trkpt>
      <trkpt lat="44.48459" lon="1.51548">
        <ele>152.8</ele>
        <time>2021-08-09T08:12:51Z</time>
      </trkpt>
      <trkpt lat="44.48463" lon="1.51546">
        <ele>152.9</ele>
        <time>2021-08-09T08:12:52Z</time>
      </trkpt>
      <trkpt lat="44.48467" lon="1.51545">
        <ele>153</ele>
        <time>2021-08-09T08:12:53Z</time>
      </trkpt>
      <trkpt lat="44.48469" lon="1.51542">
        <ele>153.1</ele>
        <time>2021-08-09T08:12:54Z</time>
      </trkpt>
      <trkpt lat="44.48474" lon="1.51536">
        <ele>153.3</ele>
        <time>2021-08-09T08:12:56Z</time>
      </trkpt>
      <trkpt lat="44.48477" lon="1.51533">
        <ele>153.3</ele>
        <time>2021-08-09T08:12:57Z</time>
      </trkpt>
      <trkpt lat="44.4848" lon="1.5153">
        <ele>153.4</ele>
        <time>2021-08-09T08:12:58Z</time>
      </trkpt>
      <trkpt lat="44.48484" lon="1.51528">
        <ele>153.5</ele>
        <time>2021-08-09T08:13:00Z</time>
      </trkpt>
      <trkpt lat="44.48487" lon="1.51526">
        <ele>153.6</ele>
        <time>2021-08-09T08:13:01Z</time>
      </trkpt>
      <trkpt lat="44.4849" lon="1.51525">
        <ele>153.7</ele>
        <time>2021-08-09T08:13:02Z</time>
      </trkpt>
      <trkpt lat="44.48492" lon="1.51524">
        <ele>153.8</ele>
        <time>2021-08-09T08:13:03Z</time>
      </trkpt>
      <trkpt lat="44.48495" lon="1.51523">
        <ele>154</ele>
        <time>2021-08-09T08:13:05Z</time>
      </trkpt>
      <trkpt lat="44.48496" lon="1.51522">
        <ele>154</ele>
        <time>2021-08-09T08:13:06Z</time>
      </trkpt>
      <trkpt lat="44.48499" lon="1.51521">
        <ele>154.1</ele>
        <time>2021-08-09T08:13:07Z</time>
      </trkpt>
      <trkpt lat="44.485" lon="1.5152">
        <ele>154.1</ele>
        <time>2021-08-09T08:13:08Z</time>
      </trkpt>
      <trkpt lat="44.48503" lon="1.51519">
        <ele>154.3</ele>
        <time>2021-08-09T08:13:10Z</time>
      </trkpt>
      <trkpt lat="44.48504" lon="1.51518">
        <ele>154.3</ele>
        <time>2021-08-09T08:13:11Z</time>
      </trkpt>
      <trkpt lat="44.48508" lon="1.51516">
        <ele>154.5</ele>
        <time>2021-08-09T08:13:12Z</time>
      </trkpt>
      <trkpt lat="44.48511" lon="1.51515">
        <ele>154.6</ele>
        <time>2021-08-09T08:13:13Z</time>
      </trkpt>
      <trkpt lat="44.48515" lon="1.51512">
        <ele>154.7</ele>
        <time>2021-08-09T08:13:14Z</time>
      </trkpt>
      <trkpt lat="44.48519" lon="1.51509">
        <ele>154.8</ele>
        <time>2021-08-09T08:13:15Z</time>
      </trkpt>
      <trkpt lat="44.48523" lon="1.51506">
        <ele>154.9</ele>
        <time>2021-08-09T08:13:16Z</time>
      </trkpt>
      <trkpt lat="44.48527" lon="1.51503">
        <ele>154.9</ele>
        <time>2021-08-09T08:13:18Z</time>
      </trkpt>
      <trkpt lat="44.48532" lon="1.51499">
        <ele>155</ele>
        <time>2021-08-09T08:13:19Z</time>
      </trkpt>
      <trkpt lat="44.48537" lon="1.51497">
        <ele>155.1</ele>
        <time>2021-08-09T08:13:20Z</time>
      </trkpt>
      <trkpt lat="44.48545" lon="1.51494">
        <ele>155.3</ele>
        <time>2021-08-09T08:13:22Z</time>
      </trkpt>
      <trkpt lat="44.48549" lon="1.51493">
        <ele>155.4</ele>
        <time>2021-08-09T08:13:23Z</time>
      </trkpt>
      <trkpt lat="44.48553" lon="1.5149">
        <ele>155.4</ele>
        <time>2021-08-09T08:13:25Z</time>
      </trkpt>
      <trkpt lat="44.48556" lon="1.51489">
        <ele>155.5</ele>
        <time>2021-08-09T08:13:26Z</time>
      </trkpt>
      <trkpt lat="44.48559" lon="1.51488">
        <ele>155.6</ele>
        <time>2021-08-09T08:13:27Z</time>
      </trkpt>
      <trkpt lat="44.48564" lon="1.51486">
        <ele>155.7</ele>
        <time>2021-08-09T08:13:28Z</time>
      </trkpt>
      <trkpt lat="44.48566" lon="1.51485">
        <ele>155.7</ele>
        <time>2021-08-09T08:13:29Z</time>
      </trkpt>
      <trkpt lat="44.4857" lon="1.51483">
        <ele>155.8</ele>
        <time>2021-08-09T08:13:30Z</time>
      </trkpt>
      <trkpt lat="44.48574" lon="1.51481">
        <ele>155.9</ele>
        <time>2021-08-09T08:13:31Z</time>
      </trkpt>
      <trkpt lat="44.48579" lon="1.51478">
        <ele>156</ele>
        <time>2021-08-09T08:13:33Z</time>
      </trkpt>
      <trkpt lat="44.48582" lon="1.51476">
        <ele>156.1</ele>
        <time>2021-08-09T08:13:34Z</time>
      </trkpt>
      <trkpt lat="44.48585" lon="1.51473">
        <ele>156.1</ele>
        <time>2021-08-09T08:13:35Z</time>
      </trkpt>
      <trkpt lat="44.48589" lon="1.51469">
        <ele>156.2</ele>
        <time>2021-08-09T08:13:37Z</time>
      </trkpt>
      <trkpt lat="44.48593" lon="1.51465">
        <ele>156.3</ele>
        <time>2021-08-09T08:13:38Z</time>
      </trkpt>
      <trkpt lat="44.48598" lon="1.51461">
        <ele>156.4</ele>
        <time>2021-08-09T08:13:39Z</time>
      </trkpt>
      <trkpt lat="44.48603" lon="1.51457">
        <ele>156.5</ele>
        <time>2021-08-09T08:13:41Z</time>
      </trkpt>
      <trkpt lat="44.48608" lon="1.51453">
        <ele>156.6</ele>
        <time>2021-08-09T08:13:43Z</time>
      </trkpt>
      <trkpt lat="44.48611" lon="1.5145">
        <ele>156.6</ele>
        <time>2021-08-09T08:13:44Z</time>
      </trkpt>
      <trkpt lat="44.48613" lon="1.51448">
        <ele>156.7</ele>
        <time>2021-08-09T08:13:45Z</time>
      </trkpt>
      <trkpt lat="44.48618" lon="1.51443">
        <ele>156.9</ele>
        <time>2021-08-09T08:13:47Z</time>
      </trkpt>
      <trkpt lat="44.48623" lon="1.51439">
        <ele>157.1</ele>
        <time>2021-08-09T08:13:49Z</time>
      </trkpt>
      <trkpt lat="44.48626" lon="1.51435">
        <ele>157.2</ele>
        <time>2021-08-09T08:13:50Z</time>
      </trkpt>
      <trkpt lat="44.48629" lon="1.51433">
        <ele>157.3</ele>
        <time>2021-08-09T08:13:51Z</time>
      </trkpt>
      <trkpt lat="44.48633" lon="1.51428">
        <ele>157.5</ele>
        <time>2021-08-09T08:13:53Z</time>
      </trkpt>
      <trkpt lat="44.48636" lon="1.51426">
        <ele>157.6</ele>
        <time>2021-08-09T08:13:54Z</time>
      </trkpt>
      <trkpt lat="44.48641" lon="1.51422">
        <ele>157.8</ele>
        <time>2021-08-09T08:13:56Z</time>
      </trkpt>
      <trkpt lat="44.48644" lon="1.51419">
        <ele>157.9</ele>
        <time>2021-08-09T08:13:57Z</time>
      </trkpt>
      <trkpt lat="44.48648" lon="1.51416">
        <ele>158</ele>
        <time>2021-08-09T08:13:58Z</time>
      </trkpt>
      <trkpt lat="44.48651" lon="1.51413">
        <ele>158</ele>
        <time>2021-08-09T08:14:00Z</time>
      </trkpt>
      <trkpt lat="44.48654" lon="1.51409">
        <ele>158.1</ele>
        <time>2021-08-09T08:14:01Z</time>
      </trkpt>
      <trkpt lat="44.48656" lon="1.51406">
        <ele>158.1</ele>
        <time>2021-08-09T08:14:02Z</time>
      </trkpt>
      <trkpt lat="44.4866" lon="1.514">
        <ele>158.1</ele>
        <time>2021-08-09T08:14:03Z</time>
      </trkpt>
      <trkpt lat="44.48663" lon="1.51396">
        <ele>158</ele>
        <time>2021-08-09T08:14:05Z</time>
      </trkpt>
      <trkpt lat="44.48667" lon="1.51392">
        <ele>158</ele>
        <time>2021-08-09T08:14:06Z</time>
      </trkpt>
      <trkpt lat="44.4867" lon="1.51387">
        <ele>158</ele>
        <time>2021-08-09T08:14:07Z</time>
      </trkpt>
      <trkpt lat="44.48673" lon="1.51382">
        <ele>157.9</ele>
        <time>2021-08-09T08:14:08Z</time>
      </trkpt>
      <trkpt lat="44.48677" lon="1.51375">
        <ele>157.9</ele>
        <time>2021-08-09T08:14:10Z</time>
      </trkpt>
      <trkpt lat="44.4868" lon="1.51372">
        <ele>157.9</ele>
        <time>2021-08-09T08:14:11Z</time>
      </trkpt>
      <trkpt lat="44.48683" lon="1.51367">
        <ele>157.8</ele>
        <time>2021-08-09T08:14:12Z</time>
      </trkpt>
      <trkpt lat="44.48686" lon="1.51364">
        <ele>157.8</ele>
        <time>2021-08-09T08:14:13Z</time>
      </trkpt>
      <trkpt lat="44.48691" lon="1.51361">
        <ele>157.8</ele>
        <time>2021-08-09T08:14:15Z</time>
      </trkpt>
      <trkpt lat="44.48693" lon="1.5136">
        <ele>157.8</ele>
        <time>2021-08-09T08:14:16Z</time>
      </trkpt>
      <trkpt lat="44.48697" lon="1.5136">
        <ele>157.7</ele>
        <time>2021-08-09T08:14:17Z</time>
      </trkpt>
      <trkpt lat="44.48703" lon="1.51358">
        <ele>157.7</ele>
        <time>2021-08-09T08:14:19Z</time>
      </trkpt>
      <trkpt lat="44.48707" lon="1.51358">
        <ele>157.7</ele>
        <time>2021-08-09T08:14:20Z</time>
      </trkpt>
      <trkpt lat="44.4871" lon="1.51358">
        <ele>157.8</ele>
        <time>2021-08-09T08:14:21Z</time>
      </trkpt>
      <trkpt lat="44.48713" lon="1.51357">
        <ele>157.8</ele>
        <time>2021-08-09T08:14:22Z</time>
      </trkpt>
      <trkpt lat="44.48718" lon="1.51357">
        <ele>157.8</ele>
        <time>2021-08-09T08:14:24Z</time>
      </trkpt>
      <trkpt lat="44.48721" lon="1.51356">
        <ele>157.9</ele>
        <time>2021-08-09T08:14:25Z</time>
      </trkpt>
      <trkpt lat="44.48724" lon="1.51354">
        <ele>158</ele>
        <time>2021-08-09T08:14:26Z</time>
      </trkpt>
      <trkpt lat="44.48727" lon="1.51352">
        <ele>158.1</ele>
        <time>2021-08-09T08:14:27Z</time>
      </trkpt>
      <trkpt lat="44.48731" lon="1.51351">
        <ele>158.2</ele>
        <time>2021-08-09T08:14:28Z</time>
      </trkpt>
      <trkpt lat="44.48735" lon="1.51349">
        <ele>158.3</ele>
        <time>2021-08-09T08:14:30Z</time>
      </trkpt>
      <trkpt lat="44.48739" lon="1.51347">
        <ele>158.4</ele>
        <time>2021-08-09T08:14:31Z</time>
      </trkpt>
      <trkpt lat="44.48745" lon="1.51344">
        <ele>158.6</ele>
        <time>2021-08-09T08:14:33Z</time>
      </trkpt>
      <trkpt lat="44.48749" lon="1.51342">
        <ele>158.7</ele>
        <time>2021-08-09T08:14:34Z</time>
      </trkpt>
      <trkpt lat="44.48752" lon="1.5134">
        <ele>158.8</ele>
        <time>2021-08-09T08:14:36Z</time>
      </trkpt>
      <trkpt lat="44.48757" lon="1.51338">
        <ele>158.9</ele>
        <time>2021-08-09T08:14:37Z</time>
      </trkpt>
      <trkpt lat="44.48761" lon="1.51336">
        <ele>159</ele>
        <time>2021-08-09T08:14:38Z</time>
      </trkpt>
      <trkpt lat="44.48767" lon="1.51334">
        <ele>159.2</ele>
        <time>2021-08-09T08:14:40Z</time>
      </trkpt>
      <trkpt lat="44.4877" lon="1.51332">
        <ele>159.3</ele>
        <time>2021-08-09T08:14:41Z</time>
      </trkpt>
      <trkpt lat="44.48773" lon="1.51331">
        <ele>159.3</ele>
        <time>2021-08-09T08:14:42Z</time>
      </trkpt>
      <trkpt lat="44.48776" lon="1.51329">
        <ele>159.4</ele>
        <time>2021-08-09T08:14:44Z</time>
      </trkpt>
      <trkpt lat="44.48777" lon="1.51329">
        <ele>159.5</ele>
        <time>2021-08-09T08:14:45Z</time>
      </trkpt>
      <trkpt lat="44.48776" lon="1.51329">
        <ele>159.5</ele>
        <time>2021-08-09T08:14:46Z</time>
      </trkpt>
      <trkpt lat="44.48776" lon="1.51329">
        <ele>159.5</ele>
        <time>2021-08-09T08:14:47Z</time>
      </trkpt>
      <trkpt lat="44.48776" lon="1.51328">
        <ele>159.5</ele>
        <time>2021-08-09T08:14:49Z</time>
      </trkpt>
      <trkpt lat="44.48776" lon="1.51328">
        <ele>159.5</ele>
        <time>2021-08-09T08:14:50Z</time>
      </trkpt>
      <trkpt lat="44.48776" lon="1.51328">
        <ele>159.5</ele>
        <time>2021-08-09T08:14:52Z</time>
      </trkpt>
      <trkpt lat="44.48776" lon="1.51328">
        <ele>159.5</ele>
        <time>2021-08-09T08:14:53Z</time>
      </trkpt>
      <trkpt lat="44.48775" lon="1.51327">
        <ele>159.5</ele>
        <time>2021-08-09T08:14:55Z</time>
      </trkpt>
      <trkpt lat="44.48779" lon="1.51328">
        <ele>159.6</ele>
        <time>2021-08-09T08:15:10Z</time>
      </trkpt>
      <trkpt lat="44.48781" lon="1.51329">
        <ele>159.6</ele>
        <time>2021-08-09T08:15:12Z</time>
      </trkpt>
      <trkpt lat="44.48783" lon="1.51329">
        <ele>159.7</ele>
        <time>2021-08-09T08:15:13Z</time>
      </trkpt>
      <trkpt lat="44.48786" lon="1.51329">
        <ele>159.7</ele>
        <time>2021-08-09T08:15:14Z</time>
      </trkpt>
      <trkpt lat="44.48788" lon="1.51329">
        <ele>159.8</ele>
        <time>2021-08-09T08:15:15Z</time>
      </trkpt>
      <trkpt lat="44.48792" lon="1.51328">
        <ele>159.6</ele>
        <time>2021-08-09T08:15:17Z</time>
      </trkpt>
      <trkpt lat="44.48793" lon="1.51328">
        <ele>159.5</ele>
        <time>2021-08-09T08:15:18Z</time>
      </trkpt>
      <trkpt lat="44.48793" lon="1.51328">
        <ele>159.5</ele>
        <time>2021-08-09T08:15:19Z</time>
      </trkpt>
      <trkpt lat="44.48793" lon="1.51328">
        <ele>159.5</ele>
        <time>2021-08-09T08:15:20Z</time>
      </trkpt>
      <trkpt lat="44.48794" lon="1.51327">
        <ele>159.5</ele>
        <time>2021-08-09T08:15:22Z</time>
      </trkpt>
      <trkpt lat="44.48794" lon="1.51327">
        <ele>159.5</ele>
        <time>2021-08-09T08:15:24Z</time>
      </trkpt>
      <trkpt lat="44.48794" lon="1.51327">
        <ele>159.5</ele>
        <time>2021-08-09T08:15:25Z</time>
      </trkpt>
      <trkpt lat="44.48794" lon="1.51327">
        <ele>159.5</ele>
        <time>2021-08-09T08:15:26Z</time>
      </trkpt>
      <trkpt lat="44.48794" lon="1.51327">
        <ele>159.5</ele>
        <time>2021-08-09T08:15:28Z</time>
      </trkpt>
      <trkpt lat="44.48787" lon="1.51328">
        <ele>159.2</ele>
        <time>2021-08-09T08:15:37Z</time>
      </trkpt>
      <trkpt lat="44.48783" lon="1.51326">
        <ele>159.1</ele>
        <time>2021-08-09T08:15:38Z</time>
      </trkpt>
      <trkpt lat="44.48781" lon="1.51323">
        <ele>158.9</ele>
        <time>2021-08-09T08:15:40Z</time>
      </trkpt>
      <trkpt lat="44.4878" lon="1.51319">
        <ele>158.8</ele>
        <time>2021-08-09T08:15:41Z</time>
      </trkpt>
      <trkpt lat="44.4878" lon="1.51313">
        <ele>158.6</ele>
        <time>2021-08-09T08:15:42Z</time>
      </trkpt>
      <trkpt lat="44.4878" lon="1.51305">
        <ele>158.5</ele>
        <time>2021-08-09T08:15:43Z</time>
      </trkpt>
      <trkpt lat="44.48781" lon="1.51297">
        <ele>158.3</ele>
        <time>2021-08-09T08:15:45Z</time>
      </trkpt>
      <trkpt lat="44.48782" lon="1.51288">
        <ele>158.1</ele>
        <time>2021-08-09T08:15:47Z</time>
      </trkpt>
      <trkpt lat="44.48783" lon="1.51281">
        <ele>158</ele>
        <time>2021-08-09T08:15:48Z</time>
      </trkpt>
      <trkpt lat="44.48784" lon="1.51275">
        <ele>158</ele>
        <time>2021-08-09T08:15:49Z</time>
      </trkpt>
      <trkpt lat="44.48785" lon="1.51268">
        <ele>157.9</ele>
        <time>2021-08-09T08:15:50Z</time>
      </trkpt>
      <trkpt lat="44.48788" lon="1.5126">
        <ele>157.7</ele>
        <time>2021-08-09T08:15:52Z</time>
      </trkpt>
      <trkpt lat="44.48791" lon="1.51255">
        <ele>157.8</ele>
        <time>2021-08-09T08:15:53Z</time>
      </trkpt>
      <trkpt lat="44.48797" lon="1.5125">
        <ele>158</ele>
        <time>2021-08-09T08:15:55Z</time>
      </trkpt>
      <trkpt lat="44.48801" lon="1.51247">
        <ele>158.2</ele>
        <time>2021-08-09T08:15:56Z</time>
      </trkpt>
      <trkpt lat="44.48804" lon="1.51245">
        <ele>158.3</ele>
        <time>2021-08-09T08:15:58Z</time>
      </trkpt>
      <trkpt lat="44.48808" lon="1.51242">
        <ele>158.5</ele>
        <time>2021-08-09T08:15:59Z</time>
      </trkpt>
      <trkpt lat="44.48811" lon="1.51241">
        <ele>158.7</ele>
        <time>2021-08-09T08:16:00Z</time>
      </trkpt>
      <trkpt lat="44.48814" lon="1.51239">
        <ele>158.8</ele>
        <time>2021-08-09T08:16:01Z</time>
      </trkpt>
      <trkpt lat="44.48815" lon="1.51239">
        <ele>158.9</ele>
        <time>2021-08-09T08:16:03Z</time>
      </trkpt>
      <trkpt lat="44.48817" lon="1.51238">
        <ele>159</ele>
        <time>2021-08-09T08:16:04Z</time>
      </trkpt>
      <trkpt lat="44.4882" lon="1.51237">
        <ele>159.2</ele>
        <time>2021-08-09T08:16:06Z</time>
      </trkpt>
      <trkpt lat="44.48823" lon="1.51236">
        <ele>159.4</ele>
        <time>2021-08-09T08:16:07Z</time>
      </trkpt>
      <trkpt lat="44.48824" lon="1.51235">
        <ele>159.4</ele>
        <time>2021-08-09T08:16:08Z</time>
      </trkpt>
      <trkpt lat="44.48827" lon="1.51234">
        <ele>159.6</ele>
        <time>2021-08-09T08:16:09Z</time>
      </trkpt>
      <trkpt lat="44.48831" lon="1.51231">
        <ele>159.8</ele>
        <time>2021-08-09T08:16:11Z</time>
      </trkpt>
      <trkpt lat="44.48832" lon="1.5123">
        <ele>159.9</ele>
        <time>2021-08-09T08:16:12Z</time>
      </trkpt>
      <trkpt lat="44.48835" lon="1.51227">
        <ele>160.1</ele>
        <time>2021-08-09T08:16:13Z</time>
      </trkpt>
      <trkpt lat="44.48837" lon="1.51225">
        <ele>160.3</ele>
        <time>2021-08-09T08:16:14Z</time>
      </trkpt>
      <trkpt lat="44.48841" lon="1.51221">
        <ele>160.5</ele>
        <time>2021-08-09T08:16:16Z</time>
      </trkpt>
      <trkpt lat="44.48843" lon="1.51218">
        <ele>160.8</ele>
        <time>2021-08-09T08:16:17Z</time>
      </trkpt>
      <trkpt lat="44.48846" lon="1.51216">
        <ele>160.9</ele>
        <time>2021-08-09T08:16:18Z</time>
      </trkpt>
      <trkpt lat="44.48848" lon="1.51213">
        <ele>161.2</ele>
        <time>2021-08-09T08:16:19Z</time>
      </trkpt>
      <trkpt lat="44.48851" lon="1.51209">
        <ele>161.5</ele>
        <time>2021-08-09T08:16:21Z</time>
      </trkpt>
      <trkpt lat="44.48853" lon="1.51206">
        <ele>161.7</ele>
        <time>2021-08-09T08:16:22Z</time>
      </trkpt>
      <trkpt lat="44.48856" lon="1.51202">
        <ele>162</ele>
        <time>2021-08-09T08:16:24Z</time>
      </trkpt>
      <trkpt lat="44.48857" lon="1.512">
        <ele>162</ele>
        <time>2021-08-09T08:16:25Z</time>
      </trkpt>
      <trkpt lat="44.48858" lon="1.51199">
        <ele>162.1</ele>
        <time>2021-08-09T08:16:26Z</time>
      </trkpt>
      <trkpt lat="44.48859" lon="1.51199">
        <ele>162.1</ele>
        <time>2021-08-09T08:16:27Z</time>
      </trkpt>
      <trkpt lat="44.48861" lon="1.512">
        <ele>162.1</ele>
        <time>2021-08-09T08:16:28Z</time>
      </trkpt>
      <trkpt lat="44.48863" lon="1.51203">
        <ele>162.1</ele>
        <time>2021-08-09T08:16:30Z</time>
      </trkpt>
      <trkpt lat="44.48867" lon="1.51207">
        <ele>162.2</ele>
        <time>2021-08-09T08:16:31Z</time>
      </trkpt>
      <trkpt lat="44.48872" lon="1.5121">
        <ele>162.3</ele>
        <time>2021-08-09T08:16:32Z</time>
      </trkpt>
      <trkpt lat="44.48878" lon="1.5121">
        <ele>162.5</ele>
        <time>2021-08-09T08:16:33Z</time>
      </trkpt>
      <trkpt lat="44.48884" lon="1.5121">
        <ele>162.8</ele>
        <time>2021-08-09T08:16:35Z</time>
      </trkpt>
      <trkpt lat="44.4889" lon="1.51208">
        <ele>163.1</ele>
        <time>2021-08-09T08:16:36Z</time>
      </trkpt>
      <trkpt lat="44.48894" lon="1.51206">
        <ele>163.4</ele>
        <time>2021-08-09T08:16:37Z</time>
      </trkpt>
      <trkpt lat="44.48898" lon="1.51204">
        <ele>163.8</ele>
        <time>2021-08-09T08:16:38Z</time>
      </trkpt>
      <trkpt lat="44.48905" lon="1.51201">
        <ele>164.4</ele>
        <time>2021-08-09T08:16:40Z</time>
      </trkpt>
      <trkpt lat="44.4891" lon="1.51199">
        <ele>164.8</ele>
        <time>2021-08-09T08:16:41Z</time>
      </trkpt>
      <trkpt lat="44.48914" lon="1.51197">
        <ele>165.4</ele>
        <time>2021-08-09T08:16:42Z</time>
      </trkpt>
      <trkpt lat="44.48921" lon="1.51193">
        <ele>166.2</ele>
        <time>2021-08-09T08:16:44Z</time>
      </trkpt>
      <trkpt lat="44.48925" lon="1.51191">
        <ele>166.7</ele>
        <time>2021-08-09T08:16:45Z</time>
      </trkpt>
      <trkpt lat="44.48928" lon="1.51189">
        <ele>167.1</ele>
        <time>2021-08-09T08:16:46Z</time>
      </trkpt>
      <trkpt lat="44.48931" lon="1.51188">
        <ele>167.5</ele>
        <time>2021-08-09T08:16:47Z</time>
      </trkpt>
      <trkpt lat="44.48936" lon="1.51184">
        <ele>168.2</ele>
        <time>2021-08-09T08:16:49Z</time>
      </trkpt>
      <trkpt lat="44.48938" lon="1.51182">
        <ele>168.6</ele>
        <time>2021-08-09T08:16:50Z</time>
      </trkpt>
      <trkpt lat="44.48942" lon="1.5118">
        <ele>169.1</ele>
        <time>2021-08-09T08:16:51Z</time>
      </trkpt>
      <trkpt lat="44.48945" lon="1.51178">
        <ele>169.5</ele>
        <time>2021-08-09T08:16:52Z</time>
      </trkpt>
      <trkpt lat="44.48948" lon="1.51176">
        <ele>169.9</ele>
        <time>2021-08-09T08:16:53Z</time>
      </trkpt>
      <trkpt lat="44.48951" lon="1.51174">
        <ele>170.2</ele>
        <time>2021-08-09T08:16:54Z</time>
      </trkpt>
      <trkpt lat="44.48953" lon="1.51171">
        <ele>170.6</ele>
        <time>2021-08-09T08:16:55Z</time>
      </trkpt>
      <trkpt lat="44.48956" lon="1.51168">
        <ele>170.9</ele>
        <time>2021-08-09T08:16:57Z</time>
      </trkpt>
      <trkpt lat="44.48958" lon="1.51164">
        <ele>171.3</ele>
        <time>2021-08-09T08:16:58Z</time>
      </trkpt>
      <trkpt lat="44.48961" lon="1.51162">
        <ele>171.6</ele>
        <time>2021-08-09T08:16:59Z</time>
      </trkpt>
      <trkpt lat="44.48964" lon="1.51159">
        <ele>171.9</ele>
        <time>2021-08-09T08:17:01Z</time>
      </trkpt>
      <trkpt lat="44.48967" lon="1.51157">
        <ele>172.2</ele>
        <time>2021-08-09T08:17:02Z</time>
      </trkpt>
      <trkpt lat="44.4897" lon="1.51156">
        <ele>172.4</ele>
        <time>2021-08-09T08:17:03Z</time>
      </trkpt>
      <trkpt lat="44.48974" lon="1.51156">
        <ele>172.6</ele>
        <time>2021-08-09T08:17:05Z</time>
      </trkpt>
      <trkpt lat="44.48976" lon="1.51158">
        <ele>172.8</ele>
        <time>2021-08-09T08:17:06Z</time>
      </trkpt>
      <trkpt lat="44.4898" lon="1.51159">
        <ele>173.1</ele>
        <time>2021-08-09T08:17:07Z</time>
      </trkpt>
      <trkpt lat="44.48985" lon="1.51162">
        <ele>173.4</ele>
        <time>2021-08-09T08:17:09Z</time>
      </trkpt>
      <trkpt lat="44.48988" lon="1.51166">
        <ele>173.8</ele>
        <time>2021-08-09T08:17:10Z</time>
      </trkpt>
      <trkpt lat="44.4899" lon="1.51168">
        <ele>174</ele>
        <time>2021-08-09T08:17:11Z</time>
      </trkpt>
      <trkpt lat="44.48993" lon="1.51172">
        <ele>174.4</ele>
        <time>2021-08-09T08:17:13Z</time>
      </trkpt>
      <trkpt lat="44.48995" lon="1.51174">
        <ele>174.6</ele>
        <time>2021-08-09T08:17:14Z</time>
      </trkpt>
      <trkpt lat="44.48997" lon="1.51175">
        <ele>174.8</ele>
        <time>2021-08-09T08:17:16Z</time>
      </trkpt>
      <trkpt lat="44.48998" lon="1.51177">
        <ele>174.8</ele>
        <time>2021-08-09T08:17:17Z</time>
      </trkpt>
      <trkpt lat="44.48999" lon="1.51178">
        <ele>174.8</ele>
        <time>2021-08-09T08:17:18Z</time>
      </trkpt>
      <trkpt lat="44.48999" lon="1.51184">
        <ele>174.8</ele>
        <time>2021-08-09T08:17:20Z</time>
      </trkpt>
      <trkpt lat="44.48999" lon="1.51186">
        <ele>174.8</ele>
        <time>2021-08-09T08:17:21Z</time>
      </trkpt>
      <trkpt lat="44.48998" lon="1.51188">
        <ele>174.8</ele>
        <time>2021-08-09T08:17:22Z</time>
      </trkpt>
      <trkpt lat="44.48998" lon="1.51193">
        <ele>174.7</ele>
        <time>2021-08-09T08:17:23Z</time>
      </trkpt>
      <trkpt lat="44.48998" lon="1.51198">
        <ele>174.6</ele>
        <time>2021-08-09T08:17:25Z</time>
      </trkpt>
      <trkpt lat="44.48998" lon="1.51204">
        <ele>174.4</ele>
        <time>2021-08-09T08:17:26Z</time>
      </trkpt>
      <trkpt lat="44.48998" lon="1.51211">
        <ele>174.2</ele>
        <time>2021-08-09T08:17:27Z</time>
      </trkpt>
      <trkpt lat="44.48998" lon="1.51217">
        <ele>174</ele>
        <time>2021-08-09T08:17:28Z</time>
      </trkpt>
      <trkpt lat="44.48999" lon="1.5123">
        <ele>173.7</ele>
        <time>2021-08-09T08:17:30Z</time>
      </trkpt>
      <trkpt lat="44.49001" lon="1.51243">
        <ele>173.5</ele>
        <time>2021-08-09T08:17:31Z</time>
      </trkpt>
      <trkpt lat="44.49003" lon="1.51249">
        <ele>173.5</ele>
        <time>2021-08-09T08:17:32Z</time>
      </trkpt>
      <trkpt lat="44.49009" lon="1.51263">
        <ele>173.9</ele>
        <time>2021-08-09T08:17:34Z</time>
      </trkpt>
      <trkpt lat="44.49016" lon="1.51275">
        <ele>174.6</ele>
        <time>2021-08-09T08:17:36Z</time>
      </trkpt>
      <trkpt lat="44.49024" lon="1.51284">
        <ele>175.3</ele>
        <time>2021-08-09T08:17:38Z</time>
      </trkpt>
      <trkpt lat="44.49028" lon="1.51292">
        <ele>175.7</ele>
        <time>2021-08-09T08:17:40Z</time>
      </trkpt>
      <trkpt lat="44.49033" lon="1.51298">
        <ele>175.9</ele>
        <time>2021-08-09T08:17:41Z</time>
      </trkpt>
      <trkpt lat="44.49038" lon="1.51299">
        <ele>176</ele>
        <time>2021-08-09T08:17:43Z</time>
      </trkpt>
      <trkpt lat="44.49041" lon="1.51302">
        <ele>176.1</ele>
        <time>2021-08-09T08:17:44Z</time>
      </trkpt>
      <trkpt lat="44.49043" lon="1.51305">
        <ele>176.2</ele>
        <time>2021-08-09T08:17:45Z</time>
      </trkpt>
      <trkpt lat="44.49045" lon="1.51307">
        <ele>176.3</ele>
        <time>2021-08-09T08:17:46Z</time>
      </trkpt>
      <trkpt lat="44.49047" lon="1.51308">
        <ele>176.4</ele>
        <time>2021-08-09T08:17:47Z</time>
      </trkpt>
      <trkpt lat="44.49049" lon="1.51312">
        <ele>176.5</ele>
        <time>2021-08-09T08:17:49Z</time>
      </trkpt>
      <trkpt lat="44.49052" lon="1.51316">
        <ele>176.7</ele>
        <time>2021-08-09T08:17:50Z</time>
      </trkpt>
      <trkpt lat="44.49057" lon="1.5132">
        <ele>176.9</ele>
        <time>2021-08-09T08:17:52Z</time>
      </trkpt>
      <trkpt lat="44.49061" lon="1.51323">
        <ele>177</ele>
        <time>2021-08-09T08:17:53Z</time>
      </trkpt>
      <trkpt lat="44.49065" lon="1.51325">
        <ele>177.2</ele>
        <time>2021-08-09T08:17:55Z</time>
      </trkpt>
      <trkpt lat="44.49068" lon="1.51327">
        <ele>177.3</ele>
        <time>2021-08-09T08:17:56Z</time>
      </trkpt>
      <trkpt lat="44.49069" lon="1.51327">
        <ele>177.3</ele>
        <time>2021-08-09T08:17:57Z</time>
      </trkpt>
      <trkpt lat="44.49075" lon="1.51327">
        <ele>177.5</ele>
        <time>2021-08-09T08:17:59Z</time>
      </trkpt>
      <trkpt lat="44.49076" lon="1.51327">
        <ele>177.5</ele>
        <time>2021-08-09T08:18:00Z</time>
      </trkpt>
      <trkpt lat="44.49078" lon="1.51327">
        <ele>177.5</ele>
        <time>2021-08-09T08:18:01Z</time>
      </trkpt>
      <trkpt lat="44.49081" lon="1.51328">
        <ele>177.6</ele>
        <time>2021-08-09T08:18:03Z</time>
      </trkpt>
      <trkpt lat="44.49085" lon="1.51328">
        <ele>177.6</ele>
        <time>2021-08-09T08:18:04Z</time>
      </trkpt>
      <trkpt lat="44.49089" lon="1.51328">
        <ele>177.6</ele>
        <time>2021-08-09T08:18:05Z</time>
      </trkpt>
      <trkpt lat="44.49093" lon="1.51331">
        <ele>177.7</ele>
        <time>2021-08-09T08:18:07Z</time>
      </trkpt>
      <trkpt lat="44.49098" lon="1.51332">
        <ele>177.6</ele>
        <time>2021-08-09T08:18:08Z</time>
      </trkpt>
      <trkpt lat="44.49103" lon="1.51333">
        <ele>177.5</ele>
        <time>2021-08-09T08:18:09Z</time>
      </trkpt>
      <trkpt lat="44.49108" lon="1.51333">
        <ele>177.4</ele>
        <time>2021-08-09T08:18:11Z</time>
      </trkpt>
      <trkpt lat="44.49112" lon="1.51333">
        <ele>177.3</ele>
        <time>2021-08-09T08:18:12Z</time>
      </trkpt>
      <trkpt lat="44.49116" lon="1.51334">
        <ele>177.3</ele>
        <time>2021-08-09T08:18:13Z</time>
      </trkpt>
      <trkpt lat="44.49118" lon="1.51335">
        <ele>177.2</ele>
        <time>2021-08-09T08:18:14Z</time>
      </trkpt>
      <trkpt lat="44.49123" lon="1.51338">
        <ele>177.1</ele>
        <time>2021-08-09T08:18:16Z</time>
      </trkpt>
      <trkpt lat="44.49126" lon="1.51339">
        <ele>177.1</ele>
        <time>2021-08-09T08:18:17Z</time>
      </trkpt>
      <trkpt lat="44.49129" lon="1.51339">
        <ele>177</ele>
        <time>2021-08-09T08:18:18Z</time>
      </trkpt>
      <trkpt lat="44.49133" lon="1.51339">
        <ele>177</ele>
        <time>2021-08-09T08:18:19Z</time>
      </trkpt>
      <trkpt lat="44.49137" lon="1.51338">
        <ele>177</ele>
        <time>2021-08-09T08:18:20Z</time>
      </trkpt>
      <trkpt lat="44.49141" lon="1.51336">
        <ele>176.9</ele>
        <time>2021-08-09T08:18:21Z</time>
      </trkpt>
      <trkpt lat="44.49145" lon="1.51334">
        <ele>177</ele>
        <time>2021-08-09T08:18:23Z</time>
      </trkpt>
      <trkpt lat="44.49149" lon="1.51334">
        <ele>177</ele>
        <time>2021-08-09T08:18:24Z</time>
      </trkpt>
      <trkpt lat="44.49155" lon="1.5133">
        <ele>177.2</ele>
        <time>2021-08-09T08:18:26Z</time>
      </trkpt>
      <trkpt lat="44.49159" lon="1.51328">
        <ele>177.3</ele>
        <time>2021-08-09T08:18:27Z</time>
      </trkpt>
      <trkpt lat="44.49163" lon="1.51325">
        <ele>177.4</ele>
        <time>2021-08-09T08:18:29Z</time>
      </trkpt>
      <trkpt lat="44.49166" lon="1.51323">
        <ele>177.5</ele>
        <time>2021-08-09T08:18:30Z</time>
      </trkpt>
      <trkpt lat="44.4917" lon="1.5132">
        <ele>177.6</ele>
        <time>2021-08-09T08:18:32Z</time>
      </trkpt>
      <trkpt lat="44.49174" lon="1.51317">
        <ele>177.8</ele>
        <time>2021-08-09T08:18:34Z</time>
      </trkpt>
      <trkpt lat="44.49177" lon="1.51315">
        <ele>177.9</ele>
        <time>2021-08-09T08:18:35Z</time>
      </trkpt>
      <trkpt lat="44.4918" lon="1.51313">
        <ele>178</ele>
        <time>2021-08-09T08:18:36Z</time>
      </trkpt>
      <trkpt lat="44.49183" lon="1.51311">
        <ele>178.1</ele>
        <time>2021-08-09T08:18:37Z</time>
      </trkpt>
      <trkpt lat="44.49185" lon="1.51309">
        <ele>178.2</ele>
        <time>2021-08-09T08:18:38Z</time>
      </trkpt>
      <trkpt lat="44.4919" lon="1.51306">
        <ele>178.4</ele>
        <time>2021-08-09T08:18:40Z</time>
      </trkpt>
      <trkpt lat="44.49192" lon="1.51305">
        <ele>178.6</ele>
        <time>2021-08-09T08:18:41Z</time>
      </trkpt>
      <trkpt lat="44.49195" lon="1.51306">
        <ele>178.7</ele>
        <time>2021-08-09T08:18:43Z</time>
      </trkpt>
      <trkpt lat="44.49199" lon="1.5131">
        <ele>178.9</ele>
        <time>2021-08-09T08:18:44Z</time>
      </trkpt>
      <trkpt lat="44.49203" lon="1.51312">
        <ele>179.2</ele>
        <time>2021-08-09T08:18:45Z</time>
      </trkpt>
      <trkpt lat="44.49207" lon="1.51313">
        <ele>179.5</ele>
        <time>2021-08-09T08:18:46Z</time>
      </trkpt>
      <trkpt lat="44.49214" lon="1.51314">
        <ele>179.9</ele>
        <time>2021-08-09T08:18:48Z</time>
      </trkpt>
      <trkpt lat="44.49219" lon="1.51315">
        <ele>180.3</ele>
        <time>2021-08-09T08:18:49Z</time>
      </trkpt>
      <trkpt lat="44.49224" lon="1.51317">
        <ele>180.8</ele>
        <time>2021-08-09T08:18:50Z</time>
      </trkpt>
      <trkpt lat="44.49231" lon="1.51319">
        <ele>181.6</ele>
        <time>2021-08-09T08:18:52Z</time>
      </trkpt>
      <trkpt lat="44.49238" lon="1.5132">
        <ele>182.5</ele>
        <time>2021-08-09T08:18:53Z</time>
      </trkpt>
      <trkpt lat="44.49243" lon="1.51321">
        <ele>183.1</ele>
        <time>2021-08-09T08:18:55Z</time>
      </trkpt>
      <trkpt lat="44.49246" lon="1.51324">
        <ele>183.8</ele>
        <time>2021-08-09T08:18:56Z</time>
      </trkpt>
      <trkpt lat="44.49249" lon="1.51325">
        <ele>183.5</ele>
        <time>2021-08-09T08:18:58Z</time>
      </trkpt>
      <trkpt lat="44.49252" lon="1.51322">
        <ele>183.8</ele>
        <time>2021-08-09T08:18:59Z</time>
      </trkpt>
      <trkpt lat="44.49255" lon="1.5132">
        <ele>183.5</ele>
        <time>2021-08-09T08:19:00Z</time>
      </trkpt>
      <trkpt lat="44.49257" lon="1.51316">
        <ele>183.9</ele>
        <time>2021-08-09T08:19:02Z</time>
      </trkpt>
      <trkpt lat="44.4926" lon="1.51312">
        <ele>184.3</ele>
        <time>2021-08-09T08:19:03Z</time>
      </trkpt>
      <trkpt lat="44.49261" lon="1.51311">
        <ele>183.5</ele>
        <time>2021-08-09T08:19:04Z</time>
      </trkpt>
      <trkpt lat="44.49262" lon="1.5131">
        <ele>183.4</ele>
        <time>2021-08-09T08:19:05Z</time>
      </trkpt>
      <trkpt lat="44.49261" lon="1.5131">
        <ele>182.6</ele>
        <time>2021-08-09T08:19:06Z</time>
      </trkpt>
      <trkpt lat="44.49262" lon="1.51307">
        <ele>182.5</ele>
        <time>2021-08-09T08:19:08Z</time>
      </trkpt>
      <trkpt lat="44.49263" lon="1.51306">
        <ele>182.4</ele>
        <time>2021-08-09T08:19:10Z</time>
      </trkpt>
      <trkpt lat="44.49263" lon="1.51306">
        <ele>181.6</ele>
        <time>2021-08-09T08:19:12Z</time>
      </trkpt>
      <trkpt lat="44.49264" lon="1.51306">
        <ele>180.9</ele>
        <time>2021-08-09T08:19:14Z</time>
      </trkpt>
      <trkpt lat="44.49266" lon="1.51308">
        <ele>180</ele>
        <time>2021-08-09T08:19:19Z</time>
      </trkpt>
      <trkpt lat="44.49267" lon="1.5131">
        <ele>179.3</ele>
        <time>2021-08-09T08:19:20Z</time>
      </trkpt>
      <trkpt lat="44.4927" lon="1.51314">
        <ele>178.5</ele>
        <time>2021-08-09T08:19:22Z</time>
      </trkpt>
      <trkpt lat="44.49272" lon="1.51317">
        <ele>177.7</ele>
        <time>2021-08-09T08:19:23Z</time>
      </trkpt>
      <trkpt lat="44.49273" lon="1.5132">
        <ele>177</ele>
        <time>2021-08-09T08:19:24Z</time>
      </trkpt>
      <trkpt lat="44.49275" lon="1.51324">
        <ele>176.3</ele>
        <time>2021-08-09T08:19:25Z</time>
      </trkpt>
      <trkpt lat="44.49277" lon="1.51328">
        <ele>175</ele>
        <time>2021-08-09T08:19:26Z</time>
      </trkpt>
      <trkpt lat="44.49278" lon="1.51333">
        <ele>173.8</ele>
        <time>2021-08-09T08:19:28Z</time>
      </trkpt>
      <trkpt lat="44.4928" lon="1.51338">
        <ele>172.5</ele>
        <time>2021-08-09T08:19:29Z</time>
      </trkpt>
      <trkpt lat="44.4928" lon="1.51339">
        <ele>172.4</ele>
        <time>2021-08-09T08:19:30Z</time>
      </trkpt>
      <trkpt lat="44.49282" lon="1.51346">
        <ele>170.7</ele>
        <time>2021-08-09T08:19:32Z</time>
      </trkpt>
      <trkpt lat="44.49284" lon="1.5135">
        <ele>170</ele>
        <time>2021-08-09T08:19:33Z</time>
      </trkpt>
      <trkpt lat="44.49287" lon="1.51353">
        <ele>169.8</ele>
        <time>2021-08-09T08:19:34Z</time>
      </trkpt>
      <trkpt lat="44.49289" lon="1.51353">
        <ele>169.6</ele>
        <time>2021-08-09T08:19:36Z</time>
      </trkpt>
      <trkpt lat="44.49293" lon="1.51353">
        <ele>169.4</ele>
        <time>2021-08-09T08:19:37Z</time>
      </trkpt>
      <trkpt lat="44.49296" lon="1.51353">
        <ele>169.4</ele>
        <time>2021-08-09T08:19:38Z</time>
      </trkpt>
      <trkpt lat="44.49296" lon="1.51353">
        <ele>169.5</ele>
        <time>2021-08-09T08:19:39Z</time>
      </trkpt>
      <trkpt lat="44.49303" lon="1.51361">
        <ele>169.7</ele>
        <time>2021-08-09T08:19:41Z</time>
      </trkpt>
      <trkpt lat="44.49307" lon="1.51366">
        <ele>169.9</ele>
        <time>2021-08-09T08:19:42Z</time>
      </trkpt>
      <trkpt lat="44.49312" lon="1.51372">
        <ele>170.1</ele>
        <time>2021-08-09T08:19:43Z</time>
      </trkpt>
      <trkpt lat="44.49316" lon="1.51377">
        <ele>170.4</ele>
        <time>2021-08-09T08:19:44Z</time>
      </trkpt>
      <trkpt lat="44.49321" lon="1.51383">
        <ele>170.6</ele>
        <time>2021-08-09T08:19:46Z</time>
      </trkpt>
      <trkpt lat="44.49325" lon="1.51388">
        <ele>170.8</ele>
        <time>2021-08-09T08:19:47Z</time>
      </trkpt>
      <trkpt lat="44.4933" lon="1.51394">
        <ele>171</ele>
        <time>2021-08-09T08:19:49Z</time>
      </trkpt>
      <trkpt lat="44.49334" lon="1.51399">
        <ele>171.2</ele>
        <time>2021-08-09T08:19:50Z</time>
      </trkpt>
      <trkpt lat="44.49338" lon="1.51405">
        <ele>171.4</ele>
        <time>2021-08-09T08:19:52Z</time>
      </trkpt>
      <trkpt lat="44.49343" lon="1.5141">
        <ele>171.5</ele>
        <time>2021-08-09T08:23:35Z</time>
      </trkpt>
      <trkpt lat="44.49347" lon="1.51416">
        <ele>171.6</ele>
        <time>2021-08-09T08:23:36Z</time>
      </trkpt>
      <trkpt lat="44.49352" lon="1.51421">
        <ele>171.8</ele>
        <time>2021-08-09T08:23:37Z</time>
      </trkpt>
      <trkpt lat="44.49354" lon="1.51422">
        <ele>171.8</ele>
        <time>2021-08-09T08:23:38Z</time>
      </trkpt>
      <trkpt lat="44.49357" lon="1.51424">
        <ele>171.9</ele>
        <time>2021-08-09T08:23:40Z</time>
      </trkpt>
      <trkpt lat="44.49359" lon="1.51426">
        <ele>171.9</ele>
        <time>2021-08-09T08:23:41Z</time>
      </trkpt>
      <trkpt lat="44.49362" lon="1.51427">
        <ele>171.9</ele>
        <time>2021-08-09T08:23:42Z</time>
      </trkpt>
      <trkpt lat="44.49366" lon="1.51428">
        <ele>172</ele>
        <time>2021-08-09T08:23:44Z</time>
      </trkpt>
      <trkpt lat="44.49369" lon="1.51429">
        <ele>172</ele>
        <time>2021-08-09T08:23:45Z</time>
      </trkpt>
      <trkpt lat="44.49372" lon="1.5143">
        <ele>172</ele>
        <time>2021-08-09T08:23:46Z</time>
      </trkpt>
      <trkpt lat="44.49373" lon="1.51431">
        <ele>172</ele>
        <time>2021-08-09T08:23:47Z</time>
      </trkpt>
      <trkpt lat="44.49377" lon="1.51432">
        <ele>172</ele>
        <time>2021-08-09T08:23:49Z</time>
      </trkpt>
      <trkpt lat="44.49381" lon="1.51434">
        <ele>172.1</ele>
        <time>2021-08-09T08:23:50Z</time>
      </trkpt>
      <trkpt lat="44.49382" lon="1.51435">
        <ele>172.1</ele>
        <time>2021-08-09T08:23:51Z</time>
      </trkpt>
      <trkpt lat="44.49386" lon="1.51437">
        <ele>172.1</ele>
        <time>2021-08-09T08:23:53Z</time>
      </trkpt>
      <trkpt lat="44.49387" lon="1.51438">
        <ele>172.1</ele>
        <time>2021-08-09T08:23:54Z</time>
      </trkpt>
      <trkpt lat="44.49391" lon="1.51438">
        <ele>172.2</ele>
        <time>2021-08-09T08:23:56Z</time>
      </trkpt>
      <trkpt lat="44.49394" lon="1.5144">
        <ele>172.2</ele>
        <time>2021-08-09T08:23:57Z</time>
      </trkpt>
      <trkpt lat="44.49395" lon="1.5144">
        <ele>172.2</ele>
        <time>2021-08-09T08:23:58Z</time>
      </trkpt>
      <trkpt lat="44.49399" lon="1.51441">
        <ele>172.3</ele>
        <time>2021-08-09T08:23:59Z</time>
      </trkpt>
      <trkpt lat="44.494" lon="1.51441">
        <ele>172.3</ele>
        <time>2021-08-09T08:24:00Z</time>
      </trkpt>
      <trkpt lat="44.49403" lon="1.51443">
        <ele>172.3</ele>
        <time>2021-08-09T08:24:02Z</time>
      </trkpt>
      <trkpt lat="44.49406" lon="1.51443">
        <ele>172.4</ele>
        <time>2021-08-09T08:24:03Z</time>
      </trkpt>
      <trkpt lat="44.49407" lon="1.51444">
        <ele>172.4</ele>
        <time>2021-08-09T08:24:04Z</time>
      </trkpt>
      <trkpt lat="44.49412" lon="1.51444">
        <ele>172.4</ele>
        <time>2021-08-09T08:24:06Z</time>
      </trkpt>
      <trkpt lat="44.49413" lon="1.51444">
        <ele>172.4</ele>
        <time>2021-08-09T08:24:07Z</time>
      </trkpt>
      <trkpt lat="44.49414" lon="1.51444">
        <ele>172.5</ele>
        <time>2021-08-09T08:24:08Z</time>
      </trkpt>
      <trkpt lat="44.49417" lon="1.51445">
        <ele>172.5</ele>
        <time>2021-08-09T08:24:09Z</time>
      </trkpt>
      <trkpt lat="44.49418" lon="1.51445">
        <ele>172.5</ele>
        <time>2021-08-09T08:24:10Z</time>
      </trkpt>
      <trkpt lat="44.49419" lon="1.51446">
        <ele>172.5</ele>
        <time>2021-08-09T08:24:12Z</time>
      </trkpt>
      <trkpt lat="44.49419" lon="1.51446">
        <ele>172.5</ele>
        <time>2021-08-09T08:24:14Z</time>
      </trkpt>
      <trkpt lat="44.49419" lon="1.51447">
        <ele>172.5</ele>
        <time>2021-08-09T08:24:16Z</time>
      </trkpt>
      <trkpt lat="44.49419" lon="1.51447">
        <ele>172.5</ele>
        <time>2021-08-09T08:24:17Z</time>
      </trkpt>
      <trkpt lat="44.49419" lon="1.51447">
        <ele>172.5</ele>
        <time>2021-08-09T08:24:18Z</time>
      </trkpt>
      <trkpt lat="44.49419" lon="1.51447">
        <ele>172.5</ele>
        <time>2021-08-09T08:24:20Z</time>
      </trkpt>
      <trkpt lat="44.4942" lon="1.5145">
        <ele>172.6</ele>
        <time>2021-08-09T08:24:48Z</time>
      </trkpt>
      <trkpt lat="44.49421" lon="1.51452">
        <ele>172.6</ele>
        <time>2021-08-09T08:24:50Z</time>
      </trkpt>
      <trkpt lat="44.49423" lon="1.51454">
        <ele>172.7</ele>
        <time>2021-08-09T08:24:52Z</time>
      </trkpt>
      <trkpt lat="44.49424" lon="1.51456">
        <ele>172.7</ele>
        <time>2021-08-09T08:24:54Z</time>
      </trkpt>
      <trkpt lat="44.49424" lon="1.51456">
        <ele>172.7</ele>
        <time>2021-08-09T08:24:55Z</time>
      </trkpt>
      <trkpt lat="44.49425" lon="1.51457">
        <ele>172.7</ele>
        <time>2021-08-09T08:24:57Z</time>
      </trkpt>
      <trkpt lat="44.49425" lon="1.51458">
        <ele>172.7</ele>
        <time>2021-08-09T08:24:58Z</time>
      </trkpt>
      <trkpt lat="44.49425" lon="1.51458">
        <ele>172.7</ele>
        <time>2021-08-09T08:24:59Z</time>
      </trkpt>
      <trkpt lat="44.49427" lon="1.51461">
        <ele>172.8</ele>
        <time>2021-08-09T08:25:01Z</time>
      </trkpt>
      <trkpt lat="44.49429" lon="1.51464">
        <ele>172.9</ele>
        <time>2021-08-09T08:25:02Z</time>
      </trkpt>
      <trkpt lat="44.49432" lon="1.51467">
        <ele>173</ele>
        <time>2021-08-09T08:25:04Z</time>
      </trkpt>
      <trkpt lat="44.49434" lon="1.51471">
        <ele>173.1</ele>
        <time>2021-08-09T08:25:05Z</time>
      </trkpt>
      <trkpt lat="44.49434" lon="1.51472">
        <ele>173.2</ele>
        <time>2021-08-09T08:25:06Z</time>
      </trkpt>
      <trkpt lat="44.49435" lon="1.51474">
        <ele>173.3</ele>
        <time>2021-08-09T08:25:07Z</time>
      </trkpt>
      <trkpt lat="44.49439" lon="1.51477">
        <ele>173.5</ele>
        <time>2021-08-09T08:25:09Z</time>
      </trkpt>
      <trkpt lat="44.49442" lon="1.51475">
        <ele>173.6</ele>
        <time>2021-08-09T08:25:10Z</time>
      </trkpt>
      <trkpt lat="44.49443" lon="1.51475">
        <ele>173.7</ele>
        <time>2021-08-09T08:25:11Z</time>
      </trkpt>
      <trkpt lat="44.49447" lon="1.51473">
        <ele>174</ele>
        <time>2021-08-09T08:25:13Z</time>
      </trkpt>
      <trkpt lat="44.4945" lon="1.51471">
        <ele>174.1</ele>
        <time>2021-08-09T08:25:14Z</time>
      </trkpt>
      <trkpt lat="44.49452" lon="1.5147">
        <ele>174.3</ele>
        <time>2021-08-09T08:25:15Z</time>
      </trkpt>
      <trkpt lat="44.49456" lon="1.51467">
        <ele>174.6</ele>
        <time>2021-08-09T08:25:16Z</time>
      </trkpt>
      <trkpt lat="44.49457" lon="1.51467">
        <ele>174.6</ele>
        <time>2021-08-09T08:25:17Z</time>
      </trkpt>
      <trkpt lat="44.4946" lon="1.51465">
        <ele>174.9</ele>
        <time>2021-08-09T08:25:18Z</time>
      </trkpt>
      <trkpt lat="44.49463" lon="1.51464">
        <ele>175.1</ele>
        <time>2021-08-09T08:25:20Z</time>
      </trkpt>
      <trkpt lat="44.49465" lon="1.51462">
        <ele>175.3</ele>
        <time>2021-08-09T08:25:21Z</time>
      </trkpt>
      <trkpt lat="44.49468" lon="1.51461">
        <ele>175.6</ele>
        <time>2021-08-09T08:25:23Z</time>
      </trkpt>
      <trkpt lat="44.49471" lon="1.5146">
        <ele>175.8</ele>
        <time>2021-08-09T08:25:24Z</time>
      </trkpt>
      <trkpt lat="44.49475" lon="1.51459">
        <ele>176.1</ele>
        <time>2021-08-09T08:25:25Z</time>
      </trkpt>
      <trkpt lat="44.49476" lon="1.51458">
        <ele>176.2</ele>
        <time>2021-08-09T08:25:26Z</time>
      </trkpt>
      <trkpt lat="44.49478" lon="1.51458">
        <ele>176.3</ele>
        <time>2021-08-09T08:25:27Z</time>
      </trkpt>
      <trkpt lat="44.49481" lon="1.51457">
        <ele>176.4</ele>
        <time>2021-08-09T08:25:29Z</time>
      </trkpt>
      <trkpt lat="44.49482" lon="1.51456">
        <ele>176.5</ele>
        <time>2021-08-09T08:25:30Z</time>
      </trkpt>
      <trkpt lat="44.49485" lon="1.51454">
        <ele>176.5</ele>
        <time>2021-08-09T08:25:32Z</time>
      </trkpt>
      <trkpt lat="44.49488" lon="1.51454">
        <ele>176.6</ele>
        <time>2021-08-09T08:25:33Z</time>
      </trkpt>
      <trkpt lat="44.49489" lon="1.51455">
        <ele>176.6</ele>
        <time>2021-08-09T08:25:34Z</time>
      </trkpt>
      <trkpt lat="44.49491" lon="1.51454">
        <ele>176.6</ele>
        <time>2021-08-09T08:25:35Z</time>
      </trkpt>
      <trkpt lat="44.49491" lon="1.51453">
        <ele>176.6</ele>
        <time>2021-08-09T08:25:36Z</time>
      </trkpt>
      <trkpt lat="44.49492" lon="1.51452">
        <ele>176.5</ele>
        <time>2021-08-09T08:25:37Z</time>
      </trkpt>
      <trkpt lat="44.49495" lon="1.51449">
        <ele>176.5</ele>
        <time>2021-08-09T08:25:39Z</time>
      </trkpt>
      <trkpt lat="44.49496" lon="1.51448">
        <ele>176.4</ele>
        <time>2021-08-09T08:25:40Z</time>
      </trkpt>
      <trkpt lat="44.49498" lon="1.51448">
        <ele>176.4</ele>
        <time>2021-08-09T08:25:41Z</time>
      </trkpt>
      <trkpt lat="44.495" lon="1.51444">
        <ele>176.2</ele>
        <time>2021-08-09T08:25:43Z</time>
      </trkpt>
      <trkpt lat="44.49501" lon="1.5144">
        <ele>176.1</ele>
        <time>2021-08-09T08:25:44Z</time>
      </trkpt>
      <trkpt lat="44.49501" lon="1.51438">
        <ele>176.1</ele>
        <time>2021-08-09T08:25:46Z</time>
      </trkpt>
      <trkpt lat="44.49501" lon="1.51437">
        <ele>176</ele>
        <time>2021-08-09T08:25:47Z</time>
      </trkpt>
      <trkpt lat="44.495" lon="1.51435">
        <ele>176</ele>
        <time>2021-08-09T08:25:48Z</time>
      </trkpt>
      <trkpt lat="44.49499" lon="1.51433">
        <ele>175.9</ele>
        <time>2021-08-09T08:25:50Z</time>
      </trkpt>
      <trkpt lat="44.49498" lon="1.51431">
        <ele>175.8</ele>
        <time>2021-08-09T08:25:51Z</time>
      </trkpt>
      <trkpt lat="44.49498" lon="1.51429">
        <ele>175.8</ele>
        <time>2021-08-09T08:25:52Z</time>
      </trkpt>
      <trkpt lat="44.49497" lon="1.51428">
        <ele>175.7</ele>
        <time>2021-08-09T08:25:54Z</time>
      </trkpt>
      <trkpt lat="44.49497" lon="1.51427">
        <ele>175.7</ele>
        <time>2021-08-09T08:25:55Z</time>
      </trkpt>
      <trkpt lat="44.49496" lon="1.51423">
        <ele>175.6</ele>
        <time>2021-08-09T08:25:57Z</time>
      </trkpt>
      <trkpt lat="44.49498" lon="1.51419">
        <ele>175.5</ele>
        <time>2021-08-09T08:25:58Z</time>
      </trkpt>
      <trkpt lat="44.49499" lon="1.51418">
        <ele>175.4</ele>
        <time>2021-08-09T08:26:00Z</time>
      </trkpt>
      <trkpt lat="44.495" lon="1.51416">
        <ele>175.4</ele>
        <time>2021-08-09T08:26:01Z</time>
      </trkpt>
      <trkpt lat="44.49501" lon="1.51415">
        <ele>175.3</ele>
        <time>2021-08-09T08:26:02Z</time>
      </trkpt>
      <trkpt lat="44.49505" lon="1.51413">
        <ele>175.2</ele>
        <time>2021-08-09T08:26:03Z</time>
      </trkpt>
      <trkpt lat="44.49509" lon="1.5141">
        <ele>175.1</ele>
        <time>2021-08-09T08:26:05Z</time>
      </trkpt>
      <trkpt lat="44.4951" lon="1.51409">
        <ele>175.1</ele>
        <time>2021-08-09T08:26:06Z</time>
      </trkpt>
      <trkpt lat="44.49512" lon="1.51408">
        <ele>175</ele>
        <time>2021-08-09T08:26:07Z</time>
      </trkpt>
      <trkpt lat="44.49515" lon="1.51406">
        <ele>175</ele>
        <time>2021-08-09T08:26:08Z</time>
      </trkpt>
      <trkpt lat="44.49516" lon="1.51406">
        <ele>175</ele>
        <time>2021-08-09T08:26:09Z</time>
      </trkpt>
      <trkpt lat="44.49519" lon="1.51405">
        <ele>174.9</ele>
        <time>2021-08-09T08:26:11Z</time>
      </trkpt>
      <trkpt lat="44.4952" lon="1.51405">
        <ele>174.9</ele>
        <time>2021-08-09T08:26:12Z</time>
      </trkpt>
      <trkpt lat="44.49524" lon="1.51403">
        <ele>174.9</ele>
        <time>2021-08-09T08:26:13Z</time>
      </trkpt>
      <trkpt lat="44.49525" lon="1.51401">
        <ele>174.9</ele>
        <time>2021-08-09T08:26:14Z</time>
      </trkpt>
      <trkpt lat="44.4953" lon="1.51398">
        <ele>174.9</ele>
        <time>2021-08-09T08:26:16Z</time>
      </trkpt>
      <trkpt lat="44.49531" lon="1.51397">
        <ele>174.9</ele>
        <time>2021-08-09T08:26:17Z</time>
      </trkpt>
      <trkpt lat="44.49532" lon="1.51396">
        <ele>174.9</ele>
        <time>2021-08-09T08:26:18Z</time>
      </trkpt>
      <trkpt lat="44.49537" lon="1.51396">
        <ele>174.9</ele>
        <time>2021-08-09T08:26:20Z</time>
      </trkpt>
      <trkpt lat="44.49538" lon="1.51395">
        <ele>174.9</ele>
        <time>2021-08-09T08:26:21Z</time>
      </trkpt>
      <trkpt lat="44.49539" lon="1.51395">
        <ele>174.9</ele>
        <time>2021-08-09T08:26:22Z</time>
      </trkpt>
      <trkpt lat="44.49542" lon="1.51392">
        <ele>174.9</ele>
        <time>2021-08-09T08:26:23Z</time>
      </trkpt>
      <trkpt lat="44.49544" lon="1.51391">
        <ele>174.9</ele>
        <time>2021-08-09T08:26:24Z</time>
      </trkpt>
      <trkpt lat="44.49548" lon="1.51389">
        <ele>175</ele>
        <time>2021-08-09T08:26:26Z</time>
      </trkpt>
      <trkpt lat="44.49553" lon="1.51388">
        <ele>175.1</ele>
        <time>2021-08-09T08:26:28Z</time>
      </trkpt>
      <trkpt lat="44.49555" lon="1.51387">
        <ele>175.1</ele>
        <time>2021-08-09T08:26:29Z</time>
      </trkpt>
      <trkpt lat="44.49556" lon="1.51386">
        <ele>175.1</ele>
        <time>2021-08-09T08:26:30Z</time>
      </trkpt>
      <trkpt lat="44.4956" lon="1.51385">
        <ele>175.2</ele>
        <time>2021-08-09T08:26:32Z</time>
      </trkpt>
      <trkpt lat="44.49563" lon="1.51384">
        <ele>175.3</ele>
        <time>2021-08-09T08:26:33Z</time>
      </trkpt>
      <trkpt lat="44.49567" lon="1.51383">
        <ele>175.4</ele>
        <time>2021-08-09T08:26:35Z</time>
      </trkpt>
      <trkpt lat="44.4957" lon="1.51382">
        <ele>175.5</ele>
        <time>2021-08-09T08:26:36Z</time>
      </trkpt>
      <trkpt lat="44.49574" lon="1.51381">
        <ele>175.6</ele>
        <time>2021-08-09T08:26:37Z</time>
      </trkpt>
      <trkpt lat="44.49576" lon="1.51381">
        <ele>175.7</ele>
        <time>2021-08-09T08:26:38Z</time>
      </trkpt>
      <trkpt lat="44.49579" lon="1.5138">
        <ele>175.7</ele>
        <time>2021-08-09T08:26:39Z</time>
      </trkpt>
      <trkpt lat="44.49582" lon="1.51379">
        <ele>175.8</ele>
        <time>2021-08-09T08:26:41Z</time>
      </trkpt>
      <trkpt lat="44.49584" lon="1.51377">
        <ele>175.9</ele>
        <time>2021-08-09T08:26:42Z</time>
      </trkpt>
      <trkpt lat="44.49587" lon="1.51376">
        <ele>175.9</ele>
        <time>2021-08-09T08:26:43Z</time>
      </trkpt>
      <trkpt lat="44.49589" lon="1.51375">
        <ele>175.9</ele>
        <time>2021-08-09T08:26:44Z</time>
      </trkpt>
      <trkpt lat="44.49593" lon="1.51373">
        <ele>176</ele>
        <time>2021-08-09T08:26:46Z</time>
      </trkpt>
      <trkpt lat="44.49595" lon="1.51372">
        <ele>176.1</ele>
        <time>2021-08-09T08:26:47Z</time>
      </trkpt>
      <trkpt lat="44.49598" lon="1.5137">
        <ele>176.1</ele>
        <time>2021-08-09T08:26:49Z</time>
      </trkpt>
      <trkpt lat="44.49601" lon="1.51369">
        <ele>176.2</ele>
        <time>2021-08-09T08:26:50Z</time>
      </trkpt>
      <trkpt lat="44.49604" lon="1.51367">
        <ele>176.3</ele>
        <time>2021-08-09T08:26:51Z</time>
      </trkpt>
      <trkpt lat="44.49606" lon="1.51366">
        <ele>176.3</ele>
        <time>2021-08-09T08:26:52Z</time>
      </trkpt>
      <trkpt lat="44.49609" lon="1.51362">
        <ele>176.4</ele>
        <time>2021-08-09T08:26:54Z</time>
      </trkpt>
      <trkpt lat="44.4961" lon="1.51362">
        <ele>176.4</ele>
        <time>2021-08-09T08:26:55Z</time>
      </trkpt>
      <trkpt lat="44.49614" lon="1.51359">
        <ele>176.5</ele>
        <time>2021-08-09T08:26:57Z</time>
      </trkpt>
      <trkpt lat="44.49617" lon="1.51357">
        <ele>176.6</ele>
        <time>2021-08-09T08:26:58Z</time>
      </trkpt>
      <trkpt lat="44.49618" lon="1.51356">
        <ele>176.6</ele>
        <time>2021-08-09T08:26:59Z</time>
      </trkpt>
      <trkpt lat="44.49623" lon="1.51355">
        <ele>176.6</ele>
        <time>2021-08-09T08:27:00Z</time>
      </trkpt>
      <trkpt lat="44.49624" lon="1.51354">
        <ele>176.6</ele>
        <time>2021-08-09T08:27:01Z</time>
      </trkpt>
      <trkpt lat="44.49627" lon="1.51353">
        <ele>176.7</ele>
        <time>2021-08-09T08:27:02Z</time>
      </trkpt>
      <trkpt lat="44.4963" lon="1.51353">
        <ele>176.7</ele>
        <time>2021-08-09T08:27:04Z</time>
      </trkpt>
      <trkpt lat="44.49633" lon="1.51354">
        <ele>176.7</ele>
        <time>2021-08-09T08:27:05Z</time>
      </trkpt>
      <trkpt lat="44.49637" lon="1.51353">
        <ele>176.8</ele>
        <time>2021-08-09T08:27:07Z</time>
      </trkpt>
      <trkpt lat="44.4964" lon="1.51351">
        <ele>176.8</ele>
        <time>2021-08-09T08:27:08Z</time>
      </trkpt>
      <trkpt lat="44.49641" lon="1.5135">
        <ele>176.8</ele>
        <time>2021-08-09T08:27:09Z</time>
      </trkpt>
      <trkpt lat="44.49643" lon="1.5135">
        <ele>176.8</ele>
        <time>2021-08-09T08:27:10Z</time>
      </trkpt>
      <trkpt lat="44.49646" lon="1.5135">
        <ele>176.8</ele>
        <time>2021-08-09T08:27:12Z</time>
      </trkpt>
      <trkpt lat="44.49647" lon="1.51351">
        <ele>176.8</ele>
        <time>2021-08-09T08:27:13Z</time>
      </trkpt>
      <trkpt lat="44.49648" lon="1.51354">
        <ele>176.8</ele>
        <time>2021-08-09T08:27:15Z</time>
      </trkpt>
      <trkpt lat="44.4965" lon="1.51354">
        <ele>176.9</ele>
        <time>2021-08-09T08:27:16Z</time>
      </trkpt>
      <trkpt lat="44.49652" lon="1.51352">
        <ele>176.9</ele>
        <time>2021-08-09T08:27:17Z</time>
      </trkpt>
      <trkpt lat="44.49652" lon="1.51349">
        <ele>176.9</ele>
        <time>2021-08-09T08:27:18Z</time>
      </trkpt>
      <trkpt lat="44.49653" lon="1.51348">
        <ele>176.9</ele>
        <time>2021-08-09T08:27:19Z</time>
      </trkpt>
      <trkpt lat="44.49653" lon="1.51345">
        <ele>176.9</ele>
        <time>2021-08-09T08:27:20Z</time>
      </trkpt>
      <trkpt lat="44.49654" lon="1.51342">
        <ele>176.9</ele>
        <time>2021-08-09T08:27:22Z</time>
      </trkpt>
      <trkpt lat="44.49654" lon="1.5134">
        <ele>176.9</ele>
        <time>2021-08-09T08:27:23Z</time>
      </trkpt>
      <trkpt lat="44.49655" lon="1.51338">
        <ele>176.9</ele>
        <time>2021-08-09T08:27:25Z</time>
      </trkpt>
      <trkpt lat="44.49656" lon="1.51336">
        <ele>176.9</ele>
        <time>2021-08-09T08:27:26Z</time>
      </trkpt>
      <trkpt lat="44.49657" lon="1.51334">
        <ele>176.9</ele>
        <time>2021-08-09T08:27:28Z</time>
      </trkpt>
      <trkpt lat="44.49658" lon="1.51333">
        <ele>176.9</ele>
        <time>2021-08-09T08:27:29Z</time>
      </trkpt>
      <trkpt lat="44.49659" lon="1.51331">
        <ele>176.9</ele>
        <time>2021-08-09T08:27:30Z</time>
      </trkpt>
      <trkpt lat="44.49659" lon="1.51329">
        <ele>177</ele>
        <time>2021-08-09T08:28:01Z</time>
      </trkpt>
      <trkpt lat="44.4966" lon="1.51327">
        <ele>177</ele>
        <time>2021-08-09T08:28:02Z</time>
      </trkpt>
      <trkpt lat="44.49662" lon="1.51323">
        <ele>177</ele>
        <time>2021-08-09T08:28:04Z</time>
      </trkpt>
      <trkpt lat="44.49663" lon="1.51322">
        <ele>177</ele>
        <time>2021-08-09T08:28:05Z</time>
      </trkpt>
      <trkpt lat="44.49663" lon="1.51322">
        <ele>177</ele>
        <time>2021-08-09T08:28:06Z</time>
      </trkpt>
      <trkpt lat="44.49663" lon="1.51322">
        <ele>177</ele>
        <time>2021-08-09T08:28:07Z</time>
      </trkpt>
      <trkpt lat="44.49663" lon="1.51321">
        <ele>177</ele>
        <time>2021-08-09T08:28:08Z</time>
      </trkpt>
      <trkpt lat="44.49664" lon="1.51321">
        <ele>177</ele>
        <time>2021-08-09T08:28:10Z</time>
      </trkpt>
      <trkpt lat="44.49664" lon="1.51321">
        <ele>177</ele>
        <time>2021-08-09T08:28:11Z</time>
      </trkpt>
      <trkpt lat="44.49664" lon="1.51321">
        <ele>177</ele>
        <time>2021-08-09T08:28:12Z</time>
      </trkpt>
      <trkpt lat="44.49664" lon="1.51321">
        <ele>177</ele>
        <time>2021-08-09T08:28:13Z</time>
      </trkpt>
      <trkpt lat="44.49664" lon="1.51321">
        <ele>177</ele>
        <time>2021-08-09T08:28:14Z</time>
      </trkpt>
      <trkpt lat="44.49671" lon="1.5132">
        <ele>177.1</ele>
        <time>2021-08-09T08:28:16Z</time>
      </trkpt>
      <trkpt lat="44.49673" lon="1.5132">
        <ele>177.1</ele>
        <time>2021-08-09T08:28:17Z</time>
      </trkpt>
      <trkpt lat="44.49676" lon="1.51319">
        <ele>177.1</ele>
        <time>2021-08-09T08:28:19Z</time>
      </trkpt>
      <trkpt lat="44.49677" lon="1.5132">
        <ele>177.2</ele>
        <time>2021-08-09T08:28:20Z</time>
      </trkpt>
      <trkpt lat="44.49678" lon="1.5132">
        <ele>177.2</ele>
        <time>2021-08-09T08:28:22Z</time>
      </trkpt>
      <trkpt lat="44.49679" lon="1.5132">
        <ele>177.2</ele>
        <time>2021-08-09T08:28:23Z</time>
      </trkpt>
      <trkpt lat="44.4968" lon="1.51321">
        <ele>177.2</ele>
        <time>2021-08-09T08:28:25Z</time>
      </trkpt>
      <trkpt lat="44.49681" lon="1.51321">
        <ele>177.2</ele>
        <time>2021-08-09T08:28:26Z</time>
      </trkpt>
      <trkpt lat="44.49681" lon="1.51321">
        <ele>177.2</ele>
        <time>2021-08-09T08:28:28Z</time>
      </trkpt>
      <trkpt lat="44.49682" lon="1.51322">
        <ele>177.2</ele>
        <time>2021-08-09T08:28:30Z</time>
      </trkpt>
      <trkpt lat="44.49683" lon="1.51322">
        <ele>177.2</ele>
        <time>2021-08-09T08:28:32Z</time>
      </trkpt>
      <trkpt lat="44.49684" lon="1.51322">
        <ele>177.3</ele>
        <time>2021-08-09T08:28:33Z</time>
      </trkpt>
      <trkpt lat="44.49689" lon="1.51325">
        <ele>177.3</ele>
        <time>2021-08-09T08:28:35Z</time>
      </trkpt>
      <trkpt lat="44.49693" lon="1.51327">
        <ele>177.4</ele>
        <time>2021-08-09T08:28:36Z</time>
      </trkpt>
      <trkpt lat="44.49694" lon="1.51327">
        <ele>177.4</ele>
        <time>2021-08-09T08:28:37Z</time>
      </trkpt>
      <trkpt lat="44.49698" lon="1.51328">
        <ele>177.5</ele>
        <time>2021-08-09T08:28:38Z</time>
      </trkpt>
      <trkpt lat="44.49703" lon="1.51331">
        <ele>177.6</ele>
        <time>2021-08-09T08:28:40Z</time>
      </trkpt>
      <trkpt lat="44.49706" lon="1.51332">
        <ele>177.6</ele>
        <time>2021-08-09T08:28:41Z</time>
      </trkpt>
      <trkpt lat="44.49707" lon="1.51332">
        <ele>177.6</ele>
        <time>2021-08-09T08:28:42Z</time>
      </trkpt>
      <trkpt lat="44.49712" lon="1.51333">
        <ele>177.7</ele>
        <time>2021-08-09T08:28:44Z</time>
      </trkpt>
      <trkpt lat="44.49717" lon="1.51335">
        <ele>177.9</ele>
        <time>2021-08-09T08:28:46Z</time>
      </trkpt>
      <trkpt lat="44.49721" lon="1.51335">
        <ele>178</ele>
        <time>2021-08-09T08:28:48Z</time>
      </trkpt>
      <trkpt lat="44.49726" lon="1.51335">
        <ele>178.1</ele>
        <time>2021-08-09T08:28:49Z</time>
      </trkpt>
      <trkpt lat="44.49727" lon="1.51335">
        <ele>178.2</ele>
        <time>2021-08-09T08:28:50Z</time>
      </trkpt>
      <trkpt lat="44.49732" lon="1.51335">
        <ele>178.4</ele>
        <time>2021-08-09T08:28:52Z</time>
      </trkpt>
      <trkpt lat="44.49734" lon="1.51335">
        <ele>178.5</ele>
        <time>2021-08-09T08:28:53Z</time>
      </trkpt>
      <trkpt lat="44.49737" lon="1.51335">
        <ele>178.6</ele>
        <time>2021-08-09T08:28:55Z</time>
      </trkpt>
      <trkpt lat="44.49739" lon="1.51335">
        <ele>178.6</ele>
        <time>2021-08-09T08:28:57Z</time>
      </trkpt>
      <trkpt lat="44.49739" lon="1.51336">
        <ele>178.6</ele>
        <time>2021-08-09T08:28:58Z</time>
      </trkpt>
      <trkpt lat="44.49739" lon="1.51336">
        <ele>178.7</ele>
        <time>2021-08-09T08:28:59Z</time>
      </trkpt>
      <trkpt lat="44.49739" lon="1.51336">
        <ele>178.7</ele>
        <time>2021-08-09T08:29:00Z</time>
      </trkpt>
      <trkpt lat="44.49739" lon="1.51336">
        <ele>178.7</ele>
        <time>2021-08-09T08:29:02Z</time>
      </trkpt>
      <trkpt lat="44.49739" lon="1.51336">
        <ele>178.7</ele>
        <time>2021-08-09T08:29:04Z</time>
      </trkpt>
      <trkpt lat="44.49739" lon="1.51335">
        <ele>178.7</ele>
        <time>2021-08-09T08:29:05Z</time>
      </trkpt>
      <trkpt lat="44.49759" lon="1.51331">
        <ele>179.3</ele>
        <time>2021-08-09T08:29:47Z</time>
      </trkpt>
      <trkpt lat="44.49763" lon="1.51332">
        <ele>179.4</ele>
        <time>2021-08-09T08:29:49Z</time>
      </trkpt>
      <trkpt lat="44.49766" lon="1.51333">
        <ele>179.5</ele>
        <time>2021-08-09T08:29:50Z</time>
      </trkpt>
      <trkpt lat="44.49771" lon="1.51333">
        <ele>179.6</ele>
        <time>2021-08-09T08:29:52Z</time>
      </trkpt>
      <trkpt lat="44.49774" lon="1.51334">
        <ele>179.6</ele>
        <time>2021-08-09T08:29:53Z</time>
      </trkpt>
      <trkpt lat="44.49777" lon="1.51334">
        <ele>179.7</ele>
        <time>2021-08-09T08:29:54Z</time>
      </trkpt>
      <trkpt lat="44.4978" lon="1.51334">
        <ele>179.7</ele>
        <time>2021-08-09T08:29:55Z</time>
      </trkpt>
      <trkpt lat="44.49783" lon="1.51332">
        <ele>179.8</ele>
        <time>2021-08-09T08:29:57Z</time>
      </trkpt>
      <trkpt lat="44.49786" lon="1.51333">
        <ele>179.8</ele>
        <time>2021-08-09T08:29:58Z</time>
      </trkpt>
      <trkpt lat="44.49788" lon="1.51333">
        <ele>179.8</ele>
        <time>2021-08-09T08:29:59Z</time>
      </trkpt>
      <trkpt lat="44.49793" lon="1.51333">
        <ele>179.9</ele>
        <time>2021-08-09T08:30:01Z</time>
      </trkpt>
      <trkpt lat="44.49798" lon="1.51333">
        <ele>180</ele>
        <time>2021-08-09T08:30:03Z</time>
      </trkpt>
      <trkpt lat="44.49799" lon="1.51332">
        <ele>180</ele>
        <time>2021-08-09T08:30:04Z</time>
      </trkpt>
      <trkpt lat="44.498" lon="1.51331">
        <ele>180.1</ele>
        <time>2021-08-09T08:30:05Z</time>
      </trkpt>
      <trkpt lat="44.49802" lon="1.51331">
        <ele>180.1</ele>
        <time>2021-08-09T08:30:07Z</time>
      </trkpt>
      <trkpt lat="44.49802" lon="1.51332">
        <ele>180.1</ele>
        <time>2021-08-09T08:30:08Z</time>
      </trkpt>
      <trkpt lat="44.49803" lon="1.51332">
        <ele>180.1</ele>
        <time>2021-08-09T08:30:09Z</time>
      </trkpt>
      <trkpt lat="44.49803" lon="1.51332">
        <ele>180.1</ele>
        <time>2021-08-09T08:30:11Z</time>
      </trkpt>
      <trkpt lat="44.49807" lon="1.51331">
        <ele>180.2</ele>
        <time>2021-08-09T08:30:13Z</time>
      </trkpt>
      <trkpt lat="44.4981" lon="1.5133">
        <ele>180.2</ele>
        <time>2021-08-09T08:30:14Z</time>
      </trkpt>
      <trkpt lat="44.49813" lon="1.51327">
        <ele>180.3</ele>
        <time>2021-08-09T08:30:15Z</time>
      </trkpt>
      <trkpt lat="44.49817" lon="1.51325">
        <ele>180.3</ele>
        <time>2021-08-09T08:30:16Z</time>
      </trkpt>
      <trkpt lat="44.49823" lon="1.51324">
        <ele>180.3</ele>
        <time>2021-08-09T08:30:18Z</time>
      </trkpt>
      <trkpt lat="44.49827" lon="1.51322">
        <ele>180.3</ele>
        <time>2021-08-09T08:30:19Z</time>
      </trkpt>
      <trkpt lat="44.49831" lon="1.51317">
        <ele>180.2</ele>
        <time>2021-08-09T08:30:21Z</time>
      </trkpt>
      <trkpt lat="44.49834" lon="1.51314">
        <ele>180.2</ele>
        <time>2021-08-09T08:30:22Z</time>
      </trkpt>
      <trkpt lat="44.49836" lon="1.51312">
        <ele>180.1</ele>
        <time>2021-08-09T08:30:23Z</time>
      </trkpt>
      <trkpt lat="44.49841" lon="1.51307">
        <ele>180.1</ele>
        <time>2021-08-09T08:30:25Z</time>
      </trkpt>
      <trkpt lat="44.49844" lon="1.51306">
        <ele>180</ele>
        <time>2021-08-09T08:30:26Z</time>
      </trkpt>
      <trkpt lat="44.49845" lon="1.51304">
        <ele>180</ele>
        <time>2021-08-09T08:30:27Z</time>
      </trkpt>
      <trkpt lat="44.49847" lon="1.51302">
        <ele>179.9</ele>
        <time>2021-08-09T08:30:29Z</time>
      </trkpt>
      <trkpt lat="44.49848" lon="1.51301">
        <ele>179.9</ele>
        <time>2021-08-09T08:30:31Z</time>
      </trkpt>
      <trkpt lat="44.49848" lon="1.51301">
        <ele>179.9</ele>
        <time>2021-08-09T08:30:32Z</time>
      </trkpt>
      <trkpt lat="44.49848" lon="1.513">
        <ele>179.9</ele>
        <time>2021-08-09T08:30:33Z</time>
      </trkpt>
      <trkpt lat="44.49848" lon="1.513">
        <ele>179.9</ele>
        <time>2021-08-09T08:30:35Z</time>
      </trkpt>
      <trkpt lat="44.49848" lon="1.513">
        <ele>179.9</ele>
        <time>2021-08-09T08:30:37Z</time>
      </trkpt>
      <trkpt lat="44.49849" lon="1.51298">
        <ele>179.9</ele>
        <time>2021-08-09T08:30:55Z</time>
      </trkpt>
      <trkpt lat="44.49851" lon="1.51296">
        <ele>179.9</ele>
        <time>2021-08-09T08:30:56Z</time>
      </trkpt>
      <trkpt lat="44.49853" lon="1.51294">
        <ele>179.8</ele>
        <time>2021-08-09T08:30:58Z</time>
      </trkpt>
      <trkpt lat="44.49854" lon="1.51294">
        <ele>179.8</ele>
        <time>2021-08-09T08:30:59Z</time>
      </trkpt>
      <trkpt lat="44.49855" lon="1.51293">
        <ele>179.8</ele>
        <time>2021-08-09T08:31:00Z</time>
      </trkpt>
      <trkpt lat="44.49858" lon="1.51292">
        <ele>179.8</ele>
        <time>2021-08-09T08:31:02Z</time>
      </trkpt>
      <trkpt lat="44.49861" lon="1.51291">
        <ele>179.8</ele>
        <time>2021-08-09T08:31:03Z</time>
      </trkpt>
      <trkpt lat="44.49864" lon="1.5129">
        <ele>179.8</ele>
        <time>2021-08-09T08:31:05Z</time>
      </trkpt>
      <trkpt lat="44.49867" lon="1.51289">
        <ele>180.1</ele>
        <time>2021-08-09T08:31:07Z</time>
      </trkpt>
      <trkpt lat="44.4987" lon="1.51288">
        <ele>180.1</ele>
        <time>2021-08-09T08:31:09Z</time>
      </trkpt>
      <trkpt lat="44.49873" lon="1.51287">
        <ele>180.2</ele>
        <time>2021-08-09T08:32:10Z</time>
      </trkpt>
      <trkpt lat="44.49876" lon="1.51286">
        <ele>180.2</ele>
        <time>2021-08-09T08:32:12Z</time>
      </trkpt>
      <trkpt lat="44.49878" lon="1.51286">
        <ele>180.2</ele>
        <time>2021-08-09T08:32:13Z</time>
      </trkpt>
      <trkpt lat="44.49881" lon="1.51285">
        <ele>180.4</ele>
        <time>2021-08-09T08:32:14Z</time>
      </trkpt>
      <trkpt lat="44.49883" lon="1.51284">
        <ele>180.9</ele>
        <time>2021-08-09T08:32:16Z</time>
      </trkpt>
      <trkpt lat="44.49883" lon="1.51283">
        <ele>181.4</ele>
        <time>2021-08-09T08:32:17Z</time>
      </trkpt>
      <trkpt lat="44.49884" lon="1.51283">
        <ele>181.4</ele>
        <time>2021-08-09T08:32:18Z</time>
      </trkpt>
      <trkpt lat="44.49884" lon="1.51282">
        <ele>181.9</ele>
        <time>2021-08-09T08:32:20Z</time>
      </trkpt>
      <trkpt lat="44.49885" lon="1.51282">
        <ele>182.3</ele>
        <time>2021-08-09T08:32:22Z</time>
      </trkpt>
      <trkpt lat="44.49885" lon="1.51282">
        <ele>182.8</ele>
        <time>2021-08-09T08:32:23Z</time>
      </trkpt>
      <trkpt lat="44.49886" lon="1.5128">
        <ele>183</ele>
        <time>2021-08-09T08:32:50Z</time>
      </trkpt>
      <trkpt lat="44.49888" lon="1.51277">
        <ele>183.5</ele>
        <time>2021-08-09T08:32:52Z</time>
      </trkpt>
      <trkpt lat="44.49889" lon="1.51276">
        <ele>184.2</ele>
        <time>2021-08-09T08:32:53Z</time>
      </trkpt>
      <trkpt lat="44.49891" lon="1.51275">
        <ele>184.2</ele>
        <time>2021-08-09T08:32:55Z</time>
      </trkpt>
      <trkpt lat="44.49891" lon="1.51274">
        <ele>184.7</ele>
        <time>2021-08-09T08:32:57Z</time>
      </trkpt>
      <trkpt lat="44.49891" lon="1.51274">
        <ele>185.2</ele>
        <time>2021-08-09T08:32:59Z</time>
      </trkpt>
      <trkpt lat="44.49891" lon="1.51274">
        <ele>185.7</ele>
        <time>2021-08-09T08:33:00Z</time>
      </trkpt>
      <trkpt lat="44.49891" lon="1.51274">
        <ele>186.1</ele>
        <time>2021-08-09T08:33:01Z</time>
      </trkpt>
      <trkpt lat="44.49891" lon="1.51274">
        <ele>186.6</ele>
        <time>2021-08-09T08:33:02Z</time>
      </trkpt>
      <trkpt lat="44.49892" lon="1.51273">
        <ele>187.1</ele>
        <time>2021-08-09T08:33:04Z</time>
      </trkpt>
      <trkpt lat="44.49892" lon="1.51273">
        <ele>187.5</ele>
        <time>2021-08-09T08:33:06Z</time>
      </trkpt>
      <trkpt lat="44.49892" lon="1.51273">
        <ele>188</ele>
        <time>2021-08-09T08:33:08Z</time>
      </trkpt>
      <trkpt lat="44.49892" lon="1.51273">
        <ele>188.5</ele>
        <time>2021-08-09T08:33:10Z</time>
      </trkpt>
      <trkpt lat="44.49892" lon="1.51273">
        <ele>188.9</ele>
        <time>2021-08-09T08:33:12Z</time>
      </trkpt>
      <trkpt lat="44.49892" lon="1.51273">
        <ele>189</ele>
        <time>2021-08-09T08:33:13Z</time>
      </trkpt>
      <trkpt lat="44.49893" lon="1.51272">
        <ele>189.5</ele>
        <time>2021-08-09T08:33:14Z</time>
      </trkpt>
      <trkpt lat="44.49893" lon="1.51272">
        <ele>190.2</ele>
        <time>2021-08-09T08:33:16Z</time>
      </trkpt>
      <trkpt lat="44.49893" lon="1.51272">
        <ele>190.7</ele>
        <time>2021-08-09T08:33:17Z</time>
      </trkpt>
      <trkpt lat="44.49893" lon="1.51272">
        <ele>191.2</ele>
        <time>2021-08-09T08:33:18Z</time>
      </trkpt>
      <trkpt lat="44.49893" lon="1.51272">
        <ele>191.6</ele>
        <time>2021-08-09T08:33:19Z</time>
      </trkpt>
      <trkpt lat="44.49893" lon="1.51271">
        <ele>192.1</ele>
        <time>2021-08-09T08:33:20Z</time>
      </trkpt>
      <trkpt lat="44.49894" lon="1.51271">
        <ele>192.6</ele>
        <time>2021-08-09T08:33:22Z</time>
      </trkpt>
      <trkpt lat="44.49894" lon="1.51271">
        <ele>193</ele>
        <time>2021-08-09T08:33:23Z</time>
      </trkpt>
      <trkpt lat="44.49894" lon="1.51271">
        <ele>193.5</ele>
        <time>2021-08-09T08:33:24Z</time>
      </trkpt>
      <trkpt lat="44.49894" lon="1.51271">
        <ele>194</ele>
        <time>2021-08-09T08:33:25Z</time>
      </trkpt>
      <trkpt lat="44.49894" lon="1.51271">
        <ele>194.5</ele>
        <time>2021-08-09T08:33:26Z</time>
      </trkpt>
      <trkpt lat="44.49894" lon="1.5127">
        <ele>194.9</ele>
        <time>2021-08-09T08:33:28Z</time>
      </trkpt>
      <trkpt lat="44.49895" lon="1.5127">
        <ele>195.4</ele>
        <time>2021-08-09T08:33:30Z</time>
      </trkpt>
      <trkpt lat="44.49895" lon="1.5127">
        <ele>195.9</ele>
        <time>2021-08-09T08:33:31Z</time>
      </trkpt>
      <trkpt lat="44.49895" lon="1.5127">
        <ele>196.3</ele>
        <time>2021-08-09T08:33:32Z</time>
      </trkpt>
      <trkpt lat="44.49895" lon="1.5127">
        <ele>196.8</ele>
        <time>2021-08-09T08:33:34Z</time>
      </trkpt>
      <trkpt lat="44.49895" lon="1.51269">
        <ele>197.3</ele>
        <time>2021-08-09T08:33:35Z</time>
      </trkpt>
      <trkpt lat="44.49896" lon="1.51269">
        <ele>197.4</ele>
        <time>2021-08-09T08:33:36Z</time>
      </trkpt>
      <trkpt lat="44.49896" lon="1.51269">
        <ele>197.9</ele>
        <time>2021-08-09T08:33:38Z</time>
      </trkpt>
      <trkpt lat="44.49896" lon="1.51269">
        <ele>198.3</ele>
        <time>2021-08-09T08:33:40Z</time>
      </trkpt>
      <trkpt lat="44.49896" lon="1.51269">
        <ele>198.8</ele>
        <time>2021-08-09T08:33:42Z</time>
      </trkpt>
      <trkpt lat="44.49896" lon="1.51269">
        <ele>199.3</ele>
        <time>2021-08-09T08:33:44Z</time>
      </trkpt>
      <trkpt lat="44.49896" lon="1.51268">
        <ele>199.7</ele>
        <time>2021-08-09T08:33:47Z</time>
      </trkpt>
      <trkpt lat="44.49897" lon="1.51268">
        <ele>200.2</ele>
        <time>2021-08-09T08:33:48Z</time>
      </trkpt>
      <trkpt lat="44.49898" lon="1.51267">
        <ele>201</ele>
        <time>2021-08-09T08:33:49Z</time>
      </trkpt>
      <trkpt lat="44.49899" lon="1.51266">
        <ele>201.1</ele>
        <time>2021-08-09T08:33:52Z</time>
      </trkpt>
      <trkpt lat="44.49899" lon="1.51266">
        <ele>201.6</ele>
        <time>2021-08-09T08:33:53Z</time>
      </trkpt>
      <trkpt lat="44.49899" lon="1.51266">
        <ele>202.1</ele>
        <time>2021-08-09T08:33:54Z</time>
      </trkpt>
      <trkpt lat="44.499" lon="1.51265">
        <ele>202.6</ele>
        <time>2021-08-09T08:33:57Z</time>
      </trkpt>
      <trkpt lat="44.499" lon="1.51265">
        <ele>203</ele>
        <time>2021-08-09T08:33:58Z</time>
      </trkpt>
      <trkpt lat="44.499" lon="1.51265">
        <ele>203.5</ele>
        <time>2021-08-09T08:34:00Z</time>
      </trkpt>
      <trkpt lat="44.499" lon="1.51265">
        <ele>204</ele>
        <time>2021-08-09T08:34:01Z</time>
      </trkpt>
      <trkpt lat="44.499" lon="1.51265">
        <ele>204.4</ele>
        <time>2021-08-09T08:34:02Z</time>
      </trkpt>
      <trkpt lat="44.499" lon="1.51265">
        <ele>204.9</ele>
        <time>2021-08-09T08:34:03Z</time>
      </trkpt>
      <trkpt lat="44.499" lon="1.51265">
        <ele>205.4</ele>
        <time>2021-08-09T08:34:05Z</time>
      </trkpt>
      <trkpt lat="44.499" lon="1.51265">
        <ele>205.8</ele>
        <time>2021-08-09T08:34:07Z</time>
      </trkpt>
      <trkpt lat="44.499" lon="1.51264">
        <ele>206.3</ele>
        <time>2021-08-09T08:34:08Z</time>
      </trkpt>
      <trkpt lat="44.49902" lon="1.51264">
        <ele>206.9</ele>
        <time>2021-08-09T08:34:09Z</time>
      </trkpt>
      <trkpt lat="44.49903" lon="1.51263">
        <ele>207.4</ele>
        <time>2021-08-09T08:34:10Z</time>
      </trkpt>
      <trkpt lat="44.49907" lon="1.51261">
        <ele>207.5</ele>
        <time>2021-08-09T08:34:12Z</time>
      </trkpt>
      <trkpt lat="44.49911" lon="1.51259">
        <ele>208.2</ele>
        <time>2021-08-09T08:34:13Z</time>
      </trkpt>
      <trkpt lat="44.49912" lon="1.51257">
        <ele>208.3</ele>
        <time>2021-08-09T08:34:14Z</time>
      </trkpt>
      <trkpt lat="44.49915" lon="1.51254">
        <ele>208.9</ele>
        <time>2021-08-09T08:34:16Z</time>
      </trkpt>
      <trkpt lat="44.49916" lon="1.51252">
        <ele>209.3</ele>
        <time>2021-08-09T08:34:17Z</time>
      </trkpt>
      <trkpt lat="44.49917" lon="1.5125">
        <ele>209.9</ele>
        <time>2021-08-09T08:34:19Z</time>
      </trkpt>
      <trkpt lat="44.49918" lon="1.5125">
        <ele>210.4</ele>
        <time>2021-08-09T08:34:20Z</time>
      </trkpt>
      <trkpt lat="44.49919" lon="1.51248">
        <ele>210.8</ele>
        <time>2021-08-09T08:34:22Z</time>
      </trkpt>
      <trkpt lat="44.49919" lon="1.51248">
        <ele>211.3</ele>
        <time>2021-08-09T08:34:23Z</time>
      </trkpt>
      <trkpt lat="44.49919" lon="1.51247">
        <ele>212.3</ele>
        <time>2021-08-09T08:34:25Z</time>
      </trkpt>
      <trkpt lat="44.49919" lon="1.51245">
        <ele>212.8</ele>
        <time>2021-08-09T08:34:27Z</time>
      </trkpt>
      <trkpt lat="44.49921" lon="1.51244">
        <ele>212.7</ele>
        <time>2021-08-09T08:34:36Z</time>
      </trkpt>
      <trkpt lat="44.49924" lon="1.51244">
        <ele>212.6</ele>
        <time>2021-08-09T08:34:38Z</time>
      </trkpt>
      <trkpt lat="44.49925" lon="1.51243">
        <ele>213.1</ele>
        <time>2021-08-09T08:34:39Z</time>
      </trkpt>
      <trkpt lat="44.49929" lon="1.51245">
        <ele>212.5</ele>
        <time>2021-08-09T08:34:41Z</time>
      </trkpt>
      <trkpt lat="44.49933" lon="1.51246">
        <ele>212.2</ele>
        <time>2021-08-09T08:34:42Z</time>
      </trkpt>
      <trkpt lat="44.49937" lon="1.51247">
        <ele>211.9</ele>
        <time>2021-08-09T08:34:43Z</time>
      </trkpt>
      <trkpt lat="44.49942" lon="1.51249">
        <ele>211.4</ele>
        <time>2021-08-09T08:34:45Z</time>
      </trkpt>
      <trkpt lat="44.49948" lon="1.51251">
        <ele>210.9</ele>
        <time>2021-08-09T08:34:46Z</time>
      </trkpt>
      <trkpt lat="44.49954" lon="1.5125">
        <ele>210.4</ele>
        <time>2021-08-09T08:34:48Z</time>
      </trkpt>
      <trkpt lat="44.49959" lon="1.5125">
        <ele>209.9</ele>
        <time>2021-08-09T08:34:49Z</time>
      </trkpt>
      <trkpt lat="44.49963" lon="1.51248">
        <ele>209.6</ele>
        <time>2021-08-09T08:34:50Z</time>
      </trkpt>
      <trkpt lat="44.49968" lon="1.51244">
        <ele>209.1</ele>
        <time>2021-08-09T08:34:52Z</time>
      </trkpt>
      <trkpt lat="44.4997" lon="1.51242">
        <ele>208.9</ele>
        <time>2021-08-09T08:34:53Z</time>
      </trkpt>
      <trkpt lat="44.49973" lon="1.51241">
        <ele>208.6</ele>
        <time>2021-08-09T08:34:54Z</time>
      </trkpt>
      <trkpt lat="44.49976" lon="1.51239">
        <ele>208.4</ele>
        <time>2021-08-09T08:34:56Z</time>
      </trkpt>
      <trkpt lat="44.49979" lon="1.51238">
        <ele>208.1</ele>
        <time>2021-08-09T08:34:57Z</time>
      </trkpt>
      <trkpt lat="44.49982" lon="1.51236">
        <ele>207.8</ele>
        <time>2021-08-09T08:34:58Z</time>
      </trkpt>
      <trkpt lat="44.49984" lon="1.51233">
        <ele>207.6</ele>
        <time>2021-08-09T08:34:59Z</time>
      </trkpt>
      <trkpt lat="44.49986" lon="1.51231">
        <ele>207.3</ele>
        <time>2021-08-09T08:35:01Z</time>
      </trkpt>
      <trkpt lat="44.4999" lon="1.51229">
        <ele>207</ele>
        <time>2021-08-09T08:35:02Z</time>
      </trkpt>
      <trkpt lat="44.49992" lon="1.51229">
        <ele>206.9</ele>
        <time>2021-08-09T08:35:03Z</time>
      </trkpt>
      <trkpt lat="44.49994" lon="1.51228">
        <ele>206.7</ele>
        <time>2021-08-09T08:35:04Z</time>
      </trkpt>
      <trkpt lat="44.49997" lon="1.51226">
        <ele>206.4</ele>
        <time>2021-08-09T08:35:06Z</time>
      </trkpt>
      <trkpt lat="44.50001" lon="1.51224">
        <ele>206.1</ele>
        <time>2021-08-09T08:35:07Z</time>
      </trkpt>
      <trkpt lat="44.50004" lon="1.51222">
        <ele>205.8</ele>
        <time>2021-08-09T08:35:08Z</time>
      </trkpt>
      <trkpt lat="44.50009" lon="1.51221">
        <ele>205.3</ele>
        <time>2021-08-09T08:35:10Z</time>
      </trkpt>
      <trkpt lat="44.50011" lon="1.51221">
        <ele>205.1</ele>
        <time>2021-08-09T08:35:11Z</time>
      </trkpt>
      <trkpt lat="44.50013" lon="1.5122">
        <ele>205</ele>
        <time>2021-08-09T08:35:12Z</time>
      </trkpt>
      <trkpt lat="44.50016" lon="1.51219">
        <ele>204.7</ele>
        <time>2021-08-09T08:35:13Z</time>
      </trkpt>
      <trkpt lat="44.50019" lon="1.51218">
        <ele>204.5</ele>
        <time>2021-08-09T08:35:14Z</time>
      </trkpt>
      <trkpt lat="44.50022" lon="1.51217">
        <ele>204.2</ele>
        <time>2021-08-09T08:35:16Z</time>
      </trkpt>
      <trkpt lat="44.50024" lon="1.51216">
        <ele>204</ele>
        <time>2021-08-09T08:35:17Z</time>
      </trkpt>
      <trkpt lat="44.50027" lon="1.51215">
        <ele>203.7</ele>
        <time>2021-08-09T08:35:18Z</time>
      </trkpt>
      <trkpt lat="44.5003" lon="1.51214">
        <ele>203.5</ele>
        <time>2021-08-09T08:35:19Z</time>
      </trkpt>
      <trkpt lat="44.50033" lon="1.51213">
        <ele>203.2</ele>
        <time>2021-08-09T08:35:20Z</time>
      </trkpt>
      <trkpt lat="44.50036" lon="1.51211">
        <ele>202.9</ele>
        <time>2021-08-09T08:35:22Z</time>
      </trkpt>
      <trkpt lat="44.50039" lon="1.5121">
        <ele>202.7</ele>
        <time>2021-08-09T08:35:23Z</time>
      </trkpt>
      <trkpt lat="44.50043" lon="1.51208">
        <ele>202.3</ele>
        <time>2021-08-09T08:35:25Z</time>
      </trkpt>
      <trkpt lat="44.50047" lon="1.51205">
        <ele>202</ele>
        <time>2021-08-09T08:35:26Z</time>
      </trkpt>
      <trkpt lat="44.5005" lon="1.51202">
        <ele>201.6</ele>
        <time>2021-08-09T08:35:27Z</time>
      </trkpt>
      <trkpt lat="44.50053" lon="1.512">
        <ele>201.3</ele>
        <time>2021-08-09T08:35:28Z</time>
      </trkpt>
      <trkpt lat="44.50056" lon="1.51197">
        <ele>201.1</ele>
        <time>2021-08-09T08:35:29Z</time>
      </trkpt>
      <trkpt lat="44.50059" lon="1.51194">
        <ele>200.7</ele>
        <time>2021-08-09T08:35:30Z</time>
      </trkpt>
      <trkpt lat="44.50063" lon="1.5119">
        <ele>200.3</ele>
        <time>2021-08-09T08:35:32Z</time>
      </trkpt>
      <trkpt lat="44.50067" lon="1.51186">
        <ele>199.9</ele>
        <time>2021-08-09T08:35:33Z</time>
      </trkpt>
      <trkpt lat="44.50071" lon="1.51182">
        <ele>199.5</ele>
        <time>2021-08-09T08:35:35Z</time>
      </trkpt>
      <trkpt lat="44.50074" lon="1.51178">
        <ele>199.2</ele>
        <time>2021-08-09T08:35:36Z</time>
      </trkpt>
      <trkpt lat="44.50078" lon="1.51172">
        <ele>198.7</ele>
        <time>2021-08-09T08:35:38Z</time>
      </trkpt>
      <trkpt lat="44.5008" lon="1.51167">
        <ele>198.3</ele>
        <time>2021-08-09T08:35:39Z</time>
      </trkpt>
      <trkpt lat="44.50083" lon="1.51163">
        <ele>197.9</ele>
        <time>2021-08-09T08:35:40Z</time>
      </trkpt>
      <trkpt lat="44.50086" lon="1.51158">
        <ele>197.6</ele>
        <time>2021-08-09T08:35:41Z</time>
      </trkpt>
      <trkpt lat="44.50089" lon="1.51154">
        <ele>197.2</ele>
        <time>2021-08-09T08:35:43Z</time>
      </trkpt>
      <trkpt lat="44.50091" lon="1.51151">
        <ele>197</ele>
        <time>2021-08-09T08:35:44Z</time>
      </trkpt>
      <trkpt lat="44.50094" lon="1.51147">
        <ele>196.6</ele>
        <time>2021-08-09T08:35:45Z</time>
      </trkpt>
      <trkpt lat="44.50098" lon="1.51143">
        <ele>196.2</ele>
        <time>2021-08-09T08:35:46Z</time>
      </trkpt>
      <trkpt lat="44.50101" lon="1.51139">
        <ele>195.8</ele>
        <time>2021-08-09T08:35:47Z</time>
      </trkpt>
      <trkpt lat="44.50104" lon="1.51135">
        <ele>195.5</ele>
        <time>2021-08-09T08:35:49Z</time>
      </trkpt>
      <trkpt lat="44.50107" lon="1.51131">
        <ele>195.1</ele>
        <time>2021-08-09T08:35:50Z</time>
      </trkpt>
      <trkpt lat="44.50111" lon="1.51125">
        <ele>194.7</ele>
        <time>2021-08-09T08:35:52Z</time>
      </trkpt>
      <trkpt lat="44.50113" lon="1.51122">
        <ele>194.4</ele>
        <time>2021-08-09T08:35:53Z</time>
      </trkpt>
      <trkpt lat="44.50114" lon="1.51119">
        <ele>194.2</ele>
        <time>2021-08-09T08:35:54Z</time>
      </trkpt>
      <trkpt lat="44.50117" lon="1.51114">
        <ele>193.8</ele>
        <time>2021-08-09T08:35:56Z</time>
      </trkpt>
      <trkpt lat="44.50121" lon="1.5111">
        <ele>193.4</ele>
        <time>2021-08-09T08:35:57Z</time>
      </trkpt>
      <trkpt lat="44.50124" lon="1.51108">
        <ele>193.1</ele>
        <time>2021-08-09T08:35:58Z</time>
      </trkpt>
      <trkpt lat="44.50127" lon="1.51105">
        <ele>192.8</ele>
        <time>2021-08-09T08:35:59Z</time>
      </trkpt>
      <trkpt lat="44.5013" lon="1.51102">
        <ele>192.5</ele>
        <time>2021-08-09T08:36:00Z</time>
      </trkpt>
      <trkpt lat="44.50133" lon="1.51096">
        <ele>192.1</ele>
        <time>2021-08-09T08:36:02Z</time>
      </trkpt>
      <trkpt lat="44.50136" lon="1.51093">
        <ele>191.8</ele>
        <time>2021-08-09T08:36:03Z</time>
      </trkpt>
      <trkpt lat="44.50137" lon="1.51092">
        <ele>191.6</ele>
        <time>2021-08-09T08:36:04Z</time>
      </trkpt>
      <trkpt lat="44.5014" lon="1.5109">
        <ele>191.4</ele>
        <time>2021-08-09T08:36:05Z</time>
      </trkpt>
      <trkpt lat="44.50144" lon="1.51087">
        <ele>191</ele>
        <time>2021-08-09T08:36:06Z</time>
      </trkpt>
      <trkpt lat="44.50148" lon="1.51085">
        <ele>190.6</ele>
        <time>2021-08-09T08:36:08Z</time>
      </trkpt>
      <trkpt lat="44.50153" lon="1.51087">
        <ele>190.2</ele>
        <time>2021-08-09T08:36:10Z</time>
      </trkpt>
      <trkpt lat="44.50156" lon="1.51089">
        <ele>189.9</ele>
        <time>2021-08-09T08:36:11Z</time>
      </trkpt>
      <trkpt lat="44.5016" lon="1.51091">
        <ele>189.6</ele>
        <time>2021-08-09T08:36:12Z</time>
      </trkpt>
      <trkpt lat="44.50163" lon="1.51091">
        <ele>189.3</ele>
        <time>2021-08-09T08:36:13Z</time>
      </trkpt>
      <trkpt lat="44.50166" lon="1.51092">
        <ele>189</ele>
        <time>2021-08-09T08:36:15Z</time>
      </trkpt>
      <trkpt lat="44.5017" lon="1.51094">
        <ele>188.8</ele>
        <time>2021-08-09T08:36:16Z</time>
      </trkpt>
      <trkpt lat="44.50174" lon="1.51097">
        <ele>188.5</ele>
        <time>2021-08-09T08:36:18Z</time>
      </trkpt>
      <trkpt lat="44.50177" lon="1.511">
        <ele>188.3</ele>
        <time>2021-08-09T08:36:19Z</time>
      </trkpt>
      <trkpt lat="44.50181" lon="1.51102">
        <ele>188</ele>
        <time>2021-08-09T08:36:20Z</time>
      </trkpt>
      <trkpt lat="44.50187" lon="1.51106">
        <ele>187.5</ele>
        <time>2021-08-09T08:36:22Z</time>
      </trkpt>
      <trkpt lat="44.50192" lon="1.5111">
        <ele>187</ele>
        <time>2021-08-09T08:36:23Z</time>
      </trkpt>
      <trkpt lat="44.50199" lon="1.51113">
        <ele>186.3</ele>
        <time>2021-08-09T08:36:25Z</time>
      </trkpt>
      <trkpt lat="44.50203" lon="1.51113">
        <ele>185.9</ele>
        <time>2021-08-09T08:36:26Z</time>
      </trkpt>
      <trkpt lat="44.50207" lon="1.51111">
        <ele>185.5</ele>
        <time>2021-08-09T08:36:28Z</time>
      </trkpt>
      <trkpt lat="44.50211" lon="1.51113">
        <ele>185.6</ele>
        <time>2021-08-09T08:36:29Z</time>
      </trkpt>
      <trkpt lat="44.50215" lon="1.51113">
        <ele>185.9</ele>
        <time>2021-08-09T08:36:30Z</time>
      </trkpt>
      <trkpt lat="44.50218" lon="1.51113">
        <ele>186.1</ele>
        <time>2021-08-09T08:36:32Z</time>
      </trkpt>
      <trkpt lat="44.50222" lon="1.51114">
        <ele>186.5</ele>
        <time>2021-08-09T08:36:33Z</time>
      </trkpt>
      <trkpt lat="44.50228" lon="1.51114">
        <ele>186.9</ele>
        <time>2021-08-09T08:36:35Z</time>
      </trkpt>
      <trkpt lat="44.50231" lon="1.51114">
        <ele>187.3</ele>
        <time>2021-08-09T08:36:36Z</time>
      </trkpt>
      <trkpt lat="44.50234" lon="1.51114">
        <ele>187.5</ele>
        <time>2021-08-09T08:36:37Z</time>
      </trkpt>
      <trkpt lat="44.50237" lon="1.51115">
        <ele>187.8</ele>
        <time>2021-08-09T08:36:38Z</time>
      </trkpt>
      <trkpt lat="44.5024" lon="1.51115">
        <ele>188</ele>
        <time>2021-08-09T08:36:39Z</time>
      </trkpt>
      <trkpt lat="44.50242" lon="1.51114">
        <ele>188.2</ele>
        <time>2021-08-09T08:36:41Z</time>
      </trkpt>
      <trkpt lat="44.50245" lon="1.51114">
        <ele>188.5</ele>
        <time>2021-08-09T08:36:42Z</time>
      </trkpt>
      <trkpt lat="44.50248" lon="1.51112">
        <ele>188.7</ele>
        <time>2021-08-09T08:36:43Z</time>
      </trkpt>
      <trkpt lat="44.50249" lon="1.51112">
        <ele>188.8</ele>
        <time>2021-08-09T08:36:44Z</time>
      </trkpt>
      <trkpt lat="44.50252" lon="1.5111">
        <ele>189</ele>
        <time>2021-08-09T08:36:45Z</time>
      </trkpt>
      <trkpt lat="44.50252" lon="1.51108">
        <ele>189</ele>
        <time>2021-08-09T08:36:46Z</time>
      </trkpt>
      <trkpt lat="44.50255" lon="1.51105">
        <ele>189.3</ele>
        <time>2021-08-09T08:36:48Z</time>
      </trkpt>
      <trkpt lat="44.50256" lon="1.51104">
        <ele>189.4</ele>
        <time>2021-08-09T08:36:49Z</time>
      </trkpt>
      <trkpt lat="44.50257" lon="1.51103">
        <ele>189.4</ele>
        <time>2021-08-09T08:36:50Z</time>
      </trkpt>
      <trkpt lat="44.50258" lon="1.51101">
        <ele>189.5</ele>
        <time>2021-08-09T08:36:51Z</time>
      </trkpt>
      <trkpt lat="44.5026" lon="1.51098">
        <ele>189.7</ele>
        <time>2021-08-09T08:36:53Z</time>
      </trkpt>
      <trkpt lat="44.50262" lon="1.51095">
        <ele>189.9</ele>
        <time>2021-08-09T08:36:54Z</time>
      </trkpt>
      <trkpt lat="44.50262" lon="1.51094">
        <ele>189.9</ele>
        <time>2021-08-09T08:36:55Z</time>
      </trkpt>
      <trkpt lat="44.50265" lon="1.51089">
        <ele>190.2</ele>
        <time>2021-08-09T08:36:57Z</time>
      </trkpt>
      <trkpt lat="44.50266" lon="1.51088">
        <ele>190.3</ele>
        <time>2021-08-09T08:36:58Z</time>
      </trkpt>
      <trkpt lat="44.50267" lon="1.51086">
        <ele>190.4</ele>
        <time>2021-08-09T08:36:59Z</time>
      </trkpt>
      <trkpt lat="44.50269" lon="1.51083">
        <ele>190.6</ele>
        <time>2021-08-09T08:37:00Z</time>
      </trkpt>
      <trkpt lat="44.50272" lon="1.51078">
        <ele>190.9</ele>
        <time>2021-08-09T08:37:02Z</time>
      </trkpt>
      <trkpt lat="44.50274" lon="1.51076">
        <ele>191.1</ele>
        <time>2021-08-09T08:37:03Z</time>
      </trkpt>
      <trkpt lat="44.50276" lon="1.51073">
        <ele>191.2</ele>
        <time>2021-08-09T08:37:04Z</time>
      </trkpt>
      <trkpt lat="44.50279" lon="1.51068">
        <ele>191.6</ele>
        <time>2021-08-09T08:37:06Z</time>
      </trkpt>
      <trkpt lat="44.5028" lon="1.51065">
        <ele>191.7</ele>
        <time>2021-08-09T08:37:07Z</time>
      </trkpt>
      <trkpt lat="44.50283" lon="1.51059">
        <ele>192.1</ele>
        <time>2021-08-09T08:37:09Z</time>
      </trkpt>
      <trkpt lat="44.50286" lon="1.51056">
        <ele>192.3</ele>
        <time>2021-08-09T08:37:10Z</time>
      </trkpt>
      <trkpt lat="44.50287" lon="1.51054">
        <ele>192.4</ele>
        <time>2021-08-09T08:37:11Z</time>
      </trkpt>
      <trkpt lat="44.5029" lon="1.51051">
        <ele>192.6</ele>
        <time>2021-08-09T08:37:13Z</time>
      </trkpt>
      <trkpt lat="44.50291" lon="1.5105">
        <ele>192.7</ele>
        <time>2021-08-09T08:37:14Z</time>
      </trkpt>
      <trkpt lat="44.50292" lon="1.51048">
        <ele>192.8</ele>
        <time>2021-08-09T08:37:15Z</time>
      </trkpt>
      <trkpt lat="44.50294" lon="1.51047">
        <ele>192.9</ele>
        <time>2021-08-09T08:37:16Z</time>
      </trkpt>
      <trkpt lat="44.50298" lon="1.51045">
        <ele>193.2</ele>
        <time>2021-08-09T08:37:18Z</time>
      </trkpt>
      <trkpt lat="44.50301" lon="1.51046">
        <ele>193</ele>
        <time>2021-08-09T08:37:19Z</time>
      </trkpt>
      <trkpt lat="44.50305" lon="1.51049">
        <ele>192.7</ele>
        <time>2021-08-09T08:37:21Z</time>
      </trkpt>
      <trkpt lat="44.50306" lon="1.51051">
        <ele>192.6</ele>
        <time>2021-08-09T08:37:22Z</time>
      </trkpt>
      <trkpt lat="44.50311" lon="1.51059">
        <ele>192.2</ele>
        <time>2021-08-09T08:37:23Z</time>
      </trkpt>
      <trkpt lat="44.50318" lon="1.51069">
        <ele>191.9</ele>
        <time>2021-08-09T08:37:25Z</time>
      </trkpt>
      <trkpt lat="44.50322" lon="1.51072">
        <ele>191.8</ele>
        <time>2021-08-09T08:37:26Z</time>
      </trkpt>
      <trkpt lat="44.50327" lon="1.51075">
        <ele>191.7</ele>
        <time>2021-08-09T08:37:27Z</time>
      </trkpt>
      <trkpt lat="44.50332" lon="1.51078">
        <ele>191.7</ele>
        <time>2021-08-09T08:37:29Z</time>
      </trkpt>
      <trkpt lat="44.50335" lon="1.51081">
        <ele>191.6</ele>
        <time>2021-08-09T08:37:30Z</time>
      </trkpt>
      <trkpt lat="44.50339" lon="1.51084">
        <ele>191.4</ele>
        <time>2021-08-09T08:37:31Z</time>
      </trkpt>
      <trkpt lat="44.50343" lon="1.51087">
        <ele>191.3</ele>
        <time>2021-08-09T08:37:32Z</time>
      </trkpt>
      <trkpt lat="44.50348" lon="1.51092">
        <ele>191</ele>
        <time>2021-08-09T08:37:34Z</time>
      </trkpt>
      <trkpt lat="44.50357" lon="1.51099">
        <ele>190.6</ele>
        <time>2021-08-09T08:37:35Z</time>
      </trkpt>
      <trkpt lat="44.50363" lon="1.51103">
        <ele>190.4</ele>
        <time>2021-08-09T08:37:36Z</time>
      </trkpt>
      <trkpt lat="44.50374" lon="1.5111">
        <ele>190.1</ele>
        <time>2021-08-09T08:37:38Z</time>
      </trkpt>
      <trkpt lat="44.50386" lon="1.51117">
        <ele>190.1</ele>
        <time>2021-08-09T08:37:40Z</time>
      </trkpt>
      <trkpt lat="44.50391" lon="1.5112">
        <ele>190.1</ele>
        <time>2021-08-09T08:37:41Z</time>
      </trkpt>
      <trkpt lat="44.50396" lon="1.51124">
        <ele>190.1</ele>
        <time>2021-08-09T08:37:42Z</time>
      </trkpt>
      <trkpt lat="44.50404" lon="1.51129">
        <ele>190.1</ele>
        <time>2021-08-09T08:37:44Z</time>
      </trkpt>
      <trkpt lat="44.50409" lon="1.51132">
        <ele>190.2</ele>
        <time>2021-08-09T08:37:45Z</time>
      </trkpt>
      <trkpt lat="44.50413" lon="1.51135">
        <ele>190.2</ele>
        <time>2021-08-09T08:37:47Z</time>
      </trkpt>
      <trkpt lat="44.50417" lon="1.51136">
        <ele>190.3</ele>
        <time>2021-08-09T08:37:48Z</time>
      </trkpt>
      <trkpt lat="44.5042" lon="1.51139">
        <ele>190.3</ele>
        <time>2021-08-09T08:37:49Z</time>
      </trkpt>
      <trkpt lat="44.50424" lon="1.51141">
        <ele>190.3</ele>
        <time>2021-08-09T08:37:50Z</time>
      </trkpt>
      <trkpt lat="44.50428" lon="1.51144">
        <ele>190.3</ele>
        <time>2021-08-09T08:37:51Z</time>
      </trkpt>
      <trkpt lat="44.50432" lon="1.51148">
        <ele>190.3</ele>
        <time>2021-08-09T08:37:53Z</time>
      </trkpt>
      <trkpt lat="44.50437" lon="1.51152">
        <ele>190.3</ele>
        <time>2021-08-09T08:37:54Z</time>
      </trkpt>
      <trkpt lat="44.50441" lon="1.51156">
        <ele>190.4</ele>
        <time>2021-08-09T08:37:55Z</time>
      </trkpt>
      <trkpt lat="44.50444" lon="1.51159">
        <ele>190.4</ele>
        <time>2021-08-09T08:37:56Z</time>
      </trkpt>
      <trkpt lat="44.50448" lon="1.51162">
        <ele>190.4</ele>
        <time>2021-08-09T08:37:57Z</time>
      </trkpt>
      <trkpt lat="44.50452" lon="1.51167">
        <ele>190.4</ele>
        <time>2021-08-09T08:37:59Z</time>
      </trkpt>
      <trkpt lat="44.50455" lon="1.51171">
        <ele>190.4</ele>
        <time>2021-08-09T08:38:00Z</time>
      </trkpt>
      <trkpt lat="44.50459" lon="1.51175">
        <ele>190.3</ele>
        <time>2021-08-09T08:38:01Z</time>
      </trkpt>
      <trkpt lat="44.50462" lon="1.51179">
        <ele>190.3</ele>
        <time>2021-08-09T08:38:02Z</time>
      </trkpt>
      <trkpt lat="44.50467" lon="1.51185">
        <ele>190.2</ele>
        <time>2021-08-09T08:38:04Z</time>
      </trkpt>
      <trkpt lat="44.50471" lon="1.51189">
        <ele>190.2</ele>
        <time>2021-08-09T08:38:05Z</time>
      </trkpt>
      <trkpt lat="44.50475" lon="1.51192">
        <ele>190.2</ele>
        <time>2021-08-09T08:38:07Z</time>
      </trkpt>
      <trkpt lat="44.50479" lon="1.51193">
        <ele>190.2</ele>
        <time>2021-08-09T08:38:08Z</time>
      </trkpt>
      <trkpt lat="44.50483" lon="1.51194">
        <ele>190.2</ele>
        <time>2021-08-09T08:38:09Z</time>
      </trkpt>
      <trkpt lat="44.50487" lon="1.51196">
        <ele>190.2</ele>
        <time>2021-08-09T08:38:10Z</time>
      </trkpt>
      <trkpt lat="44.50492" lon="1.51198">
        <ele>190.2</ele>
        <time>2021-08-09T08:38:12Z</time>
      </trkpt>
      <trkpt lat="44.50496" lon="1.51199">
        <ele>190.3</ele>
        <time>2021-08-09T08:38:13Z</time>
      </trkpt>
      <trkpt lat="44.505" lon="1.512">
        <ele>190.3</ele>
        <time>2021-08-09T08:38:14Z</time>
      </trkpt>
      <trkpt lat="44.50507" lon="1.51201">
        <ele>190.4</ele>
        <time>2021-08-09T08:38:16Z</time>
      </trkpt>
      <trkpt lat="44.5051" lon="1.51202">
        <ele>190.4</ele>
        <time>2021-08-09T08:38:17Z</time>
      </trkpt>
      <trkpt lat="44.50514" lon="1.51203">
        <ele>190.5</ele>
        <time>2021-08-09T08:38:18Z</time>
      </trkpt>
      <trkpt lat="44.5052" lon="1.51206">
        <ele>190.6</ele>
        <time>2021-08-09T08:38:20Z</time>
      </trkpt>
      <trkpt lat="44.50524" lon="1.51207">
        <ele>190.7</ele>
        <time>2021-08-09T08:38:21Z</time>
      </trkpt>
      <trkpt lat="44.50529" lon="1.51209">
        <ele>190.8</ele>
        <time>2021-08-09T08:38:22Z</time>
      </trkpt>
      <trkpt lat="44.50534" lon="1.51211">
        <ele>191</ele>
        <time>2021-08-09T08:38:24Z</time>
      </trkpt>
      <trkpt lat="44.50538" lon="1.51213">
        <ele>191.1</ele>
        <time>2021-08-09T08:38:25Z</time>
      </trkpt>
      <trkpt lat="44.50542" lon="1.51215">
        <ele>191.2</ele>
        <time>2021-08-09T08:38:26Z</time>
      </trkpt>
      <trkpt lat="44.50547" lon="1.51216">
        <ele>191.3</ele>
        <time>2021-08-09T08:38:28Z</time>
      </trkpt>
      <trkpt lat="44.50551" lon="1.51217">
        <ele>191.4</ele>
        <time>2021-08-09T08:38:29Z</time>
      </trkpt>
      <trkpt lat="44.50555" lon="1.51219">
        <ele>191.4</ele>
        <time>2021-08-09T08:38:30Z</time>
      </trkpt>
      <trkpt lat="44.50559" lon="1.51221">
        <ele>191.5</ele>
        <time>2021-08-09T08:38:31Z</time>
      </trkpt>
      <trkpt lat="44.50563" lon="1.51224">
        <ele>193.2</ele>
        <time>2021-08-09T08:38:33Z</time>
      </trkpt>
      <trkpt lat="44.50568" lon="1.51227">
        <ele>194.6</ele>
        <time>2021-08-09T08:38:34Z</time>
      </trkpt>
      <trkpt lat="44.50572" lon="1.51229">
        <ele>195.9</ele>
        <time>2021-08-09T08:38:35Z</time>
      </trkpt>
      <trkpt lat="44.50576" lon="1.5123">
        <ele>197.1</ele>
        <time>2021-08-09T08:38:36Z</time>
      </trkpt>
      <trkpt lat="44.5058" lon="1.51232">
        <ele>198.2</ele>
        <time>2021-08-09T08:38:37Z</time>
      </trkpt>
      <trkpt lat="44.50583" lon="1.51233">
        <ele>199.2</ele>
        <time>2021-08-09T08:38:39Z</time>
      </trkpt>
      <trkpt lat="44.50587" lon="1.51235">
        <ele>200.3</ele>
        <time>2021-08-09T08:38:40Z</time>
      </trkpt>
      <trkpt lat="44.5059" lon="1.51238">
        <ele>201.5</ele>
        <time>2021-08-09T08:38:41Z</time>
      </trkpt>
      <trkpt lat="44.50593" lon="1.5124">
        <ele>201.1</ele>
        <time>2021-08-09T08:38:42Z</time>
      </trkpt>
      <trkpt lat="44.50597" lon="1.51244">
        <ele>201.2</ele>
        <time>2021-08-09T08:38:44Z</time>
      </trkpt>
      <trkpt lat="44.506" lon="1.51247">
        <ele>201.2</ele>
        <time>2021-08-09T08:38:45Z</time>
      </trkpt>
      <trkpt lat="44.50602" lon="1.5125">
        <ele>200.7</ele>
        <time>2021-08-09T08:38:46Z</time>
      </trkpt>
      <trkpt lat="44.50605" lon="1.51253">
        <ele>200.7</ele>
        <time>2021-08-09T08:38:47Z</time>
      </trkpt>
      <trkpt lat="44.50606" lon="1.51257">
        <ele>200.7</ele>
        <time>2021-08-09T08:38:48Z</time>
      </trkpt>
      <trkpt lat="44.50608" lon="1.51263">
        <ele>200.2</ele>
        <time>2021-08-09T08:38:50Z</time>
      </trkpt>
      <trkpt lat="44.50608" lon="1.51268">
        <ele>199.6</ele>
        <time>2021-08-09T08:38:51Z</time>
      </trkpt>
      <trkpt lat="44.50608" lon="1.5127">
        <ele>199.1</ele>
        <time>2021-08-09T08:38:52Z</time>
      </trkpt>
      <trkpt lat="44.50608" lon="1.51274">
        <ele>198.6</ele>
        <time>2021-08-09T08:38:53Z</time>
      </trkpt>
      <trkpt lat="44.50609" lon="1.51279">
        <ele>198.1</ele>
        <time>2021-08-09T08:38:55Z</time>
      </trkpt>
      <trkpt lat="44.50609" lon="1.51282">
        <ele>198.1</ele>
        <time>2021-08-09T08:38:56Z</time>
      </trkpt>
      <trkpt lat="44.5061" lon="1.51287">
        <ele>197.5</ele>
        <time>2021-08-09T08:38:58Z</time>
      </trkpt>
      <trkpt lat="44.50611" lon="1.51293">
        <ele>196.9</ele>
        <time>2021-08-09T08:38:59Z</time>
      </trkpt>
      <trkpt lat="44.50612" lon="1.51297">
        <ele>196.9</ele>
        <time>2021-08-09T08:39:00Z</time>
      </trkpt>
      <trkpt lat="44.50613" lon="1.51305">
        <ele>196</ele>
        <time>2021-08-09T08:39:02Z</time>
      </trkpt>
      <trkpt lat="44.50615" lon="1.51311">
        <ele>195.1</ele>
        <time>2021-08-09T08:39:03Z</time>
      </trkpt>
      <trkpt lat="44.50617" lon="1.5132">
        <ele>194.9</ele>
        <time>2021-08-09T08:39:05Z</time>
      </trkpt>
      <trkpt lat="44.50619" lon="1.51326">
        <ele>195</ele>
        <time>2021-08-09T08:39:06Z</time>
      </trkpt>
      <trkpt lat="44.5062" lon="1.51331">
        <ele>194.2</ele>
        <time>2021-08-09T08:39:07Z</time>
      </trkpt>
      <trkpt lat="44.50623" lon="1.51339">
        <ele>194</ele>
        <time>2021-08-09T08:39:09Z</time>
      </trkpt>
      <trkpt lat="44.50625" lon="1.51346">
        <ele>193.8</ele>
        <time>2021-08-09T08:39:10Z</time>
      </trkpt>
      <trkpt lat="44.50627" lon="1.5135">
        <ele>193.1</ele>
        <time>2021-08-09T08:39:11Z</time>
      </trkpt>
      <trkpt lat="44.50628" lon="1.51355">
        <ele>193.2</ele>
        <time>2021-08-09T08:39:12Z</time>
      </trkpt>
      <trkpt lat="44.5063" lon="1.5136">
        <ele>193.4</ele>
        <time>2021-08-09T08:39:13Z</time>
      </trkpt>
      <trkpt lat="44.50633" lon="1.51368">
        <ele>193.4</ele>
        <time>2021-08-09T08:39:15Z</time>
      </trkpt>
      <trkpt lat="44.50635" lon="1.51373">
        <ele>193.5</ele>
        <time>2021-08-09T08:39:16Z</time>
      </trkpt>
      <trkpt lat="44.50638" lon="1.5138">
        <ele>193.6</ele>
        <time>2021-08-09T08:39:17Z</time>
      </trkpt>
      <trkpt lat="44.5064" lon="1.51386">
        <ele>193.7</ele>
        <time>2021-08-09T08:39:18Z</time>
      </trkpt>
      <trkpt lat="44.50642" lon="1.51392">
        <ele>193.8</ele>
        <time>2021-08-09T08:39:19Z</time>
      </trkpt>
      <trkpt lat="44.50643" lon="1.51398">
        <ele>193.9</ele>
        <time>2021-08-09T08:39:20Z</time>
      </trkpt>
      <trkpt lat="44.50645" lon="1.51406">
        <ele>194.1</ele>
        <time>2021-08-09T08:39:21Z</time>
      </trkpt>
      <trkpt lat="44.50648" lon="1.51419">
        <ele>194.4</ele>
        <time>2021-08-09T08:39:23Z</time>
      </trkpt>
      <trkpt lat="44.5065" lon="1.51427">
        <ele>194.5</ele>
        <time>2021-08-09T08:39:24Z</time>
      </trkpt>
      <trkpt lat="44.50654" lon="1.5144">
        <ele>194.9</ele>
        <time>2021-08-09T08:39:26Z</time>
      </trkpt>
      <trkpt lat="44.50659" lon="1.51454">
        <ele>195.2</ele>
        <time>2021-08-09T08:39:28Z</time>
      </trkpt>
      <trkpt lat="44.50661" lon="1.5146">
        <ele>195.4</ele>
        <time>2021-08-09T08:39:29Z</time>
      </trkpt>
      <trkpt lat="44.50661" lon="1.51467">
        <ele>195.6</ele>
        <time>2021-08-09T08:39:30Z</time>
      </trkpt>
      <trkpt lat="44.50666" lon="1.51479">
        <ele>195.9</ele>
        <time>2021-08-09T08:39:32Z</time>
      </trkpt>
      <trkpt lat="44.5067" lon="1.5149">
        <ele>196.3</ele>
        <time>2021-08-09T08:39:34Z</time>
      </trkpt>
      <trkpt lat="44.50675" lon="1.51497">
        <ele>196.7</ele>
        <time>2021-08-09T08:39:35Z</time>
      </trkpt>
      <trkpt lat="44.50684" lon="1.51508">
        <ele>197.3</ele>
        <time>2021-08-09T08:39:37Z</time>
      </trkpt>
      <trkpt lat="44.50692" lon="1.51519">
        <ele>197.8</ele>
        <time>2021-08-09T08:39:39Z</time>
      </trkpt>
      <trkpt lat="44.50693" lon="1.51527">
        <ele>198</ele>
        <time>2021-08-09T08:39:41Z</time>
      </trkpt>
      <trkpt lat="44.50696" lon="1.51531">
        <ele>198.2</ele>
        <time>2021-08-09T08:39:42Z</time>
      </trkpt>
      <trkpt lat="44.50699" lon="1.51535">
        <ele>198.3</ele>
        <time>2021-08-09T08:39:43Z</time>
      </trkpt>
      <trkpt lat="44.50704" lon="1.5154">
        <ele>198.4</ele>
        <time>2021-08-09T08:39:44Z</time>
      </trkpt>
      <trkpt lat="44.50709" lon="1.51544">
        <ele>198.5</ele>
        <time>2021-08-09T08:39:46Z</time>
      </trkpt>
      <trkpt lat="44.50714" lon="1.51547">
        <ele>198.5</ele>
        <time>2021-08-09T08:39:47Z</time>
      </trkpt>
      <trkpt lat="44.50718" lon="1.51551">
        <ele>198.5</ele>
        <time>2021-08-09T08:39:48Z</time>
      </trkpt>
      <trkpt lat="44.50722" lon="1.51555">
        <ele>198.5</ele>
        <time>2021-08-09T08:39:49Z</time>
      </trkpt>
      <trkpt lat="44.50726" lon="1.51559">
        <ele>198.6</ele>
        <time>2021-08-09T08:39:50Z</time>
      </trkpt>
      <trkpt lat="44.50733" lon="1.51565">
        <ele>198.6</ele>
        <time>2021-08-09T08:39:52Z</time>
      </trkpt>
      <trkpt lat="44.50738" lon="1.51568">
        <ele>198.5</ele>
        <time>2021-08-09T08:39:53Z</time>
      </trkpt>
      <trkpt lat="44.50743" lon="1.51571">
        <ele>198.5</ele>
        <time>2021-08-09T08:39:54Z</time>
      </trkpt>
      <trkpt lat="44.50747" lon="1.51573">
        <ele>198.5</ele>
        <time>2021-08-09T08:39:55Z</time>
      </trkpt>
      <trkpt lat="44.50752" lon="1.51575">
        <ele>198.5</ele>
        <time>2021-08-09T08:39:56Z</time>
      </trkpt>
      <trkpt lat="44.50756" lon="1.51578">
        <ele>198.6</ele>
        <time>2021-08-09T08:39:58Z</time>
      </trkpt>
      <trkpt lat="44.50758" lon="1.51578">
        <ele>198.6</ele>
        <time>2021-08-09T08:39:59Z</time>
      </trkpt>
      <trkpt lat="44.5076" lon="1.51579">
        <ele>198.6</ele>
        <time>2021-08-09T08:40:00Z</time>
      </trkpt>
      <trkpt lat="44.50763" lon="1.51582">
        <ele>198.7</ele>
        <time>2021-08-09T08:40:02Z</time>
      </trkpt>
      <trkpt lat="44.50765" lon="1.51583">
        <ele>198.8</ele>
        <time>2021-08-09T08:40:03Z</time>
      </trkpt>
      <trkpt lat="44.50768" lon="1.51584">
        <ele>198.9</ele>
        <time>2021-08-09T08:40:04Z</time>
      </trkpt>
      <trkpt lat="44.50771" lon="1.51585">
        <ele>199</ele>
        <time>2021-08-09T08:40:05Z</time>
      </trkpt>
      <trkpt lat="44.50775" lon="1.51586">
        <ele>199.1</ele>
        <time>2021-08-09T08:40:06Z</time>
      </trkpt>
      <trkpt lat="44.50779" lon="1.51586">
        <ele>199.2</ele>
        <time>2021-08-09T08:40:08Z</time>
      </trkpt>
      <trkpt lat="44.50783" lon="1.51587">
        <ele>199.3</ele>
        <time>2021-08-09T08:40:09Z</time>
      </trkpt>
      <trkpt lat="44.50787" lon="1.51588">
        <ele>199.4</ele>
        <time>2021-08-09T08:40:11Z</time>
      </trkpt>
      <trkpt lat="44.50791" lon="1.5159">
        <ele>199.4</ele>
        <time>2021-08-09T08:40:12Z</time>
      </trkpt>
      <trkpt lat="44.50792" lon="1.51591">
        <ele>199.5</ele>
        <time>2021-08-09T08:40:13Z</time>
      </trkpt>
      <trkpt lat="44.50796" lon="1.51591">
        <ele>199.6</ele>
        <time>2021-08-09T08:40:14Z</time>
      </trkpt>
      <trkpt lat="44.50799" lon="1.51592">
        <ele>199.6</ele>
        <time>2021-08-09T08:40:16Z</time>
      </trkpt>
      <trkpt lat="44.508" lon="1.51592">
        <ele>199.6</ele>
        <time>2021-08-09T08:40:17Z</time>
      </trkpt>
      <trkpt lat="44.50801" lon="1.51592">
        <ele>199.6</ele>
        <time>2021-08-09T08:40:19Z</time>
      </trkpt>
      <trkpt lat="44.50801" lon="1.51592">
        <ele>199.6</ele>
        <time>2021-08-09T08:40:20Z</time>
      </trkpt>
      <trkpt lat="44.50801" lon="1.51592">
        <ele>199.6</ele>
        <time>2021-08-09T08:40:22Z</time>
      </trkpt>
      <trkpt lat="44.50801" lon="1.51592">
        <ele>199.6</ele>
        <time>2021-08-09T08:40:24Z</time>
      </trkpt>
      <trkpt lat="44.50804" lon="1.51596">
        <ele>199.7</ele>
        <time>2021-08-09T08:41:03Z</time>
      </trkpt>
      <trkpt lat="44.5081" lon="1.51604">
        <ele>199.8</ele>
        <time>2021-08-09T08:41:05Z</time>
      </trkpt>
      <trkpt lat="44.50814" lon="1.51609">
        <ele>199.9</ele>
        <time>2021-08-09T08:41:07Z</time>
      </trkpt>
      <trkpt lat="44.50817" lon="1.51616">
        <ele>200</ele>
        <time>2021-08-09T08:41:08Z</time>
      </trkpt>
      <trkpt lat="44.5082" lon="1.51623">
        <ele>200.1</ele>
        <time>2021-08-09T08:41:09Z</time>
      </trkpt>
      <trkpt lat="44.50823" lon="1.51633">
        <ele>200.1</ele>
        <time>2021-08-09T08:41:11Z</time>
      </trkpt>
      <trkpt lat="44.50823" lon="1.5164">
        <ele>200.1</ele>
        <time>2021-08-09T08:41:12Z</time>
      </trkpt>
      <trkpt lat="44.50825" lon="1.51646">
        <ele>200.2</ele>
        <time>2021-08-09T08:41:13Z</time>
      </trkpt>
      <trkpt lat="44.50825" lon="1.51651">
        <ele>200.2</ele>
        <time>2021-08-09T08:41:14Z</time>
      </trkpt>
      <trkpt lat="44.50824" lon="1.51659">
        <ele>200.2</ele>
        <time>2021-08-09T08:41:16Z</time>
      </trkpt>
      <trkpt lat="44.50825" lon="1.51665">
        <ele>200.2</ele>
        <time>2021-08-09T08:41:17Z</time>
      </trkpt>
      <trkpt lat="44.50826" lon="1.51671">
        <ele>200.2</ele>
        <time>2021-08-09T08:41:18Z</time>
      </trkpt>
      <trkpt lat="44.50827" lon="1.51676">
        <ele>200.2</ele>
        <time>2021-08-09T08:41:19Z</time>
      </trkpt>
      <trkpt lat="44.50827" lon="1.5168">
        <ele>200.2</ele>
        <time>2021-08-09T08:41:20Z</time>
      </trkpt>
      <trkpt lat="44.50826" lon="1.51683">
        <ele>200.3</ele>
        <time>2021-08-09T08:41:21Z</time>
      </trkpt>
      <trkpt lat="44.50826" lon="1.51687">
        <ele>200.3</ele>
        <time>2021-08-09T08:41:23Z</time>
      </trkpt>
      <trkpt lat="44.50826" lon="1.51686">
        <ele>200.3</ele>
        <time>2021-08-09T08:41:25Z</time>
      </trkpt>
      <trkpt lat="44.50827" lon="1.51686">
        <ele>200.3</ele>
        <time>2021-08-09T08:41:26Z</time>
      </trkpt>
      <trkpt lat="44.50827" lon="1.51686">
        <ele>200.3</ele>
        <time>2021-08-09T08:41:28Z</time>
      </trkpt>
      <trkpt lat="44.50827" lon="1.51687">
        <ele>200.3</ele>
        <time>2021-08-09T08:41:29Z</time>
      </trkpt>
      <trkpt lat="44.50827" lon="1.51688">
        <ele>200.3</ele>
        <time>2021-08-09T08:41:30Z</time>
      </trkpt>
      <trkpt lat="44.50828" lon="1.51692">
        <ele>200.3</ele>
        <time>2021-08-09T08:41:32Z</time>
      </trkpt>
      <trkpt lat="44.50834" lon="1.51703">
        <ele>200.6</ele>
        <time>2021-08-09T08:41:39Z</time>
      </trkpt>
      <trkpt lat="44.50836" lon="1.51706">
        <ele>200.7</ele>
        <time>2021-08-09T08:41:41Z</time>
      </trkpt>
      <trkpt lat="44.50836" lon="1.51706">
        <ele>200.7</ele>
        <time>2021-08-09T08:41:42Z</time>
      </trkpt>
      <trkpt lat="44.50838" lon="1.51708">
        <ele>200.7</ele>
        <time>2021-08-09T08:41:43Z</time>
      </trkpt>
      <trkpt lat="44.50838" lon="1.51708">
        <ele>200.7</ele>
        <time>2021-08-09T08:41:44Z</time>
      </trkpt>
      <trkpt lat="44.50838" lon="1.51708">
        <ele>200.8</ele>
        <time>2021-08-09T08:41:46Z</time>
      </trkpt>
      <trkpt lat="44.50839" lon="1.51709">
        <ele>200.8</ele>
        <time>2021-08-09T08:41:47Z</time>
      </trkpt>
      <trkpt lat="44.50839" lon="1.51709">
        <ele>200.8</ele>
        <time>2021-08-09T08:41:49Z</time>
      </trkpt>
      <trkpt lat="44.5084" lon="1.51709">
        <ele>200.8</ele>
        <time>2021-08-09T08:41:50Z</time>
      </trkpt>
      <trkpt lat="44.5084" lon="1.5171">
        <ele>200.8</ele>
        <time>2021-08-09T08:41:52Z</time>
      </trkpt>
      <trkpt lat="44.50841" lon="1.5171">
        <ele>200.8</ele>
        <time>2021-08-09T08:41:54Z</time>
      </trkpt>
      <trkpt lat="44.50841" lon="1.5171">
        <ele>200.9</ele>
        <time>2021-08-09T08:41:55Z</time>
      </trkpt>
      <trkpt lat="44.50842" lon="1.51711">
        <ele>200.9</ele>
        <time>2021-08-09T08:41:56Z</time>
      </trkpt>
      <trkpt lat="44.50842" lon="1.51711">
        <ele>200.9</ele>
        <time>2021-08-09T08:41:58Z</time>
      </trkpt>
      <trkpt lat="44.50843" lon="1.51711">
        <ele>200.9</ele>
        <time>2021-08-09T08:41:59Z</time>
      </trkpt>
      <trkpt lat="44.50843" lon="1.51712">
        <ele>200.9</ele>
        <time>2021-08-09T08:42:01Z</time>
      </trkpt>
      <trkpt lat="44.50843" lon="1.51712">
        <ele>200.9</ele>
        <time>2021-08-09T08:42:02Z</time>
      </trkpt>
      <trkpt lat="44.50844" lon="1.51712">
        <ele>200.9</ele>
        <time>2021-08-09T08:42:04Z</time>
      </trkpt>
      <trkpt lat="44.50844" lon="1.51713">
        <ele>201</ele>
        <time>2021-08-09T08:42:05Z</time>
      </trkpt>
      <trkpt lat="44.50845" lon="1.51713">
        <ele>201</ele>
        <time>2021-08-09T08:42:06Z</time>
      </trkpt>
      <trkpt lat="44.50848" lon="1.51716">
        <ele>201.1</ele>
        <time>2021-08-09T08:42:07Z</time>
      </trkpt>
      <trkpt lat="44.50849" lon="1.51717">
        <ele>201.2</ele>
        <time>2021-08-09T08:42:08Z</time>
      </trkpt>
      <trkpt lat="44.50852" lon="1.51719">
        <ele>201.3</ele>
        <time>2021-08-09T08:42:09Z</time>
      </trkpt>
      <trkpt lat="44.50853" lon="1.5172">
        <ele>201.3</ele>
        <time>2021-08-09T08:42:10Z</time>
      </trkpt>
      <trkpt lat="44.50857" lon="1.51724">
        <ele>201.5</ele>
        <time>2021-08-09T08:42:12Z</time>
      </trkpt>
      <trkpt lat="44.50861" lon="1.51727">
        <ele>201.7</ele>
        <time>2021-08-09T08:42:14Z</time>
      </trkpt>
      <trkpt lat="44.50865" lon="1.51731">
        <ele>201.8</ele>
        <time>2021-08-09T08:42:15Z</time>
      </trkpt>
      <trkpt lat="44.5087" lon="1.51735">
        <ele>202</ele>
        <time>2021-08-09T08:42:17Z</time>
      </trkpt>
      <trkpt lat="44.50875" lon="1.51741">
        <ele>202.2</ele>
        <time>2021-08-09T08:42:19Z</time>
      </trkpt>
      <trkpt lat="44.50878" lon="1.51744">
        <ele>202.2</ele>
        <time>2021-08-09T08:42:20Z</time>
      </trkpt>
      <trkpt lat="44.50882" lon="1.5175">
        <ele>202.4</ele>
        <time>2021-08-09T08:42:22Z</time>
      </trkpt>
      <trkpt lat="44.50886" lon="1.51756">
        <ele>202.5</ele>
        <time>2021-08-09T08:42:23Z</time>
      </trkpt>
      <trkpt lat="44.50889" lon="1.51759">
        <ele>202.6</ele>
        <time>2021-08-09T08:42:24Z</time>
      </trkpt>
      <trkpt lat="44.50892" lon="1.51763">
        <ele>202.7</ele>
        <time>2021-08-09T08:42:26Z</time>
      </trkpt>
      <trkpt lat="44.50895" lon="1.51767">
        <ele>202.8</ele>
        <time>2021-08-09T08:42:27Z</time>
      </trkpt>
      <trkpt lat="44.50897" lon="1.51772">
        <ele>202.9</ele>
        <time>2021-08-09T08:42:28Z</time>
      </trkpt>
      <trkpt lat="44.50902" lon="1.51777">
        <ele>203.1</ele>
        <time>2021-08-09T08:42:30Z</time>
      </trkpt>
      <trkpt lat="44.50905" lon="1.51781">
        <ele>203.2</ele>
        <time>2021-08-09T08:42:31Z</time>
      </trkpt>
      <trkpt lat="44.50909" lon="1.51785">
        <ele>203.4</ele>
        <time>2021-08-09T08:42:33Z</time>
      </trkpt>
      <trkpt lat="44.50914" lon="1.51789">
        <ele>203.5</ele>
        <time>2021-08-09T08:42:34Z</time>
      </trkpt>
      <trkpt lat="44.50917" lon="1.51793">
        <ele>203.7</ele>
        <time>2021-08-09T08:42:35Z</time>
      </trkpt>
      <trkpt lat="44.5092" lon="1.51796">
        <ele>203.9</ele>
        <time>2021-08-09T08:42:36Z</time>
      </trkpt>
      <trkpt lat="44.50924" lon="1.518">
        <ele>204</ele>
        <time>2021-08-09T08:42:38Z</time>
      </trkpt>
      <trkpt lat="44.50927" lon="1.51803">
        <ele>204.2</ele>
        <time>2021-08-09T08:42:39Z</time>
      </trkpt>
      <trkpt lat="44.5093" lon="1.51806">
        <ele>204.3</ele>
        <time>2021-08-09T08:42:40Z</time>
      </trkpt>
      <trkpt lat="44.50936" lon="1.51812">
        <ele>204.6</ele>
        <time>2021-08-09T08:42:42Z</time>
      </trkpt>
      <trkpt lat="44.5094" lon="1.51816">
        <ele>204.8</ele>
        <time>2021-08-09T08:42:43Z</time>
      </trkpt>
      <trkpt lat="44.50943" lon="1.51818">
        <ele>204.9</ele>
        <time>2021-08-09T08:42:44Z</time>
      </trkpt>
      <trkpt lat="44.50946" lon="1.5182">
        <ele>205.1</ele>
        <time>2021-08-09T08:42:46Z</time>
      </trkpt>
      <trkpt lat="44.5095" lon="1.51823">
        <ele>205.2</ele>
        <time>2021-08-09T08:42:47Z</time>
      </trkpt>
      <trkpt lat="44.50952" lon="1.51826">
        <ele>205.3</ele>
        <time>2021-08-09T08:42:48Z</time>
      </trkpt>
      <trkpt lat="44.50956" lon="1.51829">
        <ele>205.4</ele>
        <time>2021-08-09T08:42:50Z</time>
      </trkpt>
      <trkpt lat="44.50959" lon="1.51832">
        <ele>205.5</ele>
        <time>2021-08-09T08:42:51Z</time>
      </trkpt>
      <trkpt lat="44.50962" lon="1.51834">
        <ele>205.6</ele>
        <time>2021-08-09T08:42:52Z</time>
      </trkpt>
      <trkpt lat="44.50965" lon="1.51836">
        <ele>205.6</ele>
        <time>2021-08-09T08:42:53Z</time>
      </trkpt>
      <trkpt lat="44.50967" lon="1.51838">
        <ele>205.7</ele>
        <time>2021-08-09T08:42:54Z</time>
      </trkpt>
      <trkpt lat="44.50969" lon="1.51841">
        <ele>205.8</ele>
        <time>2021-08-09T08:42:55Z</time>
      </trkpt>
      <trkpt lat="44.50973" lon="1.51844">
        <ele>205.9</ele>
        <time>2021-08-09T08:42:56Z</time>
      </trkpt>
      <trkpt lat="44.50976" lon="1.51847">
        <ele>205.9</ele>
        <time>2021-08-09T08:42:58Z</time>
      </trkpt>
      <trkpt lat="44.50979" lon="1.5185">
        <ele>206</ele>
        <time>2021-08-09T08:42:59Z</time>
      </trkpt>
      <trkpt lat="44.50982" lon="1.51852">
        <ele>206.1</ele>
        <time>2021-08-09T08:43:00Z</time>
      </trkpt>
      <trkpt lat="44.50985" lon="1.51855">
        <ele>206.1</ele>
        <time>2021-08-09T08:43:01Z</time>
      </trkpt>
      <trkpt lat="44.50988" lon="1.51857">
        <ele>206.2</ele>
        <time>2021-08-09T08:43:02Z</time>
      </trkpt>
      <trkpt lat="44.50991" lon="1.5186">
        <ele>206.2</ele>
        <time>2021-08-09T08:43:03Z</time>
      </trkpt>
      <trkpt lat="44.50995" lon="1.51863">
        <ele>206.3</ele>
        <time>2021-08-09T08:43:04Z</time>
      </trkpt>
      <trkpt lat="44.50999" lon="1.51866">
        <ele>206.4</ele>
        <time>2021-08-09T08:43:06Z</time>
      </trkpt>
      <trkpt lat="44.51004" lon="1.5187">
        <ele>206.5</ele>
        <time>2021-08-09T08:43:07Z</time>
      </trkpt>
      <trkpt lat="44.51008" lon="1.51874">
        <ele>206.7</ele>
        <time>2021-08-09T08:43:08Z</time>
      </trkpt>
      <trkpt lat="44.51012" lon="1.51877">
        <ele>206.8</ele>
        <time>2021-08-09T08:43:09Z</time>
      </trkpt>
      <trkpt lat="44.51016" lon="1.5188">
        <ele>206.9</ele>
        <time>2021-08-09T08:43:11Z</time>
      </trkpt>
      <trkpt lat="44.51019" lon="1.51884">
        <ele>207</ele>
        <time>2021-08-09T08:43:12Z</time>
      </trkpt>
      <trkpt lat="44.51022" lon="1.51887">
        <ele>207.1</ele>
        <time>2021-08-09T08:43:13Z</time>
      </trkpt>
      <trkpt lat="44.51025" lon="1.5189">
        <ele>207.2</ele>
        <time>2021-08-09T08:43:14Z</time>
      </trkpt>
      <trkpt lat="44.51029" lon="1.51895">
        <ele>207.4</ele>
        <time>2021-08-09T08:43:16Z</time>
      </trkpt>
      <trkpt lat="44.51032" lon="1.51898">
        <ele>207.5</ele>
        <time>2021-08-09T08:43:17Z</time>
      </trkpt>
      <trkpt lat="44.51038" lon="1.51904">
        <ele>207.6</ele>
        <time>2021-08-09T08:43:19Z</time>
      </trkpt>
      <trkpt lat="44.51042" lon="1.51907">
        <ele>207.8</ele>
        <time>2021-08-09T08:43:20Z</time>
      </trkpt>
      <trkpt lat="44.51046" lon="1.51912">
        <ele>207.9</ele>
        <time>2021-08-09T08:43:22Z</time>
      </trkpt>
      <trkpt lat="44.51051" lon="1.51916">
        <ele>208</ele>
        <time>2021-08-09T08:43:23Z</time>
      </trkpt>
      <trkpt lat="44.51057" lon="1.5192">
        <ele>208.1</ele>
        <time>2021-08-09T08:43:25Z</time>
      </trkpt>
      <trkpt lat="44.5106" lon="1.51923">
        <ele>208.2</ele>
        <time>2021-08-09T08:43:26Z</time>
      </trkpt>
      <trkpt lat="44.51064" lon="1.51926">
        <ele>208.2</ele>
        <time>2021-08-09T08:43:27Z</time>
      </trkpt>
      <trkpt lat="44.51068" lon="1.51929">
        <ele>208.1</ele>
        <time>2021-08-09T08:43:29Z</time>
      </trkpt>
      <trkpt lat="44.51072" lon="1.51932">
        <ele>208.1</ele>
        <time>2021-08-09T08:43:30Z</time>
      </trkpt>
      <trkpt lat="44.51077" lon="1.51935">
        <ele>208.1</ele>
        <time>2021-08-09T08:43:31Z</time>
      </trkpt>
      <trkpt lat="44.51082" lon="1.51937">
        <ele>208.1</ele>
        <time>2021-08-09T08:43:33Z</time>
      </trkpt>
      <trkpt lat="44.51086" lon="1.51939">
        <ele>208.1</ele>
        <time>2021-08-09T08:43:34Z</time>
      </trkpt>
      <trkpt lat="44.5109" lon="1.5194">
        <ele>208.1</ele>
        <time>2021-08-09T08:43:35Z</time>
      </trkpt>
      <trkpt lat="44.51095" lon="1.51943">
        <ele>208.1</ele>
        <time>2021-08-09T08:43:36Z</time>
      </trkpt>
      <trkpt lat="44.51099" lon="1.51944">
        <ele>208.1</ele>
        <time>2021-08-09T08:43:38Z</time>
      </trkpt>
      <trkpt lat="44.51105" lon="1.51946">
        <ele>208.1</ele>
        <time>2021-08-09T08:43:39Z</time>
      </trkpt>
      <trkpt lat="44.51109" lon="1.51948">
        <ele>208.2</ele>
        <time>2021-08-09T08:43:40Z</time>
      </trkpt>
      <trkpt lat="44.51114" lon="1.51951">
        <ele>208.2</ele>
        <time>2021-08-09T08:43:41Z</time>
      </trkpt>
      <trkpt lat="44.51119" lon="1.51954">
        <ele>208.3</ele>
        <time>2021-08-09T08:43:43Z</time>
      </trkpt>
      <trkpt lat="44.51124" lon="1.51957">
        <ele>208.4</ele>
        <time>2021-08-09T08:43:44Z</time>
      </trkpt>
      <trkpt lat="44.5113" lon="1.51962">
        <ele>208.5</ele>
        <time>2021-08-09T08:43:46Z</time>
      </trkpt>
      <trkpt lat="44.51135" lon="1.51965">
        <ele>208.6</ele>
        <time>2021-08-09T08:43:47Z</time>
      </trkpt>
      <trkpt lat="44.51139" lon="1.51968">
        <ele>208.6</ele>
        <time>2021-08-09T08:43:48Z</time>
      </trkpt>
      <trkpt lat="44.51144" lon="1.51972">
        <ele>208.7</ele>
        <time>2021-08-09T08:43:49Z</time>
      </trkpt>
      <trkpt lat="44.51149" lon="1.51976">
        <ele>208.8</ele>
        <time>2021-08-09T08:43:51Z</time>
      </trkpt>
      <trkpt lat="44.51154" lon="1.5198">
        <ele>208.9</ele>
        <time>2021-08-09T08:43:52Z</time>
      </trkpt>
      <trkpt lat="44.51158" lon="1.51982">
        <ele>208.9</ele>
        <time>2021-08-09T08:43:53Z</time>
      </trkpt>
      <trkpt lat="44.51164" lon="1.51986">
        <ele>209.1</ele>
        <time>2021-08-09T08:43:55Z</time>
      </trkpt>
      <trkpt lat="44.51168" lon="1.51991">
        <ele>209.2</ele>
        <time>2021-08-09T08:43:56Z</time>
      </trkpt>
      <trkpt lat="44.51171" lon="1.51994">
        <ele>209.4</ele>
        <time>2021-08-09T08:43:57Z</time>
      </trkpt>
      <trkpt lat="44.51174" lon="1.51996">
        <ele>209.5</ele>
        <time>2021-08-09T08:43:58Z</time>
      </trkpt>
      <trkpt lat="44.51178" lon="1.51998">
        <ele>209.6</ele>
        <time>2021-08-09T08:44:00Z</time>
      </trkpt>
      <trkpt lat="44.51181" lon="1.52">
        <ele>209.7</ele>
        <time>2021-08-09T08:44:01Z</time>
      </trkpt>
      <trkpt lat="44.51186" lon="1.52003">
        <ele>209.9</ele>
        <time>2021-08-09T08:44:03Z</time>
      </trkpt>
      <trkpt lat="44.51189" lon="1.52006">
        <ele>210</ele>
        <time>2021-08-09T08:44:04Z</time>
      </trkpt>
      <trkpt lat="44.51193" lon="1.52007">
        <ele>210.2</ele>
        <time>2021-08-09T08:44:05Z</time>
      </trkpt>
      <trkpt lat="44.51198" lon="1.52011">
        <ele>210.3</ele>
        <time>2021-08-09T08:44:07Z</time>
      </trkpt>
      <trkpt lat="44.51203" lon="1.52014">
        <ele>210.5</ele>
        <time>2021-08-09T08:44:09Z</time>
      </trkpt>
      <trkpt lat="44.51208" lon="1.52015">
        <ele>210.6</ele>
        <time>2021-08-09T08:44:10Z</time>
      </trkpt>
      <trkpt lat="44.51212" lon="1.52016">
        <ele>210.7</ele>
        <time>2021-08-09T08:44:11Z</time>
      </trkpt>
      <trkpt lat="44.5122" lon="1.52018">
        <ele>210.8</ele>
        <time>2021-08-09T08:44:13Z</time>
      </trkpt>
      <trkpt lat="44.51225" lon="1.52019">
        <ele>210.9</ele>
        <time>2021-08-09T08:44:14Z</time>
      </trkpt>
      <trkpt lat="44.5123" lon="1.52021">
        <ele>211</ele>
        <time>2021-08-09T08:44:15Z</time>
      </trkpt>
      <trkpt lat="44.51234" lon="1.52021">
        <ele>211.1</ele>
        <time>2021-08-09T08:44:16Z</time>
      </trkpt>
      <trkpt lat="44.51241" lon="1.52022">
        <ele>211.2</ele>
        <time>2021-08-09T08:44:17Z</time>
      </trkpt>
      <trkpt lat="44.51247" lon="1.52023">
        <ele>211.3</ele>
        <time>2021-08-09T08:44:19Z</time>
      </trkpt>
      <trkpt lat="44.51251" lon="1.52023">
        <ele>211.4</ele>
        <time>2021-08-09T08:44:20Z</time>
      </trkpt>
      <trkpt lat="44.51255" lon="1.52023">
        <ele>211.4</ele>
        <time>2021-08-09T08:44:21Z</time>
      </trkpt>
      <trkpt lat="44.51261" lon="1.52023">
        <ele>211.5</ele>
        <time>2021-08-09T08:44:23Z</time>
      </trkpt>
      <trkpt lat="44.51265" lon="1.52021">
        <ele>211.6</ele>
        <time>2021-08-09T08:44:24Z</time>
      </trkpt>
      <trkpt lat="44.51269" lon="1.52019">
        <ele>211.7</ele>
        <time>2021-08-09T08:44:25Z</time>
      </trkpt>
      <trkpt lat="44.51272" lon="1.52016">
        <ele>211.7</ele>
        <time>2021-08-09T08:44:26Z</time>
      </trkpt>
      <trkpt lat="44.51276" lon="1.52014">
        <ele>211.8</ele>
        <time>2021-08-09T08:44:27Z</time>
      </trkpt>
      <trkpt lat="44.51281" lon="1.52011">
        <ele>211.9</ele>
        <time>2021-08-09T08:44:29Z</time>
      </trkpt>
      <trkpt lat="44.51286" lon="1.52006">
        <ele>212</ele>
        <time>2021-08-09T08:44:30Z</time>
      </trkpt>
      <trkpt lat="44.5129" lon="1.52003">
        <ele>212.1</ele>
        <time>2021-08-09T08:44:31Z</time>
      </trkpt>
      <trkpt lat="44.51293" lon="1.52">
        <ele>212.2</ele>
        <time>2021-08-09T08:44:32Z</time>
      </trkpt>
      <trkpt lat="44.51296" lon="1.51997">
        <ele>212.3</ele>
        <time>2021-08-09T08:44:33Z</time>
      </trkpt>
      <trkpt lat="44.513" lon="1.51993">
        <ele>212.4</ele>
        <time>2021-08-09T08:44:35Z</time>
      </trkpt>
      <trkpt lat="44.51303" lon="1.5199">
        <ele>212.5</ele>
        <time>2021-08-09T08:44:36Z</time>
      </trkpt>
      <trkpt lat="44.51307" lon="1.51988">
        <ele>212.5</ele>
        <time>2021-08-09T08:44:37Z</time>
      </trkpt>
      <trkpt lat="44.5131" lon="1.51986">
        <ele>212.6</ele>
        <time>2021-08-09T08:44:38Z</time>
      </trkpt>
      <trkpt lat="44.51314" lon="1.51986">
        <ele>212.6</ele>
        <time>2021-08-09T08:44:39Z</time>
      </trkpt>
      <trkpt lat="44.51318" lon="1.51987">
        <ele>212.7</ele>
        <time>2021-08-09T08:44:41Z</time>
      </trkpt>
      <trkpt lat="44.51322" lon="1.51988">
        <ele>212.8</ele>
        <time>2021-08-09T08:44:42Z</time>
      </trkpt>
      <trkpt lat="44.51328" lon="1.5199">
        <ele>212.8</ele>
        <time>2021-08-09T08:44:44Z</time>
      </trkpt>
      <trkpt lat="44.51331" lon="1.51992">
        <ele>212.9</ele>
        <time>2021-08-09T08:44:45Z</time>
      </trkpt>
      <trkpt lat="44.51337" lon="1.51994">
        <ele>213</ele>
        <time>2021-08-09T08:44:46Z</time>
      </trkpt>
      <trkpt lat="44.51341" lon="1.51996">
        <ele>213.2</ele>
        <time>2021-08-09T08:44:48Z</time>
      </trkpt>
      <trkpt lat="44.51346" lon="1.51999">
        <ele>213.3</ele>
        <time>2021-08-09T08:44:49Z</time>
      </trkpt>
      <trkpt lat="44.5135" lon="1.52002">
        <ele>213.5</ele>
        <time>2021-08-09T08:44:51Z</time>
      </trkpt>
      <trkpt lat="44.51354" lon="1.52004">
        <ele>213.6</ele>
        <time>2021-08-09T08:44:52Z</time>
      </trkpt>
      <trkpt lat="44.51358" lon="1.52006">
        <ele>213.7</ele>
        <time>2021-08-09T08:44:53Z</time>
      </trkpt>
      <trkpt lat="44.51361" lon="1.52008">
        <ele>213.9</ele>
        <time>2021-08-09T08:44:54Z</time>
      </trkpt>
      <trkpt lat="44.51366" lon="1.5201">
        <ele>214</ele>
        <time>2021-08-09T08:44:56Z</time>
      </trkpt>
      <trkpt lat="44.51372" lon="1.52014">
        <ele>214.2</ele>
        <time>2021-08-09T08:44:58Z</time>
      </trkpt>
      <trkpt lat="44.51376" lon="1.52015">
        <ele>214.4</ele>
        <time>2021-08-09T08:44:59Z</time>
      </trkpt>
      <trkpt lat="44.51381" lon="1.52017">
        <ele>214.5</ele>
        <time>2021-08-09T08:45:01Z</time>
      </trkpt>
      <trkpt lat="44.51385" lon="1.52017">
        <ele>214.6</ele>
        <time>2021-08-09T08:45:02Z</time>
      </trkpt>
      <trkpt lat="44.51389" lon="1.52018">
        <ele>214.8</ele>
        <time>2021-08-09T08:45:03Z</time>
      </trkpt>
      <trkpt lat="44.51395" lon="1.52017">
        <ele>214.9</ele>
        <time>2021-08-09T08:45:05Z</time>
      </trkpt>
      <trkpt lat="44.51398" lon="1.52017">
        <ele>215</ele>
        <time>2021-08-09T08:45:06Z</time>
      </trkpt>
      <trkpt lat="44.51402" lon="1.52016">
        <ele>215.1</ele>
        <time>2021-08-09T08:45:07Z</time>
      </trkpt>
      <trkpt lat="44.51408" lon="1.52016">
        <ele>215.2</ele>
        <time>2021-08-09T08:45:09Z</time>
      </trkpt>
      <trkpt lat="44.51412" lon="1.52016">
        <ele>215.3</ele>
        <time>2021-08-09T08:45:10Z</time>
      </trkpt>
      <trkpt lat="44.51419" lon="1.52017">
        <ele>215.4</ele>
        <time>2021-08-09T08:45:12Z</time>
      </trkpt>
      <trkpt lat="44.51423" lon="1.52018">
        <ele>215.5</ele>
        <time>2021-08-09T08:45:13Z</time>
      </trkpt>
      <trkpt lat="44.51426" lon="1.52018">
        <ele>215.5</ele>
        <time>2021-08-09T08:45:15Z</time>
      </trkpt>
      <trkpt lat="44.5143" lon="1.52018">
        <ele>215.6</ele>
        <time>2021-08-09T08:45:16Z</time>
      </trkpt>
      <trkpt lat="44.51434" lon="1.52018">
        <ele>215.6</ele>
        <time>2021-08-09T08:45:17Z</time>
      </trkpt>
      <trkpt lat="44.51437" lon="1.52017">
        <ele>215.7</ele>
        <time>2021-08-09T08:45:18Z</time>
      </trkpt>
      <trkpt lat="44.51442" lon="1.52018">
        <ele>215.7</ele>
        <time>2021-08-09T08:45:20Z</time>
      </trkpt>
      <trkpt lat="44.51446" lon="1.52018">
        <ele>215.8</ele>
        <time>2021-08-09T08:45:21Z</time>
      </trkpt>
      <trkpt lat="44.5145" lon="1.52018">
        <ele>215.9</ele>
        <time>2021-08-09T08:45:22Z</time>
      </trkpt>
      <trkpt lat="44.51454" lon="1.52018">
        <ele>215.9</ele>
        <time>2021-08-09T08:45:23Z</time>
      </trkpt>
      <trkpt lat="44.5146" lon="1.52018">
        <ele>216.1</ele>
        <time>2021-08-09T08:45:25Z</time>
      </trkpt>
      <trkpt lat="44.51463" lon="1.52018">
        <ele>216.2</ele>
        <time>2021-08-09T08:45:26Z</time>
      </trkpt>
      <trkpt lat="44.51466" lon="1.52018">
        <ele>216.3</ele>
        <time>2021-08-09T08:45:28Z</time>
      </trkpt>
      <trkpt lat="44.5147" lon="1.52017">
        <ele>216.5</ele>
        <time>2021-08-09T08:45:29Z</time>
      </trkpt>
      <trkpt lat="44.51474" lon="1.52016">
        <ele>216.6</ele>
        <time>2021-08-09T08:45:30Z</time>
      </trkpt>
      <trkpt lat="44.51477" lon="1.52015">
        <ele>216.8</ele>
        <time>2021-08-09T08:45:31Z</time>
      </trkpt>
      <trkpt lat="44.51483" lon="1.52015">
        <ele>217</ele>
        <time>2021-08-09T08:45:33Z</time>
      </trkpt>
      <trkpt lat="44.51487" lon="1.52015">
        <ele>217.1</ele>
        <time>2021-08-09T08:45:34Z</time>
      </trkpt>
      <trkpt lat="44.51491" lon="1.52015">
        <ele>217.2</ele>
        <time>2021-08-09T08:45:35Z</time>
      </trkpt>
      <trkpt lat="44.51496" lon="1.52016">
        <ele>217.3</ele>
        <time>2021-08-09T08:45:37Z</time>
      </trkpt>
      <trkpt lat="44.51501" lon="1.52017">
        <ele>217.5</ele>
        <time>2021-08-09T08:45:38Z</time>
      </trkpt>
      <trkpt lat="44.51506" lon="1.52017">
        <ele>217.6</ele>
        <time>2021-08-09T08:45:39Z</time>
      </trkpt>
      <trkpt lat="44.5151" lon="1.52017">
        <ele>217.7</ele>
        <time>2021-08-09T08:45:41Z</time>
      </trkpt>
      <trkpt lat="44.51514" lon="1.52018">
        <ele>217.8</ele>
        <time>2021-08-09T08:45:42Z</time>
      </trkpt>
      <trkpt lat="44.51517" lon="1.52019">
        <ele>217.9</ele>
        <time>2021-08-09T08:45:43Z</time>
      </trkpt>
      <trkpt lat="44.5152" lon="1.5202">
        <ele>218</ele>
        <time>2021-08-09T08:45:44Z</time>
      </trkpt>
      <trkpt lat="44.51524" lon="1.52021">
        <ele>218.2</ele>
        <time>2021-08-09T08:45:45Z</time>
      </trkpt>
      <trkpt lat="44.51528" lon="1.52021">
        <ele>218.3</ele>
        <time>2021-08-09T08:45:47Z</time>
      </trkpt>
      <trkpt lat="44.51531" lon="1.52021">
        <ele>218.4</ele>
        <time>2021-08-09T08:45:48Z</time>
      </trkpt>
      <trkpt lat="44.51536" lon="1.52023">
        <ele>218.5</ele>
        <time>2021-08-09T08:45:49Z</time>
      </trkpt>
      <trkpt lat="44.51542" lon="1.52024">
        <ele>218.6</ele>
        <time>2021-08-09T08:45:51Z</time>
      </trkpt>
      <trkpt lat="44.51545" lon="1.52024">
        <ele>218.7</ele>
        <time>2021-08-09T08:45:52Z</time>
      </trkpt>
      <trkpt lat="44.5155" lon="1.52025">
        <ele>218.8</ele>
        <time>2021-08-09T08:45:54Z</time>
      </trkpt>
      <trkpt lat="44.51554" lon="1.52026">
        <ele>218.9</ele>
        <time>2021-08-09T08:45:55Z</time>
      </trkpt>
      <trkpt lat="44.51556" lon="1.52026">
        <ele>219</ele>
        <time>2021-08-09T08:45:56Z</time>
      </trkpt>
      <trkpt lat="44.5156" lon="1.52027">
        <ele>219.1</ele>
        <time>2021-08-09T08:45:57Z</time>
      </trkpt>
      <trkpt lat="44.51563" lon="1.52027">
        <ele>219.1</ele>
        <time>2021-08-09T08:45:58Z</time>
      </trkpt>
      <trkpt lat="44.51569" lon="1.52026">
        <ele>219.3</ele>
        <time>2021-08-09T08:45:59Z</time>
      </trkpt>
      <trkpt lat="44.51575" lon="1.52026">
        <ele>219.4</ele>
        <time>2021-08-09T08:46:01Z</time>
      </trkpt>
      <trkpt lat="44.5158" lon="1.52025">
        <ele>219.5</ele>
        <time>2021-08-09T08:46:02Z</time>
      </trkpt>
      <trkpt lat="44.51585" lon="1.52025">
        <ele>219.6</ele>
        <time>2021-08-09T08:46:03Z</time>
      </trkpt>
      <trkpt lat="44.5159" lon="1.52024">
        <ele>219.7</ele>
        <time>2021-08-09T08:46:04Z</time>
      </trkpt>
      <trkpt lat="44.51595" lon="1.52023">
        <ele>219.8</ele>
        <time>2021-08-09T08:46:06Z</time>
      </trkpt>
      <trkpt lat="44.51598" lon="1.52022">
        <ele>219.9</ele>
        <time>2021-08-09T08:46:07Z</time>
      </trkpt>
      <trkpt lat="44.51602" lon="1.5202">
        <ele>220</ele>
        <time>2021-08-09T08:46:08Z</time>
      </trkpt>
      <trkpt lat="44.51605" lon="1.52018">
        <ele>220.1</ele>
        <time>2021-08-09T08:46:09Z</time>
      </trkpt>
      <trkpt lat="44.51609" lon="1.52017">
        <ele>220.3</ele>
        <time>2021-08-09T08:46:10Z</time>
      </trkpt>
      <trkpt lat="44.51614" lon="1.52015">
        <ele>220.5</ele>
        <time>2021-08-09T08:46:12Z</time>
      </trkpt>
      <trkpt lat="44.51619" lon="1.52014">
        <ele>220.6</ele>
        <time>2021-08-09T08:46:13Z</time>
      </trkpt>
      <trkpt lat="44.51625" lon="1.52013">
        <ele>220.8</ele>
        <time>2021-08-09T08:46:14Z</time>
      </trkpt>
      <trkpt lat="44.51629" lon="1.52013">
        <ele>220.9</ele>
        <time>2021-08-09T08:46:15Z</time>
      </trkpt>
      <trkpt lat="44.51636" lon="1.52012">
        <ele>221.1</ele>
        <time>2021-08-09T08:46:17Z</time>
      </trkpt>
      <trkpt lat="44.51642" lon="1.52013">
        <ele>221.3</ele>
        <time>2021-08-09T08:46:19Z</time>
      </trkpt>
      <trkpt lat="44.51645" lon="1.52013">
        <ele>221.4</ele>
        <time>2021-08-09T08:46:20Z</time>
      </trkpt>
      <trkpt lat="44.51649" lon="1.52015">
        <ele>221.6</ele>
        <time>2021-08-09T08:46:21Z</time>
      </trkpt>
      <trkpt lat="44.51655" lon="1.52018">
        <ele>221.9</ele>
        <time>2021-08-09T08:46:23Z</time>
      </trkpt>
      <trkpt lat="44.5166" lon="1.5202">
        <ele>222.1</ele>
        <time>2021-08-09T08:46:24Z</time>
      </trkpt>
      <trkpt lat="44.51664" lon="1.52022">
        <ele>222.3</ele>
        <time>2021-08-09T08:46:26Z</time>
      </trkpt>
      <trkpt lat="44.51668" lon="1.52024">
        <ele>222.5</ele>
        <time>2021-08-09T08:46:27Z</time>
      </trkpt>
      <trkpt lat="44.51673" lon="1.52027">
        <ele>222.8</ele>
        <time>2021-08-09T08:46:29Z</time>
      </trkpt>
      <trkpt lat="44.51677" lon="1.52029">
        <ele>223</ele>
        <time>2021-08-09T08:46:30Z</time>
      </trkpt>
      <trkpt lat="44.51678" lon="1.5203">
        <ele>223.1</ele>
        <time>2021-08-09T08:46:31Z</time>
      </trkpt>
      <trkpt lat="44.51681" lon="1.52032">
        <ele>223.2</ele>
        <time>2021-08-09T08:46:32Z</time>
      </trkpt>
      <trkpt lat="44.51685" lon="1.52034">
        <ele>223.5</ele>
        <time>2021-08-09T08:46:34Z</time>
      </trkpt>
      <trkpt lat="44.51689" lon="1.52036">
        <ele>223.7</ele>
        <time>2021-08-09T08:46:35Z</time>
      </trkpt>
      <trkpt lat="44.51692" lon="1.52037">
        <ele>223.9</ele>
        <time>2021-08-09T08:46:36Z</time>
      </trkpt>
      <trkpt lat="44.51697" lon="1.5204">
        <ele>224.2</ele>
        <time>2021-08-09T08:46:38Z</time>
      </trkpt>
      <trkpt lat="44.51702" lon="1.52042">
        <ele>224.5</ele>
        <time>2021-08-09T08:46:39Z</time>
      </trkpt>
      <trkpt lat="44.51708" lon="1.52045">
        <ele>224.9</ele>
        <time>2021-08-09T08:46:41Z</time>
      </trkpt>
      <trkpt lat="44.51712" lon="1.52046">
        <ele>225.1</ele>
        <time>2021-08-09T08:46:42Z</time>
      </trkpt>
      <trkpt lat="44.51717" lon="1.52048">
        <ele>225.4</ele>
        <time>2021-08-09T08:46:44Z</time>
      </trkpt>
      <trkpt lat="44.51721" lon="1.5205">
        <ele>225.6</ele>
        <time>2021-08-09T08:46:45Z</time>
      </trkpt>
      <trkpt lat="44.51724" lon="1.52052">
        <ele>225.8</ele>
        <time>2021-08-09T08:46:46Z</time>
      </trkpt>
      <trkpt lat="44.51729" lon="1.52055">
        <ele>226.1</ele>
        <time>2021-08-09T08:46:48Z</time>
      </trkpt>
      <trkpt lat="44.51733" lon="1.52057">
        <ele>226.4</ele>
        <time>2021-08-09T08:46:49Z</time>
      </trkpt>
      <trkpt lat="44.51736" lon="1.52058">
        <ele>226.5</ele>
        <time>2021-08-09T08:46:50Z</time>
      </trkpt>
      <trkpt lat="44.5174" lon="1.5206">
        <ele>226.7</ele>
        <time>2021-08-09T08:46:51Z</time>
      </trkpt>
      <trkpt lat="44.51743" lon="1.52062">
        <ele>226.9</ele>
        <time>2021-08-09T08:46:53Z</time>
      </trkpt>
      <trkpt lat="44.51747" lon="1.52063">
        <ele>227.1</ele>
        <time>2021-08-09T08:46:54Z</time>
      </trkpt>
      <trkpt lat="44.51752" lon="1.52064">
        <ele>227.4</ele>
        <time>2021-08-09T08:46:55Z</time>
      </trkpt>
      <trkpt lat="44.51754" lon="1.52065">
        <ele>227.5</ele>
        <time>2021-08-09T08:46:56Z</time>
      </trkpt>
      <trkpt lat="44.51758" lon="1.52067">
        <ele>227.6</ele>
        <time>2021-08-09T08:46:58Z</time>
      </trkpt>
      <trkpt lat="44.5176" lon="1.52068">
        <ele>227.8</ele>
        <time>2021-08-09T08:46:59Z</time>
      </trkpt>
      <trkpt lat="44.51763" lon="1.52069">
        <ele>227.9</ele>
        <time>2021-08-09T08:47:00Z</time>
      </trkpt>
      <trkpt lat="44.51766" lon="1.52071">
        <ele>228</ele>
        <time>2021-08-09T08:47:01Z</time>
      </trkpt>
      <trkpt lat="44.51769" lon="1.52072">
        <ele>228.1</ele>
        <time>2021-08-09T08:47:02Z</time>
      </trkpt>
      <trkpt lat="44.51773" lon="1.52074">
        <ele>228.3</ele>
        <time>2021-08-09T08:47:04Z</time>
      </trkpt>
      <trkpt lat="44.51777" lon="1.52075">
        <ele>228.4</ele>
        <time>2021-08-09T08:47:05Z</time>
      </trkpt>
      <trkpt lat="44.51781" lon="1.52077">
        <ele>228.6</ele>
        <time>2021-08-09T08:47:06Z</time>
      </trkpt>
      <trkpt lat="44.51785" lon="1.52078">
        <ele>228.8</ele>
        <time>2021-08-09T08:47:07Z</time>
      </trkpt>
      <trkpt lat="44.5179" lon="1.5208">
        <ele>229</ele>
        <time>2021-08-09T08:47:09Z</time>
      </trkpt>
      <trkpt lat="44.51793" lon="1.52081">
        <ele>229.2</ele>
        <time>2021-08-09T08:47:10Z</time>
      </trkpt>
      <trkpt lat="44.51796" lon="1.52083">
        <ele>229.3</ele>
        <time>2021-08-09T08:47:11Z</time>
      </trkpt>
      <trkpt lat="44.518" lon="1.52085">
        <ele>229.4</ele>
        <time>2021-08-09T08:47:12Z</time>
      </trkpt>
      <trkpt lat="44.51807" lon="1.52088">
        <ele>229.7</ele>
        <time>2021-08-09T08:47:14Z</time>
      </trkpt>
      <trkpt lat="44.51811" lon="1.5209">
        <ele>229.8</ele>
        <time>2021-08-09T08:47:15Z</time>
      </trkpt>
      <trkpt lat="44.51815" lon="1.52092">
        <ele>229.9</ele>
        <time>2021-08-09T08:47:16Z</time>
      </trkpt>
      <trkpt lat="44.5182" lon="1.52096">
        <ele>230.1</ele>
        <time>2021-08-09T08:47:18Z</time>
      </trkpt>
      <trkpt lat="44.51824" lon="1.52099">
        <ele>230.2</ele>
        <time>2021-08-09T08:47:19Z</time>
      </trkpt>
      <trkpt lat="44.51828" lon="1.52102">
        <ele>230.4</ele>
        <time>2021-08-09T08:47:20Z</time>
      </trkpt>
      <trkpt lat="44.51832" lon="1.52106">
        <ele>230.5</ele>
        <time>2021-08-09T08:47:21Z</time>
      </trkpt>
      <trkpt lat="44.51838" lon="1.5211">
        <ele>230.7</ele>
        <time>2021-08-09T08:47:23Z</time>
      </trkpt>
      <trkpt lat="44.51841" lon="1.52114">
        <ele>230.8</ele>
        <time>2021-08-09T08:47:24Z</time>
      </trkpt>
      <trkpt lat="44.51844" lon="1.52117">
        <ele>231</ele>
        <time>2021-08-09T08:47:25Z</time>
      </trkpt>
      <trkpt lat="44.51848" lon="1.52121">
        <ele>231.1</ele>
        <time>2021-08-09T08:47:26Z</time>
      </trkpt>
      <trkpt lat="44.51852" lon="1.52127">
        <ele>231.3</ele>
        <time>2021-08-09T08:47:28Z</time>
      </trkpt>
      <trkpt lat="44.51855" lon="1.52132">
        <ele>231.5</ele>
        <time>2021-08-09T08:47:29Z</time>
      </trkpt>
      <trkpt lat="44.51858" lon="1.52139">
        <ele>231.7</ele>
        <time>2021-08-09T08:47:31Z</time>
      </trkpt>
      <trkpt lat="44.51861" lon="1.52146">
        <ele>231.9</ele>
        <time>2021-08-09T08:47:32Z</time>
      </trkpt>
      <trkpt lat="44.51862" lon="1.52154">
        <ele>232.1</ele>
        <time>2021-08-09T08:47:34Z</time>
      </trkpt>
      <trkpt lat="44.51862" lon="1.52158">
        <ele>232.2</ele>
        <time>2021-08-09T08:47:35Z</time>
      </trkpt>
      <trkpt lat="44.51864" lon="1.52163">
        <ele>232.3</ele>
        <time>2021-08-09T08:47:36Z</time>
      </trkpt>
      <trkpt lat="44.51864" lon="1.52168">
        <ele>232.5</ele>
        <time>2021-08-09T08:47:38Z</time>
      </trkpt>
      <trkpt lat="44.51864" lon="1.52172">
        <ele>232.6</ele>
        <time>2021-08-09T08:47:39Z</time>
      </trkpt>
      <trkpt lat="44.51864" lon="1.52179">
        <ele>232.8</ele>
        <time>2021-08-09T08:47:41Z</time>
      </trkpt>
      <trkpt lat="44.51864" lon="1.52184">
        <ele>233</ele>
        <time>2021-08-09T08:47:42Z</time>
      </trkpt>
      <trkpt lat="44.51865" lon="1.52189">
        <ele>233.1</ele>
        <time>2021-08-09T08:47:43Z</time>
      </trkpt>
      <trkpt lat="44.51865" lon="1.52195">
        <ele>233.3</ele>
        <time>2021-08-09T08:47:44Z</time>
      </trkpt>
      <trkpt lat="44.51867" lon="1.52201">
        <ele>233.5</ele>
        <time>2021-08-09T08:47:46Z</time>
      </trkpt>
      <trkpt lat="44.51868" lon="1.52205">
        <ele>233.7</ele>
        <time>2021-08-09T08:47:47Z</time>
      </trkpt>
      <trkpt lat="44.5187" lon="1.5221">
        <ele>233.9</ele>
        <time>2021-08-09T08:47:48Z</time>
      </trkpt>
      <trkpt lat="44.51872" lon="1.52217">
        <ele>234.2</ele>
        <time>2021-08-09T08:47:50Z</time>
      </trkpt>
      <trkpt lat="44.51874" lon="1.52222">
        <ele>234.4</ele>
        <time>2021-08-09T08:47:51Z</time>
      </trkpt>
      <trkpt lat="44.51877" lon="1.5223">
        <ele>234.7</ele>
        <time>2021-08-09T08:47:53Z</time>
      </trkpt>
      <trkpt lat="44.51879" lon="1.52235">
        <ele>234.9</ele>
        <time>2021-08-09T08:47:54Z</time>
      </trkpt>
      <trkpt lat="44.51882" lon="1.5224">
        <ele>235.1</ele>
        <time>2021-08-09T08:47:55Z</time>
      </trkpt>
      <trkpt lat="44.51884" lon="1.52246">
        <ele>235.3</ele>
        <time>2021-08-09T08:47:57Z</time>
      </trkpt>
      <trkpt lat="44.51886" lon="1.52251">
        <ele>235.5</ele>
        <time>2021-08-09T08:47:58Z</time>
      </trkpt>
      <trkpt lat="44.51888" lon="1.52255">
        <ele>235.6</ele>
        <time>2021-08-09T08:47:59Z</time>
      </trkpt>
      <trkpt lat="44.5189" lon="1.5226">
        <ele>235.8</ele>
        <time>2021-08-09T08:48:00Z</time>
      </trkpt>
      <trkpt lat="44.51892" lon="1.52263">
        <ele>235.9</ele>
        <time>2021-08-09T08:48:02Z</time>
      </trkpt>
      <trkpt lat="44.51893" lon="1.52268">
        <ele>236</ele>
        <time>2021-08-09T08:48:03Z</time>
      </trkpt>
      <trkpt lat="44.51895" lon="1.52272">
        <ele>236.1</ele>
        <time>2021-08-09T08:48:04Z</time>
      </trkpt>
      <trkpt lat="44.51898" lon="1.52276">
        <ele>236.2</ele>
        <time>2021-08-09T08:48:05Z</time>
      </trkpt>
      <trkpt lat="44.519" lon="1.5228">
        <ele>236.3</ele>
        <time>2021-08-09T08:48:06Z</time>
      </trkpt>
      <trkpt lat="44.51902" lon="1.52285">
        <ele>236.4</ele>
        <time>2021-08-09T08:48:07Z</time>
      </trkpt>
      <trkpt lat="44.51905" lon="1.5229">
        <ele>236.5</ele>
        <time>2021-08-09T08:48:09Z</time>
      </trkpt>
      <trkpt lat="44.51908" lon="1.52295">
        <ele>236.5</ele>
        <time>2021-08-09T08:48:10Z</time>
      </trkpt>
      <trkpt lat="44.51911" lon="1.523">
        <ele>236.6</ele>
        <time>2021-08-09T08:48:12Z</time>
      </trkpt>
      <trkpt lat="44.51914" lon="1.52303">
        <ele>236.7</ele>
        <time>2021-08-09T08:48:13Z</time>
      </trkpt>
      <trkpt lat="44.51916" lon="1.52306">
        <ele>236.8</ele>
        <time>2021-08-09T08:48:14Z</time>
      </trkpt>
      <trkpt lat="44.5192" lon="1.5231">
        <ele>236.9</ele>
        <time>2021-08-09T08:48:16Z</time>
      </trkpt>
      <trkpt lat="44.51923" lon="1.52313">
        <ele>237</ele>
        <time>2021-08-09T08:48:17Z</time>
      </trkpt>
      <trkpt lat="44.51928" lon="1.52317">
        <ele>237.1</ele>
        <time>2021-08-09T08:48:18Z</time>
      </trkpt>
      <trkpt lat="44.5193" lon="1.5232">
        <ele>237.2</ele>
        <time>2021-08-09T08:48:19Z</time>
      </trkpt>
      <trkpt lat="44.51932" lon="1.52323">
        <ele>237.3</ele>
        <time>2021-08-09T08:48:20Z</time>
      </trkpt>
      <trkpt lat="44.51934" lon="1.52326">
        <ele>237.4</ele>
        <time>2021-08-09T08:48:21Z</time>
      </trkpt>
      <trkpt lat="44.51937" lon="1.52331">
        <ele>237.5</ele>
        <time>2021-08-09T08:48:22Z</time>
      </trkpt>
      <trkpt lat="44.51939" lon="1.52333">
        <ele>237.6</ele>
        <time>2021-08-09T08:48:23Z</time>
      </trkpt>
      <trkpt lat="44.51941" lon="1.52336">
        <ele>237.7</ele>
        <time>2021-08-09T08:48:25Z</time>
      </trkpt>
      <trkpt lat="44.51944" lon="1.52341">
        <ele>237.8</ele>
        <time>2021-08-09T08:48:26Z</time>
      </trkpt>
      <trkpt lat="44.51947" lon="1.52344">
        <ele>238</ele>
        <time>2021-08-09T08:48:27Z</time>
      </trkpt>
      <trkpt lat="44.5195" lon="1.52348">
        <ele>238.1</ele>
        <time>2021-08-09T08:48:28Z</time>
      </trkpt>
      <trkpt lat="44.51952" lon="1.52351">
        <ele>238.2</ele>
        <time>2021-08-09T08:48:30Z</time>
      </trkpt>
      <trkpt lat="44.51955" lon="1.52354">
        <ele>238.3</ele>
        <time>2021-08-09T08:48:31Z</time>
      </trkpt>
      <trkpt lat="44.51957" lon="1.52359">
        <ele>238.5</ele>
        <time>2021-08-09T08:48:32Z</time>
      </trkpt>
      <trkpt lat="44.51959" lon="1.52362">
        <ele>238.6</ele>
        <time>2021-08-09T08:48:33Z</time>
      </trkpt>
      <trkpt lat="44.51961" lon="1.52365">
        <ele>238.6</ele>
        <time>2021-08-09T08:48:34Z</time>
      </trkpt>
      <trkpt lat="44.51964" lon="1.5237">
        <ele>238.8</ele>
        <time>2021-08-09T08:48:35Z</time>
      </trkpt>
      <trkpt lat="44.51967" lon="1.52376">
        <ele>238.9</ele>
        <time>2021-08-09T08:48:37Z</time>
      </trkpt>
      <trkpt lat="44.51969" lon="1.5238">
        <ele>239</ele>
        <time>2021-08-09T08:48:38Z</time>
      </trkpt>
      <trkpt lat="44.51973" lon="1.52386">
        <ele>239.1</ele>
        <time>2021-08-09T08:48:40Z</time>
      </trkpt>
      <trkpt lat="44.51975" lon="1.52391">
        <ele>239.3</ele>
        <time>2021-08-09T08:48:41Z</time>
      </trkpt>
      <trkpt lat="44.51977" lon="1.52395">
        <ele>239.4</ele>
        <time>2021-08-09T08:48:43Z</time>
      </trkpt>
      <trkpt lat="44.51979" lon="1.524">
        <ele>239.5</ele>
        <time>2021-08-09T08:48:44Z</time>
      </trkpt>
      <trkpt lat="44.51982" lon="1.52407">
        <ele>239.6</ele>
        <time>2021-08-09T08:48:46Z</time>
      </trkpt>
      <trkpt lat="44.51984" lon="1.52412">
        <ele>239.7</ele>
        <time>2021-08-09T08:48:47Z</time>
      </trkpt>
      <trkpt lat="44.51986" lon="1.52418">
        <ele>239.8</ele>
        <time>2021-08-09T08:48:49Z</time>
      </trkpt>
      <trkpt lat="44.51987" lon="1.52423">
        <ele>239.9</ele>
        <time>2021-08-09T08:48:50Z</time>
      </trkpt>
      <trkpt lat="44.51989" lon="1.52429">
        <ele>240</ele>
        <time>2021-08-09T08:48:51Z</time>
      </trkpt>
      <trkpt lat="44.51991" lon="1.52436">
        <ele>240.1</ele>
        <time>2021-08-09T08:48:53Z</time>
      </trkpt>
      <trkpt lat="44.51992" lon="1.52441">
        <ele>240.2</ele>
        <time>2021-08-09T08:48:54Z</time>
      </trkpt>
      <trkpt lat="44.51993" lon="1.52446">
        <ele>240.3</ele>
        <time>2021-08-09T08:48:55Z</time>
      </trkpt>
      <trkpt lat="44.51993" lon="1.52451">
        <ele>240.4</ele>
        <time>2021-08-09T08:48:56Z</time>
      </trkpt>
      <trkpt lat="44.51994" lon="1.52456">
        <ele>240.5</ele>
        <time>2021-08-09T08:48:57Z</time>
      </trkpt>
      <trkpt lat="44.51996" lon="1.52464">
        <ele>240.7</ele>
        <time>2021-08-09T08:48:59Z</time>
      </trkpt>
      <trkpt lat="44.51997" lon="1.5247">
        <ele>240.8</ele>
        <time>2021-08-09T08:49:00Z</time>
      </trkpt>
      <trkpt lat="44.51998" lon="1.52476">
        <ele>241</ele>
        <time>2021-08-09T08:49:02Z</time>
      </trkpt>
      <trkpt lat="44.51998" lon="1.52482">
        <ele>241.1</ele>
        <time>2021-08-09T08:49:03Z</time>
      </trkpt>
      <trkpt lat="44.51997" lon="1.52487">
        <ele>241.3</ele>
        <time>2021-08-09T08:49:05Z</time>
      </trkpt>
      <trkpt lat="44.51997" lon="1.52492">
        <ele>241.5</ele>
        <time>2021-08-09T08:49:06Z</time>
      </trkpt>
      <trkpt lat="44.51997" lon="1.52494">
        <ele>241.6</ele>
        <time>2021-08-09T08:49:07Z</time>
      </trkpt>
      <trkpt lat="44.51997" lon="1.52499">
        <ele>241.7</ele>
        <time>2021-08-09T08:49:08Z</time>
      </trkpt>
      <trkpt lat="44.51996" lon="1.52504">
        <ele>241.9</ele>
        <time>2021-08-09T08:49:10Z</time>
      </trkpt>
      <trkpt lat="44.51997" lon="1.52509">
        <ele>242.1</ele>
        <time>2021-08-09T08:49:11Z</time>
      </trkpt>
      <trkpt lat="44.51997" lon="1.52511">
        <ele>242.2</ele>
        <time>2021-08-09T08:49:12Z</time>
      </trkpt>
      <trkpt lat="44.51997" lon="1.52518">
        <ele>242.4</ele>
        <time>2021-08-09T08:49:14Z</time>
      </trkpt>
      <trkpt lat="44.51998" lon="1.52522">
        <ele>242.6</ele>
        <time>2021-08-09T08:49:15Z</time>
      </trkpt>
      <trkpt lat="44.51998" lon="1.52527">
        <ele>242.7</ele>
        <time>2021-08-09T08:49:16Z</time>
      </trkpt>
      <trkpt lat="44.51998" lon="1.52532">
        <ele>242.9</ele>
        <time>2021-08-09T08:49:18Z</time>
      </trkpt>
      <trkpt lat="44.51999" lon="1.52537">
        <ele>243</ele>
        <time>2021-08-09T08:49:19Z</time>
      </trkpt>
      <trkpt lat="44.52" lon="1.5254">
        <ele>243.1</ele>
        <time>2021-08-09T08:49:20Z</time>
      </trkpt>
      <trkpt lat="44.52002" lon="1.52545">
        <ele>243.2</ele>
        <time>2021-08-09T08:49:21Z</time>
      </trkpt>
      <trkpt lat="44.52004" lon="1.52549">
        <ele>243.3</ele>
        <time>2021-08-09T08:49:22Z</time>
      </trkpt>
      <trkpt lat="44.52006" lon="1.52552">
        <ele>243.4</ele>
        <time>2021-08-09T08:49:23Z</time>
      </trkpt>
      <trkpt lat="44.52009" lon="1.52556">
        <ele>243.5</ele>
        <time>2021-08-09T08:49:25Z</time>
      </trkpt>
      <trkpt lat="44.52011" lon="1.52559">
        <ele>243.5</ele>
        <time>2021-08-09T08:49:26Z</time>
      </trkpt>
      <trkpt lat="44.52014" lon="1.52563">
        <ele>243.6</ele>
        <time>2021-08-09T08:49:27Z</time>
      </trkpt>
      <trkpt lat="44.52018" lon="1.52567">
        <ele>243.7</ele>
        <time>2021-08-09T08:49:28Z</time>
      </trkpt>
      <trkpt lat="44.52021" lon="1.52571">
        <ele>243.8</ele>
        <time>2021-08-09T08:49:30Z</time>
      </trkpt>
      <trkpt lat="44.52025" lon="1.52574">
        <ele>243.9</ele>
        <time>2021-08-09T08:49:31Z</time>
      </trkpt>
      <trkpt lat="44.52028" lon="1.52576">
        <ele>244</ele>
        <time>2021-08-09T08:49:32Z</time>
      </trkpt>
      <trkpt lat="44.52031" lon="1.52578">
        <ele>244</ele>
        <time>2021-08-09T08:49:33Z</time>
      </trkpt>
      <trkpt lat="44.52035" lon="1.52582">
        <ele>244.2</ele>
        <time>2021-08-09T08:49:35Z</time>
      </trkpt>
      <trkpt lat="44.52039" lon="1.52585">
        <ele>244.3</ele>
        <time>2021-08-09T08:49:36Z</time>
      </trkpt>
      <trkpt lat="44.52045" lon="1.52589">
        <ele>244.5</ele>
        <time>2021-08-09T08:49:38Z</time>
      </trkpt>
      <trkpt lat="44.52048" lon="1.52592">
        <ele>244.6</ele>
        <time>2021-08-09T08:49:40Z</time>
      </trkpt>
      <trkpt lat="44.52051" lon="1.52594">
        <ele>244.7</ele>
        <time>2021-08-09T08:49:41Z</time>
      </trkpt>
      <trkpt lat="44.52054" lon="1.52597">
        <ele>244.8</ele>
        <time>2021-08-09T08:49:42Z</time>
      </trkpt>
      <trkpt lat="44.52057" lon="1.526">
        <ele>244.9</ele>
        <time>2021-08-09T08:49:44Z</time>
      </trkpt>
      <trkpt lat="44.52061" lon="1.52604">
        <ele>245.1</ele>
        <time>2021-08-09T08:49:45Z</time>
      </trkpt>
      <trkpt lat="44.52065" lon="1.52606">
        <ele>245.2</ele>
        <time>2021-08-09T08:49:46Z</time>
      </trkpt>
      <trkpt lat="44.52069" lon="1.5261">
        <ele>245.4</ele>
        <time>2021-08-09T08:49:48Z</time>
      </trkpt>
      <trkpt lat="44.52073" lon="1.52612">
        <ele>245.5</ele>
        <time>2021-08-09T08:49:49Z</time>
      </trkpt>
      <trkpt lat="44.52076" lon="1.52614">
        <ele>245.6</ele>
        <time>2021-08-09T08:49:50Z</time>
      </trkpt>
      <trkpt lat="44.5208" lon="1.52617">
        <ele>245.8</ele>
        <time>2021-08-09T08:49:51Z</time>
      </trkpt>
      <trkpt lat="44.52081" lon="1.52619">
        <ele>245.8</ele>
        <time>2021-08-09T08:49:52Z</time>
      </trkpt>
      <trkpt lat="44.52084" lon="1.52622">
        <ele>245.9</ele>
        <time>2021-08-09T08:49:54Z</time>
      </trkpt>
      <trkpt lat="44.52087" lon="1.52625">
        <ele>246</ele>
        <time>2021-08-09T08:49:55Z</time>
      </trkpt>
      <trkpt lat="44.52089" lon="1.52627">
        <ele>246.1</ele>
        <time>2021-08-09T08:49:56Z</time>
      </trkpt>
      <trkpt lat="44.52092" lon="1.52629">
        <ele>246.2</ele>
        <time>2021-08-09T08:49:57Z</time>
      </trkpt>
      <trkpt lat="44.52095" lon="1.52632">
        <ele>246.3</ele>
        <time>2021-08-09T08:49:58Z</time>
      </trkpt>
      <trkpt lat="44.52097" lon="1.52634">
        <ele>246.4</ele>
        <time>2021-08-09T08:49:59Z</time>
      </trkpt>
      <trkpt lat="44.52099" lon="1.52635">
        <ele>246.5</ele>
        <time>2021-08-09T08:50:00Z</time>
      </trkpt>
      <trkpt lat="44.52101" lon="1.52637">
        <ele>246.8</ele>
        <time>2021-08-09T08:50:02Z</time>
      </trkpt>
      <trkpt lat="44.52103" lon="1.52638">
        <ele>247</ele>
        <time>2021-08-09T08:50:03Z</time>
      </trkpt>
      <trkpt lat="44.52105" lon="1.52638">
        <ele>247.1</ele>
        <time>2021-08-09T08:50:04Z</time>
      </trkpt>
      <trkpt lat="44.52105" lon="1.52637">
        <ele>247.2</ele>
        <time>2021-08-09T08:50:05Z</time>
      </trkpt>
      <trkpt lat="44.52106" lon="1.52636">
        <ele>247.3</ele>
        <time>2021-08-09T08:50:07Z</time>
      </trkpt>
      <trkpt lat="44.52107" lon="1.52635">
        <ele>247.4</ele>
        <time>2021-08-09T08:50:08Z</time>
      </trkpt>
      <trkpt lat="44.52107" lon="1.52634">
        <ele>247.5</ele>
        <time>2021-08-09T08:50:10Z</time>
      </trkpt>
      <trkpt lat="44.52108" lon="1.52633">
        <ele>247.6</ele>
        <time>2021-08-09T08:50:11Z</time>
      </trkpt>
      <trkpt lat="44.52108" lon="1.52632">
        <ele>247.7</ele>
        <time>2021-08-09T08:50:13Z</time>
      </trkpt>
      <trkpt lat="44.52109" lon="1.52631">
        <ele>247.8</ele>
        <time>2021-08-09T08:53:48Z</time>
      </trkpt>
      <trkpt lat="44.5211" lon="1.5263">
        <ele>247.9</ele>
        <time>2021-08-09T08:53:49Z</time>
      </trkpt>
      <trkpt lat="44.5211" lon="1.52629">
        <ele>248</ele>
        <time>2021-08-09T08:53:50Z</time>
      </trkpt>
      <trkpt lat="44.52114" lon="1.52628">
        <ele>248.4</ele>
        <time>2021-08-09T08:53:52Z</time>
      </trkpt>
      <trkpt lat="44.52114" lon="1.52627">
        <ele>248.4</ele>
        <time>2021-08-09T08:53:53Z</time>
      </trkpt>
      <trkpt lat="44.52117" lon="1.52625">
        <ele>248.8</ele>
        <time>2021-08-09T08:53:55Z</time>
      </trkpt>
      <trkpt lat="44.52121" lon="1.52623">
        <ele>249.2</ele>
        <time>2021-08-09T08:53:56Z</time>
      </trkpt>
      <trkpt lat="44.52124" lon="1.52623">
        <ele>249.5</ele>
        <time>2021-08-09T08:53:57Z</time>
      </trkpt>
      <trkpt lat="44.52127" lon="1.52622">
        <ele>249.9</ele>
        <time>2021-08-09T08:53:58Z</time>
      </trkpt>
      <trkpt lat="44.5213" lon="1.52619">
        <ele>250.2</ele>
        <time>2021-08-09T08:54:00Z</time>
      </trkpt>
      <trkpt lat="44.5213" lon="1.52618">
        <ele>250.3</ele>
        <time>2021-08-09T08:54:01Z</time>
      </trkpt>
      <trkpt lat="44.52129" lon="1.52616">
        <ele>250.4</ele>
        <time>2021-08-09T08:54:02Z</time>
      </trkpt>
      <trkpt lat="44.52129" lon="1.52615">
        <ele>250.6</ele>
        <time>2021-08-09T08:54:04Z</time>
      </trkpt>
      <trkpt lat="44.52129" lon="1.52613">
        <ele>250.7</ele>
        <time>2021-08-09T08:54:05Z</time>
      </trkpt>
      <trkpt lat="44.52128" lon="1.52612">
        <ele>250.8</ele>
        <time>2021-08-09T08:54:07Z</time>
      </trkpt>
      <trkpt lat="44.52128" lon="1.5261">
        <ele>250.9</ele>
        <time>2021-08-09T08:54:08Z</time>
      </trkpt>
      <trkpt lat="44.52128" lon="1.52609">
        <ele>251.6</ele>
        <time>2021-08-09T08:54:40Z</time>
      </trkpt>
      <trkpt lat="44.52127" lon="1.52607">
        <ele>251.6</ele>
        <time>2021-08-09T08:54:41Z</time>
      </trkpt>
      <trkpt lat="44.52127" lon="1.52606">
        <ele>251.6</ele>
        <time>2021-08-09T08:54:43Z</time>
      </trkpt>
      <trkpt lat="44.52127" lon="1.52604">
        <ele>251.5</ele>
        <time>2021-08-09T08:54:44Z</time>
      </trkpt>
      <trkpt lat="44.52122" lon="1.52599">
        <ele>251.4</ele>
        <time>2021-08-09T08:54:46Z</time>
      </trkpt>
      <trkpt lat="44.52119" lon="1.52596">
        <ele>251.3</ele>
        <time>2021-08-09T08:54:47Z</time>
      </trkpt>
      <trkpt lat="44.52118" lon="1.52596">
        <ele>251.3</ele>
        <time>2021-08-09T08:54:48Z</time>
      </trkpt>
      <trkpt lat="44.52115" lon="1.52593">
        <ele>251.2</ele>
        <time>2021-08-09T08:54:49Z</time>
      </trkpt>
      <trkpt lat="44.52114" lon="1.52592">
        <ele>251.2</ele>
        <time>2021-08-09T08:54:50Z</time>
      </trkpt>
      <trkpt lat="44.5211" lon="1.52587">
        <ele>251.1</ele>
        <time>2021-08-09T08:54:52Z</time>
      </trkpt>
      <trkpt lat="44.52107" lon="1.52584">
        <ele>251</ele>
        <time>2021-08-09T08:54:53Z</time>
      </trkpt>
      <trkpt lat="44.52104" lon="1.52581">
        <ele>250.9</ele>
        <time>2021-08-09T08:54:54Z</time>
      </trkpt>
      <trkpt lat="44.52101" lon="1.52576">
        <ele>250.7</ele>
        <time>2021-08-09T08:54:55Z</time>
      </trkpt>
      <trkpt lat="44.52096" lon="1.52572">
        <ele>250.6</ele>
        <time>2021-08-09T08:54:57Z</time>
      </trkpt>
      <trkpt lat="44.52089" lon="1.52568">
        <ele>250.3</ele>
        <time>2021-08-09T08:54:59Z</time>
      </trkpt>
      <trkpt lat="44.52085" lon="1.52565">
        <ele>250.1</ele>
        <time>2021-08-09T08:55:00Z</time>
      </trkpt>
      <trkpt lat="44.5208" lon="1.52562">
        <ele>249.9</ele>
        <time>2021-08-09T08:55:01Z</time>
      </trkpt>
      <trkpt lat="44.52075" lon="1.52559">
        <ele>249.7</ele>
        <time>2021-08-09T08:55:02Z</time>
      </trkpt>
      <trkpt lat="44.52069" lon="1.52555">
        <ele>249.4</ele>
        <time>2021-08-09T08:55:04Z</time>
      </trkpt>
      <trkpt lat="44.52065" lon="1.52553">
        <ele>249.2</ele>
        <time>2021-08-09T08:55:05Z</time>
      </trkpt>
      <trkpt lat="44.5206" lon="1.52551">
        <ele>249</ele>
        <time>2021-08-09T08:55:06Z</time>
      </trkpt>
      <trkpt lat="44.52057" lon="1.52549">
        <ele>248.9</ele>
        <time>2021-08-09T08:55:08Z</time>
      </trkpt>
      <trkpt lat="44.52054" lon="1.52545">
        <ele>248.8</ele>
        <time>2021-08-09T08:55:09Z</time>
      </trkpt>
      <trkpt lat="44.52051" lon="1.52541">
        <ele>248.7</ele>
        <time>2021-08-09T08:55:10Z</time>
      </trkpt>
      <trkpt lat="44.52048" lon="1.52536">
        <ele>248.6</ele>
        <time>2021-08-09T08:55:11Z</time>
      </trkpt>
      <trkpt lat="44.52045" lon="1.5253">
        <ele>248.6</ele>
        <time>2021-08-09T08:55:12Z</time>
      </trkpt>
      <trkpt lat="44.52043" lon="1.52524">
        <ele>248.5</ele>
        <time>2021-08-09T08:55:14Z</time>
      </trkpt>
      <trkpt lat="44.52042" lon="1.5252">
        <ele>248.5</ele>
        <time>2021-08-09T08:55:15Z</time>
      </trkpt>
      <trkpt lat="44.52042" lon="1.52515">
        <ele>248.5</ele>
        <time>2021-08-09T08:55:16Z</time>
      </trkpt>
      <trkpt lat="44.52041" lon="1.52508">
        <ele>248.5</ele>
        <time>2021-08-09T08:55:18Z</time>
      </trkpt>
      <trkpt lat="44.52041" lon="1.52504">
        <ele>248.6</ele>
        <time>2021-08-09T08:55:19Z</time>
      </trkpt>
      <trkpt lat="44.52041" lon="1.52501">
        <ele>248.6</ele>
        <time>2021-08-09T08:55:20Z</time>
      </trkpt>
      <trkpt lat="44.52042" lon="1.52496">
        <ele>248.7</ele>
        <time>2021-08-09T08:55:22Z</time>
      </trkpt>
      <trkpt lat="44.52043" lon="1.52492">
        <ele>248.7</ele>
        <time>2021-08-09T08:55:23Z</time>
      </trkpt>
      <trkpt lat="44.52044" lon="1.52488">
        <ele>248.7</ele>
        <time>2021-08-09T08:55:24Z</time>
      </trkpt>
      <trkpt lat="44.52044" lon="1.52483">
        <ele>248.8</ele>
        <time>2021-08-09T08:55:25Z</time>
      </trkpt>
      <trkpt lat="44.52044" lon="1.52478">
        <ele>248.8</ele>
        <time>2021-08-09T08:55:27Z</time>
      </trkpt>
      <trkpt lat="44.52043" lon="1.52473">
        <ele>248.8</ele>
        <time>2021-08-09T08:55:28Z</time>
      </trkpt>
      <trkpt lat="44.52042" lon="1.52468">
        <ele>248.8</ele>
        <time>2021-08-09T08:55:29Z</time>
      </trkpt>
      <trkpt lat="44.52041" lon="1.52466">
        <ele>248.8</ele>
        <time>2021-08-09T08:55:30Z</time>
      </trkpt>
      <trkpt lat="44.5204" lon="1.52457">
        <ele>248.6</ele>
        <time>2021-08-09T08:55:32Z</time>
      </trkpt>
      <trkpt lat="44.52037" lon="1.5245">
        <ele>248.5</ele>
        <time>2021-08-09T08:55:33Z</time>
      </trkpt>
      <trkpt lat="44.52034" lon="1.5244">
        <ele>248.1</ele>
        <time>2021-08-09T08:55:34Z</time>
      </trkpt>
      <trkpt lat="44.52031" lon="1.52433">
        <ele>247.7</ele>
        <time>2021-08-09T08:55:35Z</time>
      </trkpt>
      <trkpt lat="44.52029" lon="1.52425">
        <ele>247.3</ele>
        <time>2021-08-09T08:55:36Z</time>
      </trkpt>
      <trkpt lat="44.52027" lon="1.52418">
        <ele>246.9</ele>
        <time>2021-08-09T08:55:37Z</time>
      </trkpt>
      <trkpt lat="44.52025" lon="1.5241">
        <ele>246.5</ele>
        <time>2021-08-09T08:55:38Z</time>
      </trkpt>
      <trkpt lat="44.52023" lon="1.52402">
        <ele>246</ele>
        <time>2021-08-09T08:55:39Z</time>
      </trkpt>
      <trkpt lat="44.5202" lon="1.52385">
        <ele>245.2</ele>
        <time>2021-08-09T08:55:41Z</time>
      </trkpt>
      <trkpt lat="44.5202" lon="1.52377">
        <ele>244.9</ele>
        <time>2021-08-09T08:55:42Z</time>
      </trkpt>
      <trkpt lat="44.52018" lon="1.52371">
        <ele>244.6</ele>
        <time>2021-08-09T08:55:43Z</time>
      </trkpt>
      <trkpt lat="44.52015" lon="1.52366">
        <ele>244.4</ele>
        <time>2021-08-09T08:55:44Z</time>
      </trkpt>
      <trkpt lat="44.52013" lon="1.5236">
        <ele>244.2</ele>
        <time>2021-08-09T08:55:45Z</time>
      </trkpt>
      <trkpt lat="44.52011" lon="1.52352">
        <ele>244</ele>
        <time>2021-08-09T08:55:47Z</time>
      </trkpt>
      <trkpt lat="44.5201" lon="1.52352">
        <ele>244</ele>
        <time>2021-08-09T08:55:48Z</time>
      </trkpt>
      <trkpt lat="44.52011" lon="1.52355">
        <ele>243.9</ele>
        <time>2021-08-09T08:55:50Z</time>
      </trkpt>
      <trkpt lat="44.52012" lon="1.52355">
        <ele>243.9</ele>
        <time>2021-08-09T08:55:52Z</time>
      </trkpt>
      <trkpt lat="44.52012" lon="1.52355">
        <ele>243.9</ele>
        <time>2021-08-09T08:55:54Z</time>
      </trkpt>
      <trkpt lat="44.52012" lon="1.52355">
        <ele>243.9</ele>
        <time>2021-08-09T08:55:56Z</time>
      </trkpt>
      <trkpt lat="44.52012" lon="1.52355">
        <ele>243.9</ele>
        <time>2021-08-09T08:55:57Z</time>
      </trkpt>
      <trkpt lat="44.52004" lon="1.52347">
        <ele>243.5</ele>
        <time>2021-08-09T08:56:10Z</time>
      </trkpt>
      <trkpt lat="44.52001" lon="1.52344">
        <ele>243.4</ele>
        <time>2021-08-09T08:56:11Z</time>
      </trkpt>
      <trkpt lat="44.51998" lon="1.52341">
        <ele>243.3</ele>
        <time>2021-08-09T08:56:12Z</time>
      </trkpt>
      <trkpt lat="44.51993" lon="1.52335">
        <ele>243.2</ele>
        <time>2021-08-09T08:56:14Z</time>
      </trkpt>
      <trkpt lat="44.51991" lon="1.52332">
        <ele>243.1</ele>
        <time>2021-08-09T08:56:15Z</time>
      </trkpt>
      <trkpt lat="44.51987" lon="1.52327">
        <ele>242.9</ele>
        <time>2021-08-09T08:56:16Z</time>
      </trkpt>
      <trkpt lat="44.51983" lon="1.52322">
        <ele>242.8</ele>
        <time>2021-08-09T08:56:17Z</time>
      </trkpt>
      <trkpt lat="44.51979" lon="1.52316">
        <ele>242.7</ele>
        <time>2021-08-09T08:56:19Z</time>
      </trkpt>
      <trkpt lat="44.51974" lon="1.5231">
        <ele>242.5</ele>
        <time>2021-08-09T08:56:20Z</time>
      </trkpt>
      <trkpt lat="44.51969" lon="1.52305">
        <ele>242.4</ele>
        <time>2021-08-09T08:56:21Z</time>
      </trkpt>
      <trkpt lat="44.51966" lon="1.52299">
        <ele>242.3</ele>
        <time>2021-08-09T08:56:22Z</time>
      </trkpt>
      <trkpt lat="44.51963" lon="1.52293">
        <ele>242.2</ele>
        <time>2021-08-09T08:56:23Z</time>
      </trkpt>
      <trkpt lat="44.5196" lon="1.52286">
        <ele>242.1</ele>
        <time>2021-08-09T08:56:24Z</time>
      </trkpt>
      <trkpt lat="44.51957" lon="1.52278">
        <ele>242</ele>
        <time>2021-08-09T08:56:26Z</time>
      </trkpt>
      <trkpt lat="44.51953" lon="1.5227">
        <ele>241.9</ele>
        <time>2021-08-09T08:56:27Z</time>
      </trkpt>
      <trkpt lat="44.51946" lon="1.52257">
        <ele>241.8</ele>
        <time>2021-08-09T08:56:29Z</time>
      </trkpt>
      <trkpt lat="44.51941" lon="1.52242">
        <ele>241.7</ele>
        <time>2021-08-09T08:56:31Z</time>
      </trkpt>
      <trkpt lat="44.51938" lon="1.52233">
        <ele>241.6</ele>
        <time>2021-08-09T08:56:32Z</time>
      </trkpt>
      <trkpt lat="44.51931" lon="1.52218">
        <ele>241.3</ele>
        <time>2021-08-09T08:56:34Z</time>
      </trkpt>
      <trkpt lat="44.51926" lon="1.52205">
        <ele>241</ele>
        <time>2021-08-09T08:56:36Z</time>
      </trkpt>
      <trkpt lat="44.5192" lon="1.52191">
        <ele>240.6</ele>
        <time>2021-08-09T08:56:38Z</time>
      </trkpt>
      <trkpt lat="44.51914" lon="1.52176">
        <ele>239.9</ele>
        <time>2021-08-09T08:56:40Z</time>
      </trkpt>
      <trkpt lat="44.51909" lon="1.5216">
        <ele>239.3</ele>
        <time>2021-08-09T08:56:42Z</time>
      </trkpt>
      <trkpt lat="44.51906" lon="1.52152">
        <ele>239.1</ele>
        <time>2021-08-09T08:56:43Z</time>
      </trkpt>
      <trkpt lat="44.51904" lon="1.52145">
        <ele>238.9</ele>
        <time>2021-08-09T08:56:44Z</time>
      </trkpt>
      <trkpt lat="44.519" lon="1.5213">
        <ele>238.6</ele>
        <time>2021-08-09T08:56:46Z</time>
      </trkpt>
      <trkpt lat="44.51898" lon="1.52122">
        <ele>238.5</ele>
        <time>2021-08-09T08:56:47Z</time>
      </trkpt>
      <trkpt lat="44.51895" lon="1.52115">
        <ele>238.5</ele>
        <time>2021-08-09T08:56:48Z</time>
      </trkpt>
      <trkpt lat="44.51893" lon="1.5211">
        <ele>238.5</ele>
        <time>2021-08-09T08:56:49Z</time>
      </trkpt>
      <trkpt lat="44.51891" lon="1.52105">
        <ele>238.5</ele>
        <time>2021-08-09T08:56:50Z</time>
      </trkpt>
      <trkpt lat="44.51886" lon="1.52096">
        <ele>238.5</ele>
        <time>2021-08-09T08:56:52Z</time>
      </trkpt>
      <trkpt lat="44.51882" lon="1.52087">
        <ele>238.5</ele>
        <time>2021-08-09T08:56:54Z</time>
      </trkpt>
      <trkpt lat="44.51877" lon="1.52082">
        <ele>238.4</ele>
        <time>2021-08-09T08:56:55Z</time>
      </trkpt>
      <trkpt lat="44.5187" lon="1.52074">
        <ele>238.1</ele>
        <time>2021-08-09T08:56:57Z</time>
      </trkpt>
      <trkpt lat="44.51865" lon="1.5207">
        <ele>237.8</ele>
        <time>2021-08-09T08:56:58Z</time>
      </trkpt>
      <trkpt lat="44.51861" lon="1.52066">
        <ele>237.5</ele>
        <time>2021-08-09T08:56:59Z</time>
      </trkpt>
      <trkpt lat="44.51855" lon="1.52062">
        <ele>237.1</ele>
        <time>2021-08-09T08:57:00Z</time>
      </trkpt>
      <trkpt lat="44.51843" lon="1.5205">
        <ele>236.3</ele>
        <time>2021-08-09T08:57:02Z</time>
      </trkpt>
      <trkpt lat="44.51833" lon="1.52039">
        <ele>235.9</ele>
        <time>2021-08-09T08:57:04Z</time>
      </trkpt>
      <trkpt lat="44.51828" lon="1.52033">
        <ele>235.7</ele>
        <time>2021-08-09T08:57:05Z</time>
      </trkpt>
      <trkpt lat="44.51817" lon="1.52024">
        <ele>235.2</ele>
        <time>2021-08-09T08:57:07Z</time>
      </trkpt>
      <trkpt lat="44.51812" lon="1.52019">
        <ele>234.9</ele>
        <time>2021-08-09T08:57:08Z</time>
      </trkpt>
      <trkpt lat="44.51801" lon="1.5201">
        <ele>234.5</ele>
        <time>2021-08-09T08:57:10Z</time>
      </trkpt>
      <trkpt lat="44.51796" lon="1.52006">
        <ele>234.2</ele>
        <time>2021-08-09T08:57:11Z</time>
      </trkpt>
      <trkpt lat="44.5179" lon="1.52003">
        <ele>233.9</ele>
        <time>2021-08-09T08:57:12Z</time>
      </trkpt>
      <trkpt lat="44.51778" lon="1.51997">
        <ele>233.1</ele>
        <time>2021-08-09T08:57:14Z</time>
      </trkpt>
      <trkpt lat="44.51764" lon="1.51993">
        <ele>232.3</ele>
        <time>2021-08-09T08:57:16Z</time>
      </trkpt>
      <trkpt lat="44.51749" lon="1.5199">
        <ele>231.5</ele>
        <time>2021-08-09T08:57:18Z</time>
      </trkpt>
      <trkpt lat="44.51743" lon="1.51988">
        <ele>231.2</ele>
        <time>2021-08-09T08:57:19Z</time>
      </trkpt>
      <trkpt lat="44.51736" lon="1.51985">
        <ele>230.8</ele>
        <time>2021-08-09T08:57:20Z</time>
      </trkpt>
      <trkpt lat="44.51725" lon="1.51976">
        <ele>230.2</ele>
        <time>2021-08-09T08:57:22Z</time>
      </trkpt>
      <trkpt lat="44.51715" lon="1.51968">
        <ele>229.6</ele>
        <time>2021-08-09T08:57:24Z</time>
      </trkpt>
      <trkpt lat="44.5171" lon="1.51964">
        <ele>229.4</ele>
        <time>2021-08-09T08:57:25Z</time>
      </trkpt>
      <trkpt lat="44.51706" lon="1.51959">
        <ele>229.2</ele>
        <time>2021-08-09T08:57:26Z</time>
      </trkpt>
      <trkpt lat="44.51697" lon="1.51951">
        <ele>228.7</ele>
        <time>2021-08-09T08:57:28Z</time>
      </trkpt>
      <trkpt lat="44.51692" lon="1.51943">
        <ele>228.3</ele>
        <time>2021-08-09T08:57:30Z</time>
      </trkpt>
      <trkpt lat="44.5169" lon="1.51939">
        <ele>228.1</ele>
        <time>2021-08-09T08:57:31Z</time>
      </trkpt>
      <trkpt lat="44.51689" lon="1.51937">
        <ele>228</ele>
        <time>2021-08-09T08:57:32Z</time>
      </trkpt>
      <trkpt lat="44.5169" lon="1.51928">
        <ele>227.6</ele>
        <time>2021-08-09T08:57:34Z</time>
      </trkpt>
      <trkpt lat="44.5169" lon="1.51924">
        <ele>227.4</ele>
        <time>2021-08-09T08:57:35Z</time>
      </trkpt>
      <trkpt lat="44.51692" lon="1.51919">
        <ele>227.2</ele>
        <time>2021-08-09T08:57:36Z</time>
      </trkpt>
      <trkpt lat="44.51693" lon="1.51918">
        <ele>227.2</ele>
        <time>2021-08-09T08:57:37Z</time>
      </trkpt>
      <trkpt lat="44.51697" lon="1.51914">
        <ele>227.4</ele>
        <time>2021-08-09T08:57:39Z</time>
      </trkpt>
      <trkpt lat="44.51698" lon="1.51912">
        <ele>227.4</ele>
        <time>2021-08-09T08:57:40Z</time>
      </trkpt>
      <trkpt lat="44.517" lon="1.5191">
        <ele>227.5</ele>
        <time>2021-08-09T08:57:41Z</time>
      </trkpt>
      <trkpt lat="44.51702" lon="1.51908">
        <ele>227.6</ele>
        <time>2021-08-09T08:57:43Z</time>
      </trkpt>
      <trkpt lat="44.51705" lon="1.51905">
        <ele>227.8</ele>
        <time>2021-08-09T08:57:44Z</time>
      </trkpt>
      <trkpt lat="44.51708" lon="1.51902">
        <ele>227.9</ele>
        <time>2021-08-09T08:57:45Z</time>
      </trkpt>
      <trkpt lat="44.51711" lon="1.51898">
        <ele>228.1</ele>
        <time>2021-08-09T08:57:46Z</time>
      </trkpt>
      <trkpt lat="44.51714" lon="1.51894">
        <ele>228.3</ele>
        <time>2021-08-09T08:57:48Z</time>
      </trkpt>
      <trkpt lat="44.51717" lon="1.51891">
        <ele>228.5</ele>
        <time>2021-08-09T08:57:49Z</time>
      </trkpt>
      <trkpt lat="44.51721" lon="1.51887">
        <ele>228.7</ele>
        <time>2021-08-09T08:57:51Z</time>
      </trkpt>
      <trkpt lat="44.51723" lon="1.51884">
        <ele>228.9</ele>
        <time>2021-08-09T08:57:52Z</time>
      </trkpt>
      <trkpt lat="44.51726" lon="1.51881">
        <ele>229.1</ele>
        <time>2021-08-09T08:57:53Z</time>
      </trkpt>
      <trkpt lat="44.51729" lon="1.51877">
        <ele>229.3</ele>
        <time>2021-08-09T08:57:54Z</time>
      </trkpt>
      <trkpt lat="44.51732" lon="1.51874">
        <ele>229.6</ele>
        <time>2021-08-09T08:57:55Z</time>
      </trkpt>
      <trkpt lat="44.51736" lon="1.51869">
        <ele>229.9</ele>
        <time>2021-08-09T08:57:57Z</time>
      </trkpt>
      <trkpt lat="44.5174" lon="1.51866">
        <ele>230.2</ele>
        <time>2021-08-09T08:57:58Z</time>
      </trkpt>
      <trkpt lat="44.51745" lon="1.51861">
        <ele>230.7</ele>
        <time>2021-08-09T08:58:00Z</time>
      </trkpt>
      <trkpt lat="44.51748" lon="1.51858">
        <ele>230.9</ele>
        <time>2021-08-09T08:58:01Z</time>
      </trkpt>
      <trkpt lat="44.51751" lon="1.51855">
        <ele>231.2</ele>
        <time>2021-08-09T08:58:02Z</time>
      </trkpt>
      <trkpt lat="44.51754" lon="1.51852">
        <ele>231.4</ele>
        <time>2021-08-09T08:58:04Z</time>
      </trkpt>
      <trkpt lat="44.51754" lon="1.51851">
        <ele>231.5</ele>
        <time>2021-08-09T08:58:05Z</time>
      </trkpt>
      <trkpt lat="44.51758" lon="1.51849">
        <ele>231.8</ele>
        <time>2021-08-09T08:58:07Z</time>
      </trkpt>
      <trkpt lat="44.5176" lon="1.51847">
        <ele>232</ele>
        <time>2021-08-09T08:58:08Z</time>
      </trkpt>
      <trkpt lat="44.51762" lon="1.51844">
        <ele>232.2</ele>
        <time>2021-08-09T08:58:09Z</time>
      </trkpt>
      <trkpt lat="44.51765" lon="1.51841">
        <ele>232.4</ele>
        <time>2021-08-09T08:58:10Z</time>
      </trkpt>
      <trkpt lat="44.51766" lon="1.5184">
        <ele>232.5</ele>
        <time>2021-08-09T08:58:11Z</time>
      </trkpt>
      <trkpt lat="44.51769" lon="1.51837">
        <ele>232.8</ele>
        <time>2021-08-09T08:58:13Z</time>
      </trkpt>
      <trkpt lat="44.51771" lon="1.51835">
        <ele>233</ele>
        <time>2021-08-09T08:58:14Z</time>
      </trkpt>
      <trkpt lat="44.51774" lon="1.51833">
        <ele>233.2</ele>
        <time>2021-08-09T08:58:15Z</time>
      </trkpt>
      <trkpt lat="44.51776" lon="1.51831">
        <ele>233.4</ele>
        <time>2021-08-09T08:58:16Z</time>
      </trkpt>
      <trkpt lat="44.51779" lon="1.51827">
        <ele>233.8</ele>
        <time>2021-08-09T08:58:18Z</time>
      </trkpt>
      <trkpt lat="44.51782" lon="1.51824">
        <ele>234</ele>
        <time>2021-08-09T08:58:19Z</time>
      </trkpt>
      <trkpt lat="44.51783" lon="1.51823">
        <ele>234.2</ele>
        <time>2021-08-09T08:58:20Z</time>
      </trkpt>
      <trkpt lat="44.51786" lon="1.51821">
        <ele>234.4</ele>
        <time>2021-08-09T08:58:22Z</time>
      </trkpt>
      <trkpt lat="44.51788" lon="1.51821">
        <ele>234.6</ele>
        <time>2021-08-09T08:58:23Z</time>
      </trkpt>
      <trkpt lat="44.51788" lon="1.51821">
        <ele>234.6</ele>
        <time>2021-08-09T08:58:24Z</time>
      </trkpt>
      <trkpt lat="44.51789" lon="1.5182">
        <ele>234.7</ele>
        <time>2021-08-09T08:58:25Z</time>
      </trkpt>
      <trkpt lat="44.51789" lon="1.5182">
        <ele>234.7</ele>
        <time>2021-08-09T08:58:26Z</time>
      </trkpt>
      <trkpt lat="44.5179" lon="1.5182">
        <ele>234.8</ele>
        <time>2021-08-09T08:58:28Z</time>
      </trkpt>
      <trkpt lat="44.5179" lon="1.5182">
        <ele>234.8</ele>
        <time>2021-08-09T08:58:29Z</time>
      </trkpt>
      <trkpt lat="44.51793" lon="1.5182">
        <ele>235.1</ele>
        <time>2021-08-09T08:58:31Z</time>
      </trkpt>
      <trkpt lat="44.51796" lon="1.51821">
        <ele>235.4</ele>
        <time>2021-08-09T08:58:32Z</time>
      </trkpt>
      <trkpt lat="44.518" lon="1.51821">
        <ele>235.7</ele>
        <time>2021-08-09T08:58:33Z</time>
      </trkpt>
      <trkpt lat="44.51805" lon="1.5182">
        <ele>236.2</ele>
        <time>2021-08-09T08:58:35Z</time>
      </trkpt>
      <trkpt lat="44.51809" lon="1.5182">
        <ele>236.5</ele>
        <time>2021-08-09T08:58:36Z</time>
      </trkpt>
      <trkpt lat="44.51813" lon="1.5182">
        <ele>236.9</ele>
        <time>2021-08-09T08:58:38Z</time>
      </trkpt>
      <trkpt lat="44.51816" lon="1.51821">
        <ele>237.2</ele>
        <time>2021-08-09T08:58:39Z</time>
      </trkpt>
      <trkpt lat="44.51819" lon="1.51821">
        <ele>237.4</ele>
        <time>2021-08-09T08:58:40Z</time>
      </trkpt>
      <trkpt lat="44.51824" lon="1.51822">
        <ele>237.8</ele>
        <time>2021-08-09T08:58:42Z</time>
      </trkpt>
      <trkpt lat="44.51826" lon="1.51822">
        <ele>237.9</ele>
        <time>2021-08-09T08:58:43Z</time>
      </trkpt>
      <trkpt lat="44.51828" lon="1.51822">
        <ele>238</ele>
        <time>2021-08-09T08:58:44Z</time>
      </trkpt>
      <trkpt lat="44.51833" lon="1.51822">
        <ele>238.3</ele>
        <time>2021-08-09T08:58:46Z</time>
      </trkpt>
      <trkpt lat="44.51836" lon="1.51822">
        <ele>238.5</ele>
        <time>2021-08-09T08:58:47Z</time>
      </trkpt>
      <trkpt lat="44.5184" lon="1.51822">
        <ele>238.7</ele>
        <time>2021-08-09T08:58:49Z</time>
      </trkpt>
      <trkpt lat="44.51843" lon="1.51822">
        <ele>238.9</ele>
        <time>2021-08-09T08:58:50Z</time>
      </trkpt>
      <trkpt lat="44.51847" lon="1.51822">
        <ele>239.2</ele>
        <time>2021-08-09T08:58:52Z</time>
      </trkpt>
      <trkpt lat="44.51851" lon="1.51821">
        <ele>239.4</ele>
        <time>2021-08-09T08:58:53Z</time>
      </trkpt>
      <trkpt lat="44.51853" lon="1.51821">
        <ele>239.6</ele>
        <time>2021-08-09T08:58:54Z</time>
      </trkpt>
      <trkpt lat="44.51857" lon="1.51821">
        <ele>239.9</ele>
        <time>2021-08-09T08:58:56Z</time>
      </trkpt>
      <trkpt lat="44.51858" lon="1.51821">
        <ele>239.9</ele>
        <time>2021-08-09T08:58:57Z</time>
      </trkpt>
      <trkpt lat="44.51861" lon="1.51822">
        <ele>240.2</ele>
        <time>2021-08-09T08:58:58Z</time>
      </trkpt>
      <trkpt lat="44.51863" lon="1.51822">
        <ele>240.3</ele>
        <time>2021-08-09T08:58:59Z</time>
      </trkpt>
      <trkpt lat="44.51866" lon="1.51822">
        <ele>240.6</ele>
        <time>2021-08-09T08:59:01Z</time>
      </trkpt>
      <trkpt lat="44.51868" lon="1.51822">
        <ele>240.7</ele>
        <time>2021-08-09T08:59:02Z</time>
      </trkpt>
      <trkpt lat="44.51869" lon="1.51823">
        <ele>240.8</ele>
        <time>2021-08-09T08:59:03Z</time>
      </trkpt>
      <trkpt lat="44.51872" lon="1.51824">
        <ele>241.1</ele>
        <time>2021-08-09T08:59:05Z</time>
      </trkpt>
      <trkpt lat="44.51875" lon="1.51825">
        <ele>241.3</ele>
        <time>2021-08-09T08:59:07Z</time>
      </trkpt>
      <trkpt lat="44.51879" lon="1.51826">
        <ele>241.6</ele>
        <time>2021-08-09T08:59:08Z</time>
      </trkpt>
      <trkpt lat="44.51882" lon="1.51827">
        <ele>241.8</ele>
        <time>2021-08-09T08:59:09Z</time>
      </trkpt>
      <trkpt lat="44.51885" lon="1.51827">
        <ele>242.2</ele>
        <time>2021-08-09T08:59:11Z</time>
      </trkpt>
      <trkpt lat="44.51889" lon="1.51827">
        <ele>242.5</ele>
        <time>2021-08-09T08:59:12Z</time>
      </trkpt>
      <trkpt lat="44.5189" lon="1.51827">
        <ele>242.6</ele>
        <time>2021-08-09T08:59:13Z</time>
      </trkpt>
      <trkpt lat="44.51892" lon="1.51828">
        <ele>242.8</ele>
        <time>2021-08-09T08:59:14Z</time>
      </trkpt>
      <trkpt lat="44.51896" lon="1.51829">
        <ele>243.2</ele>
        <time>2021-08-09T08:59:16Z</time>
      </trkpt>
      <trkpt lat="44.51899" lon="1.51831">
        <ele>243.6</ele>
        <time>2021-08-09T08:59:18Z</time>
      </trkpt>
      <trkpt lat="44.51903" lon="1.51831">
        <ele>244</ele>
        <time>2021-08-09T08:59:20Z</time>
      </trkpt>
      <trkpt lat="44.51905" lon="1.51832">
        <ele>244.2</ele>
        <time>2021-08-09T08:59:21Z</time>
      </trkpt>
      <trkpt lat="44.51909" lon="1.51833">
        <ele>244.6</ele>
        <time>2021-08-09T08:59:23Z</time>
      </trkpt>
      <trkpt lat="44.51912" lon="1.51835">
        <ele>245</ele>
        <time>2021-08-09T08:59:24Z</time>
      </trkpt>
      <trkpt lat="44.51913" lon="1.51835">
        <ele>245</ele>
        <time>2021-08-09T08:59:25Z</time>
      </trkpt>
      <trkpt lat="44.51915" lon="1.51836">
        <ele>245.3</ele>
        <time>2021-08-09T08:59:26Z</time>
      </trkpt>
      <trkpt lat="44.51917" lon="1.51837">
        <ele>245.5</ele>
        <time>2021-08-09T08:59:28Z</time>
      </trkpt>
      <trkpt lat="44.51921" lon="1.51837">
        <ele>245.8</ele>
        <time>2021-08-09T08:59:29Z</time>
      </trkpt>
      <trkpt lat="44.51922" lon="1.51837">
        <ele>245.9</ele>
        <time>2021-08-09T08:59:30Z</time>
      </trkpt>
      <trkpt lat="44.51927" lon="1.51835">
        <ele>246.2</ele>
        <time>2021-08-09T08:59:32Z</time>
      </trkpt>
      <trkpt lat="44.51928" lon="1.51835">
        <ele>246.3</ele>
        <time>2021-08-09T08:59:33Z</time>
      </trkpt>
      <trkpt lat="44.51929" lon="1.51834">
        <ele>246.4</ele>
        <time>2021-08-09T08:59:34Z</time>
      </trkpt>
      <trkpt lat="44.51933" lon="1.51833">
        <ele>246.6</ele>
        <time>2021-08-09T08:59:35Z</time>
      </trkpt>
      <trkpt lat="44.51935" lon="1.51833">
        <ele>246.7</ele>
        <time>2021-08-09T08:59:36Z</time>
      </trkpt>
      <trkpt lat="44.51938" lon="1.51831">
        <ele>246.9</ele>
        <time>2021-08-09T08:59:38Z</time>
      </trkpt>
      <trkpt lat="44.5194" lon="1.5183">
        <ele>247</ele>
        <time>2021-08-09T08:59:39Z</time>
      </trkpt>
      <trkpt lat="44.51942" lon="1.51829">
        <ele>247.2</ele>
        <time>2021-08-09T08:59:40Z</time>
      </trkpt>
      <trkpt lat="44.51946" lon="1.51827">
        <ele>247.4</ele>
        <time>2021-08-09T08:59:41Z</time>
      </trkpt>
      <trkpt lat="44.51947" lon="1.51826">
        <ele>247.4</ele>
        <time>2021-08-09T08:59:42Z</time>
      </trkpt>
      <trkpt lat="44.51951" lon="1.51824">
        <ele>247.7</ele>
        <time>2021-08-09T08:59:43Z</time>
      </trkpt>
      <trkpt lat="44.51955" lon="1.51822">
        <ele>247.9</ele>
        <time>2021-08-09T08:59:45Z</time>
      </trkpt>
      <trkpt lat="44.51958" lon="1.51821">
        <ele>248.2</ele>
        <time>2021-08-09T08:59:46Z</time>
      </trkpt>
      <trkpt lat="44.51961" lon="1.5182">
        <ele>248.4</ele>
        <time>2021-08-09T08:59:47Z</time>
      </trkpt>
      <trkpt lat="44.51966" lon="1.51819">
        <ele>248.8</ele>
        <time>2021-08-09T08:59:49Z</time>
      </trkpt>
      <trkpt lat="44.5197" lon="1.51817">
        <ele>249</ele>
        <time>2021-08-09T08:59:50Z</time>
      </trkpt>
      <trkpt lat="44.51973" lon="1.51816">
        <ele>249.3</ele>
        <time>2021-08-09T08:59:51Z</time>
      </trkpt>
      <trkpt lat="44.51978" lon="1.51813">
        <ele>249.6</ele>
        <time>2021-08-09T08:59:53Z</time>
      </trkpt>
      <trkpt lat="44.51983" lon="1.51811">
        <ele>250</ele>
        <time>2021-08-09T08:59:55Z</time>
      </trkpt>
      <trkpt lat="44.51986" lon="1.51809">
        <ele>250.2</ele>
        <time>2021-08-09T08:59:56Z</time>
      </trkpt>
      <trkpt lat="44.5199" lon="1.51807">
        <ele>250.4</ele>
        <time>2021-08-09T08:59:58Z</time>
      </trkpt>
      <trkpt lat="44.51993" lon="1.51805">
        <ele>250.7</ele>
        <time>2021-08-09T08:59:59Z</time>
      </trkpt>
      <trkpt lat="44.51997" lon="1.51802">
        <ele>251</ele>
        <time>2021-08-09T09:00:00Z</time>
      </trkpt>
      <trkpt lat="44.52" lon="1.51799">
        <ele>251.2</ele>
        <time>2021-08-09T09:00:01Z</time>
      </trkpt>
      <trkpt lat="44.52003" lon="1.51797">
        <ele>251.4</ele>
        <time>2021-08-09T09:00:02Z</time>
      </trkpt>
      <trkpt lat="44.52007" lon="1.51793">
        <ele>251.8</ele>
        <time>2021-08-09T09:00:04Z</time>
      </trkpt>
      <trkpt lat="44.52012" lon="1.5179">
        <ele>252</ele>
        <time>2021-08-09T09:00:05Z</time>
      </trkpt>
      <trkpt lat="44.52015" lon="1.51787">
        <ele>252.3</ele>
        <time>2021-08-09T09:00:06Z</time>
      </trkpt>
      <trkpt lat="44.5202" lon="1.51783">
        <ele>252.6</ele>
        <time>2021-08-09T09:00:08Z</time>
      </trkpt>
      <trkpt lat="44.52024" lon="1.5178">
        <ele>252.9</ele>
        <time>2021-08-09T09:00:09Z</time>
      </trkpt>
      <trkpt lat="44.52027" lon="1.51777">
        <ele>253.2</ele>
        <time>2021-08-09T09:00:10Z</time>
      </trkpt>
      <trkpt lat="44.5203" lon="1.51773">
        <ele>253.6</ele>
        <time>2021-08-09T09:00:11Z</time>
      </trkpt>
      <trkpt lat="44.52033" lon="1.5177">
        <ele>253.9</ele>
        <time>2021-08-09T09:00:12Z</time>
      </trkpt>
      <trkpt lat="44.52038" lon="1.51766">
        <ele>254.3</ele>
        <time>2021-08-09T09:00:14Z</time>
      </trkpt>
      <trkpt lat="44.52041" lon="1.51764">
        <ele>254.7</ele>
        <time>2021-08-09T09:00:15Z</time>
      </trkpt>
      <trkpt lat="44.52044" lon="1.51762">
        <ele>255</ele>
        <time>2021-08-09T09:00:16Z</time>
      </trkpt>
      <trkpt lat="44.52048" lon="1.5176">
        <ele>255.5</ele>
        <time>2021-08-09T09:00:17Z</time>
      </trkpt>
      <trkpt lat="44.52052" lon="1.51759">
        <ele>255.9</ele>
        <time>2021-08-09T09:00:18Z</time>
      </trkpt>
      <trkpt lat="44.52056" lon="1.51757">
        <ele>256.4</ele>
        <time>2021-08-09T09:00:20Z</time>
      </trkpt>
      <trkpt lat="44.52061" lon="1.51755">
        <ele>256.9</ele>
        <time>2021-08-09T09:00:22Z</time>
      </trkpt>
      <trkpt lat="44.52064" lon="1.51754">
        <ele>257.3</ele>
        <time>2021-08-09T09:00:23Z</time>
      </trkpt>
      <trkpt lat="44.52068" lon="1.51752">
        <ele>257.7</ele>
        <time>2021-08-09T09:00:25Z</time>
      </trkpt>
      <trkpt lat="44.5207" lon="1.51751">
        <ele>258</ele>
        <time>2021-08-09T09:00:26Z</time>
      </trkpt>
      <trkpt lat="44.52074" lon="1.51749">
        <ele>258.4</ele>
        <time>2021-08-09T09:00:27Z</time>
      </trkpt>
      <trkpt lat="44.52078" lon="1.51746">
        <ele>258.9</ele>
        <time>2021-08-09T09:00:29Z</time>
      </trkpt>
      <trkpt lat="44.5208" lon="1.51745">
        <ele>259.2</ele>
        <time>2021-08-09T09:00:30Z</time>
      </trkpt>
      <trkpt lat="44.52083" lon="1.51743">
        <ele>259.6</ele>
        <time>2021-08-09T09:00:31Z</time>
      </trkpt>
      <trkpt lat="44.52085" lon="1.51741">
        <ele>259.9</ele>
        <time>2021-08-09T09:00:32Z</time>
      </trkpt>
      <trkpt lat="44.52089" lon="1.51739">
        <ele>260.4</ele>
        <time>2021-08-09T09:00:34Z</time>
      </trkpt>
      <trkpt lat="44.52092" lon="1.51739">
        <ele>260.8</ele>
        <time>2021-08-09T09:00:35Z</time>
      </trkpt>
      <trkpt lat="44.52095" lon="1.51738">
        <ele>261.2</ele>
        <time>2021-08-09T09:00:36Z</time>
      </trkpt>
      <trkpt lat="44.52099" lon="1.51737">
        <ele>261.4</ele>
        <time>2021-08-09T09:00:38Z</time>
      </trkpt>
      <trkpt lat="44.52102" lon="1.51736">
        <ele>261.6</ele>
        <time>2021-08-09T09:00:39Z</time>
      </trkpt>
      <trkpt lat="44.52106" lon="1.51734">
        <ele>261.9</ele>
        <time>2021-08-09T09:00:41Z</time>
      </trkpt>
      <trkpt lat="44.5211" lon="1.51733">
        <ele>262.2</ele>
        <time>2021-08-09T09:00:42Z</time>
      </trkpt>
      <trkpt lat="44.52111" lon="1.51733">
        <ele>262.3</ele>
        <time>2021-08-09T09:00:43Z</time>
      </trkpt>
      <trkpt lat="44.52115" lon="1.51733">
        <ele>262.5</ele>
        <time>2021-08-09T09:00:45Z</time>
      </trkpt>
      <trkpt lat="44.52117" lon="1.51733">
        <ele>262.7</ele>
        <time>2021-08-09T09:00:46Z</time>
      </trkpt>
      <trkpt lat="44.52121" lon="1.51731">
        <ele>262.9</ele>
        <time>2021-08-09T09:00:48Z</time>
      </trkpt>
      <trkpt lat="44.52124" lon="1.5173">
        <ele>263.1</ele>
        <time>2021-08-09T09:00:49Z</time>
      </trkpt>
      <trkpt lat="44.52127" lon="1.51729">
        <ele>263.3</ele>
        <time>2021-08-09T09:00:50Z</time>
      </trkpt>
      <trkpt lat="44.52131" lon="1.51728">
        <ele>263.5</ele>
        <time>2021-08-09T09:00:52Z</time>
      </trkpt>
      <trkpt lat="44.52134" lon="1.51727">
        <ele>263.7</ele>
        <time>2021-08-09T09:00:53Z</time>
      </trkpt>
      <trkpt lat="44.52138" lon="1.51727">
        <ele>264</ele>
        <time>2021-08-09T09:00:55Z</time>
      </trkpt>
      <trkpt lat="44.52141" lon="1.51727">
        <ele>264.1</ele>
        <time>2021-08-09T09:00:56Z</time>
      </trkpt>
      <trkpt lat="44.52144" lon="1.51727">
        <ele>264.3</ele>
        <time>2021-08-09T09:00:57Z</time>
      </trkpt>
      <trkpt lat="44.52145" lon="1.51728">
        <ele>264.3</ele>
        <time>2021-08-09T09:00:58Z</time>
      </trkpt>
      <trkpt lat="44.52149" lon="1.51729">
        <ele>264.5</ele>
        <time>2021-08-09T09:01:00Z</time>
      </trkpt>
      <trkpt lat="44.52152" lon="1.51729">
        <ele>264.5</ele>
        <time>2021-08-09T09:01:01Z</time>
      </trkpt>
      <trkpt lat="44.52154" lon="1.51729">
        <ele>264.5</ele>
        <time>2021-08-09T09:01:02Z</time>
      </trkpt>
      <trkpt lat="44.52157" lon="1.51729">
        <ele>264.4</ele>
        <time>2021-08-09T09:01:04Z</time>
      </trkpt>
      <trkpt lat="44.52158" lon="1.51728">
        <ele>264.4</ele>
        <time>2021-08-09T09:01:05Z</time>
      </trkpt>
      <trkpt lat="44.52159" lon="1.51727">
        <ele>264.3</ele>
        <time>2021-08-09T09:01:07Z</time>
      </trkpt>
      <trkpt lat="44.5216" lon="1.51727">
        <ele>264.3</ele>
        <time>2021-08-09T09:01:08Z</time>
      </trkpt>
      <trkpt lat="44.52161" lon="1.51726">
        <ele>264.2</ele>
        <time>2021-08-09T09:01:10Z</time>
      </trkpt>
      <trkpt lat="44.52162" lon="1.51725">
        <ele>264.1</ele>
        <time>2021-08-09T09:01:12Z</time>
      </trkpt>
      <trkpt lat="44.52164" lon="1.51724">
        <ele>264.1</ele>
        <time>2021-08-09T09:01:13Z</time>
      </trkpt>
      <trkpt lat="44.52165" lon="1.51723">
        <ele>264</ele>
        <time>2021-08-09T09:01:14Z</time>
      </trkpt>
      <trkpt lat="44.52169" lon="1.5172">
        <ele>263.6</ele>
        <time>2021-08-09T09:01:15Z</time>
      </trkpt>
      <trkpt lat="44.52173" lon="1.51717">
        <ele>263.1</ele>
        <time>2021-08-09T09:01:17Z</time>
      </trkpt>
      <trkpt lat="44.52177" lon="1.51715">
        <ele>262.7</ele>
        <time>2021-08-09T09:01:18Z</time>
      </trkpt>
      <trkpt lat="44.52181" lon="1.51712">
        <ele>262.3</ele>
        <time>2021-08-09T09:01:19Z</time>
      </trkpt>
      <trkpt lat="44.52185" lon="1.5171">
        <ele>261.9</ele>
        <time>2021-08-09T09:01:20Z</time>
      </trkpt>
      <trkpt lat="44.5219" lon="1.51708">
        <ele>261.4</ele>
        <time>2021-08-09T09:01:21Z</time>
      </trkpt>
      <trkpt lat="44.52197" lon="1.51705">
        <ele>261</ele>
        <time>2021-08-09T09:01:23Z</time>
      </trkpt>
      <trkpt lat="44.52202" lon="1.51703">
        <ele>260.7</ele>
        <time>2021-08-09T09:01:24Z</time>
      </trkpt>
      <trkpt lat="44.52205" lon="1.51702">
        <ele>260.6</ele>
        <time>2021-08-09T09:01:25Z</time>
      </trkpt>
      <trkpt lat="44.52208" lon="1.51701">
        <ele>260.5</ele>
        <time>2021-08-09T09:01:26Z</time>
      </trkpt>
      <trkpt lat="44.52211" lon="1.51699">
        <ele>260.3</ele>
        <time>2021-08-09T09:01:27Z</time>
      </trkpt>
      <trkpt lat="44.52215" lon="1.51697">
        <ele>260.2</ele>
        <time>2021-08-09T09:01:29Z</time>
      </trkpt>
      <trkpt lat="44.52218" lon="1.51695">
        <ele>260.1</ele>
        <time>2021-08-09T09:01:30Z</time>
      </trkpt>
      <trkpt lat="44.52221" lon="1.51694">
        <ele>260</ele>
        <time>2021-08-09T09:01:31Z</time>
      </trkpt>
      <trkpt lat="44.52223" lon="1.51693">
        <ele>259.9</ele>
        <time>2021-08-09T09:01:32Z</time>
      </trkpt>
      <trkpt lat="44.52226" lon="1.51692">
        <ele>259.8</ele>
        <time>2021-08-09T09:01:33Z</time>
      </trkpt>
      <trkpt lat="44.52229" lon="1.51691">
        <ele>259.7</ele>
        <time>2021-08-09T09:01:34Z</time>
      </trkpt>
      <trkpt lat="44.52231" lon="1.51689">
        <ele>259.6</ele>
        <time>2021-08-09T09:01:36Z</time>
      </trkpt>
      <trkpt lat="44.52234" lon="1.51688">
        <ele>259.5</ele>
        <time>2021-08-09T09:01:37Z</time>
      </trkpt>
      <trkpt lat="44.52238" lon="1.51686">
        <ele>259.4</ele>
        <time>2021-08-09T09:01:38Z</time>
      </trkpt>
      <trkpt lat="44.52239" lon="1.51685">
        <ele>259.4</ele>
        <time>2021-08-09T09:01:39Z</time>
      </trkpt>
      <trkpt lat="44.52243" lon="1.51682">
        <ele>259.3</ele>
        <time>2021-08-09T09:01:40Z</time>
      </trkpt>
      <trkpt lat="44.52244" lon="1.51682">
        <ele>259.3</ele>
        <time>2021-08-09T09:01:41Z</time>
      </trkpt>
      <trkpt lat="44.52246" lon="1.51678">
        <ele>259.2</ele>
        <time>2021-08-09T09:01:43Z</time>
      </trkpt>
      <trkpt lat="44.52247" lon="1.51677">
        <ele>259.2</ele>
        <time>2021-08-09T09:01:44Z</time>
      </trkpt>
      <trkpt lat="44.5225" lon="1.51675">
        <ele>259.1</ele>
        <time>2021-08-09T09:01:45Z</time>
      </trkpt>
      <trkpt lat="44.52253" lon="1.51672">
        <ele>259.1</ele>
        <time>2021-08-09T09:01:47Z</time>
      </trkpt>
      <trkpt lat="44.52253" lon="1.5167">
        <ele>259.1</ele>
        <time>2021-08-09T09:01:48Z</time>
      </trkpt>
      <trkpt lat="44.52256" lon="1.51667">
        <ele>259.1</ele>
        <time>2021-08-09T09:01:49Z</time>
      </trkpt>
      <trkpt lat="44.5226" lon="1.51663">
        <ele>259.1</ele>
        <time>2021-08-09T09:01:51Z</time>
      </trkpt>
      <trkpt lat="44.52263" lon="1.51661">
        <ele>259.1</ele>
        <time>2021-08-09T09:01:52Z</time>
      </trkpt>
      <trkpt lat="44.52264" lon="1.5166">
        <ele>259.1</ele>
        <time>2021-08-09T09:01:53Z</time>
      </trkpt>
      <trkpt lat="44.52267" lon="1.51656">
        <ele>259.1</ele>
        <time>2021-08-09T09:01:55Z</time>
      </trkpt>
      <trkpt lat="44.52268" lon="1.51653">
        <ele>259.1</ele>
        <time>2021-08-09T09:01:56Z</time>
      </trkpt>
      <trkpt lat="44.5227" lon="1.51649">
        <ele>259.1</ele>
        <time>2021-08-09T09:01:58Z</time>
      </trkpt>
      <trkpt lat="44.52274" lon="1.51645">
        <ele>259.2</ele>
        <time>2021-08-09T09:01:59Z</time>
      </trkpt>
      <trkpt lat="44.52275" lon="1.51644">
        <ele>259.2</ele>
        <time>2021-08-09T09:02:00Z</time>
      </trkpt>
      <trkpt lat="44.52277" lon="1.51641">
        <ele>259.3</ele>
        <time>2021-08-09T09:02:02Z</time>
      </trkpt>
      <trkpt lat="44.52278" lon="1.5164">
        <ele>259.3</ele>
        <time>2021-08-09T09:02:03Z</time>
      </trkpt>
      <trkpt lat="44.5228" lon="1.51638">
        <ele>259.3</ele>
        <time>2021-08-09T09:02:04Z</time>
      </trkpt>
      <trkpt lat="44.52282" lon="1.51636">
        <ele>259.4</ele>
        <time>2021-08-09T09:02:06Z</time>
      </trkpt>
      <trkpt lat="44.52285" lon="1.51634">
        <ele>259.5</ele>
        <time>2021-08-09T09:02:07Z</time>
      </trkpt>
      <trkpt lat="44.52286" lon="1.51633">
        <ele>259.5</ele>
        <time>2021-08-09T09:02:08Z</time>
      </trkpt>
      <trkpt lat="44.5229" lon="1.5163">
        <ele>259.6</ele>
        <time>2021-08-09T09:02:10Z</time>
      </trkpt>
      <trkpt lat="44.52291" lon="1.51628">
        <ele>259.6</ele>
        <time>2021-08-09T09:02:11Z</time>
      </trkpt>
      <trkpt lat="44.52292" lon="1.51627">
        <ele>259.6</ele>
        <time>2021-08-09T09:02:12Z</time>
      </trkpt>
      <trkpt lat="44.52295" lon="1.51624">
        <ele>259.7</ele>
        <time>2021-08-09T09:02:14Z</time>
      </trkpt>
      <trkpt lat="44.52297" lon="1.51622">
        <ele>259.8</ele>
        <time>2021-08-09T09:02:15Z</time>
      </trkpt>
      <trkpt lat="44.52301" lon="1.51617">
        <ele>259.9</ele>
        <time>2021-08-09T09:02:17Z</time>
      </trkpt>
      <trkpt lat="44.52303" lon="1.51614">
        <ele>260</ele>
        <time>2021-08-09T09:02:18Z</time>
      </trkpt>
      <trkpt lat="44.52305" lon="1.5161">
        <ele>260</ele>
        <time>2021-08-09T09:02:19Z</time>
      </trkpt>
      <trkpt lat="44.52308" lon="1.51606">
        <ele>260.1</ele>
        <time>2021-08-09T09:02:20Z</time>
      </trkpt>
      <trkpt lat="44.5231" lon="1.51602">
        <ele>260.2</ele>
        <time>2021-08-09T09:02:22Z</time>
      </trkpt>
      <trkpt lat="44.52313" lon="1.51599">
        <ele>260.3</ele>
        <time>2021-08-09T09:02:23Z</time>
      </trkpt>
      <trkpt lat="44.52315" lon="1.51597">
        <ele>260.4</ele>
        <time>2021-08-09T09:02:24Z</time>
      </trkpt>
      <trkpt lat="44.52318" lon="1.51594">
        <ele>260.5</ele>
        <time>2021-08-09T09:02:26Z</time>
      </trkpt>
      <trkpt lat="44.5232" lon="1.51592">
        <ele>260.6</ele>
        <time>2021-08-09T09:02:27Z</time>
      </trkpt>
      <trkpt lat="44.52324" lon="1.5159">
        <ele>260.6</ele>
        <time>2021-08-09T09:02:28Z</time>
      </trkpt>
      <trkpt lat="44.52326" lon="1.51588">
        <ele>260.7</ele>
        <time>2021-08-09T09:02:29Z</time>
      </trkpt>
      <trkpt lat="44.52329" lon="1.51585">
        <ele>260.8</ele>
        <time>2021-08-09T09:02:30Z</time>
      </trkpt>
      <trkpt lat="44.52331" lon="1.51582">
        <ele>260.9</ele>
        <time>2021-08-09T09:02:32Z</time>
      </trkpt>
      <trkpt lat="44.52334" lon="1.5158">
        <ele>261</ele>
        <time>2021-08-09T09:02:33Z</time>
      </trkpt>
      <trkpt lat="44.52337" lon="1.51577">
        <ele>261.2</ele>
        <time>2021-08-09T09:02:34Z</time>
      </trkpt>
      <trkpt lat="44.52339" lon="1.51576">
        <ele>261.2</ele>
        <time>2021-08-09T09:02:35Z</time>
      </trkpt>
      <trkpt lat="44.52342" lon="1.51573">
        <ele>261.4</ele>
        <time>2021-08-09T09:02:37Z</time>
      </trkpt>
      <trkpt lat="44.52343" lon="1.51571">
        <ele>261.4</ele>
        <time>2021-08-09T09:02:38Z</time>
      </trkpt>
      <trkpt lat="44.52344" lon="1.51568">
        <ele>261.4</ele>
        <time>2021-08-09T09:02:40Z</time>
      </trkpt>
      <trkpt lat="44.52344" lon="1.51568">
        <ele>261.5</ele>
        <time>2021-08-09T09:02:42Z</time>
      </trkpt>
      <trkpt lat="44.52344" lon="1.51568">
        <ele>261.5</ele>
        <time>2021-08-09T09:02:43Z</time>
      </trkpt>
      <trkpt lat="44.52344" lon="1.51567">
        <ele>261.5</ele>
        <time>2021-08-09T09:02:44Z</time>
      </trkpt>
      <trkpt lat="44.52345" lon="1.51567">
        <ele>261.5</ele>
        <time>2021-08-09T09:02:46Z</time>
      </trkpt>
      <trkpt lat="44.52345" lon="1.51567">
        <ele>261.5</ele>
        <time>2021-08-09T09:02:47Z</time>
      </trkpt>
      <trkpt lat="44.52358" lon="1.5156">
        <ele>262</ele>
        <time>2021-08-09T09:04:12Z</time>
      </trkpt>
      <trkpt lat="44.52362" lon="1.51558">
        <ele>262.2</ele>
        <time>2021-08-09T09:04:14Z</time>
      </trkpt>
      <trkpt lat="44.52366" lon="1.51555">
        <ele>262.4</ele>
        <time>2021-08-09T09:04:15Z</time>
      </trkpt>
      <trkpt lat="44.52369" lon="1.51554">
        <ele>262.6</ele>
        <time>2021-08-09T09:04:17Z</time>
      </trkpt>
      <trkpt lat="44.5237" lon="1.51553">
        <ele>262.7</ele>
        <time>2021-08-09T09:04:18Z</time>
      </trkpt>
      <trkpt lat="44.52373" lon="1.51553">
        <ele>262.9</ele>
        <time>2021-08-09T09:04:20Z</time>
      </trkpt>
      <trkpt lat="44.52378" lon="1.51552">
        <ele>263.1</ele>
        <time>2021-08-09T09:04:21Z</time>
      </trkpt>
      <trkpt lat="44.52379" lon="1.51552">
        <ele>263.1</ele>
        <time>2021-08-09T09:04:22Z</time>
      </trkpt>
      <trkpt lat="44.52383" lon="1.51552">
        <ele>263.3</ele>
        <time>2021-08-09T09:04:24Z</time>
      </trkpt>
      <trkpt lat="44.52386" lon="1.51552">
        <ele>263.4</ele>
        <time>2021-08-09T09:04:25Z</time>
      </trkpt>
      <trkpt lat="44.52387" lon="1.51552">
        <ele>263.5</ele>
        <time>2021-08-09T09:04:26Z</time>
      </trkpt>
      <trkpt lat="44.5239" lon="1.51551">
        <ele>263.6</ele>
        <time>2021-08-09T09:04:28Z</time>
      </trkpt>
      <trkpt lat="44.52391" lon="1.51551">
        <ele>263.7</ele>
        <time>2021-08-09T09:04:29Z</time>
      </trkpt>
      <trkpt lat="44.52392" lon="1.51551">
        <ele>263.7</ele>
        <time>2021-08-09T09:04:31Z</time>
      </trkpt>
      <trkpt lat="44.52393" lon="1.51551">
        <ele>263.7</ele>
        <time>2021-08-09T09:04:32Z</time>
      </trkpt>
      <trkpt lat="44.52395" lon="1.5155">
        <ele>263.8</ele>
        <time>2021-08-09T09:04:33Z</time>
      </trkpt>
      <trkpt lat="44.52396" lon="1.5155">
        <ele>263.8</ele>
        <time>2021-08-09T09:04:34Z</time>
      </trkpt>
      <trkpt lat="44.52401" lon="1.5155">
        <ele>264</ele>
        <time>2021-08-09T09:04:36Z</time>
      </trkpt>
      <trkpt lat="44.52405" lon="1.51549">
        <ele>264</ele>
        <time>2021-08-09T09:04:37Z</time>
      </trkpt>
      <trkpt lat="44.52406" lon="1.51549">
        <ele>264</ele>
        <time>2021-08-09T09:04:38Z</time>
      </trkpt>
      <trkpt lat="44.52411" lon="1.51548">
        <ele>264</ele>
        <time>2021-08-09T09:04:40Z</time>
      </trkpt>
      <trkpt lat="44.52414" lon="1.51547">
        <ele>264</ele>
        <time>2021-08-09T09:04:41Z</time>
      </trkpt>
      <trkpt lat="44.52419" lon="1.51548">
        <ele>264</ele>
        <time>2021-08-09T09:04:43Z</time>
      </trkpt>
      <trkpt lat="44.52423" lon="1.51548">
        <ele>264</ele>
        <time>2021-08-09T09:04:44Z</time>
      </trkpt>
      <trkpt lat="44.52426" lon="1.51548">
        <ele>264</ele>
        <time>2021-08-09T09:04:45Z</time>
      </trkpt>
      <trkpt lat="44.5243" lon="1.51549">
        <ele>264</ele>
        <time>2021-08-09T09:04:47Z</time>
      </trkpt>
      <trkpt lat="44.52431" lon="1.51549">
        <ele>264</ele>
        <time>2021-08-09T09:04:48Z</time>
      </trkpt>
      <trkpt lat="44.52434" lon="1.5155">
        <ele>264.1</ele>
        <time>2021-08-09T09:04:49Z</time>
      </trkpt>
      <trkpt lat="44.52436" lon="1.51551">
        <ele>264.1</ele>
        <time>2021-08-09T09:04:50Z</time>
      </trkpt>
      <trkpt lat="44.52439" lon="1.51551">
        <ele>264.1</ele>
        <time>2021-08-09T09:04:52Z</time>
      </trkpt>
      <trkpt lat="44.52441" lon="1.51552">
        <ele>264.1</ele>
        <time>2021-08-09T09:04:53Z</time>
      </trkpt>
      <trkpt lat="44.52443" lon="1.51552">
        <ele>264.2</ele>
        <time>2021-08-09T09:04:54Z</time>
      </trkpt>
      <trkpt lat="44.52447" lon="1.51552">
        <ele>264.2</ele>
        <time>2021-08-09T09:04:56Z</time>
      </trkpt>
      <trkpt lat="44.52449" lon="1.51552">
        <ele>264.2</ele>
        <time>2021-08-09T09:04:57Z</time>
      </trkpt>
      <trkpt lat="44.52452" lon="1.51552">
        <ele>264.3</ele>
        <time>2021-08-09T09:04:58Z</time>
      </trkpt>
      <trkpt lat="44.52456" lon="1.51551">
        <ele>264.4</ele>
        <time>2021-08-09T09:05:00Z</time>
      </trkpt>
      <trkpt lat="44.52461" lon="1.51552">
        <ele>264.5</ele>
        <time>2021-08-09T09:05:02Z</time>
      </trkpt>
      <trkpt lat="44.52464" lon="1.51552">
        <ele>264.5</ele>
        <time>2021-08-09T09:05:03Z</time>
      </trkpt>
      <trkpt lat="44.52467" lon="1.51552">
        <ele>264.7</ele>
        <time>2021-08-09T09:05:04Z</time>
      </trkpt>
      <trkpt lat="44.5247" lon="1.51553">
        <ele>264.8</ele>
        <time>2021-08-09T09:05:05Z</time>
      </trkpt>
      <trkpt lat="44.52473" lon="1.51553">
        <ele>264.9</ele>
        <time>2021-08-09T09:05:06Z</time>
      </trkpt>
      <trkpt lat="44.52477" lon="1.51554">
        <ele>265.1</ele>
        <time>2021-08-09T09:05:07Z</time>
      </trkpt>
      <trkpt lat="44.52479" lon="1.51554">
        <ele>265.3</ele>
        <time>2021-08-09T09:05:08Z</time>
      </trkpt>
      <trkpt lat="44.5248" lon="1.51554">
        <ele>265.3</ele>
        <time>2021-08-09T09:05:10Z</time>
      </trkpt>
      <trkpt lat="44.52481" lon="1.51554">
        <ele>265.4</ele>
        <time>2021-08-09T09:05:11Z</time>
      </trkpt>
      <trkpt lat="44.52482" lon="1.51553">
        <ele>265.4</ele>
        <time>2021-08-09T09:05:12Z</time>
      </trkpt>
      <trkpt lat="44.52483" lon="1.51553">
        <ele>265.5</ele>
        <time>2021-08-09T09:05:14Z</time>
      </trkpt>
      <trkpt lat="44.52484" lon="1.51553">
        <ele>265.6</ele>
        <time>2021-08-09T09:05:16Z</time>
      </trkpt>
      <trkpt lat="44.52485" lon="1.51553">
        <ele>265.7</ele>
        <time>2021-08-09T09:05:17Z</time>
      </trkpt>
      <trkpt lat="44.52487" lon="1.51553">
        <ele>265.8</ele>
        <time>2021-08-09T09:05:19Z</time>
      </trkpt>
      <trkpt lat="44.52488" lon="1.51552">
        <ele>265.9</ele>
        <time>2021-08-09T09:05:20Z</time>
      </trkpt>
      <trkpt lat="44.5249" lon="1.51552">
        <ele>266</ele>
        <time>2021-08-09T09:05:21Z</time>
      </trkpt>
      <trkpt lat="44.52493" lon="1.51551">
        <ele>266.2</ele>
        <time>2021-08-09T09:05:23Z</time>
      </trkpt>
      <trkpt lat="44.52494" lon="1.5155">
        <ele>266.4</ele>
        <time>2021-08-09T09:05:24Z</time>
      </trkpt>
      <trkpt lat="44.52496" lon="1.5155">
        <ele>266.5</ele>
        <time>2021-08-09T09:05:25Z</time>
      </trkpt>
      <trkpt lat="44.52499" lon="1.51549">
        <ele>266.8</ele>
        <time>2021-08-09T09:05:26Z</time>
      </trkpt>
      <trkpt lat="44.52499" lon="1.51548">
        <ele>267</ele>
        <time>2021-08-09T09:05:27Z</time>
      </trkpt>
      <trkpt lat="44.52503" lon="1.51546">
        <ele>267.5</ele>
        <time>2021-08-09T09:05:29Z</time>
      </trkpt>
      <trkpt lat="44.52505" lon="1.51545">
        <ele>267.8</ele>
        <time>2021-08-09T09:05:30Z</time>
      </trkpt>
      <trkpt lat="44.52507" lon="1.51543">
        <ele>268.5</ele>
        <time>2021-08-09T09:05:32Z</time>
      </trkpt>
      <trkpt lat="44.52512" lon="1.5154">
        <ele>269.8</ele>
        <time>2021-08-09T09:05:34Z</time>
      </trkpt>
      <trkpt lat="44.52515" lon="1.51539">
        <ele>270.6</ele>
        <time>2021-08-09T09:05:35Z</time>
      </trkpt>
      <trkpt lat="44.52516" lon="1.51539">
        <ele>270.8</ele>
        <time>2021-08-09T09:05:36Z</time>
      </trkpt>
      <trkpt lat="44.52518" lon="1.51538">
        <ele>271.2</ele>
        <time>2021-08-09T09:05:37Z</time>
      </trkpt>
      <trkpt lat="44.52519" lon="1.51537">
        <ele>271.6</ele>
        <time>2021-08-09T09:05:39Z</time>
      </trkpt>
      <trkpt lat="44.5252" lon="1.51536">
        <ele>271.8</ele>
        <time>2021-08-09T09:05:40Z</time>
      </trkpt>
      <trkpt lat="44.52523" lon="1.51534">
        <ele>272.4</ele>
        <time>2021-08-09T09:05:42Z</time>
      </trkpt>
      <trkpt lat="44.52525" lon="1.51532">
        <ele>272.9</ele>
        <time>2021-08-09T09:05:43Z</time>
      </trkpt>
      <trkpt lat="44.52526" lon="1.51531">
        <ele>273.1</ele>
        <time>2021-08-09T09:05:44Z</time>
      </trkpt>
      <trkpt lat="44.52527" lon="1.51529">
        <ele>273.5</ele>
        <time>2021-08-09T09:05:46Z</time>
      </trkpt>
      <trkpt lat="44.52528" lon="1.51529">
        <ele>273.7</ele>
        <time>2021-08-09T09:05:47Z</time>
      </trkpt>
      <trkpt lat="44.52532" lon="1.51527">
        <ele>274.4</ele>
        <time>2021-08-09T09:05:48Z</time>
      </trkpt>
      <trkpt lat="44.52535" lon="1.51524">
        <ele>275</ele>
        <time>2021-08-09T09:05:50Z</time>
      </trkpt>
      <trkpt lat="44.52536" lon="1.51523">
        <ele>275.1</ele>
        <time>2021-08-09T09:05:51Z</time>
      </trkpt>
      <trkpt lat="44.52537" lon="1.51522">
        <ele>275.3</ele>
        <time>2021-08-09T09:05:52Z</time>
      </trkpt>
      <trkpt lat="44.52538" lon="1.51522">
        <ele>275.4</ele>
        <time>2021-08-09T09:05:53Z</time>
      </trkpt>
      <trkpt lat="44.52538" lon="1.51521">
        <ele>275.5</ele>
        <time>2021-08-09T09:05:54Z</time>
      </trkpt>
      <trkpt lat="44.5254" lon="1.5152">
        <ele>275.7</ele>
        <time>2021-08-09T09:05:55Z</time>
      </trkpt>
      <trkpt lat="44.52541" lon="1.51518">
        <ele>276</ele>
        <time>2021-08-09T09:05:57Z</time>
      </trkpt>
      <trkpt lat="44.52543" lon="1.51515">
        <ele>276.3</ele>
        <time>2021-08-09T09:05:58Z</time>
      </trkpt>
      <trkpt lat="44.52544" lon="1.51515">
        <ele>276.4</ele>
        <time>2021-08-09T09:06:00Z</time>
      </trkpt>
      <trkpt lat="44.52545" lon="1.51514">
        <ele>276.5</ele>
        <time>2021-08-09T09:06:01Z</time>
      </trkpt>
      <trkpt lat="44.52545" lon="1.51513">
        <ele>276.6</ele>
        <time>2021-08-09T09:06:02Z</time>
      </trkpt>
      <trkpt lat="44.52546" lon="1.51513">
        <ele>276.7</ele>
        <time>2021-08-09T09:06:03Z</time>
      </trkpt>
      <trkpt lat="44.52546" lon="1.51512">
        <ele>276.7</ele>
        <time>2021-08-09T09:06:05Z</time>
      </trkpt>
      <trkpt lat="44.52546" lon="1.51512">
        <ele>276.8</ele>
        <time>2021-08-09T09:06:06Z</time>
      </trkpt>
      <trkpt lat="44.52546" lon="1.51512">
        <ele>276.8</ele>
        <time>2021-08-09T09:06:08Z</time>
      </trkpt>
      <trkpt lat="44.52552" lon="1.51506">
        <ele>277.9</ele>
        <time>2021-08-09T09:06:24Z</time>
      </trkpt>
      <trkpt lat="44.52554" lon="1.51503">
        <ele>278.5</ele>
        <time>2021-08-09T09:06:25Z</time>
      </trkpt>
      <trkpt lat="44.52557" lon="1.51499">
        <ele>279.2</ele>
        <time>2021-08-09T09:06:27Z</time>
      </trkpt>
      <trkpt lat="44.52557" lon="1.51498">
        <ele>279.4</ele>
        <time>2021-08-09T09:06:28Z</time>
      </trkpt>
      <trkpt lat="44.52558" lon="1.51497">
        <ele>279.7</ele>
        <time>2021-08-09T09:06:29Z</time>
      </trkpt>
      <trkpt lat="44.52558" lon="1.51496">
        <ele>279.9</ele>
        <time>2021-08-09T09:06:30Z</time>
      </trkpt>
      <trkpt lat="44.52559" lon="1.51495">
        <ele>280.1</ele>
        <time>2021-08-09T09:06:32Z</time>
      </trkpt>
      <trkpt lat="44.52559" lon="1.51494">
        <ele>280.4</ele>
        <time>2021-08-09T09:06:34Z</time>
      </trkpt>
      <trkpt lat="44.5256" lon="1.51494">
        <ele>280.5</ele>
        <time>2021-08-09T09:06:36Z</time>
      </trkpt>
      <trkpt lat="44.52568" lon="1.51484">
        <ele>283.6</ele>
        <time>2021-08-09T09:06:44Z</time>
      </trkpt>
      <trkpt lat="44.52572" lon="1.5148">
        <ele>284.8</ele>
        <time>2021-08-09T09:06:45Z</time>
      </trkpt>
      <trkpt lat="44.52574" lon="1.51478">
        <ele>285.5</ele>
        <time>2021-08-09T09:06:46Z</time>
      </trkpt>
      <trkpt lat="44.52576" lon="1.51476">
        <ele>286</ele>
        <time>2021-08-09T09:06:47Z</time>
      </trkpt>
      <trkpt lat="44.52578" lon="1.51474">
        <ele>286.6</ele>
        <time>2021-08-09T09:06:49Z</time>
      </trkpt>
      <trkpt lat="44.52581" lon="1.51472">
        <ele>287.4</ele>
        <time>2021-08-09T09:06:50Z</time>
      </trkpt>
      <trkpt lat="44.52583" lon="1.5147">
        <ele>287.9</ele>
        <time>2021-08-09T09:06:52Z</time>
      </trkpt>
      <trkpt lat="44.52585" lon="1.51469">
        <ele>288.5</ele>
        <time>2021-08-09T09:06:53Z</time>
      </trkpt>
      <trkpt lat="44.52588" lon="1.51467">
        <ele>289.1</ele>
        <time>2021-08-09T09:06:54Z</time>
      </trkpt>
      <trkpt lat="44.5259" lon="1.51466">
        <ele>289.6</ele>
        <time>2021-08-09T09:06:56Z</time>
      </trkpt>
      <trkpt lat="44.52592" lon="1.51464">
        <ele>290.2</ele>
        <time>2021-08-09T09:08:52Z</time>
      </trkpt>
      <trkpt lat="44.52594" lon="1.51463">
        <ele>290.7</ele>
        <time>2021-08-09T09:08:53Z</time>
      </trkpt>
      <trkpt lat="44.52597" lon="1.51461">
        <ele>291.3</ele>
        <time>2021-08-09T09:08:54Z</time>
      </trkpt>
      <trkpt lat="44.526" lon="1.51459">
        <ele>291.9</ele>
        <time>2021-08-09T09:08:56Z</time>
      </trkpt>
      <trkpt lat="44.52601" lon="1.51458">
        <ele>292.2</ele>
        <time>2021-08-09T09:08:58Z</time>
      </trkpt>
      <trkpt lat="44.52601" lon="1.51458">
        <ele>292.3</ele>
        <time>2021-08-09T09:09:00Z</time>
      </trkpt>
      <trkpt lat="44.52602" lon="1.51458">
        <ele>292.3</ele>
        <time>2021-08-09T09:09:02Z</time>
      </trkpt>
      <trkpt lat="44.52602" lon="1.51458">
        <ele>292.3</ele>
        <time>2021-08-09T09:09:04Z</time>
      </trkpt>
      <trkpt lat="44.52605" lon="1.51457">
        <ele>293</ele>
        <time>2021-08-09T09:09:10Z</time>
      </trkpt>
      <trkpt lat="44.52609" lon="1.51456">
        <ele>293.8</ele>
        <time>2021-08-09T09:09:11Z</time>
      </trkpt>
      <trkpt lat="44.52612" lon="1.51456">
        <ele>294.5</ele>
        <time>2021-08-09T09:09:13Z</time>
      </trkpt>
      <trkpt lat="44.52613" lon="1.51455">
        <ele>294.7</ele>
        <time>2021-08-09T09:09:14Z</time>
      </trkpt>
      <trkpt lat="44.52614" lon="1.51455">
        <ele>294.8</ele>
        <time>2021-08-09T09:09:16Z</time>
      </trkpt>
      <trkpt lat="44.52614" lon="1.51455">
        <ele>294.8</ele>
        <time>2021-08-09T09:09:17Z</time>
      </trkpt>
      <trkpt lat="44.52614" lon="1.51455">
        <ele>294.8</ele>
        <time>2021-08-09T09:09:18Z</time>
      </trkpt>
      <trkpt lat="44.52614" lon="1.51455">
        <ele>294.8</ele>
        <time>2021-08-09T09:09:20Z</time>
      </trkpt>
      <trkpt lat="44.52621" lon="1.51453">
        <ele>296.2</ele>
        <time>2021-08-09T09:09:22Z</time>
      </trkpt>
      <trkpt lat="44.52626" lon="1.51454">
        <ele>297</ele>
        <time>2021-08-09T09:09:24Z</time>
      </trkpt>
      <trkpt lat="44.52626" lon="1.51454">
        <ele>297.1</ele>
        <time>2021-08-09T09:09:25Z</time>
      </trkpt>
      <trkpt lat="44.52627" lon="1.51454">
        <ele>297.2</ele>
        <time>2021-08-09T09:09:26Z</time>
      </trkpt>
      <trkpt lat="44.52628" lon="1.51455">
        <ele>297.4</ele>
        <time>2021-08-09T09:09:28Z</time>
      </trkpt>
      <trkpt lat="44.52628" lon="1.51455">
        <ele>297.5</ele>
        <time>2021-08-09T09:09:30Z</time>
      </trkpt>
      <trkpt lat="44.52629" lon="1.51455">
        <ele>297.6</ele>
        <time>2021-08-09T09:09:31Z</time>
      </trkpt>
      <trkpt lat="44.5263" lon="1.51456">
        <ele>297.7</ele>
        <time>2021-08-09T09:09:32Z</time>
      </trkpt>
      <trkpt lat="44.52633" lon="1.51458">
        <ele>298.3</ele>
        <time>2021-08-09T09:09:34Z</time>
      </trkpt>
      <trkpt lat="44.52632" lon="1.51459">
        <ele>298.5</ele>
        <time>2021-08-09T09:09:35Z</time>
      </trkpt>
      <trkpt lat="44.52632" lon="1.5146">
        <ele>298.6</ele>
        <time>2021-08-09T09:09:36Z</time>
      </trkpt>
      <trkpt lat="44.52633" lon="1.51461">
        <ele>298.8</ele>
        <time>2021-08-09T09:09:37Z</time>
      </trkpt>
      <trkpt lat="44.52634" lon="1.51461">
        <ele>299</ele>
        <time>2021-08-09T09:09:38Z</time>
      </trkpt>
      <trkpt lat="44.52635" lon="1.51463">
        <ele>299.2</ele>
        <time>2021-08-09T09:09:40Z</time>
      </trkpt>
      <trkpt lat="44.52636" lon="1.51463">
        <ele>299.3</ele>
        <time>2021-08-09T09:09:41Z</time>
      </trkpt>
      <trkpt lat="44.52636" lon="1.51463">
        <ele>299.4</ele>
        <time>2021-08-09T09:09:42Z</time>
      </trkpt>
      <trkpt lat="44.52637" lon="1.51478">
        <ele>300.9</ele>
        <time>2021-08-09T09:09:55Z</time>
      </trkpt>
      <trkpt lat="44.52636" lon="1.51482">
        <ele>301.4</ele>
        <time>2021-08-09T09:09:57Z</time>
      </trkpt>
      <trkpt lat="44.52635" lon="1.51486">
        <ele>301.8</ele>
        <time>2021-08-09T09:09:58Z</time>
      </trkpt>
      <trkpt lat="44.52634" lon="1.51489">
        <ele>302.3</ele>
        <time>2021-08-09T09:09:59Z</time>
      </trkpt>
      <trkpt lat="44.52631" lon="1.51497">
        <ele>303.5</ele>
        <time>2021-08-09T09:10:01Z</time>
      </trkpt>
      <trkpt lat="44.52629" lon="1.51501">
        <ele>304.1</ele>
        <time>2021-08-09T09:10:02Z</time>
      </trkpt>
      <trkpt lat="44.52629" lon="1.51502">
        <ele>304.3</ele>
        <time>2021-08-09T09:10:03Z</time>
      </trkpt>
      <trkpt lat="44.52628" lon="1.51506">
        <ele>304.9</ele>
        <time>2021-08-09T09:10:04Z</time>
      </trkpt>
      <trkpt lat="44.52628" lon="1.51507">
        <ele>305.1</ele>
        <time>2021-08-09T09:10:05Z</time>
      </trkpt>
      <trkpt lat="44.52627" lon="1.51509">
        <ele>305.4</ele>
        <time>2021-08-09T09:10:07Z</time>
      </trkpt>
      <trkpt lat="44.52627" lon="1.51511">
        <ele>305.8</ele>
        <time>2021-08-09T09:10:08Z</time>
      </trkpt>
      <trkpt lat="44.52625" lon="1.51515">
        <ele>306.3</ele>
        <time>2021-08-09T09:10:10Z</time>
      </trkpt>
      <trkpt lat="44.52625" lon="1.51516">
        <ele>306.6</ele>
        <time>2021-08-09T09:10:11Z</time>
      </trkpt>
      <trkpt lat="44.52625" lon="1.51519">
        <ele>306.9</ele>
        <time>2021-08-09T09:10:12Z</time>
      </trkpt>
      <trkpt lat="44.52624" lon="1.51521">
        <ele>307.2</ele>
        <time>2021-08-09T09:10:14Z</time>
      </trkpt>
      <trkpt lat="44.52624" lon="1.51523">
        <ele>307.6</ele>
        <time>2021-08-09T09:10:16Z</time>
      </trkpt>
      <trkpt lat="44.52624" lon="1.51523">
        <ele>307.7</ele>
        <time>2021-08-09T09:10:17Z</time>
      </trkpt>
      <trkpt lat="44.52623" lon="1.51525">
        <ele>307.9</ele>
        <time>2021-08-09T09:10:18Z</time>
      </trkpt>
      <trkpt lat="44.52622" lon="1.51528">
        <ele>308.5</ele>
        <time>2021-08-09T09:10:20Z</time>
      </trkpt>
      <trkpt lat="44.52622" lon="1.51529">
        <ele>308.6</ele>
        <time>2021-08-09T09:10:21Z</time>
      </trkpt>
      <trkpt lat="44.52621" lon="1.51533">
        <ele>309.3</ele>
        <time>2021-08-09T09:10:23Z</time>
      </trkpt>
      <trkpt lat="44.52621" lon="1.51534">
        <ele>309.5</ele>
        <time>2021-08-09T09:10:24Z</time>
      </trkpt>
      <trkpt lat="44.52621" lon="1.51536">
        <ele>309.8</ele>
        <time>2021-08-09T09:10:25Z</time>
      </trkpt>
      <trkpt lat="44.52621" lon="1.51539">
        <ele>310.2</ele>
        <time>2021-08-09T09:10:26Z</time>
      </trkpt>
      <trkpt lat="44.52621" lon="1.51542">
        <ele>310.7</ele>
        <time>2021-08-09T09:10:28Z</time>
      </trkpt>
      <trkpt lat="44.52621" lon="1.51544">
        <ele>311</ele>
        <time>2021-08-09T09:10:29Z</time>
      </trkpt>
      <trkpt lat="44.52621" lon="1.51548">
        <ele>311.7</ele>
        <time>2021-08-09T09:10:31Z</time>
      </trkpt>
      <trkpt lat="44.52621" lon="1.51549">
        <ele>311.9</ele>
        <time>2021-08-09T09:10:32Z</time>
      </trkpt>
      <trkpt lat="44.52621" lon="1.51551">
        <ele>312.3</ele>
        <time>2021-08-09T09:10:34Z</time>
      </trkpt>
      <trkpt lat="44.52621" lon="1.51552">
        <ele>312.4</ele>
        <time>2021-08-09T09:10:35Z</time>
      </trkpt>
      <trkpt lat="44.52621" lon="1.51552">
        <ele>312.5</ele>
        <time>2021-08-09T09:10:36Z</time>
      </trkpt>
      <trkpt lat="44.52621" lon="1.51554">
        <ele>312.8</ele>
        <time>2021-08-09T09:10:37Z</time>
      </trkpt>
      <trkpt lat="44.52621" lon="1.51556">
        <ele>313.2</ele>
        <time>2021-08-09T09:10:38Z</time>
      </trkpt>
      <trkpt lat="44.52621" lon="1.51559">
        <ele>313.7</ele>
        <time>2021-08-09T09:10:40Z</time>
      </trkpt>
      <trkpt lat="44.52621" lon="1.51561">
        <ele>314.1</ele>
        <time>2021-08-09T09:10:41Z</time>
      </trkpt>
      <trkpt lat="44.52621" lon="1.51563">
        <ele>314.5</ele>
        <time>2021-08-09T09:10:42Z</time>
      </trkpt>
      <trkpt lat="44.52621" lon="1.51565">
        <ele>314.9</ele>
        <time>2021-08-09T09:10:43Z</time>
      </trkpt>
      <trkpt lat="44.52622" lon="1.51568">
        <ele>315.6</ele>
        <time>2021-08-09T09:10:45Z</time>
      </trkpt>
      <trkpt lat="44.52623" lon="1.5157">
        <ele>316.1</ele>
        <time>2021-08-09T09:10:46Z</time>
      </trkpt>
      <trkpt lat="44.52624" lon="1.51571">
        <ele>316.4</ele>
        <time>2021-08-09T09:10:47Z</time>
      </trkpt>
      <trkpt lat="44.52625" lon="1.51572">
        <ele>316.9</ele>
        <time>2021-08-09T09:10:49Z</time>
      </trkpt>
      <trkpt lat="44.52626" lon="1.51573">
        <ele>317.2</ele>
        <time>2021-08-09T09:10:51Z</time>
      </trkpt>
      <trkpt lat="44.52627" lon="1.51573">
        <ele>317.5</ele>
        <time>2021-08-09T09:10:52Z</time>
      </trkpt>
      <trkpt lat="44.52628" lon="1.51574">
        <ele>317.8</ele>
        <time>2021-08-09T09:10:53Z</time>
      </trkpt>
      <trkpt lat="44.5263" lon="1.51576">
        <ele>318.5</ele>
        <time>2021-08-09T09:10:55Z</time>
      </trkpt>
      <trkpt lat="44.52633" lon="1.51577">
        <ele>319.3</ele>
        <time>2021-08-09T09:10:57Z</time>
      </trkpt>
      <trkpt lat="44.52634" lon="1.51577">
        <ele>319.6</ele>
        <time>2021-08-09T09:10:58Z</time>
      </trkpt>
      <trkpt lat="44.52634" lon="1.51578">
        <ele>319.8</ele>
        <time>2021-08-09T09:11:00Z</time>
      </trkpt>
      <trkpt lat="44.52635" lon="1.51578">
        <ele>320</ele>
        <time>2021-08-09T09:11:02Z</time>
      </trkpt>
      <trkpt lat="44.52636" lon="1.51579">
        <ele>320.2</ele>
        <time>2021-08-09T09:11:04Z</time>
      </trkpt>
      <trkpt lat="44.52636" lon="1.51579">
        <ele>320.4</ele>
        <time>2021-08-09T09:11:05Z</time>
      </trkpt>
      <trkpt lat="44.52637" lon="1.5158">
        <ele>320.6</ele>
        <time>2021-08-09T09:12:53Z</time>
      </trkpt>
      <trkpt lat="44.52638" lon="1.51581">
        <ele>320.8</ele>
        <time>2021-08-09T09:12:54Z</time>
      </trkpt>
      <trkpt lat="44.52638" lon="1.51581">
        <ele>320.9</ele>
        <time>2021-08-09T09:12:55Z</time>
      </trkpt>
      <trkpt lat="44.52641" lon="1.51581">
        <ele>321.5</ele>
        <time>2021-08-09T09:12:56Z</time>
      </trkpt>
      <trkpt lat="44.52644" lon="1.5158">
        <ele>322</ele>
        <time>2021-08-09T09:12:57Z</time>
      </trkpt>
      <trkpt lat="44.52645" lon="1.5158">
        <ele>322.1</ele>
        <time>2021-08-09T09:12:59Z</time>
      </trkpt>
      <trkpt lat="44.52646" lon="1.5158">
        <ele>322.3</ele>
        <time>2021-08-09T09:13:00Z</time>
      </trkpt>
      <trkpt lat="44.52647" lon="1.5158">
        <ele>322.5</ele>
        <time>2021-08-09T09:13:01Z</time>
      </trkpt>
      <trkpt lat="44.52649" lon="1.5158">
        <ele>322.8</ele>
        <time>2021-08-09T09:13:02Z</time>
      </trkpt>
      <trkpt lat="44.5265" lon="1.51579">
        <ele>322.9</ele>
        <time>2021-08-09T09:13:03Z</time>
      </trkpt>
      <trkpt lat="44.5265" lon="1.51579">
        <ele>322.9</ele>
        <time>2021-08-09T09:13:05Z</time>
      </trkpt>
      <trkpt lat="44.5265" lon="1.51578">
        <ele>323</ele>
        <time>2021-08-09T09:13:06Z</time>
      </trkpt>
      <trkpt lat="44.52652" lon="1.51576">
        <ele>323.3</ele>
        <time>2021-08-09T09:13:08Z</time>
      </trkpt>
      <trkpt lat="44.52652" lon="1.51576">
        <ele>323.3</ele>
        <time>2021-08-09T09:13:09Z</time>
      </trkpt>
      <trkpt lat="44.52652" lon="1.51576">
        <ele>323.4</ele>
        <time>2021-08-09T09:13:10Z</time>
      </trkpt>
      <trkpt lat="44.52653" lon="1.51575">
        <ele>323.5</ele>
        <time>2021-08-09T09:13:12Z</time>
      </trkpt>
      <trkpt lat="44.52655" lon="1.51574">
        <ele>323.8</ele>
        <time>2021-08-09T09:13:13Z</time>
      </trkpt>
      <trkpt lat="44.52659" lon="1.51572">
        <ele>324.6</ele>
        <time>2021-08-09T09:13:14Z</time>
      </trkpt>
      <trkpt lat="44.52661" lon="1.51571">
        <ele>325.1</ele>
        <time>2021-08-09T09:13:16Z</time>
      </trkpt>
      <trkpt lat="44.52663" lon="1.51571">
        <ele>325.7</ele>
        <time>2021-08-09T09:13:17Z</time>
      </trkpt>
      <trkpt lat="44.52665" lon="1.5157">
        <ele>326.3</ele>
        <time>2021-08-09T09:13:18Z</time>
      </trkpt>
      <trkpt lat="44.52668" lon="1.51569">
        <ele>327</ele>
        <time>2021-08-09T09:13:20Z</time>
      </trkpt>
      <trkpt lat="44.5267" lon="1.51568">
        <ele>327.6</ele>
        <time>2021-08-09T09:13:22Z</time>
      </trkpt>
      <trkpt lat="44.52672" lon="1.51568">
        <ele>328.2</ele>
        <time>2021-08-09T09:13:23Z</time>
      </trkpt>
      <trkpt lat="44.52674" lon="1.51567">
        <ele>328.8</ele>
        <time>2021-08-09T09:13:24Z</time>
      </trkpt>
      <trkpt lat="44.52677" lon="1.51566">
        <ele>329.4</ele>
        <time>2021-08-09T09:14:11Z</time>
      </trkpt>
      <trkpt lat="44.52679" lon="1.51565">
        <ele>329.9</ele>
        <time>2021-08-09T09:14:12Z</time>
      </trkpt>
      <trkpt lat="44.52681" lon="1.51565">
        <ele>330.4</ele>
        <time>2021-08-09T09:14:14Z</time>
      </trkpt>
      <trkpt lat="44.52683" lon="1.51564">
        <ele>330.9</ele>
        <time>2021-08-09T09:14:16Z</time>
      </trkpt>
      <trkpt lat="44.52686" lon="1.51563">
        <ele>331.4</ele>
        <time>2021-08-09T09:14:17Z</time>
      </trkpt>
      <trkpt lat="44.52688" lon="1.51562">
        <ele>331.8</ele>
        <time>2021-08-09T09:14:19Z</time>
      </trkpt>
      <trkpt lat="44.5269" lon="1.51562">
        <ele>332.2</ele>
        <time>2021-08-09T09:14:20Z</time>
      </trkpt>
      <trkpt lat="44.52692" lon="1.51561">
        <ele>332.5</ele>
        <time>2021-08-09T09:14:21Z</time>
      </trkpt>
      <trkpt lat="44.52695" lon="1.5156">
        <ele>332.9</ele>
        <time>2021-08-09T09:14:22Z</time>
      </trkpt>
      <trkpt lat="44.52697" lon="1.51559">
        <ele>333.3</ele>
        <time>2021-08-09T09:15:05Z</time>
      </trkpt>
      <trkpt lat="44.52699" lon="1.51559">
        <ele>333.7</ele>
        <time>2021-08-09T09:15:06Z</time>
      </trkpt>
      <trkpt lat="44.52701" lon="1.51558">
        <ele>334</ele>
        <time>2021-08-09T09:15:07Z</time>
      </trkpt>
      <trkpt lat="44.52703" lon="1.51557">
        <ele>334.2</ele>
        <time>2021-08-09T09:15:08Z</time>
      </trkpt>
      <trkpt lat="44.52703" lon="1.51557">
        <ele>334.3</ele>
        <time>2021-08-09T09:15:09Z</time>
      </trkpt>
      <trkpt lat="44.52704" lon="1.51556">
        <ele>334.4</ele>
        <time>2021-08-09T09:15:11Z</time>
      </trkpt>
      <trkpt lat="44.52705" lon="1.51556">
        <ele>334.5</ele>
        <time>2021-08-09T09:15:12Z</time>
      </trkpt>
      <trkpt lat="44.52705" lon="1.51556">
        <ele>334.6</ele>
        <time>2021-08-09T09:15:13Z</time>
      </trkpt>
      <trkpt lat="44.52706" lon="1.51556">
        <ele>334.7</ele>
        <time>2021-08-09T09:15:14Z</time>
      </trkpt>
      <trkpt lat="44.52706" lon="1.51555">
        <ele>334.7</ele>
        <time>2021-08-09T09:15:16Z</time>
      </trkpt>
      <trkpt lat="44.52706" lon="1.51555">
        <ele>334.8</ele>
        <time>2021-08-09T09:15:17Z</time>
      </trkpt>
      <trkpt lat="44.52707" lon="1.51555">
        <ele>334.8</ele>
        <time>2021-08-09T09:15:19Z</time>
      </trkpt>
      <trkpt lat="44.52719" lon="1.51554">
        <ele>336.5</ele>
        <time>2021-08-09T09:15:40Z</time>
      </trkpt>
      <trkpt lat="44.52721" lon="1.51553">
        <ele>336.8</ele>
        <time>2021-08-09T09:15:41Z</time>
      </trkpt>
      <trkpt lat="44.52723" lon="1.51553">
        <ele>337.1</ele>
        <time>2021-08-09T09:15:43Z</time>
      </trkpt>
      <trkpt lat="44.52724" lon="1.51553">
        <ele>337.3</ele>
        <time>2021-08-09T09:15:44Z</time>
      </trkpt>
      <trkpt lat="44.52726" lon="1.51552">
        <ele>337.6</ele>
        <time>2021-08-09T09:15:46Z</time>
      </trkpt>
      <trkpt lat="44.52727" lon="1.51551">
        <ele>337.8</ele>
        <time>2021-08-09T09:15:48Z</time>
      </trkpt>
      <trkpt lat="44.52728" lon="1.51551">
        <ele>337.9</ele>
        <time>2021-08-09T09:15:50Z</time>
      </trkpt>
      <trkpt lat="44.52728" lon="1.51551">
        <ele>337.9</ele>
        <time>2021-08-09T09:15:51Z</time>
      </trkpt>
      <trkpt lat="44.52728" lon="1.51551">
        <ele>338</ele>
        <time>2021-08-09T09:15:52Z</time>
      </trkpt>
      <trkpt lat="44.52728" lon="1.51551">
        <ele>338</ele>
        <time>2021-08-09T09:15:53Z</time>
      </trkpt>
      <trkpt lat="44.52729" lon="1.5155">
        <ele>338.1</ele>
        <time>2021-08-09T09:15:54Z</time>
      </trkpt>
      <trkpt lat="44.52731" lon="1.51548">
        <ele>338.5</ele>
        <time>2021-08-09T09:15:56Z</time>
      </trkpt>
      <trkpt lat="44.52734" lon="1.51547">
        <ele>338.9</ele>
        <time>2021-08-09T09:15:58Z</time>
      </trkpt>
      <trkpt lat="44.52735" lon="1.51546">
        <ele>339.2</ele>
        <time>2021-08-09T09:16:00Z</time>
      </trkpt>
      <trkpt lat="44.52737" lon="1.51545">
        <ele>339.5</ele>
        <time>2021-08-09T09:16:01Z</time>
      </trkpt>
      <trkpt lat="44.5274" lon="1.51544">
        <ele>339.9</ele>
        <time>2021-08-09T09:16:02Z</time>
      </trkpt>
      <trkpt lat="44.52742" lon="1.51542">
        <ele>340.1</ele>
        <time>2021-08-09T09:16:03Z</time>
      </trkpt>
      <trkpt lat="44.52743" lon="1.51541">
        <ele>340.2</ele>
        <time>2021-08-09T09:16:05Z</time>
      </trkpt>
      <trkpt lat="44.52743" lon="1.51541">
        <ele>340.3</ele>
        <time>2021-08-09T09:16:06Z</time>
      </trkpt>
      <trkpt lat="44.52744" lon="1.5154">
        <ele>340.5</ele>
        <time>2021-08-09T09:16:07Z</time>
      </trkpt>
      <trkpt lat="44.52745" lon="1.51539">
        <ele>340.5</ele>
        <time>2021-08-09T09:16:08Z</time>
      </trkpt>
      <trkpt lat="44.52745" lon="1.51539">
        <ele>340.6</ele>
        <time>2021-08-09T09:16:10Z</time>
      </trkpt>
      <trkpt lat="44.52745" lon="1.51539">
        <ele>340.6</ele>
        <time>2021-08-09T09:16:11Z</time>
      </trkpt>
      <trkpt lat="44.52745" lon="1.51539">
        <ele>340.6</ele>
        <time>2021-08-09T09:16:12Z</time>
      </trkpt>
      <trkpt lat="44.52746" lon="1.51539">
        <ele>340.7</ele>
        <time>2021-08-09T09:16:15Z</time>
      </trkpt>
      <trkpt lat="44.52748" lon="1.51538">
        <ele>340.9</ele>
        <time>2021-08-09T09:16:16Z</time>
      </trkpt>
      <trkpt lat="44.5275" lon="1.51538">
        <ele>341.1</ele>
        <time>2021-08-09T09:16:17Z</time>
      </trkpt>
      <trkpt lat="44.52751" lon="1.51537">
        <ele>341.3</ele>
        <time>2021-08-09T09:16:18Z</time>
      </trkpt>
      <trkpt lat="44.52752" lon="1.51537">
        <ele>341.4</ele>
        <time>2021-08-09T09:16:19Z</time>
      </trkpt>
      <trkpt lat="44.52753" lon="1.51536">
        <ele>341.5</ele>
        <time>2021-08-09T09:16:20Z</time>
      </trkpt>
      <trkpt lat="44.52757" lon="1.51535">
        <ele>341.9</ele>
        <time>2021-08-09T09:16:22Z</time>
      </trkpt>
      <trkpt lat="44.52759" lon="1.51534">
        <ele>342.1</ele>
        <time>2021-08-09T09:16:23Z</time>
      </trkpt>
      <trkpt lat="44.52764" lon="1.51532">
        <ele>342.5</ele>
        <time>2021-08-09T09:16:24Z</time>
      </trkpt>
      <trkpt lat="44.52767" lon="1.51531">
        <ele>342.8</ele>
        <time>2021-08-09T09:16:25Z</time>
      </trkpt>
      <trkpt lat="44.5277" lon="1.51529">
        <ele>343</ele>
        <time>2021-08-09T09:16:27Z</time>
      </trkpt>
      <trkpt lat="44.52773" lon="1.51528">
        <ele>343.2</ele>
        <time>2021-08-09T09:16:29Z</time>
      </trkpt>
      <trkpt lat="44.52777" lon="1.51527">
        <ele>343.4</ele>
        <time>2021-08-09T09:16:31Z</time>
      </trkpt>
      <trkpt lat="44.5278" lon="1.51525">
        <ele>343.5</ele>
        <time>2021-08-09T09:16:32Z</time>
      </trkpt>
      <trkpt lat="44.52783" lon="1.51524">
        <ele>343.7</ele>
        <time>2021-08-09T09:17:09Z</time>
      </trkpt>
      <trkpt lat="44.52786" lon="1.51523">
        <ele>343.8</ele>
        <time>2021-08-09T09:17:10Z</time>
      </trkpt>
      <trkpt lat="44.5279" lon="1.51522">
        <ele>344</ele>
        <time>2021-08-09T09:17:11Z</time>
      </trkpt>
      <trkpt lat="44.52791" lon="1.5152">
        <ele>344</ele>
        <time>2021-08-09T09:17:12Z</time>
      </trkpt>
      <trkpt lat="44.52793" lon="1.51518">
        <ele>344.1</ele>
        <time>2021-08-09T09:17:14Z</time>
      </trkpt>
      <trkpt lat="44.52796" lon="1.51515">
        <ele>344.3</ele>
        <time>2021-08-09T09:17:15Z</time>
      </trkpt>
      <trkpt lat="44.52797" lon="1.51515">
        <ele>344.4</ele>
        <time>2021-08-09T09:17:16Z</time>
      </trkpt>
      <trkpt lat="44.52798" lon="1.51513">
        <ele>344.5</ele>
        <time>2021-08-09T09:17:17Z</time>
      </trkpt>
      <trkpt lat="44.52799" lon="1.51512">
        <ele>344.5</ele>
        <time>2021-08-09T09:17:18Z</time>
      </trkpt>
      <trkpt lat="44.52802" lon="1.51509">
        <ele>344.7</ele>
        <time>2021-08-09T09:17:20Z</time>
      </trkpt>
      <trkpt lat="44.52803" lon="1.51508">
        <ele>344.8</ele>
        <time>2021-08-09T09:17:21Z</time>
      </trkpt>
      <trkpt lat="44.52804" lon="1.51507">
        <ele>344.9</ele>
        <time>2021-08-09T09:17:23Z</time>
      </trkpt>
      <trkpt lat="44.52805" lon="1.51507">
        <ele>344.9</ele>
        <time>2021-08-09T09:17:24Z</time>
      </trkpt>
      <trkpt lat="44.52806" lon="1.51506">
        <ele>345</ele>
        <time>2021-08-09T09:17:25Z</time>
      </trkpt>
      <trkpt lat="44.52809" lon="1.51503">
        <ele>345.1</ele>
        <time>2021-08-09T09:17:28Z</time>
      </trkpt>
      <trkpt lat="44.5281" lon="1.51501">
        <ele>345.3</ele>
        <time>2021-08-09T09:17:29Z</time>
      </trkpt>
      <trkpt lat="44.52812" lon="1.51503">
        <ele>345.3</ele>
        <time>2021-08-09T09:17:31Z</time>
      </trkpt>
      <trkpt lat="44.52813" lon="1.51507">
        <ele>345.4</ele>
        <time>2021-08-09T09:17:33Z</time>
      </trkpt>
      <trkpt lat="44.52815" lon="1.51509">
        <ele>345.5</ele>
        <time>2021-08-09T09:17:35Z</time>
      </trkpt>
      <trkpt lat="44.52817" lon="1.51514">
        <ele>345.7</ele>
        <time>2021-08-09T09:17:38Z</time>
      </trkpt>
      <trkpt lat="44.52818" lon="1.51517">
        <ele>345.8</ele>
        <time>2021-08-09T09:17:40Z</time>
      </trkpt>
      <trkpt lat="44.52819" lon="1.51521">
        <ele>345.9</ele>
        <time>2021-08-09T09:17:42Z</time>
      </trkpt>
      <trkpt lat="44.52819" lon="1.51523">
        <ele>346</ele>
        <time>2021-08-09T09:17:43Z</time>
      </trkpt>
      <trkpt lat="44.5282" lon="1.51524">
        <ele>346</ele>
        <time>2021-08-09T09:17:44Z</time>
      </trkpt>
      <trkpt lat="44.5282" lon="1.51528">
        <ele>346.1</ele>
        <time>2021-08-09T09:17:46Z</time>
      </trkpt>
      <trkpt lat="44.52822" lon="1.5153">
        <ele>346.2</ele>
        <time>2021-08-09T09:17:48Z</time>
      </trkpt>
      <trkpt lat="44.52823" lon="1.51533">
        <ele>346.3</ele>
        <time>2021-08-09T09:17:50Z</time>
      </trkpt>
      <trkpt lat="44.52823" lon="1.51535">
        <ele>346.3</ele>
        <time>2021-08-09T09:17:52Z</time>
      </trkpt>
      <trkpt lat="44.52823" lon="1.51535">
        <ele>346.3</ele>
        <time>2021-08-09T09:17:53Z</time>
      </trkpt>
      <trkpt lat="44.52822" lon="1.51536">
        <ele>346.3</ele>
        <time>2021-08-09T09:17:55Z</time>
      </trkpt>
      <trkpt lat="44.52822" lon="1.51536">
        <ele>346.3</ele>
        <time>2021-08-09T09:17:56Z</time>
      </trkpt>
      <trkpt lat="44.52822" lon="1.51537">
        <ele>346.3</ele>
        <time>2021-08-09T09:17:58Z</time>
      </trkpt>
      <trkpt lat="44.52822" lon="1.51537">
        <ele>346.3</ele>
        <time>2021-08-09T09:17:59Z</time>
      </trkpt>
      <trkpt lat="44.52823" lon="1.51537">
        <ele>346.3</ele>
        <time>2021-08-09T09:18:01Z</time>
      </trkpt>
      <trkpt lat="44.52833" lon="1.51556">
        <ele>346.6</ele>
        <time>2021-08-09T09:21:53Z</time>
      </trkpt>
      <trkpt lat="44.52834" lon="1.51559">
        <ele>346.6</ele>
        <time>2021-08-09T09:21:54Z</time>
      </trkpt>
      <trkpt lat="44.52835" lon="1.51564">
        <ele>346.6</ele>
        <time>2021-08-09T09:21:56Z</time>
      </trkpt>
      <trkpt lat="44.52837" lon="1.5157">
        <ele>346.7</ele>
        <time>2021-08-09T09:21:58Z</time>
      </trkpt>
      <trkpt lat="44.52838" lon="1.51572">
        <ele>346.7</ele>
        <time>2021-08-09T09:21:59Z</time>
      </trkpt>
      <trkpt lat="44.5284" lon="1.51578">
        <ele>346.7</ele>
        <time>2021-08-09T09:22:01Z</time>
      </trkpt>
      <trkpt lat="44.52841" lon="1.5158">
        <ele>346.7</ele>
        <time>2021-08-09T09:22:02Z</time>
      </trkpt>
      <trkpt lat="44.52843" lon="1.51586">
        <ele>346.6</ele>
        <time>2021-08-09T09:22:04Z</time>
      </trkpt>
      <trkpt lat="44.52845" lon="1.51588">
        <ele>346.6</ele>
        <time>2021-08-09T09:22:05Z</time>
      </trkpt>
      <trkpt lat="44.52847" lon="1.51592">
        <ele>346.6</ele>
        <time>2021-08-09T09:22:07Z</time>
      </trkpt>
      <trkpt lat="44.52848" lon="1.51595">
        <ele>346.6</ele>
        <time>2021-08-09T09:22:08Z</time>
      </trkpt>
      <trkpt lat="44.5285" lon="1.51598">
        <ele>346.5</ele>
        <time>2021-08-09T09:22:10Z</time>
      </trkpt>
      <trkpt lat="44.52853" lon="1.51604">
        <ele>346.5</ele>
        <time>2021-08-09T09:22:12Z</time>
      </trkpt>
      <trkpt lat="44.52856" lon="1.51606">
        <ele>346.4</ele>
        <time>2021-08-09T09:22:13Z</time>
      </trkpt>
      <trkpt lat="44.52857" lon="1.51608">
        <ele>346.4</ele>
        <time>2021-08-09T09:22:14Z</time>
      </trkpt>
      <trkpt lat="44.5286" lon="1.51612">
        <ele>346.4</ele>
        <time>2021-08-09T09:22:16Z</time>
      </trkpt>
      <trkpt lat="44.52862" lon="1.51616">
        <ele>346.3</ele>
        <time>2021-08-09T09:22:17Z</time>
      </trkpt>
      <trkpt lat="44.52865" lon="1.51619">
        <ele>346.2</ele>
        <time>2021-08-09T09:22:19Z</time>
      </trkpt>
      <trkpt lat="44.52867" lon="1.51623">
        <ele>346.2</ele>
        <time>2021-08-09T09:22:20Z</time>
      </trkpt>
      <trkpt lat="44.52868" lon="1.51626">
        <ele>346.1</ele>
        <time>2021-08-09T09:22:21Z</time>
      </trkpt>
      <trkpt lat="44.52871" lon="1.5163">
        <ele>346</ele>
        <time>2021-08-09T09:22:22Z</time>
      </trkpt>
      <trkpt lat="44.52872" lon="1.51631">
        <ele>346</ele>
        <time>2021-08-09T09:22:23Z</time>
      </trkpt>
      <trkpt lat="44.52875" lon="1.51635">
        <ele>345.9</ele>
        <time>2021-08-09T09:22:24Z</time>
      </trkpt>
      <trkpt lat="44.52877" lon="1.51639">
        <ele>345.7</ele>
        <time>2021-08-09T09:22:26Z</time>
      </trkpt>
      <trkpt lat="44.52878" lon="1.51643">
        <ele>345.7</ele>
        <time>2021-08-09T09:22:27Z</time>
      </trkpt>
      <trkpt lat="44.52882" lon="1.5165">
        <ele>345.4</ele>
        <time>2021-08-09T09:22:29Z</time>
      </trkpt>
      <trkpt lat="44.52883" lon="1.51654">
        <ele>345.3</ele>
        <time>2021-08-09T09:22:30Z</time>
      </trkpt>
      <trkpt lat="44.52885" lon="1.5166">
        <ele>345.2</ele>
        <time>2021-08-09T09:22:31Z</time>
      </trkpt>
      <trkpt lat="44.52888" lon="1.51665">
        <ele>345</ele>
        <time>2021-08-09T09:22:33Z</time>
      </trkpt>
      <trkpt lat="44.52891" lon="1.51673">
        <ele>344.8</ele>
        <time>2021-08-09T09:22:34Z</time>
      </trkpt>
      <trkpt lat="44.52895" lon="1.51683">
        <ele>344.5</ele>
        <time>2021-08-09T09:22:36Z</time>
      </trkpt>
      <trkpt lat="44.52899" lon="1.51694">
        <ele>344.2</ele>
        <time>2021-08-09T09:22:38Z</time>
      </trkpt>
      <trkpt lat="44.52902" lon="1.51705">
        <ele>344</ele>
        <time>2021-08-09T09:22:40Z</time>
      </trkpt>
      <trkpt lat="44.52901" lon="1.51713">
        <ele>343.7</ele>
        <time>2021-08-09T09:22:41Z</time>
      </trkpt>
      <trkpt lat="44.529" lon="1.5172">
        <ele>343.5</ele>
        <time>2021-08-09T09:22:42Z</time>
      </trkpt>
      <trkpt lat="44.52894" lon="1.51732">
        <ele>343.1</ele>
        <time>2021-08-09T09:22:44Z</time>
      </trkpt>
      <trkpt lat="44.52889" lon="1.51746">
        <ele>342.7</ele>
        <time>2021-08-09T09:22:46Z</time>
      </trkpt>
      <trkpt lat="44.52884" lon="1.51761">
        <ele>342.4</ele>
        <time>2021-08-09T09:22:48Z</time>
      </trkpt>
      <trkpt lat="44.52881" lon="1.51776">
        <ele>342.2</ele>
        <time>2021-08-09T09:22:50Z</time>
      </trkpt>
      <trkpt lat="44.52876" lon="1.51788">
        <ele>342.2</ele>
        <time>2021-08-09T09:22:52Z</time>
      </trkpt>
      <trkpt lat="44.5287" lon="1.51798">
        <ele>342.1</ele>
        <time>2021-08-09T09:22:54Z</time>
      </trkpt>
      <trkpt lat="44.52868" lon="1.51801">
        <ele>342.1</ele>
        <time>2021-08-09T09:22:55Z</time>
      </trkpt>
      <trkpt lat="44.52865" lon="1.51804">
        <ele>342.1</ele>
        <time>2021-08-09T09:22:56Z</time>
      </trkpt>
      <trkpt lat="44.52859" lon="1.51807">
        <ele>342.2</ele>
        <time>2021-08-09T09:22:58Z</time>
      </trkpt>
      <trkpt lat="44.52855" lon="1.51809">
        <ele>342.2</ele>
        <time>2021-08-09T09:22:59Z</time>
      </trkpt>
      <trkpt lat="44.52858" lon="1.5181">
        <ele>342.3</ele>
        <time>2021-08-09T09:23:01Z</time>
      </trkpt>
      <trkpt lat="44.52853" lon="1.51812">
        <ele>342.3</ele>
        <time>2021-08-09T09:23:02Z</time>
      </trkpt>
      <trkpt lat="44.52846" lon="1.51816">
        <ele>342.4</ele>
        <time>2021-08-09T09:23:04Z</time>
      </trkpt>
      <trkpt lat="44.52841" lon="1.51817">
        <ele>342.4</ele>
        <time>2021-08-09T09:23:05Z</time>
      </trkpt>
      <trkpt lat="44.52834" lon="1.5182">
        <ele>342.5</ele>
        <time>2021-08-09T09:23:07Z</time>
      </trkpt>
      <trkpt lat="44.52829" lon="1.51823">
        <ele>342.6</ele>
        <time>2021-08-09T09:23:08Z</time>
      </trkpt>
      <trkpt lat="44.52825" lon="1.51826">
        <ele>342.6</ele>
        <time>2021-08-09T09:23:10Z</time>
      </trkpt>
      <trkpt lat="44.5282" lon="1.5183">
        <ele>342.7</ele>
        <time>2021-08-09T09:23:12Z</time>
      </trkpt>
      <trkpt lat="44.52817" lon="1.51832">
        <ele>342.7</ele>
        <time>2021-08-09T09:23:13Z</time>
      </trkpt>
      <trkpt lat="44.52815" lon="1.51834">
        <ele>342.7</ele>
        <time>2021-08-09T09:23:14Z</time>
      </trkpt>
      <trkpt lat="44.5281" lon="1.51837">
        <ele>342.8</ele>
        <time>2021-08-09T09:23:16Z</time>
      </trkpt>
      <trkpt lat="44.52807" lon="1.51839">
        <ele>342.8</ele>
        <time>2021-08-09T09:23:17Z</time>
      </trkpt>
      <trkpt lat="44.52802" lon="1.51842">
        <ele>342.9</ele>
        <time>2021-08-09T09:23:19Z</time>
      </trkpt>
      <trkpt lat="44.52799" lon="1.51844">
        <ele>342.9</ele>
        <time>2021-08-09T09:23:20Z</time>
      </trkpt>
      <trkpt lat="44.52795" lon="1.51847">
        <ele>342.9</ele>
        <time>2021-08-09T09:23:21Z</time>
      </trkpt>
      <trkpt lat="44.52791" lon="1.51851">
        <ele>342.9</ele>
        <time>2021-08-09T09:23:23Z</time>
      </trkpt>
      <trkpt lat="44.52786" lon="1.51853">
        <ele>342.9</ele>
        <time>2021-08-09T09:23:25Z</time>
      </trkpt>
      <trkpt lat="44.52784" lon="1.51853">
        <ele>342.9</ele>
        <time>2021-08-09T09:23:26Z</time>
      </trkpt>
      <trkpt lat="44.5278" lon="1.51855">
        <ele>342.9</ele>
        <time>2021-08-09T09:23:28Z</time>
      </trkpt>
      <trkpt lat="44.52776" lon="1.51856">
        <ele>342.9</ele>
        <time>2021-08-09T09:23:29Z</time>
      </trkpt>
      <trkpt lat="44.52773" lon="1.51856">
        <ele>342.9</ele>
        <time>2021-08-09T09:23:30Z</time>
      </trkpt>
      <trkpt lat="44.52768" lon="1.51857">
        <ele>342.9</ele>
        <time>2021-08-09T09:23:32Z</time>
      </trkpt>
      <trkpt lat="44.52764" lon="1.51857">
        <ele>342.9</ele>
        <time>2021-08-09T09:23:34Z</time>
      </trkpt>
      <trkpt lat="44.52761" lon="1.51857">
        <ele>342.9</ele>
        <time>2021-08-09T09:23:35Z</time>
      </trkpt>
      <trkpt lat="44.52756" lon="1.5186">
        <ele>342.9</ele>
        <time>2021-08-09T09:23:36Z</time>
      </trkpt>
      <trkpt lat="44.52751" lon="1.51862">
        <ele>342.9</ele>
        <time>2021-08-09T09:23:38Z</time>
      </trkpt>
      <trkpt lat="44.52746" lon="1.51864">
        <ele>342.9</ele>
        <time>2021-08-09T09:23:40Z</time>
      </trkpt>
      <trkpt lat="44.52741" lon="1.51866">
        <ele>342.9</ele>
        <time>2021-08-09T09:23:42Z</time>
      </trkpt>
      <trkpt lat="44.52737" lon="1.51868">
        <ele>342.9</ele>
        <time>2021-08-09T09:23:43Z</time>
      </trkpt>
      <trkpt lat="44.52734" lon="1.5187">
        <ele>342.9</ele>
        <time>2021-08-09T09:23:44Z</time>
      </trkpt>
      <trkpt lat="44.52731" lon="1.51871">
        <ele>342.9</ele>
        <time>2021-08-09T09:23:45Z</time>
      </trkpt>
      <trkpt lat="44.52726" lon="1.51872">
        <ele>342.9</ele>
        <time>2021-08-09T09:23:47Z</time>
      </trkpt>
      <trkpt lat="44.52722" lon="1.51873">
        <ele>342.8</ele>
        <time>2021-08-09T09:23:48Z</time>
      </trkpt>
      <trkpt lat="44.52719" lon="1.51874">
        <ele>342.8</ele>
        <time>2021-08-09T09:23:49Z</time>
      </trkpt>
      <trkpt lat="44.52716" lon="1.51874">
        <ele>342.8</ele>
        <time>2021-08-09T09:23:50Z</time>
      </trkpt>
      <trkpt lat="44.5271" lon="1.51876">
        <ele>342.7</ele>
        <time>2021-08-09T09:23:52Z</time>
      </trkpt>
      <trkpt lat="44.52707" lon="1.51877">
        <ele>342.6</ele>
        <time>2021-08-09T09:23:53Z</time>
      </trkpt>
      <trkpt lat="44.52704" lon="1.51878">
        <ele>342.6</ele>
        <time>2021-08-09T09:23:54Z</time>
      </trkpt>
      <trkpt lat="44.52699" lon="1.51878">
        <ele>342.5</ele>
        <time>2021-08-09T09:23:56Z</time>
      </trkpt>
      <trkpt lat="44.52696" lon="1.51881">
        <ele>342.4</ele>
        <time>2021-08-09T09:23:57Z</time>
      </trkpt>
      <trkpt lat="44.52691" lon="1.51885">
        <ele>342.3</ele>
        <time>2021-08-09T09:23:59Z</time>
      </trkpt>
      <trkpt lat="44.52686" lon="1.51887">
        <ele>342.2</ele>
        <time>2021-08-09T09:24:00Z</time>
      </trkpt>
      <trkpt lat="44.52683" lon="1.51888">
        <ele>342.1</ele>
        <time>2021-08-09T09:24:01Z</time>
      </trkpt>
      <trkpt lat="44.52679" lon="1.5189">
        <ele>342</ele>
        <time>2021-08-09T09:24:02Z</time>
      </trkpt>
      <trkpt lat="44.52674" lon="1.51894">
        <ele>341.9</ele>
        <time>2021-08-09T09:24:04Z</time>
      </trkpt>
      <trkpt lat="44.52669" lon="1.51897">
        <ele>341.8</ele>
        <time>2021-08-09T09:24:05Z</time>
      </trkpt>
      <trkpt lat="44.52666" lon="1.51899">
        <ele>341.8</ele>
        <time>2021-08-09T09:24:06Z</time>
      </trkpt>
      <trkpt lat="44.52662" lon="1.51901">
        <ele>341.7</ele>
        <time>2021-08-09T09:24:07Z</time>
      </trkpt>
      <trkpt lat="44.52655" lon="1.51903">
        <ele>341.6</ele>
        <time>2021-08-09T09:24:09Z</time>
      </trkpt>
      <trkpt lat="44.52649" lon="1.51905">
        <ele>341.5</ele>
        <time>2021-08-09T09:24:10Z</time>
      </trkpt>
      <trkpt lat="44.52642" lon="1.51905">
        <ele>341.3</ele>
        <time>2021-08-09T09:24:12Z</time>
      </trkpt>
      <trkpt lat="44.52638" lon="1.51907">
        <ele>341.3</ele>
        <time>2021-08-09T09:24:13Z</time>
      </trkpt>
      <trkpt lat="44.52632" lon="1.51908">
        <ele>341.2</ele>
        <time>2021-08-09T09:24:14Z</time>
      </trkpt>
      <trkpt lat="44.52623" lon="1.51908">
        <ele>341</ele>
        <time>2021-08-09T09:24:16Z</time>
      </trkpt>
      <trkpt lat="44.52614" lon="1.51909">
        <ele>340.9</ele>
        <time>2021-08-09T09:24:18Z</time>
      </trkpt>
      <trkpt lat="44.52605" lon="1.51915">
        <ele>340.7</ele>
        <time>2021-08-09T09:24:20Z</time>
      </trkpt>
      <trkpt lat="44.52597" lon="1.51921">
        <ele>340.6</ele>
        <time>2021-08-09T09:24:22Z</time>
      </trkpt>
      <trkpt lat="44.5259" lon="1.51924">
        <ele>340.5</ele>
        <time>2021-08-09T09:24:24Z</time>
      </trkpt>
      <trkpt lat="44.52587" lon="1.51923">
        <ele>340.5</ele>
        <time>2021-08-09T09:24:25Z</time>
      </trkpt>
      <trkpt lat="44.52582" lon="1.51927">
        <ele>340.4</ele>
        <time>2021-08-09T09:24:26Z</time>
      </trkpt>
      <trkpt lat="44.52575" lon="1.51933">
        <ele>340.3</ele>
        <time>2021-08-09T09:24:28Z</time>
      </trkpt>
      <trkpt lat="44.52571" lon="1.51937">
        <ele>340.2</ele>
        <time>2021-08-09T09:24:29Z</time>
      </trkpt>
      <trkpt lat="44.52566" lon="1.51941">
        <ele>340.1</ele>
        <time>2021-08-09T09:24:30Z</time>
      </trkpt>
      <trkpt lat="44.52562" lon="1.51944">
        <ele>340</ele>
        <time>2021-08-09T09:24:32Z</time>
      </trkpt>
      <trkpt lat="44.52558" lon="1.51947">
        <ele>339.9</ele>
        <time>2021-08-09T09:24:33Z</time>
      </trkpt>
      <trkpt lat="44.52553" lon="1.51949">
        <ele>339.7</ele>
        <time>2021-08-09T09:24:34Z</time>
      </trkpt>
      <trkpt lat="44.52549" lon="1.5195">
        <ele>339.6</ele>
        <time>2021-08-09T09:24:35Z</time>
      </trkpt>
      <trkpt lat="44.52544" lon="1.51951">
        <ele>339.4</ele>
        <time>2021-08-09T09:24:37Z</time>
      </trkpt>
      <trkpt lat="44.52542" lon="1.51952">
        <ele>339.3</ele>
        <time>2021-08-09T09:24:38Z</time>
      </trkpt>
      <trkpt lat="44.52538" lon="1.51952">
        <ele>339.1</ele>
        <time>2021-08-09T09:24:40Z</time>
      </trkpt>
      <trkpt lat="44.52533" lon="1.51952">
        <ele>338.9</ele>
        <time>2021-08-09T09:24:41Z</time>
      </trkpt>
      <trkpt lat="44.52529" lon="1.51952">
        <ele>338.7</ele>
        <time>2021-08-09T09:24:42Z</time>
      </trkpt>
      <trkpt lat="44.52524" lon="1.51952">
        <ele>338.5</ele>
        <time>2021-08-09T09:24:43Z</time>
      </trkpt>
      <trkpt lat="44.5252" lon="1.51953">
        <ele>338.5</ele>
        <time>2021-08-09T09:24:45Z</time>
      </trkpt>
      <trkpt lat="44.52519" lon="1.51953">
        <ele>338.6</ele>
        <time>2021-08-09T09:24:46Z</time>
      </trkpt>
      <trkpt lat="44.52518" lon="1.51954">
        <ele>338.6</ele>
        <time>2021-08-09T09:24:47Z</time>
      </trkpt>
      <trkpt lat="44.52518" lon="1.51954">
        <ele>338.6</ele>
        <time>2021-08-09T09:24:49Z</time>
      </trkpt>
      <trkpt lat="44.52518" lon="1.51954">
        <ele>338.6</ele>
        <time>2021-08-09T09:24:50Z</time>
      </trkpt>
      <trkpt lat="44.52519" lon="1.51954">
        <ele>338.6</ele>
        <time>2021-08-09T09:24:52Z</time>
      </trkpt>
      <trkpt lat="44.5252" lon="1.51954">
        <ele>338.7</ele>
        <time>2021-08-09T09:24:53Z</time>
      </trkpt>
      <trkpt lat="44.5252" lon="1.51954">
        <ele>338.7</ele>
        <time>2021-08-09T09:24:55Z</time>
      </trkpt>
      <trkpt lat="44.5252" lon="1.51954">
        <ele>338.7</ele>
        <time>2021-08-09T09:24:56Z</time>
      </trkpt>
      <trkpt lat="44.52523" lon="1.51954">
        <ele>338.8</ele>
        <time>2021-08-09T09:25:24Z</time>
      </trkpt>
      <trkpt lat="44.52526" lon="1.51955">
        <ele>338.9</ele>
        <time>2021-08-09T09:25:26Z</time>
      </trkpt>
      <trkpt lat="44.52529" lon="1.51955">
        <ele>339</ele>
        <time>2021-08-09T09:25:27Z</time>
      </trkpt>
      <trkpt lat="44.52532" lon="1.51954">
        <ele>339.1</ele>
        <time>2021-08-09T09:25:29Z</time>
      </trkpt>
      <trkpt lat="44.52537" lon="1.51954">
        <ele>339.3</ele>
        <time>2021-08-09T09:25:31Z</time>
      </trkpt>
      <trkpt lat="44.52539" lon="1.51953">
        <ele>339.4</ele>
        <time>2021-08-09T09:25:32Z</time>
      </trkpt>
      <trkpt lat="44.52545" lon="1.51952">
        <ele>339.5</ele>
        <time>2021-08-09T09:25:34Z</time>
      </trkpt>
      <trkpt lat="44.52547" lon="1.51951">
        <ele>339.6</ele>
        <time>2021-08-09T09:25:35Z</time>
      </trkpt>
      <trkpt lat="44.52552" lon="1.51949">
        <ele>339.8</ele>
        <time>2021-08-09T09:25:37Z</time>
      </trkpt>
      <trkpt lat="44.52556" lon="1.51948">
        <ele>339.9</ele>
        <time>2021-08-09T09:25:39Z</time>
      </trkpt>
      <trkpt lat="44.52559" lon="1.51946">
        <ele>340</ele>
        <time>2021-08-09T09:25:40Z</time>
      </trkpt>
      <trkpt lat="44.52563" lon="1.51943">
        <ele>340</ele>
        <time>2021-08-09T09:25:41Z</time>
      </trkpt>
      <trkpt lat="44.52566" lon="1.5194">
        <ele>340.1</ele>
        <time>2021-08-09T09:25:43Z</time>
      </trkpt>
      <trkpt lat="44.52569" lon="1.51938">
        <ele>340.2</ele>
        <time>2021-08-09T09:25:44Z</time>
      </trkpt>
      <trkpt lat="44.52571" lon="1.51938">
        <ele>340.2</ele>
        <time>2021-08-09T09:25:45Z</time>
      </trkpt>
      <trkpt lat="44.52575" lon="1.51936">
        <ele>340.3</ele>
        <time>2021-08-09T09:25:47Z</time>
      </trkpt>
      <trkpt lat="44.52578" lon="1.51935">
        <ele>340.4</ele>
        <time>2021-08-09T09:25:48Z</time>
      </trkpt>
      <trkpt lat="44.52583" lon="1.51932">
        <ele>340.4</ele>
        <time>2021-08-09T09:25:50Z</time>
      </trkpt>
      <trkpt lat="44.52586" lon="1.5193">
        <ele>340.5</ele>
        <time>2021-08-09T09:25:51Z</time>
      </trkpt>
      <trkpt lat="44.52588" lon="1.51929">
        <ele>340.5</ele>
        <time>2021-08-09T09:25:52Z</time>
      </trkpt>
      <trkpt lat="44.52594" lon="1.51923">
        <ele>340.6</ele>
        <time>2021-08-09T09:25:54Z</time>
      </trkpt>
      <trkpt lat="44.526" lon="1.51918">
        <ele>340.6</ele>
        <time>2021-08-09T09:25:56Z</time>
      </trkpt>
      <trkpt lat="44.52605" lon="1.51914">
        <ele>340.7</ele>
        <time>2021-08-09T09:25:58Z</time>
      </trkpt>
      <trkpt lat="44.52611" lon="1.51911">
        <ele>340.8</ele>
        <time>2021-08-09T09:26:00Z</time>
      </trkpt>
      <trkpt lat="44.52615" lon="1.5191">
        <ele>340.9</ele>
        <time>2021-08-09T09:26:01Z</time>
      </trkpt>
      <trkpt lat="44.52621" lon="1.51909">
        <ele>341</ele>
        <time>2021-08-09T09:26:03Z</time>
      </trkpt>
      <trkpt lat="44.52625" lon="1.51908">
        <ele>341</ele>
        <time>2021-08-09T09:26:04Z</time>
      </trkpt>
      <trkpt lat="44.52628" lon="1.51908">
        <ele>341.1</ele>
        <time>2021-08-09T09:26:05Z</time>
      </trkpt>
      <trkpt lat="44.52631" lon="1.51908">
        <ele>341.2</ele>
        <time>2021-08-09T09:26:06Z</time>
      </trkpt>
      <trkpt lat="44.52638" lon="1.51908">
        <ele>341.3</ele>
        <time>2021-08-09T09:26:08Z</time>
      </trkpt>
      <trkpt lat="44.52643" lon="1.51907">
        <ele>341.4</ele>
        <time>2021-08-09T09:26:10Z</time>
      </trkpt>
      <trkpt lat="44.52649" lon="1.51906">
        <ele>341.5</ele>
        <time>2021-08-09T09:26:12Z</time>
      </trkpt>
      <trkpt lat="44.52652" lon="1.51904">
        <ele>341.5</ele>
        <time>2021-08-09T09:26:13Z</time>
      </trkpt>
      <trkpt lat="44.52655" lon="1.51902">
        <ele>341.6</ele>
        <time>2021-08-09T09:26:14Z</time>
      </trkpt>
      <trkpt lat="44.52659" lon="1.519">
        <ele>341.7</ele>
        <time>2021-08-09T09:26:16Z</time>
      </trkpt>
      <trkpt lat="44.52664" lon="1.51898">
        <ele>341.7</ele>
        <time>2021-08-09T09:26:17Z</time>
      </trkpt>
      <trkpt lat="44.52669" lon="1.51896">
        <ele>341.8</ele>
        <time>2021-08-09T09:26:19Z</time>
      </trkpt>
      <trkpt lat="44.52673" lon="1.51893">
        <ele>341.9</ele>
        <time>2021-08-09T09:26:20Z</time>
      </trkpt>
      <trkpt lat="44.52679" lon="1.5189">
        <ele>342</ele>
        <time>2021-08-09T09:26:22Z</time>
      </trkpt>
      <trkpt lat="44.52683" lon="1.51888">
        <ele>342.1</ele>
        <time>2021-08-09T09:26:24Z</time>
      </trkpt>
      <trkpt lat="44.52687" lon="1.51886">
        <ele>342.2</ele>
        <time>2021-08-09T09:26:25Z</time>
      </trkpt>
      <trkpt lat="44.5269" lon="1.51884">
        <ele>342.3</ele>
        <time>2021-08-09T09:26:26Z</time>
      </trkpt>
      <trkpt lat="44.52697" lon="1.51882">
        <ele>342.4</ele>
        <time>2021-08-09T09:26:28Z</time>
      </trkpt>
      <trkpt lat="44.52701" lon="1.5188">
        <ele>342.5</ele>
        <time>2021-08-09T09:26:29Z</time>
      </trkpt>
      <trkpt lat="44.52708" lon="1.51877">
        <ele>342.6</ele>
        <time>2021-08-09T09:26:31Z</time>
      </trkpt>
      <trkpt lat="44.52715" lon="1.51875">
        <ele>342.7</ele>
        <time>2021-08-09T09:26:33Z</time>
      </trkpt>
      <trkpt lat="44.52719" lon="1.51874">
        <ele>342.8</ele>
        <time>2021-08-09T09:26:34Z</time>
      </trkpt>
      <trkpt lat="44.52722" lon="1.51873">
        <ele>342.8</ele>
        <time>2021-08-09T09:26:35Z</time>
      </trkpt>
      <trkpt lat="44.52726" lon="1.51872">
        <ele>342.9</ele>
        <time>2021-08-09T09:26:36Z</time>
      </trkpt>
      <trkpt lat="44.52729" lon="1.51871">
        <ele>342.9</ele>
        <time>2021-08-09T09:26:37Z</time>
      </trkpt>
      <trkpt lat="44.52733" lon="1.5187">
        <ele>342.9</ele>
        <time>2021-08-09T09:26:38Z</time>
      </trkpt>
      <trkpt lat="44.52738" lon="1.51868">
        <ele>342.9</ele>
        <time>2021-08-09T09:26:39Z</time>
      </trkpt>
      <trkpt lat="44.52742" lon="1.51866">
        <ele>342.9</ele>
        <time>2021-08-09T09:26:41Z</time>
      </trkpt>
      <trkpt lat="44.52746" lon="1.51865">
        <ele>342.9</ele>
        <time>2021-08-09T09:26:42Z</time>
      </trkpt>
      <trkpt lat="44.5275" lon="1.51863">
        <ele>342.9</ele>
        <time>2021-08-09T09:26:43Z</time>
      </trkpt>
      <trkpt lat="44.52754" lon="1.51862">
        <ele>342.9</ele>
        <time>2021-08-09T09:26:44Z</time>
      </trkpt>
      <trkpt lat="44.5276" lon="1.51859">
        <ele>342.9</ele>
        <time>2021-08-09T09:26:46Z</time>
      </trkpt>
      <trkpt lat="44.52763" lon="1.51857">
        <ele>342.9</ele>
        <time>2021-08-09T09:26:47Z</time>
      </trkpt>
      <trkpt lat="44.52766" lon="1.51856">
        <ele>342.9</ele>
        <time>2021-08-09T09:26:48Z</time>
      </trkpt>
      <trkpt lat="44.5277" lon="1.51855">
        <ele>342.9</ele>
        <time>2021-08-09T09:26:49Z</time>
      </trkpt>
      <trkpt lat="44.52773" lon="1.51853">
        <ele>342.9</ele>
        <time>2021-08-09T09:26:50Z</time>
      </trkpt>
      <trkpt lat="44.5278" lon="1.51852">
        <ele>342.9</ele>
        <time>2021-08-09T09:26:52Z</time>
      </trkpt>
      <trkpt lat="44.52783" lon="1.51851">
        <ele>342.9</ele>
        <time>2021-08-09T09:26:53Z</time>
      </trkpt>
      <trkpt lat="44.52788" lon="1.51851">
        <ele>342.9</ele>
        <time>2021-08-09T09:26:55Z</time>
      </trkpt>
      <trkpt lat="44.52791" lon="1.51849">
        <ele>342.9</ele>
        <time>2021-08-09T09:26:56Z</time>
      </trkpt>
      <trkpt lat="44.52795" lon="1.51847">
        <ele>342.9</ele>
        <time>2021-08-09T09:26:57Z</time>
      </trkpt>
      <trkpt lat="44.52798" lon="1.51844">
        <ele>342.9</ele>
        <time>2021-08-09T09:26:58Z</time>
      </trkpt>
      <trkpt lat="44.52802" lon="1.51842">
        <ele>342.8</ele>
        <time>2021-08-09T09:26:59Z</time>
      </trkpt>
      <trkpt lat="44.52805" lon="1.51839">
        <ele>342.8</ele>
        <time>2021-08-09T09:27:00Z</time>
      </trkpt>
      <trkpt lat="44.52812" lon="1.51834">
        <ele>342.8</ele>
        <time>2021-08-09T09:27:02Z</time>
      </trkpt>
      <trkpt lat="44.52819" lon="1.5183">
        <ele>342.7</ele>
        <time>2021-08-09T09:27:04Z</time>
      </trkpt>
      <trkpt lat="44.52826" lon="1.51826">
        <ele>342.6</ele>
        <time>2021-08-09T09:27:06Z</time>
      </trkpt>
      <trkpt lat="44.5283" lon="1.51823">
        <ele>342.5</ele>
        <time>2021-08-09T09:27:07Z</time>
      </trkpt>
      <trkpt lat="44.52837" lon="1.51819">
        <ele>342.5</ele>
        <time>2021-08-09T09:27:09Z</time>
      </trkpt>
      <trkpt lat="44.52841" lon="1.51816">
        <ele>342.4</ele>
        <time>2021-08-09T09:27:10Z</time>
      </trkpt>
      <trkpt lat="44.52844" lon="1.51814">
        <ele>342.4</ele>
        <time>2021-08-09T09:27:11Z</time>
      </trkpt>
      <trkpt lat="44.52848" lon="1.51812">
        <ele>342.3</ele>
        <time>2021-08-09T09:27:12Z</time>
      </trkpt>
      <trkpt lat="44.52855" lon="1.51809">
        <ele>342.3</ele>
        <time>2021-08-09T09:27:14Z</time>
      </trkpt>
      <trkpt lat="44.52862" lon="1.51807">
        <ele>342.2</ele>
        <time>2021-08-09T09:27:16Z</time>
      </trkpt>
      <trkpt lat="44.52865" lon="1.51806">
        <ele>342.2</ele>
        <time>2021-08-09T09:27:17Z</time>
      </trkpt>
      <trkpt lat="44.52871" lon="1.51806">
        <ele>342.2</ele>
        <time>2021-08-09T09:27:19Z</time>
      </trkpt>
      <trkpt lat="44.52874" lon="1.51806">
        <ele>342.2</ele>
        <time>2021-08-09T09:27:20Z</time>
      </trkpt>
      <trkpt lat="44.52877" lon="1.51807">
        <ele>342.2</ele>
        <time>2021-08-09T09:27:22Z</time>
      </trkpt>
      <trkpt lat="44.5288" lon="1.51809">
        <ele>342.2</ele>
        <time>2021-08-09T09:27:24Z</time>
      </trkpt>
      <trkpt lat="44.52882" lon="1.51808">
        <ele>342.2</ele>
        <time>2021-08-09T09:27:25Z</time>
      </trkpt>
      <trkpt lat="44.52883" lon="1.51808">
        <ele>342.2</ele>
        <time>2021-08-09T09:27:26Z</time>
      </trkpt>
      <trkpt lat="44.52885" lon="1.5181">
        <ele>342.2</ele>
        <time>2021-08-09T09:27:28Z</time>
      </trkpt>
      <trkpt lat="44.52887" lon="1.5181">
        <ele>342.2</ele>
        <time>2021-08-09T09:27:29Z</time>
      </trkpt>
      <trkpt lat="44.5289" lon="1.5181">
        <ele>342.2</ele>
        <time>2021-08-09T09:27:31Z</time>
      </trkpt>
      <trkpt lat="44.52893" lon="1.51811">
        <ele>342.3</ele>
        <time>2021-08-09T09:27:32Z</time>
      </trkpt>
      <trkpt lat="44.52897" lon="1.51813">
        <ele>342.3</ele>
        <time>2021-08-09T09:27:33Z</time>
      </trkpt>
      <trkpt lat="44.52902" lon="1.51815">
        <ele>342.3</ele>
        <time>2021-08-09T09:27:35Z</time>
      </trkpt>
      <trkpt lat="44.52905" lon="1.51815">
        <ele>342.4</ele>
        <time>2021-08-09T09:27:36Z</time>
      </trkpt>
      <trkpt lat="44.52908" lon="1.51815">
        <ele>342.4</ele>
        <time>2021-08-09T09:27:37Z</time>
      </trkpt>
      <trkpt lat="44.52912" lon="1.51815">
        <ele>342.4</ele>
        <time>2021-08-09T09:27:38Z</time>
      </trkpt>
      <trkpt lat="44.52916" lon="1.51817">
        <ele>342.5</ele>
        <time>2021-08-09T09:27:39Z</time>
      </trkpt>
      <trkpt lat="44.5292" lon="1.51817">
        <ele>342.5</ele>
        <time>2021-08-09T09:27:41Z</time>
      </trkpt>
      <trkpt lat="44.52924" lon="1.51818">
        <ele>342.6</ele>
        <time>2021-08-09T09:27:42Z</time>
      </trkpt>
      <trkpt lat="44.52927" lon="1.51817">
        <ele>342.6</ele>
        <time>2021-08-09T09:27:43Z</time>
      </trkpt>
      <trkpt lat="44.52931" lon="1.51816">
        <ele>342.6</ele>
        <time>2021-08-09T09:27:44Z</time>
      </trkpt>
      <trkpt lat="44.52934" lon="1.51816">
        <ele>342.7</ele>
        <time>2021-08-09T09:27:45Z</time>
      </trkpt>
      <trkpt lat="44.52939" lon="1.51815">
        <ele>342.7</ele>
        <time>2021-08-09T09:27:47Z</time>
      </trkpt>
      <trkpt lat="44.52942" lon="1.51814">
        <ele>342.8</ele>
        <time>2021-08-09T09:27:48Z</time>
      </trkpt>
      <trkpt lat="44.52949" lon="1.51812">
        <ele>342.9</ele>
        <time>2021-08-09T09:27:50Z</time>
      </trkpt>
      <trkpt lat="44.52952" lon="1.51811">
        <ele>342.9</ele>
        <time>2021-08-09T09:27:51Z</time>
      </trkpt>
      <trkpt lat="44.52956" lon="1.5181">
        <ele>343</ele>
        <time>2021-08-09T09:27:53Z</time>
      </trkpt>
      <trkpt lat="44.5296" lon="1.51809">
        <ele>343.1</ele>
        <time>2021-08-09T09:27:54Z</time>
      </trkpt>
      <trkpt lat="44.52963" lon="1.51808">
        <ele>343.1</ele>
        <time>2021-08-09T09:27:55Z</time>
      </trkpt>
      <trkpt lat="44.52967" lon="1.51808">
        <ele>343.2</ele>
        <time>2021-08-09T09:27:56Z</time>
      </trkpt>
      <trkpt lat="44.52972" lon="1.51807">
        <ele>343.4</ele>
        <time>2021-08-09T09:27:58Z</time>
      </trkpt>
      <trkpt lat="44.52976" lon="1.51806">
        <ele>343.5</ele>
        <time>2021-08-09T09:28:00Z</time>
      </trkpt>
      <trkpt lat="44.52979" lon="1.51804">
        <ele>343.6</ele>
        <time>2021-08-09T09:28:01Z</time>
      </trkpt>
      <trkpt lat="44.5298" lon="1.51803">
        <ele>343.6</ele>
        <time>2021-08-09T09:28:02Z</time>
      </trkpt>
      <trkpt lat="44.52984" lon="1.51804">
        <ele>343.7</ele>
        <time>2021-08-09T09:28:04Z</time>
      </trkpt>
      <trkpt lat="44.52988" lon="1.51805">
        <ele>343.7</ele>
        <time>2021-08-09T09:28:06Z</time>
      </trkpt>
      <trkpt lat="44.52991" lon="1.51807">
        <ele>343.7</ele>
        <time>2021-08-09T09:28:07Z</time>
      </trkpt>
      <trkpt lat="44.52994" lon="1.51809">
        <ele>343.7</ele>
        <time>2021-08-09T09:28:08Z</time>
      </trkpt>
      <trkpt lat="44.52998" lon="1.51813">
        <ele>343.7</ele>
        <time>2021-08-09T09:28:10Z</time>
      </trkpt>
      <trkpt lat="44.53001" lon="1.51817">
        <ele>343.7</ele>
        <time>2021-08-09T09:28:11Z</time>
      </trkpt>
      <trkpt lat="44.53006" lon="1.51821">
        <ele>343.7</ele>
        <time>2021-08-09T09:28:13Z</time>
      </trkpt>
      <trkpt lat="44.5301" lon="1.51826">
        <ele>343.6</ele>
        <time>2021-08-09T09:28:14Z</time>
      </trkpt>
      <trkpt lat="44.53016" lon="1.51831">
        <ele>343.6</ele>
        <time>2021-08-09T09:28:16Z</time>
      </trkpt>
      <trkpt lat="44.53019" lon="1.51835">
        <ele>343.6</ele>
        <time>2021-08-09T09:28:17Z</time>
      </trkpt>
      <trkpt lat="44.53023" lon="1.51839">
        <ele>343.6</ele>
        <time>2021-08-09T09:28:19Z</time>
      </trkpt>
      <trkpt lat="44.53028" lon="1.51844">
        <ele>343.6</ele>
        <time>2021-08-09T09:28:20Z</time>
      </trkpt>
      <trkpt lat="44.53034" lon="1.5185">
        <ele>343.5</ele>
        <time>2021-08-09T09:28:22Z</time>
      </trkpt>
      <trkpt lat="44.53037" lon="1.51854">
        <ele>343.5</ele>
        <time>2021-08-09T09:28:23Z</time>
      </trkpt>
      <trkpt lat="44.53041" lon="1.51858">
        <ele>343.5</ele>
        <time>2021-08-09T09:28:24Z</time>
      </trkpt>
      <trkpt lat="44.53046" lon="1.51864">
        <ele>343.5</ele>
        <time>2021-08-09T09:28:26Z</time>
      </trkpt>
      <trkpt lat="44.5305" lon="1.51868">
        <ele>343.5</ele>
        <time>2021-08-09T09:28:27Z</time>
      </trkpt>
      <trkpt lat="44.53054" lon="1.51873">
        <ele>343.4</ele>
        <time>2021-08-09T09:28:28Z</time>
      </trkpt>
      <trkpt lat="44.53059" lon="1.51878">
        <ele>343.4</ele>
        <time>2021-08-09T09:28:30Z</time>
      </trkpt>
      <trkpt lat="44.53062" lon="1.51881">
        <ele>343.4</ele>
        <time>2021-08-09T09:28:31Z</time>
      </trkpt>
      <trkpt lat="44.53065" lon="1.51885">
        <ele>343.4</ele>
        <time>2021-08-09T09:28:32Z</time>
      </trkpt>
      <trkpt lat="44.53071" lon="1.5189">
        <ele>343.4</ele>
        <time>2021-08-09T09:28:34Z</time>
      </trkpt>
      <trkpt lat="44.53077" lon="1.51892">
        <ele>343.4</ele>
        <time>2021-08-09T09:28:36Z</time>
      </trkpt>
      <trkpt lat="44.53081" lon="1.51893">
        <ele>343.4</ele>
        <time>2021-08-09T09:28:37Z</time>
      </trkpt>
      <trkpt lat="44.53084" lon="1.51891">
        <ele>343.5</ele>
        <time>2021-08-09T09:28:38Z</time>
      </trkpt>
      <trkpt lat="44.53086" lon="1.51884">
        <ele>343.8</ele>
        <time>2021-08-09T09:28:40Z</time>
      </trkpt>
      <trkpt lat="44.53087" lon="1.51876">
        <ele>344.1</ele>
        <time>2021-08-09T09:28:42Z</time>
      </trkpt>
      <trkpt lat="44.53088" lon="1.5187">
        <ele>344.3</ele>
        <time>2021-08-09T09:28:43Z</time>
      </trkpt>
      <trkpt lat="44.53088" lon="1.51868">
        <ele>344.4</ele>
        <time>2021-08-09T09:28:44Z</time>
      </trkpt>
      <trkpt lat="44.53089" lon="1.5186">
        <ele>344.6</ele>
        <time>2021-08-09T09:28:46Z</time>
      </trkpt>
      <trkpt lat="44.53089" lon="1.51856">
        <ele>344.8</ele>
        <time>2021-08-09T09:28:47Z</time>
      </trkpt>
      <trkpt lat="44.53091" lon="1.51848">
        <ele>345</ele>
        <time>2021-08-09T09:28:49Z</time>
      </trkpt>
      <trkpt lat="44.53091" lon="1.51845">
        <ele>345.1</ele>
        <time>2021-08-09T09:28:50Z</time>
      </trkpt>
      <trkpt lat="44.53093" lon="1.5184">
        <ele>345.1</ele>
        <time>2021-08-09T09:28:52Z</time>
      </trkpt>
      <trkpt lat="44.53094" lon="1.51839">
        <ele>345</ele>
        <time>2021-08-09T09:28:53Z</time>
      </trkpt>
      <trkpt lat="44.53094" lon="1.51838">
        <ele>345</ele>
        <time>2021-08-09T09:28:55Z</time>
      </trkpt>
      <trkpt lat="44.53094" lon="1.51838">
        <ele>345</ele>
        <time>2021-08-09T09:28:56Z</time>
      </trkpt>
      <trkpt lat="44.53095" lon="1.51838">
        <ele>345</ele>
        <time>2021-08-09T09:28:58Z</time>
      </trkpt>
      <trkpt lat="44.53095" lon="1.51838">
        <ele>345</ele>
        <time>2021-08-09T09:28:59Z</time>
      </trkpt>
      <trkpt lat="44.53095" lon="1.51838">
        <ele>344.9</ele>
        <time>2021-08-09T09:29:01Z</time>
      </trkpt>
      <trkpt lat="44.53095" lon="1.51838">
        <ele>344.9</ele>
        <time>2021-08-09T09:29:02Z</time>
      </trkpt>
      <trkpt lat="44.53095" lon="1.51838">
        <ele>344.9</ele>
        <time>2021-08-09T09:29:04Z</time>
      </trkpt>
      <trkpt lat="44.53099" lon="1.51838">
        <ele>344.8</ele>
        <time>2021-08-09T09:29:15Z</time>
      </trkpt>
      <trkpt lat="44.53102" lon="1.51837">
        <ele>344.6</ele>
        <time>2021-08-09T09:29:16Z</time>
      </trkpt>
      <trkpt lat="44.53105" lon="1.51838">
        <ele>344.5</ele>
        <time>2021-08-09T09:29:18Z</time>
      </trkpt>
      <trkpt lat="44.53108" lon="1.51839">
        <ele>344.3</ele>
        <time>2021-08-09T09:29:19Z</time>
      </trkpt>
      <trkpt lat="44.53112" lon="1.51839">
        <ele>343.9</ele>
        <time>2021-08-09T09:29:20Z</time>
      </trkpt>
      <trkpt lat="44.53116" lon="1.51839">
        <ele>343.7</ele>
        <time>2021-08-09T09:29:21Z</time>
      </trkpt>
      <trkpt lat="44.5312" lon="1.5184">
        <ele>343.5</ele>
        <time>2021-08-09T09:29:22Z</time>
      </trkpt>
      <trkpt lat="44.53131" lon="1.5184">
        <ele>342.8</ele>
        <time>2021-08-09T09:29:24Z</time>
      </trkpt>
      <trkpt lat="44.53138" lon="1.5184">
        <ele>342.3</ele>
        <time>2021-08-09T09:29:25Z</time>
      </trkpt>
      <trkpt lat="44.53147" lon="1.5184">
        <ele>341.4</ele>
        <time>2021-08-09T09:29:26Z</time>
      </trkpt>
      <trkpt lat="44.53161" lon="1.51839">
        <ele>340</ele>
        <time>2021-08-09T09:29:28Z</time>
      </trkpt>
      <trkpt lat="44.53171" lon="1.51835">
        <ele>338.9</ele>
        <time>2021-08-09T09:29:30Z</time>
      </trkpt>
      <trkpt lat="44.53184" lon="1.51829">
        <ele>337.3</ele>
        <time>2021-08-09T09:29:32Z</time>
      </trkpt>
      <trkpt lat="44.53198" lon="1.51828">
        <ele>335.4</ele>
        <time>2021-08-09T09:29:34Z</time>
      </trkpt>
      <trkpt lat="44.53205" lon="1.51826">
        <ele>334.6</ele>
        <time>2021-08-09T09:29:35Z</time>
      </trkpt>
      <trkpt lat="44.5322" lon="1.51822">
        <ele>332.4</ele>
        <time>2021-08-09T09:29:37Z</time>
      </trkpt>
      <trkpt lat="44.53227" lon="1.5182">
        <ele>331.4</ele>
        <time>2021-08-09T09:29:38Z</time>
      </trkpt>
      <trkpt lat="44.5324" lon="1.51815">
        <ele>329.1</ele>
        <time>2021-08-09T09:29:40Z</time>
      </trkpt>
      <trkpt lat="44.53255" lon="1.5181">
        <ele>326.7</ele>
        <time>2021-08-09T09:29:42Z</time>
      </trkpt>
      <trkpt lat="44.53262" lon="1.51809">
        <ele>325.2</ele>
        <time>2021-08-09T09:29:43Z</time>
      </trkpt>
      <trkpt lat="44.5327" lon="1.51809">
        <ele>324.1</ele>
        <time>2021-08-09T09:29:44Z</time>
      </trkpt>
      <trkpt lat="44.53282" lon="1.51812">
        <ele>322</ele>
        <time>2021-08-09T09:29:46Z</time>
      </trkpt>
      <trkpt lat="44.53286" lon="1.5182">
        <ele>321.3</ele>
        <time>2021-08-09T09:29:48Z</time>
      </trkpt>
      <trkpt lat="44.53292" lon="1.51819">
        <ele>320.3</ele>
        <time>2021-08-09T09:29:50Z</time>
      </trkpt>
      <trkpt lat="44.53304" lon="1.51815">
        <ele>318.2</ele>
        <time>2021-08-09T09:29:52Z</time>
      </trkpt>
      <trkpt lat="44.53318" lon="1.51811">
        <ele>314.1</ele>
        <time>2021-08-09T09:29:54Z</time>
      </trkpt>
      <trkpt lat="44.53325" lon="1.5181">
        <ele>312.5</ele>
        <time>2021-08-09T09:29:55Z</time>
      </trkpt>
      <trkpt lat="44.53332" lon="1.51807">
        <ele>310.4</ele>
        <time>2021-08-09T09:29:56Z</time>
      </trkpt>
      <trkpt lat="44.5334" lon="1.51797">
        <ele>306.6</ele>
        <time>2021-08-09T09:29:58Z</time>
      </trkpt>
      <trkpt lat="44.53344" lon="1.51779">
        <ele>305</ele>
        <time>2021-08-09T09:30:00Z</time>
      </trkpt>
      <trkpt lat="44.53343" lon="1.51757">
        <ele>305</ele>
        <time>2021-08-09T09:30:02Z</time>
      </trkpt>
      <trkpt lat="44.53336" lon="1.51733">
        <ele>308.1</ele>
        <time>2021-08-09T09:30:04Z</time>
      </trkpt>
      <trkpt lat="44.53333" lon="1.51722">
        <ele>310.1</ele>
        <time>2021-08-09T09:30:05Z</time>
      </trkpt>
      <trkpt lat="44.53329" lon="1.5171">
        <ele>312.3</ele>
        <time>2021-08-09T09:30:06Z</time>
      </trkpt>
      <trkpt lat="44.53322" lon="1.51684">
        <ele>317.3</ele>
        <time>2021-08-09T09:30:08Z</time>
      </trkpt>
      <trkpt lat="44.53316" lon="1.51664">
        <ele>320.3</ele>
        <time>2021-08-09T09:30:10Z</time>
      </trkpt>
      <trkpt lat="44.53315" lon="1.51658">
        <ele>321.4</ele>
        <time>2021-08-09T09:30:12Z</time>
      </trkpt>
      <trkpt lat="44.53319" lon="1.51659">
        <ele>320.4</ele>
        <time>2021-08-09T09:30:13Z</time>
      </trkpt>
      <trkpt lat="44.53321" lon="1.5166">
        <ele>320.1</ele>
        <time>2021-08-09T09:30:14Z</time>
      </trkpt>
      <trkpt lat="44.53331" lon="1.51664">
        <ele>318.3</ele>
        <time>2021-08-09T09:30:16Z</time>
      </trkpt>
      <trkpt lat="44.53337" lon="1.51669">
        <ele>316.8</ele>
        <time>2021-08-09T09:30:17Z</time>
      </trkpt>
      <trkpt lat="44.53344" lon="1.51672">
        <ele>315.2</ele>
        <time>2021-08-09T09:30:18Z</time>
      </trkpt>
      <trkpt lat="44.53357" lon="1.51679">
        <ele>312.6</ele>
        <time>2021-08-09T09:30:20Z</time>
      </trkpt>
      <trkpt lat="44.53369" lon="1.51683">
        <ele>310.2</ele>
        <time>2021-08-09T09:30:22Z</time>
      </trkpt>
      <trkpt lat="44.53374" lon="1.51687">
        <ele>308.9</ele>
        <time>2021-08-09T09:30:23Z</time>
      </trkpt>
      <trkpt lat="44.53386" lon="1.51697">
        <ele>305.6</ele>
        <time>2021-08-09T09:30:25Z</time>
      </trkpt>
      <trkpt lat="44.53393" lon="1.51702">
        <ele>302.7</ele>
        <time>2021-08-09T09:30:26Z</time>
      </trkpt>
      <trkpt lat="44.53404" lon="1.51711">
        <ele>300</ele>
        <time>2021-08-09T09:30:28Z</time>
      </trkpt>
      <trkpt lat="44.5341" lon="1.51716">
        <ele>298.8</ele>
        <time>2021-08-09T09:30:29Z</time>
      </trkpt>
      <trkpt lat="44.53421" lon="1.51727">
        <ele>296.9</ele>
        <time>2021-08-09T09:30:31Z</time>
      </trkpt>
      <trkpt lat="44.53427" lon="1.51732">
        <ele>294.9</ele>
        <time>2021-08-09T09:30:32Z</time>
      </trkpt>
      <trkpt lat="44.53439" lon="1.51741">
        <ele>292.8</ele>
        <time>2021-08-09T09:30:34Z</time>
      </trkpt>
      <trkpt lat="44.53453" lon="1.51755">
        <ele>289.5</ele>
        <time>2021-08-09T09:30:36Z</time>
      </trkpt>
      <trkpt lat="44.53459" lon="1.51765">
        <ele>288.1</ele>
        <time>2021-08-09T09:30:37Z</time>
      </trkpt>
      <trkpt lat="44.53466" lon="1.51775">
        <ele>286.6</ele>
        <time>2021-08-09T09:30:38Z</time>
      </trkpt>
      <trkpt lat="44.53478" lon="1.51796">
        <ele>285.5</ele>
        <time>2021-08-09T09:30:40Z</time>
      </trkpt>
      <trkpt lat="44.53483" lon="1.51805">
        <ele>284.7</ele>
        <time>2021-08-09T09:30:41Z</time>
      </trkpt>
      <trkpt lat="44.5349" lon="1.51818">
        <ele>284.3</ele>
        <time>2021-08-09T09:30:43Z</time>
      </trkpt>
      <trkpt lat="44.53494" lon="1.51823">
        <ele>283.9</ele>
        <time>2021-08-09T09:30:44Z</time>
      </trkpt>
      <trkpt lat="44.53504" lon="1.51827">
        <ele>283.3</ele>
        <time>2021-08-09T09:30:46Z</time>
      </trkpt>
      <trkpt lat="44.53511" lon="1.51826">
        <ele>282.7</ele>
        <time>2021-08-09T09:30:47Z</time>
      </trkpt>
      <trkpt lat="44.5352" lon="1.51825">
        <ele>281.7</ele>
        <time>2021-08-09T09:30:48Z</time>
      </trkpt>
      <trkpt lat="44.53528" lon="1.51822">
        <ele>280.7</ele>
        <time>2021-08-09T09:30:49Z</time>
      </trkpt>
      <trkpt lat="44.53537" lon="1.5182">
        <ele>279.4</ele>
        <time>2021-08-09T09:30:50Z</time>
      </trkpt>
      <trkpt lat="44.53552" lon="1.51817">
        <ele>277.1</ele>
        <time>2021-08-09T09:30:52Z</time>
      </trkpt>
      <trkpt lat="44.53562" lon="1.51818">
        <ele>275.9</ele>
        <time>2021-08-09T09:30:54Z</time>
      </trkpt>
      <trkpt lat="44.53564" lon="1.51818">
        <ele>275.9</ele>
        <time>2021-08-09T09:30:55Z</time>
      </trkpt>
      <trkpt lat="44.53565" lon="1.51818">
        <ele>275.5</ele>
        <time>2021-08-09T09:30:57Z</time>
      </trkpt>
      <trkpt lat="44.53565" lon="1.51818">
        <ele>275.5</ele>
        <time>2021-08-09T09:30:58Z</time>
      </trkpt>
      <trkpt lat="44.53564" lon="1.51818">
        <ele>275.8</ele>
        <time>2021-08-09T09:30:59Z</time>
      </trkpt>
      <trkpt lat="44.53564" lon="1.51817">
        <ele>275.8</ele>
        <time>2021-08-09T09:31:00Z</time>
      </trkpt>
      <trkpt lat="44.53564" lon="1.51817">
        <ele>275.5</ele>
        <time>2021-08-09T09:31:02Z</time>
      </trkpt>
      <trkpt lat="44.53564" lon="1.51817">
        <ele>275.5</ele>
        <time>2021-08-09T09:31:03Z</time>
      </trkpt>
      <trkpt lat="44.53564" lon="1.51817">
        <ele>275.5</ele>
        <time>2021-08-09T09:31:04Z</time>
      </trkpt>
      <trkpt lat="44.53564" lon="1.51817">
        <ele>275.5</ele>
        <time>2021-08-09T09:31:05Z</time>
      </trkpt>
      <trkpt lat="44.53563" lon="1.51813">
        <ele>275.5</ele>
        <time>2021-08-09T09:33:06Z</time>
      </trkpt>
      <trkpt lat="44.53563" lon="1.51811">
        <ele>275.3</ele>
        <time>2021-08-09T09:33:07Z</time>
      </trkpt>
      <trkpt lat="44.53564" lon="1.51806">
        <ele>275.2</ele>
        <time>2021-08-09T09:33:09Z</time>
      </trkpt>
      <trkpt lat="44.53565" lon="1.51802">
        <ele>274.8</ele>
        <time>2021-08-09T09:33:10Z</time>
      </trkpt>
      <trkpt lat="44.53567" lon="1.518">
        <ele>274.9</ele>
        <time>2021-08-09T09:33:11Z</time>
      </trkpt>
      <trkpt lat="44.53572" lon="1.51794">
        <ele>273.9</ele>
        <time>2021-08-09T09:33:13Z</time>
      </trkpt>
      <trkpt lat="44.53582" lon="1.51785">
        <ele>273</ele>
        <time>2021-08-09T09:33:14Z</time>
      </trkpt>
      <trkpt lat="44.53595" lon="1.5178">
        <ele>271.8</ele>
        <time>2021-08-09T09:33:16Z</time>
      </trkpt>
      <trkpt lat="44.53603" lon="1.51778">
        <ele>270.9</ele>
        <time>2021-08-09T09:33:17Z</time>
      </trkpt>
      <trkpt lat="44.53619" lon="1.51776">
        <ele>268.8</ele>
        <time>2021-08-09T09:33:19Z</time>
      </trkpt>
      <trkpt lat="44.53627" lon="1.51774">
        <ele>267.7</ele>
        <time>2021-08-09T09:33:20Z</time>
      </trkpt>
      <trkpt lat="44.53647" lon="1.51769">
        <ele>265.4</ele>
        <time>2021-08-09T09:33:22Z</time>
      </trkpt>
      <trkpt lat="44.53656" lon="1.51766">
        <ele>264.4</ele>
        <time>2021-08-09T09:33:23Z</time>
      </trkpt>
      <trkpt lat="44.53664" lon="1.51762">
        <ele>263.8</ele>
        <time>2021-08-09T09:33:24Z</time>
      </trkpt>
      <trkpt lat="44.53678" lon="1.5175">
        <ele>262.2</ele>
        <time>2021-08-09T09:33:26Z</time>
      </trkpt>
      <trkpt lat="44.53691" lon="1.5174">
        <ele>260.8</ele>
        <time>2021-08-09T09:33:28Z</time>
      </trkpt>
      <trkpt lat="44.53701" lon="1.51731">
        <ele>259.9</ele>
        <time>2021-08-09T09:33:30Z</time>
      </trkpt>
      <trkpt lat="44.53709" lon="1.51726">
        <ele>258.8</ele>
        <time>2021-08-09T09:33:32Z</time>
      </trkpt>
      <trkpt lat="44.53711" lon="1.51723">
        <ele>258.8</ele>
        <time>2021-08-09T09:33:34Z</time>
      </trkpt>
      <trkpt lat="44.53711" lon="1.51723">
        <ele>258.8</ele>
        <time>2021-08-09T09:33:35Z</time>
      </trkpt>
      <trkpt lat="44.53711" lon="1.51723">
        <ele>258.8</ele>
        <time>2021-08-09T09:33:36Z</time>
      </trkpt>
      <trkpt lat="44.5371" lon="1.51723">
        <ele>258.8</ele>
        <time>2021-08-09T09:33:38Z</time>
      </trkpt>
      <trkpt lat="44.5371" lon="1.51723">
        <ele>258.8</ele>
        <time>2021-08-09T09:33:40Z</time>
      </trkpt>
      <trkpt lat="44.53711" lon="1.51723">
        <ele>258.8</ele>
        <time>2021-08-09T09:33:42Z</time>
      </trkpt>
      <trkpt lat="44.53711" lon="1.51723">
        <ele>258.8</ele>
        <time>2021-08-09T09:33:44Z</time>
      </trkpt>
      <trkpt lat="44.53723" lon="1.51715">
        <ele>257.1</ele>
        <time>2021-08-09T09:43:49Z</time>
      </trkpt>
      <trkpt lat="44.53725" lon="1.51713">
        <ele>256.7</ele>
        <time>2021-08-09T09:43:50Z</time>
      </trkpt>
      <trkpt lat="44.53728" lon="1.51712">
        <ele>256.2</ele>
        <time>2021-08-09T09:43:52Z</time>
      </trkpt>
      <trkpt lat="44.53731" lon="1.51712">
        <ele>255.8</ele>
        <time>2021-08-09T09:43:53Z</time>
      </trkpt>
      <trkpt lat="44.53732" lon="1.51713">
        <ele>255.7</ele>
        <time>2021-08-09T09:43:54Z</time>
      </trkpt>
      <trkpt lat="44.53734" lon="1.51714">
        <ele>255.3</ele>
        <time>2021-08-09T09:43:55Z</time>
      </trkpt>
      <trkpt lat="44.53734" lon="1.51715">
        <ele>255.3</ele>
        <time>2021-08-09T09:43:56Z</time>
      </trkpt>
      <trkpt lat="44.53735" lon="1.51716">
        <ele>255.3</ele>
        <time>2021-08-09T09:43:58Z</time>
      </trkpt>
      <trkpt lat="44.53738" lon="1.51715">
        <ele>254.9</ele>
        <time>2021-08-09T09:43:59Z</time>
      </trkpt>
      <trkpt lat="44.53739" lon="1.51715">
        <ele>254.5</ele>
        <time>2021-08-09T09:44:00Z</time>
      </trkpt>
      <trkpt lat="44.53743" lon="1.51714">
        <ele>254.1</ele>
        <time>2021-08-09T09:44:01Z</time>
      </trkpt>
      <trkpt lat="44.53746" lon="1.51713">
        <ele>253.7</ele>
        <time>2021-08-09T09:44:02Z</time>
      </trkpt>
      <trkpt lat="44.53753" lon="1.5171">
        <ele>252.7</ele>
        <time>2021-08-09T09:44:04Z</time>
      </trkpt>
      <trkpt lat="44.53759" lon="1.51708">
        <ele>251.9</ele>
        <time>2021-08-09T09:44:05Z</time>
      </trkpt>
      <trkpt lat="44.53764" lon="1.51705">
        <ele>251.1</ele>
        <time>2021-08-09T09:44:06Z</time>
      </trkpt>
      <trkpt lat="44.53774" lon="1.51702">
        <ele>250.1</ele>
        <time>2021-08-09T09:44:08Z</time>
      </trkpt>
      <trkpt lat="44.53783" lon="1.51696">
        <ele>248.8</ele>
        <time>2021-08-09T09:44:10Z</time>
      </trkpt>
      <trkpt lat="44.53789" lon="1.51694">
        <ele>248.3</ele>
        <time>2021-08-09T09:44:11Z</time>
      </trkpt>
      <trkpt lat="44.53795" lon="1.5169">
        <ele>247.7</ele>
        <time>2021-08-09T09:44:12Z</time>
      </trkpt>
      <trkpt lat="44.53799" lon="1.51686">
        <ele>247.3</ele>
        <time>2021-08-09T09:44:13Z</time>
      </trkpt>
      <trkpt lat="44.53802" lon="1.51686">
        <ele>247</ele>
        <time>2021-08-09T09:44:14Z</time>
      </trkpt>
      <trkpt lat="44.53812" lon="1.51671">
        <ele>246.3</ele>
        <time>2021-08-09T09:44:16Z</time>
      </trkpt>
      <trkpt lat="44.53815" lon="1.51666">
        <ele>246.1</ele>
        <time>2021-08-09T09:44:17Z</time>
      </trkpt>
      <trkpt lat="44.53819" lon="1.51665">
        <ele>245.9</ele>
        <time>2021-08-09T09:44:18Z</time>
      </trkpt>
      <trkpt lat="44.53823" lon="1.51662">
        <ele>245.9</ele>
        <time>2021-08-09T09:44:19Z</time>
      </trkpt>
      <trkpt lat="44.53827" lon="1.51656">
        <ele>245.9</ele>
        <time>2021-08-09T09:44:21Z</time>
      </trkpt>
      <trkpt lat="44.53832" lon="1.51652">
        <ele>245.8</ele>
        <time>2021-08-09T09:44:22Z</time>
      </trkpt>
      <trkpt lat="44.5384" lon="1.51646">
        <ele>245.6</ele>
        <time>2021-08-09T09:44:24Z</time>
      </trkpt>
      <trkpt lat="44.53846" lon="1.51641">
        <ele>246</ele>
        <time>2021-08-09T09:44:26Z</time>
      </trkpt>
      <trkpt lat="44.53851" lon="1.51637">
        <ele>246.3</ele>
        <time>2021-08-09T09:44:27Z</time>
      </trkpt>
      <trkpt lat="44.53856" lon="1.51633">
        <ele>246.2</ele>
        <time>2021-08-09T09:44:28Z</time>
      </trkpt>
      <trkpt lat="44.53864" lon="1.51628">
        <ele>246.7</ele>
        <time>2021-08-09T09:44:30Z</time>
      </trkpt>
      <trkpt lat="44.53871" lon="1.51625">
        <ele>246.6</ele>
        <time>2021-08-09T09:44:31Z</time>
      </trkpt>
      <trkpt lat="44.53876" lon="1.51623">
        <ele>247</ele>
        <time>2021-08-09T09:44:33Z</time>
      </trkpt>
      <trkpt lat="44.53882" lon="1.51621">
        <ele>247.1</ele>
        <time>2021-08-09T09:44:34Z</time>
      </trkpt>
      <trkpt lat="44.53892" lon="1.51617">
        <ele>247.9</ele>
        <time>2021-08-09T09:44:36Z</time>
      </trkpt>
      <trkpt lat="44.53898" lon="1.51615">
        <ele>248.6</ele>
        <time>2021-08-09T09:44:37Z</time>
      </trkpt>
      <trkpt lat="44.53902" lon="1.51613">
        <ele>248.7</ele>
        <time>2021-08-09T09:44:38Z</time>
      </trkpt>
      <trkpt lat="44.53908" lon="1.51612">
        <ele>248.9</ele>
        <time>2021-08-09T09:44:40Z</time>
      </trkpt>
      <trkpt lat="44.53915" lon="1.51612">
        <ele>249</ele>
        <time>2021-08-09T09:44:41Z</time>
      </trkpt>
      <trkpt lat="44.53922" lon="1.51612">
        <ele>249.1</ele>
        <time>2021-08-09T09:44:42Z</time>
      </trkpt>
      <trkpt lat="44.53933" lon="1.51615">
        <ele>249.2</ele>
        <time>2021-08-09T09:44:44Z</time>
      </trkpt>
      <trkpt lat="44.53945" lon="1.51619">
        <ele>249</ele>
        <time>2021-08-09T09:44:46Z</time>
      </trkpt>
      <trkpt lat="44.53952" lon="1.51622">
        <ele>248.5</ele>
        <time>2021-08-09T09:44:47Z</time>
      </trkpt>
      <trkpt lat="44.53965" lon="1.5163">
        <ele>247.4</ele>
        <time>2021-08-09T09:44:49Z</time>
      </trkpt>
      <trkpt lat="44.53972" lon="1.51634">
        <ele>246.7</ele>
        <time>2021-08-09T09:44:50Z</time>
      </trkpt>
      <trkpt lat="44.53986" lon="1.51643">
        <ele>245.2</ele>
        <time>2021-08-09T09:44:52Z</time>
      </trkpt>
      <trkpt lat="44.54001" lon="1.51654">
        <ele>243.9</ele>
        <time>2021-08-09T09:44:54Z</time>
      </trkpt>
      <trkpt lat="44.54008" lon="1.51661">
        <ele>242.8</ele>
        <time>2021-08-09T09:44:55Z</time>
      </trkpt>
      <trkpt lat="44.54016" lon="1.51668">
        <ele>242</ele>
        <time>2021-08-09T09:44:56Z</time>
      </trkpt>
      <trkpt lat="44.54032" lon="1.51677">
        <ele>241.1</ele>
        <time>2021-08-09T09:44:58Z</time>
      </trkpt>
      <trkpt lat="44.5405" lon="1.51684">
        <ele>240.6</ele>
        <time>2021-08-09T09:45:00Z</time>
      </trkpt>
      <trkpt lat="44.54057" lon="1.51688">
        <ele>240.1</ele>
        <time>2021-08-09T09:45:01Z</time>
      </trkpt>
      <trkpt lat="44.54065" lon="1.51692">
        <ele>239.7</ele>
        <time>2021-08-09T09:45:02Z</time>
      </trkpt>
      <trkpt lat="44.54079" lon="1.517">
        <ele>238.9</ele>
        <time>2021-08-09T09:45:04Z</time>
      </trkpt>
      <trkpt lat="44.54087" lon="1.51704">
        <ele>238.4</ele>
        <time>2021-08-09T09:45:05Z</time>
      </trkpt>
      <trkpt lat="44.54095" lon="1.51707">
        <ele>238</ele>
        <time>2021-08-09T09:45:06Z</time>
      </trkpt>
      <trkpt lat="44.54111" lon="1.51713">
        <ele>238.1</ele>
        <time>2021-08-09T09:45:08Z</time>
      </trkpt>
      <trkpt lat="44.54126" lon="1.51719">
        <ele>238.5</ele>
        <time>2021-08-09T09:45:10Z</time>
      </trkpt>
      <trkpt lat="44.54134" lon="1.51721">
        <ele>238.4</ele>
        <time>2021-08-09T09:45:11Z</time>
      </trkpt>
      <trkpt lat="44.5415" lon="1.51726">
        <ele>238.3</ele>
        <time>2021-08-09T09:45:13Z</time>
      </trkpt>
      <trkpt lat="44.54156" lon="1.51731">
        <ele>237.8</ele>
        <time>2021-08-09T09:45:14Z</time>
      </trkpt>
      <trkpt lat="44.54169" lon="1.51739">
        <ele>236.8</ele>
        <time>2021-08-09T09:45:16Z</time>
      </trkpt>
      <trkpt lat="44.54182" lon="1.51748">
        <ele>236</ele>
        <time>2021-08-09T09:45:18Z</time>
      </trkpt>
      <trkpt lat="44.54195" lon="1.51754">
        <ele>235.3</ele>
        <time>2021-08-09T09:45:20Z</time>
      </trkpt>
      <trkpt lat="44.54207" lon="1.51757">
        <ele>235.7</ele>
        <time>2021-08-09T09:45:22Z</time>
      </trkpt>
      <trkpt lat="44.54221" lon="1.5176">
        <ele>235.4</ele>
        <time>2021-08-09T09:45:24Z</time>
      </trkpt>
      <trkpt lat="44.54233" lon="1.51764">
        <ele>235.1</ele>
        <time>2021-08-09T09:45:26Z</time>
      </trkpt>
      <trkpt lat="44.54235" lon="1.51766">
        <ele>235.2</ele>
        <time>2021-08-09T09:45:27Z</time>
      </trkpt>
      <trkpt lat="44.54239" lon="1.51767">
        <ele>234.3</ele>
        <time>2021-08-09T09:45:28Z</time>
      </trkpt>
      <trkpt lat="44.5425" lon="1.5177">
        <ele>234.9</ele>
        <time>2021-08-09T09:45:30Z</time>
      </trkpt>
      <trkpt lat="44.54261" lon="1.51773">
        <ele>234.7</ele>
        <time>2021-08-09T09:45:32Z</time>
      </trkpt>
      <trkpt lat="44.54266" lon="1.51775">
        <ele>234.2</ele>
        <time>2021-08-09T09:45:33Z</time>
      </trkpt>
      <trkpt lat="44.54278" lon="1.5178">
        <ele>234.1</ele>
        <time>2021-08-09T09:45:35Z</time>
      </trkpt>
      <trkpt lat="44.54281" lon="1.51782">
        <ele>234.2</ele>
        <time>2021-08-09T09:45:36Z</time>
      </trkpt>
      <trkpt lat="44.54285" lon="1.51784">
        <ele>233.4</ele>
        <time>2021-08-09T09:45:37Z</time>
      </trkpt>
      <trkpt lat="44.54289" lon="1.51787">
        <ele>233.5</ele>
        <time>2021-08-09T09:45:38Z</time>
      </trkpt>
      <trkpt lat="44.54294" lon="1.5179">
        <ele>232.9</ele>
        <time>2021-08-09T09:45:39Z</time>
      </trkpt>
      <trkpt lat="44.543" lon="1.51794">
        <ele>232.2</ele>
        <time>2021-08-09T09:45:41Z</time>
      </trkpt>
      <trkpt lat="44.54305" lon="1.51797">
        <ele>231.4</ele>
        <time>2021-08-09T09:45:42Z</time>
      </trkpt>
      <trkpt lat="44.54308" lon="1.51799">
        <ele>231.5</ele>
        <time>2021-08-09T09:45:43Z</time>
      </trkpt>
      <trkpt lat="44.54312" lon="1.51801">
        <ele>230.6</ele>
        <time>2021-08-09T09:45:44Z</time>
      </trkpt>
      <trkpt lat="44.5432" lon="1.51806">
        <ele>229.8</ele>
        <time>2021-08-09T09:45:46Z</time>
      </trkpt>
      <trkpt lat="44.54326" lon="1.5181">
        <ele>229</ele>
        <time>2021-08-09T09:45:47Z</time>
      </trkpt>
      <trkpt lat="44.54331" lon="1.51812">
        <ele>229</ele>
        <time>2021-08-09T09:45:48Z</time>
      </trkpt>
      <trkpt lat="44.54337" lon="1.51816">
        <ele>228.1</ele>
        <time>2021-08-09T09:45:50Z</time>
      </trkpt>
      <trkpt lat="44.54343" lon="1.5182">
        <ele>227.1</ele>
        <time>2021-08-09T09:45:51Z</time>
      </trkpt>
      <trkpt lat="44.54348" lon="1.51825">
        <ele>226</ele>
        <time>2021-08-09T09:45:52Z</time>
      </trkpt>
      <trkpt lat="44.54351" lon="1.51829">
        <ele>224.8</ele>
        <time>2021-08-09T09:45:53Z</time>
      </trkpt>
      <trkpt lat="44.54353" lon="1.51833">
        <ele>224</ele>
        <time>2021-08-09T09:45:55Z</time>
      </trkpt>
      <trkpt lat="44.54353" lon="1.51838">
        <ele>223.1</ele>
        <time>2021-08-09T09:45:56Z</time>
      </trkpt>
      <trkpt lat="44.54353" lon="1.51842">
        <ele>222.3</ele>
        <time>2021-08-09T09:45:57Z</time>
      </trkpt>
      <trkpt lat="44.54353" lon="1.51846">
        <ele>221.6</ele>
        <time>2021-08-09T09:45:58Z</time>
      </trkpt>
      <trkpt lat="44.54352" lon="1.5185">
        <ele>220.9</ele>
        <time>2021-08-09T09:45:59Z</time>
      </trkpt>
      <trkpt lat="44.54352" lon="1.51853">
        <ele>220.3</ele>
        <time>2021-08-09T09:46:01Z</time>
      </trkpt>
      <trkpt lat="44.54352" lon="1.51857">
        <ele>219.7</ele>
        <time>2021-08-09T09:46:02Z</time>
      </trkpt>
      <trkpt lat="44.54352" lon="1.51861">
        <ele>219.2</ele>
        <time>2021-08-09T09:46:03Z</time>
      </trkpt>
      <trkpt lat="44.54353" lon="1.51866">
        <ele>218.6</ele>
        <time>2021-08-09T09:46:05Z</time>
      </trkpt>
      <trkpt lat="44.54353" lon="1.51869">
        <ele>218.1</ele>
        <time>2021-08-09T09:46:06Z</time>
      </trkpt>
      <trkpt lat="44.54353" lon="1.51873">
        <ele>218.1</ele>
        <time>2021-08-09T09:46:08Z</time>
      </trkpt>
      <trkpt lat="44.54354" lon="1.51878">
        <ele>216.8</ele>
        <time>2021-08-09T09:46:09Z</time>
      </trkpt>
      <trkpt lat="44.54354" lon="1.51879">
        <ele>216.8</ele>
        <time>2021-08-09T09:46:10Z</time>
      </trkpt>
      <trkpt lat="44.54357" lon="1.51885">
        <ele>216.2</ele>
        <time>2021-08-09T09:46:12Z</time>
      </trkpt>
      <trkpt lat="44.54358" lon="1.5189">
        <ele>215</ele>
        <time>2021-08-09T09:46:13Z</time>
      </trkpt>
      <trkpt lat="44.54361" lon="1.51895">
        <ele>214.3</ele>
        <time>2021-08-09T09:46:14Z</time>
      </trkpt>
      <trkpt lat="44.54364" lon="1.51899">
        <ele>213.7</ele>
        <time>2021-08-09T09:46:16Z</time>
      </trkpt>
      <trkpt lat="44.54369" lon="1.51905">
        <ele>213.1</ele>
        <time>2021-08-09T09:46:17Z</time>
      </trkpt>
      <trkpt lat="44.54375" lon="1.51912">
        <ele>211.7</ele>
        <time>2021-08-09T09:46:18Z</time>
      </trkpt>
      <trkpt lat="44.5438" lon="1.51918">
        <ele>211.1</ele>
        <time>2021-08-09T09:46:19Z</time>
      </trkpt>
      <trkpt lat="44.54383" lon="1.51923">
        <ele>210.5</ele>
        <time>2021-08-09T09:46:20Z</time>
      </trkpt>
      <trkpt lat="44.54385" lon="1.5193">
        <ele>209.5</ele>
        <time>2021-08-09T09:46:21Z</time>
      </trkpt>
      <trkpt lat="44.54387" lon="1.51938">
        <ele>208.6</ele>
        <time>2021-08-09T09:46:23Z</time>
      </trkpt>
      <trkpt lat="44.5439" lon="1.51946">
        <ele>208.2</ele>
        <time>2021-08-09T09:46:24Z</time>
      </trkpt>
      <trkpt lat="44.54391" lon="1.51952">
        <ele>207.1</ele>
        <time>2021-08-09T09:46:25Z</time>
      </trkpt>
      <trkpt lat="44.54391" lon="1.51957">
        <ele>207.1</ele>
        <time>2021-08-09T09:46:26Z</time>
      </trkpt>
      <trkpt lat="44.54391" lon="1.51961">
        <ele>207.1</ele>
        <time>2021-08-09T09:46:27Z</time>
      </trkpt>
      <trkpt lat="44.54391" lon="1.51962">
        <ele>207.1</ele>
        <time>2021-08-09T09:46:28Z</time>
      </trkpt>
      <trkpt lat="44.5439" lon="1.51967">
        <ele>207</ele>
        <time>2021-08-09T09:46:30Z</time>
      </trkpt>
      <trkpt lat="44.54389" lon="1.51968">
        <ele>207</ele>
        <time>2021-08-09T09:46:32Z</time>
      </trkpt>
      <trkpt lat="44.54387" lon="1.51969">
        <ele>207</ele>
        <time>2021-08-09T09:46:33Z</time>
      </trkpt>
      <trkpt lat="44.54386" lon="1.5197">
        <ele>206.9</ele>
        <time>2021-08-09T09:46:34Z</time>
      </trkpt>
      <trkpt lat="44.54385" lon="1.51972">
        <ele>206.9</ele>
        <time>2021-08-09T09:46:36Z</time>
      </trkpt>
      <trkpt lat="44.54383" lon="1.51973">
        <ele>206.8</ele>
        <time>2021-08-09T09:46:39Z</time>
      </trkpt>
      <trkpt lat="44.54382" lon="1.51974">
        <ele>206.8</ele>
        <time>2021-08-09T10:07:59Z</time>
      </trkpt>
      <trkpt lat="44.5438" lon="1.51975">
        <ele>206.7</ele>
        <time>2021-08-09T10:08:00Z</time>
      </trkpt>
      <trkpt lat="44.54373" lon="1.5198">
        <ele>206.5</ele>
        <time>2021-08-09T10:08:02Z</time>
      </trkpt>
      <trkpt lat="44.54366" lon="1.51987">
        <ele>206.3</ele>
        <time>2021-08-09T10:08:04Z</time>
      </trkpt>
      <trkpt lat="44.54362" lon="1.51991">
        <ele>206.2</ele>
        <time>2021-08-09T10:08:05Z</time>
      </trkpt>
      <trkpt lat="44.54359" lon="1.51995">
        <ele>206.1</ele>
        <time>2021-08-09T10:08:06Z</time>
      </trkpt>
      <trkpt lat="44.54355" lon="1.51999">
        <ele>206</ele>
        <time>2021-08-09T10:08:07Z</time>
      </trkpt>
      <trkpt lat="44.54352" lon="1.52004">
        <ele>205.9</ele>
        <time>2021-08-09T10:08:08Z</time>
      </trkpt>
      <trkpt lat="44.54345" lon="1.52012">
        <ele>205.8</ele>
        <time>2021-08-09T10:08:10Z</time>
      </trkpt>
      <trkpt lat="44.54341" lon="1.52018">
        <ele>205.7</ele>
        <time>2021-08-09T10:08:11Z</time>
      </trkpt>
      <trkpt lat="44.54336" lon="1.52025">
        <ele>205</ele>
        <time>2021-08-09T10:08:12Z</time>
      </trkpt>
      <trkpt lat="44.54332" lon="1.5203">
        <ele>205</ele>
        <time>2021-08-09T10:08:13Z</time>
      </trkpt>
      <trkpt lat="44.54329" lon="1.52036">
        <ele>204.9</ele>
        <time>2021-08-09T10:08:15Z</time>
      </trkpt>
      <trkpt lat="44.54326" lon="1.52041">
        <ele>204.9</ele>
        <time>2021-08-09T10:08:16Z</time>
      </trkpt>
      <trkpt lat="44.54323" lon="1.52047">
        <ele>204.9</ele>
        <time>2021-08-09T10:08:17Z</time>
      </trkpt>
      <trkpt lat="44.5432" lon="1.52052">
        <ele>204.9</ele>
        <time>2021-08-09T10:08:18Z</time>
      </trkpt>
      <trkpt lat="44.54317" lon="1.52058">
        <ele>204.9</ele>
        <time>2021-08-09T10:08:19Z</time>
      </trkpt>
      <trkpt lat="44.54313" lon="1.52067">
        <ele>204.8</ele>
        <time>2021-08-09T10:08:21Z</time>
      </trkpt>
      <trkpt lat="44.54311" lon="1.52072">
        <ele>204.7</ele>
        <time>2021-08-09T10:08:22Z</time>
      </trkpt>
      <trkpt lat="44.54307" lon="1.52083">
        <ele>204.6</ele>
        <time>2021-08-09T10:08:24Z</time>
      </trkpt>
      <trkpt lat="44.54309" lon="1.52091">
        <ele>204.4</ele>
        <time>2021-08-09T10:08:25Z</time>
      </trkpt>
      <trkpt lat="44.54311" lon="1.52098">
        <ele>204.3</ele>
        <time>2021-08-09T10:08:27Z</time>
      </trkpt>
      <trkpt lat="44.54314" lon="1.52105">
        <ele>204.3</ele>
        <time>2021-08-09T10:08:28Z</time>
      </trkpt>
      <trkpt lat="44.54315" lon="1.52112">
        <ele>204.4</ele>
        <time>2021-08-09T10:08:29Z</time>
      </trkpt>
      <trkpt lat="44.54315" lon="1.52118">
        <ele>204.5</ele>
        <time>2021-08-09T10:08:30Z</time>
      </trkpt>
      <trkpt lat="44.54313" lon="1.52125">
        <ele>204.6</ele>
        <time>2021-08-09T10:08:32Z</time>
      </trkpt>
      <trkpt lat="44.54312" lon="1.52129">
        <ele>204.7</ele>
        <time>2021-08-09T10:08:33Z</time>
      </trkpt>
      <trkpt lat="44.54311" lon="1.52132">
        <ele>204.8</ele>
        <time>2021-08-09T10:08:34Z</time>
      </trkpt>
      <trkpt lat="44.54311" lon="1.52137">
        <ele>205</ele>
        <time>2021-08-09T10:08:36Z</time>
      </trkpt>
      <trkpt lat="44.54311" lon="1.52142">
        <ele>205.1</ele>
        <time>2021-08-09T10:08:37Z</time>
      </trkpt>
      <trkpt lat="44.54311" lon="1.52146">
        <ele>205.3</ele>
        <time>2021-08-09T10:08:38Z</time>
      </trkpt>
      <trkpt lat="44.54311" lon="1.52151">
        <ele>205.5</ele>
        <time>2021-08-09T10:08:40Z</time>
      </trkpt>
      <trkpt lat="44.54312" lon="1.52155">
        <ele>205.6</ele>
        <time>2021-08-09T10:08:41Z</time>
      </trkpt>
      <trkpt lat="44.54314" lon="1.52159">
        <ele>205.7</ele>
        <time>2021-08-09T10:08:42Z</time>
      </trkpt>
      <trkpt lat="44.54315" lon="1.52163">
        <ele>205.9</ele>
        <time>2021-08-09T10:08:43Z</time>
      </trkpt>
      <trkpt lat="44.54316" lon="1.52165">
        <ele>206</ele>
        <time>2021-08-09T10:08:44Z</time>
      </trkpt>
      <trkpt lat="44.54318" lon="1.5217">
        <ele>206.2</ele>
        <time>2021-08-09T10:08:46Z</time>
      </trkpt>
      <trkpt lat="44.5432" lon="1.52173">
        <ele>206.3</ele>
        <time>2021-08-09T10:08:47Z</time>
      </trkpt>
      <trkpt lat="44.54323" lon="1.52176">
        <ele>206.5</ele>
        <time>2021-08-09T10:08:48Z</time>
      </trkpt>
      <trkpt lat="44.54324" lon="1.52177">
        <ele>206.6</ele>
        <time>2021-08-09T10:08:49Z</time>
      </trkpt>
      <trkpt lat="44.54329" lon="1.52178">
        <ele>206.6</ele>
        <time>2021-08-09T10:08:50Z</time>
      </trkpt>
      <trkpt lat="44.5433" lon="1.52178">
        <ele>206.7</ele>
        <time>2021-08-09T10:08:51Z</time>
      </trkpt>
      <trkpt lat="44.54335" lon="1.52177">
        <ele>206.8</ele>
        <time>2021-08-09T10:08:53Z</time>
      </trkpt>
      <trkpt lat="44.54336" lon="1.52177">
        <ele>206.8</ele>
        <time>2021-08-09T10:08:54Z</time>
      </trkpt>
      <trkpt lat="44.5434" lon="1.52176">
        <ele>206.9</ele>
        <time>2021-08-09T10:08:55Z</time>
      </trkpt>
      <trkpt lat="44.54341" lon="1.52176">
        <ele>206.9</ele>
        <time>2021-08-09T10:08:56Z</time>
      </trkpt>
      <trkpt lat="44.54344" lon="1.52176">
        <ele>206.9</ele>
        <time>2021-08-09T10:08:57Z</time>
      </trkpt>
      <trkpt lat="44.54347" lon="1.52175">
        <ele>206.9</ele>
        <time>2021-08-09T10:08:58Z</time>
      </trkpt>
      <trkpt lat="44.5435" lon="1.52175">
        <ele>207</ele>
        <time>2021-08-09T10:09:00Z</time>
      </trkpt>
      <trkpt lat="44.54354" lon="1.52175">
        <ele>207</ele>
        <time>2021-08-09T10:09:01Z</time>
      </trkpt>
      <trkpt lat="44.54356" lon="1.52175">
        <ele>207</ele>
        <time>2021-08-09T10:09:02Z</time>
      </trkpt>
      <trkpt lat="44.5436" lon="1.52176">
        <ele>206.9</ele>
        <time>2021-08-09T10:09:04Z</time>
      </trkpt>
      <trkpt lat="44.54363" lon="1.52177">
        <ele>206.9</ele>
        <time>2021-08-09T10:09:05Z</time>
      </trkpt>
      <trkpt lat="44.54366" lon="1.52178">
        <ele>206.9</ele>
        <time>2021-08-09T10:09:06Z</time>
      </trkpt>
      <trkpt lat="44.54371" lon="1.5218">
        <ele>206.7</ele>
        <time>2021-08-09T10:09:08Z</time>
      </trkpt>
      <trkpt lat="44.54375" lon="1.5218">
        <ele>206.7</ele>
        <time>2021-08-09T10:09:09Z</time>
      </trkpt>
      <trkpt lat="44.54382" lon="1.52181">
        <ele>206.5</ele>
        <time>2021-08-09T10:09:11Z</time>
      </trkpt>
      <trkpt lat="44.54388" lon="1.52181">
        <ele>206.4</ele>
        <time>2021-08-09T10:09:12Z</time>
      </trkpt>
      <trkpt lat="44.54391" lon="1.52181">
        <ele>206.3</ele>
        <time>2021-08-09T10:09:13Z</time>
      </trkpt>
      <trkpt lat="44.54397" lon="1.52182">
        <ele>206.3</ele>
        <time>2021-08-09T10:09:15Z</time>
      </trkpt>
      <trkpt lat="44.54402" lon="1.52183">
        <ele>206.2</ele>
        <time>2021-08-09T10:09:16Z</time>
      </trkpt>
      <trkpt lat="44.5441" lon="1.52185">
        <ele>206.1</ele>
        <time>2021-08-09T10:09:18Z</time>
      </trkpt>
      <trkpt lat="44.54414" lon="1.52187">
        <ele>206</ele>
        <time>2021-08-09T10:09:19Z</time>
      </trkpt>
      <trkpt lat="44.54418" lon="1.52189">
        <ele>205.9</ele>
        <time>2021-08-09T10:09:20Z</time>
      </trkpt>
      <trkpt lat="44.54427" lon="1.52192">
        <ele>205.6</ele>
        <time>2021-08-09T10:09:22Z</time>
      </trkpt>
      <trkpt lat="44.54432" lon="1.52196">
        <ele>205.4</ele>
        <time>2021-08-09T10:09:23Z</time>
      </trkpt>
      <trkpt lat="44.54438" lon="1.522">
        <ele>205.1</ele>
        <time>2021-08-09T10:09:25Z</time>
      </trkpt>
      <trkpt lat="44.54445" lon="1.52206">
        <ele>204.8</ele>
        <time>2021-08-09T10:09:26Z</time>
      </trkpt>
      <trkpt lat="44.54454" lon="1.52212">
        <ele>204.4</ele>
        <time>2021-08-09T10:09:28Z</time>
      </trkpt>
      <trkpt lat="44.54458" lon="1.52215">
        <ele>204.2</ele>
        <time>2021-08-09T10:09:29Z</time>
      </trkpt>
      <trkpt lat="44.54463" lon="1.52217">
        <ele>204</ele>
        <time>2021-08-09T10:09:30Z</time>
      </trkpt>
      <trkpt lat="44.54468" lon="1.5222">
        <ele>203.7</ele>
        <time>2021-08-09T10:09:31Z</time>
      </trkpt>
      <trkpt lat="44.54474" lon="1.52223">
        <ele>203.5</ele>
        <time>2021-08-09T10:09:32Z</time>
      </trkpt>
      <trkpt lat="44.54484" lon="1.5223">
        <ele>202.9</ele>
        <time>2021-08-09T10:09:34Z</time>
      </trkpt>
      <trkpt lat="44.54489" lon="1.52234">
        <ele>202.5</ele>
        <time>2021-08-09T10:09:35Z</time>
      </trkpt>
      <trkpt lat="44.54491" lon="1.5224">
        <ele>202.2</ele>
        <time>2021-08-09T10:09:36Z</time>
      </trkpt>
      <trkpt lat="44.54494" lon="1.52255">
        <ele>201.7</ele>
        <time>2021-08-09T10:09:38Z</time>
      </trkpt>
      <trkpt lat="44.54495" lon="1.52269">
        <ele>201.4</ele>
        <time>2021-08-09T10:09:40Z</time>
      </trkpt>
      <trkpt lat="44.54494" lon="1.52278">
        <ele>201.4</ele>
        <time>2021-08-09T10:09:41Z</time>
      </trkpt>
      <trkpt lat="44.54491" lon="1.52286">
        <ele>201.4</ele>
        <time>2021-08-09T10:09:43Z</time>
      </trkpt>
      <trkpt lat="44.54489" lon="1.5229">
        <ele>201.3</ele>
        <time>2021-08-09T10:09:44Z</time>
      </trkpt>
      <trkpt lat="44.5449" lon="1.52297">
        <ele>201.3</ele>
        <time>2021-08-09T10:09:46Z</time>
      </trkpt>
      <trkpt lat="44.54491" lon="1.523">
        <ele>201.4</ele>
        <time>2021-08-09T10:09:47Z</time>
      </trkpt>
      <trkpt lat="44.54492" lon="1.52301">
        <ele>201.4</ele>
        <time>2021-08-09T10:09:48Z</time>
      </trkpt>
      <trkpt lat="44.54493" lon="1.52304">
        <ele>201.4</ele>
        <time>2021-08-09T10:09:50Z</time>
      </trkpt>
      <trkpt lat="44.54493" lon="1.52306">
        <ele>201.4</ele>
        <time>2021-08-09T10:09:51Z</time>
      </trkpt>
      <trkpt lat="44.54492" lon="1.52308">
        <ele>201.4</ele>
        <time>2021-08-09T10:09:52Z</time>
      </trkpt>
      <trkpt lat="44.54492" lon="1.52309">
        <ele>201.4</ele>
        <time>2021-08-09T10:09:53Z</time>
      </trkpt>
      <trkpt lat="44.54491" lon="1.5231">
        <ele>201.4</ele>
        <time>2021-08-09T10:09:55Z</time>
      </trkpt>
      <trkpt lat="44.54491" lon="1.52311">
        <ele>201.4</ele>
        <time>2021-08-09T10:09:56Z</time>
      </trkpt>
      <trkpt lat="44.5449" lon="1.52311">
        <ele>201.5</ele>
        <time>2021-08-09T10:09:58Z</time>
      </trkpt>
      <trkpt lat="44.5449" lon="1.52312">
        <ele>201.5</ele>
        <time>2021-08-09T10:09:59Z</time>
      </trkpt>
      <trkpt lat="44.5449" lon="1.52313">
        <ele>201.5</ele>
        <time>2021-08-09T10:10:00Z</time>
      </trkpt>
      <trkpt lat="44.5449" lon="1.52315">
        <ele>201.5</ele>
        <time>2021-08-09T10:10:02Z</time>
      </trkpt>
      <trkpt lat="44.54489" lon="1.52318">
        <ele>201.5</ele>
        <time>2021-08-09T10:10:04Z</time>
      </trkpt>
      <trkpt lat="44.54489" lon="1.52318">
        <ele>201.5</ele>
        <time>2021-08-09T10:10:05Z</time>
      </trkpt>
      <trkpt lat="44.54489" lon="1.5232">
        <ele>201.5</ele>
        <time>2021-08-09T10:10:07Z</time>
      </trkpt>
      <trkpt lat="44.54489" lon="1.5232">
        <ele>201.5</ele>
        <time>2021-08-09T10:10:08Z</time>
      </trkpt>
      <trkpt lat="44.54489" lon="1.52321">
        <ele>201.5</ele>
        <time>2021-08-09T10:10:10Z</time>
      </trkpt>
      <trkpt lat="44.54489" lon="1.52324">
        <ele>201.6</ele>
        <time>2021-08-09T10:10:13Z</time>
      </trkpt>
      <trkpt lat="44.54489" lon="1.52328">
        <ele>201.6</ele>
        <time>2021-08-09T10:10:14Z</time>
      </trkpt>
      <trkpt lat="44.54489" lon="1.52333">
        <ele>201.6</ele>
        <time>2021-08-09T10:10:16Z</time>
      </trkpt>
      <trkpt lat="44.54489" lon="1.52337">
        <ele>201.7</ele>
        <time>2021-08-09T10:10:17Z</time>
      </trkpt>
      <trkpt lat="44.54489" lon="1.52344">
        <ele>201.7</ele>
        <time>2021-08-09T10:10:18Z</time>
      </trkpt>
      <trkpt lat="44.54489" lon="1.5235">
        <ele>201.8</ele>
        <time>2021-08-09T10:10:19Z</time>
      </trkpt>
      <trkpt lat="44.5449" lon="1.52357">
        <ele>201.8</ele>
        <time>2021-08-09T10:10:20Z</time>
      </trkpt>
      <trkpt lat="44.5449" lon="1.52364">
        <ele>201.9</ele>
        <time>2021-08-09T10:10:22Z</time>
      </trkpt>
      <trkpt lat="44.54489" lon="1.52371">
        <ele>201.9</ele>
        <time>2021-08-09T10:10:23Z</time>
      </trkpt>
      <trkpt lat="44.54488" lon="1.52382">
        <ele>201.9</ele>
        <time>2021-08-09T10:10:25Z</time>
      </trkpt>
      <trkpt lat="44.54486" lon="1.52392">
        <ele>201.9</ele>
        <time>2021-08-09T10:10:26Z</time>
      </trkpt>
      <trkpt lat="44.54483" lon="1.52407">
        <ele>201.8</ele>
        <time>2021-08-09T10:10:28Z</time>
      </trkpt>
      <trkpt lat="44.54481" lon="1.52414">
        <ele>201.8</ele>
        <time>2021-08-09T10:10:29Z</time>
      </trkpt>
      <trkpt lat="44.54478" lon="1.52429">
        <ele>201.7</ele>
        <time>2021-08-09T10:10:31Z</time>
      </trkpt>
      <trkpt lat="44.54473" lon="1.52442">
        <ele>201.7</ele>
        <time>2021-08-09T10:10:33Z</time>
      </trkpt>
      <trkpt lat="44.5447" lon="1.52456">
        <ele>201.7</ele>
        <time>2021-08-09T10:10:35Z</time>
      </trkpt>
      <trkpt lat="44.54466" lon="1.52469">
        <ele>201.6</ele>
        <time>2021-08-09T10:10:37Z</time>
      </trkpt>
      <trkpt lat="44.54463" lon="1.52475">
        <ele>201.6</ele>
        <time>2021-08-09T10:10:38Z</time>
      </trkpt>
      <trkpt lat="44.54458" lon="1.52487">
        <ele>201.5</ele>
        <time>2021-08-09T10:10:40Z</time>
      </trkpt>
      <trkpt lat="44.54453" lon="1.52499">
        <ele>201.5</ele>
        <time>2021-08-09T10:10:42Z</time>
      </trkpt>
      <trkpt lat="44.5445" lon="1.52505">
        <ele>201.5</ele>
        <time>2021-08-09T10:10:43Z</time>
      </trkpt>
      <trkpt lat="44.54447" lon="1.52511">
        <ele>201.5</ele>
        <time>2021-08-09T10:10:44Z</time>
      </trkpt>
      <trkpt lat="44.54441" lon="1.52524">
        <ele>201.5</ele>
        <time>2021-08-09T10:10:46Z</time>
      </trkpt>
      <trkpt lat="44.54438" lon="1.5253">
        <ele>201.5</ele>
        <time>2021-08-09T10:10:47Z</time>
      </trkpt>
      <trkpt lat="44.54435" lon="1.52536">
        <ele>201.4</ele>
        <time>2021-08-09T10:10:49Z</time>
      </trkpt>
      <trkpt lat="44.54433" lon="1.52539">
        <ele>201.4</ele>
        <time>2021-08-09T10:10:50Z</time>
      </trkpt>
      <trkpt lat="44.54432" lon="1.52542">
        <ele>201.4</ele>
        <time>2021-08-09T10:10:52Z</time>
      </trkpt>
      <trkpt lat="44.54433" lon="1.52545">
        <ele>201.4</ele>
        <time>2021-08-09T10:10:53Z</time>
      </trkpt>
      <trkpt lat="44.54433" lon="1.52546">
        <ele>201.4</ele>
        <time>2021-08-09T10:10:54Z</time>
      </trkpt>
      <trkpt lat="44.54433" lon="1.52547">
        <ele>201.4</ele>
        <time>2021-08-09T10:10:56Z</time>
      </trkpt>
      <trkpt lat="44.54433" lon="1.52548">
        <ele>201.4</ele>
        <time>2021-08-09T10:10:57Z</time>
      </trkpt>
      <trkpt lat="44.54432" lon="1.52549">
        <ele>201.4</ele>
        <time>2021-08-09T10:10:58Z</time>
      </trkpt>
      <trkpt lat="44.54432" lon="1.5255">
        <ele>201.4</ele>
        <time>2021-08-09T10:11:00Z</time>
      </trkpt>
      <trkpt lat="44.54431" lon="1.52551">
        <ele>201.4</ele>
        <time>2021-08-09T10:11:01Z</time>
      </trkpt>
      <trkpt lat="44.54431" lon="1.52552">
        <ele>201.4</ele>
        <time>2021-08-09T10:11:02Z</time>
      </trkpt>
      <trkpt lat="44.5443" lon="1.52553">
        <ele>201.4</ele>
        <time>2021-08-09T10:11:04Z</time>
      </trkpt>
      <trkpt lat="44.5443" lon="1.52554">
        <ele>201.4</ele>
        <time>2021-08-09T10:12:38Z</time>
      </trkpt>
      <trkpt lat="44.54429" lon="1.52556">
        <ele>201.4</ele>
        <time>2021-08-09T10:12:40Z</time>
      </trkpt>
      <trkpt lat="44.54428" lon="1.52557">
        <ele>201.4</ele>
        <time>2021-08-09T10:12:41Z</time>
      </trkpt>
      <trkpt lat="44.54426" lon="1.52562">
        <ele>201.4</ele>
        <time>2021-08-09T10:12:43Z</time>
      </trkpt>
      <trkpt lat="44.54425" lon="1.52565">
        <ele>201.4</ele>
        <time>2021-08-09T10:12:44Z</time>
      </trkpt>
      <trkpt lat="44.54423" lon="1.5257">
        <ele>201.5</ele>
        <time>2021-08-09T10:12:45Z</time>
      </trkpt>
      <trkpt lat="44.54421" lon="1.52575">
        <ele>201.5</ele>
        <time>2021-08-09T10:12:47Z</time>
      </trkpt>
      <trkpt lat="44.5442" lon="1.5258">
        <ele>201.5</ele>
        <time>2021-08-09T10:12:48Z</time>
      </trkpt>
      <trkpt lat="44.54418" lon="1.52586">
        <ele>201.6</ele>
        <time>2021-08-09T10:12:49Z</time>
      </trkpt>
      <trkpt lat="44.54417" lon="1.52593">
        <ele>201.6</ele>
        <time>2021-08-09T10:12:50Z</time>
      </trkpt>
      <trkpt lat="44.54416" lon="1.52604">
        <ele>201.6</ele>
        <time>2021-08-09T10:12:52Z</time>
      </trkpt>
      <trkpt lat="44.54416" lon="1.52611">
        <ele>201.5</ele>
        <time>2021-08-09T10:12:53Z</time>
      </trkpt>
      <trkpt lat="44.54413" lon="1.52626">
        <ele>201.2</ele>
        <time>2021-08-09T10:12:55Z</time>
      </trkpt>
      <trkpt lat="44.54411" lon="1.52634">
        <ele>201.1</ele>
        <time>2021-08-09T10:12:56Z</time>
      </trkpt>
      <trkpt lat="44.54407" lon="1.52649">
        <ele>200.7</ele>
        <time>2021-08-09T10:12:58Z</time>
      </trkpt>
      <trkpt lat="44.54405" lon="1.52656">
        <ele>200.6</ele>
        <time>2021-08-09T10:12:59Z</time>
      </trkpt>
      <trkpt lat="44.54401" lon="1.52671">
        <ele>200.2</ele>
        <time>2021-08-09T10:13:01Z</time>
      </trkpt>
      <trkpt lat="44.54398" lon="1.52678">
        <ele>200</ele>
        <time>2021-08-09T10:13:02Z</time>
      </trkpt>
      <trkpt lat="44.54394" lon="1.52694">
        <ele>199.5</ele>
        <time>2021-08-09T10:13:04Z</time>
      </trkpt>
      <trkpt lat="44.54391" lon="1.52703">
        <ele>199.1</ele>
        <time>2021-08-09T10:13:05Z</time>
      </trkpt>
      <trkpt lat="44.5439" lon="1.52712">
        <ele>198.7</ele>
        <time>2021-08-09T10:13:06Z</time>
      </trkpt>
      <trkpt lat="44.54388" lon="1.52722">
        <ele>198.3</ele>
        <time>2021-08-09T10:13:07Z</time>
      </trkpt>
      <trkpt lat="44.54388" lon="1.52732">
        <ele>197.9</ele>
        <time>2021-08-09T10:13:08Z</time>
      </trkpt>
      <trkpt lat="44.5439" lon="1.52754">
        <ele>197.4</ele>
        <time>2021-08-09T10:13:10Z</time>
      </trkpt>
      <trkpt lat="44.54393" lon="1.52774">
        <ele>197.4</ele>
        <time>2021-08-09T10:13:12Z</time>
      </trkpt>
      <trkpt lat="44.54395" lon="1.52792">
        <ele>197.6</ele>
        <time>2021-08-09T10:13:14Z</time>
      </trkpt>
      <trkpt lat="44.54398" lon="1.52807">
        <ele>197.9</ele>
        <time>2021-08-09T10:13:16Z</time>
      </trkpt>
      <trkpt lat="44.54399" lon="1.5282">
        <ele>198.1</ele>
        <time>2021-08-09T10:13:18Z</time>
      </trkpt>
      <trkpt lat="44.544" lon="1.52833">
        <ele>198.2</ele>
        <time>2021-08-09T10:13:20Z</time>
      </trkpt>
      <trkpt lat="44.54399" lon="1.52843">
        <ele>198.1</ele>
        <time>2021-08-09T10:13:22Z</time>
      </trkpt>
      <trkpt lat="44.54397" lon="1.52856">
        <ele>198.1</ele>
        <time>2021-08-09T10:13:24Z</time>
      </trkpt>
      <trkpt lat="44.54396" lon="1.52863">
        <ele>198</ele>
        <time>2021-08-09T10:13:25Z</time>
      </trkpt>
      <trkpt lat="44.54393" lon="1.5287">
        <ele>197.9</ele>
        <time>2021-08-09T10:13:26Z</time>
      </trkpt>
      <trkpt lat="44.54386" lon="1.52883">
        <ele>197.8</ele>
        <time>2021-08-09T10:13:28Z</time>
      </trkpt>
      <trkpt lat="44.54382" lon="1.52889">
        <ele>197.8</ele>
        <time>2021-08-09T10:13:29Z</time>
      </trkpt>
      <trkpt lat="44.54377" lon="1.529">
        <ele>197.7</ele>
        <time>2021-08-09T10:13:31Z</time>
      </trkpt>
      <trkpt lat="44.54379" lon="1.52905">
        <ele>197.6</ele>
        <time>2021-08-09T10:13:33Z</time>
      </trkpt>
      <trkpt lat="44.54377" lon="1.52912">
        <ele>197.6</ele>
        <time>2021-08-09T10:13:34Z</time>
      </trkpt>
      <trkpt lat="44.54375" lon="1.52924">
        <ele>197.4</ele>
        <time>2021-08-09T10:13:36Z</time>
      </trkpt>
      <trkpt lat="44.54377" lon="1.52932">
        <ele>197.4</ele>
        <time>2021-08-09T10:13:37Z</time>
      </trkpt>
      <trkpt lat="44.54379" lon="1.5294">
        <ele>197.3</ele>
        <time>2021-08-09T10:13:38Z</time>
      </trkpt>
      <trkpt lat="44.54383" lon="1.52954">
        <ele>197.2</ele>
        <time>2021-08-09T10:13:40Z</time>
      </trkpt>
      <trkpt lat="44.54388" lon="1.52968">
        <ele>197.1</ele>
        <time>2021-08-09T10:13:42Z</time>
      </trkpt>
      <trkpt lat="44.54393" lon="1.52982">
        <ele>196.9</ele>
        <time>2021-08-09T10:13:44Z</time>
      </trkpt>
      <trkpt lat="44.54397" lon="1.52996">
        <ele>196.8</ele>
        <time>2021-08-09T10:13:46Z</time>
      </trkpt>
      <trkpt lat="44.54401" lon="1.5301">
        <ele>196.7</ele>
        <time>2021-08-09T10:13:48Z</time>
      </trkpt>
      <trkpt lat="44.54403" lon="1.53017">
        <ele>196.6</ele>
        <time>2021-08-09T10:13:49Z</time>
      </trkpt>
      <trkpt lat="44.54404" lon="1.53025">
        <ele>196.6</ele>
        <time>2021-08-09T10:13:50Z</time>
      </trkpt>
      <trkpt lat="44.54405" lon="1.5304">
        <ele>196.5</ele>
        <time>2021-08-09T10:13:52Z</time>
      </trkpt>
      <trkpt lat="44.54405" lon="1.53048">
        <ele>196.5</ele>
        <time>2021-08-09T10:13:53Z</time>
      </trkpt>
      <trkpt lat="44.54406" lon="1.53056">
        <ele>196.4</ele>
        <time>2021-08-09T10:13:54Z</time>
      </trkpt>
      <trkpt lat="44.54407" lon="1.53063">
        <ele>196.4</ele>
        <time>2021-08-09T10:13:55Z</time>
      </trkpt>
      <trkpt lat="44.54407" lon="1.53071">
        <ele>196.4</ele>
        <time>2021-08-09T10:13:56Z</time>
      </trkpt>
      <trkpt lat="44.54409" lon="1.53085">
        <ele>196.4</ele>
        <time>2021-08-09T10:13:58Z</time>
      </trkpt>
      <trkpt lat="44.54411" lon="1.53101">
        <ele>196.4</ele>
        <time>2021-08-09T10:14:00Z</time>
      </trkpt>
      <trkpt lat="44.54411" lon="1.53115">
        <ele>196.5</ele>
        <time>2021-08-09T10:14:02Z</time>
      </trkpt>
      <trkpt lat="44.54412" lon="1.53128">
        <ele>196.6</ele>
        <time>2021-08-09T10:14:04Z</time>
      </trkpt>
      <trkpt lat="44.54412" lon="1.5314">
        <ele>196.7</ele>
        <time>2021-08-09T10:14:06Z</time>
      </trkpt>
      <trkpt lat="44.54412" lon="1.53144">
        <ele>196.8</ele>
        <time>2021-08-09T10:14:07Z</time>
      </trkpt>
      <trkpt lat="44.54412" lon="1.5315">
        <ele>196.8</ele>
        <time>2021-08-09T10:14:08Z</time>
      </trkpt>
      <trkpt lat="44.54412" lon="1.53161">
        <ele>196.9</ele>
        <time>2021-08-09T10:14:10Z</time>
      </trkpt>
      <trkpt lat="44.54413" lon="1.53176">
        <ele>197</ele>
        <time>2021-08-09T10:14:12Z</time>
      </trkpt>
      <trkpt lat="44.54412" lon="1.5318">
        <ele>197</ele>
        <time>2021-08-09T10:14:13Z</time>
      </trkpt>
      <trkpt lat="44.54411" lon="1.53188">
        <ele>196.9</ele>
        <time>2021-08-09T10:14:14Z</time>
      </trkpt>
      <trkpt lat="44.54411" lon="1.53203">
        <ele>196.8</ele>
        <time>2021-08-09T10:14:16Z</time>
      </trkpt>
      <trkpt lat="44.5441" lon="1.53211">
        <ele>196.7</ele>
        <time>2021-08-09T10:14:17Z</time>
      </trkpt>
      <trkpt lat="44.54409" lon="1.53218">
        <ele>196.6</ele>
        <time>2021-08-09T10:14:18Z</time>
      </trkpt>
      <trkpt lat="44.54408" lon="1.53225">
        <ele>196.6</ele>
        <time>2021-08-09T10:14:19Z</time>
      </trkpt>
      <trkpt lat="44.54406" lon="1.53231">
        <ele>196.5</ele>
        <time>2021-08-09T10:14:20Z</time>
      </trkpt>
      <trkpt lat="44.544" lon="1.53242">
        <ele>196.3</ele>
        <time>2021-08-09T10:14:22Z</time>
      </trkpt>
      <trkpt lat="44.54396" lon="1.53248">
        <ele>196.1</ele>
        <time>2021-08-09T10:14:23Z</time>
      </trkpt>
      <trkpt lat="44.54392" lon="1.53254">
        <ele>195.8</ele>
        <time>2021-08-09T10:14:24Z</time>
      </trkpt>
      <trkpt lat="44.54381" lon="1.53262">
        <ele>195.4</ele>
        <time>2021-08-09T10:14:26Z</time>
      </trkpt>
      <trkpt lat="44.54369" lon="1.5327">
        <ele>195</ele>
        <time>2021-08-09T10:14:28Z</time>
      </trkpt>
      <trkpt lat="44.54364" lon="1.53275">
        <ele>194.8</ele>
        <time>2021-08-09T10:14:29Z</time>
      </trkpt>
      <trkpt lat="44.5436" lon="1.53282">
        <ele>194.8</ele>
        <time>2021-08-09T10:14:30Z</time>
      </trkpt>
      <trkpt lat="44.54353" lon="1.53298">
        <ele>194.6</ele>
        <time>2021-08-09T10:14:32Z</time>
      </trkpt>
      <trkpt lat="44.54348" lon="1.53313">
        <ele>194.6</ele>
        <time>2021-08-09T10:14:34Z</time>
      </trkpt>
      <trkpt lat="44.54347" lon="1.5332">
        <ele>194.6</ele>
        <time>2021-08-09T10:14:35Z</time>
      </trkpt>
      <trkpt lat="44.54344" lon="1.53327">
        <ele>194.6</ele>
        <time>2021-08-09T10:14:36Z</time>
      </trkpt>
      <trkpt lat="44.54341" lon="1.53334">
        <ele>194.7</ele>
        <time>2021-08-09T10:14:37Z</time>
      </trkpt>
      <trkpt lat="44.54339" lon="1.53341">
        <ele>194.8</ele>
        <time>2021-08-09T10:14:38Z</time>
      </trkpt>
      <trkpt lat="44.54338" lon="1.53352">
        <ele>194.9</ele>
        <time>2021-08-09T10:14:40Z</time>
      </trkpt>
      <trkpt lat="44.54343" lon="1.5336">
        <ele>195.1</ele>
        <time>2021-08-09T10:14:42Z</time>
      </trkpt>
      <trkpt lat="44.5435" lon="1.53361">
        <ele>195.4</ele>
        <time>2021-08-09T10:14:44Z</time>
      </trkpt>
      <trkpt lat="44.54355" lon="1.53362">
        <ele>195.5</ele>
        <time>2021-08-09T10:14:45Z</time>
      </trkpt>
      <trkpt lat="44.54358" lon="1.53367">
        <ele>195.7</ele>
        <time>2021-08-09T10:14:47Z</time>
      </trkpt>
      <trkpt lat="44.54363" lon="1.53367">
        <ele>195.9</ele>
        <time>2021-08-09T10:14:48Z</time>
      </trkpt>
      <trkpt lat="44.54368" lon="1.53366">
        <ele>196</ele>
        <time>2021-08-09T10:14:49Z</time>
      </trkpt>
      <trkpt lat="44.54373" lon="1.53365">
        <ele>196.2</ele>
        <time>2021-08-09T10:14:50Z</time>
      </trkpt>
      <trkpt lat="44.54382" lon="1.53366">
        <ele>196.6</ele>
        <time>2021-08-09T10:14:52Z</time>
      </trkpt>
      <trkpt lat="44.54387" lon="1.53366">
        <ele>196.7</ele>
        <time>2021-08-09T10:14:53Z</time>
      </trkpt>
      <trkpt lat="44.54391" lon="1.53366">
        <ele>196.9</ele>
        <time>2021-08-09T10:14:55Z</time>
      </trkpt>
      <trkpt lat="44.54395" lon="1.53367">
        <ele>197.1</ele>
        <time>2021-08-09T10:14:56Z</time>
      </trkpt>
      <trkpt lat="44.54399" lon="1.53367">
        <ele>197.2</ele>
        <time>2021-08-09T10:14:57Z</time>
      </trkpt>
      <trkpt lat="44.54402" lon="1.53369">
        <ele>197.3</ele>
        <time>2021-08-09T10:14:58Z</time>
      </trkpt>
      <trkpt lat="44.54405" lon="1.53371">
        <ele>197.4</ele>
        <time>2021-08-09T10:14:59Z</time>
      </trkpt>
      <trkpt lat="44.54407" lon="1.53374">
        <ele>197.6</ele>
        <time>2021-08-09T10:15:00Z</time>
      </trkpt>
      <trkpt lat="44.54409" lon="1.53378">
        <ele>197.5</ele>
        <time>2021-08-09T10:15:01Z</time>
      </trkpt>
      <trkpt lat="44.54409" lon="1.53383">
        <ele>197.5</ele>
        <time>2021-08-09T10:15:02Z</time>
      </trkpt>
      <trkpt lat="44.54409" lon="1.53388">
        <ele>197.5</ele>
        <time>2021-08-09T10:15:03Z</time>
      </trkpt>
      <trkpt lat="44.54408" lon="1.53393">
        <ele>197.4</ele>
        <time>2021-08-09T10:15:05Z</time>
      </trkpt>
      <trkpt lat="44.54403" lon="1.53396">
        <ele>197.3</ele>
        <time>2021-08-09T10:15:07Z</time>
      </trkpt>
      <trkpt lat="44.54399" lon="1.53398">
        <ele>197.2</ele>
        <time>2021-08-09T10:15:08Z</time>
      </trkpt>
      <trkpt lat="44.54392" lon="1.53399">
        <ele>197</ele>
        <time>2021-08-09T10:15:10Z</time>
      </trkpt>
      <trkpt lat="44.54389" lon="1.534">
        <ele>196.9</ele>
        <time>2021-08-09T10:15:11Z</time>
      </trkpt>
      <trkpt lat="44.54384" lon="1.534">
        <ele>196.8</ele>
        <time>2021-08-09T10:15:12Z</time>
      </trkpt>
      <trkpt lat="44.5438" lon="1.534">
        <ele>196.7</ele>
        <time>2021-08-09T10:15:14Z</time>
      </trkpt>
      <trkpt lat="44.54375" lon="1.53401">
        <ele>196.6</ele>
        <time>2021-08-09T10:15:15Z</time>
      </trkpt>
      <trkpt lat="44.5437" lon="1.53402">
        <ele>196.5</ele>
        <time>2021-08-09T10:15:16Z</time>
      </trkpt>
      <trkpt lat="44.54366" lon="1.53403">
        <ele>196.4</ele>
        <time>2021-08-09T10:15:17Z</time>
      </trkpt>
      <trkpt lat="44.5436" lon="1.53405">
        <ele>196.3</ele>
        <time>2021-08-09T10:15:19Z</time>
      </trkpt>
      <trkpt lat="44.54355" lon="1.53407">
        <ele>196.2</ele>
        <time>2021-08-09T10:15:20Z</time>
      </trkpt>
      <trkpt lat="44.54349" lon="1.53411">
        <ele>196.1</ele>
        <time>2021-08-09T10:15:21Z</time>
      </trkpt>
      <trkpt lat="44.54342" lon="1.53413">
        <ele>196</ele>
        <time>2021-08-09T10:15:23Z</time>
      </trkpt>
      <trkpt lat="44.54336" lon="1.53416">
        <ele>196</ele>
        <time>2021-08-09T10:15:24Z</time>
      </trkpt>
      <trkpt lat="44.54331" lon="1.5342">
        <ele>195.9</ele>
        <time>2021-08-09T10:15:26Z</time>
      </trkpt>
      <trkpt lat="44.54328" lon="1.53421">
        <ele>195.9</ele>
        <time>2021-08-09T10:15:27Z</time>
      </trkpt>
      <trkpt lat="44.5432" lon="1.53424">
        <ele>195.9</ele>
        <time>2021-08-09T10:15:29Z</time>
      </trkpt>
      <trkpt lat="44.54316" lon="1.53427">
        <ele>195.9</ele>
        <time>2021-08-09T10:15:30Z</time>
      </trkpt>
      <trkpt lat="44.54311" lon="1.53434">
        <ele>195.8</ele>
        <time>2021-08-09T10:15:31Z</time>
      </trkpt>
      <trkpt lat="44.54307" lon="1.5344">
        <ele>195.8</ele>
        <time>2021-08-09T10:15:33Z</time>
      </trkpt>
      <trkpt lat="44.54303" lon="1.53444">
        <ele>195.8</ele>
        <time>2021-08-09T10:15:35Z</time>
      </trkpt>
      <trkpt lat="44.54301" lon="1.53446">
        <ele>195.8</ele>
        <time>2021-08-09T10:15:36Z</time>
      </trkpt>
      <trkpt lat="44.54299" lon="1.5345">
        <ele>195.8</ele>
        <time>2021-08-09T10:15:37Z</time>
      </trkpt>
      <trkpt lat="44.54296" lon="1.53455">
        <ele>195.8</ele>
        <time>2021-08-09T10:15:38Z</time>
      </trkpt>
      <trkpt lat="44.54292" lon="1.53465">
        <ele>195.7</ele>
        <time>2021-08-09T10:15:40Z</time>
      </trkpt>
      <trkpt lat="44.54288" lon="1.53478">
        <ele>195.6</ele>
        <time>2021-08-09T10:15:41Z</time>
      </trkpt>
      <trkpt lat="44.54286" lon="1.53486">
        <ele>195.5</ele>
        <time>2021-08-09T10:15:42Z</time>
      </trkpt>
      <trkpt lat="44.54284" lon="1.53493">
        <ele>195.5</ele>
        <time>2021-08-09T10:15:43Z</time>
      </trkpt>
      <trkpt lat="44.54282" lon="1.535">
        <ele>195.5</ele>
        <time>2021-08-09T10:15:44Z</time>
      </trkpt>
      <trkpt lat="44.54278" lon="1.53511">
        <ele>195.6</ele>
        <time>2021-08-09T10:15:46Z</time>
      </trkpt>
      <trkpt lat="44.54276" lon="1.53516">
        <ele>195.7</ele>
        <time>2021-08-09T10:15:47Z</time>
      </trkpt>
      <trkpt lat="44.54274" lon="1.53524">
        <ele>195.7</ele>
        <time>2021-08-09T10:15:48Z</time>
      </trkpt>
      <trkpt lat="44.54271" lon="1.53534">
        <ele>195.8</ele>
        <time>2021-08-09T10:15:50Z</time>
      </trkpt>
      <trkpt lat="44.54267" lon="1.53543">
        <ele>195.8</ele>
        <time>2021-08-09T10:15:52Z</time>
      </trkpt>
      <trkpt lat="44.54264" lon="1.5355">
        <ele>195.8</ele>
        <time>2021-08-09T10:15:53Z</time>
      </trkpt>
      <trkpt lat="44.54262" lon="1.5356">
        <ele>195.8</ele>
        <time>2021-08-09T10:15:54Z</time>
      </trkpt>
      <trkpt lat="44.54259" lon="1.53574">
        <ele>195.7</ele>
        <time>2021-08-09T10:15:56Z</time>
      </trkpt>
      <trkpt lat="44.54256" lon="1.53588">
        <ele>195.5</ele>
        <time>2021-08-09T10:15:58Z</time>
      </trkpt>
      <trkpt lat="44.54253" lon="1.53595">
        <ele>195.3</ele>
        <time>2021-08-09T10:15:59Z</time>
      </trkpt>
      <trkpt lat="44.54249" lon="1.53612">
        <ele>195.1</ele>
        <time>2021-08-09T10:16:01Z</time>
      </trkpt>
      <trkpt lat="44.54248" lon="1.53621">
        <ele>195.2</ele>
        <time>2021-08-09T10:16:02Z</time>
      </trkpt>
      <trkpt lat="44.54246" lon="1.53638">
        <ele>195.6</ele>
        <time>2021-08-09T10:16:04Z</time>
      </trkpt>
      <trkpt lat="44.54246" lon="1.53646">
        <ele>195.7</ele>
        <time>2021-08-09T10:16:05Z</time>
      </trkpt>
      <trkpt lat="44.54245" lon="1.53653">
        <ele>195.8</ele>
        <time>2021-08-09T10:16:06Z</time>
      </trkpt>
      <trkpt lat="44.54243" lon="1.53667">
        <ele>195.9</ele>
        <time>2021-08-09T10:16:08Z</time>
      </trkpt>
      <trkpt lat="44.54242" lon="1.53681">
        <ele>196.1</ele>
        <time>2021-08-09T10:16:10Z</time>
      </trkpt>
      <trkpt lat="44.54241" lon="1.53688">
        <ele>196.2</ele>
        <time>2021-08-09T10:16:11Z</time>
      </trkpt>
      <trkpt lat="44.54241" lon="1.53694">
        <ele>196.2</ele>
        <time>2021-08-09T10:16:12Z</time>
      </trkpt>
      <trkpt lat="44.54242" lon="1.537">
        <ele>196.3</ele>
        <time>2021-08-09T10:16:13Z</time>
      </trkpt>
      <trkpt lat="44.54242" lon="1.53706">
        <ele>196.4</ele>
        <time>2021-08-09T10:16:14Z</time>
      </trkpt>
      <trkpt lat="44.54242" lon="1.53719">
        <ele>196.5</ele>
        <time>2021-08-09T10:16:16Z</time>
      </trkpt>
      <trkpt lat="44.54241" lon="1.53729">
        <ele>196.6</ele>
        <time>2021-08-09T10:16:18Z</time>
      </trkpt>
      <trkpt lat="44.54239" lon="1.5373">
        <ele>196.6</ele>
        <time>2021-08-09T10:16:19Z</time>
      </trkpt>
      <trkpt lat="44.54236" lon="1.53744">
        <ele>196.6</ele>
        <time>2021-08-09T10:16:21Z</time>
      </trkpt>
      <trkpt lat="44.54234" lon="1.5376">
        <ele>196.7</ele>
        <time>2021-08-09T10:16:23Z</time>
      </trkpt>
      <trkpt lat="44.54232" lon="1.53768">
        <ele>196.9</ele>
        <time>2021-08-09T10:16:24Z</time>
      </trkpt>
      <trkpt lat="44.54231" lon="1.53774">
        <ele>197</ele>
        <time>2021-08-09T10:16:25Z</time>
      </trkpt>
      <trkpt lat="44.54229" lon="1.53778">
        <ele>197.1</ele>
        <time>2021-08-09T10:16:26Z</time>
      </trkpt>
      <trkpt lat="44.54227" lon="1.53783">
        <ele>197.2</ele>
        <time>2021-08-09T10:16:27Z</time>
      </trkpt>
      <trkpt lat="44.54224" lon="1.53791">
        <ele>197.4</ele>
        <time>2021-08-09T10:16:29Z</time>
      </trkpt>
      <trkpt lat="44.54221" lon="1.53795">
        <ele>197.4</ele>
        <time>2021-08-09T10:16:30Z</time>
      </trkpt>
      <trkpt lat="44.54216" lon="1.53804">
        <ele>197.3</ele>
        <time>2021-08-09T10:16:32Z</time>
      </trkpt>
      <trkpt lat="44.54213" lon="1.53811">
        <ele>197.1</ele>
        <time>2021-08-09T10:16:33Z</time>
      </trkpt>
      <trkpt lat="44.54208" lon="1.53817">
        <ele>196.8</ele>
        <time>2021-08-09T10:16:34Z</time>
      </trkpt>
      <trkpt lat="44.54198" lon="1.53824">
        <ele>196.1</ele>
        <time>2021-08-09T10:16:36Z</time>
      </trkpt>
      <trkpt lat="44.54185" lon="1.53824">
        <ele>195</ele>
        <time>2021-08-09T10:16:38Z</time>
      </trkpt>
      <trkpt lat="44.54172" lon="1.53816">
        <ele>194.1</ele>
        <time>2021-08-09T10:16:40Z</time>
      </trkpt>
      <trkpt lat="44.54165" lon="1.53813">
        <ele>194</ele>
        <time>2021-08-09T10:16:41Z</time>
      </trkpt>
      <trkpt lat="44.54158" lon="1.53811">
        <ele>193.9</ele>
        <time>2021-08-09T10:16:42Z</time>
      </trkpt>
      <trkpt lat="44.54145" lon="1.53813">
        <ele>193.8</ele>
        <time>2021-08-09T10:16:44Z</time>
      </trkpt>
      <trkpt lat="44.54135" lon="1.5382">
        <ele>193.7</ele>
        <time>2021-08-09T10:16:46Z</time>
      </trkpt>
      <trkpt lat="44.5413" lon="1.53825">
        <ele>193.8</ele>
        <time>2021-08-09T10:16:47Z</time>
      </trkpt>
      <trkpt lat="44.54124" lon="1.53832">
        <ele>193.8</ele>
        <time>2021-08-09T10:16:48Z</time>
      </trkpt>
      <trkpt lat="44.54114" lon="1.53845">
        <ele>193.8</ele>
        <time>2021-08-09T10:16:50Z</time>
      </trkpt>
      <trkpt lat="44.54105" lon="1.5386">
        <ele>193.7</ele>
        <time>2021-08-09T10:16:52Z</time>
      </trkpt>
      <trkpt lat="44.54101" lon="1.53867">
        <ele>193.6</ele>
        <time>2021-08-09T10:16:53Z</time>
      </trkpt>
      <trkpt lat="44.54094" lon="1.53878">
        <ele>193.5</ele>
        <time>2021-08-09T10:16:55Z</time>
      </trkpt>
      <trkpt lat="44.54091" lon="1.53882">
        <ele>193.4</ele>
        <time>2021-08-09T10:16:56Z</time>
      </trkpt>
      <trkpt lat="44.54085" lon="1.53895">
        <ele>193.3</ele>
        <time>2021-08-09T10:16:58Z</time>
      </trkpt>
      <trkpt lat="44.54081" lon="1.53901">
        <ele>193.2</ele>
        <time>2021-08-09T10:16:59Z</time>
      </trkpt>
      <trkpt lat="44.54077" lon="1.53908">
        <ele>193.1</ele>
        <time>2021-08-09T10:17:00Z</time>
      </trkpt>
      <trkpt lat="44.54073" lon="1.53923">
        <ele>193</ele>
        <time>2021-08-09T10:17:02Z</time>
      </trkpt>
      <trkpt lat="44.54069" lon="1.53938">
        <ele>192.8</ele>
        <time>2021-08-09T10:17:04Z</time>
      </trkpt>
      <trkpt lat="44.54067" lon="1.53946">
        <ele>192.7</ele>
        <time>2021-08-09T10:17:05Z</time>
      </trkpt>
      <trkpt lat="44.54063" lon="1.53962">
        <ele>192.5</ele>
        <time>2021-08-09T10:17:07Z</time>
      </trkpt>
      <trkpt lat="44.54061" lon="1.53969">
        <ele>192.4</ele>
        <time>2021-08-09T10:17:08Z</time>
      </trkpt>
      <trkpt lat="44.54057" lon="1.53984">
        <ele>192.3</ele>
        <time>2021-08-09T10:17:10Z</time>
      </trkpt>
      <trkpt lat="44.54055" lon="1.53991">
        <ele>192.3</ele>
        <time>2021-08-09T10:17:11Z</time>
      </trkpt>
      <trkpt lat="44.5405" lon="1.54004">
        <ele>192.2</ele>
        <time>2021-08-09T10:17:13Z</time>
      </trkpt>
      <trkpt lat="44.54048" lon="1.54011">
        <ele>192.2</ele>
        <time>2021-08-09T10:17:14Z</time>
      </trkpt>
      <trkpt lat="44.54044" lon="1.54025">
        <ele>192.1</ele>
        <time>2021-08-09T10:17:16Z</time>
      </trkpt>
      <trkpt lat="44.54041" lon="1.54039">
        <ele>192</ele>
        <time>2021-08-09T10:17:18Z</time>
      </trkpt>
      <trkpt lat="44.54039" lon="1.54046">
        <ele>192</ele>
        <time>2021-08-09T10:17:19Z</time>
      </trkpt>
      <trkpt lat="44.54037" lon="1.54053">
        <ele>192</ele>
        <time>2021-08-09T10:17:20Z</time>
      </trkpt>
      <trkpt lat="44.54033" lon="1.54066">
        <ele>191.9</ele>
        <time>2021-08-09T10:17:22Z</time>
      </trkpt>
      <trkpt lat="44.54031" lon="1.54072">
        <ele>191.9</ele>
        <time>2021-08-09T10:17:23Z</time>
      </trkpt>
      <trkpt lat="44.5403" lon="1.54079">
        <ele>191.8</ele>
        <time>2021-08-09T10:17:24Z</time>
      </trkpt>
      <trkpt lat="44.54026" lon="1.54092">
        <ele>191.7</ele>
        <time>2021-08-09T10:17:26Z</time>
      </trkpt>
      <trkpt lat="44.54024" lon="1.54105">
        <ele>191.6</ele>
        <time>2021-08-09T10:17:28Z</time>
      </trkpt>
      <trkpt lat="44.54023" lon="1.54113">
        <ele>191.6</ele>
        <time>2021-08-09T10:17:29Z</time>
      </trkpt>
      <trkpt lat="44.54022" lon="1.54128">
        <ele>191.6</ele>
        <time>2021-08-09T10:17:31Z</time>
      </trkpt>
      <trkpt lat="44.54022" lon="1.54135">
        <ele>191.6</ele>
        <time>2021-08-09T10:17:32Z</time>
      </trkpt>
      <trkpt lat="44.54024" lon="1.5415">
        <ele>191.6</ele>
        <time>2021-08-09T10:17:34Z</time>
      </trkpt>
      <trkpt lat="44.54028" lon="1.54164">
        <ele>191.5</ele>
        <time>2021-08-09T10:17:36Z</time>
      </trkpt>
      <trkpt lat="44.54031" lon="1.54171">
        <ele>191.5</ele>
        <time>2021-08-09T10:17:37Z</time>
      </trkpt>
      <trkpt lat="44.54034" lon="1.54177">
        <ele>191.5</ele>
        <time>2021-08-09T10:17:38Z</time>
      </trkpt>
      <trkpt lat="44.54039" lon="1.54189">
        <ele>191.4</ele>
        <time>2021-08-09T10:17:40Z</time>
      </trkpt>
      <trkpt lat="44.54045" lon="1.542">
        <ele>191.4</ele>
        <time>2021-08-09T10:17:42Z</time>
      </trkpt>
      <trkpt lat="44.54051" lon="1.54211">
        <ele>191.3</ele>
        <time>2021-08-09T10:17:44Z</time>
      </trkpt>
      <trkpt lat="44.54057" lon="1.54222">
        <ele>191.3</ele>
        <time>2021-08-09T10:17:46Z</time>
      </trkpt>
      <trkpt lat="44.5406" lon="1.54228">
        <ele>191.3</ele>
        <time>2021-08-09T10:17:47Z</time>
      </trkpt>
      <trkpt lat="44.54065" lon="1.54239">
        <ele>191.3</ele>
        <time>2021-08-09T10:17:49Z</time>
      </trkpt>
      <trkpt lat="44.54068" lon="1.54245">
        <ele>191.3</ele>
        <time>2021-08-09T10:17:50Z</time>
      </trkpt>
      <trkpt lat="44.54073" lon="1.54256">
        <ele>191.3</ele>
        <time>2021-08-09T10:17:52Z</time>
      </trkpt>
      <trkpt lat="44.54076" lon="1.54262">
        <ele>191.3</ele>
        <time>2021-08-09T10:17:53Z</time>
      </trkpt>
      <trkpt lat="44.5408" lon="1.5427">
        <ele>191.3</ele>
        <time>2021-08-09T10:17:55Z</time>
      </trkpt>
      <trkpt lat="44.54083" lon="1.54276">
        <ele>191.3</ele>
        <time>2021-08-09T10:17:56Z</time>
      </trkpt>
      <trkpt lat="44.54088" lon="1.54289">
        <ele>191.3</ele>
        <time>2021-08-09T10:17:58Z</time>
      </trkpt>
      <trkpt lat="44.54094" lon="1.54302">
        <ele>191.3</ele>
        <time>2021-08-09T10:18:00Z</time>
      </trkpt>
      <trkpt lat="44.54096" lon="1.54309">
        <ele>191.4</ele>
        <time>2021-08-09T10:18:01Z</time>
      </trkpt>
      <trkpt lat="44.54097" lon="1.54315">
        <ele>191.4</ele>
        <time>2021-08-09T10:18:02Z</time>
      </trkpt>
      <trkpt lat="44.54097" lon="1.54329">
        <ele>191.5</ele>
        <time>2021-08-09T10:18:04Z</time>
      </trkpt>
      <trkpt lat="44.54095" lon="1.54335">
        <ele>191.5</ele>
        <time>2021-08-09T10:18:05Z</time>
      </trkpt>
      <trkpt lat="44.54094" lon="1.54341">
        <ele>191.5</ele>
        <time>2021-08-09T10:18:07Z</time>
      </trkpt>
      <trkpt lat="44.54092" lon="1.54346">
        <ele>191.5</ele>
        <time>2021-08-09T10:18:08Z</time>
      </trkpt>
      <trkpt lat="44.54089" lon="1.54352">
        <ele>191.6</ele>
        <time>2021-08-09T10:18:09Z</time>
      </trkpt>
      <trkpt lat="44.54084" lon="1.54361">
        <ele>191.7</ele>
        <time>2021-08-09T10:18:10Z</time>
      </trkpt>
      <trkpt lat="44.54082" lon="1.54368">
        <ele>191.7</ele>
        <time>2021-08-09T10:18:11Z</time>
      </trkpt>
      <trkpt lat="44.54077" lon="1.54379">
        <ele>191.9</ele>
        <time>2021-08-09T10:18:13Z</time>
      </trkpt>
      <trkpt lat="44.54076" lon="1.54381">
        <ele>192</ele>
        <time>2021-08-09T10:18:14Z</time>
      </trkpt>
      <trkpt lat="44.54074" lon="1.54388">
        <ele>192.2</ele>
        <time>2021-08-09T10:18:16Z</time>
      </trkpt>
      <trkpt lat="44.54073" lon="1.54395">
        <ele>192.4</ele>
        <time>2021-08-09T10:18:17Z</time>
      </trkpt>
      <trkpt lat="44.54072" lon="1.54402">
        <ele>192.7</ele>
        <time>2021-08-09T10:18:18Z</time>
      </trkpt>
      <trkpt lat="44.54071" lon="1.54407">
        <ele>193.1</ele>
        <time>2021-08-09T10:18:19Z</time>
      </trkpt>
      <trkpt lat="44.54072" lon="1.54414">
        <ele>193.5</ele>
        <time>2021-08-09T10:18:20Z</time>
      </trkpt>
      <trkpt lat="44.54072" lon="1.54422">
        <ele>194.1</ele>
        <time>2021-08-09T10:18:22Z</time>
      </trkpt>
      <trkpt lat="44.54072" lon="1.54429">
        <ele>194.3</ele>
        <time>2021-08-09T10:18:23Z</time>
      </trkpt>
      <trkpt lat="44.54072" lon="1.54437">
        <ele>194.6</ele>
        <time>2021-08-09T10:18:24Z</time>
      </trkpt>
      <trkpt lat="44.54073" lon="1.54443">
        <ele>194.6</ele>
        <time>2021-08-09T10:18:25Z</time>
      </trkpt>
      <trkpt lat="44.54074" lon="1.54453">
        <ele>194.5</ele>
        <time>2021-08-09T10:18:27Z</time>
      </trkpt>
      <trkpt lat="44.54075" lon="1.54459">
        <ele>194.4</ele>
        <time>2021-08-09T10:18:28Z</time>
      </trkpt>
      <trkpt lat="44.54077" lon="1.54467">
        <ele>194.3</ele>
        <time>2021-08-09T10:18:29Z</time>
      </trkpt>
      <trkpt lat="44.54077" lon="1.54473">
        <ele>194.3</ele>
        <time>2021-08-09T10:18:30Z</time>
      </trkpt>
      <trkpt lat="44.54075" lon="1.54477">
        <ele>194.3</ele>
        <time>2021-08-09T10:18:31Z</time>
      </trkpt>
      <trkpt lat="44.54072" lon="1.54479">
        <ele>194.4</ele>
        <time>2021-08-09T10:18:33Z</time>
      </trkpt>
      <trkpt lat="44.5407" lon="1.54481">
        <ele>194.5</ele>
        <time>2021-08-09T10:18:34Z</time>
      </trkpt>
      <trkpt lat="44.54066" lon="1.54483">
        <ele>194.7</ele>
        <time>2021-08-09T10:18:35Z</time>
      </trkpt>
      <trkpt lat="44.54064" lon="1.54486">
        <ele>194.9</ele>
        <time>2021-08-09T10:18:36Z</time>
      </trkpt>
      <trkpt lat="44.54062" lon="1.54491">
        <ele>195.4</ele>
        <time>2021-08-09T10:18:38Z</time>
      </trkpt>
      <trkpt lat="44.5406" lon="1.54494">
        <ele>195.3</ele>
        <time>2021-08-09T10:18:39Z</time>
      </trkpt>
      <trkpt lat="44.54059" lon="1.54496">
        <ele>195.3</ele>
        <time>2021-08-09T10:18:40Z</time>
      </trkpt>
      <trkpt lat="44.54057" lon="1.54499">
        <ele>194.5</ele>
        <time>2021-08-09T10:18:41Z</time>
      </trkpt>
      <trkpt lat="44.54055" lon="1.54501">
        <ele>193</ele>
        <time>2021-08-09T10:18:42Z</time>
      </trkpt>
      <trkpt lat="44.54054" lon="1.54504">
        <ele>191.8</ele>
        <time>2021-08-09T10:18:44Z</time>
      </trkpt>
      <trkpt lat="44.54053" lon="1.54508">
        <ele>190.1</ele>
        <time>2021-08-09T10:18:45Z</time>
      </trkpt>
      <trkpt lat="44.54053" lon="1.5451">
        <ele>189.3</ele>
        <time>2021-08-09T10:18:46Z</time>
      </trkpt>
      <trkpt lat="44.54054" lon="1.54512">
        <ele>188.1</ele>
        <time>2021-08-09T10:18:47Z</time>
      </trkpt>
      <trkpt lat="44.54055" lon="1.54515">
        <ele>186.5</ele>
        <time>2021-08-09T10:18:49Z</time>
      </trkpt>
      <trkpt lat="44.54057" lon="1.5452">
        <ele>185.9</ele>
        <time>2021-08-09T10:18:50Z</time>
      </trkpt>
      <trkpt lat="44.54059" lon="1.54527">
        <ele>185.6</ele>
        <time>2021-08-09T10:18:52Z</time>
      </trkpt>
      <trkpt lat="44.54061" lon="1.54531">
        <ele>185.5</ele>
        <time>2021-08-09T10:18:53Z</time>
      </trkpt>
      <trkpt lat="44.54063" lon="1.54536">
        <ele>185.3</ele>
        <time>2021-08-09T10:18:54Z</time>
      </trkpt>
      <trkpt lat="44.54066" lon="1.54541">
        <ele>185.2</ele>
        <time>2021-08-09T10:18:55Z</time>
      </trkpt>
      <trkpt lat="44.54068" lon="1.54545">
        <ele>185.1</ele>
        <time>2021-08-09T10:18:56Z</time>
      </trkpt>
      <trkpt lat="44.54071" lon="1.5455">
        <ele>185</ele>
        <time>2021-08-09T10:18:57Z</time>
      </trkpt>
      <trkpt lat="44.54074" lon="1.54553">
        <ele>184.9</ele>
        <time>2021-08-09T10:18:59Z</time>
      </trkpt>
      <trkpt lat="44.54076" lon="1.54556">
        <ele>184.9</ele>
        <time>2021-08-09T10:19:00Z</time>
      </trkpt>
      <trkpt lat="44.54079" lon="1.54557">
        <ele>184.8</ele>
        <time>2021-08-09T10:19:01Z</time>
      </trkpt>
      <trkpt lat="44.5408" lon="1.54558">
        <ele>184.8</ele>
        <time>2021-08-09T10:19:02Z</time>
      </trkpt>
      <trkpt lat="44.54082" lon="1.54558">
        <ele>184.8</ele>
        <time>2021-08-09T10:19:03Z</time>
      </trkpt>
      <trkpt lat="44.54085" lon="1.54559">
        <ele>184.8</ele>
        <time>2021-08-09T10:19:05Z</time>
      </trkpt>
      <trkpt lat="44.54085" lon="1.5456">
        <ele>184.8</ele>
        <time>2021-08-09T10:19:06Z</time>
      </trkpt>
      <trkpt lat="44.54086" lon="1.54561">
        <ele>184.7</ele>
        <time>2021-08-09T10:19:08Z</time>
      </trkpt>
      <trkpt lat="44.54086" lon="1.54561">
        <ele>184.7</ele>
        <time>2021-08-09T10:19:09Z</time>
      </trkpt>
      <trkpt lat="44.54086" lon="1.54561">
        <ele>184.7</ele>
        <time>2021-08-09T10:19:10Z</time>
      </trkpt>
      <trkpt lat="44.54087" lon="1.54561">
        <ele>184.7</ele>
        <time>2021-08-09T10:19:11Z</time>
      </trkpt>
      <trkpt lat="44.54087" lon="1.54561">
        <ele>184.7</ele>
        <time>2021-08-09T10:19:12Z</time>
      </trkpt>
      <trkpt lat="44.54087" lon="1.54561">
        <ele>184.7</ele>
        <time>2021-08-09T10:19:14Z</time>
      </trkpt>
      <trkpt lat="44.54089" lon="1.54566">
        <ele>184.7</ele>
        <time>2021-08-09T10:19:20Z</time>
      </trkpt>
      <trkpt lat="44.54091" lon="1.54571">
        <ele>184.7</ele>
        <time>2021-08-09T10:19:21Z</time>
      </trkpt>
      <trkpt lat="44.54094" lon="1.54576">
        <ele>184.7</ele>
        <time>2021-08-09T10:19:23Z</time>
      </trkpt>
      <trkpt lat="44.54097" lon="1.54581">
        <ele>184.6</ele>
        <time>2021-08-09T10:19:24Z</time>
      </trkpt>
      <trkpt lat="44.54099" lon="1.54585">
        <ele>184.6</ele>
        <time>2021-08-09T10:19:25Z</time>
      </trkpt>
      <trkpt lat="44.54102" lon="1.54591">
        <ele>184.6</ele>
        <time>2021-08-09T10:19:27Z</time>
      </trkpt>
      <trkpt lat="44.54104" lon="1.54595">
        <ele>184.5</ele>
        <time>2021-08-09T10:19:28Z</time>
      </trkpt>
      <trkpt lat="44.54107" lon="1.54598">
        <ele>184.5</ele>
        <time>2021-08-09T10:19:29Z</time>
      </trkpt>
      <trkpt lat="44.54112" lon="1.54605">
        <ele>184.4</ele>
        <time>2021-08-09T10:19:31Z</time>
      </trkpt>
      <trkpt lat="44.54116" lon="1.5461">
        <ele>184.3</ele>
        <time>2021-08-09T10:19:32Z</time>
      </trkpt>
      <trkpt lat="44.54119" lon="1.54616">
        <ele>184.2</ele>
        <time>2021-08-09T10:19:33Z</time>
      </trkpt>
      <trkpt lat="44.54123" lon="1.54621">
        <ele>184.1</ele>
        <time>2021-08-09T10:19:34Z</time>
      </trkpt>
      <trkpt lat="44.54128" lon="1.54629">
        <ele>184</ele>
        <time>2021-08-09T10:19:36Z</time>
      </trkpt>
      <trkpt lat="44.54131" lon="1.54634">
        <ele>183.9</ele>
        <time>2021-08-09T10:19:37Z</time>
      </trkpt>
      <trkpt lat="44.54134" lon="1.5464">
        <ele>183.9</ele>
        <time>2021-08-09T10:19:38Z</time>
      </trkpt>
      <trkpt lat="44.54137" lon="1.54646">
        <ele>183.9</ele>
        <time>2021-08-09T10:19:39Z</time>
      </trkpt>
      <trkpt lat="44.5414" lon="1.54653">
        <ele>183.8</ele>
        <time>2021-08-09T10:19:41Z</time>
      </trkpt>
      <trkpt lat="44.54144" lon="1.5466">
        <ele>183.8</ele>
        <time>2021-08-09T10:19:42Z</time>
      </trkpt>
      <trkpt lat="44.54151" lon="1.54667">
        <ele>183.9</ele>
        <time>2021-08-09T10:19:44Z</time>
      </trkpt>
      <trkpt lat="44.54154" lon="1.54672">
        <ele>183.9</ele>
        <time>2021-08-09T10:19:45Z</time>
      </trkpt>
      <trkpt lat="44.54159" lon="1.54678">
        <ele>183.9</ele>
        <time>2021-08-09T10:19:46Z</time>
      </trkpt>
      <trkpt lat="44.54166" lon="1.54686">
        <ele>183.9</ele>
        <time>2021-08-09T10:19:48Z</time>
      </trkpt>
      <trkpt lat="44.5417" lon="1.54689">
        <ele>183.9</ele>
        <time>2021-08-09T10:19:49Z</time>
      </trkpt>
      <trkpt lat="44.54175" lon="1.54691">
        <ele>184</ele>
        <time>2021-08-09T10:19:50Z</time>
      </trkpt>
      <trkpt lat="44.54178" lon="1.54694">
        <ele>184</ele>
        <time>2021-08-09T10:19:52Z</time>
      </trkpt>
      <trkpt lat="44.54182" lon="1.54696">
        <ele>184</ele>
        <time>2021-08-09T10:19:53Z</time>
      </trkpt>
      <trkpt lat="44.54187" lon="1.54696">
        <ele>184</ele>
        <time>2021-08-09T10:19:54Z</time>
      </trkpt>
      <trkpt lat="44.54196" lon="1.54698">
        <ele>184.1</ele>
        <time>2021-08-09T10:19:56Z</time>
      </trkpt>
      <trkpt lat="44.54201" lon="1.54698">
        <ele>184.1</ele>
        <time>2021-08-09T10:19:57Z</time>
      </trkpt>
      <trkpt lat="44.54205" lon="1.54699">
        <ele>184.2</ele>
        <time>2021-08-09T10:19:58Z</time>
      </trkpt>
      <trkpt lat="44.5421" lon="1.547">
        <ele>184.2</ele>
        <time>2021-08-09T10:20:00Z</time>
      </trkpt>
      <trkpt lat="44.54214" lon="1.54698">
        <ele>184.4</ele>
        <time>2021-08-09T10:20:01Z</time>
      </trkpt>
      <trkpt lat="44.54217" lon="1.54695">
        <ele>184.5</ele>
        <time>2021-08-09T10:20:02Z</time>
      </trkpt>
      <trkpt lat="44.54222" lon="1.54692">
        <ele>184.7</ele>
        <time>2021-08-09T10:20:04Z</time>
      </trkpt>
      <trkpt lat="44.54225" lon="1.5469">
        <ele>184.8</ele>
        <time>2021-08-09T10:20:05Z</time>
      </trkpt>
      <trkpt lat="44.54227" lon="1.54688">
        <ele>185</ele>
        <time>2021-08-09T10:20:06Z</time>
      </trkpt>
      <trkpt lat="44.54229" lon="1.54687">
        <ele>185.1</ele>
        <time>2021-08-09T10:20:08Z</time>
      </trkpt>
      <trkpt lat="44.5423" lon="1.54684">
        <ele>185.2</ele>
        <time>2021-08-09T10:20:09Z</time>
      </trkpt>
      <trkpt lat="44.54232" lon="1.54683">
        <ele>185.3</ele>
        <time>2021-08-09T10:20:10Z</time>
      </trkpt>
      <trkpt lat="44.54235" lon="1.54678">
        <ele>185.6</ele>
        <time>2021-08-09T10:20:12Z</time>
      </trkpt>
      <trkpt lat="44.54238" lon="1.54674">
        <ele>185.9</ele>
        <time>2021-08-09T10:20:13Z</time>
      </trkpt>
      <trkpt lat="44.54241" lon="1.54672">
        <ele>186.2</ele>
        <time>2021-08-09T10:20:15Z</time>
      </trkpt>
      <trkpt lat="44.54243" lon="1.54669">
        <ele>186.4</ele>
        <time>2021-08-09T10:20:16Z</time>
      </trkpt>
      <trkpt lat="44.54245" lon="1.54667">
        <ele>186.7</ele>
        <time>2021-08-09T10:20:17Z</time>
      </trkpt>
      <trkpt lat="44.54248" lon="1.54664">
        <ele>187.1</ele>
        <time>2021-08-09T10:20:18Z</time>
      </trkpt>
      <trkpt lat="44.54249" lon="1.54663">
        <ele>187.2</ele>
        <time>2021-08-09T10:20:19Z</time>
      </trkpt>
      <trkpt lat="44.54251" lon="1.5466">
        <ele>187.5</ele>
        <time>2021-08-09T10:20:21Z</time>
      </trkpt>
      <trkpt lat="44.54252" lon="1.54656">
        <ele>187.9</ele>
        <time>2021-08-09T10:20:22Z</time>
      </trkpt>
      <trkpt lat="44.54253" lon="1.54652">
        <ele>188.4</ele>
        <time>2021-08-09T10:20:24Z</time>
      </trkpt>
      <trkpt lat="44.54253" lon="1.5465">
        <ele>188.6</ele>
        <time>2021-08-09T10:20:25Z</time>
      </trkpt>
      <trkpt lat="44.54254" lon="1.54643">
        <ele>189.2</ele>
        <time>2021-08-09T10:20:27Z</time>
      </trkpt>
      <trkpt lat="44.54255" lon="1.54641">
        <ele>189.4</ele>
        <time>2021-08-09T10:20:28Z</time>
      </trkpt>
      <trkpt lat="44.54255" lon="1.54639">
        <ele>189.6</ele>
        <time>2021-08-09T10:20:29Z</time>
      </trkpt>
      <trkpt lat="44.54256" lon="1.54636">
        <ele>190</ele>
        <time>2021-08-09T10:20:30Z</time>
      </trkpt>
      <trkpt lat="44.54257" lon="1.54632">
        <ele>190.3</ele>
        <time>2021-08-09T10:20:32Z</time>
      </trkpt>
      <trkpt lat="44.54259" lon="1.54629">
        <ele>190.7</ele>
        <time>2021-08-09T10:20:33Z</time>
      </trkpt>
      <trkpt lat="44.5426" lon="1.54629">
        <ele>190.8</ele>
        <time>2021-08-09T10:20:34Z</time>
      </trkpt>
      <trkpt lat="44.54261" lon="1.54628">
        <ele>191</ele>
        <time>2021-08-09T10:20:35Z</time>
      </trkpt>
      <trkpt lat="44.54263" lon="1.54627">
        <ele>191.3</ele>
        <time>2021-08-09T10:20:36Z</time>
      </trkpt>
      <trkpt lat="44.54264" lon="1.54626">
        <ele>191.5</ele>
        <time>2021-08-09T10:20:38Z</time>
      </trkpt>
      <trkpt lat="44.54266" lon="1.54625">
        <ele>191.7</ele>
        <time>2021-08-09T10:20:39Z</time>
      </trkpt>
      <trkpt lat="44.54267" lon="1.54624">
        <ele>191.9</ele>
        <time>2021-08-09T10:20:40Z</time>
      </trkpt>
      <trkpt lat="44.54268" lon="1.54622">
        <ele>192</ele>
        <time>2021-08-09T10:20:41Z</time>
      </trkpt>
      <trkpt lat="44.5427" lon="1.54623">
        <ele>192.3</ele>
        <time>2021-08-09T10:20:43Z</time>
      </trkpt>
      <trkpt lat="44.54271" lon="1.54624">
        <ele>192.4</ele>
        <time>2021-08-09T10:20:45Z</time>
      </trkpt>
      <trkpt lat="44.54272" lon="1.54624">
        <ele>192.5</ele>
        <time>2021-08-09T10:20:46Z</time>
      </trkpt>
      <trkpt lat="44.54272" lon="1.54625">
        <ele>192.5</ele>
        <time>2021-08-09T10:20:48Z</time>
      </trkpt>
      <trkpt lat="44.54273" lon="1.54625">
        <ele>192.6</ele>
        <time>2021-08-09T10:20:49Z</time>
      </trkpt>
      <trkpt lat="44.54276" lon="1.54628">
        <ele>192.9</ele>
        <time>2021-08-09T10:20:51Z</time>
      </trkpt>
      <trkpt lat="44.54278" lon="1.54631">
        <ele>193.1</ele>
        <time>2021-08-09T10:20:52Z</time>
      </trkpt>
      <trkpt lat="44.54282" lon="1.54633">
        <ele>193.3</ele>
        <time>2021-08-09T10:20:53Z</time>
      </trkpt>
      <trkpt lat="44.54283" lon="1.54634">
        <ele>193.4</ele>
        <time>2021-08-09T10:20:54Z</time>
      </trkpt>
      <trkpt lat="44.54287" lon="1.54637">
        <ele>193.5</ele>
        <time>2021-08-09T10:20:56Z</time>
      </trkpt>
      <trkpt lat="44.54291" lon="1.54641">
        <ele>193.4</ele>
        <time>2021-08-09T10:20:57Z</time>
      </trkpt>
      <trkpt lat="44.54294" lon="1.54645">
        <ele>193.4</ele>
        <time>2021-08-09T10:20:58Z</time>
      </trkpt>
      <trkpt lat="44.54297" lon="1.54649">
        <ele>193.2</ele>
        <time>2021-08-09T10:20:59Z</time>
      </trkpt>
      <trkpt lat="44.54301" lon="1.54657">
        <ele>192.9</ele>
        <time>2021-08-09T10:21:01Z</time>
      </trkpt>
      <trkpt lat="44.54303" lon="1.54662">
        <ele>192.8</ele>
        <time>2021-08-09T10:21:02Z</time>
      </trkpt>
      <trkpt lat="44.54305" lon="1.54666">
        <ele>192.6</ele>
        <time>2021-08-09T10:21:03Z</time>
      </trkpt>
      <trkpt lat="44.54308" lon="1.54673">
        <ele>192.2</ele>
        <time>2021-08-09T10:21:04Z</time>
      </trkpt>
      <trkpt lat="44.54311" lon="1.54679">
        <ele>191.9</ele>
        <time>2021-08-09T10:21:06Z</time>
      </trkpt>
      <trkpt lat="44.54314" lon="1.54691">
        <ele>191.1</ele>
        <time>2021-08-09T10:21:07Z</time>
      </trkpt>
      <trkpt lat="44.54317" lon="1.54698">
        <ele>190.6</ele>
        <time>2021-08-09T10:21:08Z</time>
      </trkpt>
      <trkpt lat="44.5432" lon="1.54714">
        <ele>189.7</ele>
        <time>2021-08-09T10:21:10Z</time>
      </trkpt>
      <trkpt lat="44.54321" lon="1.54722">
        <ele>189.4</ele>
        <time>2021-08-09T10:21:11Z</time>
      </trkpt>
      <trkpt lat="44.5432" lon="1.54737">
        <ele>189</ele>
        <time>2021-08-09T10:21:13Z</time>
      </trkpt>
      <trkpt lat="44.54321" lon="1.54744">
        <ele>188.9</ele>
        <time>2021-08-09T10:21:14Z</time>
      </trkpt>
      <trkpt lat="44.54321" lon="1.54751">
        <ele>188.8</ele>
        <time>2021-08-09T10:21:16Z</time>
      </trkpt>
      <trkpt lat="44.5432" lon="1.54762">
        <ele>188.7</ele>
        <time>2021-08-09T10:21:17Z</time>
      </trkpt>
      <trkpt lat="44.54319" lon="1.54768">
        <ele>188.6</ele>
        <time>2021-08-09T10:21:18Z</time>
      </trkpt>
      <trkpt lat="44.54315" lon="1.54774">
        <ele>188.5</ele>
        <time>2021-08-09T10:21:20Z</time>
      </trkpt>
      <trkpt lat="44.54314" lon="1.54783">
        <ele>188.4</ele>
        <time>2021-08-09T10:21:21Z</time>
      </trkpt>
      <trkpt lat="44.54315" lon="1.54796">
        <ele>188.2</ele>
        <time>2021-08-09T10:21:22Z</time>
      </trkpt>
      <trkpt lat="44.54312" lon="1.54814">
        <ele>187.7</ele>
        <time>2021-08-09T10:21:24Z</time>
      </trkpt>
      <trkpt lat="44.5431" lon="1.54823">
        <ele>187.4</ele>
        <time>2021-08-09T10:21:25Z</time>
      </trkpt>
      <trkpt lat="44.54307" lon="1.54832">
        <ele>187</ele>
        <time>2021-08-09T10:21:26Z</time>
      </trkpt>
      <trkpt lat="44.54301" lon="1.54849">
        <ele>186.4</ele>
        <time>2021-08-09T10:21:28Z</time>
      </trkpt>
      <trkpt lat="44.54298" lon="1.54857">
        <ele>186.2</ele>
        <time>2021-08-09T10:21:29Z</time>
      </trkpt>
      <trkpt lat="44.54295" lon="1.54865">
        <ele>186</ele>
        <time>2021-08-09T10:21:30Z</time>
      </trkpt>
      <trkpt lat="44.54291" lon="1.54873">
        <ele>185.8</ele>
        <time>2021-08-09T10:21:31Z</time>
      </trkpt>
      <trkpt lat="44.54287" lon="1.54881">
        <ele>185.6</ele>
        <time>2021-08-09T10:21:32Z</time>
      </trkpt>
      <trkpt lat="44.54279" lon="1.54896">
        <ele>185.1</ele>
        <time>2021-08-09T10:21:34Z</time>
      </trkpt>
      <trkpt lat="44.54275" lon="1.54904">
        <ele>184.8</ele>
        <time>2021-08-09T10:21:35Z</time>
      </trkpt>
      <trkpt lat="44.54268" lon="1.5492">
        <ele>184.5</ele>
        <time>2021-08-09T10:21:37Z</time>
      </trkpt>
      <trkpt lat="44.54264" lon="1.54927">
        <ele>184.4</ele>
        <time>2021-08-09T10:21:38Z</time>
      </trkpt>
      <trkpt lat="44.54261" lon="1.54934">
        <ele>184.4</ele>
        <time>2021-08-09T10:21:39Z</time>
      </trkpt>
      <trkpt lat="44.54256" lon="1.54948">
        <ele>184.4</ele>
        <time>2021-08-09T10:21:41Z</time>
      </trkpt>
      <trkpt lat="44.54254" lon="1.54955">
        <ele>184.4</ele>
        <time>2021-08-09T10:21:42Z</time>
      </trkpt>
      <trkpt lat="44.54252" lon="1.5497">
        <ele>184.5</ele>
        <time>2021-08-09T10:21:44Z</time>
      </trkpt>
      <trkpt lat="44.5425" lon="1.54985">
        <ele>184.5</ele>
        <time>2021-08-09T10:21:46Z</time>
      </trkpt>
      <trkpt lat="44.54249" lon="1.55001">
        <ele>184.5</ele>
        <time>2021-08-09T10:21:48Z</time>
      </trkpt>
      <trkpt lat="44.54248" lon="1.55009">
        <ele>184.5</ele>
        <time>2021-08-09T10:21:49Z</time>
      </trkpt>
      <trkpt lat="44.54248" lon="1.55016">
        <ele>184.5</ele>
        <time>2021-08-09T10:21:50Z</time>
      </trkpt>
      <trkpt lat="44.54248" lon="1.55031">
        <ele>184.5</ele>
        <time>2021-08-09T10:21:52Z</time>
      </trkpt>
      <trkpt lat="44.5425" lon="1.55047">
        <ele>184.4</ele>
        <time>2021-08-09T10:21:54Z</time>
      </trkpt>
      <trkpt lat="44.54253" lon="1.55054">
        <ele>184.2</ele>
        <time>2021-08-09T10:21:55Z</time>
      </trkpt>
      <trkpt lat="44.54257" lon="1.55062">
        <ele>184</ele>
        <time>2021-08-09T10:21:56Z</time>
      </trkpt>
      <trkpt lat="44.54266" lon="1.55076">
        <ele>183.6</ele>
        <time>2021-08-09T10:21:58Z</time>
      </trkpt>
      <trkpt lat="44.54276" lon="1.55089">
        <ele>183.5</ele>
        <time>2021-08-09T10:22:00Z</time>
      </trkpt>
      <trkpt lat="44.54279" lon="1.55095">
        <ele>183.5</ele>
        <time>2021-08-09T10:22:01Z</time>
      </trkpt>
      <trkpt lat="44.54281" lon="1.55102">
        <ele>183.6</ele>
        <time>2021-08-09T10:22:02Z</time>
      </trkpt>
      <trkpt lat="44.54278" lon="1.55114">
        <ele>183.7</ele>
        <time>2021-08-09T10:22:04Z</time>
      </trkpt>
      <trkpt lat="44.54271" lon="1.55123">
        <ele>183.8</ele>
        <time>2021-08-09T10:22:06Z</time>
      </trkpt>
      <trkpt lat="44.54267" lon="1.55127">
        <ele>183.9</ele>
        <time>2021-08-09T10:22:07Z</time>
      </trkpt>
      <trkpt lat="44.54265" lon="1.55132">
        <ele>184</ele>
        <time>2021-08-09T10:22:08Z</time>
      </trkpt>
      <trkpt lat="44.54258" lon="1.55143">
        <ele>185.3</ele>
        <time>2021-08-09T10:22:10Z</time>
      </trkpt>
      <trkpt lat="44.54254" lon="1.55149">
        <ele>187</ele>
        <time>2021-08-09T10:22:11Z</time>
      </trkpt>
      <trkpt lat="44.54246" lon="1.55158">
        <ele>189</ele>
        <time>2021-08-09T10:22:13Z</time>
      </trkpt>
      <trkpt lat="44.54248" lon="1.55158">
        <ele>189</ele>
        <time>2021-08-09T10:22:14Z</time>
      </trkpt>
      <trkpt lat="44.54235" lon="1.55168">
        <ele>188.8</ele>
        <time>2021-08-09T10:22:16Z</time>
      </trkpt>
      <trkpt lat="44.54223" lon="1.55177">
        <ele>188.7</ele>
        <time>2021-08-09T10:22:18Z</time>
      </trkpt>
      <trkpt lat="44.5421" lon="1.55185">
        <ele>188.7</ele>
        <time>2021-08-09T10:22:20Z</time>
      </trkpt>
      <trkpt lat="44.54198" lon="1.55193">
        <ele>189</ele>
        <time>2021-08-09T10:22:22Z</time>
      </trkpt>
      <trkpt lat="44.54193" lon="1.55197">
        <ele>189.1</ele>
        <time>2021-08-09T10:22:23Z</time>
      </trkpt>
      <trkpt lat="44.54186" lon="1.55204">
        <ele>189.2</ele>
        <time>2021-08-09T10:22:25Z</time>
      </trkpt>
      <trkpt lat="44.5418" lon="1.55212">
        <ele>189.2</ele>
        <time>2021-08-09T10:22:26Z</time>
      </trkpt>
      <trkpt lat="44.54172" lon="1.55222">
        <ele>189.3</ele>
        <time>2021-08-09T10:22:28Z</time>
      </trkpt>
      <trkpt lat="44.54172" lon="1.55224">
        <ele>189.3</ele>
        <time>2021-08-09T10:22:29Z</time>
      </trkpt>
      <trkpt lat="44.54169" lon="1.55229">
        <ele>189.3</ele>
        <time>2021-08-09T10:22:31Z</time>
      </trkpt>
      <trkpt lat="44.54161" lon="1.5524">
        <ele>189.5</ele>
        <time>2021-08-09T10:22:32Z</time>
      </trkpt>
      <trkpt lat="44.54153" lon="1.55252">
        <ele>189.7</ele>
        <time>2021-08-09T10:22:34Z</time>
      </trkpt>
      <trkpt lat="44.54148" lon="1.55258">
        <ele>189.8</ele>
        <time>2021-08-09T10:22:35Z</time>
      </trkpt>
      <trkpt lat="44.54142" lon="1.55265">
        <ele>190</ele>
        <time>2021-08-09T10:22:37Z</time>
      </trkpt>
      <trkpt lat="44.54139" lon="1.55267">
        <ele>190.1</ele>
        <time>2021-08-09T10:22:38Z</time>
      </trkpt>
      <trkpt lat="44.54134" lon="1.55274">
        <ele>190.2</ele>
        <time>2021-08-09T10:22:40Z</time>
      </trkpt>
      <trkpt lat="44.5413" lon="1.55279">
        <ele>190.3</ele>
        <time>2021-08-09T10:22:41Z</time>
      </trkpt>
      <trkpt lat="44.54125" lon="1.55288">
        <ele>190.4</ele>
        <time>2021-08-09T10:22:42Z</time>
      </trkpt>
      <trkpt lat="44.54117" lon="1.55299">
        <ele>190.3</ele>
        <time>2021-08-09T10:22:44Z</time>
      </trkpt>
      <trkpt lat="44.54107" lon="1.55309">
        <ele>190.2</ele>
        <time>2021-08-09T10:22:46Z</time>
      </trkpt>
      <trkpt lat="44.54101" lon="1.55314">
        <ele>190.2</ele>
        <time>2021-08-09T10:22:47Z</time>
      </trkpt>
      <trkpt lat="44.5409" lon="1.55321">
        <ele>190.3</ele>
        <time>2021-08-09T10:22:49Z</time>
      </trkpt>
      <trkpt lat="44.54084" lon="1.55322">
        <ele>190.4</ele>
        <time>2021-08-09T10:22:50Z</time>
      </trkpt>
      <trkpt lat="44.54071" lon="1.55325">
        <ele>190.6</ele>
        <time>2021-08-09T10:22:52Z</time>
      </trkpt>
      <trkpt lat="44.54059" lon="1.55326">
        <ele>190.6</ele>
        <time>2021-08-09T10:22:54Z</time>
      </trkpt>
      <trkpt lat="44.54053" lon="1.55325">
        <ele>190.6</ele>
        <time>2021-08-09T10:22:55Z</time>
      </trkpt>
      <trkpt lat="44.54047" lon="1.55324">
        <ele>190.6</ele>
        <time>2021-08-09T10:22:56Z</time>
      </trkpt>
      <trkpt lat="44.54041" lon="1.55323">
        <ele>190.6</ele>
        <time>2021-08-09T10:22:57Z</time>
      </trkpt>
      <trkpt lat="44.5403" lon="1.55319">
        <ele>190.6</ele>
        <time>2021-08-09T10:22:59Z</time>
      </trkpt>
      <trkpt lat="44.54019" lon="1.55317">
        <ele>190.8</ele>
        <time>2021-08-09T10:23:01Z</time>
      </trkpt>
      <trkpt lat="44.54013" lon="1.55318">
        <ele>190.8</ele>
        <time>2021-08-09T10:23:02Z</time>
      </trkpt>
      <trkpt lat="44.54002" lon="1.55324">
        <ele>190.8</ele>
        <time>2021-08-09T10:23:04Z</time>
      </trkpt>
      <trkpt lat="44.53997" lon="1.55328">
        <ele>190.8</ele>
        <time>2021-08-09T10:23:05Z</time>
      </trkpt>
      <trkpt lat="44.5399" lon="1.55339">
        <ele>190.8</ele>
        <time>2021-08-09T10:23:07Z</time>
      </trkpt>
      <trkpt lat="44.53987" lon="1.55345">
        <ele>190.8</ele>
        <time>2021-08-09T10:23:08Z</time>
      </trkpt>
      <trkpt lat="44.53981" lon="1.55358">
        <ele>190.8</ele>
        <time>2021-08-09T10:23:10Z</time>
      </trkpt>
      <trkpt lat="44.53977" lon="1.55363">
        <ele>190.8</ele>
        <time>2021-08-09T10:23:11Z</time>
      </trkpt>
      <trkpt lat="44.53973" lon="1.55372">
        <ele>190.9</ele>
        <time>2021-08-09T10:23:13Z</time>
      </trkpt>
      <trkpt lat="44.53969" lon="1.55377">
        <ele>190.9</ele>
        <time>2021-08-09T10:23:14Z</time>
      </trkpt>
      <trkpt lat="44.53962" lon="1.55386">
        <ele>191</ele>
        <time>2021-08-09T10:23:16Z</time>
      </trkpt>
      <trkpt lat="44.53957" lon="1.55392">
        <ele>191.1</ele>
        <time>2021-08-09T10:23:17Z</time>
      </trkpt>
      <trkpt lat="44.53952" lon="1.55397">
        <ele>191.1</ele>
        <time>2021-08-09T10:23:18Z</time>
      </trkpt>
      <trkpt lat="44.53947" lon="1.55402">
        <ele>191.2</ele>
        <time>2021-08-09T10:23:19Z</time>
      </trkpt>
      <trkpt lat="44.53942" lon="1.55406">
        <ele>191.3</ele>
        <time>2021-08-09T10:23:20Z</time>
      </trkpt>
      <trkpt lat="44.53937" lon="1.55406">
        <ele>191.3</ele>
        <time>2021-08-09T10:23:22Z</time>
      </trkpt>
      <trkpt lat="44.53933" lon="1.55416">
        <ele>191.4</ele>
        <time>2021-08-09T10:23:23Z</time>
      </trkpt>
      <trkpt lat="44.53929" lon="1.55422">
        <ele>191.6</ele>
        <time>2021-08-09T10:23:24Z</time>
      </trkpt>
      <trkpt lat="44.53923" lon="1.55431">
        <ele>191.7</ele>
        <time>2021-08-09T10:23:26Z</time>
      </trkpt>
      <trkpt lat="44.53919" lon="1.55434">
        <ele>191.8</ele>
        <time>2021-08-09T10:23:27Z</time>
      </trkpt>
      <trkpt lat="44.53915" lon="1.55441">
        <ele>192</ele>
        <time>2021-08-09T10:23:28Z</time>
      </trkpt>
      <trkpt lat="44.53911" lon="1.55448">
        <ele>192.1</ele>
        <time>2021-08-09T10:23:29Z</time>
      </trkpt>
      <trkpt lat="44.53908" lon="1.55454">
        <ele>192.3</ele>
        <time>2021-08-09T10:23:31Z</time>
      </trkpt>
      <trkpt lat="44.53904" lon="1.5546">
        <ele>192.5</ele>
        <time>2021-08-09T10:23:32Z</time>
      </trkpt>
      <trkpt lat="44.53901" lon="1.55465">
        <ele>192.7</ele>
        <time>2021-08-09T10:23:33Z</time>
      </trkpt>
      <trkpt lat="44.53897" lon="1.55473">
        <ele>192.9</ele>
        <time>2021-08-09T10:23:34Z</time>
      </trkpt>
      <trkpt lat="44.53894" lon="1.55478">
        <ele>193</ele>
        <time>2021-08-09T10:23:36Z</time>
      </trkpt>
      <trkpt lat="44.53891" lon="1.55484">
        <ele>193.1</ele>
        <time>2021-08-09T10:23:37Z</time>
      </trkpt>
      <trkpt lat="44.53889" lon="1.5549">
        <ele>193.1</ele>
        <time>2021-08-09T10:23:38Z</time>
      </trkpt>
      <trkpt lat="44.53884" lon="1.55498">
        <ele>193.2</ele>
        <time>2021-08-09T10:23:39Z</time>
      </trkpt>
      <trkpt lat="44.53882" lon="1.555">
        <ele>193.2</ele>
        <time>2021-08-09T10:23:40Z</time>
      </trkpt>
      <trkpt lat="44.53876" lon="1.55504">
        <ele>193.2</ele>
        <time>2021-08-09T10:23:42Z</time>
      </trkpt>
      <trkpt lat="44.53872" lon="1.55506">
        <ele>193.2</ele>
        <time>2021-08-09T10:23:43Z</time>
      </trkpt>
      <trkpt lat="44.53868" lon="1.55507">
        <ele>193.3</ele>
        <time>2021-08-09T10:23:44Z</time>
      </trkpt>
      <trkpt lat="44.5386" lon="1.5551">
        <ele>193.3</ele>
        <time>2021-08-09T10:23:46Z</time>
      </trkpt>
      <trkpt lat="44.53854" lon="1.55511">
        <ele>193.4</ele>
        <time>2021-08-09T10:23:47Z</time>
      </trkpt>
      <trkpt lat="44.53848" lon="1.55513">
        <ele>193.5</ele>
        <time>2021-08-09T10:23:49Z</time>
      </trkpt>
      <trkpt lat="44.53843" lon="1.55515">
        <ele>193.6</ele>
        <time>2021-08-09T10:23:50Z</time>
      </trkpt>
      <trkpt lat="44.53835" lon="1.55517">
        <ele>193.7</ele>
        <time>2021-08-09T10:23:52Z</time>
      </trkpt>
      <trkpt lat="44.53828" lon="1.55521">
        <ele>193.7</ele>
        <time>2021-08-09T10:23:54Z</time>
      </trkpt>
      <trkpt lat="44.53824" lon="1.55523">
        <ele>193.8</ele>
        <time>2021-08-09T10:23:55Z</time>
      </trkpt>
      <trkpt lat="44.53819" lon="1.55526">
        <ele>193.8</ele>
        <time>2021-08-09T10:23:56Z</time>
      </trkpt>
      <trkpt lat="44.53813" lon="1.5553">
        <ele>193.9</ele>
        <time>2021-08-09T10:23:58Z</time>
      </trkpt>
      <trkpt lat="44.53808" lon="1.55532">
        <ele>194</ele>
        <time>2021-08-09T10:23:59Z</time>
      </trkpt>
      <trkpt lat="44.53803" lon="1.55535">
        <ele>194.2</ele>
        <time>2021-08-09T10:24:00Z</time>
      </trkpt>
      <trkpt lat="44.53797" lon="1.55538">
        <ele>194.4</ele>
        <time>2021-08-09T10:24:01Z</time>
      </trkpt>
      <trkpt lat="44.53791" lon="1.55543">
        <ele>194.5</ele>
        <time>2021-08-09T10:24:03Z</time>
      </trkpt>
      <trkpt lat="44.53786" lon="1.55546">
        <ele>194.6</ele>
        <time>2021-08-09T10:24:05Z</time>
      </trkpt>
      <trkpt lat="44.5378" lon="1.55547">
        <ele>194.6</ele>
        <time>2021-08-09T10:24:06Z</time>
      </trkpt>
      <trkpt lat="44.53776" lon="1.55548">
        <ele>194.5</ele>
        <time>2021-08-09T10:24:08Z</time>
      </trkpt>
      <trkpt lat="44.5377" lon="1.5555">
        <ele>194.5</ele>
        <time>2021-08-09T10:24:09Z</time>
      </trkpt>
      <trkpt lat="44.53765" lon="1.55555">
        <ele>194.4</ele>
        <time>2021-08-09T10:24:11Z</time>
      </trkpt>
      <trkpt lat="44.53762" lon="1.55562">
        <ele>194.3</ele>
        <time>2021-08-09T10:24:12Z</time>
      </trkpt>
      <trkpt lat="44.53762" lon="1.55568">
        <ele>194.2</ele>
        <time>2021-08-09T10:24:13Z</time>
      </trkpt>
      <trkpt lat="44.53763" lon="1.55576">
        <ele>194.2</ele>
        <time>2021-08-09T10:24:14Z</time>
      </trkpt>
      <trkpt lat="44.53764" lon="1.55586">
        <ele>192.1</ele>
        <time>2021-08-09T10:24:16Z</time>
      </trkpt>
      <trkpt lat="44.53766" lon="1.55598">
        <ele>189</ele>
        <time>2021-08-09T10:24:17Z</time>
      </trkpt>
      <trkpt lat="44.53766" lon="1.55604">
        <ele>187.8</ele>
        <time>2021-08-09T10:24:18Z</time>
      </trkpt>
      <trkpt lat="44.53767" lon="1.55608">
        <ele>187.2</ele>
        <time>2021-08-09T10:24:20Z</time>
      </trkpt>
      <trkpt lat="44.53767" lon="1.55612">
        <ele>186.7</ele>
        <time>2021-08-09T10:24:21Z</time>
      </trkpt>
      <trkpt lat="44.53767" lon="1.55612">
        <ele>186.6</ele>
        <time>2021-08-09T10:24:23Z</time>
      </trkpt>
      <trkpt lat="44.53767" lon="1.55612">
        <ele>186.6</ele>
        <time>2021-08-09T10:24:25Z</time>
      </trkpt>
      <trkpt lat="44.53767" lon="1.55613">
        <ele>186.6</ele>
        <time>2021-08-09T10:24:26Z</time>
      </trkpt>
      <trkpt lat="44.53768" lon="1.55613">
        <ele>186.5</ele>
        <time>2021-08-09T10:24:28Z</time>
      </trkpt>
      <trkpt lat="44.53768" lon="1.55613">
        <ele>186.5</ele>
        <time>2021-08-09T10:24:29Z</time>
      </trkpt>
      <trkpt lat="44.53768" lon="1.55613">
        <ele>186.5</ele>
        <time>2021-08-09T10:24:31Z</time>
      </trkpt>
      <trkpt lat="44.53765" lon="1.55619">
        <ele>185.5</ele>
        <time>2021-08-09T10:24:58Z</time>
      </trkpt>
      <trkpt lat="44.53761" lon="1.55627">
        <ele>184.3</ele>
        <time>2021-08-09T10:25:00Z</time>
      </trkpt>
      <trkpt lat="44.53757" lon="1.55637">
        <ele>182.8</ele>
        <time>2021-08-09T10:25:02Z</time>
      </trkpt>
      <trkpt lat="44.53755" lon="1.55641">
        <ele>182.3</ele>
        <time>2021-08-09T10:25:03Z</time>
      </trkpt>
      <trkpt lat="44.53754" lon="1.55644">
        <ele>181.9</ele>
        <time>2021-08-09T10:25:04Z</time>
      </trkpt>
      <trkpt lat="44.53751" lon="1.55651">
        <ele>181</ele>
        <time>2021-08-09T10:25:06Z</time>
      </trkpt>
      <trkpt lat="44.53749" lon="1.55656">
        <ele>180.4</ele>
        <time>2021-08-09T10:25:07Z</time>
      </trkpt>
      <trkpt lat="44.53748" lon="1.55662">
        <ele>179.8</ele>
        <time>2021-08-09T10:25:08Z</time>
      </trkpt>
      <trkpt lat="44.53746" lon="1.5567">
        <ele>179.1</ele>
        <time>2021-08-09T10:25:09Z</time>
      </trkpt>
      <trkpt lat="44.53744" lon="1.55675">
        <ele>178.5</ele>
        <time>2021-08-09T10:25:11Z</time>
      </trkpt>
      <trkpt lat="44.53742" lon="1.55676">
        <ele>178.3</ele>
        <time>2021-08-09T10:25:12Z</time>
      </trkpt>
      <trkpt lat="44.53736" lon="1.55677">
        <ele>177.8</ele>
        <time>2021-08-09T10:25:14Z</time>
      </trkpt>
      <trkpt lat="44.53732" lon="1.55677">
        <ele>177.8</ele>
        <time>2021-08-09T10:25:15Z</time>
      </trkpt>
      <trkpt lat="44.53728" lon="1.55676">
        <ele>177.7</ele>
        <time>2021-08-09T10:25:16Z</time>
      </trkpt>
      <trkpt lat="44.53723" lon="1.55675">
        <ele>177.7</ele>
        <time>2021-08-09T10:25:18Z</time>
      </trkpt>
      <trkpt lat="44.5372" lon="1.55674">
        <ele>177.7</ele>
        <time>2021-08-09T10:25:19Z</time>
      </trkpt>
      <trkpt lat="44.53719" lon="1.55674">
        <ele>177.7</ele>
        <time>2021-08-09T10:25:20Z</time>
      </trkpt>
      <trkpt lat="44.53718" lon="1.55674">
        <ele>177.7</ele>
        <time>2021-08-09T10:25:22Z</time>
      </trkpt>
      <trkpt lat="44.53718" lon="1.55675">
        <ele>177.7</ele>
        <time>2021-08-09T10:25:23Z</time>
      </trkpt>
      <trkpt lat="44.53718" lon="1.55675">
        <ele>177.7</ele>
        <time>2021-08-09T10:25:24Z</time>
      </trkpt>
      <trkpt lat="44.53718" lon="1.55675">
        <ele>177.7</ele>
        <time>2021-08-09T10:25:25Z</time>
      </trkpt>
      <trkpt lat="44.53718" lon="1.55675">
        <ele>177.7</ele>
        <time>2021-08-09T10:25:26Z</time>
      </trkpt>
      <trkpt lat="44.53718" lon="1.55675">
        <ele>177.7</ele>
        <time>2021-08-09T10:25:28Z</time>
      </trkpt>
      <trkpt lat="44.53718" lon="1.55675">
        <ele>177.7</ele>
        <time>2021-08-09T10:25:29Z</time>
      </trkpt>
      <trkpt lat="44.53718" lon="1.55675">
        <ele>177.7</ele>
        <time>2021-08-09T10:25:30Z</time>
      </trkpt>
      <trkpt lat="44.53717" lon="1.55677">
        <ele>177.7</ele>
        <time>2021-08-09T10:25:49Z</time>
      </trkpt>
      <trkpt lat="44.53715" lon="1.55677">
        <ele>177.7</ele>
        <time>2021-08-09T10:25:50Z</time>
      </trkpt>
      <trkpt lat="44.53712" lon="1.55678">
        <ele>177.7</ele>
        <time>2021-08-09T10:25:52Z</time>
      </trkpt>
      <trkpt lat="44.53709" lon="1.5568">
        <ele>177.7</ele>
        <time>2021-08-09T10:25:53Z</time>
      </trkpt>
      <trkpt lat="44.53705" lon="1.55683">
        <ele>177.7</ele>
        <time>2021-08-09T10:25:55Z</time>
      </trkpt>
      <trkpt lat="44.53701" lon="1.55686">
        <ele>177.7</ele>
        <time>2021-08-09T10:25:56Z</time>
      </trkpt>
      <trkpt lat="44.53697" lon="1.55691">
        <ele>177.6</ele>
        <time>2021-08-09T10:25:58Z</time>
      </trkpt>
      <trkpt lat="44.53695" lon="1.55696">
        <ele>177.6</ele>
        <time>2021-08-09T10:25:59Z</time>
      </trkpt>
      <trkpt lat="44.53692" lon="1.55706">
        <ele>177.5</ele>
        <time>2021-08-09T10:26:01Z</time>
      </trkpt>
      <trkpt lat="44.53692" lon="1.55718">
        <ele>177.5</ele>
        <time>2021-08-09T10:26:03Z</time>
      </trkpt>
      <trkpt lat="44.53693" lon="1.55724">
        <ele>177.5</ele>
        <time>2021-08-09T10:26:04Z</time>
      </trkpt>
      <trkpt lat="44.53693" lon="1.55737">
        <ele>177.6</ele>
        <time>2021-08-09T10:26:06Z</time>
      </trkpt>
      <trkpt lat="44.53694" lon="1.55745">
        <ele>177.6</ele>
        <time>2021-08-09T10:26:07Z</time>
      </trkpt>
      <trkpt lat="44.53696" lon="1.55752">
        <ele>177.6</ele>
        <time>2021-08-09T10:26:08Z</time>
      </trkpt>
      <trkpt lat="44.53697" lon="1.55759">
        <ele>177.6</ele>
        <time>2021-08-09T10:26:10Z</time>
      </trkpt>
      <trkpt lat="44.53697" lon="1.55766">
        <ele>177.7</ele>
        <time>2021-08-09T10:26:11Z</time>
      </trkpt>
      <trkpt lat="44.53699" lon="1.55774">
        <ele>177.7</ele>
        <time>2021-08-09T10:26:12Z</time>
      </trkpt>
      <trkpt lat="44.537" lon="1.55785">
        <ele>177.8</ele>
        <time>2021-08-09T10:26:14Z</time>
      </trkpt>
      <trkpt lat="44.53701" lon="1.5579">
        <ele>177.8</ele>
        <time>2021-08-09T10:26:15Z</time>
      </trkpt>
      <trkpt lat="44.53702" lon="1.55796">
        <ele>177.9</ele>
        <time>2021-08-09T10:26:16Z</time>
      </trkpt>
      <trkpt lat="44.53703" lon="1.55804">
        <ele>178</ele>
        <time>2021-08-09T10:26:17Z</time>
      </trkpt>
      <trkpt lat="44.53704" lon="1.55811">
        <ele>178.1</ele>
        <time>2021-08-09T10:26:19Z</time>
      </trkpt>
      <trkpt lat="44.53705" lon="1.5582">
        <ele>178.3</ele>
        <time>2021-08-09T10:26:20Z</time>
      </trkpt>
      <trkpt lat="44.53705" lon="1.55825">
        <ele>178.4</ele>
        <time>2021-08-09T10:26:21Z</time>
      </trkpt>
      <trkpt lat="44.53706" lon="1.55831">
        <ele>178.5</ele>
        <time>2021-08-09T10:26:22Z</time>
      </trkpt>
      <trkpt lat="44.53707" lon="1.55839">
        <ele>178.6</ele>
        <time>2021-08-09T10:26:24Z</time>
      </trkpt>
      <trkpt lat="44.53708" lon="1.55844">
        <ele>178.7</ele>
        <time>2021-08-09T10:26:25Z</time>
      </trkpt>
      <trkpt lat="44.53709" lon="1.5585">
        <ele>178.8</ele>
        <time>2021-08-09T10:26:26Z</time>
      </trkpt>
      <trkpt lat="44.5371" lon="1.55859">
        <ele>179</ele>
        <time>2021-08-09T10:26:28Z</time>
      </trkpt>
      <trkpt lat="44.53711" lon="1.55865">
        <ele>179.1</ele>
        <time>2021-08-09T10:26:29Z</time>
      </trkpt>
      <trkpt lat="44.53711" lon="1.5587">
        <ele>179.2</ele>
        <time>2021-08-09T10:26:30Z</time>
      </trkpt>
      <trkpt lat="44.53712" lon="1.55878">
        <ele>179.4</ele>
        <time>2021-08-09T10:26:32Z</time>
      </trkpt>
      <trkpt lat="44.53712" lon="1.55883">
        <ele>179.4</ele>
        <time>2021-08-09T10:26:33Z</time>
      </trkpt>
      <trkpt lat="44.53709" lon="1.55885">
        <ele>179.5</ele>
        <time>2021-08-09T10:26:34Z</time>
      </trkpt>
      <trkpt lat="44.53706" lon="1.55885">
        <ele>179.5</ele>
        <time>2021-08-09T10:26:35Z</time>
      </trkpt>
      <trkpt lat="44.53703" lon="1.55879">
        <ele>179.4</ele>
        <time>2021-08-09T10:26:37Z</time>
      </trkpt>
      <trkpt lat="44.537" lon="1.55873">
        <ele>179.3</ele>
        <time>2021-08-09T10:26:38Z</time>
      </trkpt>
      <trkpt lat="44.53696" lon="1.55869">
        <ele>179.2</ele>
        <time>2021-08-09T10:26:39Z</time>
      </trkpt>
      <trkpt lat="44.53688" lon="1.55857">
        <ele>179</ele>
        <time>2021-08-09T10:26:41Z</time>
      </trkpt>
      <trkpt lat="44.53685" lon="1.55851">
        <ele>178.9</ele>
        <time>2021-08-09T10:26:42Z</time>
      </trkpt>
      <trkpt lat="44.53677" lon="1.5584">
        <ele>178.7</ele>
        <time>2021-08-09T10:26:44Z</time>
      </trkpt>
      <trkpt lat="44.53668" lon="1.55827">
        <ele>178.5</ele>
        <time>2021-08-09T10:26:46Z</time>
      </trkpt>
      <trkpt lat="44.53664" lon="1.55821">
        <ele>178.4</ele>
        <time>2021-08-09T10:26:47Z</time>
      </trkpt>
      <trkpt lat="44.5366" lon="1.55815">
        <ele>178.3</ele>
        <time>2021-08-09T10:26:48Z</time>
      </trkpt>
      <trkpt lat="44.53653" lon="1.55803">
        <ele>178.1</ele>
        <time>2021-08-09T10:26:50Z</time>
      </trkpt>
      <trkpt lat="44.53644" lon="1.55791">
        <ele>177.9</ele>
        <time>2021-08-09T10:26:52Z</time>
      </trkpt>
      <trkpt lat="44.53639" lon="1.55785">
        <ele>177.8</ele>
        <time>2021-08-09T10:26:53Z</time>
      </trkpt>
      <trkpt lat="44.53626" lon="1.55775">
        <ele>177.6</ele>
        <time>2021-08-09T10:26:55Z</time>
      </trkpt>
      <trkpt lat="44.53619" lon="1.55771">
        <ele>177.4</ele>
        <time>2021-08-09T10:26:56Z</time>
      </trkpt>
      <trkpt lat="44.53605" lon="1.55763">
        <ele>177.1</ele>
        <time>2021-08-09T10:26:58Z</time>
      </trkpt>
      <trkpt lat="44.53598" lon="1.55759">
        <ele>177</ele>
        <time>2021-08-09T10:26:59Z</time>
      </trkpt>
      <trkpt lat="44.53591" lon="1.55756">
        <ele>176.8</ele>
        <time>2021-08-09T10:27:00Z</time>
      </trkpt>
      <trkpt lat="44.53576" lon="1.55751">
        <ele>176.5</ele>
        <time>2021-08-09T10:27:02Z</time>
      </trkpt>
      <trkpt lat="44.5356" lon="1.55748">
        <ele>176.1</ele>
        <time>2021-08-09T10:27:04Z</time>
      </trkpt>
      <trkpt lat="44.53543" lon="1.55749">
        <ele>175.7</ele>
        <time>2021-08-09T10:27:06Z</time>
      </trkpt>
      <trkpt lat="44.53535" lon="1.55749">
        <ele>175.6</ele>
        <time>2021-08-09T10:27:07Z</time>
      </trkpt>
      <trkpt lat="44.53526" lon="1.5575">
        <ele>175.4</ele>
        <time>2021-08-09T10:27:08Z</time>
      </trkpt>
      <trkpt lat="44.5351" lon="1.55751">
        <ele>175.1</ele>
        <time>2021-08-09T10:27:10Z</time>
      </trkpt>
      <trkpt lat="44.53494" lon="1.55753">
        <ele>174.8</ele>
        <time>2021-08-09T10:27:12Z</time>
      </trkpt>
      <trkpt lat="44.53486" lon="1.55753">
        <ele>174.6</ele>
        <time>2021-08-09T10:27:13Z</time>
      </trkpt>
      <trkpt lat="44.53478" lon="1.55753">
        <ele>174.5</ele>
        <time>2021-08-09T10:27:14Z</time>
      </trkpt>
      <trkpt lat="44.53463" lon="1.55752">
        <ele>174.2</ele>
        <time>2021-08-09T10:27:16Z</time>
      </trkpt>
      <trkpt lat="44.53456" lon="1.55752">
        <ele>174.1</ele>
        <time>2021-08-09T10:27:17Z</time>
      </trkpt>
      <trkpt lat="44.53448" lon="1.55751">
        <ele>174</ele>
        <time>2021-08-09T10:27:18Z</time>
      </trkpt>
      <trkpt lat="44.53434" lon="1.55748">
        <ele>173.8</ele>
        <time>2021-08-09T10:27:20Z</time>
      </trkpt>
      <trkpt lat="44.5342" lon="1.55744">
        <ele>173.7</ele>
        <time>2021-08-09T10:27:22Z</time>
      </trkpt>
      <trkpt lat="44.53407" lon="1.55738">
        <ele>173.6</ele>
        <time>2021-08-09T10:27:24Z</time>
      </trkpt>
      <trkpt lat="44.53394" lon="1.5573">
        <ele>173.5</ele>
        <time>2021-08-09T10:27:26Z</time>
      </trkpt>
      <trkpt lat="44.53382" lon="1.55722">
        <ele>173.4</ele>
        <time>2021-08-09T10:27:28Z</time>
      </trkpt>
      <trkpt lat="44.53375" lon="1.55717">
        <ele>173.4</ele>
        <time>2021-08-09T10:27:29Z</time>
      </trkpt>
      <trkpt lat="44.53369" lon="1.55712">
        <ele>173.4</ele>
        <time>2021-08-09T10:27:30Z</time>
      </trkpt>
      <trkpt lat="44.53356" lon="1.55702">
        <ele>173.4</ele>
        <time>2021-08-09T10:27:32Z</time>
      </trkpt>
      <trkpt lat="44.53343" lon="1.55692">
        <ele>173.5</ele>
        <time>2021-08-09T10:27:34Z</time>
      </trkpt>
      <trkpt lat="44.53337" lon="1.55688">
        <ele>173.5</ele>
        <time>2021-08-09T10:27:35Z</time>
      </trkpt>
      <trkpt lat="44.53331" lon="1.55683">
        <ele>173.5</ele>
        <time>2021-08-09T10:27:36Z</time>
      </trkpt>
      <trkpt lat="44.53325" lon="1.55679">
        <ele>173.5</ele>
        <time>2021-08-09T10:27:37Z</time>
      </trkpt>
      <trkpt lat="44.5332" lon="1.55674">
        <ele>173.5</ele>
        <time>2021-08-09T10:27:38Z</time>
      </trkpt>
      <trkpt lat="44.53309" lon="1.55665">
        <ele>173.5</ele>
        <time>2021-08-09T10:27:40Z</time>
      </trkpt>
      <trkpt lat="44.53298" lon="1.55655">
        <ele>173.5</ele>
        <time>2021-08-09T10:27:42Z</time>
      </trkpt>
      <trkpt lat="44.53289" lon="1.55643">
        <ele>173.5</ele>
        <time>2021-08-09T10:27:44Z</time>
      </trkpt>
      <trkpt lat="44.53281" lon="1.5563">
        <ele>173.5</ele>
        <time>2021-08-09T10:27:46Z</time>
      </trkpt>
      <trkpt lat="44.53277" lon="1.55623">
        <ele>173.5</ele>
        <time>2021-08-09T10:27:47Z</time>
      </trkpt>
      <trkpt lat="44.53274" lon="1.55615">
        <ele>173.5</ele>
        <time>2021-08-09T10:27:48Z</time>
      </trkpt>
      <trkpt lat="44.53271" lon="1.55607">
        <ele>173.4</ele>
        <time>2021-08-09T10:27:49Z</time>
      </trkpt>
      <trkpt lat="44.53269" lon="1.55599">
        <ele>173.4</ele>
        <time>2021-08-09T10:27:50Z</time>
      </trkpt>
      <trkpt lat="44.53266" lon="1.55582">
        <ele>173.4</ele>
        <time>2021-08-09T10:27:52Z</time>
      </trkpt>
      <trkpt lat="44.53262" lon="1.55565">
        <ele>173.4</ele>
        <time>2021-08-09T10:27:54Z</time>
      </trkpt>
      <trkpt lat="44.5326" lon="1.55556">
        <ele>173.3</ele>
        <time>2021-08-09T10:27:55Z</time>
      </trkpt>
      <trkpt lat="44.53258" lon="1.55547">
        <ele>173.3</ele>
        <time>2021-08-09T10:27:56Z</time>
      </trkpt>
      <trkpt lat="44.53255" lon="1.55531">
        <ele>173.3</ele>
        <time>2021-08-09T10:27:58Z</time>
      </trkpt>
      <trkpt lat="44.53252" lon="1.55522">
        <ele>173.3</ele>
        <time>2021-08-09T10:27:59Z</time>
      </trkpt>
      <trkpt lat="44.5325" lon="1.55514">
        <ele>173.3</ele>
        <time>2021-08-09T10:28:00Z</time>
      </trkpt>
      <trkpt lat="44.53244" lon="1.555">
        <ele>173.3</ele>
        <time>2021-08-09T10:28:02Z</time>
      </trkpt>
      <trkpt lat="44.53241" lon="1.55493">
        <ele>173.3</ele>
        <time>2021-08-09T10:28:03Z</time>
      </trkpt>
      <trkpt lat="44.53239" lon="1.55486">
        <ele>173.2</ele>
        <time>2021-08-09T10:28:04Z</time>
      </trkpt>
      <trkpt lat="44.53236" lon="1.5548">
        <ele>173.2</ele>
        <time>2021-08-09T10:28:05Z</time>
      </trkpt>
      <trkpt lat="44.5323" lon="1.55469">
        <ele>173.2</ele>
        <time>2021-08-09T10:28:07Z</time>
      </trkpt>
      <trkpt lat="44.53227" lon="1.55464">
        <ele>173.2</ele>
        <time>2021-08-09T10:28:08Z</time>
      </trkpt>
      <trkpt lat="44.53222" lon="1.55456">
        <ele>173.1</ele>
        <time>2021-08-09T10:28:10Z</time>
      </trkpt>
      <trkpt lat="44.53219" lon="1.55452">
        <ele>173.1</ele>
        <time>2021-08-09T10:28:11Z</time>
      </trkpt>
      <trkpt lat="44.53217" lon="1.55448">
        <ele>173.1</ele>
        <time>2021-08-09T10:28:12Z</time>
      </trkpt>
      <trkpt lat="44.53214" lon="1.55442">
        <ele>173.1</ele>
        <time>2021-08-09T10:28:13Z</time>
      </trkpt>
      <trkpt lat="44.53212" lon="1.55438">
        <ele>173</ele>
        <time>2021-08-09T10:28:14Z</time>
      </trkpt>
      <trkpt lat="44.53207" lon="1.5543">
        <ele>173</ele>
        <time>2021-08-09T10:28:16Z</time>
      </trkpt>
      <trkpt lat="44.53203" lon="1.55423">
        <ele>172.9</ele>
        <time>2021-08-09T10:28:17Z</time>
      </trkpt>
      <trkpt lat="44.532" lon="1.55418">
        <ele>172.9</ele>
        <time>2021-08-09T10:28:18Z</time>
      </trkpt>
      <trkpt lat="44.53193" lon="1.55409">
        <ele>172.8</ele>
        <time>2021-08-09T10:28:20Z</time>
      </trkpt>
      <trkpt lat="44.53186" lon="1.554">
        <ele>172.7</ele>
        <time>2021-08-09T10:28:22Z</time>
      </trkpt>
      <trkpt lat="44.53182" lon="1.55396">
        <ele>172.6</ele>
        <time>2021-08-09T10:28:23Z</time>
      </trkpt>
      <trkpt lat="44.53178" lon="1.55391">
        <ele>172.5</ele>
        <time>2021-08-09T10:28:24Z</time>
      </trkpt>
      <trkpt lat="44.53169" lon="1.55384">
        <ele>172.4</ele>
        <time>2021-08-09T10:28:26Z</time>
      </trkpt>
      <trkpt lat="44.5316" lon="1.55376">
        <ele>172.2</ele>
        <time>2021-08-09T10:28:28Z</time>
      </trkpt>
      <trkpt lat="44.53155" lon="1.55373">
        <ele>172.1</ele>
        <time>2021-08-09T10:28:29Z</time>
      </trkpt>
      <trkpt lat="44.53149" lon="1.55369">
        <ele>172</ele>
        <time>2021-08-09T10:28:30Z</time>
      </trkpt>
      <trkpt lat="44.53137" lon="1.55365">
        <ele>171.9</ele>
        <time>2021-08-09T10:28:32Z</time>
      </trkpt>
      <trkpt lat="44.53124" lon="1.55363">
        <ele>171.8</ele>
        <time>2021-08-09T10:28:34Z</time>
      </trkpt>
      <trkpt lat="44.53118" lon="1.55363">
        <ele>171.7</ele>
        <time>2021-08-09T10:28:35Z</time>
      </trkpt>
      <trkpt lat="44.53111" lon="1.55364">
        <ele>171.6</ele>
        <time>2021-08-09T10:28:36Z</time>
      </trkpt>
      <trkpt lat="44.53098" lon="1.5537">
        <ele>171.4</ele>
        <time>2021-08-09T10:28:38Z</time>
      </trkpt>
      <trkpt lat="44.53086" lon="1.55379">
        <ele>171.2</ele>
        <time>2021-08-09T10:28:40Z</time>
      </trkpt>
      <trkpt lat="44.53074" lon="1.55393">
        <ele>170.9</ele>
        <time>2021-08-09T10:28:42Z</time>
      </trkpt>
      <trkpt lat="44.53064" lon="1.55409">
        <ele>170.7</ele>
        <time>2021-08-09T10:28:44Z</time>
      </trkpt>
      <trkpt lat="44.53055" lon="1.55424">
        <ele>170.6</ele>
        <time>2021-08-09T10:28:46Z</time>
      </trkpt>
      <trkpt lat="44.53045" lon="1.55437">
        <ele>170.5</ele>
        <time>2021-08-09T10:28:48Z</time>
      </trkpt>
      <trkpt lat="44.53037" lon="1.55449">
        <ele>170.4</ele>
        <time>2021-08-09T10:28:50Z</time>
      </trkpt>
      <trkpt lat="44.53032" lon="1.55463">
        <ele>170.2</ele>
        <time>2021-08-09T10:28:52Z</time>
      </trkpt>
      <trkpt lat="44.53031" lon="1.55471">
        <ele>170.2</ele>
        <time>2021-08-09T10:28:53Z</time>
      </trkpt>
      <trkpt lat="44.53033" lon="1.55479">
        <ele>170.1</ele>
        <time>2021-08-09T10:28:54Z</time>
      </trkpt>
      <trkpt lat="44.5304" lon="1.55497">
        <ele>170</ele>
        <time>2021-08-09T10:28:56Z</time>
      </trkpt>
      <trkpt lat="44.53044" lon="1.55516">
        <ele>169.9</ele>
        <time>2021-08-09T10:28:58Z</time>
      </trkpt>
      <trkpt lat="44.53046" lon="1.55525">
        <ele>170.4</ele>
        <time>2021-08-09T10:28:59Z</time>
      </trkpt>
      <trkpt lat="44.53048" lon="1.55533">
        <ele>171</ele>
        <time>2021-08-09T10:29:00Z</time>
      </trkpt>
      <trkpt lat="44.53057" lon="1.55543">
        <ele>172.3</ele>
        <time>2021-08-09T10:29:02Z</time>
      </trkpt>
      <trkpt lat="44.53062" lon="1.55547">
        <ele>173.1</ele>
        <time>2021-08-09T10:29:04Z</time>
      </trkpt>
      <trkpt lat="44.53064" lon="1.5555">
        <ele>173.5</ele>
        <time>2021-08-09T10:29:05Z</time>
      </trkpt>
      <trkpt lat="44.53069" lon="1.55555">
        <ele>174.3</ele>
        <time>2021-08-09T10:29:07Z</time>
      </trkpt>
      <trkpt lat="44.53071" lon="1.55557">
        <ele>174.7</ele>
        <time>2021-08-09T10:29:08Z</time>
      </trkpt>
      <trkpt lat="44.53074" lon="1.55562">
        <ele>175.8</ele>
        <time>2021-08-09T10:29:10Z</time>
      </trkpt>
      <trkpt lat="44.53074" lon="1.55564">
        <ele>176</ele>
        <time>2021-08-09T10:29:11Z</time>
      </trkpt>
      <trkpt lat="44.53074" lon="1.55568">
        <ele>176.4</ele>
        <time>2021-08-09T10:29:13Z</time>
      </trkpt>
      <trkpt lat="44.53073" lon="1.55571">
        <ele>176.7</ele>
        <time>2021-08-09T10:29:14Z</time>
      </trkpt>
      <trkpt lat="44.53072" lon="1.55575">
        <ele>177.1</ele>
        <time>2021-08-09T10:29:16Z</time>
      </trkpt>
      <trkpt lat="44.53069" lon="1.55578">
        <ele>177.5</ele>
        <time>2021-08-09T10:29:17Z</time>
      </trkpt>
      <trkpt lat="44.53067" lon="1.5558">
        <ele>177.9</ele>
        <time>2021-08-09T10:29:18Z</time>
      </trkpt>
      <trkpt lat="44.53064" lon="1.55582">
        <ele>178.4</ele>
        <time>2021-08-09T10:29:20Z</time>
      </trkpt>
      <trkpt lat="44.53063" lon="1.55586">
        <ele>178.8</ele>
        <time>2021-08-09T10:29:21Z</time>
      </trkpt>
      <trkpt lat="44.5306" lon="1.55589">
        <ele>179.3</ele>
        <time>2021-08-09T10:29:22Z</time>
      </trkpt>
      <trkpt lat="44.53057" lon="1.55592">
        <ele>179.8</ele>
        <time>2021-08-09T10:29:23Z</time>
      </trkpt>
      <trkpt lat="44.53055" lon="1.55594">
        <ele>180.2</ele>
        <time>2021-08-09T10:29:24Z</time>
      </trkpt>
      <trkpt lat="44.53052" lon="1.55596">
        <ele>180.7</ele>
        <time>2021-08-09T10:29:25Z</time>
      </trkpt>
      <trkpt lat="44.53049" lon="1.55597">
        <ele>181.1</ele>
        <time>2021-08-09T10:29:26Z</time>
      </trkpt>
      <trkpt lat="44.53046" lon="1.55598">
        <ele>181.4</ele>
        <time>2021-08-09T10:29:28Z</time>
      </trkpt>
      <trkpt lat="44.53043" lon="1.55599">
        <ele>181.8</ele>
        <time>2021-08-09T10:29:29Z</time>
      </trkpt>
      <trkpt lat="44.53039" lon="1.55601">
        <ele>182.3</ele>
        <time>2021-08-09T10:29:30Z</time>
      </trkpt>
      <trkpt lat="44.53035" lon="1.55602">
        <ele>182.8</ele>
        <time>2021-08-09T10:29:32Z</time>
      </trkpt>
      <trkpt lat="44.53032" lon="1.55603">
        <ele>183.1</ele>
        <time>2021-08-09T10:29:33Z</time>
      </trkpt>
      <trkpt lat="44.53028" lon="1.55604">
        <ele>183.5</ele>
        <time>2021-08-09T10:29:34Z</time>
      </trkpt>
      <trkpt lat="44.53025" lon="1.55606">
        <ele>183.9</ele>
        <time>2021-08-09T10:29:35Z</time>
      </trkpt>
      <trkpt lat="44.53021" lon="1.55608">
        <ele>184.3</ele>
        <time>2021-08-09T10:29:36Z</time>
      </trkpt>
      <trkpt lat="44.53018" lon="1.5561">
        <ele>184.6</ele>
        <time>2021-08-09T10:29:37Z</time>
      </trkpt>
      <trkpt lat="44.53015" lon="1.55612">
        <ele>184.4</ele>
        <time>2021-08-09T10:29:39Z</time>
      </trkpt>
      <trkpt lat="44.53012" lon="1.55612">
        <ele>184.3</ele>
        <time>2021-08-09T10:29:40Z</time>
      </trkpt>
      <trkpt lat="44.53011" lon="1.55612">
        <ele>184.3</ele>
        <time>2021-08-09T10:29:41Z</time>
      </trkpt>
      <trkpt lat="44.53011" lon="1.55613">
        <ele>184.3</ele>
        <time>2021-08-09T10:29:42Z</time>
      </trkpt>
      <trkpt lat="44.53011" lon="1.55613">
        <ele>184.3</ele>
        <time>2021-08-09T10:29:43Z</time>
      </trkpt>
      <trkpt lat="44.53011" lon="1.55613">
        <ele>184.3</ele>
        <time>2021-08-09T10:29:44Z</time>
      </trkpt>
      <trkpt lat="44.53011" lon="1.55613">
        <ele>184.3</ele>
        <time>2021-08-09T10:29:46Z</time>
      </trkpt>
      <trkpt lat="44.53011" lon="1.55613">
        <ele>184.3</ele>
        <time>2021-08-09T10:29:47Z</time>
      </trkpt>
      <trkpt lat="44.53011" lon="1.55613">
        <ele>184.3</ele>
        <time>2021-08-09T10:29:49Z</time>
      </trkpt>
      <trkpt lat="44.53011" lon="1.55613">
        <ele>184.3</ele>
        <time>2021-08-09T10:29:50Z</time>
      </trkpt>
      <trkpt lat="44.53008" lon="1.55614">
        <ele>184.2</ele>
        <time>2021-08-09T10:30:07Z</time>
      </trkpt>
      <trkpt lat="44.53004" lon="1.55616">
        <ele>184.1</ele>
        <time>2021-08-09T10:30:08Z</time>
      </trkpt>
      <trkpt lat="44.53" lon="1.55618">
        <ele>184</ele>
        <time>2021-08-09T10:30:10Z</time>
      </trkpt>
      <trkpt lat="44.52996" lon="1.55619">
        <ele>183.9</ele>
        <time>2021-08-09T10:30:11Z</time>
      </trkpt>
      <trkpt lat="44.52992" lon="1.5562">
        <ele>183.8</ele>
        <time>2021-08-09T10:30:12Z</time>
      </trkpt>
      <trkpt lat="44.52988" lon="1.5562">
        <ele>183.7</ele>
        <time>2021-08-09T10:30:13Z</time>
      </trkpt>
      <trkpt lat="44.52985" lon="1.55619">
        <ele>183.6</ele>
        <time>2021-08-09T10:30:14Z</time>
      </trkpt>
      <trkpt lat="44.5298" lon="1.55617">
        <ele>183.5</ele>
        <time>2021-08-09T10:30:15Z</time>
      </trkpt>
      <trkpt lat="44.52977" lon="1.55614">
        <ele>183.4</ele>
        <time>2021-08-09T10:30:17Z</time>
      </trkpt>
      <trkpt lat="44.52972" lon="1.55611">
        <ele>183.3</ele>
        <time>2021-08-09T10:30:18Z</time>
      </trkpt>
      <trkpt lat="44.5297" lon="1.55608">
        <ele>183.1</ele>
        <time>2021-08-09T10:30:19Z</time>
      </trkpt>
      <trkpt lat="44.52967" lon="1.55604">
        <ele>183</ele>
        <time>2021-08-09T10:30:20Z</time>
      </trkpt>
      <trkpt lat="44.52962" lon="1.55598">
        <ele>182.8</ele>
        <time>2021-08-09T10:30:22Z</time>
      </trkpt>
      <trkpt lat="44.52952" lon="1.5559">
        <ele>182.2</ele>
        <time>2021-08-09T10:30:23Z</time>
      </trkpt>
      <trkpt lat="44.52947" lon="1.55585">
        <ele>181.9</ele>
        <time>2021-08-09T10:30:24Z</time>
      </trkpt>
      <trkpt lat="44.52937" lon="1.55574">
        <ele>181.1</ele>
        <time>2021-08-09T10:30:26Z</time>
      </trkpt>
      <trkpt lat="44.52927" lon="1.55564">
        <ele>180.4</ele>
        <time>2021-08-09T10:30:28Z</time>
      </trkpt>
      <trkpt lat="44.52916" lon="1.55553">
        <ele>179.9</ele>
        <time>2021-08-09T10:30:30Z</time>
      </trkpt>
      <trkpt lat="44.52905" lon="1.55542">
        <ele>179.5</ele>
        <time>2021-08-09T10:30:32Z</time>
      </trkpt>
      <trkpt lat="44.52895" lon="1.55532">
        <ele>179.1</ele>
        <time>2021-08-09T10:30:34Z</time>
      </trkpt>
      <trkpt lat="44.52892" lon="1.55528">
        <ele>178.9</ele>
        <time>2021-08-09T10:30:35Z</time>
      </trkpt>
      <trkpt lat="44.52888" lon="1.55522">
        <ele>178.7</ele>
        <time>2021-08-09T10:30:36Z</time>
      </trkpt>
      <trkpt lat="44.5288" lon="1.5551">
        <ele>178.2</ele>
        <time>2021-08-09T10:30:38Z</time>
      </trkpt>
      <trkpt lat="44.52873" lon="1.55495">
        <ele>177.7</ele>
        <time>2021-08-09T10:30:40Z</time>
      </trkpt>
      <trkpt lat="44.52867" lon="1.55477">
        <ele>176.9</ele>
        <time>2021-08-09T10:30:42Z</time>
      </trkpt>
      <trkpt lat="44.52867" lon="1.55468">
        <ele>176.5</ele>
        <time>2021-08-09T10:30:43Z</time>
      </trkpt>
      <trkpt lat="44.52867" lon="1.55458">
        <ele>176.1</ele>
        <time>2021-08-09T10:30:44Z</time>
      </trkpt>
      <trkpt lat="44.52862" lon="1.55443">
        <ele>175.5</ele>
        <time>2021-08-09T10:30:46Z</time>
      </trkpt>
      <trkpt lat="44.52852" lon="1.55434">
        <ele>175</ele>
        <time>2021-08-09T10:30:48Z</time>
      </trkpt>
      <trkpt lat="44.52841" lon="1.55431">
        <ele>174.6</ele>
        <time>2021-08-09T10:30:50Z</time>
      </trkpt>
      <trkpt lat="44.52829" lon="1.55431">
        <ele>174.2</ele>
        <time>2021-08-09T10:30:52Z</time>
      </trkpt>
      <trkpt lat="44.52823" lon="1.55432">
        <ele>174.1</ele>
        <time>2021-08-09T10:30:53Z</time>
      </trkpt>
      <trkpt lat="44.52812" lon="1.55438">
        <ele>173.8</ele>
        <time>2021-08-09T10:30:55Z</time>
      </trkpt>
      <trkpt lat="44.52807" lon="1.55441">
        <ele>173.7</ele>
        <time>2021-08-09T10:30:56Z</time>
      </trkpt>
      <trkpt lat="44.52799" lon="1.55452">
        <ele>173.5</ele>
        <time>2021-08-09T10:30:58Z</time>
      </trkpt>
      <trkpt lat="44.52792" lon="1.55466">
        <ele>173.4</ele>
        <time>2021-08-09T10:31:00Z</time>
      </trkpt>
      <trkpt lat="44.52787" lon="1.55479">
        <ele>173.3</ele>
        <time>2021-08-09T10:31:02Z</time>
      </trkpt>
      <trkpt lat="44.52784" lon="1.55492">
        <ele>173.2</ele>
        <time>2021-08-09T10:31:04Z</time>
      </trkpt>
      <trkpt lat="44.52783" lon="1.55499">
        <ele>173.1</ele>
        <time>2021-08-09T10:31:05Z</time>
      </trkpt>
      <trkpt lat="44.5278" lon="1.55514">
        <ele>173</ele>
        <time>2021-08-09T10:31:07Z</time>
      </trkpt>
      <trkpt lat="44.52778" lon="1.55521">
        <ele>172.9</ele>
        <time>2021-08-09T10:31:08Z</time>
      </trkpt>
      <trkpt lat="44.52774" lon="1.55535">
        <ele>172.7</ele>
        <time>2021-08-09T10:31:10Z</time>
      </trkpt>
      <trkpt lat="44.52774" lon="1.55543">
        <ele>172.6</ele>
        <time>2021-08-09T10:31:11Z</time>
      </trkpt>
      <trkpt lat="44.52772" lon="1.55557">
        <ele>172.5</ele>
        <time>2021-08-09T10:31:13Z</time>
      </trkpt>
      <trkpt lat="44.52772" lon="1.55562">
        <ele>172.5</ele>
        <time>2021-08-09T10:31:14Z</time>
      </trkpt>
      <trkpt lat="44.52771" lon="1.55569">
        <ele>172.4</ele>
        <time>2021-08-09T10:31:15Z</time>
      </trkpt>
      <trkpt lat="44.52769" lon="1.55582">
        <ele>172.4</ele>
        <time>2021-08-09T10:31:17Z</time>
      </trkpt>
      <trkpt lat="44.52768" lon="1.55593">
        <ele>172.3</ele>
        <time>2021-08-09T10:31:19Z</time>
      </trkpt>
      <trkpt lat="44.52766" lon="1.55604">
        <ele>172.2</ele>
        <time>2021-08-09T10:31:20Z</time>
      </trkpt>
      <trkpt lat="44.52765" lon="1.55611">
        <ele>172.1</ele>
        <time>2021-08-09T10:31:22Z</time>
      </trkpt>
      <trkpt lat="44.52765" lon="1.55618">
        <ele>172</ele>
        <time>2021-08-09T10:31:23Z</time>
      </trkpt>
      <trkpt lat="44.52764" lon="1.55624">
        <ele>172</ele>
        <time>2021-08-09T10:31:24Z</time>
      </trkpt>
      <trkpt lat="44.52762" lon="1.55634">
        <ele>171.9</ele>
        <time>2021-08-09T10:31:26Z</time>
      </trkpt>
      <trkpt lat="44.5276" lon="1.55641">
        <ele>171.9</ele>
        <time>2021-08-09T10:31:27Z</time>
      </trkpt>
      <trkpt lat="44.52757" lon="1.55647">
        <ele>171.9</ele>
        <time>2021-08-09T10:31:28Z</time>
      </trkpt>
      <trkpt lat="44.52753" lon="1.55652">
        <ele>172</ele>
        <time>2021-08-09T10:31:30Z</time>
      </trkpt>
      <trkpt lat="44.52751" lon="1.55656">
        <ele>172</ele>
        <time>2021-08-09T10:31:31Z</time>
      </trkpt>
      <trkpt lat="44.52748" lon="1.55658">
        <ele>172</ele>
        <time>2021-08-09T10:31:32Z</time>
      </trkpt>
      <trkpt lat="44.52746" lon="1.55661">
        <ele>171.9</ele>
        <time>2021-08-09T10:31:33Z</time>
      </trkpt>
      <trkpt lat="44.52743" lon="1.55663">
        <ele>171.9</ele>
        <time>2021-08-09T10:31:34Z</time>
      </trkpt>
      <trkpt lat="44.5274" lon="1.55668">
        <ele>171.7</ele>
        <time>2021-08-09T10:31:35Z</time>
      </trkpt>
      <trkpt lat="44.52736" lon="1.55672">
        <ele>171.5</ele>
        <time>2021-08-09T10:31:37Z</time>
      </trkpt>
      <trkpt lat="44.52733" lon="1.55678">
        <ele>171.3</ele>
        <time>2021-08-09T10:31:38Z</time>
      </trkpt>
      <trkpt lat="44.5273" lon="1.55683">
        <ele>171.1</ele>
        <time>2021-08-09T10:31:39Z</time>
      </trkpt>
      <trkpt lat="44.52726" lon="1.55689">
        <ele>170.9</ele>
        <time>2021-08-09T10:31:40Z</time>
      </trkpt>
      <trkpt lat="44.5272" lon="1.55701">
        <ele>170.5</ele>
        <time>2021-08-09T10:31:42Z</time>
      </trkpt>
      <trkpt lat="44.52717" lon="1.55706">
        <ele>170.4</ele>
        <time>2021-08-09T10:31:43Z</time>
      </trkpt>
      <trkpt lat="44.52714" lon="1.55709">
        <ele>170.3</ele>
        <time>2021-08-09T10:31:44Z</time>
      </trkpt>
      <trkpt lat="44.52712" lon="1.5571">
        <ele>170.2</ele>
        <time>2021-08-09T10:31:45Z</time>
      </trkpt>
      <trkpt lat="44.52702" lon="1.55719">
        <ele>169.9</ele>
        <time>2021-08-09T10:31:47Z</time>
      </trkpt>
      <trkpt lat="44.52698" lon="1.55723">
        <ele>169.7</ele>
        <time>2021-08-09T10:31:48Z</time>
      </trkpt>
      <trkpt lat="44.52693" lon="1.55726">
        <ele>169.5</ele>
        <time>2021-08-09T10:31:49Z</time>
      </trkpt>
      <trkpt lat="44.52688" lon="1.55728">
        <ele>169.4</ele>
        <time>2021-08-09T10:31:50Z</time>
      </trkpt>
      <trkpt lat="44.52678" lon="1.55729">
        <ele>169.1</ele>
        <time>2021-08-09T10:31:52Z</time>
      </trkpt>
      <trkpt lat="44.52672" lon="1.55729">
        <ele>169.1</ele>
        <time>2021-08-09T10:31:53Z</time>
      </trkpt>
      <trkpt lat="44.52667" lon="1.55729">
        <ele>169</ele>
        <time>2021-08-09T10:31:54Z</time>
      </trkpt>
      <trkpt lat="44.52656" lon="1.55729">
        <ele>169</ele>
        <time>2021-08-09T10:31:56Z</time>
      </trkpt>
      <trkpt lat="44.52646" lon="1.5573">
        <ele>169</ele>
        <time>2021-08-09T10:31:58Z</time>
      </trkpt>
      <trkpt lat="44.52641" lon="1.5573">
        <ele>169</ele>
        <time>2021-08-09T10:31:59Z</time>
      </trkpt>
      <trkpt lat="44.52638" lon="1.55729">
        <ele>169</ele>
        <time>2021-08-09T10:32:00Z</time>
      </trkpt>
      <trkpt lat="44.5263" lon="1.55729">
        <ele>169</ele>
        <time>2021-08-09T10:32:02Z</time>
      </trkpt>
      <trkpt lat="44.52622" lon="1.55729">
        <ele>168.9</ele>
        <time>2021-08-09T10:32:04Z</time>
      </trkpt>
      <trkpt lat="44.52619" lon="1.55728">
        <ele>168.8</ele>
        <time>2021-08-09T10:32:05Z</time>
      </trkpt>
      <trkpt lat="44.52612" lon="1.5573">
        <ele>168.7</ele>
        <time>2021-08-09T10:32:06Z</time>
      </trkpt>
      <trkpt lat="44.52606" lon="1.5573">
        <ele>168.5</ele>
        <time>2021-08-09T10:32:07Z</time>
      </trkpt>
      <trkpt lat="44.52603" lon="1.55729">
        <ele>168.4</ele>
        <time>2021-08-09T10:32:09Z</time>
      </trkpt>
      <trkpt lat="44.52598" lon="1.55729">
        <ele>168.3</ele>
        <time>2021-08-09T10:32:10Z</time>
      </trkpt>
      <trkpt lat="44.52592" lon="1.55727">
        <ele>168.1</ele>
        <time>2021-08-09T10:32:11Z</time>
      </trkpt>
      <trkpt lat="44.52586" lon="1.55726">
        <ele>168</ele>
        <time>2021-08-09T10:32:12Z</time>
      </trkpt>
      <trkpt lat="44.52581" lon="1.55725">
        <ele>167.9</ele>
        <time>2021-08-09T10:32:13Z</time>
      </trkpt>
      <trkpt lat="44.52576" lon="1.55724">
        <ele>167.8</ele>
        <time>2021-08-09T10:32:14Z</time>
      </trkpt>
      <trkpt lat="44.52572" lon="1.55725">
        <ele>167.7</ele>
        <time>2021-08-09T10:32:15Z</time>
      </trkpt>
      <trkpt lat="44.52566" lon="1.55724">
        <ele>167.6</ele>
        <time>2021-08-09T10:32:17Z</time>
      </trkpt>
      <trkpt lat="44.52562" lon="1.55722">
        <ele>167.6</ele>
        <time>2021-08-09T10:32:18Z</time>
      </trkpt>
      <trkpt lat="44.52558" lon="1.55722">
        <ele>167.5</ele>
        <time>2021-08-09T10:32:19Z</time>
      </trkpt>
      <trkpt lat="44.52554" lon="1.55722">
        <ele>167.4</ele>
        <time>2021-08-09T10:32:20Z</time>
      </trkpt>
      <trkpt lat="44.5255" lon="1.55722">
        <ele>167.3</ele>
        <time>2021-08-09T10:32:22Z</time>
      </trkpt>
      <trkpt lat="44.52546" lon="1.55721">
        <ele>167.2</ele>
        <time>2021-08-09T10:32:23Z</time>
      </trkpt>
      <trkpt lat="44.5254" lon="1.55717">
        <ele>167</ele>
        <time>2021-08-09T10:32:25Z</time>
      </trkpt>
      <trkpt lat="44.52533" lon="1.55713">
        <ele>166.7</ele>
        <time>2021-08-09T10:32:26Z</time>
      </trkpt>
      <trkpt lat="44.52527" lon="1.5571">
        <ele>166.5</ele>
        <time>2021-08-09T10:32:27Z</time>
      </trkpt>
      <trkpt lat="44.52517" lon="1.55708">
        <ele>166.5</ele>
        <time>2021-08-09T10:32:29Z</time>
      </trkpt>
      <trkpt lat="44.52512" lon="1.55706">
        <ele>166.5</ele>
        <time>2021-08-09T10:32:30Z</time>
      </trkpt>
      <trkpt lat="44.52507" lon="1.55705">
        <ele>166.5</ele>
        <time>2021-08-09T10:32:31Z</time>
      </trkpt>
      <trkpt lat="44.52506" lon="1.55704">
        <ele>166.5</ele>
        <time>2021-08-09T10:32:32Z</time>
      </trkpt>
      <trkpt lat="44.52501" lon="1.55703">
        <ele>166.5</ele>
        <time>2021-08-09T10:32:34Z</time>
      </trkpt>
      <trkpt lat="44.52494" lon="1.55703">
        <ele>166.5</ele>
        <time>2021-08-09T10:32:35Z</time>
      </trkpt>
      <trkpt lat="44.52489" lon="1.55703">
        <ele>166.5</ele>
        <time>2021-08-09T10:32:36Z</time>
      </trkpt>
      <trkpt lat="44.52484" lon="1.55703">
        <ele>166.5</ele>
        <time>2021-08-09T10:32:37Z</time>
      </trkpt>
      <trkpt lat="44.52479" lon="1.55702">
        <ele>166.5</ele>
        <time>2021-08-09T10:32:38Z</time>
      </trkpt>
      <trkpt lat="44.52473" lon="1.557">
        <ele>166.5</ele>
        <time>2021-08-09T10:32:39Z</time>
      </trkpt>
      <trkpt lat="44.52469" lon="1.55698">
        <ele>166.6</ele>
        <time>2021-08-09T10:32:41Z</time>
      </trkpt>
      <trkpt lat="44.52462" lon="1.55695">
        <ele>166.6</ele>
        <time>2021-08-09T10:32:42Z</time>
      </trkpt>
      <trkpt lat="44.52457" lon="1.55694">
        <ele>166.6</ele>
        <time>2021-08-09T10:32:43Z</time>
      </trkpt>
      <trkpt lat="44.52453" lon="1.55692">
        <ele>166.7</ele>
        <time>2021-08-09T10:32:44Z</time>
      </trkpt>
      <trkpt lat="44.52448" lon="1.55691">
        <ele>166.7</ele>
        <time>2021-08-09T10:32:45Z</time>
      </trkpt>
      <trkpt lat="44.52442" lon="1.55688">
        <ele>166.8</ele>
        <time>2021-08-09T10:32:46Z</time>
      </trkpt>
      <trkpt lat="44.52436" lon="1.55686">
        <ele>166.9</ele>
        <time>2021-08-09T10:32:48Z</time>
      </trkpt>
      <trkpt lat="44.52433" lon="1.55685">
        <ele>166.9</ele>
        <time>2021-08-09T10:32:49Z</time>
      </trkpt>
      <trkpt lat="44.5243" lon="1.55684">
        <ele>166.9</ele>
        <time>2021-08-09T10:32:50Z</time>
      </trkpt>
      <trkpt lat="44.52425" lon="1.55684">
        <ele>167</ele>
        <time>2021-08-09T10:32:52Z</time>
      </trkpt>
      <trkpt lat="44.52422" lon="1.55685">
        <ele>167</ele>
        <time>2021-08-09T10:32:53Z</time>
      </trkpt>
      <trkpt lat="44.52418" lon="1.55685">
        <ele>167</ele>
        <time>2021-08-09T10:32:54Z</time>
      </trkpt>
      <trkpt lat="44.52411" lon="1.55684">
        <ele>167</ele>
        <time>2021-08-09T10:32:56Z</time>
      </trkpt>
      <trkpt lat="44.52405" lon="1.55684">
        <ele>166.9</ele>
        <time>2021-08-09T10:32:57Z</time>
      </trkpt>
      <trkpt lat="44.52399" lon="1.55682">
        <ele>166.8</ele>
        <time>2021-08-09T10:32:58Z</time>
      </trkpt>
      <trkpt lat="44.5239" lon="1.55681">
        <ele>166.7</ele>
        <time>2021-08-09T10:33:00Z</time>
      </trkpt>
      <trkpt lat="44.52383" lon="1.55675">
        <ele>166.6</ele>
        <time>2021-08-09T10:33:02Z</time>
      </trkpt>
      <trkpt lat="44.52375" lon="1.5568">
        <ele>166.4</ele>
        <time>2021-08-09T10:33:03Z</time>
      </trkpt>
      <trkpt lat="44.52365" lon="1.5568">
        <ele>166.3</ele>
        <time>2021-08-09T10:33:05Z</time>
      </trkpt>
      <trkpt lat="44.52355" lon="1.55681">
        <ele>166.3</ele>
        <time>2021-08-09T10:33:07Z</time>
      </trkpt>
      <trkpt lat="44.52349" lon="1.5568">
        <ele>166.2</ele>
        <time>2021-08-09T10:33:08Z</time>
      </trkpt>
      <trkpt lat="44.52338" lon="1.5568">
        <ele>166</ele>
        <time>2021-08-09T10:33:10Z</time>
      </trkpt>
      <trkpt lat="44.52326" lon="1.55681">
        <ele>165.7</ele>
        <time>2021-08-09T10:33:12Z</time>
      </trkpt>
      <trkpt lat="44.5232" lon="1.55682">
        <ele>165.6</ele>
        <time>2021-08-09T10:33:13Z</time>
      </trkpt>
      <trkpt lat="44.52314" lon="1.55684">
        <ele>165.5</ele>
        <time>2021-08-09T10:33:14Z</time>
      </trkpt>
      <trkpt lat="44.52303" lon="1.55685">
        <ele>165.4</ele>
        <time>2021-08-09T10:33:16Z</time>
      </trkpt>
      <trkpt lat="44.52291" lon="1.55686">
        <ele>165.3</ele>
        <time>2021-08-09T10:33:18Z</time>
      </trkpt>
      <trkpt lat="44.52285" lon="1.55687">
        <ele>165.2</ele>
        <time>2021-08-09T10:33:19Z</time>
      </trkpt>
      <trkpt lat="44.52279" lon="1.5569">
        <ele>165.2</ele>
        <time>2021-08-09T10:33:20Z</time>
      </trkpt>
      <trkpt lat="44.52268" lon="1.55695">
        <ele>165.1</ele>
        <time>2021-08-09T10:33:22Z</time>
      </trkpt>
      <trkpt lat="44.52256" lon="1.55698">
        <ele>165</ele>
        <time>2021-08-09T10:33:24Z</time>
      </trkpt>
      <trkpt lat="44.52251" lon="1.55701">
        <ele>165</ele>
        <time>2021-08-09T10:33:25Z</time>
      </trkpt>
      <trkpt lat="44.52246" lon="1.55703">
        <ele>165</ele>
        <time>2021-08-09T10:33:26Z</time>
      </trkpt>
      <trkpt lat="44.52235" lon="1.55707">
        <ele>165.1</ele>
        <time>2021-08-09T10:33:28Z</time>
      </trkpt>
      <trkpt lat="44.52224" lon="1.5571">
        <ele>165.1</ele>
        <time>2021-08-09T10:33:30Z</time>
      </trkpt>
      <trkpt lat="44.52212" lon="1.55712">
        <ele>165.1</ele>
        <time>2021-08-09T10:33:32Z</time>
      </trkpt>
      <trkpt lat="44.52201" lon="1.55713">
        <ele>165.1</ele>
        <time>2021-08-09T10:33:34Z</time>
      </trkpt>
      <trkpt lat="44.52189" lon="1.55713">
        <ele>165.1</ele>
        <time>2021-08-09T10:33:36Z</time>
      </trkpt>
      <trkpt lat="44.52178" lon="1.55713">
        <ele>165</ele>
        <time>2021-08-09T10:33:38Z</time>
      </trkpt>
      <trkpt lat="44.52167" lon="1.55712">
        <ele>164.9</ele>
        <time>2021-08-09T10:33:40Z</time>
      </trkpt>
      <trkpt lat="44.52162" lon="1.55711">
        <ele>164.9</ele>
        <time>2021-08-09T10:33:41Z</time>
      </trkpt>
      <trkpt lat="44.52156" lon="1.5571">
        <ele>164.8</ele>
        <time>2021-08-09T10:33:42Z</time>
      </trkpt>
      <trkpt lat="44.52145" lon="1.55711">
        <ele>164.6</ele>
        <time>2021-08-09T10:33:44Z</time>
      </trkpt>
      <trkpt lat="44.5214" lon="1.55714">
        <ele>164.5</ele>
        <time>2021-08-09T10:33:45Z</time>
      </trkpt>
      <trkpt lat="44.52131" lon="1.55722">
        <ele>164.4</ele>
        <time>2021-08-09T10:33:47Z</time>
      </trkpt>
      <trkpt lat="44.52121" lon="1.55729">
        <ele>164.3</ele>
        <time>2021-08-09T10:33:49Z</time>
      </trkpt>
      <trkpt lat="44.52116" lon="1.55732">
        <ele>164.2</ele>
        <time>2021-08-09T10:33:50Z</time>
      </trkpt>
      <trkpt lat="44.52107" lon="1.5574">
        <ele>164.1</ele>
        <time>2021-08-09T10:33:52Z</time>
      </trkpt>
      <trkpt lat="44.52103" lon="1.55744">
        <ele>164.1</ele>
        <time>2021-08-09T10:33:53Z</time>
      </trkpt>
      <trkpt lat="44.52098" lon="1.55749">
        <ele>164.1</ele>
        <time>2021-08-09T10:33:54Z</time>
      </trkpt>
      <trkpt lat="44.52091" lon="1.55758">
        <ele>164</ele>
        <time>2021-08-09T10:33:56Z</time>
      </trkpt>
      <trkpt lat="44.52083" lon="1.55767">
        <ele>163.9</ele>
        <time>2021-08-09T10:33:58Z</time>
      </trkpt>
      <trkpt lat="44.52075" lon="1.55774">
        <ele>163.9</ele>
        <time>2021-08-09T10:34:00Z</time>
      </trkpt>
      <trkpt lat="44.52073" lon="1.55776">
        <ele>163.9</ele>
        <time>2021-08-09T10:34:01Z</time>
      </trkpt>
      <trkpt lat="44.52069" lon="1.55779">
        <ele>163.8</ele>
        <time>2021-08-09T10:34:02Z</time>
      </trkpt>
      <trkpt lat="44.52063" lon="1.55785">
        <ele>163.7</ele>
        <time>2021-08-09T10:34:04Z</time>
      </trkpt>
      <trkpt lat="44.5206" lon="1.55788">
        <ele>163.7</ele>
        <time>2021-08-09T10:34:05Z</time>
      </trkpt>
      <trkpt lat="44.52051" lon="1.55797">
        <ele>163.5</ele>
        <time>2021-08-09T10:34:07Z</time>
      </trkpt>
      <trkpt lat="44.52046" lon="1.55801">
        <ele>163.5</ele>
        <time>2021-08-09T10:34:08Z</time>
      </trkpt>
      <trkpt lat="44.52042" lon="1.55804">
        <ele>163.4</ele>
        <time>2021-08-09T10:34:09Z</time>
      </trkpt>
      <trkpt lat="44.52032" lon="1.55809">
        <ele>163.2</ele>
        <time>2021-08-09T10:34:11Z</time>
      </trkpt>
      <trkpt lat="44.52025" lon="1.55814">
        <ele>163</ele>
        <time>2021-08-09T10:34:13Z</time>
      </trkpt>
      <trkpt lat="44.52021" lon="1.55816">
        <ele>162.9</ele>
        <time>2021-08-09T10:34:14Z</time>
      </trkpt>
      <trkpt lat="44.52016" lon="1.55817">
        <ele>162.7</ele>
        <time>2021-08-09T10:34:15Z</time>
      </trkpt>
      <trkpt lat="44.5201" lon="1.55819">
        <ele>162.4</ele>
        <time>2021-08-09T10:34:16Z</time>
      </trkpt>
      <trkpt lat="44.52005" lon="1.5582">
        <ele>162.2</ele>
        <time>2021-08-09T10:34:17Z</time>
      </trkpt>
      <trkpt lat="44.52" lon="1.5582">
        <ele>162</ele>
        <time>2021-08-09T10:34:18Z</time>
      </trkpt>
      <trkpt lat="44.51993" lon="1.55819">
        <ele>161.5</ele>
        <time>2021-08-09T10:34:20Z</time>
      </trkpt>
      <trkpt lat="44.51984" lon="1.55819">
        <ele>161</ele>
        <time>2021-08-09T10:34:21Z</time>
      </trkpt>
      <trkpt lat="44.5197" lon="1.5582">
        <ele>160.1</ele>
        <time>2021-08-09T10:34:23Z</time>
      </trkpt>
      <trkpt lat="44.51957" lon="1.55824">
        <ele>159.5</ele>
        <time>2021-08-09T10:34:25Z</time>
      </trkpt>
      <trkpt lat="44.51951" lon="1.55825">
        <ele>159.3</ele>
        <time>2021-08-09T10:34:26Z</time>
      </trkpt>
      <trkpt lat="44.51938" lon="1.55828">
        <ele>159.1</ele>
        <time>2021-08-09T10:34:28Z</time>
      </trkpt>
      <trkpt lat="44.5193" lon="1.5583">
        <ele>159.2</ele>
        <time>2021-08-09T10:34:30Z</time>
      </trkpt>
      <trkpt lat="44.51925" lon="1.5583">
        <ele>159.3</ele>
        <time>2021-08-09T10:34:31Z</time>
      </trkpt>
      <trkpt lat="44.5192" lon="1.55835">
        <ele>159.6</ele>
        <time>2021-08-09T10:34:33Z</time>
      </trkpt>
      <trkpt lat="44.51916" lon="1.55838">
        <ele>159.7</ele>
        <time>2021-08-09T10:34:34Z</time>
      </trkpt>
      <trkpt lat="44.51913" lon="1.5584">
        <ele>159.8</ele>
        <time>2021-08-09T10:34:35Z</time>
      </trkpt>
      <trkpt lat="44.5191" lon="1.5584">
        <ele>160</ele>
        <time>2021-08-09T10:34:36Z</time>
      </trkpt>
      <trkpt lat="44.51907" lon="1.55841">
        <ele>160.1</ele>
        <time>2021-08-09T10:34:37Z</time>
      </trkpt>
      <trkpt lat="44.51903" lon="1.55844">
        <ele>160.3</ele>
        <time>2021-08-09T10:34:39Z</time>
      </trkpt>
      <trkpt lat="44.519" lon="1.55845">
        <ele>160.4</ele>
        <time>2021-08-09T10:34:40Z</time>
      </trkpt>
      <trkpt lat="44.51897" lon="1.55844">
        <ele>160.5</ele>
        <time>2021-08-09T10:34:41Z</time>
      </trkpt>
      <trkpt lat="44.51893" lon="1.55846">
        <ele>160.6</ele>
        <time>2021-08-09T10:34:42Z</time>
      </trkpt>
      <trkpt lat="44.51889" lon="1.55848">
        <ele>160.7</ele>
        <time>2021-08-09T10:34:44Z</time>
      </trkpt>
      <trkpt lat="44.51886" lon="1.55851">
        <ele>160.8</ele>
        <time>2021-08-09T10:34:45Z</time>
      </trkpt>
      <trkpt lat="44.51886" lon="1.55855">
        <ele>160.8</ele>
        <time>2021-08-09T10:34:46Z</time>
      </trkpt>
      <trkpt lat="44.51883" lon="1.55858">
        <ele>160.9</ele>
        <time>2021-08-09T10:34:48Z</time>
      </trkpt>
      <trkpt lat="44.51882" lon="1.55859">
        <ele>160.9</ele>
        <time>2021-08-09T10:34:49Z</time>
      </trkpt>
      <trkpt lat="44.51878" lon="1.55861">
        <ele>161.1</ele>
        <time>2021-08-09T10:34:51Z</time>
      </trkpt>
      <trkpt lat="44.51877" lon="1.55861">
        <ele>161.1</ele>
        <time>2021-08-09T10:34:52Z</time>
      </trkpt>
      <trkpt lat="44.51875" lon="1.55863">
        <ele>161.2</ele>
        <time>2021-08-09T10:34:53Z</time>
      </trkpt>
      <trkpt lat="44.51871" lon="1.55865">
        <ele>161.4</ele>
        <time>2021-08-09T10:34:55Z</time>
      </trkpt>
      <trkpt lat="44.51869" lon="1.55866">
        <ele>161.5</ele>
        <time>2021-08-09T10:34:56Z</time>
      </trkpt>
      <trkpt lat="44.51866" lon="1.55868">
        <ele>161.6</ele>
        <time>2021-08-09T10:34:58Z</time>
      </trkpt>
      <trkpt lat="44.51863" lon="1.55869">
        <ele>161.7</ele>
        <time>2021-08-09T10:34:59Z</time>
      </trkpt>
      <trkpt lat="44.51859" lon="1.55869">
        <ele>161.8</ele>
        <time>2021-08-09T10:35:00Z</time>
      </trkpt>
      <trkpt lat="44.51858" lon="1.55868">
        <ele>161.8</ele>
        <time>2021-08-09T10:35:01Z</time>
      </trkpt>
      <trkpt lat="44.51855" lon="1.55868">
        <ele>161.8</ele>
        <time>2021-08-09T10:35:02Z</time>
      </trkpt>
      <trkpt lat="44.51851" lon="1.55868">
        <ele>161.9</ele>
        <time>2021-08-09T10:35:03Z</time>
      </trkpt>
      <trkpt lat="44.51848" lon="1.55867">
        <ele>161.9</ele>
        <time>2021-08-09T10:35:04Z</time>
      </trkpt>
      <trkpt lat="44.51844" lon="1.55867">
        <ele>161.9</ele>
        <time>2021-08-09T10:35:06Z</time>
      </trkpt>
      <trkpt lat="44.5184" lon="1.55866">
        <ele>161.9</ele>
        <time>2021-08-09T10:35:07Z</time>
      </trkpt>
      <trkpt lat="44.51837" lon="1.55865">
        <ele>162</ele>
        <time>2021-08-09T10:35:08Z</time>
      </trkpt>
      <trkpt lat="44.51832" lon="1.55864">
        <ele>162</ele>
        <time>2021-08-09T10:35:09Z</time>
      </trkpt>
      <trkpt lat="44.51828" lon="1.55862">
        <ele>162</ele>
        <time>2021-08-09T10:35:10Z</time>
      </trkpt>
      <trkpt lat="44.51825" lon="1.55861">
        <ele>162.2</ele>
        <time>2021-08-09T10:35:12Z</time>
      </trkpt>
      <trkpt lat="44.51821" lon="1.55859">
        <ele>162.3</ele>
        <time>2021-08-09T10:35:13Z</time>
      </trkpt>
      <trkpt lat="44.51818" lon="1.55859">
        <ele>162.5</ele>
        <time>2021-08-09T10:35:14Z</time>
      </trkpt>
      <trkpt lat="44.51813" lon="1.55858">
        <ele>162.8</ele>
        <time>2021-08-09T10:35:16Z</time>
      </trkpt>
      <trkpt lat="44.5181" lon="1.55858">
        <ele>163.1</ele>
        <time>2021-08-09T10:35:17Z</time>
      </trkpt>
      <trkpt lat="44.51805" lon="1.55857">
        <ele>163.6</ele>
        <time>2021-08-09T10:35:19Z</time>
      </trkpt>
      <trkpt lat="44.51801" lon="1.55858">
        <ele>164</ele>
        <time>2021-08-09T10:35:20Z</time>
      </trkpt>
      <trkpt lat="44.51797" lon="1.55857">
        <ele>164.5</ele>
        <time>2021-08-09T10:35:22Z</time>
      </trkpt>
      <trkpt lat="44.51794" lon="1.55856">
        <ele>164.9</ele>
        <time>2021-08-09T10:35:23Z</time>
      </trkpt>
      <trkpt lat="44.51791" lon="1.55855">
        <ele>165.2</ele>
        <time>2021-08-09T10:35:24Z</time>
      </trkpt>
      <trkpt lat="44.51788" lon="1.55853">
        <ele>165.6</ele>
        <time>2021-08-09T10:35:25Z</time>
      </trkpt>
      <trkpt lat="44.51785" lon="1.55853">
        <ele>165.8</ele>
        <time>2021-08-09T10:35:26Z</time>
      </trkpt>
      <trkpt lat="44.51782" lon="1.55852">
        <ele>166</ele>
        <time>2021-08-09T10:35:27Z</time>
      </trkpt>
      <trkpt lat="44.51778" lon="1.55849">
        <ele>166.3</ele>
        <time>2021-08-09T10:35:29Z</time>
      </trkpt>
      <trkpt lat="44.51776" lon="1.55847">
        <ele>166.4</ele>
        <time>2021-08-09T10:35:30Z</time>
      </trkpt>
      <trkpt lat="44.51774" lon="1.55846">
        <ele>166.4</ele>
        <time>2021-08-09T10:35:31Z</time>
      </trkpt>
      <trkpt lat="44.5177" lon="1.55842">
        <ele>166.4</ele>
        <time>2021-08-09T10:35:33Z</time>
      </trkpt>
      <trkpt lat="44.51769" lon="1.5584">
        <ele>166.4</ele>
        <time>2021-08-09T10:35:34Z</time>
      </trkpt>
      <trkpt lat="44.51768" lon="1.55839">
        <ele>166.3</ele>
        <time>2021-08-09T10:35:35Z</time>
      </trkpt>
      <trkpt lat="44.51763" lon="1.55832">
        <ele>166.1</ele>
        <time>2021-08-09T10:35:37Z</time>
      </trkpt>
      <trkpt lat="44.51761" lon="1.55828">
        <ele>165.8</ele>
        <time>2021-08-09T10:35:38Z</time>
      </trkpt>
      <trkpt lat="44.51752" lon="1.55815">
        <ele>164.8</ele>
        <time>2021-08-09T10:35:40Z</time>
      </trkpt>
      <trkpt lat="44.51748" lon="1.55807">
        <ele>164.2</ele>
        <time>2021-08-09T10:35:41Z</time>
      </trkpt>
      <trkpt lat="44.51743" lon="1.55801">
        <ele>163.6</ele>
        <time>2021-08-09T10:35:42Z</time>
      </trkpt>
      <trkpt lat="44.51731" lon="1.55787">
        <ele>162.9</ele>
        <time>2021-08-09T10:35:44Z</time>
      </trkpt>
      <trkpt lat="44.5172" lon="1.55775">
        <ele>162.4</ele>
        <time>2021-08-09T10:35:46Z</time>
      </trkpt>
      <trkpt lat="44.51716" lon="1.55768">
        <ele>162.2</ele>
        <time>2021-08-09T10:35:47Z</time>
      </trkpt>
      <trkpt lat="44.51708" lon="1.55756">
        <ele>161.8</ele>
        <time>2021-08-09T10:35:49Z</time>
      </trkpt>
      <trkpt lat="44.51703" lon="1.55749">
        <ele>161.6</ele>
        <time>2021-08-09T10:35:50Z</time>
      </trkpt>
      <trkpt lat="44.51695" lon="1.55735">
        <ele>161.2</ele>
        <time>2021-08-09T10:35:52Z</time>
      </trkpt>
      <trkpt lat="44.51685" lon="1.55719">
        <ele>160.7</ele>
        <time>2021-08-09T10:35:54Z</time>
      </trkpt>
      <trkpt lat="44.51679" lon="1.55712">
        <ele>160.6</ele>
        <time>2021-08-09T10:35:55Z</time>
      </trkpt>
      <trkpt lat="44.51674" lon="1.55707">
        <ele>160.6</ele>
        <time>2021-08-09T10:35:56Z</time>
      </trkpt>
      <trkpt lat="44.51664" lon="1.55701">
        <ele>160.7</ele>
        <time>2021-08-09T10:35:58Z</time>
      </trkpt>
      <trkpt lat="44.51659" lon="1.55699">
        <ele>160.7</ele>
        <time>2021-08-09T10:35:59Z</time>
      </trkpt>
      <trkpt lat="44.51652" lon="1.55695">
        <ele>160.8</ele>
        <time>2021-08-09T10:36:01Z</time>
      </trkpt>
      <trkpt lat="44.51648" lon="1.55693">
        <ele>160.8</ele>
        <time>2021-08-09T10:36:02Z</time>
      </trkpt>
      <trkpt lat="44.5164" lon="1.55691">
        <ele>160.9</ele>
        <time>2021-08-09T10:36:04Z</time>
      </trkpt>
      <trkpt lat="44.51635" lon="1.55691">
        <ele>160.9</ele>
        <time>2021-08-09T10:36:05Z</time>
      </trkpt>
      <trkpt lat="44.51623" lon="1.55692">
        <ele>160.8</ele>
        <time>2021-08-09T10:36:07Z</time>
      </trkpt>
      <trkpt lat="44.51617" lon="1.55693">
        <ele>160.8</ele>
        <time>2021-08-09T10:36:08Z</time>
      </trkpt>
      <trkpt lat="44.51604" lon="1.55696">
        <ele>160.9</ele>
        <time>2021-08-09T10:36:10Z</time>
      </trkpt>
      <trkpt lat="44.51598" lon="1.55697">
        <ele>160.9</ele>
        <time>2021-08-09T10:36:11Z</time>
      </trkpt>
      <trkpt lat="44.51586" lon="1.55699">
        <ele>161</ele>
        <time>2021-08-09T10:36:13Z</time>
      </trkpt>
      <trkpt lat="44.5158" lon="1.55701">
        <ele>161</ele>
        <time>2021-08-09T10:36:14Z</time>
      </trkpt>
      <trkpt lat="44.51568" lon="1.55704">
        <ele>160.9</ele>
        <time>2021-08-09T10:36:16Z</time>
      </trkpt>
      <trkpt lat="44.51562" lon="1.55705">
        <ele>160.9</ele>
        <time>2021-08-09T10:36:17Z</time>
      </trkpt>
      <trkpt lat="44.51556" lon="1.55707">
        <ele>160.9</ele>
        <time>2021-08-09T10:36:18Z</time>
      </trkpt>
      <trkpt lat="44.51545" lon="1.55713">
        <ele>160.9</ele>
        <time>2021-08-09T10:36:20Z</time>
      </trkpt>
      <trkpt lat="44.51534" lon="1.55718">
        <ele>160.8</ele>
        <time>2021-08-09T10:36:22Z</time>
      </trkpt>
      <trkpt lat="44.51523" lon="1.55724">
        <ele>160.8</ele>
        <time>2021-08-09T10:36:24Z</time>
      </trkpt>
      <trkpt lat="44.51518" lon="1.55728">
        <ele>160.8</ele>
        <time>2021-08-09T10:36:25Z</time>
      </trkpt>
      <trkpt lat="44.51513" lon="1.55732">
        <ele>160.8</ele>
        <time>2021-08-09T10:36:26Z</time>
      </trkpt>
      <trkpt lat="44.51504" lon="1.55739">
        <ele>160.8</ele>
        <time>2021-08-09T10:36:28Z</time>
      </trkpt>
      <trkpt lat="44.51498" lon="1.55743">
        <ele>160.8</ele>
        <time>2021-08-09T10:36:29Z</time>
      </trkpt>
      <trkpt lat="44.51489" lon="1.55751">
        <ele>160.7</ele>
        <time>2021-08-09T10:36:31Z</time>
      </trkpt>
      <trkpt lat="44.51485" lon="1.55755">
        <ele>160.7</ele>
        <time>2021-08-09T10:36:32Z</time>
      </trkpt>
      <trkpt lat="44.51477" lon="1.55763">
        <ele>160.6</ele>
        <time>2021-08-09T10:36:34Z</time>
      </trkpt>
      <trkpt lat="44.51473" lon="1.55768">
        <ele>160.6</ele>
        <time>2021-08-09T10:36:35Z</time>
      </trkpt>
      <trkpt lat="44.51468" lon="1.55774">
        <ele>160.6</ele>
        <time>2021-08-09T10:36:36Z</time>
      </trkpt>
      <trkpt lat="44.51462" lon="1.55789">
        <ele>160.7</ele>
        <time>2021-08-09T10:36:38Z</time>
      </trkpt>
      <trkpt lat="44.51458" lon="1.55804">
        <ele>160.9</ele>
        <time>2021-08-09T10:36:40Z</time>
      </trkpt>
      <trkpt lat="44.51456" lon="1.5582">
        <ele>161.2</ele>
        <time>2021-08-09T10:36:42Z</time>
      </trkpt>
      <trkpt lat="44.51453" lon="1.55835">
        <ele>161.4</ele>
        <time>2021-08-09T10:36:44Z</time>
      </trkpt>
      <trkpt lat="44.51449" lon="1.5585">
        <ele>161.5</ele>
        <time>2021-08-09T10:36:46Z</time>
      </trkpt>
      <trkpt lat="44.51447" lon="1.55864">
        <ele>161.8</ele>
        <time>2021-08-09T10:36:48Z</time>
      </trkpt>
      <trkpt lat="44.51445" lon="1.55877">
        <ele>162</ele>
        <time>2021-08-09T10:36:50Z</time>
      </trkpt>
      <trkpt lat="44.51441" lon="1.55885">
        <ele>162.1</ele>
        <time>2021-08-09T10:36:52Z</time>
      </trkpt>
      <trkpt lat="44.51438" lon="1.55888">
        <ele>162.2</ele>
        <time>2021-08-09T10:36:53Z</time>
      </trkpt>
      <trkpt lat="44.51434" lon="1.5589">
        <ele>162.3</ele>
        <time>2021-08-09T10:36:54Z</time>
      </trkpt>
      <trkpt lat="44.51427" lon="1.55891">
        <ele>162.5</ele>
        <time>2021-08-09T10:36:56Z</time>
      </trkpt>
      <trkpt lat="44.51421" lon="1.55892">
        <ele>162.6</ele>
        <time>2021-08-09T10:36:58Z</time>
      </trkpt>
      <trkpt lat="44.51417" lon="1.55891">
        <ele>162.8</ele>
        <time>2021-08-09T10:36:59Z</time>
      </trkpt>
      <trkpt lat="44.51415" lon="1.55888">
        <ele>162.9</ele>
        <time>2021-08-09T10:37:00Z</time>
      </trkpt>
      <trkpt lat="44.51411" lon="1.55881">
        <ele>163.2</ele>
        <time>2021-08-09T10:37:01Z</time>
      </trkpt>
      <trkpt lat="44.51409" lon="1.55876">
        <ele>163.4</ele>
        <time>2021-08-09T10:37:02Z</time>
      </trkpt>
      <trkpt lat="44.51407" lon="1.5587">
        <ele>163.7</ele>
        <time>2021-08-09T10:37:04Z</time>
      </trkpt>
      <trkpt lat="44.51407" lon="1.55869">
        <ele>163.8</ele>
        <time>2021-08-09T10:37:05Z</time>
      </trkpt>
      <trkpt lat="44.51406" lon="1.55867">
        <ele>163.9</ele>
        <time>2021-08-09T10:37:06Z</time>
      </trkpt>
      <trkpt lat="44.51406" lon="1.55864">
        <ele>163.9</ele>
        <time>2021-08-09T10:37:08Z</time>
      </trkpt>
      <trkpt lat="44.51406" lon="1.55863">
        <ele>163.9</ele>
        <time>2021-08-09T10:37:10Z</time>
      </trkpt>
      <trkpt lat="44.51405" lon="1.55862">
        <ele>163.9</ele>
        <time>2021-08-09T10:37:11Z</time>
      </trkpt>
      <trkpt lat="44.51405" lon="1.55856">
        <ele>163.9</ele>
        <time>2021-08-09T10:37:13Z</time>
      </trkpt>
      <trkpt lat="44.51404" lon="1.55853">
        <ele>163.8</ele>
        <time>2021-08-09T10:37:14Z</time>
      </trkpt>
      <trkpt lat="44.51406" lon="1.55844">
        <ele>163.6</ele>
        <time>2021-08-09T10:37:16Z</time>
      </trkpt>
      <trkpt lat="44.51408" lon="1.55838">
        <ele>163.4</ele>
        <time>2021-08-09T10:37:17Z</time>
      </trkpt>
      <trkpt lat="44.51409" lon="1.55827">
        <ele>163.1</ele>
        <time>2021-08-09T10:37:19Z</time>
      </trkpt>
      <trkpt lat="44.51411" lon="1.55808">
        <ele>162.6</ele>
        <time>2021-08-09T10:37:20Z</time>
      </trkpt>
      <trkpt lat="44.51411" lon="1.55791">
        <ele>162.3</ele>
        <time>2021-08-09T10:37:22Z</time>
      </trkpt>
      <trkpt lat="44.51408" lon="1.55776">
        <ele>162.1</ele>
        <time>2021-08-09T10:37:24Z</time>
      </trkpt>
      <trkpt lat="44.51403" lon="1.55763">
        <ele>161.9</ele>
        <time>2021-08-09T10:37:26Z</time>
      </trkpt>
      <trkpt lat="44.51398" lon="1.55755">
        <ele>161.8</ele>
        <time>2021-08-09T10:37:28Z</time>
      </trkpt>
      <trkpt lat="44.51392" lon="1.5575">
        <ele>161.7</ele>
        <time>2021-08-09T10:37:30Z</time>
      </trkpt>
      <trkpt lat="44.51383" lon="1.55748">
        <ele>161.7</ele>
        <time>2021-08-09T10:37:31Z</time>
      </trkpt>
      <trkpt lat="44.51376" lon="1.55748">
        <ele>161.7</ele>
        <time>2021-08-09T10:37:33Z</time>
      </trkpt>
      <trkpt lat="44.5137" lon="1.55749">
        <ele>161.8</ele>
        <time>2021-08-09T10:37:34Z</time>
      </trkpt>
      <trkpt lat="44.51364" lon="1.55749">
        <ele>161.8</ele>
        <time>2021-08-09T10:37:35Z</time>
      </trkpt>
      <trkpt lat="44.51358" lon="1.55749">
        <ele>161.9</ele>
        <time>2021-08-09T10:37:36Z</time>
      </trkpt>
      <trkpt lat="44.51353" lon="1.55749">
        <ele>162</ele>
        <time>2021-08-09T10:37:37Z</time>
      </trkpt>
      <trkpt lat="44.51347" lon="1.55748">
        <ele>162.1</ele>
        <time>2021-08-09T10:37:38Z</time>
      </trkpt>
      <trkpt lat="44.51342" lon="1.55748">
        <ele>162.2</ele>
        <time>2021-08-09T10:37:39Z</time>
      </trkpt>
      <trkpt lat="44.51337" lon="1.55747">
        <ele>162.3</ele>
        <time>2021-08-09T10:37:41Z</time>
      </trkpt>
      <trkpt lat="44.51332" lon="1.55746">
        <ele>162.3</ele>
        <time>2021-08-09T10:37:42Z</time>
      </trkpt>
      <trkpt lat="44.51328" lon="1.55745">
        <ele>162.4</ele>
        <time>2021-08-09T10:37:43Z</time>
      </trkpt>
      <trkpt lat="44.51324" lon="1.55744">
        <ele>162.4</ele>
        <time>2021-08-09T10:37:44Z</time>
      </trkpt>
      <trkpt lat="44.51318" lon="1.55743">
        <ele>162.3</ele>
        <time>2021-08-09T10:37:46Z</time>
      </trkpt>
      <trkpt lat="44.51314" lon="1.55743">
        <ele>162.3</ele>
        <time>2021-08-09T10:37:47Z</time>
      </trkpt>
      <trkpt lat="44.5131" lon="1.55742">
        <ele>162.2</ele>
        <time>2021-08-09T10:37:48Z</time>
      </trkpt>
      <trkpt lat="44.51306" lon="1.55742">
        <ele>162.1</ele>
        <time>2021-08-09T10:37:49Z</time>
      </trkpt>
      <trkpt lat="44.51302" lon="1.55743">
        <ele>162</ele>
        <time>2021-08-09T10:37:50Z</time>
      </trkpt>
      <trkpt lat="44.51298" lon="1.55743">
        <ele>161.9</ele>
        <time>2021-08-09T10:37:51Z</time>
      </trkpt>
      <trkpt lat="44.51293" lon="1.55744">
        <ele>161.8</ele>
        <time>2021-08-09T10:37:52Z</time>
      </trkpt>
      <trkpt lat="44.51287" lon="1.55745">
        <ele>161.7</ele>
        <time>2021-08-09T10:37:53Z</time>
      </trkpt>
      <trkpt lat="44.51281" lon="1.55745">
        <ele>161.7</ele>
        <time>2021-08-09T10:37:55Z</time>
      </trkpt>
      <trkpt lat="44.51275" lon="1.55745">
        <ele>161.7</ele>
        <time>2021-08-09T10:37:56Z</time>
      </trkpt>
      <trkpt lat="44.5127" lon="1.55744">
        <ele>161.7</ele>
        <time>2021-08-09T10:37:57Z</time>
      </trkpt>
      <trkpt lat="44.51265" lon="1.55743">
        <ele>161.6</ele>
        <time>2021-08-09T10:37:58Z</time>
      </trkpt>
      <trkpt lat="44.51259" lon="1.55742">
        <ele>161.6</ele>
        <time>2021-08-09T10:38:00Z</time>
      </trkpt>
      <trkpt lat="44.51255" lon="1.55742">
        <ele>161.6</ele>
        <time>2021-08-09T10:38:01Z</time>
      </trkpt>
      <trkpt lat="44.51252" lon="1.55742">
        <ele>161.5</ele>
        <time>2021-08-09T10:38:02Z</time>
      </trkpt>
      <trkpt lat="44.51245" lon="1.55743">
        <ele>161.5</ele>
        <time>2021-08-09T10:38:04Z</time>
      </trkpt>
      <trkpt lat="44.51241" lon="1.55745">
        <ele>161.5</ele>
        <time>2021-08-09T10:38:05Z</time>
      </trkpt>
      <trkpt lat="44.51237" lon="1.55747">
        <ele>161.4</ele>
        <time>2021-08-09T10:38:06Z</time>
      </trkpt>
      <trkpt lat="44.51231" lon="1.55749">
        <ele>161.4</ele>
        <time>2021-08-09T10:38:08Z</time>
      </trkpt>
      <trkpt lat="44.51227" lon="1.55753">
        <ele>161.4</ele>
        <time>2021-08-09T10:38:09Z</time>
      </trkpt>
      <trkpt lat="44.5122" lon="1.55755">
        <ele>161.5</ele>
        <time>2021-08-09T10:38:11Z</time>
      </trkpt>
      <trkpt lat="44.51215" lon="1.55757">
        <ele>161.5</ele>
        <time>2021-08-09T10:38:12Z</time>
      </trkpt>
      <trkpt lat="44.51211" lon="1.5576">
        <ele>161.6</ele>
        <time>2021-08-09T10:38:13Z</time>
      </trkpt>
      <trkpt lat="44.51207" lon="1.55761">
        <ele>161.7</ele>
        <time>2021-08-09T10:38:14Z</time>
      </trkpt>
      <trkpt lat="44.51203" lon="1.55762">
        <ele>161.8</ele>
        <time>2021-08-09T10:38:15Z</time>
      </trkpt>
      <trkpt lat="44.51199" lon="1.55762">
        <ele>161.8</ele>
        <time>2021-08-09T10:38:16Z</time>
      </trkpt>
      <trkpt lat="44.51196" lon="1.55763">
        <ele>161.9</ele>
        <time>2021-08-09T10:38:17Z</time>
      </trkpt>
      <trkpt lat="44.51192" lon="1.55763">
        <ele>161.9</ele>
        <time>2021-08-09T10:38:19Z</time>
      </trkpt>
      <trkpt lat="44.51188" lon="1.55764">
        <ele>161.9</ele>
        <time>2021-08-09T10:38:20Z</time>
      </trkpt>
      <trkpt lat="44.51184" lon="1.55764">
        <ele>161.8</ele>
        <time>2021-08-09T10:38:21Z</time>
      </trkpt>
      <trkpt lat="44.51179" lon="1.55764">
        <ele>161.7</ele>
        <time>2021-08-09T10:38:23Z</time>
      </trkpt>
      <trkpt lat="44.51176" lon="1.55764">
        <ele>161.6</ele>
        <time>2021-08-09T10:38:24Z</time>
      </trkpt>
      <trkpt lat="44.51171" lon="1.55763">
        <ele>161.4</ele>
        <time>2021-08-09T10:38:25Z</time>
      </trkpt>
      <trkpt lat="44.51167" lon="1.55764">
        <ele>161.2</ele>
        <time>2021-08-09T10:38:26Z</time>
      </trkpt>
      <trkpt lat="44.51155" lon="1.55765">
        <ele>160.9</ele>
        <time>2021-08-09T10:38:28Z</time>
      </trkpt>
      <trkpt lat="44.51149" lon="1.55766">
        <ele>160.7</ele>
        <time>2021-08-09T10:38:29Z</time>
      </trkpt>
      <trkpt lat="44.51141" lon="1.55766">
        <ele>160.6</ele>
        <time>2021-08-09T10:38:31Z</time>
      </trkpt>
      <trkpt lat="44.51137" lon="1.55767">
        <ele>160.6</ele>
        <time>2021-08-09T10:38:32Z</time>
      </trkpt>
      <trkpt lat="44.51133" lon="1.55769">
        <ele>160.5</ele>
        <time>2021-08-09T10:38:34Z</time>
      </trkpt>
      <trkpt lat="44.51129" lon="1.55769">
        <ele>160.5</ele>
        <time>2021-08-09T10:38:35Z</time>
      </trkpt>
      <trkpt lat="44.51124" lon="1.5577">
        <ele>160.4</ele>
        <time>2021-08-09T10:38:36Z</time>
      </trkpt>
      <trkpt lat="44.51117" lon="1.55771">
        <ele>160.4</ele>
        <time>2021-08-09T10:38:38Z</time>
      </trkpt>
      <trkpt lat="44.51113" lon="1.55771">
        <ele>160.5</ele>
        <time>2021-08-09T10:38:39Z</time>
      </trkpt>
      <trkpt lat="44.51109" lon="1.55772">
        <ele>160.5</ele>
        <time>2021-08-09T10:38:40Z</time>
      </trkpt>
      <trkpt lat="44.51104" lon="1.55772">
        <ele>160.5</ele>
        <time>2021-08-09T10:38:41Z</time>
      </trkpt>
      <trkpt lat="44.511" lon="1.55772">
        <ele>160.5</ele>
        <time>2021-08-09T10:38:42Z</time>
      </trkpt>
      <trkpt lat="44.51095" lon="1.55773">
        <ele>160.6</ele>
        <time>2021-08-09T10:38:43Z</time>
      </trkpt>
      <trkpt lat="44.5109" lon="1.55774">
        <ele>160.6</ele>
        <time>2021-08-09T10:38:44Z</time>
      </trkpt>
      <trkpt lat="44.51084" lon="1.55775">
        <ele>160.7</ele>
        <time>2021-08-09T10:38:45Z</time>
      </trkpt>
      <trkpt lat="44.51078" lon="1.55777">
        <ele>160.7</ele>
        <time>2021-08-09T10:38:47Z</time>
      </trkpt>
      <trkpt lat="44.51074" lon="1.55778">
        <ele>160.8</ele>
        <time>2021-08-09T10:38:48Z</time>
      </trkpt>
      <trkpt lat="44.51067" lon="1.55778">
        <ele>160.9</ele>
        <time>2021-08-09T10:38:49Z</time>
      </trkpt>
      <trkpt lat="44.51062" lon="1.55779">
        <ele>161</ele>
        <time>2021-08-09T10:38:50Z</time>
      </trkpt>
      <trkpt lat="44.51057" lon="1.55779">
        <ele>161.1</ele>
        <time>2021-08-09T10:38:51Z</time>
      </trkpt>
      <trkpt lat="44.51052" lon="1.55779">
        <ele>161.2</ele>
        <time>2021-08-09T10:38:53Z</time>
      </trkpt>
      <trkpt lat="44.51048" lon="1.5578">
        <ele>161.4</ele>
        <time>2021-08-09T10:38:54Z</time>
      </trkpt>
      <trkpt lat="44.51044" lon="1.55781">
        <ele>161.5</ele>
        <time>2021-08-09T10:38:55Z</time>
      </trkpt>
      <trkpt lat="44.5104" lon="1.55781">
        <ele>161.6</ele>
        <time>2021-08-09T10:38:56Z</time>
      </trkpt>
      <trkpt lat="44.51036" lon="1.55781">
        <ele>161.6</ele>
        <time>2021-08-09T10:38:57Z</time>
      </trkpt>
      <trkpt lat="44.51032" lon="1.55781">
        <ele>161.7</ele>
        <time>2021-08-09T10:38:59Z</time>
      </trkpt>
      <trkpt lat="44.51029" lon="1.55782">
        <ele>161.7</ele>
        <time>2021-08-09T10:39:00Z</time>
      </trkpt>
      <trkpt lat="44.51026" lon="1.55783">
        <ele>161.7</ele>
        <time>2021-08-09T10:39:01Z</time>
      </trkpt>
      <trkpt lat="44.51024" lon="1.55783">
        <ele>161.7</ele>
        <time>2021-08-09T10:39:02Z</time>
      </trkpt>
      <trkpt lat="44.5102" lon="1.55782">
        <ele>161.7</ele>
        <time>2021-08-09T10:39:04Z</time>
      </trkpt>
      <trkpt lat="44.51017" lon="1.55782">
        <ele>161.7</ele>
        <time>2021-08-09T10:39:05Z</time>
      </trkpt>
      <trkpt lat="44.51013" lon="1.55781">
        <ele>161.6</ele>
        <time>2021-08-09T10:39:06Z</time>
      </trkpt>
      <trkpt lat="44.5101" lon="1.5578">
        <ele>161.5</ele>
        <time>2021-08-09T10:39:07Z</time>
      </trkpt>
      <trkpt lat="44.51006" lon="1.5578">
        <ele>161.4</ele>
        <time>2021-08-09T10:39:08Z</time>
      </trkpt>
      <trkpt lat="44.50993" lon="1.55776">
        <ele>160.9</ele>
        <time>2021-08-09T10:39:10Z</time>
      </trkpt>
      <trkpt lat="44.50987" lon="1.55774">
        <ele>160.6</ele>
        <time>2021-08-09T10:39:11Z</time>
      </trkpt>
      <trkpt lat="44.50982" lon="1.55772">
        <ele>160.5</ele>
        <time>2021-08-09T10:39:12Z</time>
      </trkpt>
      <trkpt lat="44.50976" lon="1.55771">
        <ele>160.3</ele>
        <time>2021-08-09T10:39:13Z</time>
      </trkpt>
      <trkpt lat="44.50969" lon="1.55771">
        <ele>160.2</ele>
        <time>2021-08-09T10:39:14Z</time>
      </trkpt>
      <trkpt lat="44.50957" lon="1.55769">
        <ele>160.2</ele>
        <time>2021-08-09T10:39:16Z</time>
      </trkpt>
      <trkpt lat="44.50951" lon="1.55768">
        <ele>160.3</ele>
        <time>2021-08-09T10:39:17Z</time>
      </trkpt>
      <trkpt lat="44.50942" lon="1.55765">
        <ele>160.4</ele>
        <time>2021-08-09T10:39:19Z</time>
      </trkpt>
      <trkpt lat="44.50938" lon="1.55764">
        <ele>160.3</ele>
        <time>2021-08-09T10:39:20Z</time>
      </trkpt>
      <trkpt lat="44.50932" lon="1.55761">
        <ele>160.2</ele>
        <time>2021-08-09T10:39:21Z</time>
      </trkpt>
      <trkpt lat="44.50928" lon="1.55759">
        <ele>160.1</ele>
        <time>2021-08-09T10:39:23Z</time>
      </trkpt>
      <trkpt lat="44.50922" lon="1.55758">
        <ele>159.9</ele>
        <time>2021-08-09T10:39:24Z</time>
      </trkpt>
      <trkpt lat="44.50915" lon="1.55756">
        <ele>159.6</ele>
        <time>2021-08-09T10:39:26Z</time>
      </trkpt>
      <trkpt lat="44.50911" lon="1.55755">
        <ele>159.5</ele>
        <time>2021-08-09T10:39:27Z</time>
      </trkpt>
      <trkpt lat="44.50903" lon="1.55753">
        <ele>159.2</ele>
        <time>2021-08-09T10:39:28Z</time>
      </trkpt>
      <trkpt lat="44.50898" lon="1.55752">
        <ele>159</ele>
        <time>2021-08-09T10:39:29Z</time>
      </trkpt>
      <trkpt lat="44.50889" lon="1.5575">
        <ele>158.6</ele>
        <time>2021-08-09T10:39:30Z</time>
      </trkpt>
      <trkpt lat="44.50882" lon="1.55748">
        <ele>158.4</ele>
        <time>2021-08-09T10:39:32Z</time>
      </trkpt>
      <trkpt lat="44.50874" lon="1.55746">
        <ele>158.1</ele>
        <time>2021-08-09T10:39:34Z</time>
      </trkpt>
      <trkpt lat="44.50867" lon="1.55743">
        <ele>157.9</ele>
        <time>2021-08-09T10:39:35Z</time>
      </trkpt>
      <trkpt lat="44.50857" lon="1.55736">
        <ele>157.8</ele>
        <time>2021-08-09T10:39:37Z</time>
      </trkpt>
      <trkpt lat="44.50854" lon="1.55733">
        <ele>157.8</ele>
        <time>2021-08-09T10:39:38Z</time>
      </trkpt>
      <trkpt lat="44.50849" lon="1.55729">
        <ele>157.8</ele>
        <time>2021-08-09T10:39:39Z</time>
      </trkpt>
      <trkpt lat="44.50844" lon="1.55726">
        <ele>157.8</ele>
        <time>2021-08-09T10:39:41Z</time>
      </trkpt>
      <trkpt lat="44.5084" lon="1.55723">
        <ele>157.7</ele>
        <time>2021-08-09T10:39:42Z</time>
      </trkpt>
      <trkpt lat="44.50833" lon="1.55719">
        <ele>157.7</ele>
        <time>2021-08-09T10:39:43Z</time>
      </trkpt>
      <trkpt lat="44.50829" lon="1.55716">
        <ele>157.7</ele>
        <time>2021-08-09T10:39:44Z</time>
      </trkpt>
      <trkpt lat="44.50822" lon="1.55712">
        <ele>157.6</ele>
        <time>2021-08-09T10:39:46Z</time>
      </trkpt>
      <trkpt lat="44.50818" lon="1.55709">
        <ele>157.6</ele>
        <time>2021-08-09T10:39:47Z</time>
      </trkpt>
      <trkpt lat="44.50812" lon="1.55705">
        <ele>157.5</ele>
        <time>2021-08-09T10:39:48Z</time>
      </trkpt>
      <trkpt lat="44.50807" lon="1.55703">
        <ele>157.3</ele>
        <time>2021-08-09T10:39:49Z</time>
      </trkpt>
      <trkpt lat="44.50802" lon="1.55701">
        <ele>157.2</ele>
        <time>2021-08-09T10:39:51Z</time>
      </trkpt>
      <trkpt lat="44.50797" lon="1.55697">
        <ele>157</ele>
        <time>2021-08-09T10:39:52Z</time>
      </trkpt>
      <trkpt lat="44.50792" lon="1.55694">
        <ele>156.8</ele>
        <time>2021-08-09T10:39:53Z</time>
      </trkpt>
      <trkpt lat="44.50787" lon="1.55691">
        <ele>156.7</ele>
        <time>2021-08-09T10:39:55Z</time>
      </trkpt>
      <trkpt lat="44.50781" lon="1.55686">
        <ele>156.7</ele>
        <time>2021-08-09T10:39:56Z</time>
      </trkpt>
      <trkpt lat="44.50777" lon="1.55681">
        <ele>156.8</ele>
        <time>2021-08-09T10:39:57Z</time>
      </trkpt>
      <trkpt lat="44.50775" lon="1.55678">
        <ele>156.9</ele>
        <time>2021-08-09T10:39:58Z</time>
      </trkpt>
      <trkpt lat="44.50771" lon="1.55673">
        <ele>157</ele>
        <time>2021-08-09T10:40:00Z</time>
      </trkpt>
      <trkpt lat="44.50768" lon="1.5567">
        <ele>157</ele>
        <time>2021-08-09T10:40:01Z</time>
      </trkpt>
      <trkpt lat="44.50766" lon="1.55667">
        <ele>157.1</ele>
        <time>2021-08-09T10:40:02Z</time>
      </trkpt>
      <trkpt lat="44.50762" lon="1.55661">
        <ele>157.1</ele>
        <time>2021-08-09T10:40:04Z</time>
      </trkpt>
      <trkpt lat="44.50759" lon="1.55654">
        <ele>157.1</ele>
        <time>2021-08-09T10:40:05Z</time>
      </trkpt>
      <trkpt lat="44.50755" lon="1.55647">
        <ele>157</ele>
        <time>2021-08-09T10:40:07Z</time>
      </trkpt>
      <trkpt lat="44.5075" lon="1.5564">
        <ele>157</ele>
        <time>2021-08-09T10:40:08Z</time>
      </trkpt>
      <trkpt lat="44.50746" lon="1.55632">
        <ele>156.9</ele>
        <time>2021-08-09T10:40:10Z</time>
      </trkpt>
      <trkpt lat="44.50743" lon="1.55626">
        <ele>156.9</ele>
        <time>2021-08-09T10:40:11Z</time>
      </trkpt>
      <trkpt lat="44.50739" lon="1.55619">
        <ele>156.9</ele>
        <time>2021-08-09T10:40:12Z</time>
      </trkpt>
      <trkpt lat="44.50735" lon="1.55614">
        <ele>156.9</ele>
        <time>2021-08-09T10:40:13Z</time>
      </trkpt>
      <trkpt lat="44.50732" lon="1.5561">
        <ele>157</ele>
        <time>2021-08-09T10:40:14Z</time>
      </trkpt>
      <trkpt lat="44.50729" lon="1.55605">
        <ele>157.1</ele>
        <time>2021-08-09T10:40:16Z</time>
      </trkpt>
      <trkpt lat="44.50727" lon="1.556">
        <ele>157.3</ele>
        <time>2021-08-09T10:40:17Z</time>
      </trkpt>
      <trkpt lat="44.50724" lon="1.55595">
        <ele>157.4</ele>
        <time>2021-08-09T10:40:18Z</time>
      </trkpt>
      <trkpt lat="44.50722" lon="1.55591">
        <ele>157.5</ele>
        <time>2021-08-09T10:40:20Z</time>
      </trkpt>
      <trkpt lat="44.50718" lon="1.55587">
        <ele>157.6</ele>
        <time>2021-08-09T10:40:21Z</time>
      </trkpt>
      <trkpt lat="44.50715" lon="1.55582">
        <ele>157.6</ele>
        <time>2021-08-09T10:40:22Z</time>
      </trkpt>
      <trkpt lat="44.50711" lon="1.55576">
        <ele>157.7</ele>
        <time>2021-08-09T10:40:24Z</time>
      </trkpt>
      <trkpt lat="44.50708" lon="1.55571">
        <ele>157.7</ele>
        <time>2021-08-09T10:40:25Z</time>
      </trkpt>
      <trkpt lat="44.50705" lon="1.55567">
        <ele>157.6</ele>
        <time>2021-08-09T10:40:26Z</time>
      </trkpt>
      <trkpt lat="44.50701" lon="1.55561">
        <ele>157.5</ele>
        <time>2021-08-09T10:40:28Z</time>
      </trkpt>
      <trkpt lat="44.50699" lon="1.55557">
        <ele>157.3</ele>
        <time>2021-08-09T10:40:29Z</time>
      </trkpt>
      <trkpt lat="44.50695" lon="1.55552">
        <ele>157.1</ele>
        <time>2021-08-09T10:40:30Z</time>
      </trkpt>
      <trkpt lat="44.50691" lon="1.55546">
        <ele>156.7</ele>
        <time>2021-08-09T10:40:32Z</time>
      </trkpt>
      <trkpt lat="44.50682" lon="1.55538">
        <ele>156.1</ele>
        <time>2021-08-09T10:40:33Z</time>
      </trkpt>
      <trkpt lat="44.50671" lon="1.55528">
        <ele>155.7</ele>
        <time>2021-08-09T10:40:35Z</time>
      </trkpt>
      <trkpt lat="44.5066" lon="1.55522">
        <ele>155.5</ele>
        <time>2021-08-09T10:40:37Z</time>
      </trkpt>
      <trkpt lat="44.50655" lon="1.55519">
        <ele>155.4</ele>
        <time>2021-08-09T10:40:38Z</time>
      </trkpt>
      <trkpt lat="44.50646" lon="1.55514">
        <ele>155.3</ele>
        <time>2021-08-09T10:40:40Z</time>
      </trkpt>
      <trkpt lat="44.50643" lon="1.55512">
        <ele>155.3</ele>
        <time>2021-08-09T10:40:41Z</time>
      </trkpt>
      <trkpt lat="44.50637" lon="1.55508">
        <ele>155.2</ele>
        <time>2021-08-09T10:40:42Z</time>
      </trkpt>
      <trkpt lat="44.50629" lon="1.55501">
        <ele>155</ele>
        <time>2021-08-09T10:40:44Z</time>
      </trkpt>
      <trkpt lat="44.5062" lon="1.55496">
        <ele>154.8</ele>
        <time>2021-08-09T10:40:46Z</time>
      </trkpt>
      <trkpt lat="44.50615" lon="1.55494">
        <ele>154.7</ele>
        <time>2021-08-09T10:40:47Z</time>
      </trkpt>
      <trkpt lat="44.50611" lon="1.55492">
        <ele>154.6</ele>
        <time>2021-08-09T10:40:48Z</time>
      </trkpt>
      <trkpt lat="44.50602" lon="1.5549">
        <ele>154.6</ele>
        <time>2021-08-09T10:40:50Z</time>
      </trkpt>
      <trkpt lat="44.50592" lon="1.55487">
        <ele>154.5</ele>
        <time>2021-08-09T10:40:52Z</time>
      </trkpt>
      <trkpt lat="44.50582" lon="1.55484">
        <ele>154.5</ele>
        <time>2021-08-09T10:40:54Z</time>
      </trkpt>
      <trkpt lat="44.50577" lon="1.55483">
        <ele>154.4</ele>
        <time>2021-08-09T10:40:55Z</time>
      </trkpt>
      <trkpt lat="44.50574" lon="1.55482">
        <ele>154.4</ele>
        <time>2021-08-09T10:40:56Z</time>
      </trkpt>
      <trkpt lat="44.50568" lon="1.5548">
        <ele>154.4</ele>
        <time>2021-08-09T10:40:57Z</time>
      </trkpt>
      <trkpt lat="44.50563" lon="1.5548">
        <ele>154.3</ele>
        <time>2021-08-09T10:40:58Z</time>
      </trkpt>
      <trkpt lat="44.50554" lon="1.5548">
        <ele>154.2</ele>
        <time>2021-08-09T10:41:00Z</time>
      </trkpt>
      <trkpt lat="44.5055" lon="1.55478">
        <ele>154.2</ele>
        <time>2021-08-09T10:41:01Z</time>
      </trkpt>
      <trkpt lat="44.50546" lon="1.55478">
        <ele>154.1</ele>
        <time>2021-08-09T10:41:03Z</time>
      </trkpt>
      <trkpt lat="44.50542" lon="1.5548">
        <ele>154</ele>
        <time>2021-08-09T10:41:04Z</time>
      </trkpt>
      <trkpt lat="44.50537" lon="1.55482">
        <ele>153.9</ele>
        <time>2021-08-09T10:41:05Z</time>
      </trkpt>
      <trkpt lat="44.50532" lon="1.55483">
        <ele>153.8</ele>
        <time>2021-08-09T10:41:06Z</time>
      </trkpt>
      <trkpt lat="44.50528" lon="1.55486">
        <ele>153.7</ele>
        <time>2021-08-09T10:41:07Z</time>
      </trkpt>
      <trkpt lat="44.50524" lon="1.5549">
        <ele>153.6</ele>
        <time>2021-08-09T10:41:08Z</time>
      </trkpt>
      <trkpt lat="44.5052" lon="1.55496">
        <ele>153.6</ele>
        <time>2021-08-09T10:41:10Z</time>
      </trkpt>
      <trkpt lat="44.50517" lon="1.55503">
        <ele>153.5</ele>
        <time>2021-08-09T10:41:11Z</time>
      </trkpt>
      <trkpt lat="44.50515" lon="1.55509">
        <ele>153.4</ele>
        <time>2021-08-09T10:41:12Z</time>
      </trkpt>
      <trkpt lat="44.50512" lon="1.55518">
        <ele>153.4</ele>
        <time>2021-08-09T10:41:13Z</time>
      </trkpt>
      <trkpt lat="44.50509" lon="1.55526">
        <ele>153.3</ele>
        <time>2021-08-09T10:41:14Z</time>
      </trkpt>
      <trkpt lat="44.50504" lon="1.55539">
        <ele>153.2</ele>
        <time>2021-08-09T10:41:16Z</time>
      </trkpt>
      <trkpt lat="44.50501" lon="1.55542">
        <ele>153.2</ele>
        <time>2021-08-09T10:41:18Z</time>
      </trkpt>
      <trkpt lat="44.50497" lon="1.5555">
        <ele>153.2</ele>
        <time>2021-08-09T10:41:19Z</time>
      </trkpt>
      <trkpt lat="44.50493" lon="1.55559">
        <ele>153.3</ele>
        <time>2021-08-09T10:41:21Z</time>
      </trkpt>
      <trkpt lat="44.50489" lon="1.55566">
        <ele>153.3</ele>
        <time>2021-08-09T10:41:22Z</time>
      </trkpt>
      <trkpt lat="44.50486" lon="1.55572">
        <ele>153.4</ele>
        <time>2021-08-09T10:41:23Z</time>
      </trkpt>
      <trkpt lat="44.50483" lon="1.55578">
        <ele>153.5</ele>
        <time>2021-08-09T10:41:24Z</time>
      </trkpt>
      <trkpt lat="44.5048" lon="1.55582">
        <ele>153.6</ele>
        <time>2021-08-09T10:41:26Z</time>
      </trkpt>
      <trkpt lat="44.50477" lon="1.55586">
        <ele>153.6</ele>
        <time>2021-08-09T10:41:27Z</time>
      </trkpt>
      <trkpt lat="44.50474" lon="1.5559">
        <ele>153.7</ele>
        <time>2021-08-09T10:41:28Z</time>
      </trkpt>
      <trkpt lat="44.50471" lon="1.55594">
        <ele>153.8</ele>
        <time>2021-08-09T10:41:29Z</time>
      </trkpt>
      <trkpt lat="44.50469" lon="1.55597">
        <ele>153.8</ele>
        <time>2021-08-09T10:41:30Z</time>
      </trkpt>
      <trkpt lat="44.50467" lon="1.55599">
        <ele>153.8</ele>
        <time>2021-08-09T10:41:31Z</time>
      </trkpt>
      <trkpt lat="44.50464" lon="1.55603">
        <ele>153.9</ele>
        <time>2021-08-09T10:41:33Z</time>
      </trkpt>
      <trkpt lat="44.50462" lon="1.55606">
        <ele>153.9</ele>
        <time>2021-08-09T10:41:34Z</time>
      </trkpt>
      <trkpt lat="44.50459" lon="1.5561">
        <ele>153.9</ele>
        <time>2021-08-09T10:41:35Z</time>
      </trkpt>
      <trkpt lat="44.50455" lon="1.55614">
        <ele>153.9</ele>
        <time>2021-08-09T10:41:36Z</time>
      </trkpt>
      <trkpt lat="44.50451" lon="1.55619">
        <ele>153.8</ele>
        <time>2021-08-09T10:41:38Z</time>
      </trkpt>
      <trkpt lat="44.50446" lon="1.55623">
        <ele>153.7</ele>
        <time>2021-08-09T10:41:39Z</time>
      </trkpt>
      <trkpt lat="44.5044" lon="1.55628">
        <ele>153.5</ele>
        <time>2021-08-09T10:41:41Z</time>
      </trkpt>
      <trkpt lat="44.50435" lon="1.55631">
        <ele>153.3</ele>
        <time>2021-08-09T10:41:42Z</time>
      </trkpt>
      <trkpt lat="44.50428" lon="1.55636">
        <ele>153.1</ele>
        <time>2021-08-09T10:41:43Z</time>
      </trkpt>
      <trkpt lat="44.50423" lon="1.55642">
        <ele>153</ele>
        <time>2021-08-09T10:41:45Z</time>
      </trkpt>
      <trkpt lat="44.50419" lon="1.55644">
        <ele>152.9</ele>
        <time>2021-08-09T10:41:46Z</time>
      </trkpt>
      <trkpt lat="44.50413" lon="1.55646">
        <ele>152.7</ele>
        <time>2021-08-09T10:41:47Z</time>
      </trkpt>
      <trkpt lat="44.50405" lon="1.5565">
        <ele>152.6</ele>
        <time>2021-08-09T10:41:48Z</time>
      </trkpt>
      <trkpt lat="44.50394" lon="1.55656">
        <ele>152.3</ele>
        <time>2021-08-09T10:41:50Z</time>
      </trkpt>
      <trkpt lat="44.50383" lon="1.5566">
        <ele>152.3</ele>
        <time>2021-08-09T10:41:52Z</time>
      </trkpt>
      <trkpt lat="44.50378" lon="1.55663">
        <ele>152.3</ele>
        <time>2021-08-09T10:41:53Z</time>
      </trkpt>
      <trkpt lat="44.50373" lon="1.55666">
        <ele>152.3</ele>
        <time>2021-08-09T10:41:54Z</time>
      </trkpt>
      <trkpt lat="44.50367" lon="1.55672">
        <ele>152.3</ele>
        <time>2021-08-09T10:41:56Z</time>
      </trkpt>
      <trkpt lat="44.50365" lon="1.55678">
        <ele>152.3</ele>
        <time>2021-08-09T10:41:57Z</time>
      </trkpt>
      <trkpt lat="44.50361" lon="1.55681">
        <ele>152.3</ele>
        <time>2021-08-09T10:41:58Z</time>
      </trkpt>
      <trkpt lat="44.50358" lon="1.55682">
        <ele>152.3</ele>
        <time>2021-08-09T10:42:00Z</time>
      </trkpt>
      <trkpt lat="44.50355" lon="1.55682">
        <ele>152.2</ele>
        <time>2021-08-09T10:42:01Z</time>
      </trkpt>
      <trkpt lat="44.50352" lon="1.55683">
        <ele>152.2</ele>
        <time>2021-08-09T10:42:02Z</time>
      </trkpt>
      <trkpt lat="44.50348" lon="1.55686">
        <ele>152.2</ele>
        <time>2021-08-09T10:42:04Z</time>
      </trkpt>
      <trkpt lat="44.50344" lon="1.55687">
        <ele>152.2</ele>
        <time>2021-08-09T10:42:05Z</time>
      </trkpt>
      <trkpt lat="44.50339" lon="1.55687">
        <ele>152.1</ele>
        <time>2021-08-09T10:42:06Z</time>
      </trkpt>
      <trkpt lat="44.50328" lon="1.55687">
        <ele>152</ele>
        <time>2021-08-09T10:42:08Z</time>
      </trkpt>
      <trkpt lat="44.50318" lon="1.55688">
        <ele>151.9</ele>
        <time>2021-08-09T10:42:10Z</time>
      </trkpt>
      <trkpt lat="44.50313" lon="1.55688">
        <ele>151.8</ele>
        <time>2021-08-09T10:42:11Z</time>
      </trkpt>
      <trkpt lat="44.50308" lon="1.55688">
        <ele>151.7</ele>
        <time>2021-08-09T10:42:12Z</time>
      </trkpt>
      <trkpt lat="44.50302" lon="1.55686">
        <ele>151.7</ele>
        <time>2021-08-09T10:42:14Z</time>
      </trkpt>
      <trkpt lat="44.50294" lon="1.55686">
        <ele>151.6</ele>
        <time>2021-08-09T10:42:15Z</time>
      </trkpt>
      <trkpt lat="44.50289" lon="1.55686">
        <ele>151.6</ele>
        <time>2021-08-09T10:42:16Z</time>
      </trkpt>
      <trkpt lat="44.50284" lon="1.55686">
        <ele>151.5</ele>
        <time>2021-08-09T10:42:17Z</time>
      </trkpt>
      <trkpt lat="44.50273" lon="1.55685">
        <ele>151.3</ele>
        <time>2021-08-09T10:42:19Z</time>
      </trkpt>
      <trkpt lat="44.50268" lon="1.55684">
        <ele>151.2</ele>
        <time>2021-08-09T10:42:20Z</time>
      </trkpt>
      <trkpt lat="44.50257" lon="1.55684">
        <ele>151</ele>
        <time>2021-08-09T10:42:22Z</time>
      </trkpt>
      <trkpt lat="44.50252" lon="1.55683">
        <ele>150.9</ele>
        <time>2021-08-09T10:42:23Z</time>
      </trkpt>
      <trkpt lat="44.50242" lon="1.5568">
        <ele>150.7</ele>
        <time>2021-08-09T10:42:25Z</time>
      </trkpt>
      <trkpt lat="44.50237" lon="1.55676">
        <ele>150.6</ele>
        <time>2021-08-09T10:42:26Z</time>
      </trkpt>
      <trkpt lat="44.50228" lon="1.55668">
        <ele>150.3</ele>
        <time>2021-08-09T10:42:28Z</time>
      </trkpt>
      <trkpt lat="44.50219" lon="1.55658">
        <ele>150.1</ele>
        <time>2021-08-09T10:42:30Z</time>
      </trkpt>
      <trkpt lat="44.50215" lon="1.55654">
        <ele>150</ele>
        <time>2021-08-09T10:42:31Z</time>
      </trkpt>
      <trkpt lat="44.5021" lon="1.55649">
        <ele>149.9</ele>
        <time>2021-08-09T10:42:32Z</time>
      </trkpt>
      <trkpt lat="44.50203" lon="1.55639">
        <ele>149.7</ele>
        <time>2021-08-09T10:42:34Z</time>
      </trkpt>
      <trkpt lat="44.50195" lon="1.55631">
        <ele>149.6</ele>
        <time>2021-08-09T10:42:36Z</time>
      </trkpt>
      <trkpt lat="44.50185" lon="1.55628">
        <ele>149.5</ele>
        <time>2021-08-09T10:42:38Z</time>
      </trkpt>
      <trkpt lat="44.50176" lon="1.55627">
        <ele>149.5</ele>
        <time>2021-08-09T10:42:40Z</time>
      </trkpt>
      <trkpt lat="44.50166" lon="1.55628">
        <ele>149.5</ele>
        <time>2021-08-09T10:42:42Z</time>
      </trkpt>
      <trkpt lat="44.50163" lon="1.55629">
        <ele>149.6</ele>
        <time>2021-08-09T10:42:43Z</time>
      </trkpt>
      <trkpt lat="44.50158" lon="1.55629">
        <ele>149.6</ele>
        <time>2021-08-09T10:42:44Z</time>
      </trkpt>
      <trkpt lat="44.50147" lon="1.55631">
        <ele>149.7</ele>
        <time>2021-08-09T10:42:46Z</time>
      </trkpt>
      <trkpt lat="44.50141" lon="1.55632">
        <ele>149.7</ele>
        <time>2021-08-09T10:42:48Z</time>
      </trkpt>
      <trkpt lat="44.50137" lon="1.55634">
        <ele>149.8</ele>
        <time>2021-08-09T10:42:49Z</time>
      </trkpt>
      <trkpt lat="44.50131" lon="1.55639">
        <ele>149.9</ele>
        <time>2021-08-09T10:42:51Z</time>
      </trkpt>
      <trkpt lat="44.50127" lon="1.55643">
        <ele>149.9</ele>
        <time>2021-08-09T10:42:52Z</time>
      </trkpt>
      <trkpt lat="44.50124" lon="1.55647">
        <ele>150</ele>
        <time>2021-08-09T10:42:53Z</time>
      </trkpt>
      <trkpt lat="44.5012" lon="1.55652">
        <ele>150.1</ele>
        <time>2021-08-09T10:42:54Z</time>
      </trkpt>
      <trkpt lat="44.50117" lon="1.55657">
        <ele>150.2</ele>
        <time>2021-08-09T10:42:55Z</time>
      </trkpt>
      <trkpt lat="44.50113" lon="1.55664">
        <ele>150.3</ele>
        <time>2021-08-09T10:42:57Z</time>
      </trkpt>
      <trkpt lat="44.50111" lon="1.55667">
        <ele>150.3</ele>
        <time>2021-08-09T10:42:58Z</time>
      </trkpt>
      <trkpt lat="44.50109" lon="1.55669">
        <ele>150.4</ele>
        <time>2021-08-09T10:42:59Z</time>
      </trkpt>
      <trkpt lat="44.50107" lon="1.55671">
        <ele>150.5</ele>
        <time>2021-08-09T10:43:01Z</time>
      </trkpt>
      <trkpt lat="44.50108" lon="1.55671">
        <ele>150.5</ele>
        <time>2021-08-09T10:43:02Z</time>
      </trkpt>
      <trkpt lat="44.50109" lon="1.5567">
        <ele>150.6</ele>
        <time>2021-08-09T10:43:04Z</time>
      </trkpt>
      <trkpt lat="44.50109" lon="1.5567">
        <ele>150.6</ele>
        <time>2021-08-09T10:43:05Z</time>
      </trkpt>
      <trkpt lat="44.50109" lon="1.5567">
        <ele>150.6</ele>
        <time>2021-08-09T10:43:06Z</time>
      </trkpt>
      <trkpt lat="44.5011" lon="1.5567">
        <ele>150.6</ele>
        <time>2021-08-09T10:43:08Z</time>
      </trkpt>
      <trkpt lat="44.5011" lon="1.5567">
        <ele>150.6</ele>
        <time>2021-08-09T10:43:10Z</time>
      </trkpt>
      <trkpt lat="44.50106" lon="1.55676">
        <ele>150.8</ele>
        <time>2021-08-09T10:43:44Z</time>
      </trkpt>
      <trkpt lat="44.50104" lon="1.5568">
        <ele>150.9</ele>
        <time>2021-08-09T10:43:46Z</time>
      </trkpt>
      <trkpt lat="44.50103" lon="1.55681">
        <ele>151</ele>
        <time>2021-08-09T10:43:47Z</time>
      </trkpt>
      <trkpt lat="44.50103" lon="1.55681">
        <ele>151</ele>
        <time>2021-08-09T10:43:48Z</time>
      </trkpt>
      <trkpt lat="44.50101" lon="1.55684">
        <ele>151.1</ele>
        <time>2021-08-09T10:43:50Z</time>
      </trkpt>
      <trkpt lat="44.501" lon="1.55689">
        <ele>151.3</ele>
        <time>2021-08-09T10:43:51Z</time>
      </trkpt>
      <trkpt lat="44.50097" lon="1.55698">
        <ele>151.4</ele>
        <time>2021-08-09T10:43:53Z</time>
      </trkpt>
      <trkpt lat="44.50095" lon="1.55705">
        <ele>151.5</ele>
        <time>2021-08-09T10:43:55Z</time>
      </trkpt>
      <trkpt lat="44.50094" lon="1.5571">
        <ele>151.6</ele>
        <time>2021-08-09T10:43:56Z</time>
      </trkpt>
      <trkpt lat="44.50093" lon="1.55714">
        <ele>151.6</ele>
        <time>2021-08-09T10:43:57Z</time>
      </trkpt>
      <trkpt lat="44.50091" lon="1.55717">
        <ele>151.6</ele>
        <time>2021-08-09T10:43:58Z</time>
      </trkpt>
      <trkpt lat="44.50089" lon="1.55722">
        <ele>151.5</ele>
        <time>2021-08-09T10:44:00Z</time>
      </trkpt>
      <trkpt lat="44.50087" lon="1.55726">
        <ele>151.5</ele>
        <time>2021-08-09T10:44:01Z</time>
      </trkpt>
      <trkpt lat="44.50085" lon="1.5573">
        <ele>151.4</ele>
        <time>2021-08-09T10:44:02Z</time>
      </trkpt>
      <trkpt lat="44.50083" lon="1.55734">
        <ele>151.3</ele>
        <time>2021-08-09T10:44:03Z</time>
      </trkpt>
      <trkpt lat="44.50079" lon="1.5574">
        <ele>151.1</ele>
        <time>2021-08-09T10:44:04Z</time>
      </trkpt>
      <trkpt lat="44.50076" lon="1.55746">
        <ele>150.9</ele>
        <time>2021-08-09T10:44:06Z</time>
      </trkpt>
      <trkpt lat="44.50073" lon="1.55753">
        <ele>150.7</ele>
        <time>2021-08-09T10:44:07Z</time>
      </trkpt>
      <trkpt lat="44.50071" lon="1.55759">
        <ele>150.4</ele>
        <time>2021-08-09T10:44:08Z</time>
      </trkpt>
      <trkpt lat="44.50067" lon="1.55767">
        <ele>150</ele>
        <time>2021-08-09T10:44:09Z</time>
      </trkpt>
      <trkpt lat="44.5006" lon="1.55778">
        <ele>149.5</ele>
        <time>2021-08-09T10:44:11Z</time>
      </trkpt>
      <trkpt lat="44.50056" lon="1.55783">
        <ele>149.3</ele>
        <time>2021-08-09T10:44:12Z</time>
      </trkpt>
      <trkpt lat="44.50055" lon="1.55788">
        <ele>149.1</ele>
        <time>2021-08-09T10:44:13Z</time>
      </trkpt>
      <trkpt lat="44.50052" lon="1.55792">
        <ele>149</ele>
        <time>2021-08-09T10:44:15Z</time>
      </trkpt>
      <trkpt lat="44.50046" lon="1.55797">
        <ele>149</ele>
        <time>2021-08-09T10:44:16Z</time>
      </trkpt>
      <trkpt lat="44.50043" lon="1.558">
        <ele>149</ele>
        <time>2021-08-09T10:44:17Z</time>
      </trkpt>
      <trkpt lat="44.5004" lon="1.55804">
        <ele>149</ele>
        <time>2021-08-09T10:44:18Z</time>
      </trkpt>
      <trkpt lat="44.50036" lon="1.55807">
        <ele>149</ele>
        <time>2021-08-09T10:44:19Z</time>
      </trkpt>
      <trkpt lat="44.50033" lon="1.5581">
        <ele>149</ele>
        <time>2021-08-09T10:44:20Z</time>
      </trkpt>
      <trkpt lat="44.50029" lon="1.55814">
        <ele>149.1</ele>
        <time>2021-08-09T10:44:22Z</time>
      </trkpt>
      <trkpt lat="44.50027" lon="1.55818">
        <ele>149.1</ele>
        <time>2021-08-09T10:44:23Z</time>
      </trkpt>
      <trkpt lat="44.50024" lon="1.55822">
        <ele>149.1</ele>
        <time>2021-08-09T10:44:24Z</time>
      </trkpt>
      <trkpt lat="44.50022" lon="1.55825">
        <ele>149.1</ele>
        <time>2021-08-09T10:44:25Z</time>
      </trkpt>
      <trkpt lat="44.5002" lon="1.55828">
        <ele>149.1</ele>
        <time>2021-08-09T10:44:26Z</time>
      </trkpt>
      <trkpt lat="44.50016" lon="1.55832">
        <ele>149</ele>
        <time>2021-08-09T10:44:27Z</time>
      </trkpt>
      <trkpt lat="44.50013" lon="1.55836">
        <ele>149</ele>
        <time>2021-08-09T10:44:29Z</time>
      </trkpt>
      <trkpt lat="44.50009" lon="1.55841">
        <ele>148.9</ele>
        <time>2021-08-09T10:44:30Z</time>
      </trkpt>
      <trkpt lat="44.50005" lon="1.55845">
        <ele>148.8</ele>
        <time>2021-08-09T10:44:31Z</time>
      </trkpt>
      <trkpt lat="44.50001" lon="1.55848">
        <ele>148.8</ele>
        <time>2021-08-09T10:44:32Z</time>
      </trkpt>
      <trkpt lat="44.49997" lon="1.55852">
        <ele>148.8</ele>
        <time>2021-08-09T10:44:34Z</time>
      </trkpt>
      <trkpt lat="44.49994" lon="1.55855">
        <ele>148.8</ele>
        <time>2021-08-09T10:44:35Z</time>
      </trkpt>
      <trkpt lat="44.4999" lon="1.55858">
        <ele>148.8</ele>
        <time>2021-08-09T10:44:36Z</time>
      </trkpt>
      <trkpt lat="44.49987" lon="1.5586">
        <ele>148.8</ele>
        <time>2021-08-09T10:44:37Z</time>
      </trkpt>
      <trkpt lat="44.49986" lon="1.55861">
        <ele>148.8</ele>
        <time>2021-08-09T10:44:38Z</time>
      </trkpt>
      <trkpt lat="44.49982" lon="1.55864">
        <ele>148.9</ele>
        <time>2021-08-09T10:44:39Z</time>
      </trkpt>
      <trkpt lat="44.4998" lon="1.55864">
        <ele>148.9</ele>
        <time>2021-08-09T10:44:40Z</time>
      </trkpt>
      <trkpt lat="44.49975" lon="1.55868">
        <ele>148.8</ele>
        <time>2021-08-09T10:44:42Z</time>
      </trkpt>
      <trkpt lat="44.49972" lon="1.55871">
        <ele>148.8</ele>
        <time>2021-08-09T10:44:43Z</time>
      </trkpt>
      <trkpt lat="44.49966" lon="1.55874">
        <ele>148.7</ele>
        <time>2021-08-09T10:44:45Z</time>
      </trkpt>
      <trkpt lat="44.49962" lon="1.55877">
        <ele>148.6</ele>
        <time>2021-08-09T10:44:46Z</time>
      </trkpt>
      <trkpt lat="44.49957" lon="1.55879">
        <ele>148.5</ele>
        <time>2021-08-09T10:44:47Z</time>
      </trkpt>
      <trkpt lat="44.49951" lon="1.55882">
        <ele>148.5</ele>
        <time>2021-08-09T10:44:48Z</time>
      </trkpt>
      <trkpt lat="44.49946" lon="1.55886">
        <ele>148.5</ele>
        <time>2021-08-09T10:44:50Z</time>
      </trkpt>
      <trkpt lat="44.4994" lon="1.55889">
        <ele>148.4</ele>
        <time>2021-08-09T10:44:51Z</time>
      </trkpt>
      <trkpt lat="44.49934" lon="1.55891">
        <ele>148.4</ele>
        <time>2021-08-09T10:44:52Z</time>
      </trkpt>
      <trkpt lat="44.49926" lon="1.55893">
        <ele>148.3</ele>
        <time>2021-08-09T10:44:54Z</time>
      </trkpt>
      <trkpt lat="44.4992" lon="1.55895">
        <ele>148.4</ele>
        <time>2021-08-09T10:44:55Z</time>
      </trkpt>
      <trkpt lat="44.49913" lon="1.55896">
        <ele>148.4</ele>
        <time>2021-08-09T10:44:56Z</time>
      </trkpt>
      <trkpt lat="44.49904" lon="1.55897">
        <ele>148.6</ele>
        <time>2021-08-09T10:44:58Z</time>
      </trkpt>
      <trkpt lat="44.49899" lon="1.55897">
        <ele>148.7</ele>
        <time>2021-08-09T10:44:59Z</time>
      </trkpt>
      <trkpt lat="44.49895" lon="1.55898">
        <ele>148.7</ele>
        <time>2021-08-09T10:45:00Z</time>
      </trkpt>
      <trkpt lat="44.49892" lon="1.55898">
        <ele>148.8</ele>
        <time>2021-08-09T10:45:01Z</time>
      </trkpt>
      <trkpt lat="44.49888" lon="1.55897">
        <ele>148.8</ele>
        <time>2021-08-09T10:45:03Z</time>
      </trkpt>
      <trkpt lat="44.49885" lon="1.55897">
        <ele>148.8</ele>
        <time>2021-08-09T10:45:04Z</time>
      </trkpt>
      <trkpt lat="44.49881" lon="1.55896">
        <ele>148.9</ele>
        <time>2021-08-09T10:45:05Z</time>
      </trkpt>
      <trkpt lat="44.49876" lon="1.55894">
        <ele>148.9</ele>
        <time>2021-08-09T10:45:07Z</time>
      </trkpt>
      <trkpt lat="44.49871" lon="1.55892">
        <ele>148.9</ele>
        <time>2021-08-09T10:45:08Z</time>
      </trkpt>
      <trkpt lat="44.49864" lon="1.55889">
        <ele>148.8</ele>
        <time>2021-08-09T10:45:10Z</time>
      </trkpt>
      <trkpt lat="44.49858" lon="1.55887">
        <ele>148.7</ele>
        <time>2021-08-09T10:45:11Z</time>
      </trkpt>
      <trkpt lat="44.49852" lon="1.55885">
        <ele>148.7</ele>
        <time>2021-08-09T10:45:13Z</time>
      </trkpt>
      <trkpt lat="44.49847" lon="1.55883">
        <ele>148.6</ele>
        <time>2021-08-09T10:45:14Z</time>
      </trkpt>
      <trkpt lat="44.49842" lon="1.55881">
        <ele>148.5</ele>
        <time>2021-08-09T10:45:15Z</time>
      </trkpt>
      <trkpt lat="44.49836" lon="1.5588">
        <ele>148.5</ele>
        <time>2021-08-09T10:45:17Z</time>
      </trkpt>
      <trkpt lat="44.49831" lon="1.55879">
        <ele>148.4</ele>
        <time>2021-08-09T10:45:18Z</time>
      </trkpt>
      <trkpt lat="44.49826" lon="1.55876">
        <ele>148.3</ele>
        <time>2021-08-09T10:45:19Z</time>
      </trkpt>
      <trkpt lat="44.49822" lon="1.55874">
        <ele>148.2</ele>
        <time>2021-08-09T10:45:20Z</time>
      </trkpt>
      <trkpt lat="44.49818" lon="1.55871">
        <ele>148</ele>
        <time>2021-08-09T10:45:22Z</time>
      </trkpt>
      <trkpt lat="44.49814" lon="1.55868">
        <ele>147.9</ele>
        <time>2021-08-09T10:45:23Z</time>
      </trkpt>
      <trkpt lat="44.49811" lon="1.55866">
        <ele>147.8</ele>
        <time>2021-08-09T10:45:24Z</time>
      </trkpt>
      <trkpt lat="44.49807" lon="1.55862">
        <ele>147.7</ele>
        <time>2021-08-09T10:45:25Z</time>
      </trkpt>
      <trkpt lat="44.49804" lon="1.55859">
        <ele>147.6</ele>
        <time>2021-08-09T10:45:26Z</time>
      </trkpt>
      <trkpt lat="44.498" lon="1.55854">
        <ele>147.5</ele>
        <time>2021-08-09T10:45:28Z</time>
      </trkpt>
      <trkpt lat="44.49796" lon="1.55851">
        <ele>147.4</ele>
        <time>2021-08-09T10:45:29Z</time>
      </trkpt>
      <trkpt lat="44.49792" lon="1.55847">
        <ele>147.3</ele>
        <time>2021-08-09T10:45:30Z</time>
      </trkpt>
      <trkpt lat="44.49787" lon="1.5584">
        <ele>147.2</ele>
        <time>2021-08-09T10:45:31Z</time>
      </trkpt>
      <trkpt lat="44.49784" lon="1.55834">
        <ele>147.1</ele>
        <time>2021-08-09T10:45:33Z</time>
      </trkpt>
      <trkpt lat="44.49779" lon="1.55828">
        <ele>147.1</ele>
        <time>2021-08-09T10:45:34Z</time>
      </trkpt>
      <trkpt lat="44.49776" lon="1.55823">
        <ele>147</ele>
        <time>2021-08-09T10:45:35Z</time>
      </trkpt>
      <trkpt lat="44.49771" lon="1.55815">
        <ele>147</ele>
        <time>2021-08-09T10:45:37Z</time>
      </trkpt>
      <trkpt lat="44.49767" lon="1.5581">
        <ele>147</ele>
        <time>2021-08-09T10:45:38Z</time>
      </trkpt>
      <trkpt lat="44.49762" lon="1.55802">
        <ele>146.9</ele>
        <time>2021-08-09T10:45:39Z</time>
      </trkpt>
      <trkpt lat="44.4976" lon="1.55797">
        <ele>146.9</ele>
        <time>2021-08-09T10:45:40Z</time>
      </trkpt>
      <trkpt lat="44.49756" lon="1.55792">
        <ele>146.9</ele>
        <time>2021-08-09T10:45:42Z</time>
      </trkpt>
      <trkpt lat="44.49751" lon="1.55786">
        <ele>146.9</ele>
        <time>2021-08-09T10:45:43Z</time>
      </trkpt>
      <trkpt lat="44.49748" lon="1.55782">
        <ele>147</ele>
        <time>2021-08-09T10:45:44Z</time>
      </trkpt>
      <trkpt lat="44.49744" lon="1.55776">
        <ele>147.1</ele>
        <time>2021-08-09T10:45:46Z</time>
      </trkpt>
      <trkpt lat="44.49742" lon="1.55773">
        <ele>147.2</ele>
        <time>2021-08-09T10:45:47Z</time>
      </trkpt>
      <trkpt lat="44.49742" lon="1.55772">
        <ele>147.3</ele>
        <time>2021-08-09T10:45:48Z</time>
      </trkpt>
      <trkpt lat="44.49739" lon="1.55769">
        <ele>147.4</ele>
        <time>2021-08-09T10:45:49Z</time>
      </trkpt>
      <trkpt lat="44.49736" lon="1.55765">
        <ele>147.6</ele>
        <time>2021-08-09T10:45:51Z</time>
      </trkpt>
      <trkpt lat="44.49733" lon="1.55762">
        <ele>147.8</ele>
        <time>2021-08-09T10:45:52Z</time>
      </trkpt>
      <trkpt lat="44.49731" lon="1.55759">
        <ele>148</ele>
        <time>2021-08-09T10:45:53Z</time>
      </trkpt>
      <trkpt lat="44.49728" lon="1.55756">
        <ele>148.3</ele>
        <time>2021-08-09T10:45:55Z</time>
      </trkpt>
      <trkpt lat="44.49728" lon="1.55755">
        <ele>148.3</ele>
        <time>2021-08-09T10:45:56Z</time>
      </trkpt>
      <trkpt lat="44.49725" lon="1.55752">
        <ele>148.6</ele>
        <time>2021-08-09T10:45:57Z</time>
      </trkpt>
      <trkpt lat="44.49724" lon="1.55748">
        <ele>148.8</ele>
        <time>2021-08-09T10:45:59Z</time>
      </trkpt>
      <trkpt lat="44.49723" lon="1.55747">
        <ele>148.9</ele>
        <time>2021-08-09T10:46:00Z</time>
      </trkpt>
      <trkpt lat="44.49719" lon="1.55743">
        <ele>149.4</ele>
        <time>2021-08-09T10:46:02Z</time>
      </trkpt>
      <trkpt lat="44.49717" lon="1.5574">
        <ele>149.7</ele>
        <time>2021-08-09T10:46:03Z</time>
      </trkpt>
      <trkpt lat="44.49717" lon="1.55738">
        <ele>149.8</ele>
        <time>2021-08-09T10:46:04Z</time>
      </trkpt>
      <trkpt lat="44.49715" lon="1.55737">
        <ele>150.1</ele>
        <time>2021-08-09T10:46:06Z</time>
      </trkpt>
      <trkpt lat="44.49714" lon="1.55736">
        <ele>150.2</ele>
        <time>2021-08-09T10:46:07Z</time>
      </trkpt>
      <trkpt lat="44.49713" lon="1.55735">
        <ele>150.3</ele>
        <time>2021-08-09T10:46:08Z</time>
      </trkpt>
      <trkpt lat="44.49713" lon="1.55734">
        <ele>150.4</ele>
        <time>2021-08-09T10:46:10Z</time>
      </trkpt>
      <trkpt lat="44.49712" lon="1.55734">
        <ele>150.5</ele>
        <time>2021-08-09T10:46:11Z</time>
      </trkpt>
      <trkpt lat="44.49711" lon="1.55733">
        <ele>150.7</ele>
        <time>2021-08-09T10:46:12Z</time>
      </trkpt>
      <trkpt lat="44.49709" lon="1.55728">
        <ele>151.2</ele>
        <time>2021-08-09T10:46:14Z</time>
      </trkpt>
      <trkpt lat="44.49708" lon="1.55727">
        <ele>151.4</ele>
        <time>2021-08-09T10:46:15Z</time>
      </trkpt>
      <trkpt lat="44.49707" lon="1.55724">
        <ele>151.7</ele>
        <time>2021-08-09T10:46:17Z</time>
      </trkpt>
      <trkpt lat="44.49696" lon="1.55705">
        <ele>154.5</ele>
        <time>2021-08-09T10:46:29Z</time>
      </trkpt>
      <trkpt lat="44.49695" lon="1.55703">
        <ele>154.8</ele>
        <time>2021-08-09T10:46:30Z</time>
      </trkpt>
      <trkpt lat="44.49695" lon="1.55701">
        <ele>155</ele>
        <time>2021-08-09T10:46:31Z</time>
      </trkpt>
      <trkpt lat="44.49694" lon="1.55699">
        <ele>155.2</ele>
        <time>2021-08-09T10:46:32Z</time>
      </trkpt>
      <trkpt lat="44.49694" lon="1.55698">
        <ele>155.4</ele>
        <time>2021-08-09T10:46:33Z</time>
      </trkpt>
      <trkpt lat="44.49694" lon="1.55691">
        <ele>156.2</ele>
        <time>2021-08-09T10:46:35Z</time>
      </trkpt>
      <trkpt lat="44.49694" lon="1.55685">
        <ele>156.7</ele>
        <time>2021-08-09T10:46:36Z</time>
      </trkpt>
      <trkpt lat="44.49694" lon="1.5568">
        <ele>157.2</ele>
        <time>2021-08-09T10:46:38Z</time>
      </trkpt>
      <trkpt lat="44.49695" lon="1.55674">
        <ele>157.6</ele>
        <time>2021-08-09T10:46:40Z</time>
      </trkpt>
      <trkpt lat="44.49695" lon="1.55668">
        <ele>157.9</ele>
        <time>2021-08-09T10:46:41Z</time>
      </trkpt>
      <trkpt lat="44.49695" lon="1.55663">
        <ele>158.2</ele>
        <time>2021-08-09T10:47:14Z</time>
      </trkpt>
      <trkpt lat="44.49696" lon="1.55657">
        <ele>158.3</ele>
        <time>2021-08-09T10:47:15Z</time>
      </trkpt>
      <trkpt lat="44.49696" lon="1.55651">
        <ele>158.4</ele>
        <time>2021-08-09T10:47:17Z</time>
      </trkpt>
      <trkpt lat="44.49696" lon="1.55648">
        <ele>158.5</ele>
        <time>2021-08-09T10:47:18Z</time>
      </trkpt>
      <trkpt lat="44.49697" lon="1.55647">
        <ele>158.5</ele>
        <time>2021-08-09T10:47:19Z</time>
      </trkpt>
      <trkpt lat="44.49697" lon="1.55645">
        <ele>158.5</ele>
        <time>2021-08-09T10:47:20Z</time>
      </trkpt>
      <trkpt lat="44.49697" lon="1.55641">
        <ele>158.6</ele>
        <time>2021-08-09T10:47:21Z</time>
      </trkpt>
      <trkpt lat="44.49697" lon="1.55636">
        <ele>158.6</ele>
        <time>2021-08-09T10:47:23Z</time>
      </trkpt>
      <trkpt lat="44.49698" lon="1.55632">
        <ele>158.6</ele>
        <time>2021-08-09T10:47:24Z</time>
      </trkpt>
      <trkpt lat="44.49699" lon="1.55625">
        <ele>158.7</ele>
        <time>2021-08-09T10:47:26Z</time>
      </trkpt>
      <trkpt lat="44.49701" lon="1.55619">
        <ele>158.6</ele>
        <time>2021-08-09T10:47:27Z</time>
      </trkpt>
      <trkpt lat="44.49703" lon="1.55614">
        <ele>158.6</ele>
        <time>2021-08-09T10:47:29Z</time>
      </trkpt>
      <trkpt lat="44.49705" lon="1.55608">
        <ele>158.6</ele>
        <time>2021-08-09T10:47:30Z</time>
      </trkpt>
      <trkpt lat="44.49704" lon="1.55604">
        <ele>158.5</ele>
        <time>2021-08-09T10:47:31Z</time>
      </trkpt>
      <trkpt lat="44.49703" lon="1.55599">
        <ele>158.5</ele>
        <time>2021-08-09T10:47:32Z</time>
      </trkpt>
      <trkpt lat="44.49702" lon="1.5559">
        <ele>158.4</ele>
        <time>2021-08-09T10:47:34Z</time>
      </trkpt>
      <trkpt lat="44.49701" lon="1.55584">
        <ele>158.4</ele>
        <time>2021-08-09T10:47:36Z</time>
      </trkpt>
      <trkpt lat="44.497" lon="1.5558">
        <ele>158.3</ele>
        <time>2021-08-09T10:47:37Z</time>
      </trkpt>
      <trkpt lat="44.49699" lon="1.55576">
        <ele>158.3</ele>
        <time>2021-08-09T10:47:38Z</time>
      </trkpt>
      <trkpt lat="44.49697" lon="1.55572">
        <ele>158.3</ele>
        <time>2021-08-09T10:47:39Z</time>
      </trkpt>
      <trkpt lat="44.49694" lon="1.55567">
        <ele>158.3</ele>
        <time>2021-08-09T10:47:40Z</time>
      </trkpt>
      <trkpt lat="44.49691" lon="1.55564">
        <ele>158.3</ele>
        <time>2021-08-09T10:47:41Z</time>
      </trkpt>
      <trkpt lat="44.49688" lon="1.55562">
        <ele>158.3</ele>
        <time>2021-08-09T10:47:43Z</time>
      </trkpt>
      <trkpt lat="44.49685" lon="1.55561">
        <ele>158.2</ele>
        <time>2021-08-09T10:47:44Z</time>
      </trkpt>
      <trkpt lat="44.49682" lon="1.5556">
        <ele>158.2</ele>
        <time>2021-08-09T10:47:45Z</time>
      </trkpt>
      <trkpt lat="44.49678" lon="1.55559">
        <ele>158.2</ele>
        <time>2021-08-09T10:47:46Z</time>
      </trkpt>
      <trkpt lat="44.49674" lon="1.55557">
        <ele>158.2</ele>
        <time>2021-08-09T10:47:48Z</time>
      </trkpt>
      <trkpt lat="44.4967" lon="1.55556">
        <ele>158.2</ele>
        <time>2021-08-09T10:47:49Z</time>
      </trkpt>
      <trkpt lat="44.49667" lon="1.55553">
        <ele>158.1</ele>
        <time>2021-08-09T10:47:50Z</time>
      </trkpt>
      <trkpt lat="44.49662" lon="1.55549">
        <ele>158</ele>
        <time>2021-08-09T10:47:52Z</time>
      </trkpt>
      <trkpt lat="44.49658" lon="1.55544">
        <ele>157.9</ele>
        <time>2021-08-09T10:47:53Z</time>
      </trkpt>
      <trkpt lat="44.49653" lon="1.55539">
        <ele>157.9</ele>
        <time>2021-08-09T10:47:54Z</time>
      </trkpt>
      <trkpt lat="44.49649" lon="1.55535">
        <ele>157.8</ele>
        <time>2021-08-09T10:47:56Z</time>
      </trkpt>
      <trkpt lat="44.49646" lon="1.5553">
        <ele>157.7</ele>
        <time>2021-08-09T10:47:57Z</time>
      </trkpt>
      <trkpt lat="44.49642" lon="1.55526">
        <ele>157.7</ele>
        <time>2021-08-09T10:47:58Z</time>
      </trkpt>
      <trkpt lat="44.49639" lon="1.55523">
        <ele>157.6</ele>
        <time>2021-08-09T10:47:59Z</time>
      </trkpt>
      <trkpt lat="44.49634" lon="1.55517">
        <ele>157.5</ele>
        <time>2021-08-09T10:48:01Z</time>
      </trkpt>
      <trkpt lat="44.49629" lon="1.55512">
        <ele>157.4</ele>
        <time>2021-08-09T10:48:02Z</time>
      </trkpt>
      <trkpt lat="44.49626" lon="1.55508">
        <ele>157.4</ele>
        <time>2021-08-09T10:48:03Z</time>
      </trkpt>
      <trkpt lat="44.49622" lon="1.55502">
        <ele>157.3</ele>
        <time>2021-08-09T10:48:04Z</time>
      </trkpt>
      <trkpt lat="44.49619" lon="1.55497">
        <ele>157.3</ele>
        <time>2021-08-09T10:48:06Z</time>
      </trkpt>
      <trkpt lat="44.49616" lon="1.55491">
        <ele>157.2</ele>
        <time>2021-08-09T10:48:07Z</time>
      </trkpt>
      <trkpt lat="44.49613" lon="1.55486">
        <ele>157.1</ele>
        <time>2021-08-09T10:48:08Z</time>
      </trkpt>
      <trkpt lat="44.4961" lon="1.55479">
        <ele>157</ele>
        <time>2021-08-09T10:48:09Z</time>
      </trkpt>
      <trkpt lat="44.49608" lon="1.55473">
        <ele>156.9</ele>
        <time>2021-08-09T10:48:11Z</time>
      </trkpt>
      <trkpt lat="44.49607" lon="1.55468">
        <ele>156.8</ele>
        <time>2021-08-09T10:48:12Z</time>
      </trkpt>
      <trkpt lat="44.49604" lon="1.55461">
        <ele>156.6</ele>
        <time>2021-08-09T10:48:13Z</time>
      </trkpt>
      <trkpt lat="44.49601" lon="1.55453">
        <ele>156.4</ele>
        <time>2021-08-09T10:48:15Z</time>
      </trkpt>
      <trkpt lat="44.49598" lon="1.55447">
        <ele>156.2</ele>
        <time>2021-08-09T10:48:16Z</time>
      </trkpt>
      <trkpt lat="44.49595" lon="1.5544">
        <ele>156</ele>
        <time>2021-08-09T10:48:17Z</time>
      </trkpt>
      <trkpt lat="44.49591" lon="1.55431">
        <ele>155.7</ele>
        <time>2021-08-09T10:48:18Z</time>
      </trkpt>
      <trkpt lat="44.49593" lon="1.55425">
        <ele>155.6</ele>
        <time>2021-08-09T10:48:19Z</time>
      </trkpt>
      <trkpt lat="44.49591" lon="1.55413">
        <ele>155.3</ele>
        <time>2021-08-09T10:48:21Z</time>
      </trkpt>
      <trkpt lat="44.4959" lon="1.55408">
        <ele>155.1</ele>
        <time>2021-08-09T10:48:22Z</time>
      </trkpt>
      <trkpt lat="44.49586" lon="1.55408">
        <ele>154.9</ele>
        <time>2021-08-09T10:48:24Z</time>
      </trkpt>
      <trkpt lat="44.49582" lon="1.55405">
        <ele>154.4</ele>
        <time>2021-08-09T10:48:25Z</time>
      </trkpt>
      <trkpt lat="44.49577" lon="1.55403">
        <ele>153.9</ele>
        <time>2021-08-09T10:48:26Z</time>
      </trkpt>
      <trkpt lat="44.49572" lon="1.55402">
        <ele>153.2</ele>
        <time>2021-08-09T10:48:27Z</time>
      </trkpt>
      <trkpt lat="44.49559" lon="1.55408">
        <ele>151.4</ele>
        <time>2021-08-09T10:48:29Z</time>
      </trkpt>
      <trkpt lat="44.49554" lon="1.55415">
        <ele>150.4</ele>
        <time>2021-08-09T10:48:30Z</time>
      </trkpt>
      <trkpt lat="44.49542" lon="1.55433">
        <ele>148.3</ele>
        <time>2021-08-09T10:48:32Z</time>
      </trkpt>
      <trkpt lat="44.4953" lon="1.55452">
        <ele>146.4</ele>
        <time>2021-08-09T10:48:34Z</time>
      </trkpt>
      <trkpt lat="44.49523" lon="1.55461">
        <ele>145.5</ele>
        <time>2021-08-09T10:48:35Z</time>
      </trkpt>
      <trkpt lat="44.49515" lon="1.55469">
        <ele>144.7</ele>
        <time>2021-08-09T10:48:36Z</time>
      </trkpt>
      <trkpt lat="44.495" lon="1.55484">
        <ele>143.6</ele>
        <time>2021-08-09T10:48:38Z</time>
      </trkpt>
      <trkpt lat="44.49485" lon="1.55498">
        <ele>143</ele>
        <time>2021-08-09T10:48:40Z</time>
      </trkpt>
      <trkpt lat="44.49473" lon="1.55512">
        <ele>142.8</ele>
        <time>2021-08-09T10:48:42Z</time>
      </trkpt>
      <trkpt lat="44.49466" lon="1.55521">
        <ele>143</ele>
        <time>2021-08-09T10:48:44Z</time>
      </trkpt>
      <trkpt lat="44.49464" lon="1.55525">
        <ele>143</ele>
        <time>2021-08-09T10:48:46Z</time>
      </trkpt>
      <trkpt lat="44.49464" lon="1.55526">
        <ele>143</ele>
        <time>2021-08-09T10:48:47Z</time>
      </trkpt>
      <trkpt lat="44.49462" lon="1.55532">
        <ele>143.1</ele>
        <time>2021-08-09T10:48:49Z</time>
      </trkpt>
      <trkpt lat="44.4946" lon="1.55534">
        <ele>143.1</ele>
        <time>2021-08-09T10:48:50Z</time>
      </trkpt>
      <trkpt lat="44.49459" lon="1.55536">
        <ele>143.2</ele>
        <time>2021-08-09T10:48:51Z</time>
      </trkpt>
      <trkpt lat="44.49459" lon="1.5554">
        <ele>143.2</ele>
        <time>2021-08-09T10:48:52Z</time>
      </trkpt>
      <trkpt lat="44.49457" lon="1.55544">
        <ele>143.2</ele>
        <time>2021-08-09T10:48:53Z</time>
      </trkpt>
      <trkpt lat="44.49455" lon="1.55548">
        <ele>143.2</ele>
        <time>2021-08-09T10:48:55Z</time>
      </trkpt>
      <trkpt lat="44.49452" lon="1.55552">
        <ele>143.2</ele>
        <time>2021-08-09T10:48:56Z</time>
      </trkpt>
      <trkpt lat="44.49448" lon="1.55556">
        <ele>143.2</ele>
        <time>2021-08-09T10:48:57Z</time>
      </trkpt>
      <trkpt lat="44.49444" lon="1.55561">
        <ele>143.2</ele>
        <time>2021-08-09T10:48:59Z</time>
      </trkpt>
      <trkpt lat="44.49442" lon="1.55566">
        <ele>143.2</ele>
        <time>2021-08-09T10:49:00Z</time>
      </trkpt>
      <trkpt lat="44.4944" lon="1.55571">
        <ele>143.2</ele>
        <time>2021-08-09T10:49:01Z</time>
      </trkpt>
      <trkpt lat="44.49437" lon="1.55575">
        <ele>143.3</ele>
        <time>2021-08-09T10:49:02Z</time>
      </trkpt>
      <trkpt lat="44.49435" lon="1.5558">
        <ele>143.4</ele>
        <time>2021-08-09T10:49:03Z</time>
      </trkpt>
      <trkpt lat="44.49433" lon="1.55584">
        <ele>143.5</ele>
        <time>2021-08-09T10:49:05Z</time>
      </trkpt>
      <trkpt lat="44.49432" lon="1.55589">
        <ele>143.7</ele>
        <time>2021-08-09T10:49:06Z</time>
      </trkpt>
      <trkpt lat="44.49431" lon="1.55596">
        <ele>143.9</ele>
        <time>2021-08-09T10:49:08Z</time>
      </trkpt>
      <trkpt lat="44.4943" lon="1.55602">
        <ele>144.2</ele>
        <time>2021-08-09T10:49:09Z</time>
      </trkpt>
      <trkpt lat="44.49429" lon="1.55606">
        <ele>144.4</ele>
        <time>2021-08-09T10:49:10Z</time>
      </trkpt>
      <trkpt lat="44.49427" lon="1.55611">
        <ele>144.7</ele>
        <time>2021-08-09T10:49:12Z</time>
      </trkpt>
      <trkpt lat="44.49427" lon="1.55616">
        <ele>144.9</ele>
        <time>2021-08-09T10:49:13Z</time>
      </trkpt>
      <trkpt lat="44.49426" lon="1.5562">
        <ele>145.1</ele>
        <time>2021-08-09T10:49:14Z</time>
      </trkpt>
      <trkpt lat="44.49424" lon="1.55625">
        <ele>145.3</ele>
        <time>2021-08-09T10:49:16Z</time>
      </trkpt>
      <trkpt lat="44.49422" lon="1.55629">
        <ele>145.5</ele>
        <time>2021-08-09T10:49:17Z</time>
      </trkpt>
      <trkpt lat="44.49418" lon="1.55634">
        <ele>145.6</ele>
        <time>2021-08-09T10:49:19Z</time>
      </trkpt>
      <trkpt lat="44.49415" lon="1.55638">
        <ele>145.8</ele>
        <time>2021-08-09T10:49:20Z</time>
      </trkpt>
      <trkpt lat="44.49412" lon="1.55642">
        <ele>145.9</ele>
        <time>2021-08-09T10:49:22Z</time>
      </trkpt>
      <trkpt lat="44.49409" lon="1.55645">
        <ele>146</ele>
        <time>2021-08-09T10:49:23Z</time>
      </trkpt>
      <trkpt lat="44.49406" lon="1.55646">
        <ele>146</ele>
        <time>2021-08-09T10:49:24Z</time>
      </trkpt>
      <trkpt lat="44.49403" lon="1.5565">
        <ele>146.1</ele>
        <time>2021-08-09T10:49:26Z</time>
      </trkpt>
      <trkpt lat="44.49401" lon="1.55654">
        <ele>146.2</ele>
        <time>2021-08-09T10:49:27Z</time>
      </trkpt>
      <trkpt lat="44.49399" lon="1.55658">
        <ele>146.3</ele>
        <time>2021-08-09T10:49:28Z</time>
      </trkpt>
      <trkpt lat="44.49395" lon="1.55661">
        <ele>146.5</ele>
        <time>2021-08-09T10:49:30Z</time>
      </trkpt>
      <trkpt lat="44.49392" lon="1.55665">
        <ele>146.7</ele>
        <time>2021-08-09T10:49:31Z</time>
      </trkpt>
      <trkpt lat="44.4939" lon="1.55668">
        <ele>146.9</ele>
        <time>2021-08-09T10:49:32Z</time>
      </trkpt>
      <trkpt lat="44.49387" lon="1.55672">
        <ele>147.1</ele>
        <time>2021-08-09T10:49:34Z</time>
      </trkpt>
      <trkpt lat="44.49385" lon="1.55675">
        <ele>147.3</ele>
        <time>2021-08-09T10:49:35Z</time>
      </trkpt>
      <trkpt lat="44.49383" lon="1.55678">
        <ele>147.5</ele>
        <time>2021-08-09T10:49:36Z</time>
      </trkpt>
      <trkpt lat="44.49381" lon="1.55681">
        <ele>147.6</ele>
        <time>2021-08-09T10:49:37Z</time>
      </trkpt>
      <trkpt lat="44.49378" lon="1.55685">
        <ele>147.9</ele>
        <time>2021-08-09T10:49:38Z</time>
      </trkpt>
      <trkpt lat="44.49373" lon="1.55687">
        <ele>148</ele>
        <time>2021-08-09T10:49:40Z</time>
      </trkpt>
      <trkpt lat="44.49371" lon="1.5569">
        <ele>148.1</ele>
        <time>2021-08-09T10:49:41Z</time>
      </trkpt>
      <trkpt lat="44.49367" lon="1.55693">
        <ele>148.2</ele>
        <time>2021-08-09T10:49:42Z</time>
      </trkpt>
      <trkpt lat="44.49364" lon="1.55695">
        <ele>148.3</ele>
        <time>2021-08-09T10:49:44Z</time>
      </trkpt>
      <trkpt lat="44.49361" lon="1.55696">
        <ele>148.3</ele>
        <time>2021-08-09T10:49:45Z</time>
      </trkpt>
      <trkpt lat="44.49358" lon="1.55696">
        <ele>148.3</ele>
        <time>2021-08-09T10:49:46Z</time>
      </trkpt>
      <trkpt lat="44.49355" lon="1.55696">
        <ele>148.4</ele>
        <time>2021-08-09T10:49:47Z</time>
      </trkpt>
      <trkpt lat="44.49352" lon="1.55698">
        <ele>148.4</ele>
        <time>2021-08-09T10:49:48Z</time>
      </trkpt>
      <trkpt lat="44.49347" lon="1.557">
        <ele>148.4</ele>
        <time>2021-08-09T10:49:49Z</time>
      </trkpt>
      <trkpt lat="44.49343" lon="1.55702">
        <ele>148.5</ele>
        <time>2021-08-09T10:49:51Z</time>
      </trkpt>
      <trkpt lat="44.4934" lon="1.55704">
        <ele>148.5</ele>
        <time>2021-08-09T10:49:52Z</time>
      </trkpt>
      <trkpt lat="44.49337" lon="1.55705">
        <ele>148.5</ele>
        <time>2021-08-09T10:49:53Z</time>
      </trkpt>
      <trkpt lat="44.49333" lon="1.55707">
        <ele>148.5</ele>
        <time>2021-08-09T10:49:54Z</time>
      </trkpt>
      <trkpt lat="44.49329" lon="1.55709">
        <ele>148.5</ele>
        <time>2021-08-09T10:49:56Z</time>
      </trkpt>
      <trkpt lat="44.49322" lon="1.55711">
        <ele>148.3</ele>
        <time>2021-08-09T10:49:58Z</time>
      </trkpt>
      <trkpt lat="44.49317" lon="1.55714">
        <ele>148.2</ele>
        <time>2021-08-09T10:49:59Z</time>
      </trkpt>
      <trkpt lat="44.4931" lon="1.55716">
        <ele>147.9</ele>
        <time>2021-08-09T10:50:00Z</time>
      </trkpt>
      <trkpt lat="44.49296" lon="1.5572">
        <ele>147.3</ele>
        <time>2021-08-09T10:50:02Z</time>
      </trkpt>
      <trkpt lat="44.49285" lon="1.55725">
        <ele>146.8</ele>
        <time>2021-08-09T10:50:04Z</time>
      </trkpt>
      <trkpt lat="44.49274" lon="1.5573">
        <ele>146.2</ele>
        <time>2021-08-09T10:50:06Z</time>
      </trkpt>
      <trkpt lat="44.49264" lon="1.55735">
        <ele>145.8</ele>
        <time>2021-08-09T10:50:08Z</time>
      </trkpt>
      <trkpt lat="44.49254" lon="1.55738">
        <ele>145.4</ele>
        <time>2021-08-09T10:50:10Z</time>
      </trkpt>
      <trkpt lat="44.49249" lon="1.5574">
        <ele>145.3</ele>
        <time>2021-08-09T10:50:11Z</time>
      </trkpt>
      <trkpt lat="44.49244" lon="1.55742">
        <ele>145.1</ele>
        <time>2021-08-09T10:50:12Z</time>
      </trkpt>
      <trkpt lat="44.49234" lon="1.55747">
        <ele>144.8</ele>
        <time>2021-08-09T10:50:14Z</time>
      </trkpt>
      <trkpt lat="44.49225" lon="1.55752">
        <ele>144.7</ele>
        <time>2021-08-09T10:50:16Z</time>
      </trkpt>
      <trkpt lat="44.49217" lon="1.55756">
        <ele>144.7</ele>
        <time>2021-08-09T10:50:18Z</time>
      </trkpt>
      <trkpt lat="44.49214" lon="1.55758">
        <ele>144.8</ele>
        <time>2021-08-09T10:50:19Z</time>
      </trkpt>
      <trkpt lat="44.4921" lon="1.55762">
        <ele>144.9</ele>
        <time>2021-08-09T10:50:20Z</time>
      </trkpt>
      <trkpt lat="44.49209" lon="1.55764">
        <ele>144.9</ele>
        <time>2021-08-09T10:50:21Z</time>
      </trkpt>
      <trkpt lat="44.49205" lon="1.55765">
        <ele>145</ele>
        <time>2021-08-09T10:50:23Z</time>
      </trkpt>
      <trkpt lat="44.49204" lon="1.55765">
        <ele>145</ele>
        <time>2021-08-09T10:50:24Z</time>
      </trkpt>
      <trkpt lat="44.49199" lon="1.55765">
        <ele>145.2</ele>
        <time>2021-08-09T10:50:26Z</time>
      </trkpt>
      <trkpt lat="44.49196" lon="1.55764">
        <ele>145.3</ele>
        <time>2021-08-09T10:50:27Z</time>
      </trkpt>
      <trkpt lat="44.49194" lon="1.55764">
        <ele>145.3</ele>
        <time>2021-08-09T10:50:28Z</time>
      </trkpt>
      <trkpt lat="44.49189" lon="1.55765">
        <ele>145.5</ele>
        <time>2021-08-09T10:50:30Z</time>
      </trkpt>
      <trkpt lat="44.49188" lon="1.55765">
        <ele>145.5</ele>
        <time>2021-08-09T10:50:31Z</time>
      </trkpt>
      <trkpt lat="44.49185" lon="1.55765">
        <ele>145.6</ele>
        <time>2021-08-09T10:50:32Z</time>
      </trkpt>
      <trkpt lat="44.49181" lon="1.55764">
        <ele>145.7</ele>
        <time>2021-08-09T10:50:34Z</time>
      </trkpt>
      <trkpt lat="44.49176" lon="1.55763">
        <ele>145.7</ele>
        <time>2021-08-09T10:50:35Z</time>
      </trkpt>
      <trkpt lat="44.49172" lon="1.55763">
        <ele>145.8</ele>
        <time>2021-08-09T10:50:36Z</time>
      </trkpt>
      <trkpt lat="44.49167" lon="1.55763">
        <ele>145.9</ele>
        <time>2021-08-09T10:50:38Z</time>
      </trkpt>
      <trkpt lat="44.49164" lon="1.55763">
        <ele>146</ele>
        <time>2021-08-09T10:50:39Z</time>
      </trkpt>
      <trkpt lat="44.4916" lon="1.55765">
        <ele>146</ele>
        <time>2021-08-09T10:50:40Z</time>
      </trkpt>
      <trkpt lat="44.49155" lon="1.55766">
        <ele>146.1</ele>
        <time>2021-08-09T10:50:41Z</time>
      </trkpt>
      <trkpt lat="44.49151" lon="1.55768">
        <ele>146.2</ele>
        <time>2021-08-09T10:50:42Z</time>
      </trkpt>
      <trkpt lat="44.49145" lon="1.55769">
        <ele>146.3</ele>
        <time>2021-08-09T10:50:44Z</time>
      </trkpt>
      <trkpt lat="44.49142" lon="1.55769">
        <ele>146.4</ele>
        <time>2021-08-09T10:50:45Z</time>
      </trkpt>
      <trkpt lat="44.49138" lon="1.55769">
        <ele>146.5</ele>
        <time>2021-08-09T10:50:46Z</time>
      </trkpt>
      <trkpt lat="44.49135" lon="1.5577">
        <ele>146.6</ele>
        <time>2021-08-09T10:50:47Z</time>
      </trkpt>
      <trkpt lat="44.49129" lon="1.5577">
        <ele>146.7</ele>
        <time>2021-08-09T10:50:49Z</time>
      </trkpt>
      <trkpt lat="44.49125" lon="1.55771">
        <ele>146.7</ele>
        <time>2021-08-09T10:50:50Z</time>
      </trkpt>
      <trkpt lat="44.49121" lon="1.55772">
        <ele>146.6</ele>
        <time>2021-08-09T10:50:51Z</time>
      </trkpt>
      <trkpt lat="44.49115" lon="1.55773">
        <ele>146.4</ele>
        <time>2021-08-09T10:50:52Z</time>
      </trkpt>
      <trkpt lat="44.49105" lon="1.55768">
        <ele>145.9</ele>
        <time>2021-08-09T10:50:54Z</time>
      </trkpt>
      <trkpt lat="44.491" lon="1.55765">
        <ele>145.6</ele>
        <time>2021-08-09T10:50:55Z</time>
      </trkpt>
      <trkpt lat="44.49094" lon="1.55761">
        <ele>145.3</ele>
        <time>2021-08-09T10:50:56Z</time>
      </trkpt>
      <trkpt lat="44.49083" lon="1.55756">
        <ele>144.8</ele>
        <time>2021-08-09T10:50:58Z</time>
      </trkpt>
      <trkpt lat="44.49072" lon="1.55752">
        <ele>144.6</ele>
        <time>2021-08-09T10:51:00Z</time>
      </trkpt>
      <trkpt lat="44.49067" lon="1.5575">
        <ele>144.5</ele>
        <time>2021-08-09T10:51:01Z</time>
      </trkpt>
      <trkpt lat="44.49063" lon="1.55748">
        <ele>144.5</ele>
        <time>2021-08-09T10:51:02Z</time>
      </trkpt>
      <trkpt lat="44.49054" lon="1.55743">
        <ele>144.5</ele>
        <time>2021-08-09T10:51:04Z</time>
      </trkpt>
      <trkpt lat="44.49051" lon="1.55741">
        <ele>144.5</ele>
        <time>2021-08-09T10:51:05Z</time>
      </trkpt>
      <trkpt lat="44.49043" lon="1.55738">
        <ele>144.5</ele>
        <time>2021-08-09T10:51:07Z</time>
      </trkpt>
      <trkpt lat="44.49039" lon="1.55736">
        <ele>144.6</ele>
        <time>2021-08-09T10:51:08Z</time>
      </trkpt>
      <trkpt lat="44.49033" lon="1.55732">
        <ele>144.6</ele>
        <time>2021-08-09T10:51:10Z</time>
      </trkpt>
      <trkpt lat="44.49034" lon="1.55727">
        <ele>144.7</ele>
        <time>2021-08-09T10:51:11Z</time>
      </trkpt>
      <trkpt lat="44.49029" lon="1.55724">
        <ele>144.7</ele>
        <time>2021-08-09T10:51:13Z</time>
      </trkpt>
      <trkpt lat="44.49024" lon="1.55722">
        <ele>144.8</ele>
        <time>2021-08-09T10:51:14Z</time>
      </trkpt>
      <trkpt lat="44.49018" lon="1.55719">
        <ele>144.9</ele>
        <time>2021-08-09T10:51:16Z</time>
      </trkpt>
      <trkpt lat="44.49013" lon="1.55715">
        <ele>144.9</ele>
        <time>2021-08-09T10:51:17Z</time>
      </trkpt>
      <trkpt lat="44.49009" lon="1.55712">
        <ele>144.8</ele>
        <time>2021-08-09T10:51:18Z</time>
      </trkpt>
      <trkpt lat="44.49005" lon="1.55708">
        <ele>144.8</ele>
        <time>2021-08-09T10:51:20Z</time>
      </trkpt>
      <trkpt lat="44.49002" lon="1.55705">
        <ele>144.8</ele>
        <time>2021-08-09T10:51:21Z</time>
      </trkpt>
      <trkpt lat="44.48997" lon="1.55702">
        <ele>144.9</ele>
        <time>2021-08-09T10:51:22Z</time>
      </trkpt>
      <trkpt lat="44.48993" lon="1.55699">
        <ele>144.9</ele>
        <time>2021-08-09T10:51:23Z</time>
      </trkpt>
      <trkpt lat="44.48989" lon="1.55695">
        <ele>144.9</ele>
        <time>2021-08-09T10:51:24Z</time>
      </trkpt>
      <trkpt lat="44.48986" lon="1.55692">
        <ele>145</ele>
        <time>2021-08-09T10:51:26Z</time>
      </trkpt>
      <trkpt lat="44.48983" lon="1.55688">
        <ele>145.1</ele>
        <time>2021-08-09T10:51:27Z</time>
      </trkpt>
      <trkpt lat="44.4898" lon="1.55684">
        <ele>145.1</ele>
        <time>2021-08-09T10:51:28Z</time>
      </trkpt>
      <trkpt lat="44.48977" lon="1.55681">
        <ele>145.2</ele>
        <time>2021-08-09T10:51:29Z</time>
      </trkpt>
      <trkpt lat="44.48973" lon="1.55678">
        <ele>145.2</ele>
        <time>2021-08-09T10:51:30Z</time>
      </trkpt>
      <trkpt lat="44.4897" lon="1.55676">
        <ele>145.3</ele>
        <time>2021-08-09T10:51:32Z</time>
      </trkpt>
      <trkpt lat="44.48967" lon="1.55672">
        <ele>145.4</ele>
        <time>2021-08-09T10:51:33Z</time>
      </trkpt>
      <trkpt lat="44.48963" lon="1.55669">
        <ele>145.6</ele>
        <time>2021-08-09T10:51:34Z</time>
      </trkpt>
      <trkpt lat="44.48959" lon="1.55666">
        <ele>145.7</ele>
        <time>2021-08-09T10:51:35Z</time>
      </trkpt>
      <trkpt lat="44.48956" lon="1.55662">
        <ele>145.9</ele>
        <time>2021-08-09T10:51:37Z</time>
      </trkpt>
      <trkpt lat="44.48953" lon="1.55659">
        <ele>146.1</ele>
        <time>2021-08-09T10:51:38Z</time>
      </trkpt>
      <trkpt lat="44.48949" lon="1.55654">
        <ele>146.3</ele>
        <time>2021-08-09T10:51:39Z</time>
      </trkpt>
      <trkpt lat="44.48946" lon="1.5565">
        <ele>146.5</ele>
        <time>2021-08-09T10:51:41Z</time>
      </trkpt>
      <trkpt lat="44.48943" lon="1.55645">
        <ele>146.6</ele>
        <time>2021-08-09T10:51:43Z</time>
      </trkpt>
      <trkpt lat="44.48941" lon="1.55642">
        <ele>146.7</ele>
        <time>2021-08-09T10:51:44Z</time>
      </trkpt>
      <trkpt lat="44.48939" lon="1.55638">
        <ele>146.8</ele>
        <time>2021-08-09T10:51:45Z</time>
      </trkpt>
      <trkpt lat="44.48938" lon="1.55637">
        <ele>146.8</ele>
        <time>2021-08-09T10:51:46Z</time>
      </trkpt>
      <trkpt lat="44.48935" lon="1.55633">
        <ele>146.8</ele>
        <time>2021-08-09T10:51:48Z</time>
      </trkpt>
      <trkpt lat="44.48932" lon="1.55629">
        <ele>146.8</ele>
        <time>2021-08-09T10:51:50Z</time>
      </trkpt>
      <trkpt lat="44.48931" lon="1.55625">
        <ele>146.7</ele>
        <time>2021-08-09T10:51:51Z</time>
      </trkpt>
      <trkpt lat="44.48929" lon="1.55621">
        <ele>146.6</ele>
        <time>2021-08-09T10:51:52Z</time>
      </trkpt>
      <trkpt lat="44.48927" lon="1.55614">
        <ele>146.5</ele>
        <time>2021-08-09T10:51:54Z</time>
      </trkpt>
      <trkpt lat="44.48925" lon="1.55608">
        <ele>146.3</ele>
        <time>2021-08-09T10:51:55Z</time>
      </trkpt>
      <trkpt lat="44.48922" lon="1.55604">
        <ele>146.1</ele>
        <time>2021-08-09T10:51:56Z</time>
      </trkpt>
      <trkpt lat="44.4892" lon="1.55598">
        <ele>145.8</ele>
        <time>2021-08-09T10:51:57Z</time>
      </trkpt>
      <trkpt lat="44.48913" lon="1.55584">
        <ele>145.2</ele>
        <time>2021-08-09T10:51:59Z</time>
      </trkpt>
      <trkpt lat="44.4891" lon="1.55578">
        <ele>144.9</ele>
        <time>2021-08-09T10:52:00Z</time>
      </trkpt>
      <trkpt lat="44.48906" lon="1.55572">
        <ele>144.6</ele>
        <time>2021-08-09T10:52:01Z</time>
      </trkpt>
      <trkpt lat="44.48902" lon="1.55565">
        <ele>144.4</ele>
        <time>2021-08-09T10:52:02Z</time>
      </trkpt>
      <trkpt lat="44.48894" lon="1.55553">
        <ele>143.8</ele>
        <time>2021-08-09T10:52:04Z</time>
      </trkpt>
      <trkpt lat="44.48886" lon="1.55539">
        <ele>143.3</ele>
        <time>2021-08-09T10:52:06Z</time>
      </trkpt>
      <trkpt lat="44.48883" lon="1.55533">
        <ele>143.1</ele>
        <time>2021-08-09T10:52:07Z</time>
      </trkpt>
      <trkpt lat="44.48879" lon="1.55526">
        <ele>142.9</ele>
        <time>2021-08-09T10:52:08Z</time>
      </trkpt>
      <trkpt lat="44.48873" lon="1.55514">
        <ele>142.5</ele>
        <time>2021-08-09T10:52:10Z</time>
      </trkpt>
      <trkpt lat="44.4887" lon="1.55508">
        <ele>142.4</ele>
        <time>2021-08-09T10:52:11Z</time>
      </trkpt>
      <trkpt lat="44.48867" lon="1.55502">
        <ele>142.2</ele>
        <time>2021-08-09T10:52:12Z</time>
      </trkpt>
      <trkpt lat="44.48865" lon="1.55498">
        <ele>142.1</ele>
        <time>2021-08-09T10:52:13Z</time>
      </trkpt>
      <trkpt lat="44.48863" lon="1.55494">
        <ele>142</ele>
        <time>2021-08-09T10:52:14Z</time>
      </trkpt>
      <trkpt lat="44.48857" lon="1.55482">
        <ele>141.8</ele>
        <time>2021-08-09T10:52:16Z</time>
      </trkpt>
      <trkpt lat="44.48853" lon="1.55473">
        <ele>141.5</ele>
        <time>2021-08-09T10:52:18Z</time>
      </trkpt>
      <trkpt lat="44.48849" lon="1.55466">
        <ele>141.4</ele>
        <time>2021-08-09T10:52:19Z</time>
      </trkpt>
      <trkpt lat="44.48846" lon="1.5546">
        <ele>141.2</ele>
        <time>2021-08-09T10:52:20Z</time>
      </trkpt>
      <trkpt lat="44.48838" lon="1.55448">
        <ele>140.9</ele>
        <time>2021-08-09T10:52:22Z</time>
      </trkpt>
      <trkpt lat="44.48831" lon="1.55437">
        <ele>140.6</ele>
        <time>2021-08-09T10:52:24Z</time>
      </trkpt>
      <trkpt lat="44.48827" lon="1.55431">
        <ele>140.4</ele>
        <time>2021-08-09T10:52:25Z</time>
      </trkpt>
      <trkpt lat="44.48824" lon="1.55425">
        <ele>140.3</ele>
        <time>2021-08-09T10:52:26Z</time>
      </trkpt>
      <trkpt lat="44.48821" lon="1.55415">
        <ele>140.1</ele>
        <time>2021-08-09T10:52:28Z</time>
      </trkpt>
      <trkpt lat="44.48819" lon="1.55409">
        <ele>139.9</ele>
        <time>2021-08-09T10:52:29Z</time>
      </trkpt>
      <trkpt lat="44.4882" lon="1.55403">
        <ele>139.7</ele>
        <time>2021-08-09T10:52:30Z</time>
      </trkpt>
      <trkpt lat="44.48821" lon="1.55398">
        <ele>139.6</ele>
        <time>2021-08-09T10:52:32Z</time>
      </trkpt>
      <trkpt lat="44.4882" lon="1.55394">
        <ele>139.5</ele>
        <time>2021-08-09T10:52:33Z</time>
      </trkpt>
      <trkpt lat="44.48816" lon="1.55393">
        <ele>139.4</ele>
        <time>2021-08-09T10:52:35Z</time>
      </trkpt>
      <trkpt lat="44.48812" lon="1.55389">
        <ele>139.2</ele>
        <time>2021-08-09T10:52:37Z</time>
      </trkpt>
      <trkpt lat="44.4881" lon="1.55387">
        <ele>139.2</ele>
        <time>2021-08-09T10:52:38Z</time>
      </trkpt>
      <trkpt lat="44.48805" lon="1.55385">
        <ele>139</ele>
        <time>2021-08-09T10:52:40Z</time>
      </trkpt>
      <trkpt lat="44.48803" lon="1.55382">
        <ele>139</ele>
        <time>2021-08-09T10:52:41Z</time>
      </trkpt>
      <trkpt lat="44.48802" lon="1.55381">
        <ele>138.9</ele>
        <time>2021-08-09T10:52:42Z</time>
      </trkpt>
      <trkpt lat="44.48799" lon="1.55378">
        <ele>138.9</ele>
        <time>2021-08-09T10:52:43Z</time>
      </trkpt>
      <trkpt lat="44.48795" lon="1.55377">
        <ele>138.8</ele>
        <time>2021-08-09T10:52:45Z</time>
      </trkpt>
      <trkpt lat="44.4879" lon="1.55374">
        <ele>138.7</ele>
        <time>2021-08-09T10:52:47Z</time>
      </trkpt>
      <trkpt lat="44.48788" lon="1.55372">
        <ele>138.6</ele>
        <time>2021-08-09T10:52:48Z</time>
      </trkpt>
      <trkpt lat="44.48784" lon="1.55369">
        <ele>138.6</ele>
        <time>2021-08-09T10:52:50Z</time>
      </trkpt>
      <trkpt lat="44.4878" lon="1.55367">
        <ele>138.5</ele>
        <time>2021-08-09T10:52:51Z</time>
      </trkpt>
      <trkpt lat="44.48779" lon="1.55366">
        <ele>138.5</ele>
        <time>2021-08-09T10:52:52Z</time>
      </trkpt>
      <trkpt lat="44.48775" lon="1.55364">
        <ele>138.4</ele>
        <time>2021-08-09T10:52:53Z</time>
      </trkpt>
      <trkpt lat="44.48773" lon="1.55364">
        <ele>138.4</ele>
        <time>2021-08-09T10:52:54Z</time>
      </trkpt>
      <trkpt lat="44.48769" lon="1.55362">
        <ele>138.3</ele>
        <time>2021-08-09T10:52:56Z</time>
      </trkpt>
      <trkpt lat="44.48763" lon="1.5536">
        <ele>138.3</ele>
        <time>2021-08-09T10:52:58Z</time>
      </trkpt>
      <trkpt lat="44.48758" lon="1.55358">
        <ele>138.3</ele>
        <time>2021-08-09T10:52:59Z</time>
      </trkpt>
      <trkpt lat="44.48754" lon="1.55356">
        <ele>138.2</ele>
        <time>2021-08-09T10:53:00Z</time>
      </trkpt>
      <trkpt lat="44.4875" lon="1.55354">
        <ele>138.2</ele>
        <time>2021-08-09T10:53:01Z</time>
      </trkpt>
      <trkpt lat="44.48745" lon="1.55352">
        <ele>138.2</ele>
        <time>2021-08-09T10:53:03Z</time>
      </trkpt>
      <trkpt lat="44.4874" lon="1.55351">
        <ele>138.1</ele>
        <time>2021-08-09T10:53:04Z</time>
      </trkpt>
      <trkpt lat="44.48736" lon="1.5535">
        <ele>138.1</ele>
        <time>2021-08-09T10:53:05Z</time>
      </trkpt>
      <trkpt lat="44.48732" lon="1.5535">
        <ele>138.1</ele>
        <time>2021-08-09T10:53:06Z</time>
      </trkpt>
      <trkpt lat="44.48729" lon="1.55349">
        <ele>138</ele>
        <time>2021-08-09T10:53:07Z</time>
      </trkpt>
      <trkpt lat="44.48723" lon="1.55349">
        <ele>138</ele>
        <time>2021-08-09T10:53:09Z</time>
      </trkpt>
      <trkpt lat="44.48719" lon="1.55349">
        <ele>138</ele>
        <time>2021-08-09T10:53:10Z</time>
      </trkpt>
      <trkpt lat="44.48713" lon="1.55349">
        <ele>138</ele>
        <time>2021-08-09T10:53:11Z</time>
      </trkpt>
      <trkpt lat="44.48706" lon="1.55349">
        <ele>137.9</ele>
        <time>2021-08-09T10:53:13Z</time>
      </trkpt>
      <trkpt lat="44.48702" lon="1.5535">
        <ele>137.9</ele>
        <time>2021-08-09T10:53:14Z</time>
      </trkpt>
      <trkpt lat="44.48696" lon="1.5535">
        <ele>137.9</ele>
        <time>2021-08-09T10:53:15Z</time>
      </trkpt>
      <trkpt lat="44.48691" lon="1.55351">
        <ele>137.9</ele>
        <time>2021-08-09T10:53:17Z</time>
      </trkpt>
      <trkpt lat="44.48687" lon="1.55351">
        <ele>137.9</ele>
        <time>2021-08-09T10:53:18Z</time>
      </trkpt>
      <trkpt lat="44.48684" lon="1.55351">
        <ele>137.9</ele>
        <time>2021-08-09T10:53:19Z</time>
      </trkpt>
      <trkpt lat="44.48679" lon="1.55352">
        <ele>137.8</ele>
        <time>2021-08-09T10:53:20Z</time>
      </trkpt>
      <trkpt lat="44.48675" lon="1.55354">
        <ele>137.8</ele>
        <time>2021-08-09T10:53:22Z</time>
      </trkpt>
      <trkpt lat="44.48672" lon="1.55357">
        <ele>137.7</ele>
        <time>2021-08-09T10:53:23Z</time>
      </trkpt>
      <trkpt lat="44.48669" lon="1.55359">
        <ele>137.7</ele>
        <time>2021-08-09T10:53:24Z</time>
      </trkpt>
      <trkpt lat="44.48664" lon="1.55362">
        <ele>137.6</ele>
        <time>2021-08-09T10:53:26Z</time>
      </trkpt>
      <trkpt lat="44.4866" lon="1.55363">
        <ele>137.5</ele>
        <time>2021-08-09T10:53:27Z</time>
      </trkpt>
      <trkpt lat="44.48657" lon="1.55365">
        <ele>137.5</ele>
        <time>2021-08-09T10:53:28Z</time>
      </trkpt>
      <trkpt lat="44.48653" lon="1.55368">
        <ele>137.4</ele>
        <time>2021-08-09T10:53:30Z</time>
      </trkpt>
      <trkpt lat="44.48649" lon="1.55371">
        <ele>137.3</ele>
        <time>2021-08-09T10:53:31Z</time>
      </trkpt>
      <trkpt lat="44.48646" lon="1.55374">
        <ele>137.2</ele>
        <time>2021-08-09T10:53:32Z</time>
      </trkpt>
      <trkpt lat="44.48642" lon="1.55377">
        <ele>137.1</ele>
        <time>2021-08-09T10:53:33Z</time>
      </trkpt>
      <trkpt lat="44.48638" lon="1.55379">
        <ele>137.1</ele>
        <time>2021-08-09T10:53:35Z</time>
      </trkpt>
      <trkpt lat="44.48632" lon="1.55381">
        <ele>137</ele>
        <time>2021-08-09T10:53:36Z</time>
      </trkpt>
      <trkpt lat="44.48627" lon="1.55384">
        <ele>136.9</ele>
        <time>2021-08-09T10:53:38Z</time>
      </trkpt>
      <trkpt lat="44.48623" lon="1.55385">
        <ele>136.8</ele>
        <time>2021-08-09T10:53:39Z</time>
      </trkpt>
      <trkpt lat="44.48619" lon="1.55387">
        <ele>136.7</ele>
        <time>2021-08-09T10:53:40Z</time>
      </trkpt>
      <trkpt lat="44.48616" lon="1.55388">
        <ele>136.6</ele>
        <time>2021-08-09T10:53:41Z</time>
      </trkpt>
      <trkpt lat="44.48611" lon="1.5539">
        <ele>136.5</ele>
        <time>2021-08-09T10:53:42Z</time>
      </trkpt>
      <trkpt lat="44.48606" lon="1.55393">
        <ele>136.4</ele>
        <time>2021-08-09T10:53:44Z</time>
      </trkpt>
      <trkpt lat="44.48601" lon="1.55395">
        <ele>136.3</ele>
        <time>2021-08-09T10:53:45Z</time>
      </trkpt>
      <trkpt lat="44.486" lon="1.55396">
        <ele>136.3</ele>
        <time>2021-08-09T10:53:47Z</time>
      </trkpt>
      <trkpt lat="44.48601" lon="1.55398">
        <ele>136.2</ele>
        <time>2021-08-09T10:53:49Z</time>
      </trkpt>
      <trkpt lat="44.48601" lon="1.55398">
        <ele>136.2</ele>
        <time>2021-08-09T10:53:50Z</time>
      </trkpt>
      <trkpt lat="44.48601" lon="1.55398">
        <ele>136.2</ele>
        <time>2021-08-09T10:53:52Z</time>
      </trkpt>
      <trkpt lat="44.48601" lon="1.55398">
        <ele>136.2</ele>
        <time>2021-08-09T10:53:53Z</time>
      </trkpt>
      <trkpt lat="44.48601" lon="1.55398">
        <ele>136.2</ele>
        <time>2021-08-09T10:53:55Z</time>
      </trkpt>
      <trkpt lat="44.48602" lon="1.55402">
        <ele>136.2</ele>
        <time>2021-08-09T10:53:59Z</time>
      </trkpt>
      <trkpt lat="44.48603" lon="1.55408">
        <ele>135.9</ele>
        <time>2021-08-09T10:54:00Z</time>
      </trkpt>
      <trkpt lat="44.48604" lon="1.55419">
        <ele>135.9</ele>
        <time>2021-08-09T10:54:02Z</time>
      </trkpt>
      <trkpt lat="44.48605" lon="1.5543">
        <ele>135.9</ele>
        <time>2021-08-09T10:54:04Z</time>
      </trkpt>
      <trkpt lat="44.48604" lon="1.55436">
        <ele>135.9</ele>
        <time>2021-08-09T10:54:05Z</time>
      </trkpt>
      <trkpt lat="44.48605" lon="1.55439">
        <ele>135.9</ele>
        <time>2021-08-09T10:54:06Z</time>
      </trkpt>
      <trkpt lat="44.48605" lon="1.55442">
        <ele>135.9</ele>
        <time>2021-08-09T10:54:08Z</time>
      </trkpt>
      <trkpt lat="44.48605" lon="1.55446">
        <ele>135.9</ele>
        <time>2021-08-09T10:54:09Z</time>
      </trkpt>
      <trkpt lat="44.48606" lon="1.55453">
        <ele>135.9</ele>
        <time>2021-08-09T10:54:11Z</time>
      </trkpt>
      <trkpt lat="44.48607" lon="1.55461">
        <ele>135.9</ele>
        <time>2021-08-09T10:54:13Z</time>
      </trkpt>
      <trkpt lat="44.48608" lon="1.55466">
        <ele>135.9</ele>
        <time>2021-08-09T10:54:14Z</time>
      </trkpt>
      <trkpt lat="44.48609" lon="1.55469">
        <ele>135.9</ele>
        <time>2021-08-09T10:54:15Z</time>
      </trkpt>
      <trkpt lat="44.48609" lon="1.55473">
        <ele>136</ele>
        <time>2021-08-09T10:54:17Z</time>
      </trkpt>
      <trkpt lat="44.4861" lon="1.55478">
        <ele>136</ele>
        <time>2021-08-09T10:54:19Z</time>
      </trkpt>
      <trkpt lat="44.48611" lon="1.55483">
        <ele>136</ele>
        <time>2021-08-09T10:54:20Z</time>
      </trkpt>
      <trkpt lat="44.48611" lon="1.55487">
        <ele>136</ele>
        <time>2021-08-09T10:54:22Z</time>
      </trkpt>
      <trkpt lat="44.48612" lon="1.55491">
        <ele>136</ele>
        <time>2021-08-09T10:54:23Z</time>
      </trkpt>
      <trkpt lat="44.48612" lon="1.55497">
        <ele>136</ele>
        <time>2021-08-09T10:54:25Z</time>
      </trkpt>
      <trkpt lat="44.48613" lon="1.55502">
        <ele>136</ele>
        <time>2021-08-09T10:54:26Z</time>
      </trkpt>
      <trkpt lat="44.48614" lon="1.55508">
        <ele>136</ele>
        <time>2021-08-09T10:54:28Z</time>
      </trkpt>
      <trkpt lat="44.48615" lon="1.55513">
        <ele>136</ele>
        <time>2021-08-09T10:54:29Z</time>
      </trkpt>
      <trkpt lat="44.48616" lon="1.55518">
        <ele>136.1</ele>
        <time>2021-08-09T10:54:30Z</time>
      </trkpt>
      <trkpt lat="44.48617" lon="1.55527">
        <ele>136.1</ele>
        <time>2021-08-09T10:54:32Z</time>
      </trkpt>
      <trkpt lat="44.48617" lon="1.55533">
        <ele>136.1</ele>
        <time>2021-08-09T10:54:33Z</time>
      </trkpt>
      <trkpt lat="44.48616" lon="1.55538">
        <ele>136.1</ele>
        <time>2021-08-09T10:54:34Z</time>
      </trkpt>
      <trkpt lat="44.48615" lon="1.55543">
        <ele>140.3</ele>
        <time>2021-08-09T10:54:35Z</time>
      </trkpt>
      <trkpt lat="44.48614" lon="1.55548">
        <ele>141.8</ele>
        <time>2021-08-09T10:54:36Z</time>
      </trkpt>
      <trkpt lat="44.48612" lon="1.55554">
        <ele>143.8</ele>
        <time>2021-08-09T10:54:37Z</time>
      </trkpt>
      <trkpt lat="44.48609" lon="1.55555">
        <ele>145.1</ele>
        <time>2021-08-09T10:54:38Z</time>
      </trkpt>
      <trkpt lat="44.486" lon="1.55549">
        <ele>147</ele>
        <time>2021-08-09T10:54:40Z</time>
      </trkpt>
      <trkpt lat="44.48592" lon="1.55539">
        <ele>145.2</ele>
        <time>2021-08-09T10:54:42Z</time>
      </trkpt>
      <trkpt lat="44.48584" lon="1.55528">
        <ele>143.2</ele>
        <time>2021-08-09T10:54:44Z</time>
      </trkpt>
      <trkpt lat="44.48581" lon="1.5552">
        <ele>142.1</ele>
        <time>2021-08-09T10:54:46Z</time>
      </trkpt>
      <trkpt lat="44.48583" lon="1.55516">
        <ele>141.5</ele>
        <time>2021-08-09T10:54:47Z</time>
      </trkpt>
      <trkpt lat="44.48581" lon="1.55512">
        <ele>140.9</ele>
        <time>2021-08-09T10:54:48Z</time>
      </trkpt>
      <trkpt lat="44.48579" lon="1.55509">
        <ele>140.4</ele>
        <time>2021-08-09T10:54:49Z</time>
      </trkpt>
      <trkpt lat="44.48576" lon="1.5551">
        <ele>140</ele>
        <time>2021-08-09T10:54:51Z</time>
      </trkpt>
      <trkpt lat="44.48575" lon="1.5551">
        <ele>139.8</ele>
        <time>2021-08-09T10:54:53Z</time>
      </trkpt>
      <trkpt lat="44.48575" lon="1.55509">
        <ele>139.7</ele>
        <time>2021-08-09T10:54:54Z</time>
      </trkpt>
      <trkpt lat="44.48575" lon="1.5551">
        <ele>139.7</ele>
        <time>2021-08-09T10:54:56Z</time>
      </trkpt>
      <trkpt lat="44.48575" lon="1.5551">
        <ele>139.6</ele>
        <time>2021-08-09T10:54:58Z</time>
      </trkpt>
    </trkseg>
  </trk>
</gpx>